<?xml version="1.0" encoding="UTF-8" standalone="no" ?>
<gpx xmlns="http://www.topografix.com/GPX/1/1" xmlns:xsi="http://www.w3.org/2001/XMLSchema-instance" xsi:schemaLocation="http://www.topografix.com/GPX/1/1 http://www.topografix.com/GPX/1/1/gpx.xsd" version="1.1" creator="VisuGPX - https://www.visugpx.com">
  <metadata>
    <name>POULDU 2020</name>
    <desc><![CDATA[<p>Heure de départ: 10:56 8 juil. 2020<br/>Heure d'arrivée: 15:36 8 juil. 2020<br/>Distance: 52,8 km (04:39)<br/>Temps déplacement: 03:29<br/>Vitesse moyenne: 11,31 km/h<br/>Vitesse moyenne mouv.: 15,14 km/h<br/>Vitesse Max.: 37,8 km/h<br/>Altitude minimale: 0 m<br/>Altitude maximale: 57 m<br/>Vitesse de montée: 327,7 m/h<br/>Vitesse de descente: 516,2 m/h<br/>Gain d'altitude: 922 m<br/>Perte d'altitude: 905 m<br/>Temps de montée: 02:48<br/>Temps de descente: 01:45<br/></p><hr align="center" width="480" style="height: 2px; width: 517px"/>]]></desc>
  </metadata>
  <wpt lat="47.77261" lon="-3.55107">
    <ele>35.17</ele>
    <name><![CDATA[0001685]]></name>
    <desc><![CDATA[<p><br /><h3>Nom: Segment: 1</h3><br />Heure de départ: 10:37 10 juil. 2020<br/>Heure d'arrivée: 16:00 10 juil. 2020<br/>Distance: 74,7km (05:22)<br/>Temps déplacement: 04:31<br/>Vitesse moyenne: 13,88 km/h<br/>Vitesse moyenne mouv.: 16,48 km/h<br/>Vitesse Max.: 41,23 km/h<br/>Altitude minimale: 0 m<br/>Altitude maximale: 68 m<br/>Vitesse de montée: 346,3 m/h<br/>Vitesse de descente: 434,1 m/h<br/>Gain d'altitude: 1018 m<br/>Perte d'altitude: 1044 m<br/>Temps de montée: 02:56<br/>Temps de descente: 02:24<br/></p>]]></desc>
    <cmt><![CDATA[<p><br /><h3>Nom: Segment: 1</h3><br />Heure de départ: 10:37 10 juil. 2020<br/>Heure d'arrivée: 16:00 10 juil. 2020<br/>Distance: 74,7km (05:22)<br/>Temps déplacement: 04:31<br/>Vitesse moyenne: 13,88 km/h<br/>Vitesse moyenne mouv.: 16,48 km/h<br/>Vitesse Max.: 41,23 km/h<br/>Altitude minimale: 0 m<br/>Altitude maximale: 68 m<br/>Vitesse de montée: 346,3 m/h<br/>Vitesse de descente: 434,1 m/h<br/>Gain d'altitude: 1018 m<br/>Perte d'altitude: 1044 m<br/>Temps de montée: 02:56<br/>Temps de descente: 02:24<br/></p>]]></cmt>
    <type><![CDATA[user]]></type>
  </wpt>
  <trk>
    <name><![CDATA[2020-07-08 10:56:12]]></name>
    <desc><![CDATA[<p>Heure de départ: 10:56 8 juil. 2020<br/>Heure d'arrivée: 15:36 8 juil. 2020<br/>Distance: 52,8 km (04:39)<br/>Temps déplacement: 03:29<br/>Vitesse moyenne: 11,31 km/h<br/>Vitesse moyenne mouv.: 15,14 km/h<br/>Vitesse Max.: 37,8 km/h<br/>Altitude minimale: 0 m<br/>Altitude maximale: 57 m<br/>Vitesse de montée: 327,7 m/h<br/>Vitesse de descente: 516,2 m/h<br/>Gain d'altitude: 922 m<br/>Perte d'altitude: 905 m<br/>Temps de montée: 02:48<br/>Temps de descente: 01:45<br/></p><hr align="center" width="480" style="height: 2px; width: 517px"/>]]></desc>
    <trkseg>
      <trkpt lat="47.77275" lon="-3.55105">
        <ele>35.55</ele>
        <time>2020-07-08T08:56:14Z</time>
      </trkpt>
      <trkpt lat="47.77275" lon="-3.55105">
        <ele>35.48</ele>
        <time>2020-07-08T08:56:15Z</time>
      </trkpt>
      <trkpt lat="47.77274" lon="-3.55104">
        <ele>35.44</ele>
        <time>2020-07-08T08:56:16Z</time>
      </trkpt>
      <trkpt lat="47.77274" lon="-3.55104">
        <ele>35.42</ele>
        <time>2020-07-08T08:56:17Z</time>
      </trkpt>
      <trkpt lat="47.77273" lon="-3.55104">
        <ele>35.39</ele>
        <time>2020-07-08T08:56:18Z</time>
      </trkpt>
      <trkpt lat="47.77273" lon="-3.55104">
        <ele>35.36</ele>
        <time>2020-07-08T08:56:19Z</time>
      </trkpt>
      <trkpt lat="47.77273" lon="-3.55103">
        <ele>35.33</ele>
        <time>2020-07-08T08:56:20Z</time>
      </trkpt>
      <trkpt lat="47.77273" lon="-3.55103">
        <ele>35.29</ele>
        <time>2020-07-08T08:56:20Z</time>
      </trkpt>
      <trkpt lat="47.77273" lon="-3.55101">
        <ele>35.22</ele>
        <time>2020-07-08T08:56:21Z</time>
      </trkpt>
      <trkpt lat="47.77273" lon="-3.551">
        <ele>35.14</ele>
        <time>2020-07-08T08:56:21Z</time>
      </trkpt>
      <trkpt lat="47.77273" lon="-3.55098">
        <ele>35.04</ele>
        <time>2020-07-08T08:56:23Z</time>
      </trkpt>
      <trkpt lat="47.77274" lon="-3.55098">
        <ele>35</ele>
        <time>2020-07-08T08:56:24Z</time>
      </trkpt>
      <trkpt lat="47.77275" lon="-3.55098">
        <ele>35.02</ele>
        <time>2020-07-08T08:56:25Z</time>
      </trkpt>
      <trkpt lat="47.77277" lon="-3.55092">
        <ele>34.72</ele>
        <time>2020-07-08T08:56:26Z</time>
      </trkpt>
      <trkpt lat="47.77277" lon="-3.55089">
        <ele>34.5</ele>
        <time>2020-07-08T08:56:27Z</time>
      </trkpt>
      <trkpt lat="47.77278" lon="-3.55088">
        <ele>34.38</ele>
        <time>2020-07-08T08:56:28Z</time>
      </trkpt>
      <trkpt lat="47.77278" lon="-3.55087">
        <ele>34.31</ele>
        <time>2020-07-08T08:56:29Z</time>
      </trkpt>
      <trkpt lat="47.77278" lon="-3.55085">
        <ele>34.16</ele>
        <time>2020-07-08T08:56:30Z</time>
      </trkpt>
      <trkpt lat="47.77279" lon="-3.55082">
        <ele>34</ele>
        <time>2020-07-08T08:56:31Z</time>
      </trkpt>
      <trkpt lat="47.77282" lon="-3.5508">
        <ele>33.91</ele>
        <time>2020-07-08T08:56:32Z</time>
      </trkpt>
      <trkpt lat="47.77283" lon="-3.55078">
        <ele>33.83</ele>
        <time>2020-07-08T08:56:33Z</time>
      </trkpt>
      <trkpt lat="47.77284" lon="-3.55077">
        <ele>33.75</ele>
        <time>2020-07-08T08:56:34Z</time>
      </trkpt>
      <trkpt lat="47.77284" lon="-3.55076">
        <ele>33.71</ele>
        <time>2020-07-08T08:56:35Z</time>
      </trkpt>
      <trkpt lat="47.77285" lon="-3.55075">
        <ele>33.63</ele>
        <time>2020-07-08T08:56:36Z</time>
      </trkpt>
      <trkpt lat="47.77286" lon="-3.55072">
        <ele>33.51</ele>
        <time>2020-07-08T08:56:37Z</time>
      </trkpt>
      <trkpt lat="47.77286" lon="-3.55069">
        <ele>33.38</ele>
        <time>2020-07-08T08:56:38Z</time>
      </trkpt>
      <trkpt lat="47.77287" lon="-3.55065">
        <ele>33.19</ele>
        <time>2020-07-08T08:56:39Z</time>
      </trkpt>
      <trkpt lat="47.77287" lon="-3.5506">
        <ele>32.98</ele>
        <time>2020-07-08T08:56:40Z</time>
      </trkpt>
      <trkpt lat="47.77287" lon="-3.55055">
        <ele>32.77</ele>
        <time>2020-07-08T08:56:41Z</time>
      </trkpt>
      <trkpt lat="47.77287" lon="-3.55051">
        <ele>32.51</ele>
        <time>2020-07-08T08:56:42Z</time>
      </trkpt>
      <trkpt lat="47.77287" lon="-3.55045">
        <ele>32.19</ele>
        <time>2020-07-08T08:56:43Z</time>
      </trkpt>
      <trkpt lat="47.77287" lon="-3.55039">
        <ele>31.84</ele>
        <time>2020-07-08T08:56:44Z</time>
      </trkpt>
      <trkpt lat="47.77288" lon="-3.55034">
        <ele>31.5</ele>
        <time>2020-07-08T08:56:45Z</time>
      </trkpt>
      <trkpt lat="47.77289" lon="-3.55028">
        <ele>31.17</ele>
        <time>2020-07-08T08:56:46Z</time>
      </trkpt>
      <trkpt lat="47.7729" lon="-3.55022">
        <ele>30.92</ele>
        <time>2020-07-08T08:56:47Z</time>
      </trkpt>
      <trkpt lat="47.77292" lon="-3.55017">
        <ele>30.7</ele>
        <time>2020-07-08T08:56:48Z</time>
      </trkpt>
      <trkpt lat="47.77293" lon="-3.55011">
        <ele>30.49</ele>
        <time>2020-07-08T08:56:49Z</time>
      </trkpt>
      <trkpt lat="47.77294" lon="-3.55006">
        <ele>30.29</ele>
        <time>2020-07-08T08:56:50Z</time>
      </trkpt>
      <trkpt lat="47.77296" lon="-3.55">
        <ele>30.1</ele>
        <time>2020-07-08T08:56:51Z</time>
      </trkpt>
      <trkpt lat="47.77297" lon="-3.54996">
        <ele>29.9</ele>
        <time>2020-07-08T08:56:52Z</time>
      </trkpt>
      <trkpt lat="47.77298" lon="-3.54992">
        <ele>29.72</ele>
        <time>2020-07-08T08:56:53Z</time>
      </trkpt>
      <trkpt lat="47.77298" lon="-3.54988">
        <ele>29.54</ele>
        <time>2020-07-08T08:56:54Z</time>
      </trkpt>
      <trkpt lat="47.77299" lon="-3.54984">
        <ele>29.37</ele>
        <time>2020-07-08T08:56:55Z</time>
      </trkpt>
      <trkpt lat="47.773" lon="-3.5498">
        <ele>29.22</ele>
        <time>2020-07-08T08:56:56Z</time>
      </trkpt>
      <trkpt lat="47.77302" lon="-3.54976">
        <ele>29.07</ele>
        <time>2020-07-08T08:56:57Z</time>
      </trkpt>
      <trkpt lat="47.77302" lon="-3.54972">
        <ele>28.94</ele>
        <time>2020-07-08T08:56:58Z</time>
      </trkpt>
      <trkpt lat="47.77303" lon="-3.54969">
        <ele>28.84</ele>
        <time>2020-07-08T08:56:59Z</time>
      </trkpt>
      <trkpt lat="47.77304" lon="-3.54966">
        <ele>28.76</ele>
        <time>2020-07-08T08:57:00Z</time>
      </trkpt>
      <trkpt lat="47.77306" lon="-3.54966">
        <ele>28.77</ele>
        <time>2020-07-08T08:57:01Z</time>
      </trkpt>
      <trkpt lat="47.77308" lon="-3.54966">
        <ele>28.77</ele>
        <time>2020-07-08T08:57:02Z</time>
      </trkpt>
      <trkpt lat="47.7731" lon="-3.54967">
        <ele>28.8</ele>
        <time>2020-07-08T08:57:03Z</time>
      </trkpt>
      <trkpt lat="47.77313" lon="-3.54967">
        <ele>28.81</ele>
        <time>2020-07-08T08:57:04Z</time>
      </trkpt>
      <trkpt lat="47.77315" lon="-3.54965">
        <ele>28.76</ele>
        <time>2020-07-08T08:57:05Z</time>
      </trkpt>
      <trkpt lat="47.77317" lon="-3.54962">
        <ele>28.66</ele>
        <time>2020-07-08T08:57:06Z</time>
      </trkpt>
      <trkpt lat="47.77318" lon="-3.54958">
        <ele>28.53</ele>
        <time>2020-07-08T08:57:07Z</time>
      </trkpt>
      <trkpt lat="47.7732" lon="-3.54953">
        <ele>28.38</ele>
        <time>2020-07-08T08:57:08Z</time>
      </trkpt>
      <trkpt lat="47.77321" lon="-3.54949">
        <ele>28.24</ele>
        <time>2020-07-08T08:57:09Z</time>
      </trkpt>
      <trkpt lat="47.77323" lon="-3.54946">
        <ele>28.1</ele>
        <time>2020-07-08T08:57:10Z</time>
      </trkpt>
      <trkpt lat="47.77325" lon="-3.54942">
        <ele>28.03</ele>
        <time>2020-07-08T08:57:11Z</time>
      </trkpt>
      <trkpt lat="47.77325" lon="-3.54938">
        <ele>28.01</ele>
        <time>2020-07-08T08:57:12Z</time>
      </trkpt>
      <trkpt lat="47.77325" lon="-3.54934">
        <ele>28</ele>
        <time>2020-07-08T08:57:13Z</time>
      </trkpt>
      <trkpt lat="47.77325" lon="-3.54932">
        <ele>28</ele>
        <time>2020-07-08T08:57:14Z</time>
      </trkpt>
      <trkpt lat="47.77324" lon="-3.54929">
        <ele>28</ele>
        <time>2020-07-08T08:57:15Z</time>
      </trkpt>
      <trkpt lat="47.77323" lon="-3.54926">
        <ele>28</ele>
        <time>2020-07-08T08:57:16Z</time>
      </trkpt>
      <trkpt lat="47.77321" lon="-3.54923">
        <ele>28</ele>
        <time>2020-07-08T08:57:17Z</time>
      </trkpt>
      <trkpt lat="47.7732" lon="-3.54921">
        <ele>28</ele>
        <time>2020-07-08T08:57:18Z</time>
      </trkpt>
      <trkpt lat="47.77319" lon="-3.54919">
        <ele>28</ele>
        <time>2020-07-08T08:57:19Z</time>
      </trkpt>
      <trkpt lat="47.77318" lon="-3.54916">
        <ele>28.02</ele>
        <time>2020-07-08T08:57:20Z</time>
      </trkpt>
      <trkpt lat="47.77317" lon="-3.54913">
        <ele>28.1</ele>
        <time>2020-07-08T08:57:21Z</time>
      </trkpt>
      <trkpt lat="47.77317" lon="-3.5491">
        <ele>28.2</ele>
        <time>2020-07-08T08:57:22Z</time>
      </trkpt>
      <trkpt lat="47.77319" lon="-3.54906">
        <ele>28.33</ele>
        <time>2020-07-08T08:57:23Z</time>
      </trkpt>
      <trkpt lat="47.7732" lon="-3.54903">
        <ele>28.45</ele>
        <time>2020-07-08T08:57:24Z</time>
      </trkpt>
      <trkpt lat="47.77321" lon="-3.549">
        <ele>28.55</ele>
        <time>2020-07-08T08:57:25Z</time>
      </trkpt>
      <trkpt lat="47.77323" lon="-3.54899">
        <ele>28.61</ele>
        <time>2020-07-08T08:57:26Z</time>
      </trkpt>
      <trkpt lat="47.77325" lon="-3.54897">
        <ele>28.67</ele>
        <time>2020-07-08T08:57:27Z</time>
      </trkpt>
      <trkpt lat="47.77326" lon="-3.54895">
        <ele>28.74</ele>
        <time>2020-07-08T08:57:28Z</time>
      </trkpt>
      <trkpt lat="47.77327" lon="-3.54893">
        <ele>28.81</ele>
        <time>2020-07-08T08:57:29Z</time>
      </trkpt>
      <trkpt lat="47.77327" lon="-3.54891">
        <ele>28.89</ele>
        <time>2020-07-08T08:57:30Z</time>
      </trkpt>
      <trkpt lat="47.77328" lon="-3.54888">
        <ele>28.99</ele>
        <time>2020-07-08T08:57:31Z</time>
      </trkpt>
      <trkpt lat="47.77328" lon="-3.54884">
        <ele>29.11</ele>
        <time>2020-07-08T08:57:32Z</time>
      </trkpt>
      <trkpt lat="47.77329" lon="-3.54881">
        <ele>29.23</ele>
        <time>2020-07-08T08:57:33Z</time>
      </trkpt>
      <trkpt lat="47.77329" lon="-3.54878">
        <ele>29.35</ele>
        <time>2020-07-08T08:57:34Z</time>
      </trkpt>
      <trkpt lat="47.7733" lon="-3.54875">
        <ele>29.47</ele>
        <time>2020-07-08T08:57:35Z</time>
      </trkpt>
      <trkpt lat="47.77332" lon="-3.5487">
        <ele>29.61</ele>
        <time>2020-07-08T08:57:36Z</time>
      </trkpt>
      <trkpt lat="47.77333" lon="-3.54865">
        <ele>29.77</ele>
        <time>2020-07-08T08:57:37Z</time>
      </trkpt>
      <trkpt lat="47.77333" lon="-3.54861">
        <ele>29.93</ele>
        <time>2020-07-08T08:57:38Z</time>
      </trkpt>
      <trkpt lat="47.77334" lon="-3.54858">
        <ele>29.98</ele>
        <time>2020-07-08T08:57:39Z</time>
      </trkpt>
      <trkpt lat="47.77335" lon="-3.54854">
        <ele>29.99</ele>
        <time>2020-07-08T08:57:40Z</time>
      </trkpt>
      <trkpt lat="47.77335" lon="-3.54851">
        <ele>30</ele>
        <time>2020-07-08T08:57:41Z</time>
      </trkpt>
      <trkpt lat="47.77336" lon="-3.54846">
        <ele>30</ele>
        <time>2020-07-08T08:57:42Z</time>
      </trkpt>
      <trkpt lat="47.77337" lon="-3.54842">
        <ele>30</ele>
        <time>2020-07-08T08:57:43Z</time>
      </trkpt>
      <trkpt lat="47.77339" lon="-3.54837">
        <ele>30</ele>
        <time>2020-07-08T08:57:44Z</time>
      </trkpt>
      <trkpt lat="47.7734" lon="-3.54833">
        <ele>30.01</ele>
        <time>2020-07-08T08:57:45Z</time>
      </trkpt>
      <trkpt lat="47.7734" lon="-3.54829">
        <ele>30.11</ele>
        <time>2020-07-08T08:57:46Z</time>
      </trkpt>
      <trkpt lat="47.77339" lon="-3.54826">
        <ele>30.23</ele>
        <time>2020-07-08T08:57:47Z</time>
      </trkpt>
      <trkpt lat="47.77339" lon="-3.54822">
        <ele>30.35</ele>
        <time>2020-07-08T08:57:48Z</time>
      </trkpt>
      <trkpt lat="47.77338" lon="-3.5482">
        <ele>30.45</ele>
        <time>2020-07-08T08:57:49Z</time>
      </trkpt>
      <trkpt lat="47.77336" lon="-3.54816">
        <ele>30.56</ele>
        <time>2020-07-08T08:57:50Z</time>
      </trkpt>
      <trkpt lat="47.77334" lon="-3.54813">
        <ele>30.68</ele>
        <time>2020-07-08T08:57:51Z</time>
      </trkpt>
      <trkpt lat="47.77333" lon="-3.5481">
        <ele>30.8</ele>
        <time>2020-07-08T08:57:52Z</time>
      </trkpt>
      <trkpt lat="47.77331" lon="-3.54806">
        <ele>30.94</ele>
        <time>2020-07-08T08:57:53Z</time>
      </trkpt>
      <trkpt lat="47.7733" lon="-3.54802">
        <ele>31.07</ele>
        <time>2020-07-08T08:57:54Z</time>
      </trkpt>
      <trkpt lat="47.77329" lon="-3.54799">
        <ele>31.19</ele>
        <time>2020-07-08T08:57:55Z</time>
      </trkpt>
      <trkpt lat="47.77327" lon="-3.54795">
        <ele>31.33</ele>
        <time>2020-07-08T08:57:56Z</time>
      </trkpt>
      <trkpt lat="47.77325" lon="-3.54791">
        <ele>31.47</ele>
        <time>2020-07-08T08:57:57Z</time>
      </trkpt>
      <trkpt lat="47.77322" lon="-3.54785">
        <ele>31.66</ele>
        <time>2020-07-08T08:57:58Z</time>
      </trkpt>
      <trkpt lat="47.77319" lon="-3.54781">
        <ele>31.81</ele>
        <time>2020-07-08T08:57:59Z</time>
      </trkpt>
      <trkpt lat="47.77318" lon="-3.54777">
        <ele>31.95</ele>
        <time>2020-07-08T08:58:00Z</time>
      </trkpt>
      <trkpt lat="47.77316" lon="-3.54774">
        <ele>32.08</ele>
        <time>2020-07-08T08:58:01Z</time>
      </trkpt>
      <trkpt lat="47.77315" lon="-3.54771">
        <ele>32.2</ele>
        <time>2020-07-08T08:58:02Z</time>
      </trkpt>
      <trkpt lat="47.77313" lon="-3.54769">
        <ele>32.29</ele>
        <time>2020-07-08T08:58:03Z</time>
      </trkpt>
      <trkpt lat="47.77312" lon="-3.54766">
        <ele>32.39</ele>
        <time>2020-07-08T08:58:04Z</time>
      </trkpt>
      <trkpt lat="47.77309" lon="-3.54762">
        <ele>32.51</ele>
        <time>2020-07-08T08:58:05Z</time>
      </trkpt>
      <trkpt lat="47.77308" lon="-3.5476">
        <ele>32.6</ele>
        <time>2020-07-08T08:58:06Z</time>
      </trkpt>
      <trkpt lat="47.77306" lon="-3.54757">
        <ele>32.69</ele>
        <time>2020-07-08T08:58:07Z</time>
      </trkpt>
      <trkpt lat="47.77304" lon="-3.54754">
        <ele>32.77</ele>
        <time>2020-07-08T08:58:08Z</time>
      </trkpt>
      <trkpt lat="47.77303" lon="-3.5475">
        <ele>32.85</ele>
        <time>2020-07-08T08:58:09Z</time>
      </trkpt>
      <trkpt lat="47.77301" lon="-3.54747">
        <ele>32.93</ele>
        <time>2020-07-08T08:58:10Z</time>
      </trkpt>
      <trkpt lat="47.77299" lon="-3.54743">
        <ele>33.01</ele>
        <time>2020-07-08T08:58:11Z</time>
      </trkpt>
      <trkpt lat="47.77298" lon="-3.54739">
        <ele>33.1</ele>
        <time>2020-07-08T08:58:12Z</time>
      </trkpt>
      <trkpt lat="47.77296" lon="-3.54734">
        <ele>33.19</ele>
        <time>2020-07-08T08:58:13Z</time>
      </trkpt>
      <trkpt lat="47.77294" lon="-3.5473">
        <ele>33.29</ele>
        <time>2020-07-08T08:58:14Z</time>
      </trkpt>
      <trkpt lat="47.77293" lon="-3.54725">
        <ele>33.4</ele>
        <time>2020-07-08T08:58:15Z</time>
      </trkpt>
      <trkpt lat="47.77292" lon="-3.5472">
        <ele>33.47</ele>
        <time>2020-07-08T08:58:16Z</time>
      </trkpt>
      <trkpt lat="47.77291" lon="-3.54715">
        <ele>33.47</ele>
        <time>2020-07-08T08:58:17Z</time>
      </trkpt>
      <trkpt lat="47.7729" lon="-3.5471">
        <ele>33.46</ele>
        <time>2020-07-08T08:58:18Z</time>
      </trkpt>
      <trkpt lat="47.77291" lon="-3.54705">
        <ele>33.47</ele>
        <time>2020-07-08T08:58:19Z</time>
      </trkpt>
      <trkpt lat="47.77291" lon="-3.54699">
        <ele>33.48</ele>
        <time>2020-07-08T08:58:20Z</time>
      </trkpt>
      <trkpt lat="47.77292" lon="-3.54693">
        <ele>33.53</ele>
        <time>2020-07-08T08:58:21Z</time>
      </trkpt>
      <trkpt lat="47.77292" lon="-3.54688">
        <ele>33.68</ele>
        <time>2020-07-08T08:58:22Z</time>
      </trkpt>
      <trkpt lat="47.77292" lon="-3.54682">
        <ele>33.87</ele>
        <time>2020-07-08T08:58:23Z</time>
      </trkpt>
      <trkpt lat="47.77292" lon="-3.54677">
        <ele>34.08</ele>
        <time>2020-07-08T08:58:24Z</time>
      </trkpt>
      <trkpt lat="47.77292" lon="-3.54671">
        <ele>34.27</ele>
        <time>2020-07-08T08:58:25Z</time>
      </trkpt>
      <trkpt lat="47.77293" lon="-3.54666">
        <ele>34.47</ele>
        <time>2020-07-08T08:58:26Z</time>
      </trkpt>
      <trkpt lat="47.77293" lon="-3.54661">
        <ele>34.67</ele>
        <time>2020-07-08T08:58:27Z</time>
      </trkpt>
      <trkpt lat="47.77295" lon="-3.54657">
        <ele>34.89</ele>
        <time>2020-07-08T08:58:28Z</time>
      </trkpt>
      <trkpt lat="47.77297" lon="-3.54655">
        <ele>35.06</ele>
        <time>2020-07-08T08:58:29Z</time>
      </trkpt>
      <trkpt lat="47.773" lon="-3.54652">
        <ele>35.23</ele>
        <time>2020-07-08T08:58:30Z</time>
      </trkpt>
      <trkpt lat="47.77302" lon="-3.54651">
        <ele>35.39</ele>
        <time>2020-07-08T08:58:31Z</time>
      </trkpt>
      <trkpt lat="47.77305" lon="-3.5465">
        <ele>35.52</ele>
        <time>2020-07-08T08:58:32Z</time>
      </trkpt>
      <trkpt lat="47.77308" lon="-3.5465">
        <ele>35.64</ele>
        <time>2020-07-08T08:58:33Z</time>
      </trkpt>
      <trkpt lat="47.77313" lon="-3.54651">
        <ele>35.76</ele>
        <time>2020-07-08T08:58:34Z</time>
      </trkpt>
      <trkpt lat="47.77316" lon="-3.54652">
        <ele>35.87</ele>
        <time>2020-07-08T08:58:35Z</time>
      </trkpt>
      <trkpt lat="47.7732" lon="-3.54652">
        <ele>35.99</ele>
        <time>2020-07-08T08:58:36Z</time>
      </trkpt>
      <trkpt lat="47.77324" lon="-3.54654">
        <ele>36.09</ele>
        <time>2020-07-08T08:58:37Z</time>
      </trkpt>
      <trkpt lat="47.77327" lon="-3.54654">
        <ele>36.19</ele>
        <time>2020-07-08T08:58:38Z</time>
      </trkpt>
      <trkpt lat="47.7733" lon="-3.54654">
        <ele>36.29</ele>
        <time>2020-07-08T08:58:39Z</time>
      </trkpt>
      <trkpt lat="47.77334" lon="-3.54654">
        <ele>36.4</ele>
        <time>2020-07-08T08:58:40Z</time>
      </trkpt>
      <trkpt lat="47.77337" lon="-3.54653">
        <ele>36.46</ele>
        <time>2020-07-08T08:58:41Z</time>
      </trkpt>
      <trkpt lat="47.77339" lon="-3.54652">
        <ele>36.5</ele>
        <time>2020-07-08T08:58:42Z</time>
      </trkpt>
      <trkpt lat="47.77343" lon="-3.54651">
        <ele>36.55</ele>
        <time>2020-07-08T08:58:43Z</time>
      </trkpt>
      <trkpt lat="47.77346" lon="-3.5465">
        <ele>36.59</ele>
        <time>2020-07-08T08:58:44Z</time>
      </trkpt>
      <trkpt lat="47.7735" lon="-3.54649">
        <ele>36.63</ele>
        <time>2020-07-08T08:58:45Z</time>
      </trkpt>
      <trkpt lat="47.77354" lon="-3.54648">
        <ele>36.67</ele>
        <time>2020-07-08T08:58:46Z</time>
      </trkpt>
      <trkpt lat="47.77358" lon="-3.54646">
        <ele>36.73</ele>
        <time>2020-07-08T08:58:47Z</time>
      </trkpt>
      <trkpt lat="47.77362" lon="-3.54642">
        <ele>36.84</ele>
        <time>2020-07-08T08:58:48Z</time>
      </trkpt>
      <trkpt lat="47.77366" lon="-3.54639">
        <ele>36.94</ele>
        <time>2020-07-08T08:58:49Z</time>
      </trkpt>
      <trkpt lat="47.7737" lon="-3.54635">
        <ele>37.09</ele>
        <time>2020-07-08T08:58:50Z</time>
      </trkpt>
      <trkpt lat="47.77373" lon="-3.54631">
        <ele>37.22</ele>
        <time>2020-07-08T08:58:51Z</time>
      </trkpt>
      <trkpt lat="47.77377" lon="-3.54628">
        <ele>37.34</ele>
        <time>2020-07-08T08:58:52Z</time>
      </trkpt>
      <trkpt lat="47.77381" lon="-3.54624">
        <ele>37.47</ele>
        <time>2020-07-08T08:58:53Z</time>
      </trkpt>
      <trkpt lat="47.77384" lon="-3.54621">
        <ele>37.59</ele>
        <time>2020-07-08T08:58:54Z</time>
      </trkpt>
      <trkpt lat="47.77388" lon="-3.54618">
        <ele>37.72</ele>
        <time>2020-07-08T08:58:55Z</time>
      </trkpt>
      <trkpt lat="47.77392" lon="-3.54614">
        <ele>37.85</ele>
        <time>2020-07-08T08:58:56Z</time>
      </trkpt>
      <trkpt lat="47.77396" lon="-3.5461">
        <ele>37.98</ele>
        <time>2020-07-08T08:58:57Z</time>
      </trkpt>
      <trkpt lat="47.774" lon="-3.54606">
        <ele>38.12</ele>
        <time>2020-07-08T08:58:58Z</time>
      </trkpt>
      <trkpt lat="47.77404" lon="-3.54603">
        <ele>38.25</ele>
        <time>2020-07-08T08:58:59Z</time>
      </trkpt>
      <trkpt lat="47.77408" lon="-3.54599">
        <ele>38.37</ele>
        <time>2020-07-08T08:59:00Z</time>
      </trkpt>
      <trkpt lat="47.77412" lon="-3.54596">
        <ele>38.49</ele>
        <time>2020-07-08T08:59:01Z</time>
      </trkpt>
      <trkpt lat="47.77416" lon="-3.54593">
        <ele>38.61</ele>
        <time>2020-07-08T08:59:02Z</time>
      </trkpt>
      <trkpt lat="47.7742" lon="-3.54589">
        <ele>38.73</ele>
        <time>2020-07-08T08:59:03Z</time>
      </trkpt>
      <trkpt lat="47.77424" lon="-3.54587">
        <ele>38.83</ele>
        <time>2020-07-08T08:59:04Z</time>
      </trkpt>
      <trkpt lat="47.77428" lon="-3.54584">
        <ele>38.93</ele>
        <time>2020-07-08T08:59:05Z</time>
      </trkpt>
      <trkpt lat="47.77431" lon="-3.54582">
        <ele>38.98</ele>
        <time>2020-07-08T08:59:06Z</time>
      </trkpt>
      <trkpt lat="47.77435" lon="-3.54579">
        <ele>38.99</ele>
        <time>2020-07-08T08:59:07Z</time>
      </trkpt>
      <trkpt lat="47.77437" lon="-3.54575">
        <ele>39</ele>
        <time>2020-07-08T08:59:08Z</time>
      </trkpt>
      <trkpt lat="47.77438" lon="-3.5457">
        <ele>39</ele>
        <time>2020-07-08T08:59:09Z</time>
      </trkpt>
      <trkpt lat="47.77437" lon="-3.54564">
        <ele>39</ele>
        <time>2020-07-08T08:59:10Z</time>
      </trkpt>
      <trkpt lat="47.77436" lon="-3.54558">
        <ele>39</ele>
        <time>2020-07-08T08:59:11Z</time>
      </trkpt>
      <trkpt lat="47.77435" lon="-3.54552">
        <ele>39.03</ele>
        <time>2020-07-08T08:59:12Z</time>
      </trkpt>
      <trkpt lat="47.77433" lon="-3.54547">
        <ele>39.1</ele>
        <time>2020-07-08T08:59:13Z</time>
      </trkpt>
      <trkpt lat="47.77432" lon="-3.54542">
        <ele>39.18</ele>
        <time>2020-07-08T08:59:14Z</time>
      </trkpt>
      <trkpt lat="47.77431" lon="-3.54538">
        <ele>39.27</ele>
        <time>2020-07-08T08:59:15Z</time>
      </trkpt>
      <trkpt lat="47.77429" lon="-3.54533">
        <ele>39.4</ele>
        <time>2020-07-08T08:59:16Z</time>
      </trkpt>
      <trkpt lat="47.77427" lon="-3.54528">
        <ele>39.56</ele>
        <time>2020-07-08T08:59:17Z</time>
      </trkpt>
      <trkpt lat="47.77425" lon="-3.54523">
        <ele>39.63</ele>
        <time>2020-07-08T08:59:18Z</time>
      </trkpt>
      <trkpt lat="47.77423" lon="-3.54517">
        <ele>39.68</ele>
        <time>2020-07-08T08:59:19Z</time>
      </trkpt>
      <trkpt lat="47.77421" lon="-3.54512">
        <ele>39.74</ele>
        <time>2020-07-08T08:59:20Z</time>
      </trkpt>
      <trkpt lat="47.77418" lon="-3.54506">
        <ele>39.85</ele>
        <time>2020-07-08T08:59:21Z</time>
      </trkpt>
      <trkpt lat="47.77416" lon="-3.545">
        <ele>39.95</ele>
        <time>2020-07-08T08:59:22Z</time>
      </trkpt>
      <trkpt lat="47.77413" lon="-3.54495">
        <ele>39.99</ele>
        <time>2020-07-08T08:59:23Z</time>
      </trkpt>
      <trkpt lat="47.7741" lon="-3.5449">
        <ele>40</ele>
        <time>2020-07-08T08:59:24Z</time>
      </trkpt>
      <trkpt lat="47.77408" lon="-3.54484">
        <ele>40</ele>
        <time>2020-07-08T08:59:25Z</time>
      </trkpt>
      <trkpt lat="47.77405" lon="-3.54479">
        <ele>40</ele>
        <time>2020-07-08T08:59:26Z</time>
      </trkpt>
      <trkpt lat="47.77402" lon="-3.54474">
        <ele>40</ele>
        <time>2020-07-08T08:59:27Z</time>
      </trkpt>
      <trkpt lat="47.77399" lon="-3.54468">
        <ele>39.96</ele>
        <time>2020-07-08T08:59:28Z</time>
      </trkpt>
      <trkpt lat="47.77396" lon="-3.54462">
        <ele>39.92</ele>
        <time>2020-07-08T08:59:29Z</time>
      </trkpt>
      <trkpt lat="47.77393" lon="-3.54457">
        <ele>39.92</ele>
        <time>2020-07-08T08:59:30Z</time>
      </trkpt>
      <trkpt lat="47.7739" lon="-3.54451">
        <ele>39.95</ele>
        <time>2020-07-08T08:59:31Z</time>
      </trkpt>
      <trkpt lat="47.77387" lon="-3.54445">
        <ele>40.03</ele>
        <time>2020-07-08T08:59:32Z</time>
      </trkpt>
      <trkpt lat="47.77384" lon="-3.5444">
        <ele>40.14</ele>
        <time>2020-07-08T08:59:33Z</time>
      </trkpt>
      <trkpt lat="47.7738" lon="-3.54434">
        <ele>40.27</ele>
        <time>2020-07-08T08:59:34Z</time>
      </trkpt>
      <trkpt lat="47.77376" lon="-3.54428">
        <ele>40.4</ele>
        <time>2020-07-08T08:59:35Z</time>
      </trkpt>
      <trkpt lat="47.77373" lon="-3.54424">
        <ele>40.52</ele>
        <time>2020-07-08T08:59:36Z</time>
      </trkpt>
      <trkpt lat="47.77369" lon="-3.54418">
        <ele>40.65</ele>
        <time>2020-07-08T08:59:37Z</time>
      </trkpt>
      <trkpt lat="47.77365" lon="-3.54415">
        <ele>40.79</ele>
        <time>2020-07-08T08:59:38Z</time>
      </trkpt>
      <trkpt lat="47.77361" lon="-3.5441">
        <ele>40.94</ele>
        <time>2020-07-08T08:59:39Z</time>
      </trkpt>
      <trkpt lat="47.77356" lon="-3.54406">
        <ele>40.98</ele>
        <time>2020-07-08T08:59:40Z</time>
      </trkpt>
      <trkpt lat="47.77352" lon="-3.54401">
        <ele>40.99</ele>
        <time>2020-07-08T08:59:41Z</time>
      </trkpt>
      <trkpt lat="47.77348" lon="-3.54396">
        <ele>41</ele>
        <time>2020-07-08T08:59:42Z</time>
      </trkpt>
      <trkpt lat="47.77344" lon="-3.54392">
        <ele>41</ele>
        <time>2020-07-08T08:59:43Z</time>
      </trkpt>
      <trkpt lat="47.77341" lon="-3.54387">
        <ele>40.99</ele>
        <time>2020-07-08T08:59:44Z</time>
      </trkpt>
      <trkpt lat="47.77337" lon="-3.54382">
        <ele>40.98</ele>
        <time>2020-07-08T08:59:45Z</time>
      </trkpt>
      <trkpt lat="47.77333" lon="-3.54377">
        <ele>40.99</ele>
        <time>2020-07-08T08:59:46Z</time>
      </trkpt>
      <trkpt lat="47.77328" lon="-3.54372">
        <ele>41</ele>
        <time>2020-07-08T08:59:47Z</time>
      </trkpt>
      <trkpt lat="47.77324" lon="-3.54368">
        <ele>41</ele>
        <time>2020-07-08T08:59:48Z</time>
      </trkpt>
      <trkpt lat="47.7732" lon="-3.54362">
        <ele>41</ele>
        <time>2020-07-08T08:59:49Z</time>
      </trkpt>
      <trkpt lat="47.77316" lon="-3.54357">
        <ele>41</ele>
        <time>2020-07-08T08:59:50Z</time>
      </trkpt>
      <trkpt lat="47.77313" lon="-3.54352">
        <ele>41</ele>
        <time>2020-07-08T08:59:51Z</time>
      </trkpt>
      <trkpt lat="47.77309" lon="-3.54347">
        <ele>41</ele>
        <time>2020-07-08T08:59:52Z</time>
      </trkpt>
      <trkpt lat="47.77305" lon="-3.54342">
        <ele>41</ele>
        <time>2020-07-08T08:59:53Z</time>
      </trkpt>
      <trkpt lat="47.77302" lon="-3.54337">
        <ele>41</ele>
        <time>2020-07-08T08:59:54Z</time>
      </trkpt>
      <trkpt lat="47.77298" lon="-3.54332">
        <ele>41</ele>
        <time>2020-07-08T08:59:55Z</time>
      </trkpt>
      <trkpt lat="47.77295" lon="-3.54327">
        <ele>41</ele>
        <time>2020-07-08T08:59:56Z</time>
      </trkpt>
      <trkpt lat="47.77292" lon="-3.54322">
        <ele>41</ele>
        <time>2020-07-08T08:59:57Z</time>
      </trkpt>
      <trkpt lat="47.77289" lon="-3.54316">
        <ele>41</ele>
        <time>2020-07-08T08:59:58Z</time>
      </trkpt>
      <trkpt lat="47.77286" lon="-3.5431">
        <ele>41</ele>
        <time>2020-07-08T08:59:59Z</time>
      </trkpt>
      <trkpt lat="47.77283" lon="-3.54304">
        <ele>41</ele>
        <time>2020-07-08T09:00:00Z</time>
      </trkpt>
      <trkpt lat="47.7728" lon="-3.54297">
        <ele>41</ele>
        <time>2020-07-08T09:00:01Z</time>
      </trkpt>
      <trkpt lat="47.77277" lon="-3.54291">
        <ele>40.98</ele>
        <time>2020-07-08T09:00:02Z</time>
      </trkpt>
      <trkpt lat="47.77273" lon="-3.54285">
        <ele>40.89</ele>
        <time>2020-07-08T09:00:03Z</time>
      </trkpt>
      <trkpt lat="47.7727" lon="-3.5428">
        <ele>40.77</ele>
        <time>2020-07-08T09:00:04Z</time>
      </trkpt>
      <trkpt lat="47.77267" lon="-3.54274">
        <ele>40.65</ele>
        <time>2020-07-08T09:00:05Z</time>
      </trkpt>
      <trkpt lat="47.77263" lon="-3.54268">
        <ele>40.51</ele>
        <time>2020-07-08T09:00:06Z</time>
      </trkpt>
      <trkpt lat="47.7726" lon="-3.54261">
        <ele>40.39</ele>
        <time>2020-07-08T09:00:07Z</time>
      </trkpt>
      <trkpt lat="47.77257" lon="-3.54254">
        <ele>40.29</ele>
        <time>2020-07-08T09:00:08Z</time>
      </trkpt>
      <trkpt lat="47.77253" lon="-3.54248">
        <ele>40.17</ele>
        <time>2020-07-08T09:00:09Z</time>
      </trkpt>
      <trkpt lat="47.7725" lon="-3.54241">
        <ele>40.04</ele>
        <time>2020-07-08T09:00:10Z</time>
      </trkpt>
      <trkpt lat="47.77247" lon="-3.54235">
        <ele>39.93</ele>
        <time>2020-07-08T09:00:11Z</time>
      </trkpt>
      <trkpt lat="47.77243" lon="-3.54229">
        <ele>39.81</ele>
        <time>2020-07-08T09:00:12Z</time>
      </trkpt>
      <trkpt lat="47.7724" lon="-3.54222">
        <ele>39.7</ele>
        <time>2020-07-08T09:00:13Z</time>
      </trkpt>
      <trkpt lat="47.77237" lon="-3.54216">
        <ele>39.65</ele>
        <time>2020-07-08T09:00:14Z</time>
      </trkpt>
      <trkpt lat="47.77234" lon="-3.54211">
        <ele>39.66</ele>
        <time>2020-07-08T09:00:15Z</time>
      </trkpt>
      <trkpt lat="47.77231" lon="-3.54204">
        <ele>39.73</ele>
        <time>2020-07-08T09:00:16Z</time>
      </trkpt>
      <trkpt lat="47.77229" lon="-3.54198">
        <ele>39.85</ele>
        <time>2020-07-08T09:00:17Z</time>
      </trkpt>
      <trkpt lat="47.77226" lon="-3.54192">
        <ele>39.91</ele>
        <time>2020-07-08T09:00:18Z</time>
      </trkpt>
      <trkpt lat="47.77224" lon="-3.54185">
        <ele>39.75</ele>
        <time>2020-07-08T09:00:19Z</time>
      </trkpt>
      <trkpt lat="47.77221" lon="-3.54178">
        <ele>39.49</ele>
        <time>2020-07-08T09:00:20Z</time>
      </trkpt>
      <trkpt lat="47.77219" lon="-3.54171">
        <ele>39.15</ele>
        <time>2020-07-08T09:00:21Z</time>
      </trkpt>
      <trkpt lat="47.77217" lon="-3.54163">
        <ele>38.92</ele>
        <time>2020-07-08T09:00:22Z</time>
      </trkpt>
      <trkpt lat="47.77215" lon="-3.54155">
        <ele>38.81</ele>
        <time>2020-07-08T09:00:23Z</time>
      </trkpt>
      <trkpt lat="47.77214" lon="-3.54146">
        <ele>38.73</ele>
        <time>2020-07-08T09:00:24Z</time>
      </trkpt>
      <trkpt lat="47.77212" lon="-3.54138">
        <ele>38.65</ele>
        <time>2020-07-08T09:00:25Z</time>
      </trkpt>
      <trkpt lat="47.7721" lon="-3.5413">
        <ele>38.49</ele>
        <time>2020-07-08T09:00:26Z</time>
      </trkpt>
      <trkpt lat="47.77208" lon="-3.54122">
        <ele>38.28</ele>
        <time>2020-07-08T09:00:27Z</time>
      </trkpt>
      <trkpt lat="47.77207" lon="-3.54113">
        <ele>38.02</ele>
        <time>2020-07-08T09:00:28Z</time>
      </trkpt>
      <trkpt lat="47.77204" lon="-3.54105">
        <ele>37.8</ele>
        <time>2020-07-08T09:00:29Z</time>
      </trkpt>
      <trkpt lat="47.77202" lon="-3.54098">
        <ele>37.62</ele>
        <time>2020-07-08T09:00:30Z</time>
      </trkpt>
      <trkpt lat="47.772" lon="-3.54094">
        <ele>37.48</ele>
        <time>2020-07-08T09:00:31Z</time>
      </trkpt>
      <trkpt lat="47.77199" lon="-3.54091">
        <ele>37.37</ele>
        <time>2020-07-08T09:00:32Z</time>
      </trkpt>
      <trkpt lat="47.77198" lon="-3.54089">
        <ele>37.29</ele>
        <time>2020-07-08T09:00:33Z</time>
      </trkpt>
      <trkpt lat="47.77198" lon="-3.54086">
        <ele>37.24</ele>
        <time>2020-07-08T09:00:34Z</time>
      </trkpt>
      <trkpt lat="47.77197" lon="-3.54081">
        <ele>37.2</ele>
        <time>2020-07-08T09:00:35Z</time>
      </trkpt>
      <trkpt lat="47.77196" lon="-3.54076">
        <ele>37.14</ele>
        <time>2020-07-08T09:00:36Z</time>
      </trkpt>
      <trkpt lat="47.77195" lon="-3.5407">
        <ele>37.05</ele>
        <time>2020-07-08T09:00:37Z</time>
      </trkpt>
      <trkpt lat="47.77193" lon="-3.54063">
        <ele>36.94</ele>
        <time>2020-07-08T09:00:38Z</time>
      </trkpt>
      <trkpt lat="47.77191" lon="-3.54057">
        <ele>36.8</ele>
        <time>2020-07-08T09:00:39Z</time>
      </trkpt>
      <trkpt lat="47.77187" lon="-3.54052">
        <ele>36.58</ele>
        <time>2020-07-08T09:00:40Z</time>
      </trkpt>
      <trkpt lat="47.77182" lon="-3.54049">
        <ele>36.34</ele>
        <time>2020-07-08T09:00:41Z</time>
      </trkpt>
      <trkpt lat="47.77177" lon="-3.54049">
        <ele>36.01</ele>
        <time>2020-07-08T09:00:42Z</time>
      </trkpt>
      <trkpt lat="47.77171" lon="-3.54048">
        <ele>35.68</ele>
        <time>2020-07-08T09:00:43Z</time>
      </trkpt>
      <trkpt lat="47.77165" lon="-3.54048">
        <ele>35.28</ele>
        <time>2020-07-08T09:00:44Z</time>
      </trkpt>
      <trkpt lat="47.7716" lon="-3.54048">
        <ele>34.74</ele>
        <time>2020-07-08T09:00:45Z</time>
      </trkpt>
      <trkpt lat="47.77155" lon="-3.54048">
        <ele>34.18</ele>
        <time>2020-07-08T09:00:46Z</time>
      </trkpt>
      <trkpt lat="47.77149" lon="-3.54048">
        <ele>33.59</ele>
        <time>2020-07-08T09:00:47Z</time>
      </trkpt>
      <trkpt lat="47.77143" lon="-3.54047">
        <ele>33.04</ele>
        <time>2020-07-08T09:00:48Z</time>
      </trkpt>
      <trkpt lat="47.77139" lon="-3.54046">
        <ele>32.54</ele>
        <time>2020-07-08T09:00:49Z</time>
      </trkpt>
      <trkpt lat="47.77134" lon="-3.54044">
        <ele>31.97</ele>
        <time>2020-07-08T09:00:50Z</time>
      </trkpt>
      <trkpt lat="47.77129" lon="-3.54041">
        <ele>31.35</ele>
        <time>2020-07-08T09:00:51Z</time>
      </trkpt>
      <trkpt lat="47.77124" lon="-3.54038">
        <ele>30.73</ele>
        <time>2020-07-08T09:00:52Z</time>
      </trkpt>
      <trkpt lat="47.77119" lon="-3.54035">
        <ele>30.14</ele>
        <time>2020-07-08T09:00:53Z</time>
      </trkpt>
      <trkpt lat="47.77115" lon="-3.54032">
        <ele>29.6</ele>
        <time>2020-07-08T09:00:54Z</time>
      </trkpt>
      <trkpt lat="47.7711" lon="-3.54029">
        <ele>28.98</ele>
        <time>2020-07-08T09:00:55Z</time>
      </trkpt>
      <trkpt lat="47.77105" lon="-3.54027">
        <ele>28.29</ele>
        <time>2020-07-08T09:00:56Z</time>
      </trkpt>
      <trkpt lat="47.77101" lon="-3.54027">
        <ele>27.52</ele>
        <time>2020-07-08T09:00:57Z</time>
      </trkpt>
      <trkpt lat="47.77098" lon="-3.54025">
        <ele>26.96</ele>
        <time>2020-07-08T09:00:58Z</time>
      </trkpt>
      <trkpt lat="47.77093" lon="-3.54024">
        <ele>26.23</ele>
        <time>2020-07-08T09:00:59Z</time>
      </trkpt>
      <trkpt lat="47.77087" lon="-3.54021">
        <ele>25.33</ele>
        <time>2020-07-08T09:01:00Z</time>
      </trkpt>
      <trkpt lat="47.77081" lon="-3.54021">
        <ele>24.39</ele>
        <time>2020-07-08T09:01:01Z</time>
      </trkpt>
      <trkpt lat="47.77073" lon="-3.54021">
        <ele>23.55</ele>
        <time>2020-07-08T09:01:02Z</time>
      </trkpt>
      <trkpt lat="47.77064" lon="-3.54017">
        <ele>22.71</ele>
        <time>2020-07-08T09:01:03Z</time>
      </trkpt>
      <trkpt lat="47.77056" lon="-3.54014">
        <ele>21.89</ele>
        <time>2020-07-08T09:01:04Z</time>
      </trkpt>
      <trkpt lat="47.77049" lon="-3.54011">
        <ele>21.27</ele>
        <time>2020-07-08T09:01:05Z</time>
      </trkpt>
      <trkpt lat="47.77038" lon="-3.54014">
        <ele>20.34</ele>
        <time>2020-07-08T09:01:06Z</time>
      </trkpt>
      <trkpt lat="47.77032" lon="-3.54013">
        <ele>19.69</ele>
        <time>2020-07-08T09:01:07Z</time>
      </trkpt>
      <trkpt lat="47.7703" lon="-3.54016">
        <ele>19.31</ele>
        <time>2020-07-08T09:01:08Z</time>
      </trkpt>
      <trkpt lat="47.77027" lon="-3.54019">
        <ele>19.04</ele>
        <time>2020-07-08T09:01:09Z</time>
      </trkpt>
      <trkpt lat="47.77024" lon="-3.54022">
        <ele>18.86</ele>
        <time>2020-07-08T09:01:10Z</time>
      </trkpt>
      <trkpt lat="47.77021" lon="-3.54026">
        <ele>18.75</ele>
        <time>2020-07-08T09:01:11Z</time>
      </trkpt>
      <trkpt lat="47.77018" lon="-3.54028">
        <ele>18.69</ele>
        <time>2020-07-08T09:01:12Z</time>
      </trkpt>
      <trkpt lat="47.77015" lon="-3.5403">
        <ele>18.62</ele>
        <time>2020-07-08T09:01:13Z</time>
      </trkpt>
      <trkpt lat="47.77011" lon="-3.5403">
        <ele>18.54</ele>
        <time>2020-07-08T09:01:14Z</time>
      </trkpt>
      <trkpt lat="47.77007" lon="-3.5403">
        <ele>18.41</ele>
        <time>2020-07-08T09:01:15Z</time>
      </trkpt>
      <trkpt lat="47.77003" lon="-3.54031">
        <ele>18.27</ele>
        <time>2020-07-08T09:01:16Z</time>
      </trkpt>
      <trkpt lat="47.76999" lon="-3.54031">
        <ele>18.1</ele>
        <time>2020-07-08T09:01:17Z</time>
      </trkpt>
      <trkpt lat="47.76993" lon="-3.54031">
        <ele>17.72</ele>
        <time>2020-07-08T09:01:18Z</time>
      </trkpt>
      <trkpt lat="47.76987" lon="-3.54032">
        <ele>17.3</ele>
        <time>2020-07-08T09:01:19Z</time>
      </trkpt>
      <trkpt lat="47.76981" lon="-3.54033">
        <ele>16.86</ele>
        <time>2020-07-08T09:01:20Z</time>
      </trkpt>
      <trkpt lat="47.76975" lon="-3.54034">
        <ele>16.38</ele>
        <time>2020-07-08T09:01:21Z</time>
      </trkpt>
      <trkpt lat="47.76968" lon="-3.54033">
        <ele>15.94</ele>
        <time>2020-07-08T09:01:22Z</time>
      </trkpt>
      <trkpt lat="47.76962" lon="-3.54031">
        <ele>15.48</ele>
        <time>2020-07-08T09:01:23Z</time>
      </trkpt>
      <trkpt lat="47.76956" lon="-3.54031">
        <ele>15.09</ele>
        <time>2020-07-08T09:01:24Z</time>
      </trkpt>
      <trkpt lat="47.7695" lon="-3.54032">
        <ele>14.7</ele>
        <time>2020-07-08T09:01:25Z</time>
      </trkpt>
      <trkpt lat="47.76944" lon="-3.54035">
        <ele>14.43</ele>
        <time>2020-07-08T09:01:26Z</time>
      </trkpt>
      <trkpt lat="47.76938" lon="-3.54038">
        <ele>14.67</ele>
        <time>2020-07-08T09:01:27Z</time>
      </trkpt>
      <trkpt lat="47.76932" lon="-3.54044">
        <ele>15.06</ele>
        <time>2020-07-08T09:01:28Z</time>
      </trkpt>
      <trkpt lat="47.76928" lon="-3.54049">
        <ele>15.35</ele>
        <time>2020-07-08T09:01:29Z</time>
      </trkpt>
      <trkpt lat="47.76925" lon="-3.54054">
        <ele>15.57</ele>
        <time>2020-07-08T09:01:30Z</time>
      </trkpt>
      <trkpt lat="47.76924" lon="-3.54058">
        <ele>15.75</ele>
        <time>2020-07-08T09:01:31Z</time>
      </trkpt>
      <trkpt lat="47.76923" lon="-3.54062">
        <ele>15.94</ele>
        <time>2020-07-08T09:01:32Z</time>
      </trkpt>
      <trkpt lat="47.76922" lon="-3.54067">
        <ele>16.14</ele>
        <time>2020-07-08T09:01:33Z</time>
      </trkpt>
      <trkpt lat="47.7692" lon="-3.54071">
        <ele>16.34</ele>
        <time>2020-07-08T09:01:34Z</time>
      </trkpt>
      <trkpt lat="47.76919" lon="-3.54076">
        <ele>16.58</ele>
        <time>2020-07-08T09:01:35Z</time>
      </trkpt>
      <trkpt lat="47.76917" lon="-3.5408">
        <ele>16.78</ele>
        <time>2020-07-08T09:01:36Z</time>
      </trkpt>
      <trkpt lat="47.76915" lon="-3.54085">
        <ele>17.07</ele>
        <time>2020-07-08T09:01:37Z</time>
      </trkpt>
      <trkpt lat="47.76913" lon="-3.54088">
        <ele>17.43</ele>
        <time>2020-07-08T09:01:38Z</time>
      </trkpt>
      <trkpt lat="47.7691" lon="-3.54091">
        <ele>17.81</ele>
        <time>2020-07-08T09:01:39Z</time>
      </trkpt>
      <trkpt lat="47.76907" lon="-3.54093">
        <ele>18.16</ele>
        <time>2020-07-08T09:01:40Z</time>
      </trkpt>
      <trkpt lat="47.76904" lon="-3.54095">
        <ele>18.48</ele>
        <time>2020-07-08T09:01:41Z</time>
      </trkpt>
      <trkpt lat="47.76902" lon="-3.54094">
        <ele>18.72</ele>
        <time>2020-07-08T09:01:42Z</time>
      </trkpt>
      <trkpt lat="47.76899" lon="-3.54093">
        <ele>18.96</ele>
        <time>2020-07-08T09:01:43Z</time>
      </trkpt>
      <trkpt lat="47.76897" lon="-3.54093">
        <ele>19.17</ele>
        <time>2020-07-08T09:01:44Z</time>
      </trkpt>
      <trkpt lat="47.76895" lon="-3.54093">
        <ele>19.34</ele>
        <time>2020-07-08T09:01:45Z</time>
      </trkpt>
      <trkpt lat="47.76893" lon="-3.54093">
        <ele>19.53</ele>
        <time>2020-07-08T09:01:46Z</time>
      </trkpt>
      <trkpt lat="47.76891" lon="-3.54094">
        <ele>19.73</ele>
        <time>2020-07-08T09:01:47Z</time>
      </trkpt>
      <trkpt lat="47.76889" lon="-3.54094">
        <ele>19.95</ele>
        <time>2020-07-08T09:01:48Z</time>
      </trkpt>
      <trkpt lat="47.76886" lon="-3.54095">
        <ele>20.22</ele>
        <time>2020-07-08T09:01:49Z</time>
      </trkpt>
      <trkpt lat="47.76884" lon="-3.54094">
        <ele>20.5</ele>
        <time>2020-07-08T09:01:50Z</time>
      </trkpt>
      <trkpt lat="47.76881" lon="-3.54093">
        <ele>20.8</ele>
        <time>2020-07-08T09:01:51Z</time>
      </trkpt>
      <trkpt lat="47.76879" lon="-3.54093">
        <ele>21.11</ele>
        <time>2020-07-08T09:01:52Z</time>
      </trkpt>
      <trkpt lat="47.76876" lon="-3.54093">
        <ele>21.45</ele>
        <time>2020-07-08T09:01:53Z</time>
      </trkpt>
      <trkpt lat="47.76873" lon="-3.54093">
        <ele>21.81</ele>
        <time>2020-07-08T09:01:54Z</time>
      </trkpt>
      <trkpt lat="47.7687" lon="-3.54093">
        <ele>22.16</ele>
        <time>2020-07-08T09:01:55Z</time>
      </trkpt>
      <trkpt lat="47.76866" lon="-3.54094">
        <ele>22.55</ele>
        <time>2020-07-08T09:01:56Z</time>
      </trkpt>
      <trkpt lat="47.76864" lon="-3.54094">
        <ele>22.88</ele>
        <time>2020-07-08T09:01:57Z</time>
      </trkpt>
      <trkpt lat="47.76861" lon="-3.54094">
        <ele>23.22</ele>
        <time>2020-07-08T09:01:58Z</time>
      </trkpt>
      <trkpt lat="47.76859" lon="-3.54094">
        <ele>23.45</ele>
        <time>2020-07-08T09:01:59Z</time>
      </trkpt>
      <trkpt lat="47.76855" lon="-3.54095">
        <ele>23.72</ele>
        <time>2020-07-08T09:02:00Z</time>
      </trkpt>
      <trkpt lat="47.76852" lon="-3.54095">
        <ele>23.96</ele>
        <time>2020-07-08T09:02:01Z</time>
      </trkpt>
      <trkpt lat="47.76849" lon="-3.54096">
        <ele>24.21</ele>
        <time>2020-07-08T09:02:02Z</time>
      </trkpt>
      <trkpt lat="47.76846" lon="-3.54096">
        <ele>24.44</ele>
        <time>2020-07-08T09:02:03Z</time>
      </trkpt>
      <trkpt lat="47.76844" lon="-3.54097">
        <ele>24.64</ele>
        <time>2020-07-08T09:02:04Z</time>
      </trkpt>
      <trkpt lat="47.76841" lon="-3.54096">
        <ele>24.81</ele>
        <time>2020-07-08T09:02:05Z</time>
      </trkpt>
      <trkpt lat="47.76839" lon="-3.54096">
        <ele>24.98</ele>
        <time>2020-07-08T09:02:06Z</time>
      </trkpt>
      <trkpt lat="47.76836" lon="-3.54096">
        <ele>25.19</ele>
        <time>2020-07-08T09:02:07Z</time>
      </trkpt>
      <trkpt lat="47.76833" lon="-3.54096">
        <ele>25.41</ele>
        <time>2020-07-08T09:02:08Z</time>
      </trkpt>
      <trkpt lat="47.7683" lon="-3.54097">
        <ele>25.66</ele>
        <time>2020-07-08T09:02:09Z</time>
      </trkpt>
      <trkpt lat="47.76828" lon="-3.54097">
        <ele>25.89</ele>
        <time>2020-07-08T09:02:10Z</time>
      </trkpt>
      <trkpt lat="47.76826" lon="-3.54098">
        <ele>26.12</ele>
        <time>2020-07-08T09:02:11Z</time>
      </trkpt>
      <trkpt lat="47.76822" lon="-3.54098">
        <ele>26.41</ele>
        <time>2020-07-08T09:02:12Z</time>
      </trkpt>
      <trkpt lat="47.76819" lon="-3.54098">
        <ele>26.69</ele>
        <time>2020-07-08T09:02:13Z</time>
      </trkpt>
      <trkpt lat="47.76816" lon="-3.54099">
        <ele>26.98</ele>
        <time>2020-07-08T09:02:14Z</time>
      </trkpt>
      <trkpt lat="47.76813" lon="-3.54099">
        <ele>27.24</ele>
        <time>2020-07-08T09:02:15Z</time>
      </trkpt>
      <trkpt lat="47.7681" lon="-3.541">
        <ele>27.5</ele>
        <time>2020-07-08T09:02:16Z</time>
      </trkpt>
      <trkpt lat="47.76807" lon="-3.541">
        <ele>27.73</ele>
        <time>2020-07-08T09:02:17Z</time>
      </trkpt>
      <trkpt lat="47.76805" lon="-3.541">
        <ele>27.93</ele>
        <time>2020-07-08T09:02:18Z</time>
      </trkpt>
      <trkpt lat="47.76802" lon="-3.54099">
        <ele>28.03</ele>
        <time>2020-07-08T09:02:19Z</time>
      </trkpt>
      <trkpt lat="47.768" lon="-3.54099">
        <ele>28.1</ele>
        <time>2020-07-08T09:02:20Z</time>
      </trkpt>
      <trkpt lat="47.76797" lon="-3.541">
        <ele>28.16</ele>
        <time>2020-07-08T09:02:21Z</time>
      </trkpt>
      <trkpt lat="47.76794" lon="-3.54101">
        <ele>28.24</ele>
        <time>2020-07-08T09:02:22Z</time>
      </trkpt>
      <trkpt lat="47.7679" lon="-3.54102">
        <ele>28.33</ele>
        <time>2020-07-08T09:02:23Z</time>
      </trkpt>
      <trkpt lat="47.76787" lon="-3.54103">
        <ele>28.43</ele>
        <time>2020-07-08T09:02:24Z</time>
      </trkpt>
      <trkpt lat="47.76784" lon="-3.54103">
        <ele>28.52</ele>
        <time>2020-07-08T09:02:25Z</time>
      </trkpt>
      <trkpt lat="47.76781" lon="-3.54104">
        <ele>28.62</ele>
        <time>2020-07-08T09:02:26Z</time>
      </trkpt>
      <trkpt lat="47.76778" lon="-3.54103">
        <ele>28.68</ele>
        <time>2020-07-08T09:02:27Z</time>
      </trkpt>
      <trkpt lat="47.76774" lon="-3.54103">
        <ele>28.62</ele>
        <time>2020-07-08T09:02:28Z</time>
      </trkpt>
      <trkpt lat="47.7677" lon="-3.54103">
        <ele>28.53</ele>
        <time>2020-07-08T09:02:29Z</time>
      </trkpt>
      <trkpt lat="47.76766" lon="-3.54102">
        <ele>28.43</ele>
        <time>2020-07-08T09:02:30Z</time>
      </trkpt>
      <trkpt lat="47.76762" lon="-3.54102">
        <ele>28.33</ele>
        <time>2020-07-08T09:02:31Z</time>
      </trkpt>
      <trkpt lat="47.76758" lon="-3.54101">
        <ele>28.23</ele>
        <time>2020-07-08T09:02:32Z</time>
      </trkpt>
      <trkpt lat="47.76754" lon="-3.54101">
        <ele>28.14</ele>
        <time>2020-07-08T09:02:33Z</time>
      </trkpt>
      <trkpt lat="47.7675" lon="-3.54101">
        <ele>28.04</ele>
        <time>2020-07-08T09:02:34Z</time>
      </trkpt>
      <trkpt lat="47.76745" lon="-3.54102">
        <ele>28.01</ele>
        <time>2020-07-08T09:02:35Z</time>
      </trkpt>
      <trkpt lat="47.76741" lon="-3.54104">
        <ele>28</ele>
        <time>2020-07-08T09:02:36Z</time>
      </trkpt>
      <trkpt lat="47.76737" lon="-3.54107">
        <ele>28</ele>
        <time>2020-07-08T09:02:37Z</time>
      </trkpt>
      <trkpt lat="47.76733" lon="-3.54111">
        <ele>28</ele>
        <time>2020-07-08T09:02:38Z</time>
      </trkpt>
      <trkpt lat="47.76729" lon="-3.54114">
        <ele>28.02</ele>
        <time>2020-07-08T09:02:39Z</time>
      </trkpt>
      <trkpt lat="47.76725" lon="-3.54118">
        <ele>28.02</ele>
        <time>2020-07-08T09:02:40Z</time>
      </trkpt>
      <trkpt lat="47.7672" lon="-3.54121">
        <ele>27.95</ele>
        <time>2020-07-08T09:02:41Z</time>
      </trkpt>
      <trkpt lat="47.76715" lon="-3.54123">
        <ele>27.81</ele>
        <time>2020-07-08T09:02:42Z</time>
      </trkpt>
      <trkpt lat="47.76711" lon="-3.54123">
        <ele>27.65</ele>
        <time>2020-07-08T09:02:43Z</time>
      </trkpt>
      <trkpt lat="47.76706" lon="-3.54122">
        <ele>27.48</ele>
        <time>2020-07-08T09:02:44Z</time>
      </trkpt>
      <trkpt lat="47.76701" lon="-3.5412">
        <ele>27.31</ele>
        <time>2020-07-08T09:02:45Z</time>
      </trkpt>
      <trkpt lat="47.76696" lon="-3.54119">
        <ele>27.14</ele>
        <time>2020-07-08T09:02:46Z</time>
      </trkpt>
      <trkpt lat="47.76691" lon="-3.54117">
        <ele>26.87</ele>
        <time>2020-07-08T09:02:47Z</time>
      </trkpt>
      <trkpt lat="47.76686" lon="-3.54115">
        <ele>26.54</ele>
        <time>2020-07-08T09:02:48Z</time>
      </trkpt>
      <trkpt lat="47.76681" lon="-3.54113">
        <ele>26.18</ele>
        <time>2020-07-08T09:02:49Z</time>
      </trkpt>
      <trkpt lat="47.76675" lon="-3.54112">
        <ele>25.79</ele>
        <time>2020-07-08T09:02:50Z</time>
      </trkpt>
      <trkpt lat="47.76669" lon="-3.54111">
        <ele>25.36</ele>
        <time>2020-07-08T09:02:51Z</time>
      </trkpt>
      <trkpt lat="47.76663" lon="-3.5411">
        <ele>25.05</ele>
        <time>2020-07-08T09:02:52Z</time>
      </trkpt>
      <trkpt lat="47.76657" lon="-3.54107">
        <ele>24.82</ele>
        <time>2020-07-08T09:02:53Z</time>
      </trkpt>
      <trkpt lat="47.76651" lon="-3.54105">
        <ele>24.61</ele>
        <time>2020-07-08T09:02:54Z</time>
      </trkpt>
      <trkpt lat="47.76644" lon="-3.54102">
        <ele>24.36</ele>
        <time>2020-07-08T09:02:55Z</time>
      </trkpt>
      <trkpt lat="47.76638" lon="-3.54099">
        <ele>24.06</ele>
        <time>2020-07-08T09:02:56Z</time>
      </trkpt>
      <trkpt lat="47.76632" lon="-3.54096">
        <ele>23.66</ele>
        <time>2020-07-08T09:02:57Z</time>
      </trkpt>
      <trkpt lat="47.76625" lon="-3.54093">
        <ele>23.21</ele>
        <time>2020-07-08T09:02:58Z</time>
      </trkpt>
      <trkpt lat="47.76619" lon="-3.5409">
        <ele>22.73</ele>
        <time>2020-07-08T09:02:59Z</time>
      </trkpt>
      <trkpt lat="47.76612" lon="-3.54088">
        <ele>22.25</ele>
        <time>2020-07-08T09:03:00Z</time>
      </trkpt>
      <trkpt lat="47.76605" lon="-3.54087">
        <ele>21.89</ele>
        <time>2020-07-08T09:03:01Z</time>
      </trkpt>
      <trkpt lat="47.76598" lon="-3.54084">
        <ele>21.62</ele>
        <time>2020-07-08T09:03:02Z</time>
      </trkpt>
      <trkpt lat="47.76591" lon="-3.54083">
        <ele>21.38</ele>
        <time>2020-07-08T09:03:03Z</time>
      </trkpt>
      <trkpt lat="47.76583" lon="-3.54082">
        <ele>21.14</ele>
        <time>2020-07-08T09:03:04Z</time>
      </trkpt>
      <trkpt lat="47.76575" lon="-3.54081">
        <ele>20.88</ele>
        <time>2020-07-08T09:03:05Z</time>
      </trkpt>
      <trkpt lat="47.76568" lon="-3.5408">
        <ele>20.61</ele>
        <time>2020-07-08T09:03:06Z</time>
      </trkpt>
      <trkpt lat="47.7656" lon="-3.5408">
        <ele>20.31</ele>
        <time>2020-07-08T09:03:07Z</time>
      </trkpt>
      <trkpt lat="47.76552" lon="-3.54079">
        <ele>20.02</ele>
        <time>2020-07-08T09:03:08Z</time>
      </trkpt>
      <trkpt lat="47.76545" lon="-3.54078">
        <ele>19.74</ele>
        <time>2020-07-08T09:03:09Z</time>
      </trkpt>
      <trkpt lat="47.76537" lon="-3.54077">
        <ele>19.46</ele>
        <time>2020-07-08T09:03:10Z</time>
      </trkpt>
      <trkpt lat="47.7653" lon="-3.54076">
        <ele>19.2</ele>
        <time>2020-07-08T09:03:11Z</time>
      </trkpt>
      <trkpt lat="47.76523" lon="-3.54075">
        <ele>18.98</ele>
        <time>2020-07-08T09:03:12Z</time>
      </trkpt>
      <trkpt lat="47.76516" lon="-3.54075">
        <ele>18.79</ele>
        <time>2020-07-08T09:03:13Z</time>
      </trkpt>
      <trkpt lat="47.7651" lon="-3.54075">
        <ele>18.62</ele>
        <time>2020-07-08T09:03:14Z</time>
      </trkpt>
      <trkpt lat="47.76503" lon="-3.54074">
        <ele>18.47</ele>
        <time>2020-07-08T09:03:15Z</time>
      </trkpt>
      <trkpt lat="47.76497" lon="-3.54074">
        <ele>18.35</ele>
        <time>2020-07-08T09:03:16Z</time>
      </trkpt>
      <trkpt lat="47.76491" lon="-3.54074">
        <ele>18.26</ele>
        <time>2020-07-08T09:03:17Z</time>
      </trkpt>
      <trkpt lat="47.76485" lon="-3.54074">
        <ele>18.19</ele>
        <time>2020-07-08T09:03:18Z</time>
      </trkpt>
      <trkpt lat="47.76479" lon="-3.54074">
        <ele>18.12</ele>
        <time>2020-07-08T09:03:19Z</time>
      </trkpt>
      <trkpt lat="47.76473" lon="-3.54073">
        <ele>18.04</ele>
        <time>2020-07-08T09:03:20Z</time>
      </trkpt>
      <trkpt lat="47.76467" lon="-3.54073">
        <ele>17.88</ele>
        <time>2020-07-08T09:03:21Z</time>
      </trkpt>
      <trkpt lat="47.76461" lon="-3.54073">
        <ele>17.67</ele>
        <time>2020-07-08T09:03:22Z</time>
      </trkpt>
      <trkpt lat="47.76454" lon="-3.54073">
        <ele>17.45</ele>
        <time>2020-07-08T09:03:23Z</time>
      </trkpt>
      <trkpt lat="47.76448" lon="-3.54072">
        <ele>17.23</ele>
        <time>2020-07-08T09:03:24Z</time>
      </trkpt>
      <trkpt lat="47.76442" lon="-3.54071">
        <ele>17.07</ele>
        <time>2020-07-08T09:03:25Z</time>
      </trkpt>
      <trkpt lat="47.76436" lon="-3.5407">
        <ele>17.02</ele>
        <time>2020-07-08T09:03:26Z</time>
      </trkpt>
      <trkpt lat="47.7643" lon="-3.54069">
        <ele>17.01</ele>
        <time>2020-07-08T09:03:27Z</time>
      </trkpt>
      <trkpt lat="47.76424" lon="-3.54068">
        <ele>17</ele>
        <time>2020-07-08T09:03:28Z</time>
      </trkpt>
      <trkpt lat="47.76418" lon="-3.54067">
        <ele>17</ele>
        <time>2020-07-08T09:03:29Z</time>
      </trkpt>
      <trkpt lat="47.76412" lon="-3.54066">
        <ele>16.96</ele>
        <time>2020-07-08T09:03:30Z</time>
      </trkpt>
      <trkpt lat="47.76406" lon="-3.54064">
        <ele>16.91</ele>
        <time>2020-07-08T09:03:31Z</time>
      </trkpt>
      <trkpt lat="47.76401" lon="-3.54061">
        <ele>16.89</ele>
        <time>2020-07-08T09:03:32Z</time>
      </trkpt>
      <trkpt lat="47.76396" lon="-3.54058">
        <ele>16.93</ele>
        <time>2020-07-08T09:03:33Z</time>
      </trkpt>
      <trkpt lat="47.76391" lon="-3.54054">
        <ele>16.97</ele>
        <time>2020-07-08T09:03:34Z</time>
      </trkpt>
      <trkpt lat="47.76387" lon="-3.54049">
        <ele>16.93</ele>
        <time>2020-07-08T09:03:35Z</time>
      </trkpt>
      <trkpt lat="47.76383" lon="-3.54044">
        <ele>16.8</ele>
        <time>2020-07-08T09:03:36Z</time>
      </trkpt>
      <trkpt lat="47.76378" lon="-3.54038">
        <ele>16.73</ele>
        <time>2020-07-08T09:03:37Z</time>
      </trkpt>
      <trkpt lat="47.76373" lon="-3.54033">
        <ele>16.77</ele>
        <time>2020-07-08T09:03:38Z</time>
      </trkpt>
      <trkpt lat="47.76368" lon="-3.54028">
        <ele>16.91</ele>
        <time>2020-07-08T09:03:39Z</time>
      </trkpt>
      <trkpt lat="47.76363" lon="-3.54024">
        <ele>16.97</ele>
        <time>2020-07-08T09:03:40Z</time>
      </trkpt>
      <trkpt lat="47.76358" lon="-3.54019">
        <ele>16.96</ele>
        <time>2020-07-08T09:03:41Z</time>
      </trkpt>
      <trkpt lat="47.76353" lon="-3.54015">
        <ele>16.98</ele>
        <time>2020-07-08T09:03:42Z</time>
      </trkpt>
      <trkpt lat="47.76348" lon="-3.54011">
        <ele>17.07</ele>
        <time>2020-07-08T09:03:43Z</time>
      </trkpt>
      <trkpt lat="47.76344" lon="-3.54007">
        <ele>17.24</ele>
        <time>2020-07-08T09:03:44Z</time>
      </trkpt>
      <trkpt lat="47.7634" lon="-3.54003">
        <ele>17.48</ele>
        <time>2020-07-08T09:03:45Z</time>
      </trkpt>
      <trkpt lat="47.76335" lon="-3.54">
        <ele>17.79</ele>
        <time>2020-07-08T09:03:46Z</time>
      </trkpt>
      <trkpt lat="47.76331" lon="-3.53997">
        <ele>17.5</ele>
        <time>2020-07-08T09:03:47Z</time>
      </trkpt>
      <trkpt lat="47.76325" lon="-3.53994">
        <ele>16.81</ele>
        <time>2020-07-08T09:03:48Z</time>
      </trkpt>
      <trkpt lat="47.76321" lon="-3.53991">
        <ele>16.22</ele>
        <time>2020-07-08T09:03:49Z</time>
      </trkpt>
      <trkpt lat="47.76316" lon="-3.53988">
        <ele>15.86</ele>
        <time>2020-07-08T09:03:50Z</time>
      </trkpt>
      <trkpt lat="47.76311" lon="-3.53985">
        <ele>15.79</ele>
        <time>2020-07-08T09:03:51Z</time>
      </trkpt>
      <trkpt lat="47.76308" lon="-3.53982">
        <ele>16.13</ele>
        <time>2020-07-08T09:03:52Z</time>
      </trkpt>
      <trkpt lat="47.76305" lon="-3.53979">
        <ele>16.53</ele>
        <time>2020-07-08T09:03:53Z</time>
      </trkpt>
      <trkpt lat="47.76303" lon="-3.53976">
        <ele>16.56</ele>
        <time>2020-07-08T09:03:54Z</time>
      </trkpt>
      <trkpt lat="47.76301" lon="-3.53974">
        <ele>16.7</ele>
        <time>2020-07-08T09:03:55Z</time>
      </trkpt>
      <trkpt lat="47.76299" lon="-3.5397">
        <ele>16.43</ele>
        <time>2020-07-08T09:03:56Z</time>
      </trkpt>
      <trkpt lat="47.76297" lon="-3.53965">
        <ele>15.69</ele>
        <time>2020-07-08T09:03:57Z</time>
      </trkpt>
      <trkpt lat="47.76294" lon="-3.5396">
        <ele>14.61</ele>
        <time>2020-07-08T09:03:58Z</time>
      </trkpt>
      <trkpt lat="47.76291" lon="-3.53955">
        <ele>13.28</ele>
        <time>2020-07-08T09:03:59Z</time>
      </trkpt>
      <trkpt lat="47.76288" lon="-3.5395">
        <ele>11.88</ele>
        <time>2020-07-08T09:04:00Z</time>
      </trkpt>
      <trkpt lat="47.76285" lon="-3.53944">
        <ele>10.54</ele>
        <time>2020-07-08T09:04:01Z</time>
      </trkpt>
      <trkpt lat="47.76283" lon="-3.53938">
        <ele>9.4</ele>
        <time>2020-07-08T09:04:02Z</time>
      </trkpt>
      <trkpt lat="47.76284" lon="-3.53932">
        <ele>8.86</ele>
        <time>2020-07-08T09:04:03Z</time>
      </trkpt>
      <trkpt lat="47.76285" lon="-3.53925">
        <ele>8.75</ele>
        <time>2020-07-08T09:04:04Z</time>
      </trkpt>
      <trkpt lat="47.76288" lon="-3.53918">
        <ele>8.9</ele>
        <time>2020-07-08T09:04:05Z</time>
      </trkpt>
      <trkpt lat="47.76291" lon="-3.53912">
        <ele>9.47</ele>
        <time>2020-07-08T09:04:06Z</time>
      </trkpt>
      <trkpt lat="47.76294" lon="-3.53906">
        <ele>10.24</ele>
        <time>2020-07-08T09:04:07Z</time>
      </trkpt>
      <trkpt lat="47.76296" lon="-3.539">
        <ele>10.94</ele>
        <time>2020-07-08T09:04:08Z</time>
      </trkpt>
      <trkpt lat="47.76297" lon="-3.53895">
        <ele>11.29</ele>
        <time>2020-07-08T09:04:09Z</time>
      </trkpt>
      <trkpt lat="47.76296" lon="-3.53889">
        <ele>10.88</ele>
        <time>2020-07-08T09:04:10Z</time>
      </trkpt>
      <trkpt lat="47.76294" lon="-3.53883">
        <ele>9.75</ele>
        <time>2020-07-08T09:04:11Z</time>
      </trkpt>
      <trkpt lat="47.76292" lon="-3.53875">
        <ele>8.45</ele>
        <time>2020-07-08T09:04:12Z</time>
      </trkpt>
      <trkpt lat="47.76291" lon="-3.53868">
        <ele>7.62</ele>
        <time>2020-07-08T09:04:13Z</time>
      </trkpt>
      <trkpt lat="47.76292" lon="-3.53861">
        <ele>7.31</ele>
        <time>2020-07-08T09:04:14Z</time>
      </trkpt>
      <trkpt lat="47.76294" lon="-3.53854">
        <ele>6.89</ele>
        <time>2020-07-08T09:04:15Z</time>
      </trkpt>
      <trkpt lat="47.76296" lon="-3.53847">
        <ele>6.47</ele>
        <time>2020-07-08T09:04:16Z</time>
      </trkpt>
      <trkpt lat="47.76298" lon="-3.53841">
        <ele>5.93</ele>
        <time>2020-07-08T09:04:17Z</time>
      </trkpt>
      <trkpt lat="47.763" lon="-3.53834">
        <ele>5.25</ele>
        <time>2020-07-08T09:04:18Z</time>
      </trkpt>
      <trkpt lat="47.76303" lon="-3.53828">
        <ele>4.65</ele>
        <time>2020-07-08T09:04:19Z</time>
      </trkpt>
      <trkpt lat="47.76306" lon="-3.53824">
        <ele>4.23</ele>
        <time>2020-07-08T09:04:20Z</time>
      </trkpt>
      <trkpt lat="47.7631" lon="-3.5382">
        <ele>4.56</ele>
        <time>2020-07-08T09:04:21Z</time>
      </trkpt>
      <trkpt lat="47.76314" lon="-3.53817">
        <ele>5.41</ele>
        <time>2020-07-08T09:04:22Z</time>
      </trkpt>
      <trkpt lat="47.76318" lon="-3.53814">
        <ele>6.6</ele>
        <time>2020-07-08T09:04:23Z</time>
      </trkpt>
      <trkpt lat="47.76322" lon="-3.53814">
        <ele>8.21</ele>
        <time>2020-07-08T09:04:24Z</time>
      </trkpt>
      <trkpt lat="47.76327" lon="-3.53814">
        <ele>10.03</ele>
        <time>2020-07-08T09:04:25Z</time>
      </trkpt>
      <trkpt lat="47.76332" lon="-3.53814">
        <ele>12.05</ele>
        <time>2020-07-08T09:04:26Z</time>
      </trkpt>
      <trkpt lat="47.76337" lon="-3.53814">
        <ele>12.4</ele>
        <time>2020-07-08T09:04:27Z</time>
      </trkpt>
      <trkpt lat="47.76342" lon="-3.53814">
        <ele>11.28</ele>
        <time>2020-07-08T09:04:28Z</time>
      </trkpt>
      <trkpt lat="47.76348" lon="-3.53814">
        <ele>9.83</ele>
        <time>2020-07-08T09:04:29Z</time>
      </trkpt>
      <trkpt lat="47.76353" lon="-3.53816">
        <ele>8.58</ele>
        <time>2020-07-08T09:04:30Z</time>
      </trkpt>
      <trkpt lat="47.76357" lon="-3.53821">
        <ele>8.07</ele>
        <time>2020-07-08T09:04:31Z</time>
      </trkpt>
      <trkpt lat="47.76361" lon="-3.53826">
        <ele>8.22</ele>
        <time>2020-07-08T09:04:32Z</time>
      </trkpt>
      <trkpt lat="47.76363" lon="-3.53832">
        <ele>8.69</ele>
        <time>2020-07-08T09:04:33Z</time>
      </trkpt>
      <trkpt lat="47.76365" lon="-3.53837">
        <ele>9.02</ele>
        <time>2020-07-08T09:04:34Z</time>
      </trkpt>
      <trkpt lat="47.76367" lon="-3.53841">
        <ele>9.31</ele>
        <time>2020-07-08T09:04:35Z</time>
      </trkpt>
      <trkpt lat="47.76369" lon="-3.53844">
        <ele>9.42</ele>
        <time>2020-07-08T09:04:36Z</time>
      </trkpt>
      <trkpt lat="47.76371" lon="-3.53847">
        <ele>9.42</ele>
        <time>2020-07-08T09:04:37Z</time>
      </trkpt>
      <trkpt lat="47.76373" lon="-3.5385">
        <ele>9.43</ele>
        <time>2020-07-08T09:04:38Z</time>
      </trkpt>
      <trkpt lat="47.76375" lon="-3.53854">
        <ele>9.42</ele>
        <time>2020-07-08T09:04:39Z</time>
      </trkpt>
      <trkpt lat="47.76378" lon="-3.53857">
        <ele>9.34</ele>
        <time>2020-07-08T09:04:40Z</time>
      </trkpt>
      <trkpt lat="47.76381" lon="-3.5386">
        <ele>9.03</ele>
        <time>2020-07-08T09:04:41Z</time>
      </trkpt>
      <trkpt lat="47.76385" lon="-3.53862">
        <ele>8.59</ele>
        <time>2020-07-08T09:04:42Z</time>
      </trkpt>
      <trkpt lat="47.76388" lon="-3.53864">
        <ele>7.97</ele>
        <time>2020-07-08T09:04:43Z</time>
      </trkpt>
      <trkpt lat="47.76392" lon="-3.53864">
        <ele>7.61</ele>
        <time>2020-07-08T09:04:44Z</time>
      </trkpt>
      <trkpt lat="47.76397" lon="-3.53863">
        <ele>7.11</ele>
        <time>2020-07-08T09:04:45Z</time>
      </trkpt>
      <trkpt lat="47.76401" lon="-3.53862">
        <ele>6.51</ele>
        <time>2020-07-08T09:04:46Z</time>
      </trkpt>
      <trkpt lat="47.76406" lon="-3.53862">
        <ele>6.09</ele>
        <time>2020-07-08T09:04:47Z</time>
      </trkpt>
      <trkpt lat="47.76411" lon="-3.53863">
        <ele>6.01</ele>
        <time>2020-07-08T09:04:48Z</time>
      </trkpt>
      <trkpt lat="47.76416" lon="-3.53865">
        <ele>6.14</ele>
        <time>2020-07-08T09:04:49Z</time>
      </trkpt>
      <trkpt lat="47.76421" lon="-3.53867">
        <ele>6.44</ele>
        <time>2020-07-08T09:04:50Z</time>
      </trkpt>
      <trkpt lat="47.76426" lon="-3.5387">
        <ele>6.91</ele>
        <time>2020-07-08T09:04:51Z</time>
      </trkpt>
      <trkpt lat="47.76431" lon="-3.53873">
        <ele>7.51</ele>
        <time>2020-07-08T09:04:52Z</time>
      </trkpt>
      <trkpt lat="47.76436" lon="-3.53875">
        <ele>8.08</ele>
        <time>2020-07-08T09:04:53Z</time>
      </trkpt>
      <trkpt lat="47.7644" lon="-3.53877">
        <ele>8.54</ele>
        <time>2020-07-08T09:04:54Z</time>
      </trkpt>
      <trkpt lat="47.76444" lon="-3.53877">
        <ele>8.61</ele>
        <time>2020-07-08T09:04:55Z</time>
      </trkpt>
      <trkpt lat="47.76447" lon="-3.53876">
        <ele>8.64</ele>
        <time>2020-07-08T09:04:56Z</time>
      </trkpt>
      <trkpt lat="47.7645" lon="-3.53871">
        <ele>8.29</ele>
        <time>2020-07-08T09:04:57Z</time>
      </trkpt>
      <trkpt lat="47.76453" lon="-3.53867">
        <ele>7.79</ele>
        <time>2020-07-08T09:04:58Z</time>
      </trkpt>
      <trkpt lat="47.76455" lon="-3.53862">
        <ele>7.33</ele>
        <time>2020-07-08T09:04:59Z</time>
      </trkpt>
      <trkpt lat="47.76457" lon="-3.53858">
        <ele>7.32</ele>
        <time>2020-07-08T09:05:00Z</time>
      </trkpt>
      <trkpt lat="47.7646" lon="-3.53857">
        <ele>7.7</ele>
        <time>2020-07-08T09:05:01Z</time>
      </trkpt>
      <trkpt lat="47.76464" lon="-3.53857">
        <ele>8.55</ele>
        <time>2020-07-08T09:05:02Z</time>
      </trkpt>
      <trkpt lat="47.76468" lon="-3.53859">
        <ele>9.78</ele>
        <time>2020-07-08T09:05:03Z</time>
      </trkpt>
      <trkpt lat="47.76472" lon="-3.53862">
        <ele>11.26</ele>
        <time>2020-07-08T09:05:04Z</time>
      </trkpt>
      <trkpt lat="47.76476" lon="-3.53866">
        <ele>11.64</ele>
        <time>2020-07-08T09:05:05Z</time>
      </trkpt>
      <trkpt lat="47.76481" lon="-3.53868">
        <ele>11.44</ele>
        <time>2020-07-08T09:05:06Z</time>
      </trkpt>
      <trkpt lat="47.76485" lon="-3.53868">
        <ele>10.97</ele>
        <time>2020-07-08T09:05:07Z</time>
      </trkpt>
      <trkpt lat="47.7649" lon="-3.53867">
        <ele>10.22</ele>
        <time>2020-07-08T09:05:08Z</time>
      </trkpt>
      <trkpt lat="47.76494" lon="-3.53864">
        <ele>9.04</ele>
        <time>2020-07-08T09:05:09Z</time>
      </trkpt>
      <trkpt lat="47.76498" lon="-3.5386">
        <ele>7.58</ele>
        <time>2020-07-08T09:05:10Z</time>
      </trkpt>
      <trkpt lat="47.76502" lon="-3.53855">
        <ele>6.75</ele>
        <time>2020-07-08T09:05:11Z</time>
      </trkpt>
      <trkpt lat="47.76506" lon="-3.5385">
        <ele>6.67</ele>
        <time>2020-07-08T09:05:12Z</time>
      </trkpt>
      <trkpt lat="47.7651" lon="-3.53844">
        <ele>6.88</ele>
        <time>2020-07-08T09:05:13Z</time>
      </trkpt>
      <trkpt lat="47.76513" lon="-3.53838">
        <ele>7.1</ele>
        <time>2020-07-08T09:05:14Z</time>
      </trkpt>
      <trkpt lat="47.76515" lon="-3.53832">
        <ele>7.39</ele>
        <time>2020-07-08T09:05:15Z</time>
      </trkpt>
      <trkpt lat="47.76519" lon="-3.53827">
        <ele>7.76</ele>
        <time>2020-07-08T09:05:16Z</time>
      </trkpt>
      <trkpt lat="47.76523" lon="-3.53823">
        <ele>8.3</ele>
        <time>2020-07-08T09:05:17Z</time>
      </trkpt>
      <trkpt lat="47.76527" lon="-3.53818">
        <ele>8.78</ele>
        <time>2020-07-08T09:05:18Z</time>
      </trkpt>
      <trkpt lat="47.76531" lon="-3.53812">
        <ele>8.07</ele>
        <time>2020-07-08T09:05:19Z</time>
      </trkpt>
      <trkpt lat="47.76535" lon="-3.53807">
        <ele>6.8</ele>
        <time>2020-07-08T09:05:20Z</time>
      </trkpt>
      <trkpt lat="47.76539" lon="-3.53802">
        <ele>5.75</ele>
        <time>2020-07-08T09:05:21Z</time>
      </trkpt>
      <trkpt lat="47.76543" lon="-3.53802">
        <ele>5.39</ele>
        <time>2020-07-08T09:05:22Z</time>
      </trkpt>
      <trkpt lat="47.76548" lon="-3.53805">
        <ele>5.68</ele>
        <time>2020-07-08T09:05:23Z</time>
      </trkpt>
      <trkpt lat="47.76552" lon="-3.53806">
        <ele>6.08</ele>
        <time>2020-07-08T09:05:24Z</time>
      </trkpt>
      <trkpt lat="47.76556" lon="-3.53807">
        <ele>6.41</ele>
        <time>2020-07-08T09:05:25Z</time>
      </trkpt>
      <trkpt lat="47.7656" lon="-3.53805">
        <ele>7.04</ele>
        <time>2020-07-08T09:05:26Z</time>
      </trkpt>
      <trkpt lat="47.76563" lon="-3.53801">
        <ele>7.16</ele>
        <time>2020-07-08T09:05:27Z</time>
      </trkpt>
      <trkpt lat="47.76565" lon="-3.53796">
        <ele>6.9</ele>
        <time>2020-07-08T09:05:28Z</time>
      </trkpt>
      <trkpt lat="47.76568" lon="-3.53791">
        <ele>6.43</ele>
        <time>2020-07-08T09:05:29Z</time>
      </trkpt>
      <trkpt lat="47.76571" lon="-3.53787">
        <ele>5.98</ele>
        <time>2020-07-08T09:05:30Z</time>
      </trkpt>
      <trkpt lat="47.76575" lon="-3.53783">
        <ele>5.84</ele>
        <time>2020-07-08T09:05:31Z</time>
      </trkpt>
      <trkpt lat="47.76579" lon="-3.53781">
        <ele>6.04</ele>
        <time>2020-07-08T09:05:32Z</time>
      </trkpt>
      <trkpt lat="47.76584" lon="-3.53779">
        <ele>6.44</ele>
        <time>2020-07-08T09:05:33Z</time>
      </trkpt>
      <trkpt lat="47.76588" lon="-3.53778">
        <ele>6.85</ele>
        <time>2020-07-08T09:05:34Z</time>
      </trkpt>
      <trkpt lat="47.76593" lon="-3.53776">
        <ele>7.4</ele>
        <time>2020-07-08T09:05:35Z</time>
      </trkpt>
      <trkpt lat="47.76597" lon="-3.53774">
        <ele>7.92</ele>
        <time>2020-07-08T09:05:36Z</time>
      </trkpt>
      <trkpt lat="47.76601" lon="-3.53769">
        <ele>8.19</ele>
        <time>2020-07-08T09:05:37Z</time>
      </trkpt>
      <trkpt lat="47.76605" lon="-3.53764">
        <ele>8.2</ele>
        <time>2020-07-08T09:05:38Z</time>
      </trkpt>
      <trkpt lat="47.76609" lon="-3.53758">
        <ele>7.98</ele>
        <time>2020-07-08T09:05:39Z</time>
      </trkpt>
      <trkpt lat="47.76611" lon="-3.53752">
        <ele>7.52</ele>
        <time>2020-07-08T09:05:40Z</time>
      </trkpt>
      <trkpt lat="47.76613" lon="-3.53745">
        <ele>7.37</ele>
        <time>2020-07-08T09:05:41Z</time>
      </trkpt>
      <trkpt lat="47.76613" lon="-3.53737">
        <ele>7.11</ele>
        <time>2020-07-08T09:05:42Z</time>
      </trkpt>
      <trkpt lat="47.76613" lon="-3.5373">
        <ele>6.63</ele>
        <time>2020-07-08T09:05:43Z</time>
      </trkpt>
      <trkpt lat="47.76612" lon="-3.53722">
        <ele>5.85</ele>
        <time>2020-07-08T09:05:44Z</time>
      </trkpt>
      <trkpt lat="47.76613" lon="-3.53715">
        <ele>5.4</ele>
        <time>2020-07-08T09:05:45Z</time>
      </trkpt>
      <trkpt lat="47.76614" lon="-3.53708">
        <ele>5.45</ele>
        <time>2020-07-08T09:05:46Z</time>
      </trkpt>
      <trkpt lat="47.76617" lon="-3.53701">
        <ele>5.92</ele>
        <time>2020-07-08T09:05:47Z</time>
      </trkpt>
      <trkpt lat="47.7662" lon="-3.53694">
        <ele>6.65</ele>
        <time>2020-07-08T09:05:48Z</time>
      </trkpt>
      <trkpt lat="47.76623" lon="-3.53688">
        <ele>7.32</ele>
        <time>2020-07-08T09:05:49Z</time>
      </trkpt>
      <trkpt lat="47.76626" lon="-3.53682">
        <ele>7.93</ele>
        <time>2020-07-08T09:05:50Z</time>
      </trkpt>
      <trkpt lat="47.76628" lon="-3.53676">
        <ele>8.27</ele>
        <time>2020-07-08T09:05:51Z</time>
      </trkpt>
      <trkpt lat="47.76629" lon="-3.53668">
        <ele>8.29</ele>
        <time>2020-07-08T09:05:52Z</time>
      </trkpt>
      <trkpt lat="47.76631" lon="-3.5366">
        <ele>8.33</ele>
        <time>2020-07-08T09:05:53Z</time>
      </trkpt>
      <trkpt lat="47.76632" lon="-3.53653">
        <ele>8.36</ele>
        <time>2020-07-08T09:05:54Z</time>
      </trkpt>
      <trkpt lat="47.76633" lon="-3.53645">
        <ele>8.37</ele>
        <time>2020-07-08T09:05:55Z</time>
      </trkpt>
      <trkpt lat="47.76634" lon="-3.53637">
        <ele>8.26</ele>
        <time>2020-07-08T09:05:56Z</time>
      </trkpt>
      <trkpt lat="47.76636" lon="-3.53629">
        <ele>8.25</ele>
        <time>2020-07-08T09:05:57Z</time>
      </trkpt>
      <trkpt lat="47.76637" lon="-3.5362">
        <ele>8.05</ele>
        <time>2020-07-08T09:05:58Z</time>
      </trkpt>
      <trkpt lat="47.76638" lon="-3.53612">
        <ele>7.9</ele>
        <time>2020-07-08T09:05:59Z</time>
      </trkpt>
      <trkpt lat="47.7664" lon="-3.53604">
        <ele>8.01</ele>
        <time>2020-07-08T09:06:00Z</time>
      </trkpt>
      <trkpt lat="47.76642" lon="-3.53595">
        <ele>8.33</ele>
        <time>2020-07-08T09:06:01Z</time>
      </trkpt>
      <trkpt lat="47.76643" lon="-3.53587">
        <ele>8.77</ele>
        <time>2020-07-08T09:06:02Z</time>
      </trkpt>
      <trkpt lat="47.76645" lon="-3.53578">
        <ele>9.12</ele>
        <time>2020-07-08T09:06:03Z</time>
      </trkpt>
      <trkpt lat="47.76646" lon="-3.5357">
        <ele>9.22</ele>
        <time>2020-07-08T09:06:04Z</time>
      </trkpt>
      <trkpt lat="47.76647" lon="-3.53561">
        <ele>9.2</ele>
        <time>2020-07-08T09:06:05Z</time>
      </trkpt>
      <trkpt lat="47.76647" lon="-3.53552">
        <ele>9.25</ele>
        <time>2020-07-08T09:06:06Z</time>
      </trkpt>
      <trkpt lat="47.76648" lon="-3.53543">
        <ele>9.76</ele>
        <time>2020-07-08T09:06:07Z</time>
      </trkpt>
      <trkpt lat="47.7665" lon="-3.53535">
        <ele>10.35</ele>
        <time>2020-07-08T09:06:08Z</time>
      </trkpt>
      <trkpt lat="47.76653" lon="-3.53527">
        <ele>10.7</ele>
        <time>2020-07-08T09:06:09Z</time>
      </trkpt>
      <trkpt lat="47.76656" lon="-3.53522">
        <ele>9.91</ele>
        <time>2020-07-08T09:06:10Z</time>
      </trkpt>
      <trkpt lat="47.76661" lon="-3.53519">
        <ele>9.32</ele>
        <time>2020-07-08T09:06:11Z</time>
      </trkpt>
      <trkpt lat="47.76665" lon="-3.53517">
        <ele>8.83</ele>
        <time>2020-07-08T09:06:12Z</time>
      </trkpt>
      <trkpt lat="47.76668" lon="-3.53514">
        <ele>8.57</ele>
        <time>2020-07-08T09:06:13Z</time>
      </trkpt>
      <trkpt lat="47.7667" lon="-3.53511">
        <ele>8.44</ele>
        <time>2020-07-08T09:06:14Z</time>
      </trkpt>
      <trkpt lat="47.76672" lon="-3.53507">
        <ele>8.22</ele>
        <time>2020-07-08T09:06:15Z</time>
      </trkpt>
      <trkpt lat="47.76674" lon="-3.53503">
        <ele>7.87</ele>
        <time>2020-07-08T09:06:16Z</time>
      </trkpt>
      <trkpt lat="47.76674" lon="-3.53497">
        <ele>7.47</ele>
        <time>2020-07-08T09:06:17Z</time>
      </trkpt>
      <trkpt lat="47.76675" lon="-3.53491">
        <ele>7.47</ele>
        <time>2020-07-08T09:06:18Z</time>
      </trkpt>
      <trkpt lat="47.76676" lon="-3.53485">
        <ele>7.73</ele>
        <time>2020-07-08T09:06:19Z</time>
      </trkpt>
      <trkpt lat="47.76678" lon="-3.53479">
        <ele>8.1</ele>
        <time>2020-07-08T09:06:20Z</time>
      </trkpt>
      <trkpt lat="47.7668" lon="-3.53474">
        <ele>8.62</ele>
        <time>2020-07-08T09:06:21Z</time>
      </trkpt>
      <trkpt lat="47.76683" lon="-3.53469">
        <ele>8.9</ele>
        <time>2020-07-08T09:06:22Z</time>
      </trkpt>
      <trkpt lat="47.76686" lon="-3.53465">
        <ele>8.93</ele>
        <time>2020-07-08T09:06:23Z</time>
      </trkpt>
      <trkpt lat="47.76689" lon="-3.53462">
        <ele>8.97</ele>
        <time>2020-07-08T09:06:24Z</time>
      </trkpt>
      <trkpt lat="47.76692" lon="-3.53461">
        <ele>9.39</ele>
        <time>2020-07-08T09:06:25Z</time>
      </trkpt>
      <trkpt lat="47.76695" lon="-3.53461">
        <ele>10.04</ele>
        <time>2020-07-08T09:06:26Z</time>
      </trkpt>
      <trkpt lat="47.76699" lon="-3.5346">
        <ele>10.31</ele>
        <time>2020-07-08T09:06:27Z</time>
      </trkpt>
      <trkpt lat="47.76702" lon="-3.5346">
        <ele>10.46</ele>
        <time>2020-07-08T09:06:28Z</time>
      </trkpt>
      <trkpt lat="47.76705" lon="-3.53458">
        <ele>10.36</ele>
        <time>2020-07-08T09:06:29Z</time>
      </trkpt>
      <trkpt lat="47.76708" lon="-3.53455">
        <ele>10.2</ele>
        <time>2020-07-08T09:06:30Z</time>
      </trkpt>
      <trkpt lat="47.76712" lon="-3.53451">
        <ele>10.08</ele>
        <time>2020-07-08T09:06:31Z</time>
      </trkpt>
      <trkpt lat="47.76715" lon="-3.53447">
        <ele>10</ele>
        <time>2020-07-08T09:06:32Z</time>
      </trkpt>
      <trkpt lat="47.76718" lon="-3.5344">
        <ele>10.09</ele>
        <time>2020-07-08T09:06:33Z</time>
      </trkpt>
      <trkpt lat="47.76719" lon="-3.53433">
        <ele>10.12</ele>
        <time>2020-07-08T09:06:34Z</time>
      </trkpt>
      <trkpt lat="47.76718" lon="-3.53426">
        <ele>9.85</ele>
        <time>2020-07-08T09:06:35Z</time>
      </trkpt>
      <trkpt lat="47.76716" lon="-3.53419">
        <ele>9.1</ele>
        <time>2020-07-08T09:06:36Z</time>
      </trkpt>
      <trkpt lat="47.76713" lon="-3.53412">
        <ele>7.91</ele>
        <time>2020-07-08T09:06:37Z</time>
      </trkpt>
      <trkpt lat="47.76711" lon="-3.53406">
        <ele>6.6</ele>
        <time>2020-07-08T09:06:38Z</time>
      </trkpt>
      <trkpt lat="47.7671" lon="-3.53399">
        <ele>5.58</ele>
        <time>2020-07-08T09:06:39Z</time>
      </trkpt>
      <trkpt lat="47.7671" lon="-3.53393">
        <ele>5</ele>
        <time>2020-07-08T09:06:40Z</time>
      </trkpt>
      <trkpt lat="47.76712" lon="-3.53385">
        <ele>5.1</ele>
        <time>2020-07-08T09:06:41Z</time>
      </trkpt>
      <trkpt lat="47.76715" lon="-3.53378">
        <ele>5.8</ele>
        <time>2020-07-08T09:06:42Z</time>
      </trkpt>
      <trkpt lat="47.76717" lon="-3.53372">
        <ele>6.71</ele>
        <time>2020-07-08T09:06:43Z</time>
      </trkpt>
      <trkpt lat="47.7672" lon="-3.53367">
        <ele>7.64</ele>
        <time>2020-07-08T09:06:44Z</time>
      </trkpt>
      <trkpt lat="47.76723" lon="-3.53365">
        <ele>8.56</ele>
        <time>2020-07-08T09:06:45Z</time>
      </trkpt>
      <trkpt lat="47.76726" lon="-3.53365">
        <ele>9.13</ele>
        <time>2020-07-08T09:06:46Z</time>
      </trkpt>
      <trkpt lat="47.7673" lon="-3.53366">
        <ele>9.63</ele>
        <time>2020-07-08T09:06:47Z</time>
      </trkpt>
      <trkpt lat="47.76734" lon="-3.53369">
        <ele>10.15</ele>
        <time>2020-07-08T09:06:48Z</time>
      </trkpt>
      <trkpt lat="47.76738" lon="-3.53371">
        <ele>10.71</ele>
        <time>2020-07-08T09:06:49Z</time>
      </trkpt>
      <trkpt lat="47.76741" lon="-3.53373">
        <ele>11.28</ele>
        <time>2020-07-08T09:06:50Z</time>
      </trkpt>
      <trkpt lat="47.76745" lon="-3.53375">
        <ele>11.93</ele>
        <time>2020-07-08T09:06:51Z</time>
      </trkpt>
      <trkpt lat="47.76748" lon="-3.53378">
        <ele>12.58</ele>
        <time>2020-07-08T09:06:52Z</time>
      </trkpt>
      <trkpt lat="47.76751" lon="-3.5338">
        <ele>13.17</ele>
        <time>2020-07-08T09:06:53Z</time>
      </trkpt>
      <trkpt lat="47.76755" lon="-3.53382">
        <ele>13.51</ele>
        <time>2020-07-08T09:06:54Z</time>
      </trkpt>
      <trkpt lat="47.76758" lon="-3.53382">
        <ele>13.71</ele>
        <time>2020-07-08T09:06:55Z</time>
      </trkpt>
      <trkpt lat="47.76761" lon="-3.53382">
        <ele>13.85</ele>
        <time>2020-07-08T09:06:56Z</time>
      </trkpt>
      <trkpt lat="47.76764" lon="-3.53382">
        <ele>14</ele>
        <time>2020-07-08T09:06:57Z</time>
      </trkpt>
      <trkpt lat="47.76768" lon="-3.53383">
        <ele>14.16</ele>
        <time>2020-07-08T09:06:58Z</time>
      </trkpt>
      <trkpt lat="47.76772" lon="-3.53384">
        <ele>14.37</ele>
        <time>2020-07-08T09:06:59Z</time>
      </trkpt>
      <trkpt lat="47.76776" lon="-3.53386">
        <ele>14.64</ele>
        <time>2020-07-08T09:07:00Z</time>
      </trkpt>
      <trkpt lat="47.7678" lon="-3.53389">
        <ele>14.89</ele>
        <time>2020-07-08T09:07:01Z</time>
      </trkpt>
      <trkpt lat="47.76784" lon="-3.53391">
        <ele>15.02</ele>
        <time>2020-07-08T09:07:02Z</time>
      </trkpt>
      <trkpt lat="47.76789" lon="-3.53393">
        <ele>15.12</ele>
        <time>2020-07-08T09:07:03Z</time>
      </trkpt>
      <trkpt lat="47.76793" lon="-3.53396">
        <ele>15.21</ele>
        <time>2020-07-08T09:07:04Z</time>
      </trkpt>
      <trkpt lat="47.76797" lon="-3.53398">
        <ele>15.29</ele>
        <time>2020-07-08T09:07:05Z</time>
      </trkpt>
      <trkpt lat="47.76801" lon="-3.534">
        <ele>15.38</ele>
        <time>2020-07-08T09:07:06Z</time>
      </trkpt>
      <trkpt lat="47.76805" lon="-3.53402">
        <ele>15.45</ele>
        <time>2020-07-08T09:07:07Z</time>
      </trkpt>
      <trkpt lat="47.76808" lon="-3.53404">
        <ele>15.45</ele>
        <time>2020-07-08T09:07:08Z</time>
      </trkpt>
      <trkpt lat="47.7681" lon="-3.53404">
        <ele>15.38</ele>
        <time>2020-07-08T09:07:09Z</time>
      </trkpt>
      <trkpt lat="47.76813" lon="-3.53402">
        <ele>15.26</ele>
        <time>2020-07-08T09:07:10Z</time>
      </trkpt>
      <trkpt lat="47.76815" lon="-3.53398">
        <ele>15.07</ele>
        <time>2020-07-08T09:07:11Z</time>
      </trkpt>
      <trkpt lat="47.76816" lon="-3.53394">
        <ele>14.88</ele>
        <time>2020-07-08T09:07:12Z</time>
      </trkpt>
      <trkpt lat="47.76816" lon="-3.53388">
        <ele>14.67</ele>
        <time>2020-07-08T09:07:13Z</time>
      </trkpt>
      <trkpt lat="47.76817" lon="-3.53382">
        <ele>14.3</ele>
        <time>2020-07-08T09:07:14Z</time>
      </trkpt>
      <trkpt lat="47.76817" lon="-3.53376">
        <ele>13.86</ele>
        <time>2020-07-08T09:07:15Z</time>
      </trkpt>
      <trkpt lat="47.76818" lon="-3.53369">
        <ele>13.36</ele>
        <time>2020-07-08T09:07:16Z</time>
      </trkpt>
      <trkpt lat="47.76819" lon="-3.53361">
        <ele>12.78</ele>
        <time>2020-07-08T09:07:17Z</time>
      </trkpt>
      <trkpt lat="47.7682" lon="-3.53353">
        <ele>12.17</ele>
        <time>2020-07-08T09:07:18Z</time>
      </trkpt>
      <trkpt lat="47.76822" lon="-3.53344">
        <ele>11.47</ele>
        <time>2020-07-08T09:07:19Z</time>
      </trkpt>
      <trkpt lat="47.76824" lon="-3.53336">
        <ele>10.81</ele>
        <time>2020-07-08T09:07:20Z</time>
      </trkpt>
      <trkpt lat="47.76826" lon="-3.53327">
        <ele>10.27</ele>
        <time>2020-07-08T09:07:21Z</time>
      </trkpt>
      <trkpt lat="47.76829" lon="-3.5332">
        <ele>9.87</ele>
        <time>2020-07-08T09:07:22Z</time>
      </trkpt>
      <trkpt lat="47.76831" lon="-3.53315">
        <ele>9.55</ele>
        <time>2020-07-08T09:07:23Z</time>
      </trkpt>
      <trkpt lat="47.76833" lon="-3.53308">
        <ele>9.25</ele>
        <time>2020-07-08T09:07:24Z</time>
      </trkpt>
      <trkpt lat="47.76833" lon="-3.53303">
        <ele>8.94</ele>
        <time>2020-07-08T09:07:25Z</time>
      </trkpt>
      <trkpt lat="47.76833" lon="-3.53298">
        <ele>8.58</ele>
        <time>2020-07-08T09:07:26Z</time>
      </trkpt>
      <trkpt lat="47.76833" lon="-3.53293">
        <ele>8.25</ele>
        <time>2020-07-08T09:07:27Z</time>
      </trkpt>
      <trkpt lat="47.76834" lon="-3.5329">
        <ele>7.92</ele>
        <time>2020-07-08T09:07:28Z</time>
      </trkpt>
      <trkpt lat="47.76834" lon="-3.53288">
        <ele>7.71</ele>
        <time>2020-07-08T09:07:29Z</time>
      </trkpt>
      <trkpt lat="47.76834" lon="-3.53287">
        <ele>7.63</ele>
        <time>2020-07-08T09:07:30Z</time>
      </trkpt>
      <trkpt lat="47.76834" lon="-3.53287">
        <ele>7.6</ele>
        <time>2020-07-08T09:07:31Z</time>
      </trkpt>
      <trkpt lat="47.76834" lon="-3.53287">
        <ele>7.59</ele>
        <time>2020-07-08T09:07:32Z</time>
      </trkpt>
      <trkpt lat="47.76834" lon="-3.53287">
        <ele>7.58</ele>
        <time>2020-07-08T09:07:33Z</time>
      </trkpt>
      <trkpt lat="47.76834" lon="-3.53287">
        <ele>7.58</ele>
        <time>2020-07-08T09:07:34Z</time>
      </trkpt>
      <trkpt lat="47.76834" lon="-3.53287">
        <ele>7.58</ele>
        <time>2020-07-08T09:07:35Z</time>
      </trkpt>
      <trkpt lat="47.76834" lon="-3.53287">
        <ele>7.58</ele>
        <time>2020-07-08T09:07:36Z</time>
      </trkpt>
      <trkpt lat="47.76834" lon="-3.53287">
        <ele>7.58</ele>
        <time>2020-07-08T09:07:37Z</time>
      </trkpt>
      <trkpt lat="47.76834" lon="-3.53287">
        <ele>7.58</ele>
        <time>2020-07-08T09:07:38Z</time>
      </trkpt>
      <trkpt lat="47.76834" lon="-3.53287">
        <ele>7.58</ele>
        <time>2020-07-08T09:07:39Z</time>
      </trkpt>
      <trkpt lat="47.76834" lon="-3.53287">
        <ele>7.58</ele>
        <time>2020-07-08T09:07:40Z</time>
      </trkpt>
      <trkpt lat="47.76834" lon="-3.53287">
        <ele>7.58</ele>
        <time>2020-07-08T09:07:41Z</time>
      </trkpt>
      <trkpt lat="47.76837" lon="-3.53284">
        <ele>7.3</ele>
        <time>2020-07-08T09:07:42Z</time>
      </trkpt>
      <trkpt lat="47.76837" lon="-3.53281">
        <ele>7.09</ele>
        <time>2020-07-08T09:07:43Z</time>
      </trkpt>
      <trkpt lat="47.7684" lon="-3.53279">
        <ele>6.73</ele>
        <time>2020-07-08T09:07:44Z</time>
      </trkpt>
      <trkpt lat="47.76844" lon="-3.53275">
        <ele>6.19</ele>
        <time>2020-07-08T09:07:45Z</time>
      </trkpt>
      <trkpt lat="47.76848" lon="-3.53271">
        <ele>5.54</ele>
        <time>2020-07-08T09:07:46Z</time>
      </trkpt>
      <trkpt lat="47.76853" lon="-3.53266">
        <ele>4.82</ele>
        <time>2020-07-08T09:07:47Z</time>
      </trkpt>
      <trkpt lat="47.76856" lon="-3.53261">
        <ele>4.17</ele>
        <time>2020-07-08T09:07:48Z</time>
      </trkpt>
      <trkpt lat="47.7686" lon="-3.53256">
        <ele>3.67</ele>
        <time>2020-07-08T09:07:49Z</time>
      </trkpt>
      <trkpt lat="47.76864" lon="-3.53252">
        <ele>3.37</ele>
        <time>2020-07-08T09:07:50Z</time>
      </trkpt>
      <trkpt lat="47.76869" lon="-3.53249">
        <ele>3.22</ele>
        <time>2020-07-08T09:07:51Z</time>
      </trkpt>
      <trkpt lat="47.76873" lon="-3.53245">
        <ele>3.1</ele>
        <time>2020-07-08T09:07:52Z</time>
      </trkpt>
      <trkpt lat="47.76878" lon="-3.53241">
        <ele>3</ele>
        <time>2020-07-08T09:07:53Z</time>
      </trkpt>
      <trkpt lat="47.76883" lon="-3.53237">
        <ele>2.91</ele>
        <time>2020-07-08T09:07:54Z</time>
      </trkpt>
      <trkpt lat="47.76888" lon="-3.53234">
        <ele>2.86</ele>
        <time>2020-07-08T09:07:55Z</time>
      </trkpt>
      <trkpt lat="47.76893" lon="-3.53232">
        <ele>2.82</ele>
        <time>2020-07-08T09:07:56Z</time>
      </trkpt>
      <trkpt lat="47.76899" lon="-3.5323">
        <ele>2.82</ele>
        <time>2020-07-08T09:07:57Z</time>
      </trkpt>
      <trkpt lat="47.76904" lon="-3.53228">
        <ele>2.85</ele>
        <time>2020-07-08T09:07:58Z</time>
      </trkpt>
      <trkpt lat="47.76909" lon="-3.53227">
        <ele>2.91</ele>
        <time>2020-07-08T09:07:59Z</time>
      </trkpt>
      <trkpt lat="47.76915" lon="-3.53226">
        <ele>3.01</ele>
        <time>2020-07-08T09:08:00Z</time>
      </trkpt>
      <trkpt lat="47.7692" lon="-3.53225">
        <ele>3.06</ele>
        <time>2020-07-08T09:08:01Z</time>
      </trkpt>
      <trkpt lat="47.76925" lon="-3.53224">
        <ele>3.06</ele>
        <time>2020-07-08T09:08:02Z</time>
      </trkpt>
      <trkpt lat="47.76931" lon="-3.53223">
        <ele>3.05</ele>
        <time>2020-07-08T09:08:03Z</time>
      </trkpt>
      <trkpt lat="47.76936" lon="-3.53223">
        <ele>3.03</ele>
        <time>2020-07-08T09:08:04Z</time>
      </trkpt>
      <trkpt lat="47.76942" lon="-3.53222">
        <ele>3</ele>
        <time>2020-07-08T09:08:05Z</time>
      </trkpt>
      <trkpt lat="47.76948" lon="-3.53221">
        <ele>3.06</ele>
        <time>2020-07-08T09:08:06Z</time>
      </trkpt>
      <trkpt lat="47.76953" lon="-3.53221">
        <ele>3.21</ele>
        <time>2020-07-08T09:08:07Z</time>
      </trkpt>
      <trkpt lat="47.76958" lon="-3.5322">
        <ele>3.37</ele>
        <time>2020-07-08T09:08:08Z</time>
      </trkpt>
      <trkpt lat="47.76963" lon="-3.5322">
        <ele>3.52</ele>
        <time>2020-07-08T09:08:09Z</time>
      </trkpt>
      <trkpt lat="47.76967" lon="-3.5322">
        <ele>3.66</ele>
        <time>2020-07-08T09:08:10Z</time>
      </trkpt>
      <trkpt lat="47.76971" lon="-3.5322">
        <ele>3.82</ele>
        <time>2020-07-08T09:08:11Z</time>
      </trkpt>
      <trkpt lat="47.76975" lon="-3.5322">
        <ele>3.89</ele>
        <time>2020-07-08T09:08:12Z</time>
      </trkpt>
      <trkpt lat="47.7698" lon="-3.53221">
        <ele>3.93</ele>
        <time>2020-07-08T09:08:13Z</time>
      </trkpt>
      <trkpt lat="47.76984" lon="-3.53222">
        <ele>3.98</ele>
        <time>2020-07-08T09:08:14Z</time>
      </trkpt>
      <trkpt lat="47.76988" lon="-3.53224">
        <ele>4.08</ele>
        <time>2020-07-08T09:08:15Z</time>
      </trkpt>
      <trkpt lat="47.7699" lon="-3.53227">
        <ele>4.29</ele>
        <time>2020-07-08T09:08:16Z</time>
      </trkpt>
      <trkpt lat="47.76993" lon="-3.53229">
        <ele>4.48</ele>
        <time>2020-07-08T09:08:17Z</time>
      </trkpt>
      <trkpt lat="47.76996" lon="-3.53229">
        <ele>4.63</ele>
        <time>2020-07-08T09:08:18Z</time>
      </trkpt>
      <trkpt lat="47.76999" lon="-3.5323">
        <ele>4.78</ele>
        <time>2020-07-08T09:08:19Z</time>
      </trkpt>
      <trkpt lat="47.77003" lon="-3.53232">
        <ele>5.03</ele>
        <time>2020-07-08T09:08:20Z</time>
      </trkpt>
      <trkpt lat="47.77007" lon="-3.53234">
        <ele>5.35</ele>
        <time>2020-07-08T09:08:21Z</time>
      </trkpt>
      <trkpt lat="47.77011" lon="-3.53236">
        <ele>5.68</ele>
        <time>2020-07-08T09:08:22Z</time>
      </trkpt>
      <trkpt lat="47.77014" lon="-3.53237">
        <ele>5.99</ele>
        <time>2020-07-08T09:08:23Z</time>
      </trkpt>
      <trkpt lat="47.77018" lon="-3.53238">
        <ele>6.26</ele>
        <time>2020-07-08T09:08:24Z</time>
      </trkpt>
      <trkpt lat="47.77021" lon="-3.5324">
        <ele>6.54</ele>
        <time>2020-07-08T09:08:25Z</time>
      </trkpt>
      <trkpt lat="47.77024" lon="-3.53242">
        <ele>6.86</ele>
        <time>2020-07-08T09:08:26Z</time>
      </trkpt>
      <trkpt lat="47.77027" lon="-3.53244">
        <ele>7.16</ele>
        <time>2020-07-08T09:08:27Z</time>
      </trkpt>
      <trkpt lat="47.7703" lon="-3.53245">
        <ele>7.32</ele>
        <time>2020-07-08T09:08:28Z</time>
      </trkpt>
      <trkpt lat="47.77033" lon="-3.53246">
        <ele>7.39</ele>
        <time>2020-07-08T09:08:29Z</time>
      </trkpt>
      <trkpt lat="47.77035" lon="-3.53248">
        <ele>7.45</ele>
        <time>2020-07-08T09:08:30Z</time>
      </trkpt>
      <trkpt lat="47.77038" lon="-3.5325">
        <ele>7.57</ele>
        <time>2020-07-08T09:08:31Z</time>
      </trkpt>
      <trkpt lat="47.77041" lon="-3.53253">
        <ele>7.77</ele>
        <time>2020-07-08T09:08:32Z</time>
      </trkpt>
      <trkpt lat="47.77044" lon="-3.53255">
        <ele>8.01</ele>
        <time>2020-07-08T09:08:33Z</time>
      </trkpt>
      <trkpt lat="47.77046" lon="-3.53258">
        <ele>8.24</ele>
        <time>2020-07-08T09:08:34Z</time>
      </trkpt>
      <trkpt lat="47.77049" lon="-3.5326">
        <ele>8.44</ele>
        <time>2020-07-08T09:08:35Z</time>
      </trkpt>
      <trkpt lat="47.77051" lon="-3.53263">
        <ele>8.78</ele>
        <time>2020-07-08T09:08:36Z</time>
      </trkpt>
      <trkpt lat="47.77054" lon="-3.53266">
        <ele>9.15</ele>
        <time>2020-07-08T09:08:37Z</time>
      </trkpt>
      <trkpt lat="47.77056" lon="-3.53268">
        <ele>9.49</ele>
        <time>2020-07-08T09:08:38Z</time>
      </trkpt>
      <trkpt lat="47.77059" lon="-3.5327">
        <ele>9.95</ele>
        <time>2020-07-08T09:08:39Z</time>
      </trkpt>
      <trkpt lat="47.77062" lon="-3.53272">
        <ele>10.39</ele>
        <time>2020-07-08T09:08:40Z</time>
      </trkpt>
      <trkpt lat="47.77065" lon="-3.53274">
        <ele>10.84</ele>
        <time>2020-07-08T09:08:41Z</time>
      </trkpt>
      <trkpt lat="47.77068" lon="-3.53275">
        <ele>11.27</ele>
        <time>2020-07-08T09:08:42Z</time>
      </trkpt>
      <trkpt lat="47.77072" lon="-3.53276">
        <ele>11.64</ele>
        <time>2020-07-08T09:08:43Z</time>
      </trkpt>
      <trkpt lat="47.77075" lon="-3.53276">
        <ele>12.02</ele>
        <time>2020-07-08T09:08:44Z</time>
      </trkpt>
      <trkpt lat="47.77078" lon="-3.53277">
        <ele>12.39</ele>
        <time>2020-07-08T09:08:45Z</time>
      </trkpt>
      <trkpt lat="47.77081" lon="-3.53278">
        <ele>12.74</ele>
        <time>2020-07-08T09:08:46Z</time>
      </trkpt>
      <trkpt lat="47.77084" lon="-3.53279">
        <ele>13.05</ele>
        <time>2020-07-08T09:08:47Z</time>
      </trkpt>
      <trkpt lat="47.77087" lon="-3.53281">
        <ele>13.4</ele>
        <time>2020-07-08T09:08:48Z</time>
      </trkpt>
      <trkpt lat="47.77091" lon="-3.53282">
        <ele>13.71</ele>
        <time>2020-07-08T09:08:49Z</time>
      </trkpt>
      <trkpt lat="47.77094" lon="-3.53283">
        <ele>14.01</ele>
        <time>2020-07-08T09:08:50Z</time>
      </trkpt>
      <trkpt lat="47.77097" lon="-3.53284">
        <ele>14.33</ele>
        <time>2020-07-08T09:08:51Z</time>
      </trkpt>
      <trkpt lat="47.771" lon="-3.53285">
        <ele>14.6</ele>
        <time>2020-07-08T09:08:52Z</time>
      </trkpt>
      <trkpt lat="47.77103" lon="-3.53286">
        <ele>14.9</ele>
        <time>2020-07-08T09:08:53Z</time>
      </trkpt>
      <trkpt lat="47.77106" lon="-3.53287">
        <ele>15.16</ele>
        <time>2020-07-08T09:08:54Z</time>
      </trkpt>
      <trkpt lat="47.77108" lon="-3.53287">
        <ele>15.36</ele>
        <time>2020-07-08T09:08:55Z</time>
      </trkpt>
      <trkpt lat="47.77109" lon="-3.53288">
        <ele>15.49</ele>
        <time>2020-07-08T09:08:56Z</time>
      </trkpt>
      <trkpt lat="47.77109" lon="-3.53288">
        <ele>15.54</ele>
        <time>2020-07-08T09:08:57Z</time>
      </trkpt>
      <trkpt lat="47.77109" lon="-3.53288">
        <ele>15.56</ele>
        <time>2020-07-08T09:08:58Z</time>
      </trkpt>
      <trkpt lat="47.77109" lon="-3.53288">
        <ele>15.57</ele>
        <time>2020-07-08T09:08:59Z</time>
      </trkpt>
      <trkpt lat="47.77109" lon="-3.53288">
        <ele>15.57</ele>
        <time>2020-07-08T09:09:00Z</time>
      </trkpt>
      <trkpt lat="47.77109" lon="-3.53288">
        <ele>15.57</ele>
        <time>2020-07-08T09:09:01Z</time>
      </trkpt>
      <trkpt lat="47.77109" lon="-3.53288">
        <ele>15.57</ele>
        <time>2020-07-08T09:09:02Z</time>
      </trkpt>
      <trkpt lat="47.77109" lon="-3.53288">
        <ele>15.57</ele>
        <time>2020-07-08T09:09:03Z</time>
      </trkpt>
      <trkpt lat="47.77109" lon="-3.53288">
        <ele>15.57</ele>
        <time>2020-07-08T09:09:04Z</time>
      </trkpt>
      <trkpt lat="47.77109" lon="-3.53288">
        <ele>15.57</ele>
        <time>2020-07-08T09:09:05Z</time>
      </trkpt>
      <trkpt lat="47.77109" lon="-3.53288">
        <ele>15.57</ele>
        <time>2020-07-08T09:09:06Z</time>
      </trkpt>
      <trkpt lat="47.77109" lon="-3.53288">
        <ele>15.57</ele>
        <time>2020-07-08T09:09:07Z</time>
      </trkpt>
      <trkpt lat="47.77109" lon="-3.53288">
        <ele>15.57</ele>
        <time>2020-07-08T09:09:08Z</time>
      </trkpt>
      <trkpt lat="47.77109" lon="-3.53288">
        <ele>15.57</ele>
        <time>2020-07-08T09:09:09Z</time>
      </trkpt>
      <trkpt lat="47.77109" lon="-3.53288">
        <ele>15.57</ele>
        <time>2020-07-08T09:09:10Z</time>
      </trkpt>
      <trkpt lat="47.77109" lon="-3.53288">
        <ele>15.57</ele>
        <time>2020-07-08T09:09:11Z</time>
      </trkpt>
      <trkpt lat="47.7711" lon="-3.53283">
        <ele>15.35</ele>
        <time>2020-07-08T09:09:12Z</time>
      </trkpt>
      <trkpt lat="47.77111" lon="-3.5328">
        <ele>15.22</ele>
        <time>2020-07-08T09:09:13Z</time>
      </trkpt>
      <trkpt lat="47.77112" lon="-3.53277">
        <ele>15.03</ele>
        <time>2020-07-08T09:09:14Z</time>
      </trkpt>
      <trkpt lat="47.77113" lon="-3.53274">
        <ele>14.73</ele>
        <time>2020-07-08T09:09:15Z</time>
      </trkpt>
      <trkpt lat="47.77115" lon="-3.53272">
        <ele>14.45</ele>
        <time>2020-07-08T09:09:16Z</time>
      </trkpt>
      <trkpt lat="47.77116" lon="-3.5327">
        <ele>14.2</ele>
        <time>2020-07-08T09:09:17Z</time>
      </trkpt>
      <trkpt lat="47.77118" lon="-3.53267">
        <ele>13.88</ele>
        <time>2020-07-08T09:09:18Z</time>
      </trkpt>
      <trkpt lat="47.77119" lon="-3.53263">
        <ele>13.48</ele>
        <time>2020-07-08T09:09:19Z</time>
      </trkpt>
      <trkpt lat="47.77121" lon="-3.5326">
        <ele>13.02</ele>
        <time>2020-07-08T09:09:20Z</time>
      </trkpt>
      <trkpt lat="47.77123" lon="-3.53255">
        <ele>12.44</ele>
        <time>2020-07-08T09:09:21Z</time>
      </trkpt>
      <trkpt lat="47.77125" lon="-3.53252">
        <ele>11.95</ele>
        <time>2020-07-08T09:09:22Z</time>
      </trkpt>
      <trkpt lat="47.77127" lon="-3.53251">
        <ele>11.69</ele>
        <time>2020-07-08T09:09:23Z</time>
      </trkpt>
      <trkpt lat="47.77129" lon="-3.53252">
        <ele>11.58</ele>
        <time>2020-07-08T09:09:24Z</time>
      </trkpt>
      <trkpt lat="47.77132" lon="-3.53253">
        <ele>11.62</ele>
        <time>2020-07-08T09:09:25Z</time>
      </trkpt>
      <trkpt lat="47.77133" lon="-3.53255">
        <ele>11.79</ele>
        <time>2020-07-08T09:09:26Z</time>
      </trkpt>
      <trkpt lat="47.77135" lon="-3.53258">
        <ele>12.09</ele>
        <time>2020-07-08T09:09:27Z</time>
      </trkpt>
      <trkpt lat="47.77138" lon="-3.53261">
        <ele>12.45</ele>
        <time>2020-07-08T09:09:28Z</time>
      </trkpt>
      <trkpt lat="47.7714" lon="-3.53264">
        <ele>12.59</ele>
        <time>2020-07-08T09:09:29Z</time>
      </trkpt>
      <trkpt lat="47.77143" lon="-3.53267">
        <ele>12.41</ele>
        <time>2020-07-08T09:09:30Z</time>
      </trkpt>
      <trkpt lat="47.77146" lon="-3.5327">
        <ele>11.99</ele>
        <time>2020-07-08T09:09:31Z</time>
      </trkpt>
      <trkpt lat="47.77149" lon="-3.53274">
        <ele>11.58</ele>
        <time>2020-07-08T09:09:32Z</time>
      </trkpt>
      <trkpt lat="47.77152" lon="-3.53277">
        <ele>11.23</ele>
        <time>2020-07-08T09:09:33Z</time>
      </trkpt>
      <trkpt lat="47.77155" lon="-3.5328">
        <ele>10.94</ele>
        <time>2020-07-08T09:09:34Z</time>
      </trkpt>
      <trkpt lat="47.77158" lon="-3.53284">
        <ele>10.97</ele>
        <time>2020-07-08T09:09:35Z</time>
      </trkpt>
      <trkpt lat="47.7716" lon="-3.53288">
        <ele>11.17</ele>
        <time>2020-07-08T09:09:36Z</time>
      </trkpt>
      <trkpt lat="47.77161" lon="-3.53292">
        <ele>11.58</ele>
        <time>2020-07-08T09:09:37Z</time>
      </trkpt>
      <trkpt lat="47.77162" lon="-3.53296">
        <ele>12.15</ele>
        <time>2020-07-08T09:09:38Z</time>
      </trkpt>
      <trkpt lat="47.77163" lon="-3.53299">
        <ele>12.74</ele>
        <time>2020-07-08T09:09:39Z</time>
      </trkpt>
      <trkpt lat="47.77163" lon="-3.53302">
        <ele>13.39</ele>
        <time>2020-07-08T09:09:40Z</time>
      </trkpt>
      <trkpt lat="47.77164" lon="-3.53305">
        <ele>14</ele>
        <time>2020-07-08T09:09:41Z</time>
      </trkpt>
      <trkpt lat="47.77164" lon="-3.53307">
        <ele>14.36</ele>
        <time>2020-07-08T09:09:42Z</time>
      </trkpt>
      <trkpt lat="47.77165" lon="-3.53309">
        <ele>14.54</ele>
        <time>2020-07-08T09:09:43Z</time>
      </trkpt>
      <trkpt lat="47.77165" lon="-3.5331">
        <ele>14.68</ele>
        <time>2020-07-08T09:09:44Z</time>
      </trkpt>
      <trkpt lat="47.77166" lon="-3.53312">
        <ele>14.75</ele>
        <time>2020-07-08T09:09:45Z</time>
      </trkpt>
      <trkpt lat="47.77166" lon="-3.53312">
        <ele>14.78</ele>
        <time>2020-07-08T09:09:46Z</time>
      </trkpt>
      <trkpt lat="47.77166" lon="-3.53312">
        <ele>14.79</ele>
        <time>2020-07-08T09:09:47Z</time>
      </trkpt>
      <trkpt lat="47.77171" lon="-3.53318">
        <ele>14.01</ele>
        <time>2020-07-08T09:09:48Z</time>
      </trkpt>
      <trkpt lat="47.77173" lon="-3.53322">
        <ele>13.36</ele>
        <time>2020-07-08T09:09:49Z</time>
      </trkpt>
      <trkpt lat="47.77176" lon="-3.53325">
        <ele>12.55</ele>
        <time>2020-07-08T09:09:50Z</time>
      </trkpt>
      <trkpt lat="47.7718" lon="-3.53329">
        <ele>11.49</ele>
        <time>2020-07-08T09:09:51Z</time>
      </trkpt>
      <trkpt lat="47.77186" lon="-3.53334">
        <ele>10.21</ele>
        <time>2020-07-08T09:09:52Z</time>
      </trkpt>
      <trkpt lat="47.7719" lon="-3.53337">
        <ele>9.35</ele>
        <time>2020-07-08T09:09:53Z</time>
      </trkpt>
      <trkpt lat="47.77194" lon="-3.53339">
        <ele>8.36</ele>
        <time>2020-07-08T09:09:54Z</time>
      </trkpt>
      <trkpt lat="47.77198" lon="-3.53341">
        <ele>8.02</ele>
        <time>2020-07-08T09:09:55Z</time>
      </trkpt>
      <trkpt lat="47.77202" lon="-3.53344">
        <ele>7.94</ele>
        <time>2020-07-08T09:09:56Z</time>
      </trkpt>
      <trkpt lat="47.77208" lon="-3.53348">
        <ele>8.12</ele>
        <time>2020-07-08T09:09:57Z</time>
      </trkpt>
      <trkpt lat="47.77212" lon="-3.53351">
        <ele>8.45</ele>
        <time>2020-07-08T09:09:58Z</time>
      </trkpt>
      <trkpt lat="47.77217" lon="-3.53354">
        <ele>8.52</ele>
        <time>2020-07-08T09:09:59Z</time>
      </trkpt>
      <trkpt lat="47.77221" lon="-3.53356">
        <ele>8.49</ele>
        <time>2020-07-08T09:10:00Z</time>
      </trkpt>
      <trkpt lat="47.77225" lon="-3.53358">
        <ele>8.7</ele>
        <time>2020-07-08T09:10:01Z</time>
      </trkpt>
      <trkpt lat="47.77229" lon="-3.5336">
        <ele>8.84</ele>
        <time>2020-07-08T09:10:02Z</time>
      </trkpt>
      <trkpt lat="47.77233" lon="-3.53361">
        <ele>8.81</ele>
        <time>2020-07-08T09:10:03Z</time>
      </trkpt>
      <trkpt lat="47.77237" lon="-3.53362">
        <ele>8.75</ele>
        <time>2020-07-08T09:10:04Z</time>
      </trkpt>
      <trkpt lat="47.7724" lon="-3.53364">
        <ele>8.83</ele>
        <time>2020-07-08T09:10:05Z</time>
      </trkpt>
      <trkpt lat="47.77244" lon="-3.53365">
        <ele>9.09</ele>
        <time>2020-07-08T09:10:06Z</time>
      </trkpt>
      <trkpt lat="47.77247" lon="-3.53368">
        <ele>9.57</ele>
        <time>2020-07-08T09:10:07Z</time>
      </trkpt>
      <trkpt lat="47.7725" lon="-3.53369">
        <ele>9.68</ele>
        <time>2020-07-08T09:10:08Z</time>
      </trkpt>
      <trkpt lat="47.77254" lon="-3.53371">
        <ele>10.01</ele>
        <time>2020-07-08T09:10:09Z</time>
      </trkpt>
      <trkpt lat="47.77258" lon="-3.53372">
        <ele>10.15</ele>
        <time>2020-07-08T09:10:10Z</time>
      </trkpt>
      <trkpt lat="47.77262" lon="-3.53375">
        <ele>10.58</ele>
        <time>2020-07-08T09:10:11Z</time>
      </trkpt>
      <trkpt lat="47.77265" lon="-3.53377">
        <ele>10.92</ele>
        <time>2020-07-08T09:10:12Z</time>
      </trkpt>
      <trkpt lat="47.77268" lon="-3.53378">
        <ele>11.05</ele>
        <time>2020-07-08T09:10:13Z</time>
      </trkpt>
      <trkpt lat="47.7727" lon="-3.53378">
        <ele>11.04</ele>
        <time>2020-07-08T09:10:14Z</time>
      </trkpt>
      <trkpt lat="47.7727" lon="-3.53378">
        <ele>10.9</ele>
        <time>2020-07-08T09:10:15Z</time>
      </trkpt>
      <trkpt lat="47.7727" lon="-3.53377">
        <ele>10.72</ele>
        <time>2020-07-08T09:10:16Z</time>
      </trkpt>
      <trkpt lat="47.7727" lon="-3.53377">
        <ele>10.67</ele>
        <time>2020-07-08T09:10:17Z</time>
      </trkpt>
      <trkpt lat="47.7727" lon="-3.53377">
        <ele>10.65</ele>
        <time>2020-07-08T09:10:18Z</time>
      </trkpt>
      <trkpt lat="47.7727" lon="-3.53377">
        <ele>10.65</ele>
        <time>2020-07-08T09:10:19Z</time>
      </trkpt>
      <trkpt lat="47.7727" lon="-3.53377">
        <ele>10.64</ele>
        <time>2020-07-08T09:10:20Z</time>
      </trkpt>
      <trkpt lat="47.7727" lon="-3.53377">
        <ele>10.64</ele>
        <time>2020-07-08T09:10:21Z</time>
      </trkpt>
      <trkpt lat="47.7727" lon="-3.53377">
        <ele>10.64</ele>
        <time>2020-07-08T09:10:22Z</time>
      </trkpt>
      <trkpt lat="47.7727" lon="-3.53377">
        <ele>10.64</ele>
        <time>2020-07-08T09:10:23Z</time>
      </trkpt>
      <trkpt lat="47.77278" lon="-3.53378">
        <ele>10.24</ele>
        <time>2020-07-08T09:10:24Z</time>
      </trkpt>
      <trkpt lat="47.77281" lon="-3.5338">
        <ele>10.38</ele>
        <time>2020-07-08T09:10:25Z</time>
      </trkpt>
      <trkpt lat="47.77285" lon="-3.53382">
        <ele>10.74</ele>
        <time>2020-07-08T09:10:26Z</time>
      </trkpt>
      <trkpt lat="47.77289" lon="-3.53384">
        <ele>11.13</ele>
        <time>2020-07-08T09:10:27Z</time>
      </trkpt>
      <trkpt lat="47.77293" lon="-3.53387">
        <ele>11.57</ele>
        <time>2020-07-08T09:10:28Z</time>
      </trkpt>
      <trkpt lat="47.77297" lon="-3.5339">
        <ele>11.94</ele>
        <time>2020-07-08T09:10:29Z</time>
      </trkpt>
      <trkpt lat="47.77301" lon="-3.53393">
        <ele>12.22</ele>
        <time>2020-07-08T09:10:30Z</time>
      </trkpt>
      <trkpt lat="47.77305" lon="-3.53396">
        <ele>12.42</ele>
        <time>2020-07-08T09:10:31Z</time>
      </trkpt>
      <trkpt lat="47.77309" lon="-3.53398">
        <ele>12.82</ele>
        <time>2020-07-08T09:10:32Z</time>
      </trkpt>
      <trkpt lat="47.77313" lon="-3.53401">
        <ele>13.27</ele>
        <time>2020-07-08T09:10:33Z</time>
      </trkpt>
      <trkpt lat="47.77317" lon="-3.53402">
        <ele>13.57</ele>
        <time>2020-07-08T09:10:34Z</time>
      </trkpt>
      <trkpt lat="47.7732" lon="-3.53405">
        <ele>13.99</ele>
        <time>2020-07-08T09:10:35Z</time>
      </trkpt>
      <trkpt lat="47.77323" lon="-3.53408">
        <ele>14.5</ele>
        <time>2020-07-08T09:10:36Z</time>
      </trkpt>
      <trkpt lat="47.77327" lon="-3.5341">
        <ele>14.88</ele>
        <time>2020-07-08T09:10:37Z</time>
      </trkpt>
      <trkpt lat="47.7733" lon="-3.53413">
        <ele>15.24</ele>
        <time>2020-07-08T09:10:38Z</time>
      </trkpt>
      <trkpt lat="47.77332" lon="-3.53414">
        <ele>15.48</ele>
        <time>2020-07-08T09:10:39Z</time>
      </trkpt>
      <trkpt lat="47.77335" lon="-3.53416">
        <ele>15.88</ele>
        <time>2020-07-08T09:10:40Z</time>
      </trkpt>
      <trkpt lat="47.77338" lon="-3.53417">
        <ele>16.24</ele>
        <time>2020-07-08T09:10:41Z</time>
      </trkpt>
      <trkpt lat="47.77341" lon="-3.53418">
        <ele>16.57</ele>
        <time>2020-07-08T09:10:42Z</time>
      </trkpt>
      <trkpt lat="47.77344" lon="-3.53419">
        <ele>16.87</ele>
        <time>2020-07-08T09:10:43Z</time>
      </trkpt>
      <trkpt lat="47.77347" lon="-3.53421">
        <ele>17.25</ele>
        <time>2020-07-08T09:10:44Z</time>
      </trkpt>
      <trkpt lat="47.77351" lon="-3.53424">
        <ele>17.66</ele>
        <time>2020-07-08T09:10:45Z</time>
      </trkpt>
      <trkpt lat="47.77353" lon="-3.53426">
        <ele>18.02</ele>
        <time>2020-07-08T09:10:46Z</time>
      </trkpt>
      <trkpt lat="47.77356" lon="-3.53427">
        <ele>18.32</ele>
        <time>2020-07-08T09:10:47Z</time>
      </trkpt>
      <trkpt lat="47.77359" lon="-3.5343">
        <ele>18.66</ele>
        <time>2020-07-08T09:10:48Z</time>
      </trkpt>
      <trkpt lat="47.77362" lon="-3.53432">
        <ele>18.99</ele>
        <time>2020-07-08T09:10:49Z</time>
      </trkpt>
      <trkpt lat="47.77365" lon="-3.53434">
        <ele>19.21</ele>
        <time>2020-07-08T09:10:50Z</time>
      </trkpt>
      <trkpt lat="47.77367" lon="-3.53435">
        <ele>19.41</ele>
        <time>2020-07-08T09:10:51Z</time>
      </trkpt>
      <trkpt lat="47.7737" lon="-3.53437">
        <ele>19.62</ele>
        <time>2020-07-08T09:10:52Z</time>
      </trkpt>
      <trkpt lat="47.77373" lon="-3.53439">
        <ele>19.83</ele>
        <time>2020-07-08T09:10:53Z</time>
      </trkpt>
      <trkpt lat="47.77376" lon="-3.5344">
        <ele>20.03</ele>
        <time>2020-07-08T09:10:54Z</time>
      </trkpt>
      <trkpt lat="47.77379" lon="-3.53441">
        <ele>20.22</ele>
        <time>2020-07-08T09:10:55Z</time>
      </trkpt>
      <trkpt lat="47.77381" lon="-3.53443">
        <ele>20.49</ele>
        <time>2020-07-08T09:10:56Z</time>
      </trkpt>
      <trkpt lat="47.77384" lon="-3.53446">
        <ele>20.78</ele>
        <time>2020-07-08T09:10:57Z</time>
      </trkpt>
      <trkpt lat="47.77387" lon="-3.53449">
        <ele>21.01</ele>
        <time>2020-07-08T09:10:58Z</time>
      </trkpt>
      <trkpt lat="47.7739" lon="-3.53452">
        <ele>21.19</ele>
        <time>2020-07-08T09:10:59Z</time>
      </trkpt>
      <trkpt lat="47.77392" lon="-3.53455">
        <ele>21.35</ele>
        <time>2020-07-08T09:11:00Z</time>
      </trkpt>
      <trkpt lat="47.77395" lon="-3.53457">
        <ele>21.49</ele>
        <time>2020-07-08T09:11:01Z</time>
      </trkpt>
      <trkpt lat="47.77397" lon="-3.5346">
        <ele>21.65</ele>
        <time>2020-07-08T09:11:02Z</time>
      </trkpt>
      <trkpt lat="47.774" lon="-3.53463">
        <ele>21.86</ele>
        <time>2020-07-08T09:11:03Z</time>
      </trkpt>
      <trkpt lat="47.77404" lon="-3.53466">
        <ele>22.08</ele>
        <time>2020-07-08T09:11:04Z</time>
      </trkpt>
      <trkpt lat="47.77407" lon="-3.53468">
        <ele>22.3</ele>
        <time>2020-07-08T09:11:05Z</time>
      </trkpt>
      <trkpt lat="47.77411" lon="-3.5347">
        <ele>22.58</ele>
        <time>2020-07-08T09:11:06Z</time>
      </trkpt>
      <trkpt lat="47.77415" lon="-3.53474">
        <ele>22.85</ele>
        <time>2020-07-08T09:11:07Z</time>
      </trkpt>
      <trkpt lat="47.77418" lon="-3.53478">
        <ele>22.8</ele>
        <time>2020-07-08T09:11:08Z</time>
      </trkpt>
      <trkpt lat="47.77421" lon="-3.53482">
        <ele>22.55</ele>
        <time>2020-07-08T09:11:09Z</time>
      </trkpt>
      <trkpt lat="47.77425" lon="-3.53486">
        <ele>22.22</ele>
        <time>2020-07-08T09:11:10Z</time>
      </trkpt>
      <trkpt lat="47.77428" lon="-3.53489">
        <ele>21.93</ele>
        <time>2020-07-08T09:11:11Z</time>
      </trkpt>
      <trkpt lat="47.77431" lon="-3.53493">
        <ele>21.75</ele>
        <time>2020-07-08T09:11:12Z</time>
      </trkpt>
      <trkpt lat="47.77435" lon="-3.53497">
        <ele>21.64</ele>
        <time>2020-07-08T09:11:13Z</time>
      </trkpt>
      <trkpt lat="47.77436" lon="-3.53504">
        <ele>21.69</ele>
        <time>2020-07-08T09:11:14Z</time>
      </trkpt>
      <trkpt lat="47.77437" lon="-3.53511">
        <ele>21.87</ele>
        <time>2020-07-08T09:11:15Z</time>
      </trkpt>
      <trkpt lat="47.77438" lon="-3.53517">
        <ele>22.03</ele>
        <time>2020-07-08T09:11:16Z</time>
      </trkpt>
      <trkpt lat="47.77438" lon="-3.53523">
        <ele>22.21</ele>
        <time>2020-07-08T09:11:17Z</time>
      </trkpt>
      <trkpt lat="47.77438" lon="-3.53531">
        <ele>22.31</ele>
        <time>2020-07-08T09:11:18Z</time>
      </trkpt>
      <trkpt lat="47.77438" lon="-3.53539">
        <ele>22.21</ele>
        <time>2020-07-08T09:11:19Z</time>
      </trkpt>
      <trkpt lat="47.77437" lon="-3.53547">
        <ele>22.08</ele>
        <time>2020-07-08T09:11:20Z</time>
      </trkpt>
      <trkpt lat="47.77436" lon="-3.53555">
        <ele>21.96</ele>
        <time>2020-07-08T09:11:21Z</time>
      </trkpt>
      <trkpt lat="47.77435" lon="-3.53565">
        <ele>21.88</ele>
        <time>2020-07-08T09:11:22Z</time>
      </trkpt>
      <trkpt lat="47.77434" lon="-3.53573">
        <ele>21.75</ele>
        <time>2020-07-08T09:11:23Z</time>
      </trkpt>
      <trkpt lat="47.77434" lon="-3.53583">
        <ele>21.54</ele>
        <time>2020-07-08T09:11:24Z</time>
      </trkpt>
      <trkpt lat="47.77436" lon="-3.5359">
        <ele>21.35</ele>
        <time>2020-07-08T09:11:25Z</time>
      </trkpt>
      <trkpt lat="47.77437" lon="-3.53596">
        <ele>21.1</ele>
        <time>2020-07-08T09:11:26Z</time>
      </trkpt>
      <trkpt lat="47.77439" lon="-3.53601">
        <ele>20.85</ele>
        <time>2020-07-08T09:11:27Z</time>
      </trkpt>
      <trkpt lat="47.77441" lon="-3.53606">
        <ele>20.58</ele>
        <time>2020-07-08T09:11:28Z</time>
      </trkpt>
      <trkpt lat="47.77442" lon="-3.53613">
        <ele>20.36</ele>
        <time>2020-07-08T09:11:29Z</time>
      </trkpt>
      <trkpt lat="47.77443" lon="-3.5362">
        <ele>20.06</ele>
        <time>2020-07-08T09:11:30Z</time>
      </trkpt>
      <trkpt lat="47.77442" lon="-3.5363">
        <ele>19.79</ele>
        <time>2020-07-08T09:11:31Z</time>
      </trkpt>
      <trkpt lat="47.77441" lon="-3.53637">
        <ele>19.57</ele>
        <time>2020-07-08T09:11:32Z</time>
      </trkpt>
      <trkpt lat="47.7744" lon="-3.53645">
        <ele>19.49</ele>
        <time>2020-07-08T09:11:33Z</time>
      </trkpt>
      <trkpt lat="47.77438" lon="-3.53651">
        <ele>19.46</ele>
        <time>2020-07-08T09:11:34Z</time>
      </trkpt>
      <trkpt lat="47.77438" lon="-3.53657">
        <ele>19.28</ele>
        <time>2020-07-08T09:11:35Z</time>
      </trkpt>
      <trkpt lat="47.77441" lon="-3.53662">
        <ele>18.88</ele>
        <time>2020-07-08T09:11:36Z</time>
      </trkpt>
      <trkpt lat="47.77444" lon="-3.53666">
        <ele>18.38</ele>
        <time>2020-07-08T09:11:37Z</time>
      </trkpt>
      <trkpt lat="47.77447" lon="-3.53669">
        <ele>17.44</ele>
        <time>2020-07-08T09:11:38Z</time>
      </trkpt>
      <trkpt lat="47.7745" lon="-3.53671">
        <ele>16.23</ele>
        <time>2020-07-08T09:11:39Z</time>
      </trkpt>
      <trkpt lat="47.77452" lon="-3.53673">
        <ele>15.11</ele>
        <time>2020-07-08T09:11:40Z</time>
      </trkpt>
      <trkpt lat="47.77454" lon="-3.53675">
        <ele>14.18</ele>
        <time>2020-07-08T09:11:41Z</time>
      </trkpt>
      <trkpt lat="47.77456" lon="-3.53677">
        <ele>13.22</ele>
        <time>2020-07-08T09:11:42Z</time>
      </trkpt>
      <trkpt lat="47.77458" lon="-3.5368">
        <ele>12.37</ele>
        <time>2020-07-08T09:11:43Z</time>
      </trkpt>
      <trkpt lat="47.7746" lon="-3.53683">
        <ele>11.56</ele>
        <time>2020-07-08T09:11:44Z</time>
      </trkpt>
      <trkpt lat="47.77462" lon="-3.53687">
        <ele>10.85</ele>
        <time>2020-07-08T09:11:45Z</time>
      </trkpt>
      <trkpt lat="47.77464" lon="-3.53691">
        <ele>10.15</ele>
        <time>2020-07-08T09:11:46Z</time>
      </trkpt>
      <trkpt lat="47.77466" lon="-3.53694">
        <ele>9.47</ele>
        <time>2020-07-08T09:11:47Z</time>
      </trkpt>
      <trkpt lat="47.77468" lon="-3.53698">
        <ele>9.23</ele>
        <time>2020-07-08T09:11:48Z</time>
      </trkpt>
      <trkpt lat="47.77471" lon="-3.53701">
        <ele>9.08</ele>
        <time>2020-07-08T09:11:49Z</time>
      </trkpt>
      <trkpt lat="47.77473" lon="-3.53704">
        <ele>9.07</ele>
        <time>2020-07-08T09:11:50Z</time>
      </trkpt>
      <trkpt lat="47.77475" lon="-3.53707">
        <ele>9.13</ele>
        <time>2020-07-08T09:11:51Z</time>
      </trkpt>
      <trkpt lat="47.77477" lon="-3.53709">
        <ele>9.17</ele>
        <time>2020-07-08T09:11:52Z</time>
      </trkpt>
      <trkpt lat="47.77479" lon="-3.53712">
        <ele>9.25</ele>
        <time>2020-07-08T09:11:53Z</time>
      </trkpt>
      <trkpt lat="47.77481" lon="-3.53716">
        <ele>9.36</ele>
        <time>2020-07-08T09:11:54Z</time>
      </trkpt>
      <trkpt lat="47.77484" lon="-3.53719">
        <ele>8.96</ele>
        <time>2020-07-08T09:11:55Z</time>
      </trkpt>
      <trkpt lat="47.77488" lon="-3.53724">
        <ele>8.52</ele>
        <time>2020-07-08T09:11:56Z</time>
      </trkpt>
      <trkpt lat="47.77493" lon="-3.53732">
        <ele>8.02</ele>
        <time>2020-07-08T09:11:57Z</time>
      </trkpt>
      <trkpt lat="47.77497" lon="-3.53739">
        <ele>7.51</ele>
        <time>2020-07-08T09:11:58Z</time>
      </trkpt>
      <trkpt lat="47.77502" lon="-3.53746">
        <ele>7.17</ele>
        <time>2020-07-08T09:11:59Z</time>
      </trkpt>
      <trkpt lat="47.77505" lon="-3.53753">
        <ele>7.26</ele>
        <time>2020-07-08T09:12:00Z</time>
      </trkpt>
      <trkpt lat="47.7751" lon="-3.53759">
        <ele>7.35</ele>
        <time>2020-07-08T09:12:01Z</time>
      </trkpt>
      <trkpt lat="47.77515" lon="-3.53768">
        <ele>7.09</ele>
        <time>2020-07-08T09:12:02Z</time>
      </trkpt>
      <trkpt lat="47.77518" lon="-3.53774">
        <ele>6.62</ele>
        <time>2020-07-08T09:12:03Z</time>
      </trkpt>
      <trkpt lat="47.77522" lon="-3.53781">
        <ele>5.88</ele>
        <time>2020-07-08T09:12:04Z</time>
      </trkpt>
      <trkpt lat="47.77524" lon="-3.53785">
        <ele>5.39</ele>
        <time>2020-07-08T09:12:05Z</time>
      </trkpt>
      <trkpt lat="47.77526" lon="-3.5379">
        <ele>5.32</ele>
        <time>2020-07-08T09:12:06Z</time>
      </trkpt>
      <trkpt lat="47.77528" lon="-3.53795">
        <ele>5.23</ele>
        <time>2020-07-08T09:12:07Z</time>
      </trkpt>
      <trkpt lat="47.77529" lon="-3.538">
        <ele>5.68</ele>
        <time>2020-07-08T09:12:08Z</time>
      </trkpt>
      <trkpt lat="47.7753" lon="-3.53805">
        <ele>6.22</ele>
        <time>2020-07-08T09:12:09Z</time>
      </trkpt>
      <trkpt lat="47.77532" lon="-3.53811">
        <ele>6.81</ele>
        <time>2020-07-08T09:12:10Z</time>
      </trkpt>
      <trkpt lat="47.77533" lon="-3.53817">
        <ele>7.44</ele>
        <time>2020-07-08T09:12:11Z</time>
      </trkpt>
      <trkpt lat="47.77535" lon="-3.53823">
        <ele>8.06</ele>
        <time>2020-07-08T09:12:12Z</time>
      </trkpt>
      <trkpt lat="47.77536" lon="-3.53829">
        <ele>8.66</ele>
        <time>2020-07-08T09:12:13Z</time>
      </trkpt>
      <trkpt lat="47.77537" lon="-3.53834">
        <ele>8.91</ele>
        <time>2020-07-08T09:12:14Z</time>
      </trkpt>
      <trkpt lat="47.7754" lon="-3.5384">
        <ele>8.56</ele>
        <time>2020-07-08T09:12:15Z</time>
      </trkpt>
      <trkpt lat="47.77542" lon="-3.53843">
        <ele>8.1</ele>
        <time>2020-07-08T09:12:16Z</time>
      </trkpt>
      <trkpt lat="47.77544" lon="-3.53846">
        <ele>7.52</ele>
        <time>2020-07-08T09:12:17Z</time>
      </trkpt>
      <trkpt lat="47.77547" lon="-3.53846">
        <ele>6.72</ele>
        <time>2020-07-08T09:12:18Z</time>
      </trkpt>
      <trkpt lat="47.77549" lon="-3.53847">
        <ele>5.97</ele>
        <time>2020-07-08T09:12:19Z</time>
      </trkpt>
      <trkpt lat="47.77552" lon="-3.5385">
        <ele>5.17</ele>
        <time>2020-07-08T09:12:20Z</time>
      </trkpt>
      <trkpt lat="47.77555" lon="-3.53851">
        <ele>4.19</ele>
        <time>2020-07-08T09:12:21Z</time>
      </trkpt>
      <trkpt lat="47.7756" lon="-3.53851">
        <ele>4.2</ele>
        <time>2020-07-08T09:12:22Z</time>
      </trkpt>
      <trkpt lat="47.77563" lon="-3.53854">
        <ele>4.47</ele>
        <time>2020-07-08T09:12:23Z</time>
      </trkpt>
      <trkpt lat="47.77565" lon="-3.53856">
        <ele>4.74</ele>
        <time>2020-07-08T09:12:24Z</time>
      </trkpt>
      <trkpt lat="47.77568" lon="-3.53856">
        <ele>4.99</ele>
        <time>2020-07-08T09:12:25Z</time>
      </trkpt>
      <trkpt lat="47.77569" lon="-3.53856">
        <ele>5.14</ele>
        <time>2020-07-08T09:12:26Z</time>
      </trkpt>
      <trkpt lat="47.77569" lon="-3.53856">
        <ele>5.22</ele>
        <time>2020-07-08T09:12:27Z</time>
      </trkpt>
      <trkpt lat="47.77571" lon="-3.53857">
        <ele>5.3</ele>
        <time>2020-07-08T09:12:28Z</time>
      </trkpt>
      <trkpt lat="47.77571" lon="-3.53857">
        <ele>5.33</ele>
        <time>2020-07-08T09:12:29Z</time>
      </trkpt>
      <trkpt lat="47.77571" lon="-3.53857">
        <ele>5.33</ele>
        <time>2020-07-08T09:12:30Z</time>
      </trkpt>
      <trkpt lat="47.77571" lon="-3.53857">
        <ele>5.34</ele>
        <time>2020-07-08T09:12:31Z</time>
      </trkpt>
      <trkpt lat="47.77571" lon="-3.53857">
        <ele>5.34</ele>
        <time>2020-07-08T09:12:32Z</time>
      </trkpt>
      <trkpt lat="47.77571" lon="-3.53857">
        <ele>5.34</ele>
        <time>2020-07-08T09:12:33Z</time>
      </trkpt>
      <trkpt lat="47.77569" lon="-3.5385">
        <ele>5.41</ele>
        <time>2020-07-08T09:12:34Z</time>
      </trkpt>
      <trkpt lat="47.77567" lon="-3.53846">
        <ele>5.42</ele>
        <time>2020-07-08T09:12:35Z</time>
      </trkpt>
      <trkpt lat="47.77565" lon="-3.53841">
        <ele>5.31</ele>
        <time>2020-07-08T09:12:36Z</time>
      </trkpt>
      <trkpt lat="47.77564" lon="-3.53836">
        <ele>5.09</ele>
        <time>2020-07-08T09:12:37Z</time>
      </trkpt>
      <trkpt lat="47.77562" lon="-3.53831">
        <ele>4.88</ele>
        <time>2020-07-08T09:12:38Z</time>
      </trkpt>
      <trkpt lat="47.77562" lon="-3.53827">
        <ele>4.76</ele>
        <time>2020-07-08T09:12:39Z</time>
      </trkpt>
      <trkpt lat="47.77562" lon="-3.53824">
        <ele>4.8</ele>
        <time>2020-07-08T09:12:40Z</time>
      </trkpt>
      <trkpt lat="47.77562" lon="-3.5382">
        <ele>4.85</ele>
        <time>2020-07-08T09:12:41Z</time>
      </trkpt>
      <trkpt lat="47.77562" lon="-3.53816">
        <ele>4.73</ele>
        <time>2020-07-08T09:12:42Z</time>
      </trkpt>
      <trkpt lat="47.77561" lon="-3.53812">
        <ele>4.57</ele>
        <time>2020-07-08T09:12:43Z</time>
      </trkpt>
      <trkpt lat="47.77561" lon="-3.53807">
        <ele>4.5</ele>
        <time>2020-07-08T09:12:44Z</time>
      </trkpt>
      <trkpt lat="47.7756" lon="-3.538">
        <ele>4.39</ele>
        <time>2020-07-08T09:12:45Z</time>
      </trkpt>
      <trkpt lat="47.77558" lon="-3.53796">
        <ele>4.08</ele>
        <time>2020-07-08T09:12:46Z</time>
      </trkpt>
      <trkpt lat="47.77557" lon="-3.53791">
        <ele>3.83</ele>
        <time>2020-07-08T09:12:47Z</time>
      </trkpt>
      <trkpt lat="47.77555" lon="-3.53788">
        <ele>3.41</ele>
        <time>2020-07-08T09:12:48Z</time>
      </trkpt>
      <trkpt lat="47.77554" lon="-3.53787">
        <ele>3.39</ele>
        <time>2020-07-08T09:12:49Z</time>
      </trkpt>
      <trkpt lat="47.77553" lon="-3.53783">
        <ele>3.51</ele>
        <time>2020-07-08T09:12:50Z</time>
      </trkpt>
      <trkpt lat="47.77552" lon="-3.53778">
        <ele>3.66</ele>
        <time>2020-07-08T09:12:51Z</time>
      </trkpt>
      <trkpt lat="47.77551" lon="-3.53773">
        <ele>3.75</ele>
        <time>2020-07-08T09:12:52Z</time>
      </trkpt>
      <trkpt lat="47.77549" lon="-3.53768">
        <ele>3.71</ele>
        <time>2020-07-08T09:12:53Z</time>
      </trkpt>
      <trkpt lat="47.77548" lon="-3.53763">
        <ele>3.73</ele>
        <time>2020-07-08T09:12:54Z</time>
      </trkpt>
      <trkpt lat="47.77547" lon="-3.53758">
        <ele>3.71</ele>
        <time>2020-07-08T09:12:55Z</time>
      </trkpt>
      <trkpt lat="47.77547" lon="-3.53751">
        <ele>3.72</ele>
        <time>2020-07-08T09:12:56Z</time>
      </trkpt>
      <trkpt lat="47.77547" lon="-3.53745">
        <ele>3.81</ele>
        <time>2020-07-08T09:12:57Z</time>
      </trkpt>
      <trkpt lat="47.77546" lon="-3.5374">
        <ele>3.87</ele>
        <time>2020-07-08T09:12:58Z</time>
      </trkpt>
      <trkpt lat="47.77545" lon="-3.53734">
        <ele>3.86</ele>
        <time>2020-07-08T09:12:59Z</time>
      </trkpt>
      <trkpt lat="47.77545" lon="-3.53728">
        <ele>3.89</ele>
        <time>2020-07-08T09:13:00Z</time>
      </trkpt>
      <trkpt lat="47.77543" lon="-3.53722">
        <ele>3.76</ele>
        <time>2020-07-08T09:13:01Z</time>
      </trkpt>
      <trkpt lat="47.77542" lon="-3.53716">
        <ele>3.77</ele>
        <time>2020-07-08T09:13:02Z</time>
      </trkpt>
      <trkpt lat="47.7754" lon="-3.5371">
        <ele>3.68</ele>
        <time>2020-07-08T09:13:03Z</time>
      </trkpt>
      <trkpt lat="47.77539" lon="-3.53705">
        <ele>3.57</ele>
        <time>2020-07-08T09:13:04Z</time>
      </trkpt>
      <trkpt lat="47.77537" lon="-3.53699">
        <ele>3.33</ele>
        <time>2020-07-08T09:13:05Z</time>
      </trkpt>
      <trkpt lat="47.77533" lon="-3.5369">
        <ele>2.73</ele>
        <time>2020-07-08T09:13:06Z</time>
      </trkpt>
      <trkpt lat="47.77533" lon="-3.53684">
        <ele>2.43</ele>
        <time>2020-07-08T09:13:07Z</time>
      </trkpt>
      <trkpt lat="47.77532" lon="-3.53678">
        <ele>2.2</ele>
        <time>2020-07-08T09:13:08Z</time>
      </trkpt>
      <trkpt lat="47.77532" lon="-3.5367">
        <ele>2.2</ele>
        <time>2020-07-08T09:13:09Z</time>
      </trkpt>
      <trkpt lat="47.77533" lon="-3.53664">
        <ele>2.3</ele>
        <time>2020-07-08T09:13:10Z</time>
      </trkpt>
      <trkpt lat="47.77533" lon="-3.53657">
        <ele>2.43</ele>
        <time>2020-07-08T09:13:11Z</time>
      </trkpt>
      <trkpt lat="47.77533" lon="-3.53651">
        <ele>2.5</ele>
        <time>2020-07-08T09:13:12Z</time>
      </trkpt>
      <trkpt lat="47.77535" lon="-3.53645">
        <ele>2.7</ele>
        <time>2020-07-08T09:13:13Z</time>
      </trkpt>
      <trkpt lat="47.77536" lon="-3.53638">
        <ele>2.95</ele>
        <time>2020-07-08T09:13:14Z</time>
      </trkpt>
      <trkpt lat="47.77537" lon="-3.53632">
        <ele>3.05</ele>
        <time>2020-07-08T09:13:15Z</time>
      </trkpt>
      <trkpt lat="47.77539" lon="-3.53626">
        <ele>3.06</ele>
        <time>2020-07-08T09:13:16Z</time>
      </trkpt>
      <trkpt lat="47.7754" lon="-3.53619">
        <ele>3.05</ele>
        <time>2020-07-08T09:13:17Z</time>
      </trkpt>
      <trkpt lat="47.77541" lon="-3.53612">
        <ele>2.99</ele>
        <time>2020-07-08T09:13:18Z</time>
      </trkpt>
      <trkpt lat="47.77543" lon="-3.53607">
        <ele>3.01</ele>
        <time>2020-07-08T09:13:19Z</time>
      </trkpt>
      <trkpt lat="47.77546" lon="-3.53601">
        <ele>3.05</ele>
        <time>2020-07-08T09:13:20Z</time>
      </trkpt>
      <trkpt lat="47.7755" lon="-3.53598">
        <ele>3.18</ele>
        <time>2020-07-08T09:13:21Z</time>
      </trkpt>
      <trkpt lat="47.77554" lon="-3.53594">
        <ele>3.31</ele>
        <time>2020-07-08T09:13:22Z</time>
      </trkpt>
      <trkpt lat="47.77558" lon="-3.53592">
        <ele>3.64</ele>
        <time>2020-07-08T09:13:23Z</time>
      </trkpt>
      <trkpt lat="47.77561" lon="-3.53589">
        <ele>4.13</ele>
        <time>2020-07-08T09:13:24Z</time>
      </trkpt>
      <trkpt lat="47.77564" lon="-3.53587">
        <ele>4.64</ele>
        <time>2020-07-08T09:13:25Z</time>
      </trkpt>
      <trkpt lat="47.77567" lon="-3.53582">
        <ele>4.94</ele>
        <time>2020-07-08T09:13:26Z</time>
      </trkpt>
      <trkpt lat="47.77568" lon="-3.53577">
        <ele>4.93</ele>
        <time>2020-07-08T09:13:27Z</time>
      </trkpt>
      <trkpt lat="47.77568" lon="-3.53571">
        <ele>4.58</ele>
        <time>2020-07-08T09:13:28Z</time>
      </trkpt>
      <trkpt lat="47.77569" lon="-3.53566">
        <ele>4.13</ele>
        <time>2020-07-08T09:13:29Z</time>
      </trkpt>
      <trkpt lat="47.77571" lon="-3.53561">
        <ele>3.92</ele>
        <time>2020-07-08T09:13:30Z</time>
      </trkpt>
      <trkpt lat="47.77573" lon="-3.53555">
        <ele>3.86</ele>
        <time>2020-07-08T09:13:31Z</time>
      </trkpt>
      <trkpt lat="47.77576" lon="-3.5355">
        <ele>4.14</ele>
        <time>2020-07-08T09:13:32Z</time>
      </trkpt>
      <trkpt lat="47.77577" lon="-3.53545">
        <ele>4.39</ele>
        <time>2020-07-08T09:13:33Z</time>
      </trkpt>
      <trkpt lat="47.77579" lon="-3.53537">
        <ele>4.53</ele>
        <time>2020-07-08T09:13:34Z</time>
      </trkpt>
      <trkpt lat="47.7758" lon="-3.5353">
        <ele>4.53</ele>
        <time>2020-07-08T09:13:35Z</time>
      </trkpt>
      <trkpt lat="47.77581" lon="-3.53522">
        <ele>4.46</ele>
        <time>2020-07-08T09:13:36Z</time>
      </trkpt>
      <trkpt lat="47.77581" lon="-3.53514">
        <ele>4.32</ele>
        <time>2020-07-08T09:13:37Z</time>
      </trkpt>
      <trkpt lat="47.77582" lon="-3.53507">
        <ele>4.17</ele>
        <time>2020-07-08T09:13:38Z</time>
      </trkpt>
      <trkpt lat="47.77583" lon="-3.53501">
        <ele>4.03</ele>
        <time>2020-07-08T09:13:39Z</time>
      </trkpt>
      <trkpt lat="47.77584" lon="-3.53494">
        <ele>4.2</ele>
        <time>2020-07-08T09:13:40Z</time>
      </trkpt>
      <trkpt lat="47.77586" lon="-3.53487">
        <ele>4.59</ele>
        <time>2020-07-08T09:13:41Z</time>
      </trkpt>
      <trkpt lat="47.77586" lon="-3.5348">
        <ele>4.86</ele>
        <time>2020-07-08T09:13:42Z</time>
      </trkpt>
      <trkpt lat="47.77586" lon="-3.53473">
        <ele>4.9</ele>
        <time>2020-07-08T09:13:43Z</time>
      </trkpt>
      <trkpt lat="47.77585" lon="-3.53465">
        <ele>5.03</ele>
        <time>2020-07-08T09:13:44Z</time>
      </trkpt>
      <trkpt lat="47.77584" lon="-3.53459">
        <ele>5.17</ele>
        <time>2020-07-08T09:13:45Z</time>
      </trkpt>
      <trkpt lat="47.77584" lon="-3.53453">
        <ele>5.34</ele>
        <time>2020-07-08T09:13:46Z</time>
      </trkpt>
      <trkpt lat="47.77582" lon="-3.53447">
        <ele>5.53</ele>
        <time>2020-07-08T09:13:47Z</time>
      </trkpt>
      <trkpt lat="47.77581" lon="-3.53441">
        <ele>5.64</ele>
        <time>2020-07-08T09:13:48Z</time>
      </trkpt>
      <trkpt lat="47.7758" lon="-3.53434">
        <ele>5.59</ele>
        <time>2020-07-08T09:13:49Z</time>
      </trkpt>
      <trkpt lat="47.77579" lon="-3.53428">
        <ele>5.55</ele>
        <time>2020-07-08T09:13:50Z</time>
      </trkpt>
      <trkpt lat="47.77578" lon="-3.53421">
        <ele>5.55</ele>
        <time>2020-07-08T09:13:51Z</time>
      </trkpt>
      <trkpt lat="47.77576" lon="-3.53414">
        <ele>5.26</ele>
        <time>2020-07-08T09:13:52Z</time>
      </trkpt>
      <trkpt lat="47.77576" lon="-3.53407">
        <ele>4.88</ele>
        <time>2020-07-08T09:13:53Z</time>
      </trkpt>
      <trkpt lat="47.77577" lon="-3.534">
        <ele>4.59</ele>
        <time>2020-07-08T09:13:54Z</time>
      </trkpt>
      <trkpt lat="47.77577" lon="-3.53393">
        <ele>4.26</ele>
        <time>2020-07-08T09:13:55Z</time>
      </trkpt>
      <trkpt lat="47.77578" lon="-3.53385">
        <ele>3.83</ele>
        <time>2020-07-08T09:13:56Z</time>
      </trkpt>
      <trkpt lat="47.77579" lon="-3.53377">
        <ele>3.3</ele>
        <time>2020-07-08T09:13:57Z</time>
      </trkpt>
      <trkpt lat="47.7758" lon="-3.53368">
        <ele>2.66</ele>
        <time>2020-07-08T09:13:58Z</time>
      </trkpt>
      <trkpt lat="47.77581" lon="-3.5336">
        <ele>2.03</ele>
        <time>2020-07-08T09:13:59Z</time>
      </trkpt>
      <trkpt lat="47.77584" lon="-3.53353">
        <ele>1.59</ele>
        <time>2020-07-08T09:14:00Z</time>
      </trkpt>
      <trkpt lat="47.77587" lon="-3.53347">
        <ele>1.3</ele>
        <time>2020-07-08T09:14:01Z</time>
      </trkpt>
      <trkpt lat="47.77591" lon="-3.53343">
        <ele>1.1</ele>
        <time>2020-07-08T09:14:02Z</time>
      </trkpt>
      <trkpt lat="47.77595" lon="-3.53341">
        <ele>0.97</ele>
        <time>2020-07-08T09:14:03Z</time>
      </trkpt>
      <trkpt lat="47.776" lon="-3.5334">
        <ele>0.94</ele>
        <time>2020-07-08T09:14:04Z</time>
      </trkpt>
      <trkpt lat="47.77604" lon="-3.53341">
        <ele>1.08</ele>
        <time>2020-07-08T09:14:05Z</time>
      </trkpt>
      <trkpt lat="47.77608" lon="-3.53343">
        <ele>1.49</ele>
        <time>2020-07-08T09:14:06Z</time>
      </trkpt>
      <trkpt lat="47.77611" lon="-3.53346">
        <ele>2.02</ele>
        <time>2020-07-08T09:14:07Z</time>
      </trkpt>
      <trkpt lat="47.77614" lon="-3.53349">
        <ele>2.39</ele>
        <time>2020-07-08T09:14:08Z</time>
      </trkpt>
      <trkpt lat="47.77617" lon="-3.53352">
        <ele>2.68</ele>
        <time>2020-07-08T09:14:09Z</time>
      </trkpt>
      <trkpt lat="47.7762" lon="-3.53355">
        <ele>2.88</ele>
        <time>2020-07-08T09:14:10Z</time>
      </trkpt>
      <trkpt lat="47.77624" lon="-3.53356">
        <ele>2.92</ele>
        <time>2020-07-08T09:14:11Z</time>
      </trkpt>
      <trkpt lat="47.77627" lon="-3.53358">
        <ele>2.86</ele>
        <time>2020-07-08T09:14:12Z</time>
      </trkpt>
      <trkpt lat="47.77631" lon="-3.53359">
        <ele>2.69</ele>
        <time>2020-07-08T09:14:13Z</time>
      </trkpt>
      <trkpt lat="47.77634" lon="-3.53361">
        <ele>2.49</ele>
        <time>2020-07-08T09:14:14Z</time>
      </trkpt>
      <trkpt lat="47.77638" lon="-3.53362">
        <ele>2.31</ele>
        <time>2020-07-08T09:14:15Z</time>
      </trkpt>
      <trkpt lat="47.77642" lon="-3.53362">
        <ele>2.3</ele>
        <time>2020-07-08T09:14:16Z</time>
      </trkpt>
      <trkpt lat="47.77646" lon="-3.53363">
        <ele>2.32</ele>
        <time>2020-07-08T09:14:17Z</time>
      </trkpt>
      <trkpt lat="47.7765" lon="-3.53364">
        <ele>2.49</ele>
        <time>2020-07-08T09:14:18Z</time>
      </trkpt>
      <trkpt lat="47.77654" lon="-3.53365">
        <ele>2.8</ele>
        <time>2020-07-08T09:14:19Z</time>
      </trkpt>
      <trkpt lat="47.77658" lon="-3.53366">
        <ele>3.12</ele>
        <time>2020-07-08T09:14:20Z</time>
      </trkpt>
      <trkpt lat="47.77662" lon="-3.53368">
        <ele>3.52</ele>
        <time>2020-07-08T09:14:21Z</time>
      </trkpt>
      <trkpt lat="47.77666" lon="-3.53369">
        <ele>3.91</ele>
        <time>2020-07-08T09:14:22Z</time>
      </trkpt>
      <trkpt lat="47.77669" lon="-3.5337">
        <ele>4.29</ele>
        <time>2020-07-08T09:14:23Z</time>
      </trkpt>
      <trkpt lat="47.77673" lon="-3.53372">
        <ele>4.84</ele>
        <time>2020-07-08T09:14:24Z</time>
      </trkpt>
      <trkpt lat="47.77676" lon="-3.53373">
        <ele>5.34</ele>
        <time>2020-07-08T09:14:25Z</time>
      </trkpt>
      <trkpt lat="47.77679" lon="-3.53374">
        <ele>5.62</ele>
        <time>2020-07-08T09:14:26Z</time>
      </trkpt>
      <trkpt lat="47.77683" lon="-3.53374">
        <ele>5.63</ele>
        <time>2020-07-08T09:14:27Z</time>
      </trkpt>
      <trkpt lat="47.77685" lon="-3.53373">
        <ele>5.32</ele>
        <time>2020-07-08T09:14:28Z</time>
      </trkpt>
      <trkpt lat="47.77688" lon="-3.53372">
        <ele>4.89</ele>
        <time>2020-07-08T09:14:29Z</time>
      </trkpt>
      <trkpt lat="47.77691" lon="-3.53371">
        <ele>4.35</ele>
        <time>2020-07-08T09:14:30Z</time>
      </trkpt>
      <trkpt lat="47.77694" lon="-3.53369">
        <ele>3.8</ele>
        <time>2020-07-08T09:14:31Z</time>
      </trkpt>
      <trkpt lat="47.77698" lon="-3.53367">
        <ele>3.31</ele>
        <time>2020-07-08T09:14:32Z</time>
      </trkpt>
      <trkpt lat="47.77703" lon="-3.53363">
        <ele>2.63</ele>
        <time>2020-07-08T09:14:33Z</time>
      </trkpt>
      <trkpt lat="47.77708" lon="-3.5336">
        <ele>2.1</ele>
        <time>2020-07-08T09:14:34Z</time>
      </trkpt>
      <trkpt lat="47.77712" lon="-3.53358">
        <ele>1.96</ele>
        <time>2020-07-08T09:14:35Z</time>
      </trkpt>
      <trkpt lat="47.77717" lon="-3.53356">
        <ele>1.95</ele>
        <time>2020-07-08T09:14:36Z</time>
      </trkpt>
      <trkpt lat="47.77722" lon="-3.53355">
        <ele>2.03</ele>
        <time>2020-07-08T09:14:37Z</time>
      </trkpt>
      <trkpt lat="47.77726" lon="-3.53354">
        <ele>2.26</ele>
        <time>2020-07-08T09:14:38Z</time>
      </trkpt>
      <trkpt lat="47.7773" lon="-3.53354">
        <ele>2.59</ele>
        <time>2020-07-08T09:14:39Z</time>
      </trkpt>
      <trkpt lat="47.77733" lon="-3.53353">
        <ele>2.89</ele>
        <time>2020-07-08T09:14:40Z</time>
      </trkpt>
      <trkpt lat="47.77736" lon="-3.53352">
        <ele>3.07</ele>
        <time>2020-07-08T09:14:41Z</time>
      </trkpt>
      <trkpt lat="47.7774" lon="-3.5335">
        <ele>3.14</ele>
        <time>2020-07-08T09:14:42Z</time>
      </trkpt>
      <trkpt lat="47.77744" lon="-3.53348">
        <ele>3.21</ele>
        <time>2020-07-08T09:14:43Z</time>
      </trkpt>
      <trkpt lat="47.77748" lon="-3.53347">
        <ele>3.23</ele>
        <time>2020-07-08T09:14:44Z</time>
      </trkpt>
      <trkpt lat="47.77752" lon="-3.53346">
        <ele>3.23</ele>
        <time>2020-07-08T09:14:45Z</time>
      </trkpt>
      <trkpt lat="47.77757" lon="-3.53346">
        <ele>3.39</ele>
        <time>2020-07-08T09:14:46Z</time>
      </trkpt>
      <trkpt lat="47.77762" lon="-3.53346">
        <ele>3.61</ele>
        <time>2020-07-08T09:14:47Z</time>
      </trkpt>
      <trkpt lat="47.77766" lon="-3.53347">
        <ele>3.9</ele>
        <time>2020-07-08T09:14:48Z</time>
      </trkpt>
      <trkpt lat="47.7777" lon="-3.53347">
        <ele>4.1</ele>
        <time>2020-07-08T09:14:49Z</time>
      </trkpt>
      <trkpt lat="47.77773" lon="-3.53348">
        <ele>4.42</ele>
        <time>2020-07-08T09:14:50Z</time>
      </trkpt>
      <trkpt lat="47.77776" lon="-3.53349">
        <ele>4.85</ele>
        <time>2020-07-08T09:14:51Z</time>
      </trkpt>
      <trkpt lat="47.77781" lon="-3.5335">
        <ele>5.04</ele>
        <time>2020-07-08T09:14:52Z</time>
      </trkpt>
      <trkpt lat="47.77785" lon="-3.53351">
        <ele>5.39</ele>
        <time>2020-07-08T09:14:53Z</time>
      </trkpt>
      <trkpt lat="47.77789" lon="-3.53352">
        <ele>5.7</ele>
        <time>2020-07-08T09:14:54Z</time>
      </trkpt>
      <trkpt lat="47.77793" lon="-3.53353">
        <ele>5.82</ele>
        <time>2020-07-08T09:14:55Z</time>
      </trkpt>
      <trkpt lat="47.77797" lon="-3.53353">
        <ele>5.89</ele>
        <time>2020-07-08T09:14:56Z</time>
      </trkpt>
      <trkpt lat="47.778" lon="-3.53352">
        <ele>5.85</ele>
        <time>2020-07-08T09:14:57Z</time>
      </trkpt>
      <trkpt lat="47.77804" lon="-3.53352">
        <ele>5.72</ele>
        <time>2020-07-08T09:14:58Z</time>
      </trkpt>
      <trkpt lat="47.77808" lon="-3.53351">
        <ele>5.48</ele>
        <time>2020-07-08T09:14:59Z</time>
      </trkpt>
      <trkpt lat="47.77812" lon="-3.5335">
        <ele>5.34</ele>
        <time>2020-07-08T09:15:00Z</time>
      </trkpt>
      <trkpt lat="47.77816" lon="-3.53349">
        <ele>5.31</ele>
        <time>2020-07-08T09:15:01Z</time>
      </trkpt>
      <trkpt lat="47.77821" lon="-3.53349">
        <ele>5.37</ele>
        <time>2020-07-08T09:15:02Z</time>
      </trkpt>
      <trkpt lat="47.77825" lon="-3.53349">
        <ele>5.45</ele>
        <time>2020-07-08T09:15:03Z</time>
      </trkpt>
      <trkpt lat="47.7783" lon="-3.53349">
        <ele>5.44</ele>
        <time>2020-07-08T09:15:04Z</time>
      </trkpt>
      <trkpt lat="47.77835" lon="-3.53348">
        <ele>5.32</ele>
        <time>2020-07-08T09:15:05Z</time>
      </trkpt>
      <trkpt lat="47.77839" lon="-3.53347">
        <ele>5.35</ele>
        <time>2020-07-08T09:15:06Z</time>
      </trkpt>
      <trkpt lat="47.77842" lon="-3.53347">
        <ele>5.49</ele>
        <time>2020-07-08T09:15:07Z</time>
      </trkpt>
      <trkpt lat="47.77846" lon="-3.53346">
        <ele>5.54</ele>
        <time>2020-07-08T09:15:08Z</time>
      </trkpt>
      <trkpt lat="47.7785" lon="-3.53345">
        <ele>5.63</ele>
        <time>2020-07-08T09:15:09Z</time>
      </trkpt>
      <trkpt lat="47.77852" lon="-3.53345">
        <ele>5.73</ele>
        <time>2020-07-08T09:15:10Z</time>
      </trkpt>
      <trkpt lat="47.77856" lon="-3.53344">
        <ele>5.7</ele>
        <time>2020-07-08T09:15:11Z</time>
      </trkpt>
      <trkpt lat="47.77859" lon="-3.53343">
        <ele>5.6</ele>
        <time>2020-07-08T09:15:12Z</time>
      </trkpt>
      <trkpt lat="47.77863" lon="-3.53341">
        <ele>5.52</ele>
        <time>2020-07-08T09:15:13Z</time>
      </trkpt>
      <trkpt lat="47.77867" lon="-3.53339">
        <ele>5.37</ele>
        <time>2020-07-08T09:15:14Z</time>
      </trkpt>
      <trkpt lat="47.77872" lon="-3.53335">
        <ele>4.98</ele>
        <time>2020-07-08T09:15:15Z</time>
      </trkpt>
      <trkpt lat="47.77878" lon="-3.53332">
        <ele>4.61</ele>
        <time>2020-07-08T09:15:16Z</time>
      </trkpt>
      <trkpt lat="47.77884" lon="-3.53328">
        <ele>4.32</ele>
        <time>2020-07-08T09:15:17Z</time>
      </trkpt>
      <trkpt lat="47.7789" lon="-3.53325">
        <ele>4.14</ele>
        <time>2020-07-08T09:15:18Z</time>
      </trkpt>
      <trkpt lat="47.77895" lon="-3.53322">
        <ele>3.65</ele>
        <time>2020-07-08T09:15:19Z</time>
      </trkpt>
      <trkpt lat="47.779" lon="-3.53319">
        <ele>3.2</ele>
        <time>2020-07-08T09:15:20Z</time>
      </trkpt>
      <trkpt lat="47.77905" lon="-3.53317">
        <ele>2.9</ele>
        <time>2020-07-08T09:15:21Z</time>
      </trkpt>
      <trkpt lat="47.7791" lon="-3.53315">
        <ele>2.75</ele>
        <time>2020-07-08T09:15:22Z</time>
      </trkpt>
      <trkpt lat="47.77914" lon="-3.53314">
        <ele>2.64</ele>
        <time>2020-07-08T09:15:23Z</time>
      </trkpt>
      <trkpt lat="47.77918" lon="-3.53314">
        <ele>2.66</ele>
        <time>2020-07-08T09:15:24Z</time>
      </trkpt>
      <trkpt lat="47.7792" lon="-3.53315">
        <ele>2.78</ele>
        <time>2020-07-08T09:15:25Z</time>
      </trkpt>
      <trkpt lat="47.77922" lon="-3.53317">
        <ele>2.93</ele>
        <time>2020-07-08T09:15:26Z</time>
      </trkpt>
      <trkpt lat="47.77923" lon="-3.53319">
        <ele>3.16</ele>
        <time>2020-07-08T09:15:27Z</time>
      </trkpt>
      <trkpt lat="47.77925" lon="-3.53322">
        <ele>3.4</ele>
        <time>2020-07-08T09:15:28Z</time>
      </trkpt>
      <trkpt lat="47.77928" lon="-3.53326">
        <ele>3.68</ele>
        <time>2020-07-08T09:15:29Z</time>
      </trkpt>
      <trkpt lat="47.7793" lon="-3.53329">
        <ele>3.91</ele>
        <time>2020-07-08T09:15:30Z</time>
      </trkpt>
      <trkpt lat="47.77933" lon="-3.53333">
        <ele>4.08</ele>
        <time>2020-07-08T09:15:31Z</time>
      </trkpt>
      <trkpt lat="47.77935" lon="-3.53337">
        <ele>4.34</ele>
        <time>2020-07-08T09:15:32Z</time>
      </trkpt>
      <trkpt lat="47.77938" lon="-3.5334">
        <ele>4.43</ele>
        <time>2020-07-08T09:15:33Z</time>
      </trkpt>
      <trkpt lat="47.77941" lon="-3.53343">
        <ele>4.49</ele>
        <time>2020-07-08T09:15:34Z</time>
      </trkpt>
      <trkpt lat="47.77943" lon="-3.53344">
        <ele>4.27</ele>
        <time>2020-07-08T09:15:35Z</time>
      </trkpt>
      <trkpt lat="47.77946" lon="-3.53345">
        <ele>4.15</ele>
        <time>2020-07-08T09:15:36Z</time>
      </trkpt>
      <trkpt lat="47.77948" lon="-3.53344">
        <ele>3.97</ele>
        <time>2020-07-08T09:15:37Z</time>
      </trkpt>
      <trkpt lat="47.7795" lon="-3.53342">
        <ele>3.62</ele>
        <time>2020-07-08T09:15:38Z</time>
      </trkpt>
      <trkpt lat="47.77954" lon="-3.5334">
        <ele>3.3</ele>
        <time>2020-07-08T09:15:39Z</time>
      </trkpt>
      <trkpt lat="47.77957" lon="-3.53338">
        <ele>2.98</ele>
        <time>2020-07-08T09:15:40Z</time>
      </trkpt>
      <trkpt lat="47.77961" lon="-3.53338">
        <ele>2.84</ele>
        <time>2020-07-08T09:15:41Z</time>
      </trkpt>
      <trkpt lat="47.77963" lon="-3.53337">
        <ele>2.69</ele>
        <time>2020-07-08T09:15:42Z</time>
      </trkpt>
      <trkpt lat="47.77966" lon="-3.53337">
        <ele>2.65</ele>
        <time>2020-07-08T09:15:43Z</time>
      </trkpt>
      <trkpt lat="47.7797" lon="-3.53338">
        <ele>2.74</ele>
        <time>2020-07-08T09:15:44Z</time>
      </trkpt>
      <trkpt lat="47.77973" lon="-3.53338">
        <ele>2.92</ele>
        <time>2020-07-08T09:15:45Z</time>
      </trkpt>
      <trkpt lat="47.77975" lon="-3.53338">
        <ele>3.25</ele>
        <time>2020-07-08T09:15:46Z</time>
      </trkpt>
      <trkpt lat="47.77978" lon="-3.53339">
        <ele>3.69</ele>
        <time>2020-07-08T09:15:47Z</time>
      </trkpt>
      <trkpt lat="47.77981" lon="-3.53338">
        <ele>4.03</ele>
        <time>2020-07-08T09:15:48Z</time>
      </trkpt>
      <trkpt lat="47.77985" lon="-3.53336">
        <ele>4.23</ele>
        <time>2020-07-08T09:15:49Z</time>
      </trkpt>
      <trkpt lat="47.77989" lon="-3.53332">
        <ele>4.25</ele>
        <time>2020-07-08T09:15:50Z</time>
      </trkpt>
      <trkpt lat="47.77993" lon="-3.53327">
        <ele>3.96</ele>
        <time>2020-07-08T09:15:51Z</time>
      </trkpt>
      <trkpt lat="47.77995" lon="-3.53323">
        <ele>3.51</ele>
        <time>2020-07-08T09:15:52Z</time>
      </trkpt>
      <trkpt lat="47.77998" lon="-3.53319">
        <ele>2.9</ele>
        <time>2020-07-08T09:15:53Z</time>
      </trkpt>
      <trkpt lat="47.78001" lon="-3.53314">
        <ele>2.21</ele>
        <time>2020-07-08T09:15:54Z</time>
      </trkpt>
      <trkpt lat="47.78005" lon="-3.5331">
        <ele>1.87</ele>
        <time>2020-07-08T09:15:55Z</time>
      </trkpt>
      <trkpt lat="47.78009" lon="-3.53307">
        <ele>1.68</ele>
        <time>2020-07-08T09:15:56Z</time>
      </trkpt>
      <trkpt lat="47.78013" lon="-3.53304">
        <ele>1.73</ele>
        <time>2020-07-08T09:15:57Z</time>
      </trkpt>
      <trkpt lat="47.78018" lon="-3.53302">
        <ele>2.03</ele>
        <time>2020-07-08T09:15:58Z</time>
      </trkpt>
      <trkpt lat="47.78023" lon="-3.533">
        <ele>2.46</ele>
        <time>2020-07-08T09:15:59Z</time>
      </trkpt>
      <trkpt lat="47.78027" lon="-3.533">
        <ele>2.93</ele>
        <time>2020-07-08T09:16:00Z</time>
      </trkpt>
      <trkpt lat="47.78031" lon="-3.53298">
        <ele>3.08</ele>
        <time>2020-07-08T09:16:01Z</time>
      </trkpt>
      <trkpt lat="47.78035" lon="-3.53296">
        <ele>3.03</ele>
        <time>2020-07-08T09:16:02Z</time>
      </trkpt>
      <trkpt lat="47.78039" lon="-3.53293">
        <ele>2.79</ele>
        <time>2020-07-08T09:16:03Z</time>
      </trkpt>
      <trkpt lat="47.78043" lon="-3.5329">
        <ele>2.44</ele>
        <time>2020-07-08T09:16:04Z</time>
      </trkpt>
      <trkpt lat="47.78048" lon="-3.53288">
        <ele>2.11</ele>
        <time>2020-07-08T09:16:05Z</time>
      </trkpt>
      <trkpt lat="47.78053" lon="-3.53287">
        <ele>1.98</ele>
        <time>2020-07-08T09:16:06Z</time>
      </trkpt>
      <trkpt lat="47.78057" lon="-3.53288">
        <ele>2.13</ele>
        <time>2020-07-08T09:16:07Z</time>
      </trkpt>
      <trkpt lat="47.78061" lon="-3.53288">
        <ele>2.26</ele>
        <time>2020-07-08T09:16:08Z</time>
      </trkpt>
      <trkpt lat="47.78065" lon="-3.53289">
        <ele>2.42</ele>
        <time>2020-07-08T09:16:09Z</time>
      </trkpt>
      <trkpt lat="47.78069" lon="-3.53289">
        <ele>2.59</ele>
        <time>2020-07-08T09:16:10Z</time>
      </trkpt>
      <trkpt lat="47.78073" lon="-3.5329">
        <ele>2.9</ele>
        <time>2020-07-08T09:16:11Z</time>
      </trkpt>
      <trkpt lat="47.78076" lon="-3.53292">
        <ele>3.23</ele>
        <time>2020-07-08T09:16:12Z</time>
      </trkpt>
      <trkpt lat="47.78079" lon="-3.53292">
        <ele>3.42</ele>
        <time>2020-07-08T09:16:13Z</time>
      </trkpt>
      <trkpt lat="47.78082" lon="-3.53292">
        <ele>3.43</ele>
        <time>2020-07-08T09:16:14Z</time>
      </trkpt>
      <trkpt lat="47.78084" lon="-3.53291">
        <ele>3.4</ele>
        <time>2020-07-08T09:16:15Z</time>
      </trkpt>
      <trkpt lat="47.78087" lon="-3.5329">
        <ele>3.35</ele>
        <time>2020-07-08T09:16:16Z</time>
      </trkpt>
      <trkpt lat="47.7809" lon="-3.53289">
        <ele>3.22</ele>
        <time>2020-07-08T09:16:17Z</time>
      </trkpt>
      <trkpt lat="47.78095" lon="-3.53284">
        <ele>2.64</ele>
        <time>2020-07-08T09:16:19Z</time>
      </trkpt>
      <trkpt lat="47.78098" lon="-3.53283">
        <ele>2.57</ele>
        <time>2020-07-08T09:16:20Z</time>
      </trkpt>
      <trkpt lat="47.78102" lon="-3.53283">
        <ele>2.62</ele>
        <time>2020-07-08T09:16:21Z</time>
      </trkpt>
      <trkpt lat="47.78105" lon="-3.53282">
        <ele>2.6</ele>
        <time>2020-07-08T09:16:22Z</time>
      </trkpt>
      <trkpt lat="47.78108" lon="-3.5328">
        <ele>2.44</ele>
        <time>2020-07-08T09:16:23Z</time>
      </trkpt>
      <trkpt lat="47.78112" lon="-3.53278">
        <ele>2.28</ele>
        <time>2020-07-08T09:16:24Z</time>
      </trkpt>
      <trkpt lat="47.78116" lon="-3.53275">
        <ele>2.34</ele>
        <time>2020-07-08T09:16:25Z</time>
      </trkpt>
      <trkpt lat="47.7812" lon="-3.53273">
        <ele>2.45</ele>
        <time>2020-07-08T09:16:26Z</time>
      </trkpt>
      <trkpt lat="47.78123" lon="-3.5327">
        <ele>2.51</ele>
        <time>2020-07-08T09:16:27Z</time>
      </trkpt>
      <trkpt lat="47.78126" lon="-3.53267">
        <ele>2.45</ele>
        <time>2020-07-08T09:16:28Z</time>
      </trkpt>
      <trkpt lat="47.7813" lon="-3.53264">
        <ele>2.21</ele>
        <time>2020-07-08T09:16:29Z</time>
      </trkpt>
      <trkpt lat="47.78132" lon="-3.5326">
        <ele>1.84</ele>
        <time>2020-07-08T09:16:30Z</time>
      </trkpt>
      <trkpt lat="47.78135" lon="-3.53257">
        <ele>1.38</ele>
        <time>2020-07-08T09:16:31Z</time>
      </trkpt>
      <trkpt lat="47.78138" lon="-3.53255">
        <ele>1.09</ele>
        <time>2020-07-08T09:16:32Z</time>
      </trkpt>
      <trkpt lat="47.78142" lon="-3.53253">
        <ele>0.9</ele>
        <time>2020-07-08T09:16:33Z</time>
      </trkpt>
      <trkpt lat="47.78146" lon="-3.53253">
        <ele>1.03</ele>
        <time>2020-07-08T09:16:34Z</time>
      </trkpt>
      <trkpt lat="47.7815" lon="-3.53253">
        <ele>1.36</ele>
        <time>2020-07-08T09:16:35Z</time>
      </trkpt>
      <trkpt lat="47.78153" lon="-3.53255">
        <ele>1.93</ele>
        <time>2020-07-08T09:16:36Z</time>
      </trkpt>
      <trkpt lat="47.78156" lon="-3.53257">
        <ele>2.59</ele>
        <time>2020-07-08T09:16:37Z</time>
      </trkpt>
      <trkpt lat="47.78159" lon="-3.53257">
        <ele>2.98</ele>
        <time>2020-07-08T09:16:38Z</time>
      </trkpt>
      <trkpt lat="47.78163" lon="-3.53256">
        <ele>3.16</ele>
        <time>2020-07-08T09:16:39Z</time>
      </trkpt>
      <trkpt lat="47.78167" lon="-3.53255">
        <ele>3.23</ele>
        <time>2020-07-08T09:16:40Z</time>
      </trkpt>
      <trkpt lat="47.78171" lon="-3.53254">
        <ele>3.02</ele>
        <time>2020-07-08T09:16:41Z</time>
      </trkpt>
      <trkpt lat="47.78175" lon="-3.53253">
        <ele>2.89</ele>
        <time>2020-07-08T09:16:42Z</time>
      </trkpt>
      <trkpt lat="47.78179" lon="-3.53254">
        <ele>2.91</ele>
        <time>2020-07-08T09:16:43Z</time>
      </trkpt>
      <trkpt lat="47.78184" lon="-3.53255">
        <ele>3.1</ele>
        <time>2020-07-08T09:16:44Z</time>
      </trkpt>
      <trkpt lat="47.78187" lon="-3.53256">
        <ele>3.48</ele>
        <time>2020-07-08T09:16:45Z</time>
      </trkpt>
      <trkpt lat="47.78192" lon="-3.53257">
        <ele>3.71</ele>
        <time>2020-07-08T09:16:46Z</time>
      </trkpt>
      <trkpt lat="47.78196" lon="-3.53259">
        <ele>4.03</ele>
        <time>2020-07-08T09:16:47Z</time>
      </trkpt>
      <trkpt lat="47.78199" lon="-3.53258">
        <ele>4.12</ele>
        <time>2020-07-08T09:16:48Z</time>
      </trkpt>
      <trkpt lat="47.78202" lon="-3.53258">
        <ele>4.19</ele>
        <time>2020-07-08T09:16:49Z</time>
      </trkpt>
      <trkpt lat="47.78206" lon="-3.53257">
        <ele>4.13</ele>
        <time>2020-07-08T09:16:50Z</time>
      </trkpt>
      <trkpt lat="47.78209" lon="-3.53256">
        <ele>3.86</ele>
        <time>2020-07-08T09:16:51Z</time>
      </trkpt>
      <trkpt lat="47.78214" lon="-3.53254">
        <ele>3.44</ele>
        <time>2020-07-08T09:16:52Z</time>
      </trkpt>
      <trkpt lat="47.78218" lon="-3.53252">
        <ele>2.76</ele>
        <time>2020-07-08T09:16:53Z</time>
      </trkpt>
      <trkpt lat="47.78222" lon="-3.53248">
        <ele>2.09</ele>
        <time>2020-07-08T09:16:54Z</time>
      </trkpt>
      <trkpt lat="47.78226" lon="-3.53245">
        <ele>2.07</ele>
        <time>2020-07-08T09:16:55Z</time>
      </trkpt>
      <trkpt lat="47.7823" lon="-3.53241">
        <ele>2.08</ele>
        <time>2020-07-08T09:16:56Z</time>
      </trkpt>
      <trkpt lat="47.78235" lon="-3.53237">
        <ele>2.13</ele>
        <time>2020-07-08T09:16:57Z</time>
      </trkpt>
      <trkpt lat="47.7824" lon="-3.53235">
        <ele>2.2</ele>
        <time>2020-07-08T09:16:58Z</time>
      </trkpt>
      <trkpt lat="47.78244" lon="-3.53234">
        <ele>2.34</ele>
        <time>2020-07-08T09:16:59Z</time>
      </trkpt>
      <trkpt lat="47.78248" lon="-3.53233">
        <ele>2.52</ele>
        <time>2020-07-08T09:17:00Z</time>
      </trkpt>
      <trkpt lat="47.78251" lon="-3.53232">
        <ele>2.58</ele>
        <time>2020-07-08T09:17:01Z</time>
      </trkpt>
      <trkpt lat="47.78255" lon="-3.5323">
        <ele>2.33</ele>
        <time>2020-07-08T09:17:02Z</time>
      </trkpt>
      <trkpt lat="47.78259" lon="-3.53229">
        <ele>2.18</ele>
        <time>2020-07-08T09:17:03Z</time>
      </trkpt>
      <trkpt lat="47.78264" lon="-3.53228">
        <ele>1.99</ele>
        <time>2020-07-08T09:17:04Z</time>
      </trkpt>
      <trkpt lat="47.78268" lon="-3.53227">
        <ele>1.84</ele>
        <time>2020-07-08T09:17:05Z</time>
      </trkpt>
      <trkpt lat="47.78272" lon="-3.53226">
        <ele>1.71</ele>
        <time>2020-07-08T09:17:06Z</time>
      </trkpt>
      <trkpt lat="47.78276" lon="-3.53226">
        <ele>1.78</ele>
        <time>2020-07-08T09:17:07Z</time>
      </trkpt>
      <trkpt lat="47.78281" lon="-3.53225">
        <ele>1.8</ele>
        <time>2020-07-08T09:17:08Z</time>
      </trkpt>
      <trkpt lat="47.78286" lon="-3.53225">
        <ele>1.88</ele>
        <time>2020-07-08T09:17:09Z</time>
      </trkpt>
      <trkpt lat="47.78291" lon="-3.53226">
        <ele>2.21</ele>
        <time>2020-07-08T09:17:10Z</time>
      </trkpt>
      <trkpt lat="47.78295" lon="-3.53226">
        <ele>2.43</ele>
        <time>2020-07-08T09:17:11Z</time>
      </trkpt>
      <trkpt lat="47.783" lon="-3.53227">
        <ele>2.7</ele>
        <time>2020-07-08T09:17:12Z</time>
      </trkpt>
      <trkpt lat="47.78304" lon="-3.53229">
        <ele>3.19</ele>
        <time>2020-07-08T09:17:13Z</time>
      </trkpt>
      <trkpt lat="47.78309" lon="-3.5323">
        <ele>3.5</ele>
        <time>2020-07-08T09:17:14Z</time>
      </trkpt>
      <trkpt lat="47.78313" lon="-3.53233">
        <ele>3.75</ele>
        <time>2020-07-08T09:17:15Z</time>
      </trkpt>
      <trkpt lat="47.78316" lon="-3.53234">
        <ele>3.9</ele>
        <time>2020-07-08T09:17:16Z</time>
      </trkpt>
      <trkpt lat="47.78319" lon="-3.53234">
        <ele>3.94</ele>
        <time>2020-07-08T09:17:17Z</time>
      </trkpt>
      <trkpt lat="47.7832" lon="-3.53234">
        <ele>3.9</ele>
        <time>2020-07-08T09:17:18Z</time>
      </trkpt>
      <trkpt lat="47.78322" lon="-3.53234">
        <ele>3.84</ele>
        <time>2020-07-08T09:17:19Z</time>
      </trkpt>
      <trkpt lat="47.78322" lon="-3.53235">
        <ele>3.87</ele>
        <time>2020-07-08T09:17:20Z</time>
      </trkpt>
      <trkpt lat="47.78323" lon="-3.53237">
        <ele>4.05</ele>
        <time>2020-07-08T09:17:21Z</time>
      </trkpt>
      <trkpt lat="47.78323" lon="-3.53237">
        <ele>4.11</ele>
        <time>2020-07-08T09:17:22Z</time>
      </trkpt>
      <trkpt lat="47.78323" lon="-3.53237">
        <ele>4.13</ele>
        <time>2020-07-08T09:17:23Z</time>
      </trkpt>
      <trkpt lat="47.78326" lon="-3.5324">
        <ele>4.5</ele>
        <time>2020-07-08T09:17:24Z</time>
      </trkpt>
      <trkpt lat="47.78329" lon="-3.53242">
        <ele>4.74</ele>
        <time>2020-07-08T09:17:25Z</time>
      </trkpt>
      <trkpt lat="47.78332" lon="-3.53243">
        <ele>4.81</ele>
        <time>2020-07-08T09:17:26Z</time>
      </trkpt>
      <trkpt lat="47.78333" lon="-3.53242">
        <ele>4.69</ele>
        <time>2020-07-08T09:17:27Z</time>
      </trkpt>
      <trkpt lat="47.78335" lon="-3.53243">
        <ele>4.82</ele>
        <time>2020-07-08T09:17:28Z</time>
      </trkpt>
      <trkpt lat="47.78336" lon="-3.53242">
        <ele>4.93</ele>
        <time>2020-07-08T09:17:29Z</time>
      </trkpt>
      <trkpt lat="47.78338" lon="-3.53242">
        <ele>5.09</ele>
        <time>2020-07-08T09:17:30Z</time>
      </trkpt>
      <trkpt lat="47.7834" lon="-3.53241">
        <ele>5.21</ele>
        <time>2020-07-08T09:17:31Z</time>
      </trkpt>
      <trkpt lat="47.78341" lon="-3.5324">
        <ele>5.26</ele>
        <time>2020-07-08T09:17:32Z</time>
      </trkpt>
      <trkpt lat="47.78341" lon="-3.53239">
        <ele>5.2</ele>
        <time>2020-07-08T09:17:33Z</time>
      </trkpt>
      <trkpt lat="47.78341" lon="-3.53239">
        <ele>5.15</ele>
        <time>2020-07-08T09:17:34Z</time>
      </trkpt>
      <trkpt lat="47.78341" lon="-3.53239">
        <ele>5.13</ele>
        <time>2020-07-08T09:17:35Z</time>
      </trkpt>
      <trkpt lat="47.78341" lon="-3.53239">
        <ele>5.13</ele>
        <time>2020-07-08T09:17:36Z</time>
      </trkpt>
      <trkpt lat="47.78341" lon="-3.53239">
        <ele>5.13</ele>
        <time>2020-07-08T09:17:37Z</time>
      </trkpt>
      <trkpt lat="47.78341" lon="-3.53239">
        <ele>5.13</ele>
        <time>2020-07-08T09:17:38Z</time>
      </trkpt>
      <trkpt lat="47.78341" lon="-3.53239">
        <ele>5.13</ele>
        <time>2020-07-08T09:17:39Z</time>
      </trkpt>
      <trkpt lat="47.78341" lon="-3.53239">
        <ele>5.13</ele>
        <time>2020-07-08T09:17:40Z</time>
      </trkpt>
      <trkpt lat="47.78341" lon="-3.53239">
        <ele>5.13</ele>
        <time>2020-07-08T09:17:41Z</time>
      </trkpt>
      <trkpt lat="47.78341" lon="-3.53239">
        <ele>5.13</ele>
        <time>2020-07-08T09:17:42Z</time>
      </trkpt>
      <trkpt lat="47.78341" lon="-3.53239">
        <ele>5.13</ele>
        <time>2020-07-08T09:17:43Z</time>
      </trkpt>
      <trkpt lat="47.78341" lon="-3.53239">
        <ele>5.13</ele>
        <time>2020-07-08T09:17:44Z</time>
      </trkpt>
      <trkpt lat="47.78341" lon="-3.53239">
        <ele>5.13</ele>
        <time>2020-07-08T09:17:45Z</time>
      </trkpt>
      <trkpt lat="47.78341" lon="-3.53239">
        <ele>5.13</ele>
        <time>2020-07-08T09:17:46Z</time>
      </trkpt>
      <trkpt lat="47.78348" lon="-3.53229">
        <ele>5.07</ele>
        <time>2020-07-08T09:17:47Z</time>
      </trkpt>
      <trkpt lat="47.78349" lon="-3.53228">
        <ele>5.03</ele>
        <time>2020-07-08T09:17:48Z</time>
      </trkpt>
      <trkpt lat="47.78349" lon="-3.53227">
        <ele>4.94</ele>
        <time>2020-07-08T09:17:49Z</time>
      </trkpt>
      <trkpt lat="47.78349" lon="-3.53226">
        <ele>4.86</ele>
        <time>2020-07-08T09:17:50Z</time>
      </trkpt>
      <trkpt lat="47.78349" lon="-3.53226">
        <ele>4.84</ele>
        <time>2020-07-08T09:17:51Z</time>
      </trkpt>
      <trkpt lat="47.78349" lon="-3.53226">
        <ele>4.83</ele>
        <time>2020-07-08T09:17:52Z</time>
      </trkpt>
      <trkpt lat="47.78349" lon="-3.53226">
        <ele>4.83</ele>
        <time>2020-07-08T09:17:53Z</time>
      </trkpt>
      <trkpt lat="47.78349" lon="-3.53226">
        <ele>4.83</ele>
        <time>2020-07-08T09:17:54Z</time>
      </trkpt>
      <trkpt lat="47.78349" lon="-3.53226">
        <ele>4.83</ele>
        <time>2020-07-08T09:17:55Z</time>
      </trkpt>
      <trkpt lat="47.78349" lon="-3.53226">
        <ele>4.83</ele>
        <time>2020-07-08T09:17:56Z</time>
      </trkpt>
      <trkpt lat="47.78349" lon="-3.53226">
        <ele>4.83</ele>
        <time>2020-07-08T09:17:57Z</time>
      </trkpt>
      <trkpt lat="47.78349" lon="-3.53226">
        <ele>4.83</ele>
        <time>2020-07-08T09:17:58Z</time>
      </trkpt>
      <trkpt lat="47.78349" lon="-3.53226">
        <ele>4.83</ele>
        <time>2020-07-08T09:17:59Z</time>
      </trkpt>
      <trkpt lat="47.78355" lon="-3.53214">
        <ele>4.96</ele>
        <time>2020-07-08T09:18:00Z</time>
      </trkpt>
      <trkpt lat="47.78356" lon="-3.53213">
        <ele>4.94</ele>
        <time>2020-07-08T09:18:01Z</time>
      </trkpt>
      <trkpt lat="47.78356" lon="-3.53211">
        <ele>4.87</ele>
        <time>2020-07-08T09:18:02Z</time>
      </trkpt>
      <trkpt lat="47.78356" lon="-3.5321">
        <ele>4.8</ele>
        <time>2020-07-08T09:18:03Z</time>
      </trkpt>
      <trkpt lat="47.78356" lon="-3.5321">
        <ele>4.78</ele>
        <time>2020-07-08T09:18:04Z</time>
      </trkpt>
      <trkpt lat="47.78356" lon="-3.5321">
        <ele>4.77</ele>
        <time>2020-07-08T09:18:05Z</time>
      </trkpt>
      <trkpt lat="47.78356" lon="-3.53203">
        <ele>4.29</ele>
        <time>2020-07-08T09:18:06Z</time>
      </trkpt>
      <trkpt lat="47.78357" lon="-3.53196">
        <ele>3.75</ele>
        <time>2020-07-08T09:18:07Z</time>
      </trkpt>
      <trkpt lat="47.78359" lon="-3.53193">
        <ele>3.56</ele>
        <time>2020-07-08T09:18:08Z</time>
      </trkpt>
      <trkpt lat="47.78362" lon="-3.53188">
        <ele>3.49</ele>
        <time>2020-07-08T09:18:09Z</time>
      </trkpt>
      <trkpt lat="47.78363" lon="-3.53183">
        <ele>3.36</ele>
        <time>2020-07-08T09:18:10Z</time>
      </trkpt>
      <trkpt lat="47.78365" lon="-3.53178">
        <ele>3.19</ele>
        <time>2020-07-08T09:18:11Z</time>
      </trkpt>
      <trkpt lat="47.78366" lon="-3.53174">
        <ele>2.88</ele>
        <time>2020-07-08T09:18:12Z</time>
      </trkpt>
      <trkpt lat="47.78369" lon="-3.5317">
        <ele>2.64</ele>
        <time>2020-07-08T09:18:13Z</time>
      </trkpt>
      <trkpt lat="47.78371" lon="-3.53166">
        <ele>2.49</ele>
        <time>2020-07-08T09:18:14Z</time>
      </trkpt>
      <trkpt lat="47.78374" lon="-3.53163">
        <ele>2.48</ele>
        <time>2020-07-08T09:18:15Z</time>
      </trkpt>
      <trkpt lat="47.78377" lon="-3.53161">
        <ele>2.54</ele>
        <time>2020-07-08T09:18:16Z</time>
      </trkpt>
      <trkpt lat="47.7838" lon="-3.53159">
        <ele>2.57</ele>
        <time>2020-07-08T09:18:17Z</time>
      </trkpt>
      <trkpt lat="47.78383" lon="-3.53156">
        <ele>2.5</ele>
        <time>2020-07-08T09:18:18Z</time>
      </trkpt>
      <trkpt lat="47.78386" lon="-3.53154">
        <ele>2.41</ele>
        <time>2020-07-08T09:18:19Z</time>
      </trkpt>
      <trkpt lat="47.78389" lon="-3.53151">
        <ele>2.3</ele>
        <time>2020-07-08T09:18:20Z</time>
      </trkpt>
      <trkpt lat="47.78392" lon="-3.53149">
        <ele>2.32</ele>
        <time>2020-07-08T09:18:21Z</time>
      </trkpt>
      <trkpt lat="47.78395" lon="-3.53147">
        <ele>2.27</ele>
        <time>2020-07-08T09:18:22Z</time>
      </trkpt>
      <trkpt lat="47.78397" lon="-3.53145">
        <ele>2.14</ele>
        <time>2020-07-08T09:18:23Z</time>
      </trkpt>
      <trkpt lat="47.78399" lon="-3.53143">
        <ele>2.01</ele>
        <time>2020-07-08T09:18:24Z</time>
      </trkpt>
      <trkpt lat="47.78402" lon="-3.53141">
        <ele>1.88</ele>
        <time>2020-07-08T09:18:25Z</time>
      </trkpt>
      <trkpt lat="47.78405" lon="-3.53138">
        <ele>1.78</ele>
        <time>2020-07-08T09:18:26Z</time>
      </trkpt>
      <trkpt lat="47.78409" lon="-3.53136">
        <ele>1.85</ele>
        <time>2020-07-08T09:18:27Z</time>
      </trkpt>
      <trkpt lat="47.78412" lon="-3.53135">
        <ele>2.01</ele>
        <time>2020-07-08T09:18:28Z</time>
      </trkpt>
      <trkpt lat="47.78415" lon="-3.53133">
        <ele>2.15</ele>
        <time>2020-07-08T09:18:29Z</time>
      </trkpt>
      <trkpt lat="47.78417" lon="-3.53132">
        <ele>2.38</ele>
        <time>2020-07-08T09:18:30Z</time>
      </trkpt>
      <trkpt lat="47.7842" lon="-3.53129">
        <ele>2.8</ele>
        <time>2020-07-08T09:18:31Z</time>
      </trkpt>
      <trkpt lat="47.78422" lon="-3.53127">
        <ele>3.16</ele>
        <time>2020-07-08T09:18:32Z</time>
      </trkpt>
      <trkpt lat="47.78425" lon="-3.53124">
        <ele>3.42</ele>
        <time>2020-07-08T09:18:33Z</time>
      </trkpt>
      <trkpt lat="47.78427" lon="-3.53121">
        <ele>3.5</ele>
        <time>2020-07-08T09:18:34Z</time>
      </trkpt>
      <trkpt lat="47.78429" lon="-3.53119">
        <ele>3.6</ele>
        <time>2020-07-08T09:18:35Z</time>
      </trkpt>
      <trkpt lat="47.78431" lon="-3.53115">
        <ele>3.46</ele>
        <time>2020-07-08T09:18:36Z</time>
      </trkpt>
      <trkpt lat="47.78434" lon="-3.53111">
        <ele>3.23</ele>
        <time>2020-07-08T09:18:37Z</time>
      </trkpt>
      <trkpt lat="47.78437" lon="-3.53107">
        <ele>3.29</ele>
        <time>2020-07-08T09:18:38Z</time>
      </trkpt>
      <trkpt lat="47.7844" lon="-3.53101">
        <ele>3.3</ele>
        <time>2020-07-08T09:18:39Z</time>
      </trkpt>
      <trkpt lat="47.78443" lon="-3.53095">
        <ele>3.11</ele>
        <time>2020-07-08T09:18:40Z</time>
      </trkpt>
      <trkpt lat="47.78447" lon="-3.53088">
        <ele>3.12</ele>
        <time>2020-07-08T09:18:41Z</time>
      </trkpt>
      <trkpt lat="47.7845" lon="-3.53083">
        <ele>3.35</ele>
        <time>2020-07-08T09:18:42Z</time>
      </trkpt>
      <trkpt lat="47.78453" lon="-3.53078">
        <ele>3.54</ele>
        <time>2020-07-08T09:18:43Z</time>
      </trkpt>
      <trkpt lat="47.78455" lon="-3.53073">
        <ele>3.51</ele>
        <time>2020-07-08T09:18:44Z</time>
      </trkpt>
      <trkpt lat="47.78457" lon="-3.53069">
        <ele>3.34</ele>
        <time>2020-07-08T09:18:45Z</time>
      </trkpt>
      <trkpt lat="47.78458" lon="-3.53065">
        <ele>3.17</ele>
        <time>2020-07-08T09:18:46Z</time>
      </trkpt>
      <trkpt lat="47.78459" lon="-3.53062">
        <ele>3.07</ele>
        <time>2020-07-08T09:18:47Z</time>
      </trkpt>
      <trkpt lat="47.78461" lon="-3.53058">
        <ele>2.94</ele>
        <time>2020-07-08T09:18:48Z</time>
      </trkpt>
      <trkpt lat="47.78462" lon="-3.53055">
        <ele>2.75</ele>
        <time>2020-07-08T09:18:49Z</time>
      </trkpt>
      <trkpt lat="47.78462" lon="-3.53052">
        <ele>2.59</ele>
        <time>2020-07-08T09:18:50Z</time>
      </trkpt>
      <trkpt lat="47.78463" lon="-3.53049">
        <ele>2.43</ele>
        <time>2020-07-08T09:18:51Z</time>
      </trkpt>
      <trkpt lat="47.78464" lon="-3.53046">
        <ele>2.33</ele>
        <time>2020-07-08T09:18:52Z</time>
      </trkpt>
      <trkpt lat="47.78465" lon="-3.53043">
        <ele>2.2</ele>
        <time>2020-07-08T09:18:53Z</time>
      </trkpt>
      <trkpt lat="47.78467" lon="-3.5304">
        <ele>2.05</ele>
        <time>2020-07-08T09:18:54Z</time>
      </trkpt>
      <trkpt lat="47.78468" lon="-3.53037">
        <ele>1.95</ele>
        <time>2020-07-08T09:18:55Z</time>
      </trkpt>
      <trkpt lat="47.78471" lon="-3.53033">
        <ele>1.72</ele>
        <time>2020-07-08T09:18:56Z</time>
      </trkpt>
      <trkpt lat="47.78473" lon="-3.53029">
        <ele>1.55</ele>
        <time>2020-07-08T09:18:57Z</time>
      </trkpt>
      <trkpt lat="47.78476" lon="-3.53026">
        <ele>1.69</ele>
        <time>2020-07-08T09:18:58Z</time>
      </trkpt>
      <trkpt lat="47.78478" lon="-3.53023">
        <ele>1.87</ele>
        <time>2020-07-08T09:18:59Z</time>
      </trkpt>
      <trkpt lat="47.78479" lon="-3.53021">
        <ele>2</ele>
        <time>2020-07-08T09:19:00Z</time>
      </trkpt>
      <trkpt lat="47.78481" lon="-3.53019">
        <ele>2.14</ele>
        <time>2020-07-08T09:19:01Z</time>
      </trkpt>
      <trkpt lat="47.78483" lon="-3.53015">
        <ele>2.21</ele>
        <time>2020-07-08T09:19:02Z</time>
      </trkpt>
      <trkpt lat="47.78485" lon="-3.53012">
        <ele>2.27</ele>
        <time>2020-07-08T09:19:03Z</time>
      </trkpt>
      <trkpt lat="47.78487" lon="-3.53009">
        <ele>2.32</ele>
        <time>2020-07-08T09:19:04Z</time>
      </trkpt>
      <trkpt lat="47.7849" lon="-3.53006">
        <ele>2.34</ele>
        <time>2020-07-08T09:19:05Z</time>
      </trkpt>
      <trkpt lat="47.78491" lon="-3.53003">
        <ele>2.22</ele>
        <time>2020-07-08T09:19:06Z</time>
      </trkpt>
      <trkpt lat="47.78494" lon="-3.53">
        <ele>2.2</ele>
        <time>2020-07-08T09:19:07Z</time>
      </trkpt>
      <trkpt lat="47.78497" lon="-3.52997">
        <ele>2.3</ele>
        <time>2020-07-08T09:19:08Z</time>
      </trkpt>
      <trkpt lat="47.785" lon="-3.52994">
        <ele>2.35</ele>
        <time>2020-07-08T09:19:09Z</time>
      </trkpt>
      <trkpt lat="47.78503" lon="-3.52992">
        <ele>2.61</ele>
        <time>2020-07-08T09:19:10Z</time>
      </trkpt>
      <trkpt lat="47.78505" lon="-3.5299">
        <ele>2.92</ele>
        <time>2020-07-08T09:19:11Z</time>
      </trkpt>
      <trkpt lat="47.78508" lon="-3.52987">
        <ele>3.13</ele>
        <time>2020-07-08T09:19:12Z</time>
      </trkpt>
      <trkpt lat="47.78511" lon="-3.52984">
        <ele>3.29</ele>
        <time>2020-07-08T09:19:13Z</time>
      </trkpt>
      <trkpt lat="47.78514" lon="-3.5298">
        <ele>3.31</ele>
        <time>2020-07-08T09:19:14Z</time>
      </trkpt>
      <trkpt lat="47.78517" lon="-3.52976">
        <ele>3.17</ele>
        <time>2020-07-08T09:19:15Z</time>
      </trkpt>
      <trkpt lat="47.7852" lon="-3.52972">
        <ele>2.91</ele>
        <time>2020-07-08T09:19:16Z</time>
      </trkpt>
      <trkpt lat="47.78522" lon="-3.52968">
        <ele>2.76</ele>
        <time>2020-07-08T09:19:17Z</time>
      </trkpt>
      <trkpt lat="47.78525" lon="-3.52964">
        <ele>2.56</ele>
        <time>2020-07-08T09:19:18Z</time>
      </trkpt>
      <trkpt lat="47.78528" lon="-3.52961">
        <ele>2.4</ele>
        <time>2020-07-08T09:19:19Z</time>
      </trkpt>
      <trkpt lat="47.7853" lon="-3.52958">
        <ele>2.65</ele>
        <time>2020-07-08T09:19:20Z</time>
      </trkpt>
      <trkpt lat="47.78533" lon="-3.52954">
        <ele>2.9</ele>
        <time>2020-07-08T09:19:21Z</time>
      </trkpt>
      <trkpt lat="47.78535" lon="-3.52951">
        <ele>3.23</ele>
        <time>2020-07-08T09:19:22Z</time>
      </trkpt>
      <trkpt lat="47.78537" lon="-3.52948">
        <ele>3.42</ele>
        <time>2020-07-08T09:19:23Z</time>
      </trkpt>
      <trkpt lat="47.78539" lon="-3.52943">
        <ele>3.54</ele>
        <time>2020-07-08T09:19:24Z</time>
      </trkpt>
      <trkpt lat="47.78541" lon="-3.52937">
        <ele>3.69</ele>
        <time>2020-07-08T09:19:25Z</time>
      </trkpt>
      <trkpt lat="47.78543" lon="-3.52931">
        <ele>3.81</ele>
        <time>2020-07-08T09:19:26Z</time>
      </trkpt>
      <trkpt lat="47.78544" lon="-3.52924">
        <ele>3.79</ele>
        <time>2020-07-08T09:19:27Z</time>
      </trkpt>
      <trkpt lat="47.78546" lon="-3.52918">
        <ele>3.74</ele>
        <time>2020-07-08T09:19:28Z</time>
      </trkpt>
      <trkpt lat="47.7855" lon="-3.52912">
        <ele>3.94</ele>
        <time>2020-07-08T09:19:29Z</time>
      </trkpt>
      <trkpt lat="47.78553" lon="-3.52906">
        <ele>4.05</ele>
        <time>2020-07-08T09:19:30Z</time>
      </trkpt>
      <trkpt lat="47.78557" lon="-3.52901">
        <ele>3.98</ele>
        <time>2020-07-08T09:19:31Z</time>
      </trkpt>
      <trkpt lat="47.7856" lon="-3.52895">
        <ele>3.69</ele>
        <time>2020-07-08T09:19:32Z</time>
      </trkpt>
      <trkpt lat="47.78562" lon="-3.52889">
        <ele>3.34</ele>
        <time>2020-07-08T09:19:33Z</time>
      </trkpt>
      <trkpt lat="47.78564" lon="-3.52885">
        <ele>3.23</ele>
        <time>2020-07-08T09:19:34Z</time>
      </trkpt>
      <trkpt lat="47.78567" lon="-3.52881">
        <ele>3.31</ele>
        <time>2020-07-08T09:19:35Z</time>
      </trkpt>
      <trkpt lat="47.78571" lon="-3.52877">
        <ele>3.41</ele>
        <time>2020-07-08T09:19:36Z</time>
      </trkpt>
      <trkpt lat="47.78574" lon="-3.52873">
        <ele>3.46</ele>
        <time>2020-07-08T09:19:37Z</time>
      </trkpt>
      <trkpt lat="47.78578" lon="-3.52869">
        <ele>3.47</ele>
        <time>2020-07-08T09:19:38Z</time>
      </trkpt>
      <trkpt lat="47.78582" lon="-3.52865">
        <ele>3.42</ele>
        <time>2020-07-08T09:19:39Z</time>
      </trkpt>
      <trkpt lat="47.78587" lon="-3.52861">
        <ele>3.37</ele>
        <time>2020-07-08T09:19:40Z</time>
      </trkpt>
      <trkpt lat="47.78591" lon="-3.52857">
        <ele>3.34</ele>
        <time>2020-07-08T09:19:41Z</time>
      </trkpt>
      <trkpt lat="47.78595" lon="-3.52854">
        <ele>3.25</ele>
        <time>2020-07-08T09:19:42Z</time>
      </trkpt>
      <trkpt lat="47.78598" lon="-3.52851">
        <ele>3.15</ele>
        <time>2020-07-08T09:19:43Z</time>
      </trkpt>
      <trkpt lat="47.78602" lon="-3.52847">
        <ele>2.89</ele>
        <time>2020-07-08T09:19:44Z</time>
      </trkpt>
      <trkpt lat="47.78606" lon="-3.52845">
        <ele>2.72</ele>
        <time>2020-07-08T09:19:45Z</time>
      </trkpt>
      <trkpt lat="47.7861" lon="-3.52844">
        <ele>2.75</ele>
        <time>2020-07-08T09:19:46Z</time>
      </trkpt>
      <trkpt lat="47.78613" lon="-3.52842">
        <ele>2.83</ele>
        <time>2020-07-08T09:19:47Z</time>
      </trkpt>
      <trkpt lat="47.78616" lon="-3.52841">
        <ele>3.03</ele>
        <time>2020-07-08T09:19:48Z</time>
      </trkpt>
      <trkpt lat="47.7862" lon="-3.52841">
        <ele>3.4</ele>
        <time>2020-07-08T09:19:49Z</time>
      </trkpt>
      <trkpt lat="47.78623" lon="-3.52841">
        <ele>3.81</ele>
        <time>2020-07-08T09:19:50Z</time>
      </trkpt>
      <trkpt lat="47.78626" lon="-3.52842">
        <ele>4.31</ele>
        <time>2020-07-08T09:19:51Z</time>
      </trkpt>
      <trkpt lat="47.78629" lon="-3.52842">
        <ele>4.8</ele>
        <time>2020-07-08T09:19:52Z</time>
      </trkpt>
      <trkpt lat="47.78631" lon="-3.52842">
        <ele>5.24</ele>
        <time>2020-07-08T09:19:53Z</time>
      </trkpt>
      <trkpt lat="47.78634" lon="-3.52842">
        <ele>5.57</ele>
        <time>2020-07-08T09:19:54Z</time>
      </trkpt>
      <trkpt lat="47.78636" lon="-3.52842">
        <ele>5.93</ele>
        <time>2020-07-08T09:19:55Z</time>
      </trkpt>
      <trkpt lat="47.78639" lon="-3.52842">
        <ele>6.33</ele>
        <time>2020-07-08T09:19:56Z</time>
      </trkpt>
      <trkpt lat="47.78643" lon="-3.52842">
        <ele>6.78</ele>
        <time>2020-07-08T09:19:57Z</time>
      </trkpt>
      <trkpt lat="47.78645" lon="-3.52843">
        <ele>7.2</ele>
        <time>2020-07-08T09:19:58Z</time>
      </trkpt>
      <trkpt lat="47.78648" lon="-3.52843">
        <ele>7.59</ele>
        <time>2020-07-08T09:19:59Z</time>
      </trkpt>
      <trkpt lat="47.7865" lon="-3.52843">
        <ele>7.86</ele>
        <time>2020-07-08T09:20:00Z</time>
      </trkpt>
      <trkpt lat="47.78653" lon="-3.52842">
        <ele>7.97</ele>
        <time>2020-07-08T09:20:01Z</time>
      </trkpt>
      <trkpt lat="47.78656" lon="-3.52842">
        <ele>8.21</ele>
        <time>2020-07-08T09:20:02Z</time>
      </trkpt>
      <trkpt lat="47.78659" lon="-3.52842">
        <ele>8.56</ele>
        <time>2020-07-08T09:20:03Z</time>
      </trkpt>
      <trkpt lat="47.78662" lon="-3.52842">
        <ele>8.83</ele>
        <time>2020-07-08T09:20:04Z</time>
      </trkpt>
      <trkpt lat="47.78666" lon="-3.52841">
        <ele>9.04</ele>
        <time>2020-07-08T09:20:05Z</time>
      </trkpt>
      <trkpt lat="47.7867" lon="-3.5284">
        <ele>8.96</ele>
        <time>2020-07-08T09:20:06Z</time>
      </trkpt>
      <trkpt lat="47.78672" lon="-3.52842">
        <ele>9.04</ele>
        <time>2020-07-08T09:20:07Z</time>
      </trkpt>
      <trkpt lat="47.78676" lon="-3.52842">
        <ele>9</ele>
        <time>2020-07-08T09:20:08Z</time>
      </trkpt>
      <trkpt lat="47.78678" lon="-3.52843">
        <ele>9.22</ele>
        <time>2020-07-08T09:20:09Z</time>
      </trkpt>
      <trkpt lat="47.78681" lon="-3.52844">
        <ele>9.36</ele>
        <time>2020-07-08T09:20:10Z</time>
      </trkpt>
      <trkpt lat="47.78683" lon="-3.52846">
        <ele>9.64</ele>
        <time>2020-07-08T09:20:11Z</time>
      </trkpt>
      <trkpt lat="47.78685" lon="-3.52847">
        <ele>9.91</ele>
        <time>2020-07-08T09:20:12Z</time>
      </trkpt>
      <trkpt lat="47.78687" lon="-3.52848">
        <ele>10.12</ele>
        <time>2020-07-08T09:20:13Z</time>
      </trkpt>
      <trkpt lat="47.78689" lon="-3.52849">
        <ele>10.27</ele>
        <time>2020-07-08T09:20:14Z</time>
      </trkpt>
      <trkpt lat="47.78691" lon="-3.52851">
        <ele>10.56</ele>
        <time>2020-07-08T09:20:15Z</time>
      </trkpt>
      <trkpt lat="47.78693" lon="-3.52853">
        <ele>10.97</ele>
        <time>2020-07-08T09:20:16Z</time>
      </trkpt>
      <trkpt lat="47.78695" lon="-3.52856">
        <ele>11.38</ele>
        <time>2020-07-08T09:20:17Z</time>
      </trkpt>
      <trkpt lat="47.78697" lon="-3.52858">
        <ele>11.43</ele>
        <time>2020-07-08T09:20:18Z</time>
      </trkpt>
      <trkpt lat="47.787" lon="-3.52861">
        <ele>11.2</ele>
        <time>2020-07-08T09:20:19Z</time>
      </trkpt>
      <trkpt lat="47.78705" lon="-3.52865">
        <ele>10.58</ele>
        <time>2020-07-08T09:20:20Z</time>
      </trkpt>
      <trkpt lat="47.78709" lon="-3.5287">
        <ele>10.01</ele>
        <time>2020-07-08T09:20:21Z</time>
      </trkpt>
      <trkpt lat="47.78713" lon="-3.52876">
        <ele>9.4</ele>
        <time>2020-07-08T09:20:22Z</time>
      </trkpt>
      <trkpt lat="47.78718" lon="-3.52882">
        <ele>8.89</ele>
        <time>2020-07-08T09:20:23Z</time>
      </trkpt>
      <trkpt lat="47.78721" lon="-3.52889">
        <ele>8.73</ele>
        <time>2020-07-08T09:20:24Z</time>
      </trkpt>
      <trkpt lat="47.78724" lon="-3.52896">
        <ele>8.75</ele>
        <time>2020-07-08T09:20:25Z</time>
      </trkpt>
      <trkpt lat="47.78727" lon="-3.52901">
        <ele>8.84</ele>
        <time>2020-07-08T09:20:26Z</time>
      </trkpt>
      <trkpt lat="47.7873" lon="-3.52906">
        <ele>8.79</ele>
        <time>2020-07-08T09:20:27Z</time>
      </trkpt>
      <trkpt lat="47.78733" lon="-3.52911">
        <ele>8.62</ele>
        <time>2020-07-08T09:20:28Z</time>
      </trkpt>
      <trkpt lat="47.78736" lon="-3.52916">
        <ele>8.56</ele>
        <time>2020-07-08T09:20:29Z</time>
      </trkpt>
      <trkpt lat="47.78739" lon="-3.52922">
        <ele>8.68</ele>
        <time>2020-07-08T09:20:30Z</time>
      </trkpt>
      <trkpt lat="47.78741" lon="-3.52927">
        <ele>8.94</ele>
        <time>2020-07-08T09:20:31Z</time>
      </trkpt>
      <trkpt lat="47.78743" lon="-3.52931">
        <ele>9.27</ele>
        <time>2020-07-08T09:20:32Z</time>
      </trkpt>
      <trkpt lat="47.78745" lon="-3.52934">
        <ele>9.58</ele>
        <time>2020-07-08T09:20:33Z</time>
      </trkpt>
      <trkpt lat="47.78747" lon="-3.52937">
        <ele>9.83</ele>
        <time>2020-07-08T09:20:34Z</time>
      </trkpt>
      <trkpt lat="47.7875" lon="-3.52941">
        <ele>9.95</ele>
        <time>2020-07-08T09:20:35Z</time>
      </trkpt>
      <trkpt lat="47.78754" lon="-3.52945">
        <ele>9.83</ele>
        <time>2020-07-08T09:20:36Z</time>
      </trkpt>
      <trkpt lat="47.78758" lon="-3.52949">
        <ele>9.34</ele>
        <time>2020-07-08T09:20:37Z</time>
      </trkpt>
      <trkpt lat="47.78762" lon="-3.52953">
        <ele>8.6</ele>
        <time>2020-07-08T09:20:38Z</time>
      </trkpt>
      <trkpt lat="47.78766" lon="-3.52956">
        <ele>7.72</ele>
        <time>2020-07-08T09:20:39Z</time>
      </trkpt>
      <trkpt lat="47.78771" lon="-3.5296">
        <ele>6.48</ele>
        <time>2020-07-08T09:20:40Z</time>
      </trkpt>
      <trkpt lat="47.78776" lon="-3.52962">
        <ele>5.13</ele>
        <time>2020-07-08T09:20:41Z</time>
      </trkpt>
      <trkpt lat="47.78781" lon="-3.52966">
        <ele>4.34</ele>
        <time>2020-07-08T09:20:42Z</time>
      </trkpt>
      <trkpt lat="47.78785" lon="-3.52967">
        <ele>3.91</ele>
        <time>2020-07-08T09:20:43Z</time>
      </trkpt>
      <trkpt lat="47.78789" lon="-3.52968">
        <ele>3.56</ele>
        <time>2020-07-08T09:20:44Z</time>
      </trkpt>
      <trkpt lat="47.78792" lon="-3.52969">
        <ele>3.28</ele>
        <time>2020-07-08T09:20:45Z</time>
      </trkpt>
      <trkpt lat="47.78794" lon="-3.5297">
        <ele>3.05</ele>
        <time>2020-07-08T09:20:46Z</time>
      </trkpt>
      <trkpt lat="47.78797" lon="-3.52971">
        <ele>2.89</ele>
        <time>2020-07-08T09:20:47Z</time>
      </trkpt>
      <trkpt lat="47.78799" lon="-3.52972">
        <ele>2.74</ele>
        <time>2020-07-08T09:20:48Z</time>
      </trkpt>
      <trkpt lat="47.78801" lon="-3.52974">
        <ele>2.84</ele>
        <time>2020-07-08T09:20:49Z</time>
      </trkpt>
      <trkpt lat="47.78802" lon="-3.52975">
        <ele>3.01</ele>
        <time>2020-07-08T09:20:50Z</time>
      </trkpt>
      <trkpt lat="47.78804" lon="-3.52976">
        <ele>3.14</ele>
        <time>2020-07-08T09:20:51Z</time>
      </trkpt>
      <trkpt lat="47.78806" lon="-3.52978">
        <ele>3.29</ele>
        <time>2020-07-08T09:20:52Z</time>
      </trkpt>
      <trkpt lat="47.78807" lon="-3.52977">
        <ele>3.22</ele>
        <time>2020-07-08T09:20:53Z</time>
      </trkpt>
      <trkpt lat="47.7881" lon="-3.52978">
        <ele>3.19</ele>
        <time>2020-07-08T09:20:54Z</time>
      </trkpt>
      <trkpt lat="47.78812" lon="-3.5298">
        <ele>3.38</ele>
        <time>2020-07-08T09:20:55Z</time>
      </trkpt>
      <trkpt lat="47.78814" lon="-3.52982">
        <ele>3.67</ele>
        <time>2020-07-08T09:20:56Z</time>
      </trkpt>
      <trkpt lat="47.78815" lon="-3.52983">
        <ele>3.91</ele>
        <time>2020-07-08T09:20:57Z</time>
      </trkpt>
      <trkpt lat="47.78816" lon="-3.52984">
        <ele>4.13</ele>
        <time>2020-07-08T09:20:58Z</time>
      </trkpt>
      <trkpt lat="47.78818" lon="-3.52985">
        <ele>4.25</ele>
        <time>2020-07-08T09:20:59Z</time>
      </trkpt>
      <trkpt lat="47.78819" lon="-3.52986">
        <ele>4.41</ele>
        <time>2020-07-08T09:21:00Z</time>
      </trkpt>
      <trkpt lat="47.7882" lon="-3.52987">
        <ele>4.6</ele>
        <time>2020-07-08T09:21:01Z</time>
      </trkpt>
      <trkpt lat="47.78821" lon="-3.52988">
        <ele>4.82</ele>
        <time>2020-07-08T09:21:02Z</time>
      </trkpt>
      <trkpt lat="47.78822" lon="-3.5299">
        <ele>5.12</ele>
        <time>2020-07-08T09:21:03Z</time>
      </trkpt>
      <trkpt lat="47.78822" lon="-3.52991">
        <ele>5.51</ele>
        <time>2020-07-08T09:21:04Z</time>
      </trkpt>
      <trkpt lat="47.78823" lon="-3.52993">
        <ele>5.89</ele>
        <time>2020-07-08T09:21:05Z</time>
      </trkpt>
      <trkpt lat="47.78824" lon="-3.52995">
        <ele>6.23</ele>
        <time>2020-07-08T09:21:06Z</time>
      </trkpt>
      <trkpt lat="47.78825" lon="-3.52996">
        <ele>6.51</ele>
        <time>2020-07-08T09:21:07Z</time>
      </trkpt>
      <trkpt lat="47.78826" lon="-3.52998">
        <ele>6.86</ele>
        <time>2020-07-08T09:21:08Z</time>
      </trkpt>
      <trkpt lat="47.78827" lon="-3.53">
        <ele>7.29</ele>
        <time>2020-07-08T09:21:09Z</time>
      </trkpt>
      <trkpt lat="47.78829" lon="-3.53003">
        <ele>7.85</ele>
        <time>2020-07-08T09:21:10Z</time>
      </trkpt>
      <trkpt lat="47.7883" lon="-3.53005">
        <ele>8.42</ele>
        <time>2020-07-08T09:21:11Z</time>
      </trkpt>
      <trkpt lat="47.78831" lon="-3.53007">
        <ele>8.96</ele>
        <time>2020-07-08T09:21:12Z</time>
      </trkpt>
      <trkpt lat="47.78832" lon="-3.53009">
        <ele>9.48</ele>
        <time>2020-07-08T09:21:13Z</time>
      </trkpt>
      <trkpt lat="47.78833" lon="-3.53011">
        <ele>9.96</ele>
        <time>2020-07-08T09:21:14Z</time>
      </trkpt>
      <trkpt lat="47.78834" lon="-3.53014">
        <ele>10.44</ele>
        <time>2020-07-08T09:21:15Z</time>
      </trkpt>
      <trkpt lat="47.78835" lon="-3.53016">
        <ele>10.84</ele>
        <time>2020-07-08T09:21:16Z</time>
      </trkpt>
      <trkpt lat="47.78836" lon="-3.53018">
        <ele>11.16</ele>
        <time>2020-07-08T09:21:17Z</time>
      </trkpt>
      <trkpt lat="47.78837" lon="-3.5302">
        <ele>11.44</ele>
        <time>2020-07-08T09:21:18Z</time>
      </trkpt>
      <trkpt lat="47.78837" lon="-3.53023">
        <ele>11.89</ele>
        <time>2020-07-08T09:21:19Z</time>
      </trkpt>
      <trkpt lat="47.78838" lon="-3.53026">
        <ele>12.35</ele>
        <time>2020-07-08T09:21:20Z</time>
      </trkpt>
      <trkpt lat="47.78839" lon="-3.53029">
        <ele>12.82</ele>
        <time>2020-07-08T09:21:21Z</time>
      </trkpt>
      <trkpt lat="47.78839" lon="-3.53032">
        <ele>13.17</ele>
        <time>2020-07-08T09:21:22Z</time>
      </trkpt>
      <trkpt lat="47.7884" lon="-3.53036">
        <ele>13.58</ele>
        <time>2020-07-08T09:21:23Z</time>
      </trkpt>
      <trkpt lat="47.78841" lon="-3.5304">
        <ele>13.97</ele>
        <time>2020-07-08T09:21:24Z</time>
      </trkpt>
      <trkpt lat="47.78842" lon="-3.53042">
        <ele>14.19</ele>
        <time>2020-07-08T09:21:25Z</time>
      </trkpt>
      <trkpt lat="47.78843" lon="-3.53045">
        <ele>14.33</ele>
        <time>2020-07-08T09:21:26Z</time>
      </trkpt>
      <trkpt lat="47.78844" lon="-3.53048">
        <ele>14.48</ele>
        <time>2020-07-08T09:21:27Z</time>
      </trkpt>
      <trkpt lat="47.78845" lon="-3.53052">
        <ele>14.6</ele>
        <time>2020-07-08T09:21:28Z</time>
      </trkpt>
      <trkpt lat="47.78846" lon="-3.53055">
        <ele>14.78</ele>
        <time>2020-07-08T09:21:29Z</time>
      </trkpt>
      <trkpt lat="47.78847" lon="-3.53058">
        <ele>15.03</ele>
        <time>2020-07-08T09:21:30Z</time>
      </trkpt>
      <trkpt lat="47.78848" lon="-3.53061">
        <ele>15.32</ele>
        <time>2020-07-08T09:21:31Z</time>
      </trkpt>
      <trkpt lat="47.78849" lon="-3.53064">
        <ele>15.74</ele>
        <time>2020-07-08T09:21:32Z</time>
      </trkpt>
      <trkpt lat="47.7885" lon="-3.53067">
        <ele>16.19</ele>
        <time>2020-07-08T09:21:33Z</time>
      </trkpt>
      <trkpt lat="47.7885" lon="-3.5307">
        <ele>16.59</ele>
        <time>2020-07-08T09:21:34Z</time>
      </trkpt>
      <trkpt lat="47.78852" lon="-3.53072">
        <ele>16.84</ele>
        <time>2020-07-08T09:21:35Z</time>
      </trkpt>
      <trkpt lat="47.78853" lon="-3.53074">
        <ele>17</ele>
        <time>2020-07-08T09:21:36Z</time>
      </trkpt>
      <trkpt lat="47.78854" lon="-3.53076">
        <ele>17.16</ele>
        <time>2020-07-08T09:21:37Z</time>
      </trkpt>
      <trkpt lat="47.78855" lon="-3.53077">
        <ele>17.02</ele>
        <time>2020-07-08T09:21:38Z</time>
      </trkpt>
      <trkpt lat="47.78857" lon="-3.53079">
        <ele>16.95</ele>
        <time>2020-07-08T09:21:39Z</time>
      </trkpt>
      <trkpt lat="47.78858" lon="-3.5308">
        <ele>16.93</ele>
        <time>2020-07-08T09:21:40Z</time>
      </trkpt>
      <trkpt lat="47.7886" lon="-3.53082">
        <ele>16.97</ele>
        <time>2020-07-08T09:21:41Z</time>
      </trkpt>
      <trkpt lat="47.78861" lon="-3.53084">
        <ele>17.2</ele>
        <time>2020-07-08T09:21:42Z</time>
      </trkpt>
      <trkpt lat="47.78862" lon="-3.53086">
        <ele>17.3</ele>
        <time>2020-07-08T09:21:43Z</time>
      </trkpt>
      <trkpt lat="47.78862" lon="-3.53087">
        <ele>17.51</ele>
        <time>2020-07-08T09:21:44Z</time>
      </trkpt>
      <trkpt lat="47.78862" lon="-3.53088">
        <ele>17.81</ele>
        <time>2020-07-08T09:21:45Z</time>
      </trkpt>
      <trkpt lat="47.78862" lon="-3.53088">
        <ele>18.02</ele>
        <time>2020-07-08T09:21:46Z</time>
      </trkpt>
      <trkpt lat="47.78862" lon="-3.53088">
        <ele>18.09</ele>
        <time>2020-07-08T09:21:47Z</time>
      </trkpt>
      <trkpt lat="47.78862" lon="-3.53088">
        <ele>18.11</ele>
        <time>2020-07-08T09:21:48Z</time>
      </trkpt>
      <trkpt lat="47.78862" lon="-3.53088">
        <ele>18.11</ele>
        <time>2020-07-08T09:21:49Z</time>
      </trkpt>
      <trkpt lat="47.78862" lon="-3.53088">
        <ele>18.11</ele>
        <time>2020-07-08T09:21:50Z</time>
      </trkpt>
      <trkpt lat="47.78862" lon="-3.53088">
        <ele>18.11</ele>
        <time>2020-07-08T09:21:51Z</time>
      </trkpt>
      <trkpt lat="47.78862" lon="-3.53088">
        <ele>18.11</ele>
        <time>2020-07-08T09:21:52Z</time>
      </trkpt>
      <trkpt lat="47.78862" lon="-3.53088">
        <ele>18.11</ele>
        <time>2020-07-08T09:21:53Z</time>
      </trkpt>
      <trkpt lat="47.78862" lon="-3.53088">
        <ele>18.11</ele>
        <time>2020-07-08T09:21:54Z</time>
      </trkpt>
      <trkpt lat="47.78862" lon="-3.53088">
        <ele>18.11</ele>
        <time>2020-07-08T09:21:55Z</time>
      </trkpt>
      <trkpt lat="47.78862" lon="-3.53088">
        <ele>18.11</ele>
        <time>2020-07-08T09:21:56Z</time>
      </trkpt>
      <trkpt lat="47.78862" lon="-3.53088">
        <ele>18.11</ele>
        <time>2020-07-08T09:21:57Z</time>
      </trkpt>
      <trkpt lat="47.78862" lon="-3.53088">
        <ele>18.11</ele>
        <time>2020-07-08T09:21:58Z</time>
      </trkpt>
      <trkpt lat="47.78862" lon="-3.53088">
        <ele>18.11</ele>
        <time>2020-07-08T09:21:59Z</time>
      </trkpt>
      <trkpt lat="47.78865" lon="-3.53092">
        <ele>17.94</ele>
        <time>2020-07-08T09:22:00Z</time>
      </trkpt>
      <trkpt lat="47.78866" lon="-3.53094">
        <ele>17.96</ele>
        <time>2020-07-08T09:22:01Z</time>
      </trkpt>
      <trkpt lat="47.78868" lon="-3.53096">
        <ele>17.74</ele>
        <time>2020-07-08T09:22:02Z</time>
      </trkpt>
      <trkpt lat="47.78871" lon="-3.53099">
        <ele>17.27</ele>
        <time>2020-07-08T09:22:03Z</time>
      </trkpt>
      <trkpt lat="47.78875" lon="-3.53101">
        <ele>16.41</ele>
        <time>2020-07-08T09:22:04Z</time>
      </trkpt>
      <trkpt lat="47.78878" lon="-3.53104">
        <ele>15.82</ele>
        <time>2020-07-08T09:22:05Z</time>
      </trkpt>
      <trkpt lat="47.78882" lon="-3.53107">
        <ele>15.41</ele>
        <time>2020-07-08T09:22:06Z</time>
      </trkpt>
      <trkpt lat="47.78887" lon="-3.5311">
        <ele>14.67</ele>
        <time>2020-07-08T09:22:07Z</time>
      </trkpt>
      <trkpt lat="47.78892" lon="-3.53112">
        <ele>13.84</ele>
        <time>2020-07-08T09:22:08Z</time>
      </trkpt>
      <trkpt lat="47.78897" lon="-3.53114">
        <ele>12.78</ele>
        <time>2020-07-08T09:22:09Z</time>
      </trkpt>
      <trkpt lat="47.78902" lon="-3.53117">
        <ele>12.24</ele>
        <time>2020-07-08T09:22:10Z</time>
      </trkpt>
      <trkpt lat="47.78907" lon="-3.53118">
        <ele>11.48</ele>
        <time>2020-07-08T09:22:11Z</time>
      </trkpt>
      <trkpt lat="47.78912" lon="-3.5312">
        <ele>10.46</ele>
        <time>2020-07-08T09:22:12Z</time>
      </trkpt>
      <trkpt lat="47.78918" lon="-3.53123">
        <ele>9.82</ele>
        <time>2020-07-08T09:22:13Z</time>
      </trkpt>
      <trkpt lat="47.78923" lon="-3.53126">
        <ele>9.61</ele>
        <time>2020-07-08T09:22:14Z</time>
      </trkpt>
      <trkpt lat="47.78929" lon="-3.53129">
        <ele>9.23</ele>
        <time>2020-07-08T09:22:15Z</time>
      </trkpt>
      <trkpt lat="47.78934" lon="-3.53131">
        <ele>8.55</ele>
        <time>2020-07-08T09:22:16Z</time>
      </trkpt>
      <trkpt lat="47.78939" lon="-3.53132">
        <ele>7.8</ele>
        <time>2020-07-08T09:22:17Z</time>
      </trkpt>
      <trkpt lat="47.78943" lon="-3.53132">
        <ele>6.79</ele>
        <time>2020-07-08T09:22:18Z</time>
      </trkpt>
      <trkpt lat="47.78948" lon="-3.53133">
        <ele>6.08</ele>
        <time>2020-07-08T09:22:19Z</time>
      </trkpt>
      <trkpt lat="47.78952" lon="-3.53135">
        <ele>5.84</ele>
        <time>2020-07-08T09:22:20Z</time>
      </trkpt>
      <trkpt lat="47.78955" lon="-3.53139">
        <ele>5.97</ele>
        <time>2020-07-08T09:22:21Z</time>
      </trkpt>
      <trkpt lat="47.7896" lon="-3.53143">
        <ele>6.18</ele>
        <time>2020-07-08T09:22:22Z</time>
      </trkpt>
      <trkpt lat="47.78963" lon="-3.53146">
        <ele>6.41</ele>
        <time>2020-07-08T09:22:23Z</time>
      </trkpt>
      <trkpt lat="47.78966" lon="-3.53149">
        <ele>6.64</ele>
        <time>2020-07-08T09:22:24Z</time>
      </trkpt>
      <trkpt lat="47.78968" lon="-3.53152">
        <ele>6.96</ele>
        <time>2020-07-08T09:22:25Z</time>
      </trkpt>
      <trkpt lat="47.78971" lon="-3.53155">
        <ele>7.32</ele>
        <time>2020-07-08T09:22:26Z</time>
      </trkpt>
      <trkpt lat="47.78974" lon="-3.5316">
        <ele>7.64</ele>
        <time>2020-07-08T09:22:27Z</time>
      </trkpt>
      <trkpt lat="47.78978" lon="-3.53163">
        <ele>7.6</ele>
        <time>2020-07-08T09:22:28Z</time>
      </trkpt>
      <trkpt lat="47.78983" lon="-3.53166">
        <ele>7.15</ele>
        <time>2020-07-08T09:22:29Z</time>
      </trkpt>
      <trkpt lat="47.78988" lon="-3.53169">
        <ele>6.66</ele>
        <time>2020-07-08T09:22:30Z</time>
      </trkpt>
      <trkpt lat="47.78994" lon="-3.53171">
        <ele>5.89</ele>
        <time>2020-07-08T09:22:31Z</time>
      </trkpt>
      <trkpt lat="47.78999" lon="-3.53174">
        <ele>5.12</ele>
        <time>2020-07-08T09:22:32Z</time>
      </trkpt>
      <trkpt lat="47.79005" lon="-3.53177">
        <ele>4.77</ele>
        <time>2020-07-08T09:22:33Z</time>
      </trkpt>
      <trkpt lat="47.7901" lon="-3.5318">
        <ele>4.72</ele>
        <time>2020-07-08T09:22:34Z</time>
      </trkpt>
      <trkpt lat="47.79014" lon="-3.53184">
        <ele>4.74</ele>
        <time>2020-07-08T09:22:35Z</time>
      </trkpt>
      <trkpt lat="47.79019" lon="-3.53188">
        <ele>4.7</ele>
        <time>2020-07-08T09:22:36Z</time>
      </trkpt>
      <trkpt lat="47.79024" lon="-3.53192">
        <ele>4.5</ele>
        <time>2020-07-08T09:22:37Z</time>
      </trkpt>
      <trkpt lat="47.79028" lon="-3.53196">
        <ele>4.23</ele>
        <time>2020-07-08T09:22:38Z</time>
      </trkpt>
      <trkpt lat="47.79034" lon="-3.53199">
        <ele>4.08</ele>
        <time>2020-07-08T09:22:39Z</time>
      </trkpt>
      <trkpt lat="47.7904" lon="-3.53201">
        <ele>3.85</ele>
        <time>2020-07-08T09:22:40Z</time>
      </trkpt>
      <trkpt lat="47.79045" lon="-3.53201">
        <ele>3.47</ele>
        <time>2020-07-08T09:22:41Z</time>
      </trkpt>
      <trkpt lat="47.79052" lon="-3.53199">
        <ele>2.87</ele>
        <time>2020-07-08T09:22:42Z</time>
      </trkpt>
      <trkpt lat="47.79059" lon="-3.53195">
        <ele>2.29</ele>
        <time>2020-07-08T09:22:43Z</time>
      </trkpt>
      <trkpt lat="47.79065" lon="-3.53191">
        <ele>1.96</ele>
        <time>2020-07-08T09:22:44Z</time>
      </trkpt>
      <trkpt lat="47.7907" lon="-3.53188">
        <ele>1.75</ele>
        <time>2020-07-08T09:22:45Z</time>
      </trkpt>
      <trkpt lat="47.79075" lon="-3.53185">
        <ele>1.63</ele>
        <time>2020-07-08T09:22:46Z</time>
      </trkpt>
      <trkpt lat="47.7908" lon="-3.53183">
        <ele>1.56</ele>
        <time>2020-07-08T09:22:47Z</time>
      </trkpt>
      <trkpt lat="47.79085" lon="-3.5318">
        <ele>1.5</ele>
        <time>2020-07-08T09:22:48Z</time>
      </trkpt>
      <trkpt lat="47.79089" lon="-3.53177">
        <ele>1.42</ele>
        <time>2020-07-08T09:22:49Z</time>
      </trkpt>
      <trkpt lat="47.79094" lon="-3.53175">
        <ele>1.34</ele>
        <time>2020-07-08T09:22:50Z</time>
      </trkpt>
      <trkpt lat="47.79098" lon="-3.53173">
        <ele>1.25</ele>
        <time>2020-07-08T09:22:51Z</time>
      </trkpt>
      <trkpt lat="47.79102" lon="-3.5317">
        <ele>1.16</ele>
        <time>2020-07-08T09:22:52Z</time>
      </trkpt>
      <trkpt lat="47.79106" lon="-3.53168">
        <ele>1.07</ele>
        <time>2020-07-08T09:22:53Z</time>
      </trkpt>
      <trkpt lat="47.79111" lon="-3.53165">
        <ele>0.98</ele>
        <time>2020-07-08T09:22:54Z</time>
      </trkpt>
      <trkpt lat="47.79115" lon="-3.53162">
        <ele>0.99</ele>
        <time>2020-07-08T09:22:55Z</time>
      </trkpt>
      <trkpt lat="47.79119" lon="-3.5316">
        <ele>1.04</ele>
        <time>2020-07-08T09:22:56Z</time>
      </trkpt>
      <trkpt lat="47.79124" lon="-3.53158">
        <ele>1.1</ele>
        <time>2020-07-08T09:22:57Z</time>
      </trkpt>
      <trkpt lat="47.79128" lon="-3.53155">
        <ele>1.18</ele>
        <time>2020-07-08T09:22:58Z</time>
      </trkpt>
      <trkpt lat="47.79133" lon="-3.53154">
        <ele>1.27</ele>
        <time>2020-07-08T09:22:59Z</time>
      </trkpt>
      <trkpt lat="47.79137" lon="-3.53152">
        <ele>1.36</ele>
        <time>2020-07-08T09:23:00Z</time>
      </trkpt>
      <trkpt lat="47.79141" lon="-3.53148">
        <ele>1.69</ele>
        <time>2020-07-08T09:23:01Z</time>
      </trkpt>
      <trkpt lat="47.79144" lon="-3.53145">
        <ele>2.27</ele>
        <time>2020-07-08T09:23:02Z</time>
      </trkpt>
      <trkpt lat="47.79146" lon="-3.53141">
        <ele>2.67</ele>
        <time>2020-07-08T09:23:03Z</time>
      </trkpt>
      <trkpt lat="47.79147" lon="-3.53137">
        <ele>2.98</ele>
        <time>2020-07-08T09:23:04Z</time>
      </trkpt>
      <trkpt lat="47.79147" lon="-3.53133">
        <ele>3.17</ele>
        <time>2020-07-08T09:23:05Z</time>
      </trkpt>
      <trkpt lat="47.79147" lon="-3.53129">
        <ele>3.37</ele>
        <time>2020-07-08T09:23:06Z</time>
      </trkpt>
      <trkpt lat="47.79147" lon="-3.53124">
        <ele>3.43</ele>
        <time>2020-07-08T09:23:07Z</time>
      </trkpt>
      <trkpt lat="47.79146" lon="-3.53119">
        <ele>3.48</ele>
        <time>2020-07-08T09:23:08Z</time>
      </trkpt>
      <trkpt lat="47.79145" lon="-3.53113">
        <ele>3.41</ele>
        <time>2020-07-08T09:23:09Z</time>
      </trkpt>
      <trkpt lat="47.79143" lon="-3.53107">
        <ele>3.13</ele>
        <time>2020-07-08T09:23:10Z</time>
      </trkpt>
      <trkpt lat="47.79142" lon="-3.53101">
        <ele>2.89</ele>
        <time>2020-07-08T09:23:11Z</time>
      </trkpt>
      <trkpt lat="47.7914" lon="-3.53093">
        <ele>2.5</ele>
        <time>2020-07-08T09:23:12Z</time>
      </trkpt>
      <trkpt lat="47.79138" lon="-3.53086">
        <ele>2.13</ele>
        <time>2020-07-08T09:23:13Z</time>
      </trkpt>
      <trkpt lat="47.79137" lon="-3.53079">
        <ele>1.94</ele>
        <time>2020-07-08T09:23:14Z</time>
      </trkpt>
      <trkpt lat="47.79136" lon="-3.53072">
        <ele>1.85</ele>
        <time>2020-07-08T09:23:15Z</time>
      </trkpt>
      <trkpt lat="47.79136" lon="-3.53067">
        <ele>1.82</ele>
        <time>2020-07-08T09:23:16Z</time>
      </trkpt>
      <trkpt lat="47.79137" lon="-3.53061">
        <ele>1.85</ele>
        <time>2020-07-08T09:23:17Z</time>
      </trkpt>
      <trkpt lat="47.79139" lon="-3.53056">
        <ele>1.94</ele>
        <time>2020-07-08T09:23:18Z</time>
      </trkpt>
      <trkpt lat="47.79141" lon="-3.53053">
        <ele>2</ele>
        <time>2020-07-08T09:23:19Z</time>
      </trkpt>
      <trkpt lat="47.79144" lon="-3.53048">
        <ele>2</ele>
        <time>2020-07-08T09:23:20Z</time>
      </trkpt>
      <trkpt lat="47.79148" lon="-3.53044">
        <ele>2.02</ele>
        <time>2020-07-08T09:23:21Z</time>
      </trkpt>
      <trkpt lat="47.79153" lon="-3.53041">
        <ele>2.11</ele>
        <time>2020-07-08T09:23:22Z</time>
      </trkpt>
      <trkpt lat="47.79157" lon="-3.53038">
        <ele>2.25</ele>
        <time>2020-07-08T09:23:23Z</time>
      </trkpt>
      <trkpt lat="47.79161" lon="-3.53037">
        <ele>2.43</ele>
        <time>2020-07-08T09:23:24Z</time>
      </trkpt>
      <trkpt lat="47.79165" lon="-3.53035">
        <ele>2.59</ele>
        <time>2020-07-08T09:23:25Z</time>
      </trkpt>
      <trkpt lat="47.79169" lon="-3.53034">
        <ele>2.81</ele>
        <time>2020-07-08T09:23:26Z</time>
      </trkpt>
      <trkpt lat="47.79173" lon="-3.53033">
        <ele>3.14</ele>
        <time>2020-07-08T09:23:27Z</time>
      </trkpt>
      <trkpt lat="47.79177" lon="-3.53032">
        <ele>3.44</ele>
        <time>2020-07-08T09:23:28Z</time>
      </trkpt>
      <trkpt lat="47.7918" lon="-3.53031">
        <ele>3.7</ele>
        <time>2020-07-08T09:23:29Z</time>
      </trkpt>
      <trkpt lat="47.79184" lon="-3.53029">
        <ele>3.92</ele>
        <time>2020-07-08T09:23:30Z</time>
      </trkpt>
      <trkpt lat="47.79188" lon="-3.53026">
        <ele>4.11</ele>
        <time>2020-07-08T09:23:31Z</time>
      </trkpt>
      <trkpt lat="47.7919" lon="-3.53023">
        <ele>4.19</ele>
        <time>2020-07-08T09:23:32Z</time>
      </trkpt>
      <trkpt lat="47.79192" lon="-3.53018">
        <ele>4.12</ele>
        <time>2020-07-08T09:23:33Z</time>
      </trkpt>
      <trkpt lat="47.79194" lon="-3.53013">
        <ele>3.94</ele>
        <time>2020-07-08T09:23:34Z</time>
      </trkpt>
      <trkpt lat="47.79195" lon="-3.53006">
        <ele>3.65</ele>
        <time>2020-07-08T09:23:35Z</time>
      </trkpt>
      <trkpt lat="47.79196" lon="-3.53">
        <ele>3.31</ele>
        <time>2020-07-08T09:23:36Z</time>
      </trkpt>
      <trkpt lat="47.79197" lon="-3.52994">
        <ele>2.96</ele>
        <time>2020-07-08T09:23:37Z</time>
      </trkpt>
      <trkpt lat="47.79197" lon="-3.52988">
        <ele>2.6</ele>
        <time>2020-07-08T09:23:38Z</time>
      </trkpt>
      <trkpt lat="47.79198" lon="-3.52982">
        <ele>2.28</ele>
        <time>2020-07-08T09:23:39Z</time>
      </trkpt>
      <trkpt lat="47.79199" lon="-3.52975">
        <ele>1.97</ele>
        <time>2020-07-08T09:23:40Z</time>
      </trkpt>
      <trkpt lat="47.792" lon="-3.52969">
        <ele>1.74</ele>
        <time>2020-07-08T09:23:41Z</time>
      </trkpt>
      <trkpt lat="47.79201" lon="-3.52963">
        <ele>1.67</ele>
        <time>2020-07-08T09:23:42Z</time>
      </trkpt>
      <trkpt lat="47.79202" lon="-3.52956">
        <ele>1.65</ele>
        <time>2020-07-08T09:23:43Z</time>
      </trkpt>
      <trkpt lat="47.79203" lon="-3.5295">
        <ele>1.69</ele>
        <time>2020-07-08T09:23:44Z</time>
      </trkpt>
      <trkpt lat="47.79205" lon="-3.52944">
        <ele>1.82</ele>
        <time>2020-07-08T09:23:45Z</time>
      </trkpt>
      <trkpt lat="47.79207" lon="-3.52938">
        <ele>1.92</ele>
        <time>2020-07-08T09:23:46Z</time>
      </trkpt>
      <trkpt lat="47.79209" lon="-3.52933">
        <ele>1.95</ele>
        <time>2020-07-08T09:23:47Z</time>
      </trkpt>
      <trkpt lat="47.79211" lon="-3.52928">
        <ele>1.95</ele>
        <time>2020-07-08T09:23:48Z</time>
      </trkpt>
      <trkpt lat="47.79212" lon="-3.52925">
        <ele>1.88</ele>
        <time>2020-07-08T09:23:49Z</time>
      </trkpt>
      <trkpt lat="47.79215" lon="-3.52921">
        <ele>1.82</ele>
        <time>2020-07-08T09:23:50Z</time>
      </trkpt>
      <trkpt lat="47.79218" lon="-3.52916">
        <ele>1.73</ele>
        <time>2020-07-08T09:23:51Z</time>
      </trkpt>
      <trkpt lat="47.79222" lon="-3.52912">
        <ele>1.64</ele>
        <time>2020-07-08T09:23:52Z</time>
      </trkpt>
      <trkpt lat="47.79225" lon="-3.52907">
        <ele>1.68</ele>
        <time>2020-07-08T09:23:53Z</time>
      </trkpt>
      <trkpt lat="47.79228" lon="-3.52903">
        <ele>1.79</ele>
        <time>2020-07-08T09:23:54Z</time>
      </trkpt>
      <trkpt lat="47.79231" lon="-3.52899">
        <ele>1.91</ele>
        <time>2020-07-08T09:23:55Z</time>
      </trkpt>
      <trkpt lat="47.79233" lon="-3.52894">
        <ele>1.98</ele>
        <time>2020-07-08T09:23:56Z</time>
      </trkpt>
      <trkpt lat="47.79236" lon="-3.5289">
        <ele>2.06</ele>
        <time>2020-07-08T09:23:57Z</time>
      </trkpt>
      <trkpt lat="47.7924" lon="-3.52886">
        <ele>2.27</ele>
        <time>2020-07-08T09:23:58Z</time>
      </trkpt>
      <trkpt lat="47.79243" lon="-3.52883">
        <ele>2.46</ele>
        <time>2020-07-08T09:23:59Z</time>
      </trkpt>
      <trkpt lat="47.79247" lon="-3.52879">
        <ele>2.56</ele>
        <time>2020-07-08T09:24:00Z</time>
      </trkpt>
      <trkpt lat="47.79251" lon="-3.52875">
        <ele>2.55</ele>
        <time>2020-07-08T09:24:01Z</time>
      </trkpt>
      <trkpt lat="47.79254" lon="-3.52873">
        <ele>2.58</ele>
        <time>2020-07-08T09:24:02Z</time>
      </trkpt>
      <trkpt lat="47.79258" lon="-3.52871">
        <ele>2.65</ele>
        <time>2020-07-08T09:24:03Z</time>
      </trkpt>
      <trkpt lat="47.79262" lon="-3.5287">
        <ele>2.81</ele>
        <time>2020-07-08T09:24:04Z</time>
      </trkpt>
      <trkpt lat="47.79267" lon="-3.5287">
        <ele>3.07</ele>
        <time>2020-07-08T09:24:05Z</time>
      </trkpt>
      <trkpt lat="47.79272" lon="-3.5287">
        <ele>3.38</ele>
        <time>2020-07-08T09:24:06Z</time>
      </trkpt>
      <trkpt lat="47.79276" lon="-3.52869">
        <ele>3.63</ele>
        <time>2020-07-08T09:24:07Z</time>
      </trkpt>
      <trkpt lat="47.7928" lon="-3.52868">
        <ele>3.8</ele>
        <time>2020-07-08T09:24:08Z</time>
      </trkpt>
      <trkpt lat="47.79285" lon="-3.52867">
        <ele>3.87</ele>
        <time>2020-07-08T09:24:09Z</time>
      </trkpt>
      <trkpt lat="47.79289" lon="-3.52866">
        <ele>3.88</ele>
        <time>2020-07-08T09:24:10Z</time>
      </trkpt>
      <trkpt lat="47.79293" lon="-3.52864">
        <ele>3.87</ele>
        <time>2020-07-08T09:24:11Z</time>
      </trkpt>
      <trkpt lat="47.79296" lon="-3.52861">
        <ele>3.74</ele>
        <time>2020-07-08T09:24:12Z</time>
      </trkpt>
      <trkpt lat="47.79299" lon="-3.52858">
        <ele>3.6</ele>
        <time>2020-07-08T09:24:13Z</time>
      </trkpt>
      <trkpt lat="47.79302" lon="-3.52856">
        <ele>3.51</ele>
        <time>2020-07-08T09:24:14Z</time>
      </trkpt>
      <trkpt lat="47.79305" lon="-3.52852">
        <ele>3.37</ele>
        <time>2020-07-08T09:24:15Z</time>
      </trkpt>
      <trkpt lat="47.79308" lon="-3.52847">
        <ele>3.23</ele>
        <time>2020-07-08T09:24:16Z</time>
      </trkpt>
      <trkpt lat="47.79313" lon="-3.52844">
        <ele>3.17</ele>
        <time>2020-07-08T09:24:17Z</time>
      </trkpt>
      <trkpt lat="47.79317" lon="-3.52843">
        <ele>3.2</ele>
        <time>2020-07-08T09:24:18Z</time>
      </trkpt>
      <trkpt lat="47.79322" lon="-3.52842">
        <ele>3.31</ele>
        <time>2020-07-08T09:24:19Z</time>
      </trkpt>
      <trkpt lat="47.79325" lon="-3.5284">
        <ele>3.32</ele>
        <time>2020-07-08T09:24:20Z</time>
      </trkpt>
      <trkpt lat="47.79328" lon="-3.52836">
        <ele>3.2</ele>
        <time>2020-07-08T09:24:21Z</time>
      </trkpt>
      <trkpt lat="47.79332" lon="-3.52833">
        <ele>3.01</ele>
        <time>2020-07-08T09:24:22Z</time>
      </trkpt>
      <trkpt lat="47.79336" lon="-3.52832">
        <ele>2.94</ele>
        <time>2020-07-08T09:24:23Z</time>
      </trkpt>
      <trkpt lat="47.79339" lon="-3.52832">
        <ele>3.01</ele>
        <time>2020-07-08T09:24:24Z</time>
      </trkpt>
      <trkpt lat="47.79342" lon="-3.52833">
        <ele>3.2</ele>
        <time>2020-07-08T09:24:25Z</time>
      </trkpt>
      <trkpt lat="47.79345" lon="-3.52833">
        <ele>3.34</ele>
        <time>2020-07-08T09:24:26Z</time>
      </trkpt>
      <trkpt lat="47.79348" lon="-3.52832">
        <ele>3.38</ele>
        <time>2020-07-08T09:24:27Z</time>
      </trkpt>
      <trkpt lat="47.79352" lon="-3.5283">
        <ele>3.41</ele>
        <time>2020-07-08T09:24:28Z</time>
      </trkpt>
      <trkpt lat="47.79356" lon="-3.52828">
        <ele>3.4</ele>
        <time>2020-07-08T09:24:29Z</time>
      </trkpt>
      <trkpt lat="47.7936" lon="-3.52824">
        <ele>3.28</ele>
        <time>2020-07-08T09:24:30Z</time>
      </trkpt>
      <trkpt lat="47.79362" lon="-3.52818">
        <ele>3.1</ele>
        <time>2020-07-08T09:24:31Z</time>
      </trkpt>
      <trkpt lat="47.79369" lon="-3.52807">
        <ele>3.02</ele>
        <time>2020-07-08T09:24:32Z</time>
      </trkpt>
      <trkpt lat="47.79374" lon="-3.52799">
        <ele>2.82</ele>
        <time>2020-07-08T09:24:33Z</time>
      </trkpt>
      <trkpt lat="47.79378" lon="-3.52795">
        <ele>2.63</ele>
        <time>2020-07-08T09:24:34Z</time>
      </trkpt>
      <trkpt lat="47.7938" lon="-3.52791">
        <ele>2.44</ele>
        <time>2020-07-08T09:24:35Z</time>
      </trkpt>
      <trkpt lat="47.79382" lon="-3.5279">
        <ele>2.32</ele>
        <time>2020-07-08T09:24:36Z</time>
      </trkpt>
      <trkpt lat="47.79383" lon="-3.52789">
        <ele>2.27</ele>
        <time>2020-07-08T09:24:37Z</time>
      </trkpt>
      <trkpt lat="47.79384" lon="-3.52789">
        <ele>2.27</ele>
        <time>2020-07-08T09:24:38Z</time>
      </trkpt>
      <trkpt lat="47.79385" lon="-3.52788">
        <ele>2.27</ele>
        <time>2020-07-08T09:24:39Z</time>
      </trkpt>
      <trkpt lat="47.79386" lon="-3.52788">
        <ele>2.24</ele>
        <time>2020-07-08T09:24:40Z</time>
      </trkpt>
      <trkpt lat="47.79387" lon="-3.52787">
        <ele>2.27</ele>
        <time>2020-07-08T09:24:41Z</time>
      </trkpt>
      <trkpt lat="47.79389" lon="-3.52787">
        <ele>2.34</ele>
        <time>2020-07-08T09:24:42Z</time>
      </trkpt>
      <trkpt lat="47.79391" lon="-3.52787">
        <ele>2.49</ele>
        <time>2020-07-08T09:24:43Z</time>
      </trkpt>
      <trkpt lat="47.79394" lon="-3.52785">
        <ele>2.59</ele>
        <time>2020-07-08T09:24:44Z</time>
      </trkpt>
      <trkpt lat="47.79397" lon="-3.52783">
        <ele>2.7</ele>
        <time>2020-07-08T09:24:45Z</time>
      </trkpt>
      <trkpt lat="47.794" lon="-3.52782">
        <ele>2.89</ele>
        <time>2020-07-08T09:24:46Z</time>
      </trkpt>
      <trkpt lat="47.79402" lon="-3.52781">
        <ele>3.05</ele>
        <time>2020-07-08T09:24:47Z</time>
      </trkpt>
      <trkpt lat="47.79405" lon="-3.5278">
        <ele>3.2</ele>
        <time>2020-07-08T09:24:48Z</time>
      </trkpt>
      <trkpt lat="47.79407" lon="-3.52779">
        <ele>3.26</ele>
        <time>2020-07-08T09:24:49Z</time>
      </trkpt>
      <trkpt lat="47.79409" lon="-3.52778">
        <ele>3.24</ele>
        <time>2020-07-08T09:24:50Z</time>
      </trkpt>
      <trkpt lat="47.79411" lon="-3.52777">
        <ele>3.25</ele>
        <time>2020-07-08T09:24:51Z</time>
      </trkpt>
      <trkpt lat="47.79412" lon="-3.52775">
        <ele>3.2</ele>
        <time>2020-07-08T09:24:52Z</time>
      </trkpt>
      <trkpt lat="47.79414" lon="-3.52774">
        <ele>3.22</ele>
        <time>2020-07-08T09:24:53Z</time>
      </trkpt>
      <trkpt lat="47.79415" lon="-3.52774">
        <ele>3.35</ele>
        <time>2020-07-08T09:24:54Z</time>
      </trkpt>
      <trkpt lat="47.79417" lon="-3.52775">
        <ele>3.49</ele>
        <time>2020-07-08T09:24:55Z</time>
      </trkpt>
      <trkpt lat="47.79418" lon="-3.52776">
        <ele>3.48</ele>
        <time>2020-07-08T09:24:56Z</time>
      </trkpt>
      <trkpt lat="47.7942" lon="-3.52777">
        <ele>3.47</ele>
        <time>2020-07-08T09:24:57Z</time>
      </trkpt>
      <trkpt lat="47.79421" lon="-3.52779">
        <ele>3.65</ele>
        <time>2020-07-08T09:24:58Z</time>
      </trkpt>
      <trkpt lat="47.79422" lon="-3.52781">
        <ele>3.9</ele>
        <time>2020-07-08T09:24:59Z</time>
      </trkpt>
      <trkpt lat="47.79423" lon="-3.52784">
        <ele>4.29</ele>
        <time>2020-07-08T09:25:00Z</time>
      </trkpt>
      <trkpt lat="47.79424" lon="-3.52788">
        <ele>4.86</ele>
        <time>2020-07-08T09:25:01Z</time>
      </trkpt>
      <trkpt lat="47.79424" lon="-3.52791">
        <ele>5.42</ele>
        <time>2020-07-08T09:25:02Z</time>
      </trkpt>
      <trkpt lat="47.79426" lon="-3.52796">
        <ele>6.08</ele>
        <time>2020-07-08T09:25:03Z</time>
      </trkpt>
      <trkpt lat="47.79427" lon="-3.52799">
        <ele>6.56</ele>
        <time>2020-07-08T09:25:04Z</time>
      </trkpt>
      <trkpt lat="47.79428" lon="-3.52802">
        <ele>7.09</ele>
        <time>2020-07-08T09:25:05Z</time>
      </trkpt>
      <trkpt lat="47.79429" lon="-3.52806">
        <ele>7.58</ele>
        <time>2020-07-08T09:25:06Z</time>
      </trkpt>
      <trkpt lat="47.79431" lon="-3.52809">
        <ele>7.95</ele>
        <time>2020-07-08T09:25:07Z</time>
      </trkpt>
      <trkpt lat="47.79433" lon="-3.52812">
        <ele>8.29</ele>
        <time>2020-07-08T09:25:08Z</time>
      </trkpt>
      <trkpt lat="47.79434" lon="-3.52815">
        <ele>8.68</ele>
        <time>2020-07-08T09:25:09Z</time>
      </trkpt>
      <trkpt lat="47.79436" lon="-3.52818">
        <ele>9.06</ele>
        <time>2020-07-08T09:25:10Z</time>
      </trkpt>
      <trkpt lat="47.79438" lon="-3.52819">
        <ele>9.31</ele>
        <time>2020-07-08T09:25:11Z</time>
      </trkpt>
      <trkpt lat="47.7944" lon="-3.5282">
        <ele>9.5</ele>
        <time>2020-07-08T09:25:12Z</time>
      </trkpt>
      <trkpt lat="47.79442" lon="-3.52821">
        <ele>9.52</ele>
        <time>2020-07-08T09:25:13Z</time>
      </trkpt>
      <trkpt lat="47.79443" lon="-3.52821">
        <ele>9.49</ele>
        <time>2020-07-08T09:25:14Z</time>
      </trkpt>
      <trkpt lat="47.79445" lon="-3.52821">
        <ele>9.44</ele>
        <time>2020-07-08T09:25:15Z</time>
      </trkpt>
      <trkpt lat="47.79447" lon="-3.52822">
        <ele>9.53</ele>
        <time>2020-07-08T09:25:16Z</time>
      </trkpt>
      <trkpt lat="47.79449" lon="-3.52823">
        <ele>9.71</ele>
        <time>2020-07-08T09:25:17Z</time>
      </trkpt>
      <trkpt lat="47.79451" lon="-3.52823">
        <ele>9.85</ele>
        <time>2020-07-08T09:25:18Z</time>
      </trkpt>
      <trkpt lat="47.79453" lon="-3.52824">
        <ele>10.06</ele>
        <time>2020-07-08T09:25:19Z</time>
      </trkpt>
      <trkpt lat="47.79456" lon="-3.52824">
        <ele>10.14</ele>
        <time>2020-07-08T09:25:20Z</time>
      </trkpt>
      <trkpt lat="47.79459" lon="-3.52825">
        <ele>10.39</ele>
        <time>2020-07-08T09:25:21Z</time>
      </trkpt>
      <trkpt lat="47.79462" lon="-3.52826">
        <ele>10.76</ele>
        <time>2020-07-08T09:25:22Z</time>
      </trkpt>
      <trkpt lat="47.79464" lon="-3.52828">
        <ele>11.41</ele>
        <time>2020-07-08T09:25:23Z</time>
      </trkpt>
      <trkpt lat="47.79466" lon="-3.52831">
        <ele>12.37</ele>
        <time>2020-07-08T09:25:24Z</time>
      </trkpt>
      <trkpt lat="47.79468" lon="-3.52834">
        <ele>13.46</ele>
        <time>2020-07-08T09:25:25Z</time>
      </trkpt>
      <trkpt lat="47.79471" lon="-3.52837">
        <ele>14.11</ele>
        <time>2020-07-08T09:25:26Z</time>
      </trkpt>
      <trkpt lat="47.79474" lon="-3.52841">
        <ele>14.34</ele>
        <time>2020-07-08T09:25:27Z</time>
      </trkpt>
      <trkpt lat="47.79477" lon="-3.52845">
        <ele>14.32</ele>
        <time>2020-07-08T09:25:28Z</time>
      </trkpt>
      <trkpt lat="47.7948" lon="-3.52847">
        <ele>14.14</ele>
        <time>2020-07-08T09:25:29Z</time>
      </trkpt>
      <trkpt lat="47.79483" lon="-3.52848">
        <ele>13.82</ele>
        <time>2020-07-08T09:25:30Z</time>
      </trkpt>
      <trkpt lat="47.79486" lon="-3.52849">
        <ele>13.49</ele>
        <time>2020-07-08T09:25:31Z</time>
      </trkpt>
      <trkpt lat="47.79489" lon="-3.52849">
        <ele>13.04</ele>
        <time>2020-07-08T09:25:32Z</time>
      </trkpt>
      <trkpt lat="47.79493" lon="-3.5285">
        <ele>12.62</ele>
        <time>2020-07-08T09:25:33Z</time>
      </trkpt>
      <trkpt lat="47.79497" lon="-3.5285">
        <ele>12.24</ele>
        <time>2020-07-08T09:25:34Z</time>
      </trkpt>
      <trkpt lat="47.79499" lon="-3.52852">
        <ele>12.26</ele>
        <time>2020-07-08T09:25:35Z</time>
      </trkpt>
      <trkpt lat="47.79501" lon="-3.52854">
        <ele>12.56</ele>
        <time>2020-07-08T09:25:36Z</time>
      </trkpt>
      <trkpt lat="47.79503" lon="-3.52857">
        <ele>12.91</ele>
        <time>2020-07-08T09:25:37Z</time>
      </trkpt>
      <trkpt lat="47.79505" lon="-3.52861">
        <ele>13.47</ele>
        <time>2020-07-08T09:25:38Z</time>
      </trkpt>
      <trkpt lat="47.79507" lon="-3.52864">
        <ele>13.66</ele>
        <time>2020-07-08T09:25:39Z</time>
      </trkpt>
      <trkpt lat="47.79509" lon="-3.52868">
        <ele>13.81</ele>
        <time>2020-07-08T09:25:40Z</time>
      </trkpt>
      <trkpt lat="47.79512" lon="-3.52871">
        <ele>13.88</ele>
        <time>2020-07-08T09:25:41Z</time>
      </trkpt>
      <trkpt lat="47.79516" lon="-3.52873">
        <ele>13.73</ele>
        <time>2020-07-08T09:25:42Z</time>
      </trkpt>
      <trkpt lat="47.7952" lon="-3.52875">
        <ele>13.46</ele>
        <time>2020-07-08T09:25:43Z</time>
      </trkpt>
      <trkpt lat="47.79524" lon="-3.52876">
        <ele>13.14</ele>
        <time>2020-07-08T09:25:44Z</time>
      </trkpt>
      <trkpt lat="47.79528" lon="-3.52877">
        <ele>12.66</ele>
        <time>2020-07-08T09:25:45Z</time>
      </trkpt>
      <trkpt lat="47.79533" lon="-3.52878">
        <ele>12.24</ele>
        <time>2020-07-08T09:25:46Z</time>
      </trkpt>
      <trkpt lat="47.79537" lon="-3.52879">
        <ele>11.95</ele>
        <time>2020-07-08T09:25:47Z</time>
      </trkpt>
      <trkpt lat="47.7954" lon="-3.5288">
        <ele>11.89</ele>
        <time>2020-07-08T09:25:48Z</time>
      </trkpt>
      <trkpt lat="47.79543" lon="-3.52881">
        <ele>11.75</ele>
        <time>2020-07-08T09:25:49Z</time>
      </trkpt>
      <trkpt lat="47.79545" lon="-3.52881">
        <ele>11.58</ele>
        <time>2020-07-08T09:25:50Z</time>
      </trkpt>
      <trkpt lat="47.79546" lon="-3.52882">
        <ele>11.46</ele>
        <time>2020-07-08T09:25:51Z</time>
      </trkpt>
      <trkpt lat="47.79547" lon="-3.52881">
        <ele>11.32</ele>
        <time>2020-07-08T09:25:52Z</time>
      </trkpt>
      <trkpt lat="47.79547" lon="-3.52881">
        <ele>11.16</ele>
        <time>2020-07-08T09:25:53Z</time>
      </trkpt>
      <trkpt lat="47.79547" lon="-3.52881">
        <ele>11.11</ele>
        <time>2020-07-08T09:25:54Z</time>
      </trkpt>
      <trkpt lat="47.79547" lon="-3.52881">
        <ele>11.1</ele>
        <time>2020-07-08T09:25:55Z</time>
      </trkpt>
      <trkpt lat="47.79547" lon="-3.52881">
        <ele>11.09</ele>
        <time>2020-07-08T09:25:56Z</time>
      </trkpt>
      <trkpt lat="47.79547" lon="-3.52881">
        <ele>11.09</ele>
        <time>2020-07-08T09:25:57Z</time>
      </trkpt>
      <trkpt lat="47.79547" lon="-3.52881">
        <ele>11.09</ele>
        <time>2020-07-08T09:25:58Z</time>
      </trkpt>
      <trkpt lat="47.79547" lon="-3.52881">
        <ele>11.09</ele>
        <time>2020-07-08T09:25:59Z</time>
      </trkpt>
      <trkpt lat="47.79547" lon="-3.52881">
        <ele>11.09</ele>
        <time>2020-07-08T09:26:00Z</time>
      </trkpt>
      <trkpt lat="47.79547" lon="-3.52881">
        <ele>11.09</ele>
        <time>2020-07-08T09:26:01Z</time>
      </trkpt>
      <trkpt lat="47.79547" lon="-3.52881">
        <ele>11.09</ele>
        <time>2020-07-08T09:26:02Z</time>
      </trkpt>
      <trkpt lat="47.79547" lon="-3.52881">
        <ele>11.09</ele>
        <time>2020-07-08T09:26:03Z</time>
      </trkpt>
      <trkpt lat="47.79547" lon="-3.52881">
        <ele>11.09</ele>
        <time>2020-07-08T09:26:04Z</time>
      </trkpt>
      <trkpt lat="47.79547" lon="-3.52881">
        <ele>11.09</ele>
        <time>2020-07-08T09:26:05Z</time>
      </trkpt>
      <trkpt lat="47.79547" lon="-3.52881">
        <ele>11.09</ele>
        <time>2020-07-08T09:26:06Z</time>
      </trkpt>
      <trkpt lat="47.79547" lon="-3.52881">
        <ele>11.09</ele>
        <time>2020-07-08T09:26:07Z</time>
      </trkpt>
      <trkpt lat="47.79547" lon="-3.52881">
        <ele>11.09</ele>
        <time>2020-07-08T09:26:08Z</time>
      </trkpt>
      <trkpt lat="47.79547" lon="-3.52881">
        <ele>11.09</ele>
        <time>2020-07-08T09:26:09Z</time>
      </trkpt>
      <trkpt lat="47.79547" lon="-3.52881">
        <ele>11.09</ele>
        <time>2020-07-08T09:26:10Z</time>
      </trkpt>
      <trkpt lat="47.79547" lon="-3.52881">
        <ele>11.09</ele>
        <time>2020-07-08T09:26:11Z</time>
      </trkpt>
      <trkpt lat="47.79556" lon="-3.52887">
        <ele>11.44</ele>
        <time>2020-07-08T09:26:12Z</time>
      </trkpt>
      <trkpt lat="47.79556" lon="-3.52888">
        <ele>11.78</ele>
        <time>2020-07-08T09:26:13Z</time>
      </trkpt>
      <trkpt lat="47.79557" lon="-3.52889">
        <ele>12.09</ele>
        <time>2020-07-08T09:26:14Z</time>
      </trkpt>
      <trkpt lat="47.79557" lon="-3.5289">
        <ele>12.47</ele>
        <time>2020-07-08T09:26:15Z</time>
      </trkpt>
      <trkpt lat="47.79557" lon="-3.5289">
        <ele>12.59</ele>
        <time>2020-07-08T09:26:16Z</time>
      </trkpt>
      <trkpt lat="47.79557" lon="-3.5289">
        <ele>12.62</ele>
        <time>2020-07-08T09:26:17Z</time>
      </trkpt>
      <trkpt lat="47.79557" lon="-3.5289">
        <ele>12.63</ele>
        <time>2020-07-08T09:26:18Z</time>
      </trkpt>
      <trkpt lat="47.79557" lon="-3.5289">
        <ele>12.63</ele>
        <time>2020-07-08T09:26:19Z</time>
      </trkpt>
      <trkpt lat="47.79557" lon="-3.5289">
        <ele>12.63</ele>
        <time>2020-07-08T09:26:20Z</time>
      </trkpt>
      <trkpt lat="47.79557" lon="-3.5289">
        <ele>12.63</ele>
        <time>2020-07-08T09:26:21Z</time>
      </trkpt>
      <trkpt lat="47.79557" lon="-3.5289">
        <ele>12.63</ele>
        <time>2020-07-08T09:26:22Z</time>
      </trkpt>
      <trkpt lat="47.79557" lon="-3.5289">
        <ele>12.63</ele>
        <time>2020-07-08T09:26:23Z</time>
      </trkpt>
      <trkpt lat="47.79557" lon="-3.5289">
        <ele>12.63</ele>
        <time>2020-07-08T09:26:24Z</time>
      </trkpt>
      <trkpt lat="47.79557" lon="-3.5289">
        <ele>12.63</ele>
        <time>2020-07-08T09:26:25Z</time>
      </trkpt>
      <trkpt lat="47.79557" lon="-3.5289">
        <ele>12.63</ele>
        <time>2020-07-08T09:26:26Z</time>
      </trkpt>
      <trkpt lat="47.79557" lon="-3.5289">
        <ele>12.63</ele>
        <time>2020-07-08T09:26:27Z</time>
      </trkpt>
      <trkpt lat="47.79557" lon="-3.5289">
        <ele>12.63</ele>
        <time>2020-07-08T09:26:28Z</time>
      </trkpt>
      <trkpt lat="47.79557" lon="-3.5289">
        <ele>12.63</ele>
        <time>2020-07-08T09:26:29Z</time>
      </trkpt>
      <trkpt lat="47.79557" lon="-3.5289">
        <ele>12.63</ele>
        <time>2020-07-08T09:26:30Z</time>
      </trkpt>
      <trkpt lat="47.79557" lon="-3.5289">
        <ele>12.63</ele>
        <time>2020-07-08T09:26:31Z</time>
      </trkpt>
      <trkpt lat="47.79566" lon="-3.52891">
        <ele>14.36</ele>
        <time>2020-07-08T09:26:32Z</time>
      </trkpt>
      <trkpt lat="47.79567" lon="-3.5289">
        <ele>14.81</ele>
        <time>2020-07-08T09:26:33Z</time>
      </trkpt>
      <trkpt lat="47.79567" lon="-3.5289">
        <ele>14.95</ele>
        <time>2020-07-08T09:26:34Z</time>
      </trkpt>
      <trkpt lat="47.79568" lon="-3.52889">
        <ele>14.98</ele>
        <time>2020-07-08T09:26:35Z</time>
      </trkpt>
      <trkpt lat="47.79568" lon="-3.52888">
        <ele>14.79</ele>
        <time>2020-07-08T09:26:36Z</time>
      </trkpt>
      <trkpt lat="47.79568" lon="-3.52888">
        <ele>14.73</ele>
        <time>2020-07-08T09:26:37Z</time>
      </trkpt>
      <trkpt lat="47.79569" lon="-3.52885">
        <ele>14.71</ele>
        <time>2020-07-08T09:26:38Z</time>
      </trkpt>
      <trkpt lat="47.79569" lon="-3.52883">
        <ele>14.28</ele>
        <time>2020-07-08T09:26:39Z</time>
      </trkpt>
      <trkpt lat="47.79568" lon="-3.52882">
        <ele>13.86</ele>
        <time>2020-07-08T09:26:40Z</time>
      </trkpt>
      <trkpt lat="47.79568" lon="-3.5288">
        <ele>13.51</ele>
        <time>2020-07-08T09:26:41Z</time>
      </trkpt>
      <trkpt lat="47.79568" lon="-3.52878">
        <ele>13.12</ele>
        <time>2020-07-08T09:26:42Z</time>
      </trkpt>
      <trkpt lat="47.79569" lon="-3.52876">
        <ele>12.73</ele>
        <time>2020-07-08T09:26:43Z</time>
      </trkpt>
      <trkpt lat="47.79569" lon="-3.52874">
        <ele>12.35</ele>
        <time>2020-07-08T09:26:44Z</time>
      </trkpt>
      <trkpt lat="47.79569" lon="-3.52872">
        <ele>11.97</ele>
        <time>2020-07-08T09:26:45Z</time>
      </trkpt>
      <trkpt lat="47.7957" lon="-3.52869">
        <ele>11.63</ele>
        <time>2020-07-08T09:26:46Z</time>
      </trkpt>
      <trkpt lat="47.79571" lon="-3.52866">
        <ele>11.33</ele>
        <time>2020-07-08T09:26:47Z</time>
      </trkpt>
      <trkpt lat="47.79572" lon="-3.52862">
        <ele>10.75</ele>
        <time>2020-07-08T09:26:48Z</time>
      </trkpt>
      <trkpt lat="47.79574" lon="-3.52857">
        <ele>10.15</ele>
        <time>2020-07-08T09:26:49Z</time>
      </trkpt>
      <trkpt lat="47.79575" lon="-3.52852">
        <ele>9.43</ele>
        <time>2020-07-08T09:26:50Z</time>
      </trkpt>
      <trkpt lat="47.79577" lon="-3.52846">
        <ele>8.6</ele>
        <time>2020-07-08T09:26:51Z</time>
      </trkpt>
      <trkpt lat="47.79579" lon="-3.52841">
        <ele>8.03</ele>
        <time>2020-07-08T09:26:52Z</time>
      </trkpt>
      <trkpt lat="47.79582" lon="-3.52837">
        <ele>7.74</ele>
        <time>2020-07-08T09:26:53Z</time>
      </trkpt>
      <trkpt lat="47.79585" lon="-3.52832">
        <ele>7.22</ele>
        <time>2020-07-08T09:26:54Z</time>
      </trkpt>
      <trkpt lat="47.79589" lon="-3.52826">
        <ele>6.74</ele>
        <time>2020-07-08T09:26:55Z</time>
      </trkpt>
      <trkpt lat="47.79593" lon="-3.52822">
        <ele>6.39</ele>
        <time>2020-07-08T09:26:56Z</time>
      </trkpt>
      <trkpt lat="47.79596" lon="-3.52821">
        <ele>6.45</ele>
        <time>2020-07-08T09:26:57Z</time>
      </trkpt>
      <trkpt lat="47.79599" lon="-3.5282">
        <ele>6.74</ele>
        <time>2020-07-08T09:26:58Z</time>
      </trkpt>
      <trkpt lat="47.79602" lon="-3.52819">
        <ele>7.04</ele>
        <time>2020-07-08T09:26:59Z</time>
      </trkpt>
      <trkpt lat="47.79605" lon="-3.52817">
        <ele>7.37</ele>
        <time>2020-07-08T09:27:00Z</time>
      </trkpt>
      <trkpt lat="47.79609" lon="-3.52814">
        <ele>7.54</ele>
        <time>2020-07-08T09:27:01Z</time>
      </trkpt>
      <trkpt lat="47.79614" lon="-3.5281">
        <ele>7.22</ele>
        <time>2020-07-08T09:27:02Z</time>
      </trkpt>
      <trkpt lat="47.79619" lon="-3.52805">
        <ele>6.49</ele>
        <time>2020-07-08T09:27:03Z</time>
      </trkpt>
      <trkpt lat="47.79625" lon="-3.52801">
        <ele>5.75</ele>
        <time>2020-07-08T09:27:04Z</time>
      </trkpt>
      <trkpt lat="47.79631" lon="-3.52798">
        <ele>5.1</ele>
        <time>2020-07-08T09:27:05Z</time>
      </trkpt>
      <trkpt lat="47.79636" lon="-3.52794">
        <ele>4.38</ele>
        <time>2020-07-08T09:27:06Z</time>
      </trkpt>
      <trkpt lat="47.7964" lon="-3.52792">
        <ele>4.05</ele>
        <time>2020-07-08T09:27:07Z</time>
      </trkpt>
      <trkpt lat="47.79644" lon="-3.5279">
        <ele>4.11</ele>
        <time>2020-07-08T09:27:08Z</time>
      </trkpt>
      <trkpt lat="47.79647" lon="-3.52789">
        <ele>4.29</ele>
        <time>2020-07-08T09:27:09Z</time>
      </trkpt>
      <trkpt lat="47.79651" lon="-3.52787">
        <ele>4.46</ele>
        <time>2020-07-08T09:27:10Z</time>
      </trkpt>
      <trkpt lat="47.79654" lon="-3.52785">
        <ele>4.6</ele>
        <time>2020-07-08T09:27:11Z</time>
      </trkpt>
      <trkpt lat="47.79656" lon="-3.52784">
        <ele>4.89</ele>
        <time>2020-07-08T09:27:12Z</time>
      </trkpt>
      <trkpt lat="47.79659" lon="-3.52784">
        <ele>5.31</ele>
        <time>2020-07-08T09:27:13Z</time>
      </trkpt>
      <trkpt lat="47.79661" lon="-3.52784">
        <ele>5.72</ele>
        <time>2020-07-08T09:27:14Z</time>
      </trkpt>
      <trkpt lat="47.79663" lon="-3.52785">
        <ele>6.15</ele>
        <time>2020-07-08T09:27:15Z</time>
      </trkpt>
      <trkpt lat="47.79665" lon="-3.52785">
        <ele>6.47</ele>
        <time>2020-07-08T09:27:16Z</time>
      </trkpt>
      <trkpt lat="47.79666" lon="-3.52785">
        <ele>6.81</ele>
        <time>2020-07-08T09:27:17Z</time>
      </trkpt>
      <trkpt lat="47.79668" lon="-3.52785">
        <ele>7.3</ele>
        <time>2020-07-08T09:27:18Z</time>
      </trkpt>
      <trkpt lat="47.79669" lon="-3.52784">
        <ele>7.52</ele>
        <time>2020-07-08T09:27:19Z</time>
      </trkpt>
      <trkpt lat="47.7967" lon="-3.52785">
        <ele>7.78</ele>
        <time>2020-07-08T09:27:20Z</time>
      </trkpt>
      <trkpt lat="47.79671" lon="-3.52785">
        <ele>8.1</ele>
        <time>2020-07-08T09:27:21Z</time>
      </trkpt>
      <trkpt lat="47.79672" lon="-3.52785">
        <ele>8.43</ele>
        <time>2020-07-08T09:27:22Z</time>
      </trkpt>
      <trkpt lat="47.79673" lon="-3.52784">
        <ele>8.59</ele>
        <time>2020-07-08T09:27:23Z</time>
      </trkpt>
      <trkpt lat="47.79675" lon="-3.52784">
        <ele>8.81</ele>
        <time>2020-07-08T09:27:24Z</time>
      </trkpt>
      <trkpt lat="47.79675" lon="-3.52783">
        <ele>8.98</ele>
        <time>2020-07-08T09:27:25Z</time>
      </trkpt>
      <trkpt lat="47.79676" lon="-3.52783">
        <ele>9.19</ele>
        <time>2020-07-08T09:27:26Z</time>
      </trkpt>
      <trkpt lat="47.79676" lon="-3.52783">
        <ele>9.26</ele>
        <time>2020-07-08T09:27:27Z</time>
      </trkpt>
      <trkpt lat="47.79676" lon="-3.52783">
        <ele>9.28</ele>
        <time>2020-07-08T09:27:28Z</time>
      </trkpt>
      <trkpt lat="47.79676" lon="-3.52783">
        <ele>9.29</ele>
        <time>2020-07-08T09:27:29Z</time>
      </trkpt>
      <trkpt lat="47.79676" lon="-3.52783">
        <ele>9.29</ele>
        <time>2020-07-08T09:27:30Z</time>
      </trkpt>
      <trkpt lat="47.79676" lon="-3.52783">
        <ele>9.29</ele>
        <time>2020-07-08T09:27:31Z</time>
      </trkpt>
      <trkpt lat="47.79676" lon="-3.52783">
        <ele>9.29</ele>
        <time>2020-07-08T09:27:32Z</time>
      </trkpt>
      <trkpt lat="47.79676" lon="-3.52783">
        <ele>9.29</ele>
        <time>2020-07-08T09:27:33Z</time>
      </trkpt>
      <trkpt lat="47.79676" lon="-3.52783">
        <ele>9.29</ele>
        <time>2020-07-08T09:27:34Z</time>
      </trkpt>
      <trkpt lat="47.79676" lon="-3.52783">
        <ele>9.29</ele>
        <time>2020-07-08T09:27:35Z</time>
      </trkpt>
      <trkpt lat="47.79676" lon="-3.52783">
        <ele>9.29</ele>
        <time>2020-07-08T09:27:36Z</time>
      </trkpt>
      <trkpt lat="47.79676" lon="-3.52783">
        <ele>9.29</ele>
        <time>2020-07-08T09:27:37Z</time>
      </trkpt>
      <trkpt lat="47.79676" lon="-3.52783">
        <ele>9.29</ele>
        <time>2020-07-08T09:27:38Z</time>
      </trkpt>
      <trkpt lat="47.79676" lon="-3.52783">
        <ele>9.29</ele>
        <time>2020-07-08T09:27:39Z</time>
      </trkpt>
      <trkpt lat="47.79676" lon="-3.52783">
        <ele>9.29</ele>
        <time>2020-07-08T09:27:40Z</time>
      </trkpt>
      <trkpt lat="47.79676" lon="-3.52783">
        <ele>9.29</ele>
        <time>2020-07-08T09:27:41Z</time>
      </trkpt>
      <trkpt lat="47.79676" lon="-3.52783">
        <ele>9.29</ele>
        <time>2020-07-08T09:27:42Z</time>
      </trkpt>
      <trkpt lat="47.79686" lon="-3.52779">
        <ele>10.43</ele>
        <time>2020-07-08T09:27:43Z</time>
      </trkpt>
      <trkpt lat="47.79687" lon="-3.52779">
        <ele>10.91</ele>
        <time>2020-07-08T09:27:44Z</time>
      </trkpt>
      <trkpt lat="47.79688" lon="-3.5278">
        <ele>11.39</ele>
        <time>2020-07-08T09:27:45Z</time>
      </trkpt>
      <trkpt lat="47.79689" lon="-3.5278">
        <ele>11.73</ele>
        <time>2020-07-08T09:27:46Z</time>
      </trkpt>
      <trkpt lat="47.7969" lon="-3.5278">
        <ele>12.14</ele>
        <time>2020-07-08T09:27:47Z</time>
      </trkpt>
      <trkpt lat="47.79691" lon="-3.5278">
        <ele>12.43</ele>
        <time>2020-07-08T09:27:48Z</time>
      </trkpt>
      <trkpt lat="47.79692" lon="-3.5278">
        <ele>12.68</ele>
        <time>2020-07-08T09:27:49Z</time>
      </trkpt>
      <trkpt lat="47.79692" lon="-3.5278">
        <ele>12.96</ele>
        <time>2020-07-08T09:27:50Z</time>
      </trkpt>
      <trkpt lat="47.79692" lon="-3.5278">
        <ele>13.04</ele>
        <time>2020-07-08T09:27:51Z</time>
      </trkpt>
      <trkpt lat="47.79692" lon="-3.5278">
        <ele>13.07</ele>
        <time>2020-07-08T09:27:52Z</time>
      </trkpt>
      <trkpt lat="47.79694" lon="-3.52782">
        <ele>13.85</ele>
        <time>2020-07-08T09:27:53Z</time>
      </trkpt>
      <trkpt lat="47.79695" lon="-3.52782">
        <ele>14.21</ele>
        <time>2020-07-08T09:27:54Z</time>
      </trkpt>
      <trkpt lat="47.79696" lon="-3.52782">
        <ele>14.38</ele>
        <time>2020-07-08T09:27:55Z</time>
      </trkpt>
      <trkpt lat="47.79696" lon="-3.52781">
        <ele>14.42</ele>
        <time>2020-07-08T09:27:56Z</time>
      </trkpt>
      <trkpt lat="47.79696" lon="-3.52781">
        <ele>14.44</ele>
        <time>2020-07-08T09:27:57Z</time>
      </trkpt>
      <trkpt lat="47.79696" lon="-3.52781">
        <ele>14.44</ele>
        <time>2020-07-08T09:27:58Z</time>
      </trkpt>
      <trkpt lat="47.79696" lon="-3.52781">
        <ele>14.44</ele>
        <time>2020-07-08T09:27:59Z</time>
      </trkpt>
      <trkpt lat="47.79696" lon="-3.52781">
        <ele>14.44</ele>
        <time>2020-07-08T09:28:00Z</time>
      </trkpt>
      <trkpt lat="47.797" lon="-3.52779">
        <ele>14.87</ele>
        <time>2020-07-08T09:28:01Z</time>
      </trkpt>
      <trkpt lat="47.79701" lon="-3.52779">
        <ele>15.06</ele>
        <time>2020-07-08T09:28:02Z</time>
      </trkpt>
      <trkpt lat="47.79701" lon="-3.52779">
        <ele>15.09</ele>
        <time>2020-07-08T09:28:03Z</time>
      </trkpt>
      <trkpt lat="47.797" lon="-3.52779">
        <ele>15.04</ele>
        <time>2020-07-08T09:28:04Z</time>
      </trkpt>
      <trkpt lat="47.797" lon="-3.52779">
        <ele>15.02</ele>
        <time>2020-07-08T09:28:05Z</time>
      </trkpt>
      <trkpt lat="47.797" lon="-3.52779">
        <ele>15.02</ele>
        <time>2020-07-08T09:28:06Z</time>
      </trkpt>
      <trkpt lat="47.797" lon="-3.52779">
        <ele>15.02</ele>
        <time>2020-07-08T09:28:07Z</time>
      </trkpt>
      <trkpt lat="47.797" lon="-3.52779">
        <ele>15.02</ele>
        <time>2020-07-08T09:28:08Z</time>
      </trkpt>
      <trkpt lat="47.797" lon="-3.52779">
        <ele>15.01</ele>
        <time>2020-07-08T09:28:09Z</time>
      </trkpt>
      <trkpt lat="47.79704" lon="-3.52775">
        <ele>14.74</ele>
        <time>2020-07-08T09:28:10Z</time>
      </trkpt>
      <trkpt lat="47.79706" lon="-3.52771">
        <ele>14.29</ele>
        <time>2020-07-08T09:28:11Z</time>
      </trkpt>
      <trkpt lat="47.79709" lon="-3.52767">
        <ele>13.74</ele>
        <time>2020-07-08T09:28:12Z</time>
      </trkpt>
      <trkpt lat="47.79711" lon="-3.52764">
        <ele>13.29</ele>
        <time>2020-07-08T09:28:13Z</time>
      </trkpt>
      <trkpt lat="47.79712" lon="-3.5276">
        <ele>12.8</ele>
        <time>2020-07-08T09:28:14Z</time>
      </trkpt>
      <trkpt lat="47.79714" lon="-3.52756">
        <ele>12.52</ele>
        <time>2020-07-08T09:28:15Z</time>
      </trkpt>
      <trkpt lat="47.79715" lon="-3.52753">
        <ele>12.14</ele>
        <time>2020-07-08T09:28:16Z</time>
      </trkpt>
      <trkpt lat="47.79717" lon="-3.52748">
        <ele>11.85</ele>
        <time>2020-07-08T09:28:17Z</time>
      </trkpt>
      <trkpt lat="47.79718" lon="-3.52744">
        <ele>11.83</ele>
        <time>2020-07-08T09:28:18Z</time>
      </trkpt>
      <trkpt lat="47.79719" lon="-3.5274">
        <ele>11.67</ele>
        <time>2020-07-08T09:28:19Z</time>
      </trkpt>
      <trkpt lat="47.7972" lon="-3.52737">
        <ele>11.46</ele>
        <time>2020-07-08T09:28:20Z</time>
      </trkpt>
      <trkpt lat="47.79721" lon="-3.52733">
        <ele>11.29</ele>
        <time>2020-07-08T09:28:21Z</time>
      </trkpt>
      <trkpt lat="47.79722" lon="-3.5273">
        <ele>11.18</ele>
        <time>2020-07-08T09:28:22Z</time>
      </trkpt>
      <trkpt lat="47.79723" lon="-3.52725">
        <ele>11.06</ele>
        <time>2020-07-08T09:28:23Z</time>
      </trkpt>
      <trkpt lat="47.79724" lon="-3.5272">
        <ele>10.83</ele>
        <time>2020-07-08T09:28:24Z</time>
      </trkpt>
      <trkpt lat="47.79726" lon="-3.52715">
        <ele>10.61</ele>
        <time>2020-07-08T09:28:25Z</time>
      </trkpt>
      <trkpt lat="47.79728" lon="-3.52708">
        <ele>10.2</ele>
        <time>2020-07-08T09:28:26Z</time>
      </trkpt>
      <trkpt lat="47.79729" lon="-3.527">
        <ele>9.66</ele>
        <time>2020-07-08T09:28:27Z</time>
      </trkpt>
      <trkpt lat="47.79732" lon="-3.52693">
        <ele>9.37</ele>
        <time>2020-07-08T09:28:28Z</time>
      </trkpt>
      <trkpt lat="47.79734" lon="-3.52686">
        <ele>9.36</ele>
        <time>2020-07-08T09:28:29Z</time>
      </trkpt>
      <trkpt lat="47.79736" lon="-3.5268">
        <ele>9.3</ele>
        <time>2020-07-08T09:28:30Z</time>
      </trkpt>
      <trkpt lat="47.79738" lon="-3.52675">
        <ele>9.05</ele>
        <time>2020-07-08T09:28:31Z</time>
      </trkpt>
      <trkpt lat="47.79739" lon="-3.5267">
        <ele>8.69</ele>
        <time>2020-07-08T09:28:32Z</time>
      </trkpt>
      <trkpt lat="47.7974" lon="-3.52667">
        <ele>8.46</ele>
        <time>2020-07-08T09:28:33Z</time>
      </trkpt>
      <trkpt lat="47.79741" lon="-3.52663">
        <ele>8.32</ele>
        <time>2020-07-08T09:28:34Z</time>
      </trkpt>
      <trkpt lat="47.79742" lon="-3.5266">
        <ele>8.3</ele>
        <time>2020-07-08T09:28:35Z</time>
      </trkpt>
      <trkpt lat="47.79744" lon="-3.52656">
        <ele>8.35</ele>
        <time>2020-07-08T09:28:36Z</time>
      </trkpt>
      <trkpt lat="47.79745" lon="-3.5265">
        <ele>8.36</ele>
        <time>2020-07-08T09:28:37Z</time>
      </trkpt>
      <trkpt lat="47.79749" lon="-3.52644">
        <ele>8.44</ele>
        <time>2020-07-08T09:28:38Z</time>
      </trkpt>
      <trkpt lat="47.79752" lon="-3.52638">
        <ele>8.64</ele>
        <time>2020-07-08T09:28:39Z</time>
      </trkpt>
      <trkpt lat="47.79754" lon="-3.5263">
        <ele>9.15</ele>
        <time>2020-07-08T09:28:40Z</time>
      </trkpt>
      <trkpt lat="47.79755" lon="-3.52623">
        <ele>9.48</ele>
        <time>2020-07-08T09:28:41Z</time>
      </trkpt>
      <trkpt lat="47.79758" lon="-3.52616">
        <ele>10.47</ele>
        <time>2020-07-08T09:28:42Z</time>
      </trkpt>
      <trkpt lat="47.79758" lon="-3.5261">
        <ele>10.59</ele>
        <time>2020-07-08T09:28:43Z</time>
      </trkpt>
      <trkpt lat="47.79756" lon="-3.52604">
        <ele>9.54</ele>
        <time>2020-07-08T09:28:44Z</time>
      </trkpt>
      <trkpt lat="47.79754" lon="-3.52596">
        <ele>7.81</ele>
        <time>2020-07-08T09:28:45Z</time>
      </trkpt>
      <trkpt lat="47.79753" lon="-3.52588">
        <ele>6.66</ele>
        <time>2020-07-08T09:28:46Z</time>
      </trkpt>
      <trkpt lat="47.79753" lon="-3.5258">
        <ele>5.91</ele>
        <time>2020-07-08T09:28:47Z</time>
      </trkpt>
      <trkpt lat="47.79754" lon="-3.52572">
        <ele>5.4</ele>
        <time>2020-07-08T09:28:48Z</time>
      </trkpt>
      <trkpt lat="47.79755" lon="-3.52564">
        <ele>5.23</ele>
        <time>2020-07-08T09:28:49Z</time>
      </trkpt>
      <trkpt lat="47.79756" lon="-3.52556">
        <ele>5.26</ele>
        <time>2020-07-08T09:28:50Z</time>
      </trkpt>
      <trkpt lat="47.79758" lon="-3.52548">
        <ele>5.32</ele>
        <time>2020-07-08T09:28:51Z</time>
      </trkpt>
      <trkpt lat="47.79761" lon="-3.5254">
        <ele>5.44</ele>
        <time>2020-07-08T09:28:52Z</time>
      </trkpt>
      <trkpt lat="47.79764" lon="-3.52533">
        <ele>5.55</ele>
        <time>2020-07-08T09:28:53Z</time>
      </trkpt>
      <trkpt lat="47.79766" lon="-3.52526">
        <ele>5.56</ele>
        <time>2020-07-08T09:28:54Z</time>
      </trkpt>
      <trkpt lat="47.79768" lon="-3.5252">
        <ele>5.9</ele>
        <time>2020-07-08T09:28:55Z</time>
      </trkpt>
      <trkpt lat="47.7977" lon="-3.52514">
        <ele>6.25</ele>
        <time>2020-07-08T09:28:56Z</time>
      </trkpt>
      <trkpt lat="47.79771" lon="-3.52508">
        <ele>6.52</ele>
        <time>2020-07-08T09:28:57Z</time>
      </trkpt>
      <trkpt lat="47.79773" lon="-3.52502">
        <ele>6.75</ele>
        <time>2020-07-08T09:28:58Z</time>
      </trkpt>
      <trkpt lat="47.79775" lon="-3.52496">
        <ele>6.7</ele>
        <time>2020-07-08T09:28:59Z</time>
      </trkpt>
      <trkpt lat="47.79776" lon="-3.5249">
        <ele>6.47</ele>
        <time>2020-07-08T09:29:00Z</time>
      </trkpt>
      <trkpt lat="47.79777" lon="-3.52484">
        <ele>6.28</ele>
        <time>2020-07-08T09:29:01Z</time>
      </trkpt>
      <trkpt lat="47.79779" lon="-3.52479">
        <ele>6.34</ele>
        <time>2020-07-08T09:29:02Z</time>
      </trkpt>
      <trkpt lat="47.79781" lon="-3.52474">
        <ele>6.53</ele>
        <time>2020-07-08T09:29:03Z</time>
      </trkpt>
      <trkpt lat="47.79782" lon="-3.52468">
        <ele>6.65</ele>
        <time>2020-07-08T09:29:04Z</time>
      </trkpt>
      <trkpt lat="47.79784" lon="-3.52463">
        <ele>6.72</ele>
        <time>2020-07-08T09:29:05Z</time>
      </trkpt>
      <trkpt lat="47.79785" lon="-3.52458">
        <ele>6.71</ele>
        <time>2020-07-08T09:29:06Z</time>
      </trkpt>
      <trkpt lat="47.79786" lon="-3.52453">
        <ele>6.67</ele>
        <time>2020-07-08T09:29:07Z</time>
      </trkpt>
      <trkpt lat="47.79787" lon="-3.52449">
        <ele>6.81</ele>
        <time>2020-07-08T09:29:08Z</time>
      </trkpt>
      <trkpt lat="47.79788" lon="-3.52445">
        <ele>6.91</ele>
        <time>2020-07-08T09:29:09Z</time>
      </trkpt>
      <trkpt lat="47.7979" lon="-3.52441">
        <ele>7.17</ele>
        <time>2020-07-08T09:29:10Z</time>
      </trkpt>
      <trkpt lat="47.79791" lon="-3.52437">
        <ele>7.49</ele>
        <time>2020-07-08T09:29:11Z</time>
      </trkpt>
      <trkpt lat="47.79793" lon="-3.52433">
        <ele>7.86</ele>
        <time>2020-07-08T09:29:12Z</time>
      </trkpt>
      <trkpt lat="47.79794" lon="-3.5243">
        <ele>8.14</ele>
        <time>2020-07-08T09:29:13Z</time>
      </trkpt>
      <trkpt lat="47.79795" lon="-3.52426">
        <ele>8.38</ele>
        <time>2020-07-08T09:29:14Z</time>
      </trkpt>
      <trkpt lat="47.79796" lon="-3.52422">
        <ele>8.69</ele>
        <time>2020-07-08T09:29:15Z</time>
      </trkpt>
      <trkpt lat="47.79797" lon="-3.52418">
        <ele>8.96</ele>
        <time>2020-07-08T09:29:16Z</time>
      </trkpt>
      <trkpt lat="47.79799" lon="-3.52413">
        <ele>9.33</ele>
        <time>2020-07-08T09:29:17Z</time>
      </trkpt>
      <trkpt lat="47.798" lon="-3.52409">
        <ele>9.72</ele>
        <time>2020-07-08T09:29:18Z</time>
      </trkpt>
      <trkpt lat="47.79801" lon="-3.52405">
        <ele>10.03</ele>
        <time>2020-07-08T09:29:19Z</time>
      </trkpt>
      <trkpt lat="47.79802" lon="-3.524">
        <ele>10.5</ele>
        <time>2020-07-08T09:29:20Z</time>
      </trkpt>
      <trkpt lat="47.79803" lon="-3.52397">
        <ele>10.86</ele>
        <time>2020-07-08T09:29:21Z</time>
      </trkpt>
      <trkpt lat="47.79803" lon="-3.52396">
        <ele>11.01</ele>
        <time>2020-07-08T09:29:22Z</time>
      </trkpt>
      <trkpt lat="47.79803" lon="-3.52395">
        <ele>11.1</ele>
        <time>2020-07-08T09:29:23Z</time>
      </trkpt>
      <trkpt lat="47.79804" lon="-3.52395">
        <ele>11.22</ele>
        <time>2020-07-08T09:29:24Z</time>
      </trkpt>
      <trkpt lat="47.79804" lon="-3.52395">
        <ele>11.25</ele>
        <time>2020-07-08T09:29:25Z</time>
      </trkpt>
      <trkpt lat="47.79804" lon="-3.52395">
        <ele>11.26</ele>
        <time>2020-07-08T09:29:26Z</time>
      </trkpt>
      <trkpt lat="47.79804" lon="-3.52385">
        <ele>11.4</ele>
        <time>2020-07-08T09:29:27Z</time>
      </trkpt>
      <trkpt lat="47.79805" lon="-3.52381">
        <ele>11.37</ele>
        <time>2020-07-08T09:29:28Z</time>
      </trkpt>
      <trkpt lat="47.79806" lon="-3.52376">
        <ele>11.55</ele>
        <time>2020-07-08T09:29:29Z</time>
      </trkpt>
      <trkpt lat="47.79807" lon="-3.52372">
        <ele>11.68</ele>
        <time>2020-07-08T09:29:30Z</time>
      </trkpt>
      <trkpt lat="47.79809" lon="-3.52368">
        <ele>11.85</ele>
        <time>2020-07-08T09:29:31Z</time>
      </trkpt>
      <trkpt lat="47.79811" lon="-3.52363">
        <ele>11.99</ele>
        <time>2020-07-08T09:29:32Z</time>
      </trkpt>
      <trkpt lat="47.79813" lon="-3.52358">
        <ele>12.03</ele>
        <time>2020-07-08T09:29:33Z</time>
      </trkpt>
      <trkpt lat="47.79814" lon="-3.52353">
        <ele>12.07</ele>
        <time>2020-07-08T09:29:34Z</time>
      </trkpt>
      <trkpt lat="47.79816" lon="-3.52348">
        <ele>12.12</ele>
        <time>2020-07-08T09:29:35Z</time>
      </trkpt>
      <trkpt lat="47.79818" lon="-3.52344">
        <ele>12.2</ele>
        <time>2020-07-08T09:29:36Z</time>
      </trkpt>
      <trkpt lat="47.7982" lon="-3.52339">
        <ele>12.33</ele>
        <time>2020-07-08T09:29:37Z</time>
      </trkpt>
      <trkpt lat="47.79824" lon="-3.52331">
        <ele>12.63</ele>
        <time>2020-07-08T09:29:39Z</time>
      </trkpt>
      <trkpt lat="47.79826" lon="-3.52326">
        <ele>12.72</ele>
        <time>2020-07-08T09:29:40Z</time>
      </trkpt>
      <trkpt lat="47.79828" lon="-3.52322">
        <ele>12.79</ele>
        <time>2020-07-08T09:29:41Z</time>
      </trkpt>
      <trkpt lat="47.7983" lon="-3.52317">
        <ele>12.93</ele>
        <time>2020-07-08T09:29:42Z</time>
      </trkpt>
      <trkpt lat="47.79833" lon="-3.52314">
        <ele>13.27</ele>
        <time>2020-07-08T09:29:43Z</time>
      </trkpt>
      <trkpt lat="47.79836" lon="-3.52313">
        <ele>13.57</ele>
        <time>2020-07-08T09:29:44Z</time>
      </trkpt>
      <trkpt lat="47.79838" lon="-3.52311">
        <ele>13.71</ele>
        <time>2020-07-08T09:29:45Z</time>
      </trkpt>
      <trkpt lat="47.7984" lon="-3.52307">
        <ele>13.65</ele>
        <time>2020-07-08T09:29:46Z</time>
      </trkpt>
      <trkpt lat="47.79841" lon="-3.52302">
        <ele>13.05</ele>
        <time>2020-07-08T09:29:47Z</time>
      </trkpt>
      <trkpt lat="47.7984" lon="-3.52298">
        <ele>12.29</ele>
        <time>2020-07-08T09:29:48Z</time>
      </trkpt>
      <trkpt lat="47.79837" lon="-3.52296">
        <ele>11.61</ele>
        <time>2020-07-08T09:29:49Z</time>
      </trkpt>
      <trkpt lat="47.79833" lon="-3.52297">
        <ele>11.23</ele>
        <time>2020-07-08T09:29:50Z</time>
      </trkpt>
      <trkpt lat="47.79829" lon="-3.52298">
        <ele>10.59</ele>
        <time>2020-07-08T09:29:51Z</time>
      </trkpt>
      <trkpt lat="47.79825" lon="-3.523">
        <ele>9.89</ele>
        <time>2020-07-08T09:29:52Z</time>
      </trkpt>
      <trkpt lat="47.79821" lon="-3.52302">
        <ele>9.11</ele>
        <time>2020-07-08T09:29:53Z</time>
      </trkpt>
      <trkpt lat="47.79817" lon="-3.52304">
        <ele>8.33</ele>
        <time>2020-07-08T09:29:54Z</time>
      </trkpt>
      <trkpt lat="47.79813" lon="-3.52305">
        <ele>7.54</ele>
        <time>2020-07-08T09:29:55Z</time>
      </trkpt>
      <trkpt lat="47.7981" lon="-3.52307">
        <ele>6.73</ele>
        <time>2020-07-08T09:29:56Z</time>
      </trkpt>
      <trkpt lat="47.79806" lon="-3.52308">
        <ele>5.92</ele>
        <time>2020-07-08T09:29:57Z</time>
      </trkpt>
      <trkpt lat="47.79802" lon="-3.5231">
        <ele>5.31</ele>
        <time>2020-07-08T09:29:58Z</time>
      </trkpt>
      <trkpt lat="47.79798" lon="-3.52311">
        <ele>4.74</ele>
        <time>2020-07-08T09:29:59Z</time>
      </trkpt>
      <trkpt lat="47.79793" lon="-3.52313">
        <ele>4.2</ele>
        <time>2020-07-08T09:30:00Z</time>
      </trkpt>
      <trkpt lat="47.79789" lon="-3.52315">
        <ele>3.69</ele>
        <time>2020-07-08T09:30:01Z</time>
      </trkpt>
      <trkpt lat="47.79784" lon="-3.52317">
        <ele>3.25</ele>
        <time>2020-07-08T09:30:02Z</time>
      </trkpt>
      <trkpt lat="47.7978" lon="-3.52318">
        <ele>2.8</ele>
        <time>2020-07-08T09:30:03Z</time>
      </trkpt>
      <trkpt lat="47.79775" lon="-3.5232">
        <ele>2.74</ele>
        <time>2020-07-08T09:30:04Z</time>
      </trkpt>
      <trkpt lat="47.7977" lon="-3.52322">
        <ele>3.03</ele>
        <time>2020-07-08T09:30:05Z</time>
      </trkpt>
      <trkpt lat="47.79766" lon="-3.52324">
        <ele>3.39</ele>
        <time>2020-07-08T09:30:06Z</time>
      </trkpt>
      <trkpt lat="47.79761" lon="-3.52325">
        <ele>3.78</ele>
        <time>2020-07-08T09:30:07Z</time>
      </trkpt>
      <trkpt lat="47.79757" lon="-3.52327">
        <ele>4.18</ele>
        <time>2020-07-08T09:30:08Z</time>
      </trkpt>
      <trkpt lat="47.79752" lon="-3.52328">
        <ele>4.63</ele>
        <time>2020-07-08T09:30:09Z</time>
      </trkpt>
      <trkpt lat="47.79747" lon="-3.5233">
        <ele>4.96</ele>
        <time>2020-07-08T09:30:10Z</time>
      </trkpt>
      <trkpt lat="47.79743" lon="-3.52331">
        <ele>5.04</ele>
        <time>2020-07-08T09:30:11Z</time>
      </trkpt>
      <trkpt lat="47.79738" lon="-3.52333">
        <ele>5.03</ele>
        <time>2020-07-08T09:30:12Z</time>
      </trkpt>
      <trkpt lat="47.79734" lon="-3.52334">
        <ele>4.86</ele>
        <time>2020-07-08T09:30:13Z</time>
      </trkpt>
      <trkpt lat="47.79729" lon="-3.52336">
        <ele>4.59</ele>
        <time>2020-07-08T09:30:14Z</time>
      </trkpt>
      <trkpt lat="47.79725" lon="-3.52337">
        <ele>4.36</ele>
        <time>2020-07-08T09:30:15Z</time>
      </trkpt>
      <trkpt lat="47.79721" lon="-3.52339">
        <ele>4.21</ele>
        <time>2020-07-08T09:30:16Z</time>
      </trkpt>
      <trkpt lat="47.79716" lon="-3.5234">
        <ele>4.12</ele>
        <time>2020-07-08T09:30:17Z</time>
      </trkpt>
      <trkpt lat="47.79711" lon="-3.52342">
        <ele>4.06</ele>
        <time>2020-07-08T09:30:18Z</time>
      </trkpt>
      <trkpt lat="47.79706" lon="-3.52344">
        <ele>4.02</ele>
        <time>2020-07-08T09:30:19Z</time>
      </trkpt>
      <trkpt lat="47.79702" lon="-3.52345">
        <ele>4.01</ele>
        <time>2020-07-08T09:30:20Z</time>
      </trkpt>
      <trkpt lat="47.79697" lon="-3.52347">
        <ele>4.02</ele>
        <time>2020-07-08T09:30:21Z</time>
      </trkpt>
      <trkpt lat="47.79692" lon="-3.52349">
        <ele>3.92</ele>
        <time>2020-07-08T09:30:22Z</time>
      </trkpt>
      <trkpt lat="47.79686" lon="-3.5235">
        <ele>3.66</ele>
        <time>2020-07-08T09:30:23Z</time>
      </trkpt>
      <trkpt lat="47.79682" lon="-3.52352">
        <ele>3.4</ele>
        <time>2020-07-08T09:30:24Z</time>
      </trkpt>
      <trkpt lat="47.79677" lon="-3.52354">
        <ele>3.15</ele>
        <time>2020-07-08T09:30:25Z</time>
      </trkpt>
      <trkpt lat="47.79672" lon="-3.52356">
        <ele>2.94</ele>
        <time>2020-07-08T09:30:26Z</time>
      </trkpt>
      <trkpt lat="47.79667" lon="-3.52358">
        <ele>2.73</ele>
        <time>2020-07-08T09:30:27Z</time>
      </trkpt>
      <trkpt lat="47.79662" lon="-3.5236">
        <ele>3.31</ele>
        <time>2020-07-08T09:30:28Z</time>
      </trkpt>
      <trkpt lat="47.79657" lon="-3.52361">
        <ele>4.08</ele>
        <time>2020-07-08T09:30:29Z</time>
      </trkpt>
      <trkpt lat="47.79652" lon="-3.52363">
        <ele>4.94</ele>
        <time>2020-07-08T09:30:30Z</time>
      </trkpt>
      <trkpt lat="47.79647" lon="-3.52365">
        <ele>5.89</ele>
        <time>2020-07-08T09:30:31Z</time>
      </trkpt>
      <trkpt lat="47.79641" lon="-3.52367">
        <ele>6.92</ele>
        <time>2020-07-08T09:30:32Z</time>
      </trkpt>
      <trkpt lat="47.79636" lon="-3.52368">
        <ele>8.22</ele>
        <time>2020-07-08T09:30:33Z</time>
      </trkpt>
      <trkpt lat="47.79631" lon="-3.5237">
        <ele>9.66</ele>
        <time>2020-07-08T09:30:34Z</time>
      </trkpt>
      <trkpt lat="47.79627" lon="-3.52371">
        <ele>11.04</ele>
        <time>2020-07-08T09:30:35Z</time>
      </trkpt>
      <trkpt lat="47.79623" lon="-3.52373">
        <ele>12.26</ele>
        <time>2020-07-08T09:30:36Z</time>
      </trkpt>
      <trkpt lat="47.79618" lon="-3.52376">
        <ele>13.4</ele>
        <time>2020-07-08T09:30:37Z</time>
      </trkpt>
      <trkpt lat="47.79613" lon="-3.52377">
        <ele>14.49</ele>
        <time>2020-07-08T09:30:38Z</time>
      </trkpt>
      <trkpt lat="47.79608" lon="-3.52379">
        <ele>15.41</ele>
        <time>2020-07-08T09:30:39Z</time>
      </trkpt>
      <trkpt lat="47.79603" lon="-3.52381">
        <ele>16.14</ele>
        <time>2020-07-08T09:30:40Z</time>
      </trkpt>
      <trkpt lat="47.79598" lon="-3.52383">
        <ele>16.75</ele>
        <time>2020-07-08T09:30:41Z</time>
      </trkpt>
      <trkpt lat="47.79594" lon="-3.52384">
        <ele>17.25</ele>
        <time>2020-07-08T09:30:42Z</time>
      </trkpt>
      <trkpt lat="47.7959" lon="-3.52385">
        <ele>17.63</ele>
        <time>2020-07-08T09:30:43Z</time>
      </trkpt>
      <trkpt lat="47.79586" lon="-3.52386">
        <ele>17.98</ele>
        <time>2020-07-08T09:30:44Z</time>
      </trkpt>
      <trkpt lat="47.79583" lon="-3.52387">
        <ele>18.28</ele>
        <time>2020-07-08T09:30:45Z</time>
      </trkpt>
      <trkpt lat="47.79579" lon="-3.52389">
        <ele>18.53</ele>
        <time>2020-07-08T09:30:46Z</time>
      </trkpt>
      <trkpt lat="47.79575" lon="-3.52391">
        <ele>18.84</ele>
        <time>2020-07-08T09:30:47Z</time>
      </trkpt>
      <trkpt lat="47.79571" lon="-3.52392">
        <ele>19.19</ele>
        <time>2020-07-08T09:30:48Z</time>
      </trkpt>
      <trkpt lat="47.79568" lon="-3.52393">
        <ele>19.54</ele>
        <time>2020-07-08T09:30:49Z</time>
      </trkpt>
      <trkpt lat="47.79564" lon="-3.52395">
        <ele>19.83</ele>
        <time>2020-07-08T09:30:50Z</time>
      </trkpt>
      <trkpt lat="47.7956" lon="-3.52396">
        <ele>20.1</ele>
        <time>2020-07-08T09:30:51Z</time>
      </trkpt>
      <trkpt lat="47.79556" lon="-3.52397">
        <ele>20.34</ele>
        <time>2020-07-08T09:30:52Z</time>
      </trkpt>
      <trkpt lat="47.79552" lon="-3.52398">
        <ele>20.52</ele>
        <time>2020-07-08T09:30:53Z</time>
      </trkpt>
      <trkpt lat="47.79548" lon="-3.52399">
        <ele>20.7</ele>
        <time>2020-07-08T09:30:54Z</time>
      </trkpt>
      <trkpt lat="47.79544" lon="-3.52401">
        <ele>20.82</ele>
        <time>2020-07-08T09:30:55Z</time>
      </trkpt>
      <trkpt lat="47.7954" lon="-3.52402">
        <ele>20.94</ele>
        <time>2020-07-08T09:30:56Z</time>
      </trkpt>
      <trkpt lat="47.79536" lon="-3.52403">
        <ele>21.11</ele>
        <time>2020-07-08T09:30:57Z</time>
      </trkpt>
      <trkpt lat="47.79533" lon="-3.52404">
        <ele>21.29</ele>
        <time>2020-07-08T09:30:58Z</time>
      </trkpt>
      <trkpt lat="47.79529" lon="-3.52405">
        <ele>21.46</ele>
        <time>2020-07-08T09:30:59Z</time>
      </trkpt>
      <trkpt lat="47.79526" lon="-3.52406">
        <ele>21.74</ele>
        <time>2020-07-08T09:31:00Z</time>
      </trkpt>
      <trkpt lat="47.79522" lon="-3.52406">
        <ele>22.1</ele>
        <time>2020-07-08T09:31:01Z</time>
      </trkpt>
      <trkpt lat="47.79519" lon="-3.52407">
        <ele>22.49</ele>
        <time>2020-07-08T09:31:02Z</time>
      </trkpt>
      <trkpt lat="47.79515" lon="-3.52408">
        <ele>22.91</ele>
        <time>2020-07-08T09:31:03Z</time>
      </trkpt>
      <trkpt lat="47.79511" lon="-3.52409">
        <ele>23.34</ele>
        <time>2020-07-08T09:31:04Z</time>
      </trkpt>
      <trkpt lat="47.79508" lon="-3.5241">
        <ele>23.73</ele>
        <time>2020-07-08T09:31:05Z</time>
      </trkpt>
      <trkpt lat="47.79504" lon="-3.52411">
        <ele>24.09</ele>
        <time>2020-07-08T09:31:06Z</time>
      </trkpt>
      <trkpt lat="47.795" lon="-3.52413">
        <ele>24.45</ele>
        <time>2020-07-08T09:31:07Z</time>
      </trkpt>
      <trkpt lat="47.79496" lon="-3.52414">
        <ele>24.62</ele>
        <time>2020-07-08T09:31:08Z</time>
      </trkpt>
      <trkpt lat="47.79492" lon="-3.52416">
        <ele>24.72</ele>
        <time>2020-07-08T09:31:09Z</time>
      </trkpt>
      <trkpt lat="47.79488" lon="-3.52416">
        <ele>24.82</ele>
        <time>2020-07-08T09:31:10Z</time>
      </trkpt>
      <trkpt lat="47.79485" lon="-3.52417">
        <ele>24.96</ele>
        <time>2020-07-08T09:31:11Z</time>
      </trkpt>
      <trkpt lat="47.79481" lon="-3.52419">
        <ele>25.09</ele>
        <time>2020-07-08T09:31:12Z</time>
      </trkpt>
      <trkpt lat="47.79478" lon="-3.5242">
        <ele>25.21</ele>
        <time>2020-07-08T09:31:13Z</time>
      </trkpt>
      <trkpt lat="47.79474" lon="-3.52421">
        <ele>25.34</ele>
        <time>2020-07-08T09:31:14Z</time>
      </trkpt>
      <trkpt lat="47.7947" lon="-3.52422">
        <ele>25.47</ele>
        <time>2020-07-08T09:31:15Z</time>
      </trkpt>
      <trkpt lat="47.79467" lon="-3.52423">
        <ele>25.63</ele>
        <time>2020-07-08T09:31:16Z</time>
      </trkpt>
      <trkpt lat="47.79464" lon="-3.52425">
        <ele>25.77</ele>
        <time>2020-07-08T09:31:17Z</time>
      </trkpt>
      <trkpt lat="47.7946" lon="-3.52426">
        <ele>25.96</ele>
        <time>2020-07-08T09:31:18Z</time>
      </trkpt>
      <trkpt lat="47.79457" lon="-3.52426">
        <ele>26.16</ele>
        <time>2020-07-08T09:31:19Z</time>
      </trkpt>
      <trkpt lat="47.79454" lon="-3.52427">
        <ele>26.36</ele>
        <time>2020-07-08T09:31:20Z</time>
      </trkpt>
      <trkpt lat="47.7945" lon="-3.52428">
        <ele>26.59</ele>
        <time>2020-07-08T09:31:21Z</time>
      </trkpt>
      <trkpt lat="47.79447" lon="-3.52428">
        <ele>26.82</ele>
        <time>2020-07-08T09:31:22Z</time>
      </trkpt>
      <trkpt lat="47.79444" lon="-3.52429">
        <ele>27.02</ele>
        <time>2020-07-08T09:31:23Z</time>
      </trkpt>
      <trkpt lat="47.79441" lon="-3.5243">
        <ele>27.24</ele>
        <time>2020-07-08T09:31:24Z</time>
      </trkpt>
      <trkpt lat="47.79438" lon="-3.52431">
        <ele>27.47</ele>
        <time>2020-07-08T09:31:25Z</time>
      </trkpt>
      <trkpt lat="47.79435" lon="-3.52431">
        <ele>27.71</ele>
        <time>2020-07-08T09:31:26Z</time>
      </trkpt>
      <trkpt lat="47.79432" lon="-3.52432">
        <ele>27.93</ele>
        <time>2020-07-08T09:31:27Z</time>
      </trkpt>
      <trkpt lat="47.7943" lon="-3.52432">
        <ele>28.12</ele>
        <time>2020-07-08T09:31:28Z</time>
      </trkpt>
      <trkpt lat="47.79428" lon="-3.52433">
        <ele>28.2</ele>
        <time>2020-07-08T09:31:29Z</time>
      </trkpt>
      <trkpt lat="47.79427" lon="-3.52433">
        <ele>28.25</ele>
        <time>2020-07-08T09:31:30Z</time>
      </trkpt>
      <trkpt lat="47.79427" lon="-3.52434">
        <ele>28.22</ele>
        <time>2020-07-08T09:31:31Z</time>
      </trkpt>
      <trkpt lat="47.79427" lon="-3.52435">
        <ele>28.18</ele>
        <time>2020-07-08T09:31:32Z</time>
      </trkpt>
      <trkpt lat="47.79427" lon="-3.52435">
        <ele>28.17</ele>
        <time>2020-07-08T09:31:33Z</time>
      </trkpt>
      <trkpt lat="47.79427" lon="-3.52435">
        <ele>28.17</ele>
        <time>2020-07-08T09:31:34Z</time>
      </trkpt>
      <trkpt lat="47.79427" lon="-3.52435">
        <ele>28.17</ele>
        <time>2020-07-08T09:31:35Z</time>
      </trkpt>
      <trkpt lat="47.79427" lon="-3.52435">
        <ele>28.17</ele>
        <time>2020-07-08T09:31:36Z</time>
      </trkpt>
      <trkpt lat="47.79427" lon="-3.52435">
        <ele>28.17</ele>
        <time>2020-07-08T09:31:37Z</time>
      </trkpt>
      <trkpt lat="47.79427" lon="-3.52435">
        <ele>28.17</ele>
        <time>2020-07-08T09:31:38Z</time>
      </trkpt>
      <trkpt lat="47.79427" lon="-3.52435">
        <ele>28.17</ele>
        <time>2020-07-08T09:31:39Z</time>
      </trkpt>
      <trkpt lat="47.79427" lon="-3.52435">
        <ele>28.17</ele>
        <time>2020-07-08T09:31:40Z</time>
      </trkpt>
      <trkpt lat="47.79427" lon="-3.52435">
        <ele>28.17</ele>
        <time>2020-07-08T09:31:41Z</time>
      </trkpt>
      <trkpt lat="47.79427" lon="-3.52435">
        <ele>28.17</ele>
        <time>2020-07-08T09:31:42Z</time>
      </trkpt>
      <trkpt lat="47.79427" lon="-3.52435">
        <ele>28.17</ele>
        <time>2020-07-08T09:31:43Z</time>
      </trkpt>
      <trkpt lat="47.79427" lon="-3.52435">
        <ele>28.17</ele>
        <time>2020-07-08T09:31:44Z</time>
      </trkpt>
      <trkpt lat="47.79427" lon="-3.52435">
        <ele>28.17</ele>
        <time>2020-07-08T09:31:45Z</time>
      </trkpt>
      <trkpt lat="47.79427" lon="-3.52435">
        <ele>28.17</ele>
        <time>2020-07-08T09:31:46Z</time>
      </trkpt>
      <trkpt lat="47.79427" lon="-3.52435">
        <ele>28.17</ele>
        <time>2020-07-08T09:31:47Z</time>
      </trkpt>
      <trkpt lat="47.79427" lon="-3.52435">
        <ele>28.17</ele>
        <time>2020-07-08T09:31:48Z</time>
      </trkpt>
      <trkpt lat="47.79427" lon="-3.52435">
        <ele>28.17</ele>
        <time>2020-07-08T09:31:49Z</time>
      </trkpt>
      <trkpt lat="47.79427" lon="-3.52435">
        <ele>28.17</ele>
        <time>2020-07-08T09:31:50Z</time>
      </trkpt>
      <trkpt lat="47.79421" lon="-3.52434">
        <ele>28.61</ele>
        <time>2020-07-08T09:31:51Z</time>
      </trkpt>
      <trkpt lat="47.79418" lon="-3.52434">
        <ele>28.9</ele>
        <time>2020-07-08T09:31:52Z</time>
      </trkpt>
      <trkpt lat="47.79416" lon="-3.52434">
        <ele>29.09</ele>
        <time>2020-07-08T09:31:53Z</time>
      </trkpt>
      <trkpt lat="47.79414" lon="-3.52433">
        <ele>29.23</ele>
        <time>2020-07-08T09:31:54Z</time>
      </trkpt>
      <trkpt lat="47.79411" lon="-3.52433">
        <ele>29.39</ele>
        <time>2020-07-08T09:31:55Z</time>
      </trkpt>
      <trkpt lat="47.79409" lon="-3.52432">
        <ele>29.56</ele>
        <time>2020-07-08T09:31:56Z</time>
      </trkpt>
      <trkpt lat="47.79405" lon="-3.52432">
        <ele>29.72</ele>
        <time>2020-07-08T09:31:57Z</time>
      </trkpt>
      <trkpt lat="47.79402" lon="-3.52431">
        <ele>29.89</ele>
        <time>2020-07-08T09:31:58Z</time>
      </trkpt>
      <trkpt lat="47.794" lon="-3.52429">
        <ele>30.16</ele>
        <time>2020-07-08T09:31:59Z</time>
      </trkpt>
      <trkpt lat="47.79395" lon="-3.52425">
        <ele>30.64</ele>
        <time>2020-07-08T09:32:00Z</time>
      </trkpt>
      <trkpt lat="47.79393" lon="-3.52421">
        <ele>31.18</ele>
        <time>2020-07-08T09:32:01Z</time>
      </trkpt>
      <trkpt lat="47.79394" lon="-3.52417">
        <ele>31.63</ele>
        <time>2020-07-08T09:32:02Z</time>
      </trkpt>
      <trkpt lat="47.79394" lon="-3.52413">
        <ele>32.26</ele>
        <time>2020-07-08T09:32:03Z</time>
      </trkpt>
      <trkpt lat="47.79395" lon="-3.52409">
        <ele>32.85</ele>
        <time>2020-07-08T09:32:04Z</time>
      </trkpt>
      <trkpt lat="47.79396" lon="-3.52407">
        <ele>33.32</ele>
        <time>2020-07-08T09:32:05Z</time>
      </trkpt>
      <trkpt lat="47.79397" lon="-3.52405">
        <ele>33.67</ele>
        <time>2020-07-08T09:32:06Z</time>
      </trkpt>
      <trkpt lat="47.79398" lon="-3.52403">
        <ele>33.96</ele>
        <time>2020-07-08T09:32:07Z</time>
      </trkpt>
      <trkpt lat="47.79399" lon="-3.52402">
        <ele>34.18</ele>
        <time>2020-07-08T09:32:08Z</time>
      </trkpt>
      <trkpt lat="47.794" lon="-3.52402">
        <ele>34.25</ele>
        <time>2020-07-08T09:32:09Z</time>
      </trkpt>
      <trkpt lat="47.79401" lon="-3.52401">
        <ele>34.32</ele>
        <time>2020-07-08T09:32:10Z</time>
      </trkpt>
      <trkpt lat="47.79403" lon="-3.52401">
        <ele>34.28</ele>
        <time>2020-07-08T09:32:11Z</time>
      </trkpt>
      <trkpt lat="47.79405" lon="-3.52401">
        <ele>34.23</ele>
        <time>2020-07-08T09:32:12Z</time>
      </trkpt>
      <trkpt lat="47.79407" lon="-3.52401">
        <ele>34.2</ele>
        <time>2020-07-08T09:32:13Z</time>
      </trkpt>
      <trkpt lat="47.7941" lon="-3.524">
        <ele>34.21</ele>
        <time>2020-07-08T09:32:14Z</time>
      </trkpt>
      <trkpt lat="47.79412" lon="-3.524">
        <ele>34.17</ele>
        <time>2020-07-08T09:32:15Z</time>
      </trkpt>
      <trkpt lat="47.79414" lon="-3.52399">
        <ele>34.22</ele>
        <time>2020-07-08T09:32:16Z</time>
      </trkpt>
      <trkpt lat="47.79416" lon="-3.52398">
        <ele>34.37</ele>
        <time>2020-07-08T09:32:17Z</time>
      </trkpt>
      <trkpt lat="47.79418" lon="-3.52396">
        <ele>34.57</ele>
        <time>2020-07-08T09:32:18Z</time>
      </trkpt>
      <trkpt lat="47.7942" lon="-3.52395">
        <ele>34.64</ele>
        <time>2020-07-08T09:32:19Z</time>
      </trkpt>
      <trkpt lat="47.79421" lon="-3.52393">
        <ele>34.87</ele>
        <time>2020-07-08T09:32:20Z</time>
      </trkpt>
      <trkpt lat="47.79423" lon="-3.5239">
        <ele>35.18</ele>
        <time>2020-07-08T09:32:21Z</time>
      </trkpt>
      <trkpt lat="47.79425" lon="-3.52388">
        <ele>35.41</ele>
        <time>2020-07-08T09:32:22Z</time>
      </trkpt>
      <trkpt lat="47.79429" lon="-3.52387">
        <ele>35.39</ele>
        <time>2020-07-08T09:32:23Z</time>
      </trkpt>
      <trkpt lat="47.79431" lon="-3.52386">
        <ele>35.29</ele>
        <time>2020-07-08T09:32:24Z</time>
      </trkpt>
      <trkpt lat="47.79435" lon="-3.52386">
        <ele>35.1</ele>
        <time>2020-07-08T09:32:25Z</time>
      </trkpt>
      <trkpt lat="47.79439" lon="-3.52386">
        <ele>34.86</ele>
        <time>2020-07-08T09:32:26Z</time>
      </trkpt>
      <trkpt lat="47.79442" lon="-3.52384">
        <ele>34.74</ele>
        <time>2020-07-08T09:32:27Z</time>
      </trkpt>
      <trkpt lat="47.79445" lon="-3.52383">
        <ele>34.67</ele>
        <time>2020-07-08T09:32:28Z</time>
      </trkpt>
      <trkpt lat="47.79447" lon="-3.52382">
        <ele>34.62</ele>
        <time>2020-07-08T09:32:29Z</time>
      </trkpt>
      <trkpt lat="47.79449" lon="-3.5238">
        <ele>34.6</ele>
        <time>2020-07-08T09:32:30Z</time>
      </trkpt>
      <trkpt lat="47.79452" lon="-3.52379">
        <ele>34.53</ele>
        <time>2020-07-08T09:32:31Z</time>
      </trkpt>
      <trkpt lat="47.79454" lon="-3.52379">
        <ele>34.4</ele>
        <time>2020-07-08T09:32:32Z</time>
      </trkpt>
      <trkpt lat="47.79457" lon="-3.52378">
        <ele>34.28</ele>
        <time>2020-07-08T09:32:33Z</time>
      </trkpt>
      <trkpt lat="47.7946" lon="-3.52378">
        <ele>34.16</ele>
        <time>2020-07-08T09:32:34Z</time>
      </trkpt>
      <trkpt lat="47.79462" lon="-3.52377">
        <ele>34.04</ele>
        <time>2020-07-08T09:32:35Z</time>
      </trkpt>
      <trkpt lat="47.79464" lon="-3.52378">
        <ele>33.86</ele>
        <time>2020-07-08T09:32:36Z</time>
      </trkpt>
      <trkpt lat="47.79466" lon="-3.52377">
        <ele>33.76</ele>
        <time>2020-07-08T09:32:37Z</time>
      </trkpt>
      <trkpt lat="47.79467" lon="-3.52376">
        <ele>33.79</ele>
        <time>2020-07-08T09:32:38Z</time>
      </trkpt>
      <trkpt lat="47.79469" lon="-3.52374">
        <ele>33.84</ele>
        <time>2020-07-08T09:32:39Z</time>
      </trkpt>
      <trkpt lat="47.7947" lon="-3.52373">
        <ele>33.82</ele>
        <time>2020-07-08T09:32:40Z</time>
      </trkpt>
      <trkpt lat="47.79473" lon="-3.52373">
        <ele>33.64</ele>
        <time>2020-07-08T09:32:41Z</time>
      </trkpt>
      <trkpt lat="47.79476" lon="-3.52374">
        <ele>33.32</ele>
        <time>2020-07-08T09:32:42Z</time>
      </trkpt>
      <trkpt lat="47.79478" lon="-3.52374">
        <ele>33.04</ele>
        <time>2020-07-08T09:32:43Z</time>
      </trkpt>
      <trkpt lat="47.79479" lon="-3.52373">
        <ele>32.96</ele>
        <time>2020-07-08T09:32:44Z</time>
      </trkpt>
      <trkpt lat="47.7948" lon="-3.52371">
        <ele>33</ele>
        <time>2020-07-08T09:32:45Z</time>
      </trkpt>
      <trkpt lat="47.7948" lon="-3.5237">
        <ele>33.08</ele>
        <time>2020-07-08T09:32:46Z</time>
      </trkpt>
      <trkpt lat="47.79482" lon="-3.52366">
        <ele>33.23</ele>
        <time>2020-07-08T09:32:47Z</time>
      </trkpt>
      <trkpt lat="47.79485" lon="-3.52362">
        <ele>33.41</ele>
        <time>2020-07-08T09:32:48Z</time>
      </trkpt>
      <trkpt lat="47.79488" lon="-3.52359">
        <ele>33.4</ele>
        <time>2020-07-08T09:32:49Z</time>
      </trkpt>
      <trkpt lat="47.79491" lon="-3.52357">
        <ele>33.27</ele>
        <time>2020-07-08T09:32:50Z</time>
      </trkpt>
      <trkpt lat="47.79495" lon="-3.52355">
        <ele>33.08</ele>
        <time>2020-07-08T09:32:51Z</time>
      </trkpt>
      <trkpt lat="47.79498" lon="-3.52353">
        <ele>32.86</ele>
        <time>2020-07-08T09:32:52Z</time>
      </trkpt>
      <trkpt lat="47.79501" lon="-3.52353">
        <ele>32.64</ele>
        <time>2020-07-08T09:32:53Z</time>
      </trkpt>
      <trkpt lat="47.79504" lon="-3.52351">
        <ele>32.47</ele>
        <time>2020-07-08T09:32:54Z</time>
      </trkpt>
      <trkpt lat="47.79506" lon="-3.5235">
        <ele>32.35</ele>
        <time>2020-07-08T09:32:55Z</time>
      </trkpt>
      <trkpt lat="47.79508" lon="-3.52348">
        <ele>32.26</ele>
        <time>2020-07-08T09:32:56Z</time>
      </trkpt>
      <trkpt lat="47.7951" lon="-3.52346">
        <ele>32.21</ele>
        <time>2020-07-08T09:32:57Z</time>
      </trkpt>
      <trkpt lat="47.79511" lon="-3.52343">
        <ele>32.24</ele>
        <time>2020-07-08T09:32:58Z</time>
      </trkpt>
      <trkpt lat="47.79511" lon="-3.5234">
        <ele>32.34</ele>
        <time>2020-07-08T09:32:59Z</time>
      </trkpt>
      <trkpt lat="47.79511" lon="-3.52337">
        <ele>32.49</ele>
        <time>2020-07-08T09:33:00Z</time>
      </trkpt>
      <trkpt lat="47.79511" lon="-3.52335">
        <ele>32.62</ele>
        <time>2020-07-08T09:33:01Z</time>
      </trkpt>
      <trkpt lat="47.79511" lon="-3.52333">
        <ele>32.73</ele>
        <time>2020-07-08T09:33:02Z</time>
      </trkpt>
      <trkpt lat="47.79512" lon="-3.52329">
        <ele>32.87</ele>
        <time>2020-07-08T09:33:03Z</time>
      </trkpt>
      <trkpt lat="47.79512" lon="-3.52325">
        <ele>33.03</ele>
        <time>2020-07-08T09:33:04Z</time>
      </trkpt>
      <trkpt lat="47.79513" lon="-3.52321">
        <ele>33.16</ele>
        <time>2020-07-08T09:33:05Z</time>
      </trkpt>
      <trkpt lat="47.79515" lon="-3.52317">
        <ele>33.22</ele>
        <time>2020-07-08T09:33:06Z</time>
      </trkpt>
      <trkpt lat="47.79517" lon="-3.52314">
        <ele>33.28</ele>
        <time>2020-07-08T09:33:07Z</time>
      </trkpt>
      <trkpt lat="47.79518" lon="-3.52311">
        <ele>33.32</ele>
        <time>2020-07-08T09:33:08Z</time>
      </trkpt>
      <trkpt lat="47.79521" lon="-3.52307">
        <ele>33.38</ele>
        <time>2020-07-08T09:33:09Z</time>
      </trkpt>
      <trkpt lat="47.79523" lon="-3.52304">
        <ele>33.39</ele>
        <time>2020-07-08T09:33:10Z</time>
      </trkpt>
      <trkpt lat="47.79526" lon="-3.52302">
        <ele>33.29</ele>
        <time>2020-07-08T09:33:11Z</time>
      </trkpt>
      <trkpt lat="47.7953" lon="-3.52299">
        <ele>33.14</ele>
        <time>2020-07-08T09:33:12Z</time>
      </trkpt>
      <trkpt lat="47.79533" lon="-3.52296">
        <ele>33</ele>
        <time>2020-07-08T09:33:13Z</time>
      </trkpt>
      <trkpt lat="47.79536" lon="-3.52292">
        <ele>32.81</ele>
        <time>2020-07-08T09:33:14Z</time>
      </trkpt>
      <trkpt lat="47.79539" lon="-3.52289">
        <ele>32.6</ele>
        <time>2020-07-08T09:33:15Z</time>
      </trkpt>
      <trkpt lat="47.79546" lon="-3.52286">
        <ele>32.14</ele>
        <time>2020-07-08T09:33:16Z</time>
      </trkpt>
      <trkpt lat="47.79549" lon="-3.52284">
        <ele>31.78</ele>
        <time>2020-07-08T09:33:17Z</time>
      </trkpt>
      <trkpt lat="47.79552" lon="-3.52283">
        <ele>31.46</ele>
        <time>2020-07-08T09:33:18Z</time>
      </trkpt>
      <trkpt lat="47.79555" lon="-3.52281">
        <ele>31.17</ele>
        <time>2020-07-08T09:33:19Z</time>
      </trkpt>
      <trkpt lat="47.79557" lon="-3.52278">
        <ele>30.94</ele>
        <time>2020-07-08T09:33:20Z</time>
      </trkpt>
      <trkpt lat="47.79558" lon="-3.52274">
        <ele>30.74</ele>
        <time>2020-07-08T09:33:21Z</time>
      </trkpt>
      <trkpt lat="47.79559" lon="-3.52269">
        <ele>30.5</ele>
        <time>2020-07-08T09:33:22Z</time>
      </trkpt>
      <trkpt lat="47.79563" lon="-3.52266">
        <ele>30.05</ele>
        <time>2020-07-08T09:33:23Z</time>
      </trkpt>
      <trkpt lat="47.79567" lon="-3.52263">
        <ele>29.46</ele>
        <time>2020-07-08T09:33:24Z</time>
      </trkpt>
      <trkpt lat="47.7957" lon="-3.52262">
        <ele>28.85</ele>
        <time>2020-07-08T09:33:25Z</time>
      </trkpt>
      <trkpt lat="47.79574" lon="-3.5226">
        <ele>28.19</ele>
        <time>2020-07-08T09:33:26Z</time>
      </trkpt>
      <trkpt lat="47.79577" lon="-3.52258">
        <ele>27.65</ele>
        <time>2020-07-08T09:33:27Z</time>
      </trkpt>
      <trkpt lat="47.79578" lon="-3.52254">
        <ele>27.23</ele>
        <time>2020-07-08T09:33:28Z</time>
      </trkpt>
      <trkpt lat="47.7958" lon="-3.52251">
        <ele>26.81</ele>
        <time>2020-07-08T09:33:29Z</time>
      </trkpt>
      <trkpt lat="47.79582" lon="-3.52248">
        <ele>26.43</ele>
        <time>2020-07-08T09:33:30Z</time>
      </trkpt>
      <trkpt lat="47.79583" lon="-3.52245">
        <ele>26.26</ele>
        <time>2020-07-08T09:33:31Z</time>
      </trkpt>
      <trkpt lat="47.79584" lon="-3.5224">
        <ele>26.2</ele>
        <time>2020-07-08T09:33:32Z</time>
      </trkpt>
      <trkpt lat="47.79584" lon="-3.52236">
        <ele>26.25</ele>
        <time>2020-07-08T09:33:33Z</time>
      </trkpt>
      <trkpt lat="47.79585" lon="-3.52233">
        <ele>26.28</ele>
        <time>2020-07-08T09:33:34Z</time>
      </trkpt>
      <trkpt lat="47.79585" lon="-3.52229">
        <ele>26.35</ele>
        <time>2020-07-08T09:33:35Z</time>
      </trkpt>
      <trkpt lat="47.79586" lon="-3.52224">
        <ele>26.42</ele>
        <time>2020-07-08T09:33:36Z</time>
      </trkpt>
      <trkpt lat="47.79587" lon="-3.5222">
        <ele>26.53</ele>
        <time>2020-07-08T09:33:37Z</time>
      </trkpt>
      <trkpt lat="47.79586" lon="-3.52215">
        <ele>26.85</ele>
        <time>2020-07-08T09:33:38Z</time>
      </trkpt>
      <trkpt lat="47.79586" lon="-3.5221">
        <ele>27.28</ele>
        <time>2020-07-08T09:33:39Z</time>
      </trkpt>
      <trkpt lat="47.79585" lon="-3.52205">
        <ele>27.75</ele>
        <time>2020-07-08T09:33:40Z</time>
      </trkpt>
      <trkpt lat="47.79585" lon="-3.52199">
        <ele>28.25</ele>
        <time>2020-07-08T09:33:41Z</time>
      </trkpt>
      <trkpt lat="47.79584" lon="-3.52195">
        <ele>28.7</ele>
        <time>2020-07-08T09:33:42Z</time>
      </trkpt>
      <trkpt lat="47.79584" lon="-3.5219">
        <ele>29.09</ele>
        <time>2020-07-08T09:33:43Z</time>
      </trkpt>
      <trkpt lat="47.79583" lon="-3.52186">
        <ele>29.52</ele>
        <time>2020-07-08T09:33:44Z</time>
      </trkpt>
      <trkpt lat="47.79581" lon="-3.52179">
        <ele>30.06</ele>
        <time>2020-07-08T09:33:45Z</time>
      </trkpt>
      <trkpt lat="47.7958" lon="-3.52175">
        <ele>30.46</ele>
        <time>2020-07-08T09:33:46Z</time>
      </trkpt>
      <trkpt lat="47.7958" lon="-3.5217">
        <ele>30.84</ele>
        <time>2020-07-08T09:33:47Z</time>
      </trkpt>
      <trkpt lat="47.7958" lon="-3.52167">
        <ele>31.14</ele>
        <time>2020-07-08T09:33:48Z</time>
      </trkpt>
      <trkpt lat="47.7958" lon="-3.52162">
        <ele>31.31</ele>
        <time>2020-07-08T09:33:49Z</time>
      </trkpt>
      <trkpt lat="47.79581" lon="-3.52158">
        <ele>31.44</ele>
        <time>2020-07-08T09:33:50Z</time>
      </trkpt>
      <trkpt lat="47.79583" lon="-3.52153">
        <ele>31.51</ele>
        <time>2020-07-08T09:33:51Z</time>
      </trkpt>
      <trkpt lat="47.79585" lon="-3.52149">
        <ele>31.51</ele>
        <time>2020-07-08T09:33:52Z</time>
      </trkpt>
      <trkpt lat="47.79586" lon="-3.52146">
        <ele>31.55</ele>
        <time>2020-07-08T09:33:53Z</time>
      </trkpt>
      <trkpt lat="47.79586" lon="-3.52142">
        <ele>31.63</ele>
        <time>2020-07-08T09:33:54Z</time>
      </trkpt>
      <trkpt lat="47.79587" lon="-3.52139">
        <ele>31.68</ele>
        <time>2020-07-08T09:33:55Z</time>
      </trkpt>
      <trkpt lat="47.79589" lon="-3.52135">
        <ele>31.84</ele>
        <time>2020-07-08T09:33:56Z</time>
      </trkpt>
      <trkpt lat="47.7959" lon="-3.52131">
        <ele>32.05</ele>
        <time>2020-07-08T09:33:57Z</time>
      </trkpt>
      <trkpt lat="47.79592" lon="-3.52127">
        <ele>32.26</ele>
        <time>2020-07-08T09:33:58Z</time>
      </trkpt>
      <trkpt lat="47.79594" lon="-3.52124">
        <ele>32.48</ele>
        <time>2020-07-08T09:33:59Z</time>
      </trkpt>
      <trkpt lat="47.79596" lon="-3.52119">
        <ele>32.73</ele>
        <time>2020-07-08T09:34:00Z</time>
      </trkpt>
      <trkpt lat="47.79597" lon="-3.52115">
        <ele>33.02</ele>
        <time>2020-07-08T09:34:01Z</time>
      </trkpt>
      <trkpt lat="47.79599" lon="-3.52111">
        <ele>33.33</ele>
        <time>2020-07-08T09:34:02Z</time>
      </trkpt>
      <trkpt lat="47.796" lon="-3.52107">
        <ele>33.6</ele>
        <time>2020-07-08T09:34:03Z</time>
      </trkpt>
      <trkpt lat="47.79601" lon="-3.52104">
        <ele>33.8</ele>
        <time>2020-07-08T09:34:04Z</time>
      </trkpt>
      <trkpt lat="47.79602" lon="-3.52101">
        <ele>34</ele>
        <time>2020-07-08T09:34:05Z</time>
      </trkpt>
      <trkpt lat="47.79603" lon="-3.52097">
        <ele>34.24</ele>
        <time>2020-07-08T09:34:06Z</time>
      </trkpt>
      <trkpt lat="47.79604" lon="-3.52094">
        <ele>34.44</ele>
        <time>2020-07-08T09:34:07Z</time>
      </trkpt>
      <trkpt lat="47.79605" lon="-3.52091">
        <ele>34.62</ele>
        <time>2020-07-08T09:34:08Z</time>
      </trkpt>
      <trkpt lat="47.79606" lon="-3.52086">
        <ele>34.9</ele>
        <time>2020-07-08T09:34:09Z</time>
      </trkpt>
      <trkpt lat="47.79607" lon="-3.52082">
        <ele>35.13</ele>
        <time>2020-07-08T09:34:10Z</time>
      </trkpt>
      <trkpt lat="47.79607" lon="-3.52078">
        <ele>35.4</ele>
        <time>2020-07-08T09:34:11Z</time>
      </trkpt>
      <trkpt lat="47.79608" lon="-3.52075">
        <ele>35.65</ele>
        <time>2020-07-08T09:34:12Z</time>
      </trkpt>
      <trkpt lat="47.79608" lon="-3.52069">
        <ele>36</ele>
        <time>2020-07-08T09:34:13Z</time>
      </trkpt>
      <trkpt lat="47.79609" lon="-3.52066">
        <ele>36.24</ele>
        <time>2020-07-08T09:34:14Z</time>
      </trkpt>
      <trkpt lat="47.7961" lon="-3.52063">
        <ele>36.42</ele>
        <time>2020-07-08T09:34:15Z</time>
      </trkpt>
      <trkpt lat="47.7961" lon="-3.52061">
        <ele>36.6</ele>
        <time>2020-07-08T09:34:16Z</time>
      </trkpt>
      <trkpt lat="47.79611" lon="-3.52058">
        <ele>36.78</ele>
        <time>2020-07-08T09:34:17Z</time>
      </trkpt>
      <trkpt lat="47.79612" lon="-3.52054">
        <ele>36.99</ele>
        <time>2020-07-08T09:34:18Z</time>
      </trkpt>
      <trkpt lat="47.79613" lon="-3.52052">
        <ele>37.12</ele>
        <time>2020-07-08T09:34:19Z</time>
      </trkpt>
      <trkpt lat="47.79614" lon="-3.52048">
        <ele>37.29</ele>
        <time>2020-07-08T09:34:20Z</time>
      </trkpt>
      <trkpt lat="47.79615" lon="-3.52045">
        <ele>37.49</ele>
        <time>2020-07-08T09:34:21Z</time>
      </trkpt>
      <trkpt lat="47.79617" lon="-3.52042">
        <ele>37.68</ele>
        <time>2020-07-08T09:34:22Z</time>
      </trkpt>
      <trkpt lat="47.79618" lon="-3.52039">
        <ele>37.87</ele>
        <time>2020-07-08T09:34:23Z</time>
      </trkpt>
      <trkpt lat="47.7962" lon="-3.52036">
        <ele>38.1</ele>
        <time>2020-07-08T09:34:24Z</time>
      </trkpt>
      <trkpt lat="47.79621" lon="-3.52034">
        <ele>38.28</ele>
        <time>2020-07-08T09:34:25Z</time>
      </trkpt>
      <trkpt lat="47.79624" lon="-3.5203">
        <ele>38.64</ele>
        <time>2020-07-08T09:34:26Z</time>
      </trkpt>
      <trkpt lat="47.79626" lon="-3.52025">
        <ele>39.07</ele>
        <time>2020-07-08T09:34:27Z</time>
      </trkpt>
      <trkpt lat="47.79628" lon="-3.52021">
        <ele>39.51</ele>
        <time>2020-07-08T09:34:28Z</time>
      </trkpt>
      <trkpt lat="47.7963" lon="-3.52018">
        <ele>39.88</ele>
        <time>2020-07-08T09:34:29Z</time>
      </trkpt>
      <trkpt lat="47.79633" lon="-3.52015">
        <ele>40.24</ele>
        <time>2020-07-08T09:34:30Z</time>
      </trkpt>
      <trkpt lat="47.79636" lon="-3.52011">
        <ele>40.63</ele>
        <time>2020-07-08T09:34:31Z</time>
      </trkpt>
      <trkpt lat="47.79639" lon="-3.52007">
        <ele>41.08</ele>
        <time>2020-07-08T09:34:32Z</time>
      </trkpt>
      <trkpt lat="47.7964" lon="-3.52004">
        <ele>41.28</ele>
        <time>2020-07-08T09:34:33Z</time>
      </trkpt>
      <trkpt lat="47.79642" lon="-3.52002">
        <ele>41.34</ele>
        <time>2020-07-08T09:34:34Z</time>
      </trkpt>
      <trkpt lat="47.79645" lon="-3.51999">
        <ele>41.26</ele>
        <time>2020-07-08T09:34:35Z</time>
      </trkpt>
      <trkpt lat="47.79647" lon="-3.51998">
        <ele>41.08</ele>
        <time>2020-07-08T09:34:36Z</time>
      </trkpt>
      <trkpt lat="47.7965" lon="-3.51996">
        <ele>40.91</ele>
        <time>2020-07-08T09:34:37Z</time>
      </trkpt>
      <trkpt lat="47.79652" lon="-3.51993">
        <ele>40.83</ele>
        <time>2020-07-08T09:34:38Z</time>
      </trkpt>
      <trkpt lat="47.79654" lon="-3.5199">
        <ele>40.88</ele>
        <time>2020-07-08T09:34:39Z</time>
      </trkpt>
      <trkpt lat="47.79656" lon="-3.51989">
        <ele>40.92</ele>
        <time>2020-07-08T09:34:40Z</time>
      </trkpt>
      <trkpt lat="47.79657" lon="-3.51987">
        <ele>40.92</ele>
        <time>2020-07-08T09:34:41Z</time>
      </trkpt>
      <trkpt lat="47.79659" lon="-3.51985">
        <ele>40.9</ele>
        <time>2020-07-08T09:34:42Z</time>
      </trkpt>
      <trkpt lat="47.79661" lon="-3.51984">
        <ele>40.92</ele>
        <time>2020-07-08T09:34:43Z</time>
      </trkpt>
      <trkpt lat="47.79663" lon="-3.51983">
        <ele>40.89</ele>
        <time>2020-07-08T09:34:44Z</time>
      </trkpt>
      <trkpt lat="47.79665" lon="-3.5198">
        <ele>40.98</ele>
        <time>2020-07-08T09:34:45Z</time>
      </trkpt>
      <trkpt lat="47.79666" lon="-3.51978">
        <ele>41.18</ele>
        <time>2020-07-08T09:34:46Z</time>
      </trkpt>
      <trkpt lat="47.79668" lon="-3.51974">
        <ele>41.4</ele>
        <time>2020-07-08T09:34:47Z</time>
      </trkpt>
      <trkpt lat="47.7967" lon="-3.51971">
        <ele>41.31</ele>
        <time>2020-07-08T09:34:48Z</time>
      </trkpt>
      <trkpt lat="47.79674" lon="-3.51966">
        <ele>40.99</ele>
        <time>2020-07-08T09:34:49Z</time>
      </trkpt>
      <trkpt lat="47.79676" lon="-3.51963">
        <ele>40.78</ele>
        <time>2020-07-08T09:34:50Z</time>
      </trkpt>
      <trkpt lat="47.79678" lon="-3.5196">
        <ele>40.61</ele>
        <time>2020-07-08T09:34:51Z</time>
      </trkpt>
      <trkpt lat="47.7968" lon="-3.51957">
        <ele>40.48</ele>
        <time>2020-07-08T09:34:52Z</time>
      </trkpt>
      <trkpt lat="47.79682" lon="-3.51955">
        <ele>40.38</ele>
        <time>2020-07-08T09:34:53Z</time>
      </trkpt>
      <trkpt lat="47.79684" lon="-3.51953">
        <ele>40.27</ele>
        <time>2020-07-08T09:34:54Z</time>
      </trkpt>
      <trkpt lat="47.79687" lon="-3.51952">
        <ele>40.06</ele>
        <time>2020-07-08T09:34:55Z</time>
      </trkpt>
      <trkpt lat="47.79689" lon="-3.51949">
        <ele>39.98</ele>
        <time>2020-07-08T09:34:56Z</time>
      </trkpt>
      <trkpt lat="47.79691" lon="-3.51948">
        <ele>39.92</ele>
        <time>2020-07-08T09:34:57Z</time>
      </trkpt>
      <trkpt lat="47.79694" lon="-3.51947">
        <ele>39.82</ele>
        <time>2020-07-08T09:34:58Z</time>
      </trkpt>
      <trkpt lat="47.79696" lon="-3.51945">
        <ele>39.68</ele>
        <time>2020-07-08T09:34:59Z</time>
      </trkpt>
      <trkpt lat="47.79698" lon="-3.51943">
        <ele>39.44</ele>
        <time>2020-07-08T09:35:00Z</time>
      </trkpt>
      <trkpt lat="47.79701" lon="-3.51939">
        <ele>39.19</ele>
        <time>2020-07-08T09:35:01Z</time>
      </trkpt>
      <trkpt lat="47.79704" lon="-3.51936">
        <ele>38.95</ele>
        <time>2020-07-08T09:35:02Z</time>
      </trkpt>
      <trkpt lat="47.79707" lon="-3.51933">
        <ele>38.77</ele>
        <time>2020-07-08T09:35:03Z</time>
      </trkpt>
      <trkpt lat="47.7971" lon="-3.5193">
        <ele>38.55</ele>
        <time>2020-07-08T09:35:04Z</time>
      </trkpt>
      <trkpt lat="47.79713" lon="-3.51927">
        <ele>38.48</ele>
        <time>2020-07-08T09:35:05Z</time>
      </trkpt>
      <trkpt lat="47.79719" lon="-3.51924">
        <ele>38.26</ele>
        <time>2020-07-08T09:35:06Z</time>
      </trkpt>
      <trkpt lat="47.79722" lon="-3.51921">
        <ele>38.32</ele>
        <time>2020-07-08T09:35:07Z</time>
      </trkpt>
      <trkpt lat="47.79725" lon="-3.51917">
        <ele>38.48</ele>
        <time>2020-07-08T09:35:08Z</time>
      </trkpt>
      <trkpt lat="47.79728" lon="-3.51915">
        <ele>38.41</ele>
        <time>2020-07-08T09:35:09Z</time>
      </trkpt>
      <trkpt lat="47.7973" lon="-3.51914">
        <ele>38.27</ele>
        <time>2020-07-08T09:35:10Z</time>
      </trkpt>
      <trkpt lat="47.79734" lon="-3.5191">
        <ele>38.15</ele>
        <time>2020-07-08T09:35:11Z</time>
      </trkpt>
      <trkpt lat="47.79736" lon="-3.51909">
        <ele>38.05</ele>
        <time>2020-07-08T09:35:12Z</time>
      </trkpt>
      <trkpt lat="47.79739" lon="-3.51908">
        <ele>37.79</ele>
        <time>2020-07-08T09:35:13Z</time>
      </trkpt>
      <trkpt lat="47.79744" lon="-3.51907">
        <ele>37.4</ele>
        <time>2020-07-08T09:35:14Z</time>
      </trkpt>
      <trkpt lat="47.79749" lon="-3.51905">
        <ele>37.02</ele>
        <time>2020-07-08T09:35:15Z</time>
      </trkpt>
      <trkpt lat="47.79754" lon="-3.51902">
        <ele>36.97</ele>
        <time>2020-07-08T09:35:16Z</time>
      </trkpt>
      <trkpt lat="47.79759" lon="-3.51899">
        <ele>37.17</ele>
        <time>2020-07-08T09:35:17Z</time>
      </trkpt>
      <trkpt lat="47.79762" lon="-3.51898">
        <ele>37.2</ele>
        <time>2020-07-08T09:35:18Z</time>
      </trkpt>
      <trkpt lat="47.79765" lon="-3.51898">
        <ele>37.19</ele>
        <time>2020-07-08T09:35:19Z</time>
      </trkpt>
      <trkpt lat="47.79771" lon="-3.51897">
        <ele>37.07</ele>
        <time>2020-07-08T09:35:20Z</time>
      </trkpt>
      <trkpt lat="47.79778" lon="-3.51896">
        <ele>37.04</ele>
        <time>2020-07-08T09:35:21Z</time>
      </trkpt>
      <trkpt lat="47.79783" lon="-3.51893">
        <ele>37.28</ele>
        <time>2020-07-08T09:35:22Z</time>
      </trkpt>
      <trkpt lat="47.79787" lon="-3.5189">
        <ele>37.67</ele>
        <time>2020-07-08T09:35:23Z</time>
      </trkpt>
      <trkpt lat="47.7979" lon="-3.51887">
        <ele>38</ele>
        <time>2020-07-08T09:35:24Z</time>
      </trkpt>
      <trkpt lat="47.79794" lon="-3.51884">
        <ele>38.27</ele>
        <time>2020-07-08T09:35:25Z</time>
      </trkpt>
      <trkpt lat="47.79798" lon="-3.51879">
        <ele>38.63</ele>
        <time>2020-07-08T09:35:26Z</time>
      </trkpt>
      <trkpt lat="47.79801" lon="-3.51877">
        <ele>38.85</ele>
        <time>2020-07-08T09:35:27Z</time>
      </trkpt>
      <trkpt lat="47.79805" lon="-3.51872">
        <ele>39.11</ele>
        <time>2020-07-08T09:35:28Z</time>
      </trkpt>
      <trkpt lat="47.79809" lon="-3.51868">
        <ele>39.22</ele>
        <time>2020-07-08T09:35:29Z</time>
      </trkpt>
      <trkpt lat="47.79814" lon="-3.51865">
        <ele>39.17</ele>
        <time>2020-07-08T09:35:30Z</time>
      </trkpt>
      <trkpt lat="47.79819" lon="-3.51862">
        <ele>39.01</ele>
        <time>2020-07-08T09:35:31Z</time>
      </trkpt>
      <trkpt lat="47.79825" lon="-3.51861">
        <ele>38.75</ele>
        <time>2020-07-08T09:35:32Z</time>
      </trkpt>
      <trkpt lat="47.79829" lon="-3.51858">
        <ele>38.51</ele>
        <time>2020-07-08T09:35:33Z</time>
      </trkpt>
      <trkpt lat="47.79834" lon="-3.51854">
        <ele>38.31</ele>
        <time>2020-07-08T09:35:34Z</time>
      </trkpt>
      <trkpt lat="47.79837" lon="-3.51851">
        <ele>38.22</ele>
        <time>2020-07-08T09:35:35Z</time>
      </trkpt>
      <trkpt lat="47.79839" lon="-3.51849">
        <ele>38.15</ele>
        <time>2020-07-08T09:35:36Z</time>
      </trkpt>
      <trkpt lat="47.79842" lon="-3.51846">
        <ele>38.13</ele>
        <time>2020-07-08T09:35:37Z</time>
      </trkpt>
      <trkpt lat="47.79844" lon="-3.51842">
        <ele>38.13</ele>
        <time>2020-07-08T09:35:38Z</time>
      </trkpt>
      <trkpt lat="47.79847" lon="-3.5184">
        <ele>38.12</ele>
        <time>2020-07-08T09:35:39Z</time>
      </trkpt>
      <trkpt lat="47.7985" lon="-3.51838">
        <ele>38.1</ele>
        <time>2020-07-08T09:35:40Z</time>
      </trkpt>
      <trkpt lat="47.79855" lon="-3.51835">
        <ele>38.1</ele>
        <time>2020-07-08T09:35:41Z</time>
      </trkpt>
      <trkpt lat="47.79858" lon="-3.51833">
        <ele>38.13</ele>
        <time>2020-07-08T09:35:42Z</time>
      </trkpt>
      <trkpt lat="47.79861" lon="-3.5183">
        <ele>38.2</ele>
        <time>2020-07-08T09:35:43Z</time>
      </trkpt>
      <trkpt lat="47.79864" lon="-3.51828">
        <ele>38.26</ele>
        <time>2020-07-08T09:35:44Z</time>
      </trkpt>
      <trkpt lat="47.79867" lon="-3.51826">
        <ele>38.31</ele>
        <time>2020-07-08T09:35:45Z</time>
      </trkpt>
      <trkpt lat="47.7987" lon="-3.51825">
        <ele>38.35</ele>
        <time>2020-07-08T09:35:46Z</time>
      </trkpt>
      <trkpt lat="47.79873" lon="-3.51823">
        <ele>38.45</ele>
        <time>2020-07-08T09:35:47Z</time>
      </trkpt>
      <trkpt lat="47.79877" lon="-3.51821">
        <ele>38.56</ele>
        <time>2020-07-08T09:35:48Z</time>
      </trkpt>
      <trkpt lat="47.7988" lon="-3.51818">
        <ele>38.7</ele>
        <time>2020-07-08T09:35:49Z</time>
      </trkpt>
      <trkpt lat="47.79883" lon="-3.51816">
        <ele>38.85</ele>
        <time>2020-07-08T09:35:50Z</time>
      </trkpt>
      <trkpt lat="47.79887" lon="-3.51815">
        <ele>38.97</ele>
        <time>2020-07-08T09:35:51Z</time>
      </trkpt>
      <trkpt lat="47.79892" lon="-3.51811">
        <ele>39.07</ele>
        <time>2020-07-08T09:35:52Z</time>
      </trkpt>
      <trkpt lat="47.79896" lon="-3.51811">
        <ele>38.88</ele>
        <time>2020-07-08T09:35:53Z</time>
      </trkpt>
      <trkpt lat="47.799" lon="-3.51809">
        <ele>38.79</ele>
        <time>2020-07-08T09:35:54Z</time>
      </trkpt>
      <trkpt lat="47.79903" lon="-3.51805">
        <ele>38.9</ele>
        <time>2020-07-08T09:35:55Z</time>
      </trkpt>
      <trkpt lat="47.79908" lon="-3.51805">
        <ele>38.8</ele>
        <time>2020-07-08T09:35:56Z</time>
      </trkpt>
      <trkpt lat="47.79911" lon="-3.51803">
        <ele>38.82</ele>
        <time>2020-07-08T09:35:57Z</time>
      </trkpt>
      <trkpt lat="47.79913" lon="-3.51803">
        <ele>38.67</ele>
        <time>2020-07-08T09:35:58Z</time>
      </trkpt>
      <trkpt lat="47.79916" lon="-3.51803">
        <ele>38.55</ele>
        <time>2020-07-08T09:35:59Z</time>
      </trkpt>
      <trkpt lat="47.79919" lon="-3.51803">
        <ele>38.43</ele>
        <time>2020-07-08T09:36:00Z</time>
      </trkpt>
      <trkpt lat="47.79921" lon="-3.51802">
        <ele>38.39</ele>
        <time>2020-07-08T09:36:01Z</time>
      </trkpt>
      <trkpt lat="47.79923" lon="-3.51802">
        <ele>38.29</ele>
        <time>2020-07-08T09:36:02Z</time>
      </trkpt>
      <trkpt lat="47.79927" lon="-3.51801">
        <ele>38.12</ele>
        <time>2020-07-08T09:36:03Z</time>
      </trkpt>
      <trkpt lat="47.79931" lon="-3.51802">
        <ele>37.8</ele>
        <time>2020-07-08T09:36:04Z</time>
      </trkpt>
      <trkpt lat="47.79935" lon="-3.51802">
        <ele>37.41</ele>
        <time>2020-07-08T09:36:05Z</time>
      </trkpt>
      <trkpt lat="47.7994" lon="-3.51802">
        <ele>37.15</ele>
        <time>2020-07-08T09:36:06Z</time>
      </trkpt>
      <trkpt lat="47.79945" lon="-3.51802">
        <ele>36.83</ele>
        <time>2020-07-08T09:36:07Z</time>
      </trkpt>
      <trkpt lat="47.79949" lon="-3.51801">
        <ele>36.82</ele>
        <time>2020-07-08T09:36:08Z</time>
      </trkpt>
      <trkpt lat="47.79954" lon="-3.518">
        <ele>36.99</ele>
        <time>2020-07-08T09:36:09Z</time>
      </trkpt>
      <trkpt lat="47.79959" lon="-3.51798">
        <ele>37.21</ele>
        <time>2020-07-08T09:36:10Z</time>
      </trkpt>
      <trkpt lat="47.79965" lon="-3.51797">
        <ele>37.44</ele>
        <time>2020-07-08T09:36:11Z</time>
      </trkpt>
      <trkpt lat="47.7997" lon="-3.51796">
        <ele>37.59</ele>
        <time>2020-07-08T09:36:12Z</time>
      </trkpt>
      <trkpt lat="47.79976" lon="-3.51797">
        <ele>37.49</ele>
        <time>2020-07-08T09:36:13Z</time>
      </trkpt>
      <trkpt lat="47.79983" lon="-3.51798">
        <ele>37.11</ele>
        <time>2020-07-08T09:36:14Z</time>
      </trkpt>
      <trkpt lat="47.79991" lon="-3.51801">
        <ele>36.51</ele>
        <time>2020-07-08T09:36:15Z</time>
      </trkpt>
      <trkpt lat="47.8" lon="-3.51805">
        <ele>35.49</ele>
        <time>2020-07-08T09:36:16Z</time>
      </trkpt>
      <trkpt lat="47.80008" lon="-3.51811">
        <ele>34.48</ele>
        <time>2020-07-08T09:36:17Z</time>
      </trkpt>
      <trkpt lat="47.80017" lon="-3.51816">
        <ele>33.51</ele>
        <time>2020-07-08T09:36:18Z</time>
      </trkpt>
      <trkpt lat="47.80024" lon="-3.5182">
        <ele>32.73</ele>
        <time>2020-07-08T09:36:19Z</time>
      </trkpt>
      <trkpt lat="47.8003" lon="-3.51822">
        <ele>32.28</ele>
        <time>2020-07-08T09:36:20Z</time>
      </trkpt>
      <trkpt lat="47.80035" lon="-3.51822">
        <ele>32.26</ele>
        <time>2020-07-08T09:36:21Z</time>
      </trkpt>
      <trkpt lat="47.8004" lon="-3.51822">
        <ele>32.45</ele>
        <time>2020-07-08T09:36:22Z</time>
      </trkpt>
      <trkpt lat="47.80046" lon="-3.51821">
        <ele>32.79</ele>
        <time>2020-07-08T09:36:23Z</time>
      </trkpt>
      <trkpt lat="47.80054" lon="-3.51818">
        <ele>33.45</ele>
        <time>2020-07-08T09:36:24Z</time>
      </trkpt>
      <trkpt lat="47.80061" lon="-3.51813">
        <ele>34.28</ele>
        <time>2020-07-08T09:36:25Z</time>
      </trkpt>
      <trkpt lat="47.80069" lon="-3.51808">
        <ele>35.18</ele>
        <time>2020-07-08T09:36:26Z</time>
      </trkpt>
      <trkpt lat="47.80077" lon="-3.51805">
        <ele>35.77</ele>
        <time>2020-07-08T09:36:27Z</time>
      </trkpt>
      <trkpt lat="47.80083" lon="-3.51802">
        <ele>36.19</ele>
        <time>2020-07-08T09:36:28Z</time>
      </trkpt>
      <trkpt lat="47.80087" lon="-3.51798">
        <ele>36.5</ele>
        <time>2020-07-08T09:36:29Z</time>
      </trkpt>
      <trkpt lat="47.8009" lon="-3.51795">
        <ele>36.76</ele>
        <time>2020-07-08T09:36:30Z</time>
      </trkpt>
      <trkpt lat="47.80092" lon="-3.51794">
        <ele>36.91</ele>
        <time>2020-07-08T09:36:31Z</time>
      </trkpt>
      <trkpt lat="47.80093" lon="-3.51793">
        <ele>36.97</ele>
        <time>2020-07-08T09:36:32Z</time>
      </trkpt>
      <trkpt lat="47.80094" lon="-3.51792">
        <ele>37.01</ele>
        <time>2020-07-08T09:36:33Z</time>
      </trkpt>
      <trkpt lat="47.80094" lon="-3.51791">
        <ele>37.1</ele>
        <time>2020-07-08T09:36:34Z</time>
      </trkpt>
      <trkpt lat="47.80094" lon="-3.51791">
        <ele>37.17</ele>
        <time>2020-07-08T09:36:35Z</time>
      </trkpt>
      <trkpt lat="47.80094" lon="-3.51791">
        <ele>37.2</ele>
        <time>2020-07-08T09:36:36Z</time>
      </trkpt>
      <trkpt lat="47.80094" lon="-3.51791">
        <ele>37.2</ele>
        <time>2020-07-08T09:36:37Z</time>
      </trkpt>
      <trkpt lat="47.80094" lon="-3.51791">
        <ele>37.21</ele>
        <time>2020-07-08T09:36:38Z</time>
      </trkpt>
      <trkpt lat="47.80094" lon="-3.51791">
        <ele>37.21</ele>
        <time>2020-07-08T09:36:39Z</time>
      </trkpt>
      <trkpt lat="47.80094" lon="-3.51791">
        <ele>37.21</ele>
        <time>2020-07-08T09:36:40Z</time>
      </trkpt>
      <trkpt lat="47.80094" lon="-3.51791">
        <ele>37.21</ele>
        <time>2020-07-08T09:36:41Z</time>
      </trkpt>
      <trkpt lat="47.80094" lon="-3.51791">
        <ele>37.21</ele>
        <time>2020-07-08T09:36:42Z</time>
      </trkpt>
      <trkpt lat="47.80094" lon="-3.51791">
        <ele>37.21</ele>
        <time>2020-07-08T09:36:43Z</time>
      </trkpt>
      <trkpt lat="47.80094" lon="-3.51791">
        <ele>37.21</ele>
        <time>2020-07-08T09:36:44Z</time>
      </trkpt>
      <trkpt lat="47.80094" lon="-3.51791">
        <ele>37.21</ele>
        <time>2020-07-08T09:36:45Z</time>
      </trkpt>
      <trkpt lat="47.80094" lon="-3.51791">
        <ele>37.21</ele>
        <time>2020-07-08T09:36:46Z</time>
      </trkpt>
      <trkpt lat="47.80094" lon="-3.51791">
        <ele>37.21</ele>
        <time>2020-07-08T09:36:47Z</time>
      </trkpt>
      <trkpt lat="47.80094" lon="-3.51791">
        <ele>37.21</ele>
        <time>2020-07-08T09:36:48Z</time>
      </trkpt>
      <trkpt lat="47.80094" lon="-3.51791">
        <ele>37.21</ele>
        <time>2020-07-08T09:36:49Z</time>
      </trkpt>
      <trkpt lat="47.80094" lon="-3.51785">
        <ele>37.62</ele>
        <time>2020-07-08T09:36:50Z</time>
      </trkpt>
      <trkpt lat="47.80095" lon="-3.51783">
        <ele>37.86</ele>
        <time>2020-07-08T09:36:51Z</time>
      </trkpt>
      <trkpt lat="47.80096" lon="-3.51782">
        <ele>38.02</ele>
        <time>2020-07-08T09:36:52Z</time>
      </trkpt>
      <trkpt lat="47.80098" lon="-3.5178">
        <ele>38.13</ele>
        <time>2020-07-08T09:36:53Z</time>
      </trkpt>
      <trkpt lat="47.80099" lon="-3.51778">
        <ele>38.34</ele>
        <time>2020-07-08T09:36:54Z</time>
      </trkpt>
      <trkpt lat="47.80101" lon="-3.51778">
        <ele>38.35</ele>
        <time>2020-07-08T09:36:55Z</time>
      </trkpt>
      <trkpt lat="47.80103" lon="-3.51777">
        <ele>38.32</ele>
        <time>2020-07-08T09:36:56Z</time>
      </trkpt>
      <trkpt lat="47.80105" lon="-3.51776">
        <ele>38.32</ele>
        <time>2020-07-08T09:36:57Z</time>
      </trkpt>
      <trkpt lat="47.80106" lon="-3.51773">
        <ele>38.36</ele>
        <time>2020-07-08T09:36:58Z</time>
      </trkpt>
      <trkpt lat="47.80108" lon="-3.5177">
        <ele>38.39</ele>
        <time>2020-07-08T09:36:59Z</time>
      </trkpt>
      <trkpt lat="47.80109" lon="-3.51768">
        <ele>38.41</ele>
        <time>2020-07-08T09:37:00Z</time>
      </trkpt>
      <trkpt lat="47.8011" lon="-3.51766">
        <ele>38.46</ele>
        <time>2020-07-08T09:37:01Z</time>
      </trkpt>
      <trkpt lat="47.80111" lon="-3.51764">
        <ele>38.5</ele>
        <time>2020-07-08T09:37:02Z</time>
      </trkpt>
      <trkpt lat="47.80112" lon="-3.51762">
        <ele>38.48</ele>
        <time>2020-07-08T09:37:03Z</time>
      </trkpt>
      <trkpt lat="47.80114" lon="-3.5176">
        <ele>38.36</ele>
        <time>2020-07-08T09:37:04Z</time>
      </trkpt>
      <trkpt lat="47.80115" lon="-3.51759">
        <ele>38.29</ele>
        <time>2020-07-08T09:37:05Z</time>
      </trkpt>
      <trkpt lat="47.80116" lon="-3.51757">
        <ele>38.24</ele>
        <time>2020-07-08T09:37:06Z</time>
      </trkpt>
      <trkpt lat="47.80118" lon="-3.51754">
        <ele>38.17</ele>
        <time>2020-07-08T09:37:07Z</time>
      </trkpt>
      <trkpt lat="47.80119" lon="-3.51752">
        <ele>38.1</ele>
        <time>2020-07-08T09:37:08Z</time>
      </trkpt>
      <trkpt lat="47.80119" lon="-3.51751">
        <ele>38.08</ele>
        <time>2020-07-08T09:37:09Z</time>
      </trkpt>
      <trkpt lat="47.80119" lon="-3.51751">
        <ele>38.08</ele>
        <time>2020-07-08T09:37:10Z</time>
      </trkpt>
      <trkpt lat="47.80119" lon="-3.5175">
        <ele>38.11</ele>
        <time>2020-07-08T09:37:11Z</time>
      </trkpt>
      <trkpt lat="47.80119" lon="-3.5175">
        <ele>38.11</ele>
        <time>2020-07-08T09:37:12Z</time>
      </trkpt>
      <trkpt lat="47.80119" lon="-3.5175">
        <ele>38.12</ele>
        <time>2020-07-08T09:37:13Z</time>
      </trkpt>
      <trkpt lat="47.80119" lon="-3.5175">
        <ele>38.12</ele>
        <time>2020-07-08T09:37:14Z</time>
      </trkpt>
      <trkpt lat="47.80122" lon="-3.5174">
        <ele>38.04</ele>
        <time>2020-07-08T09:37:15Z</time>
      </trkpt>
      <trkpt lat="47.80122" lon="-3.51736">
        <ele>38.01</ele>
        <time>2020-07-08T09:37:16Z</time>
      </trkpt>
      <trkpt lat="47.80124" lon="-3.51731">
        <ele>37.96</ele>
        <time>2020-07-08T09:37:17Z</time>
      </trkpt>
      <trkpt lat="47.80125" lon="-3.51726">
        <ele>37.93</ele>
        <time>2020-07-08T09:37:18Z</time>
      </trkpt>
      <trkpt lat="47.80127" lon="-3.5172">
        <ele>37.86</ele>
        <time>2020-07-08T09:37:19Z</time>
      </trkpt>
      <trkpt lat="47.80128" lon="-3.51714">
        <ele>37.73</ele>
        <time>2020-07-08T09:37:20Z</time>
      </trkpt>
      <trkpt lat="47.80128" lon="-3.51707">
        <ele>37.61</ele>
        <time>2020-07-08T09:37:21Z</time>
      </trkpt>
      <trkpt lat="47.80129" lon="-3.517">
        <ele>37.49</ele>
        <time>2020-07-08T09:37:22Z</time>
      </trkpt>
      <trkpt lat="47.80129" lon="-3.51695">
        <ele>37.39</ele>
        <time>2020-07-08T09:37:23Z</time>
      </trkpt>
      <trkpt lat="47.8013" lon="-3.51691">
        <ele>37.31</ele>
        <time>2020-07-08T09:37:24Z</time>
      </trkpt>
      <trkpt lat="47.80133" lon="-3.51688">
        <ele>37.21</ele>
        <time>2020-07-08T09:37:25Z</time>
      </trkpt>
      <trkpt lat="47.80137" lon="-3.51691">
        <ele>37.1</ele>
        <time>2020-07-08T09:37:26Z</time>
      </trkpt>
      <trkpt lat="47.80142" lon="-3.51694">
        <ele>36.96</ele>
        <time>2020-07-08T09:37:27Z</time>
      </trkpt>
      <trkpt lat="47.80146" lon="-3.51696">
        <ele>36.78</ele>
        <time>2020-07-08T09:37:28Z</time>
      </trkpt>
      <trkpt lat="47.80152" lon="-3.51698">
        <ele>36.54</ele>
        <time>2020-07-08T09:37:29Z</time>
      </trkpt>
      <trkpt lat="47.80156" lon="-3.517">
        <ele>36.26</ele>
        <time>2020-07-08T09:37:30Z</time>
      </trkpt>
      <trkpt lat="47.80161" lon="-3.51703">
        <ele>35.88</ele>
        <time>2020-07-08T09:37:31Z</time>
      </trkpt>
      <trkpt lat="47.80167" lon="-3.51704">
        <ele>35.5</ele>
        <time>2020-07-08T09:37:32Z</time>
      </trkpt>
      <trkpt lat="47.80171" lon="-3.51706">
        <ele>34.99</ele>
        <time>2020-07-08T09:37:33Z</time>
      </trkpt>
      <trkpt lat="47.80176" lon="-3.51708">
        <ele>34.41</ele>
        <time>2020-07-08T09:37:34Z</time>
      </trkpt>
      <trkpt lat="47.80181" lon="-3.5171">
        <ele>33.81</ele>
        <time>2020-07-08T09:37:35Z</time>
      </trkpt>
      <trkpt lat="47.80185" lon="-3.51713">
        <ele>33.19</ele>
        <time>2020-07-08T09:37:36Z</time>
      </trkpt>
      <trkpt lat="47.80189" lon="-3.51713">
        <ele>32.66</ele>
        <time>2020-07-08T09:37:37Z</time>
      </trkpt>
      <trkpt lat="47.80194" lon="-3.51712">
        <ele>32.3</ele>
        <time>2020-07-08T09:37:38Z</time>
      </trkpt>
      <trkpt lat="47.80199" lon="-3.5171">
        <ele>32.34</ele>
        <time>2020-07-08T09:37:39Z</time>
      </trkpt>
      <trkpt lat="47.80202" lon="-3.51708">
        <ele>32.48</ele>
        <time>2020-07-08T09:37:40Z</time>
      </trkpt>
      <trkpt lat="47.80206" lon="-3.51706">
        <ele>32.64</ele>
        <time>2020-07-08T09:37:41Z</time>
      </trkpt>
      <trkpt lat="47.80209" lon="-3.51704">
        <ele>32.88</ele>
        <time>2020-07-08T09:37:42Z</time>
      </trkpt>
      <trkpt lat="47.80211" lon="-3.51703">
        <ele>33.04</ele>
        <time>2020-07-08T09:37:43Z</time>
      </trkpt>
      <trkpt lat="47.80214" lon="-3.51701">
        <ele>33.2</ele>
        <time>2020-07-08T09:37:44Z</time>
      </trkpt>
      <trkpt lat="47.80216" lon="-3.51699">
        <ele>33.4</ele>
        <time>2020-07-08T09:37:45Z</time>
      </trkpt>
      <trkpt lat="47.80219" lon="-3.51698">
        <ele>33.55</ele>
        <time>2020-07-08T09:37:46Z</time>
      </trkpt>
      <trkpt lat="47.80221" lon="-3.51698">
        <ele>33.61</ele>
        <time>2020-07-08T09:37:47Z</time>
      </trkpt>
      <trkpt lat="47.80224" lon="-3.51698">
        <ele>33.76</ele>
        <time>2020-07-08T09:37:48Z</time>
      </trkpt>
      <trkpt lat="47.80227" lon="-3.51698">
        <ele>34.06</ele>
        <time>2020-07-08T09:37:49Z</time>
      </trkpt>
      <trkpt lat="47.80231" lon="-3.51697">
        <ele>34.44</ele>
        <time>2020-07-08T09:37:50Z</time>
      </trkpt>
      <trkpt lat="47.80233" lon="-3.51698">
        <ele>34.69</ele>
        <time>2020-07-08T09:37:51Z</time>
      </trkpt>
      <trkpt lat="47.80236" lon="-3.51697">
        <ele>35.03</ele>
        <time>2020-07-08T09:37:52Z</time>
      </trkpt>
      <trkpt lat="47.80239" lon="-3.51698">
        <ele>35.33</ele>
        <time>2020-07-08T09:37:53Z</time>
      </trkpt>
      <trkpt lat="47.80242" lon="-3.51698">
        <ele>35.6</ele>
        <time>2020-07-08T09:37:54Z</time>
      </trkpt>
      <trkpt lat="47.80244" lon="-3.51699">
        <ele>35.85</ele>
        <time>2020-07-08T09:37:55Z</time>
      </trkpt>
      <trkpt lat="47.80248" lon="-3.517">
        <ele>36.1</ele>
        <time>2020-07-08T09:37:56Z</time>
      </trkpt>
      <trkpt lat="47.80251" lon="-3.517">
        <ele>36.41</ele>
        <time>2020-07-08T09:37:57Z</time>
      </trkpt>
      <trkpt lat="47.80254" lon="-3.517">
        <ele>36.84</ele>
        <time>2020-07-08T09:37:58Z</time>
      </trkpt>
      <trkpt lat="47.80258" lon="-3.517">
        <ele>37.32</ele>
        <time>2020-07-08T09:37:59Z</time>
      </trkpt>
      <trkpt lat="47.80261" lon="-3.51701">
        <ele>37.75</ele>
        <time>2020-07-08T09:38:00Z</time>
      </trkpt>
      <trkpt lat="47.80264" lon="-3.51702">
        <ele>38.17</ele>
        <time>2020-07-08T09:38:01Z</time>
      </trkpt>
      <trkpt lat="47.80268" lon="-3.51704">
        <ele>38.67</ele>
        <time>2020-07-08T09:38:02Z</time>
      </trkpt>
      <trkpt lat="47.80272" lon="-3.51704">
        <ele>39.19</ele>
        <time>2020-07-08T09:38:03Z</time>
      </trkpt>
      <trkpt lat="47.80276" lon="-3.51706">
        <ele>39.66</ele>
        <time>2020-07-08T09:38:04Z</time>
      </trkpt>
      <trkpt lat="47.80278" lon="-3.51707">
        <ele>39.98</ele>
        <time>2020-07-08T09:38:05Z</time>
      </trkpt>
      <trkpt lat="47.80282" lon="-3.51707">
        <ele>40.02</ele>
        <time>2020-07-08T09:38:06Z</time>
      </trkpt>
      <trkpt lat="47.80285" lon="-3.51708">
        <ele>39.95</ele>
        <time>2020-07-08T09:38:07Z</time>
      </trkpt>
      <trkpt lat="47.80288" lon="-3.51708">
        <ele>39.88</ele>
        <time>2020-07-08T09:38:08Z</time>
      </trkpt>
      <trkpt lat="47.80291" lon="-3.51709">
        <ele>39.74</ele>
        <time>2020-07-08T09:38:09Z</time>
      </trkpt>
      <trkpt lat="47.80294" lon="-3.5171">
        <ele>39.61</ele>
        <time>2020-07-08T09:38:10Z</time>
      </trkpt>
      <trkpt lat="47.80299" lon="-3.5171">
        <ele>39.47</ele>
        <time>2020-07-08T09:38:11Z</time>
      </trkpt>
      <trkpt lat="47.80302" lon="-3.5171">
        <ele>39.4</ele>
        <time>2020-07-08T09:38:12Z</time>
      </trkpt>
      <trkpt lat="47.80306" lon="-3.51711">
        <ele>39.26</ele>
        <time>2020-07-08T09:38:13Z</time>
      </trkpt>
      <trkpt lat="47.8031" lon="-3.51711">
        <ele>39.24</ele>
        <time>2020-07-08T09:38:14Z</time>
      </trkpt>
      <trkpt lat="47.80314" lon="-3.51712">
        <ele>39.26</ele>
        <time>2020-07-08T09:38:15Z</time>
      </trkpt>
      <trkpt lat="47.80319" lon="-3.51712">
        <ele>39.27</ele>
        <time>2020-07-08T09:38:16Z</time>
      </trkpt>
      <trkpt lat="47.80323" lon="-3.51713">
        <ele>39.21</ele>
        <time>2020-07-08T09:38:17Z</time>
      </trkpt>
      <trkpt lat="47.80327" lon="-3.51713">
        <ele>39.19</ele>
        <time>2020-07-08T09:38:18Z</time>
      </trkpt>
      <trkpt lat="47.8033" lon="-3.51711">
        <ele>39.48</ele>
        <time>2020-07-08T09:38:19Z</time>
      </trkpt>
      <trkpt lat="47.80335" lon="-3.51706">
        <ele>40.12</ele>
        <time>2020-07-08T09:38:20Z</time>
      </trkpt>
      <trkpt lat="47.80339" lon="-3.51702">
        <ele>40.77</ele>
        <time>2020-07-08T09:38:21Z</time>
      </trkpt>
      <trkpt lat="47.80343" lon="-3.517">
        <ele>41.14</ele>
        <time>2020-07-08T09:38:22Z</time>
      </trkpt>
      <trkpt lat="47.80347" lon="-3.51697">
        <ele>41.52</ele>
        <time>2020-07-08T09:38:23Z</time>
      </trkpt>
      <trkpt lat="47.8035" lon="-3.51695">
        <ele>41.84</ele>
        <time>2020-07-08T09:38:24Z</time>
      </trkpt>
      <trkpt lat="47.80353" lon="-3.51691">
        <ele>42.13</ele>
        <time>2020-07-08T09:38:25Z</time>
      </trkpt>
      <trkpt lat="47.80356" lon="-3.51689">
        <ele>42.33</ele>
        <time>2020-07-08T09:38:26Z</time>
      </trkpt>
      <trkpt lat="47.8036" lon="-3.51687">
        <ele>42.48</ele>
        <time>2020-07-08T09:38:27Z</time>
      </trkpt>
      <trkpt lat="47.80363" lon="-3.51685">
        <ele>42.47</ele>
        <time>2020-07-08T09:38:28Z</time>
      </trkpt>
      <trkpt lat="47.80366" lon="-3.51684">
        <ele>42.28</ele>
        <time>2020-07-08T09:38:29Z</time>
      </trkpt>
      <trkpt lat="47.80369" lon="-3.51682">
        <ele>42.03</ele>
        <time>2020-07-08T09:38:30Z</time>
      </trkpt>
      <trkpt lat="47.80371" lon="-3.51682">
        <ele>41.8</ele>
        <time>2020-07-08T09:38:31Z</time>
      </trkpt>
      <trkpt lat="47.80372" lon="-3.51682">
        <ele>41.67</ele>
        <time>2020-07-08T09:38:32Z</time>
      </trkpt>
      <trkpt lat="47.80373" lon="-3.51683">
        <ele>41.48</ele>
        <time>2020-07-08T09:38:33Z</time>
      </trkpt>
      <trkpt lat="47.80375" lon="-3.51684">
        <ele>41.2</ele>
        <time>2020-07-08T09:38:34Z</time>
      </trkpt>
      <trkpt lat="47.80377" lon="-3.51687">
        <ele>40.81</ele>
        <time>2020-07-08T09:38:35Z</time>
      </trkpt>
      <trkpt lat="47.80379" lon="-3.5169">
        <ele>40.46</ele>
        <time>2020-07-08T09:38:36Z</time>
      </trkpt>
      <trkpt lat="47.8038" lon="-3.51694">
        <ele>40.12</ele>
        <time>2020-07-08T09:38:37Z</time>
      </trkpt>
      <trkpt lat="47.80381" lon="-3.51698">
        <ele>39.86</ele>
        <time>2020-07-08T09:38:38Z</time>
      </trkpt>
      <trkpt lat="47.80383" lon="-3.51702">
        <ele>39.65</ele>
        <time>2020-07-08T09:38:39Z</time>
      </trkpt>
      <trkpt lat="47.80384" lon="-3.51705">
        <ele>39.49</ele>
        <time>2020-07-08T09:38:40Z</time>
      </trkpt>
      <trkpt lat="47.80385" lon="-3.51709">
        <ele>39.36</ele>
        <time>2020-07-08T09:38:41Z</time>
      </trkpt>
      <trkpt lat="47.80385" lon="-3.51713">
        <ele>39.25</ele>
        <time>2020-07-08T09:38:42Z</time>
      </trkpt>
      <trkpt lat="47.80386" lon="-3.51717">
        <ele>39.16</ele>
        <time>2020-07-08T09:38:43Z</time>
      </trkpt>
      <trkpt lat="47.80388" lon="-3.51721">
        <ele>39.08</ele>
        <time>2020-07-08T09:38:44Z</time>
      </trkpt>
      <trkpt lat="47.8039" lon="-3.51725">
        <ele>38.77</ele>
        <time>2020-07-08T09:38:45Z</time>
      </trkpt>
      <trkpt lat="47.80392" lon="-3.51728">
        <ele>38.21</ele>
        <time>2020-07-08T09:38:46Z</time>
      </trkpt>
      <trkpt lat="47.80393" lon="-3.51731">
        <ele>37.6</ele>
        <time>2020-07-08T09:38:47Z</time>
      </trkpt>
      <trkpt lat="47.80395" lon="-3.51734">
        <ele>37.05</ele>
        <time>2020-07-08T09:38:48Z</time>
      </trkpt>
      <trkpt lat="47.80396" lon="-3.51736">
        <ele>36.65</ele>
        <time>2020-07-08T09:38:49Z</time>
      </trkpt>
      <trkpt lat="47.80396" lon="-3.5174">
        <ele>36.33</ele>
        <time>2020-07-08T09:38:50Z</time>
      </trkpt>
      <trkpt lat="47.80396" lon="-3.51743">
        <ele>36.11</ele>
        <time>2020-07-08T09:38:51Z</time>
      </trkpt>
      <trkpt lat="47.80396" lon="-3.51747">
        <ele>35.94</ele>
        <time>2020-07-08T09:38:52Z</time>
      </trkpt>
      <trkpt lat="47.80396" lon="-3.5175">
        <ele>35.74</ele>
        <time>2020-07-08T09:38:53Z</time>
      </trkpt>
      <trkpt lat="47.80396" lon="-3.51754">
        <ele>35.27</ele>
        <time>2020-07-08T09:38:54Z</time>
      </trkpt>
      <trkpt lat="47.80397" lon="-3.51757">
        <ele>34.79</ele>
        <time>2020-07-08T09:38:55Z</time>
      </trkpt>
      <trkpt lat="47.80398" lon="-3.5176">
        <ele>34.34</ele>
        <time>2020-07-08T09:38:56Z</time>
      </trkpt>
      <trkpt lat="47.80399" lon="-3.51762">
        <ele>33.98</ele>
        <time>2020-07-08T09:38:57Z</time>
      </trkpt>
      <trkpt lat="47.80398" lon="-3.51765">
        <ele>33.66</ele>
        <time>2020-07-08T09:38:58Z</time>
      </trkpt>
      <trkpt lat="47.80399" lon="-3.51767">
        <ele>33.36</ele>
        <time>2020-07-08T09:38:59Z</time>
      </trkpt>
      <trkpt lat="47.80399" lon="-3.51769">
        <ele>33.07</ele>
        <time>2020-07-08T09:39:00Z</time>
      </trkpt>
      <trkpt lat="47.80399" lon="-3.51772">
        <ele>32.79</ele>
        <time>2020-07-08T09:39:01Z</time>
      </trkpt>
      <trkpt lat="47.804" lon="-3.51774">
        <ele>32.56</ele>
        <time>2020-07-08T09:39:02Z</time>
      </trkpt>
      <trkpt lat="47.804" lon="-3.51776">
        <ele>32.29</ele>
        <time>2020-07-08T09:39:03Z</time>
      </trkpt>
      <trkpt lat="47.80401" lon="-3.51779">
        <ele>31.97</ele>
        <time>2020-07-08T09:39:04Z</time>
      </trkpt>
      <trkpt lat="47.80402" lon="-3.51781">
        <ele>31.66</ele>
        <time>2020-07-08T09:39:05Z</time>
      </trkpt>
      <trkpt lat="47.80403" lon="-3.51783">
        <ele>31.33</ele>
        <time>2020-07-08T09:39:06Z</time>
      </trkpt>
      <trkpt lat="47.80405" lon="-3.51786">
        <ele>31.07</ele>
        <time>2020-07-08T09:39:07Z</time>
      </trkpt>
      <trkpt lat="47.80405" lon="-3.51787">
        <ele>30.91</ele>
        <time>2020-07-08T09:39:08Z</time>
      </trkpt>
      <trkpt lat="47.80407" lon="-3.51787">
        <ele>30.9</ele>
        <time>2020-07-08T09:39:09Z</time>
      </trkpt>
      <trkpt lat="47.80407" lon="-3.51787">
        <ele>30.9</ele>
        <time>2020-07-08T09:39:10Z</time>
      </trkpt>
      <trkpt lat="47.80407" lon="-3.51787">
        <ele>30.9</ele>
        <time>2020-07-08T09:39:11Z</time>
      </trkpt>
      <trkpt lat="47.80407" lon="-3.51787">
        <ele>30.9</ele>
        <time>2020-07-08T09:39:12Z</time>
      </trkpt>
      <trkpt lat="47.80407" lon="-3.51787">
        <ele>30.9</ele>
        <time>2020-07-08T09:39:13Z</time>
      </trkpt>
      <trkpt lat="47.80407" lon="-3.51787">
        <ele>30.9</ele>
        <time>2020-07-08T09:39:14Z</time>
      </trkpt>
      <trkpt lat="47.80407" lon="-3.51787">
        <ele>30.9</ele>
        <time>2020-07-08T09:39:15Z</time>
      </trkpt>
      <trkpt lat="47.80407" lon="-3.51787">
        <ele>30.9</ele>
        <time>2020-07-08T09:39:16Z</time>
      </trkpt>
      <trkpt lat="47.80407" lon="-3.51787">
        <ele>30.9</ele>
        <time>2020-07-08T09:39:17Z</time>
      </trkpt>
      <trkpt lat="47.80407" lon="-3.51787">
        <ele>30.9</ele>
        <time>2020-07-08T09:39:18Z</time>
      </trkpt>
      <trkpt lat="47.80407" lon="-3.51787">
        <ele>30.9</ele>
        <time>2020-07-08T09:39:19Z</time>
      </trkpt>
      <trkpt lat="47.80407" lon="-3.51787">
        <ele>30.9</ele>
        <time>2020-07-08T09:39:20Z</time>
      </trkpt>
      <trkpt lat="47.80407" lon="-3.51787">
        <ele>30.9</ele>
        <time>2020-07-08T09:39:21Z</time>
      </trkpt>
      <trkpt lat="47.80409" lon="-3.51797">
        <ele>30.19</ele>
        <time>2020-07-08T09:39:22Z</time>
      </trkpt>
      <trkpt lat="47.80411" lon="-3.518">
        <ele>29.85</ele>
        <time>2020-07-08T09:39:23Z</time>
      </trkpt>
      <trkpt lat="47.80414" lon="-3.51804">
        <ele>29.77</ele>
        <time>2020-07-08T09:39:24Z</time>
      </trkpt>
      <trkpt lat="47.80416" lon="-3.51808">
        <ele>29.66</ele>
        <time>2020-07-08T09:39:25Z</time>
      </trkpt>
      <trkpt lat="47.80418" lon="-3.51811">
        <ele>29.23</ele>
        <time>2020-07-08T09:39:26Z</time>
      </trkpt>
      <trkpt lat="47.80421" lon="-3.51811">
        <ele>28.84</ele>
        <time>2020-07-08T09:39:27Z</time>
      </trkpt>
      <trkpt lat="47.80424" lon="-3.51808">
        <ele>28.77</ele>
        <time>2020-07-08T09:39:28Z</time>
      </trkpt>
      <trkpt lat="47.80424" lon="-3.51806">
        <ele>28.87</ele>
        <time>2020-07-08T09:39:29Z</time>
      </trkpt>
      <trkpt lat="47.80425" lon="-3.51803">
        <ele>28.88</ele>
        <time>2020-07-08T09:39:30Z</time>
      </trkpt>
      <trkpt lat="47.80426" lon="-3.51801">
        <ele>28.82</ele>
        <time>2020-07-08T09:39:31Z</time>
      </trkpt>
      <trkpt lat="47.80427" lon="-3.51798">
        <ele>28.68</ele>
        <time>2020-07-08T09:39:32Z</time>
      </trkpt>
      <trkpt lat="47.80429" lon="-3.51794">
        <ele>28.43</ele>
        <time>2020-07-08T09:39:33Z</time>
      </trkpt>
      <trkpt lat="47.80432" lon="-3.5179">
        <ele>27.96</ele>
        <time>2020-07-08T09:39:34Z</time>
      </trkpt>
      <trkpt lat="47.80435" lon="-3.51786">
        <ele>27.26</ele>
        <time>2020-07-08T09:39:35Z</time>
      </trkpt>
      <trkpt lat="47.80437" lon="-3.51783">
        <ele>26.53</ele>
        <time>2020-07-08T09:39:36Z</time>
      </trkpt>
      <trkpt lat="47.80439" lon="-3.5178">
        <ele>25.85</ele>
        <time>2020-07-08T09:39:37Z</time>
      </trkpt>
      <trkpt lat="47.80442" lon="-3.51777">
        <ele>25.04</ele>
        <time>2020-07-08T09:39:38Z</time>
      </trkpt>
      <trkpt lat="47.80443" lon="-3.51777">
        <ele>24.6</ele>
        <time>2020-07-08T09:39:39Z</time>
      </trkpt>
      <trkpt lat="47.80444" lon="-3.51777">
        <ele>24.1</ele>
        <time>2020-07-08T09:39:40Z</time>
      </trkpt>
      <trkpt lat="47.80445" lon="-3.51779">
        <ele>23.59</ele>
        <time>2020-07-08T09:39:41Z</time>
      </trkpt>
      <trkpt lat="47.80447" lon="-3.51781">
        <ele>22.75</ele>
        <time>2020-07-08T09:39:42Z</time>
      </trkpt>
      <trkpt lat="47.80448" lon="-3.51784">
        <ele>22.35</ele>
        <time>2020-07-08T09:39:43Z</time>
      </trkpt>
      <trkpt lat="47.80448" lon="-3.51787">
        <ele>22.39</ele>
        <time>2020-07-08T09:39:44Z</time>
      </trkpt>
      <trkpt lat="47.80449" lon="-3.5179">
        <ele>22.11</ele>
        <time>2020-07-08T09:39:45Z</time>
      </trkpt>
      <trkpt lat="47.80449" lon="-3.51793">
        <ele>22.1</ele>
        <time>2020-07-08T09:39:46Z</time>
      </trkpt>
      <trkpt lat="47.80448" lon="-3.51795">
        <ele>22.5</ele>
        <time>2020-07-08T09:39:47Z</time>
      </trkpt>
      <trkpt lat="47.80448" lon="-3.51795">
        <ele>22.73</ele>
        <time>2020-07-08T09:39:48Z</time>
      </trkpt>
      <trkpt lat="47.80448" lon="-3.51795">
        <ele>22.95</ele>
        <time>2020-07-08T09:39:49Z</time>
      </trkpt>
      <trkpt lat="47.80448" lon="-3.51795">
        <ele>22.82</ele>
        <time>2020-07-08T09:39:50Z</time>
      </trkpt>
      <trkpt lat="47.80448" lon="-3.51795">
        <ele>22.78</ele>
        <time>2020-07-08T09:39:51Z</time>
      </trkpt>
      <trkpt lat="47.80448" lon="-3.51795">
        <ele>22.77</ele>
        <time>2020-07-08T09:39:52Z</time>
      </trkpt>
      <trkpt lat="47.80451" lon="-3.51789">
        <ele>21.49</ele>
        <time>2020-07-08T09:39:53Z</time>
      </trkpt>
      <trkpt lat="47.80452" lon="-3.51785">
        <ele>20.4</ele>
        <time>2020-07-08T09:39:54Z</time>
      </trkpt>
      <trkpt lat="47.80454" lon="-3.51783">
        <ele>19.03</ele>
        <time>2020-07-08T09:39:55Z</time>
      </trkpt>
      <trkpt lat="47.80455" lon="-3.51773">
        <ele>17.45</ele>
        <time>2020-07-08T09:39:56Z</time>
      </trkpt>
      <trkpt lat="47.80456" lon="-3.5177">
        <ele>16.53</ele>
        <time>2020-07-08T09:39:57Z</time>
      </trkpt>
      <trkpt lat="47.80457" lon="-3.51768">
        <ele>15.58</ele>
        <time>2020-07-08T09:39:58Z</time>
      </trkpt>
      <trkpt lat="47.80458" lon="-3.51765">
        <ele>14.96</ele>
        <time>2020-07-08T09:39:59Z</time>
      </trkpt>
      <trkpt lat="47.80458" lon="-3.51763">
        <ele>14.42</ele>
        <time>2020-07-08T09:40:00Z</time>
      </trkpt>
      <trkpt lat="47.80459" lon="-3.5176">
        <ele>13.88</ele>
        <time>2020-07-08T09:40:01Z</time>
      </trkpt>
      <trkpt lat="47.8046" lon="-3.51758">
        <ele>13.32</ele>
        <time>2020-07-08T09:40:02Z</time>
      </trkpt>
      <trkpt lat="47.80461" lon="-3.51756">
        <ele>12.48</ele>
        <time>2020-07-08T09:40:03Z</time>
      </trkpt>
      <trkpt lat="47.80461" lon="-3.51753">
        <ele>12.28</ele>
        <time>2020-07-08T09:40:04Z</time>
      </trkpt>
      <trkpt lat="47.80463" lon="-3.5175">
        <ele>11.57</ele>
        <time>2020-07-08T09:40:05Z</time>
      </trkpt>
      <trkpt lat="47.80463" lon="-3.51747">
        <ele>11.03</ele>
        <time>2020-07-08T09:40:06Z</time>
      </trkpt>
      <trkpt lat="47.80465" lon="-3.51743">
        <ele>10.28</ele>
        <time>2020-07-08T09:40:07Z</time>
      </trkpt>
      <trkpt lat="47.80466" lon="-3.5174">
        <ele>9.77</ele>
        <time>2020-07-08T09:40:08Z</time>
      </trkpt>
      <trkpt lat="47.80466" lon="-3.51737">
        <ele>9.53</ele>
        <time>2020-07-08T09:40:09Z</time>
      </trkpt>
      <trkpt lat="47.80467" lon="-3.51734">
        <ele>9.38</ele>
        <time>2020-07-08T09:40:10Z</time>
      </trkpt>
      <trkpt lat="47.80468" lon="-3.51732">
        <ele>8.96</ele>
        <time>2020-07-08T09:40:11Z</time>
      </trkpt>
      <trkpt lat="47.80469" lon="-3.5173">
        <ele>8.44</ele>
        <time>2020-07-08T09:40:12Z</time>
      </trkpt>
      <trkpt lat="47.8047" lon="-3.51727">
        <ele>8.06</ele>
        <time>2020-07-08T09:40:13Z</time>
      </trkpt>
      <trkpt lat="47.80471" lon="-3.51725">
        <ele>7.73</ele>
        <time>2020-07-08T09:40:14Z</time>
      </trkpt>
      <trkpt lat="47.80471" lon="-3.51723">
        <ele>7.63</ele>
        <time>2020-07-08T09:40:15Z</time>
      </trkpt>
      <trkpt lat="47.80472" lon="-3.51716">
        <ele>7.14</ele>
        <time>2020-07-08T09:40:16Z</time>
      </trkpt>
      <trkpt lat="47.80474" lon="-3.51713">
        <ele>6.71</ele>
        <time>2020-07-08T09:40:17Z</time>
      </trkpt>
      <trkpt lat="47.80473" lon="-3.51711">
        <ele>6.58</ele>
        <time>2020-07-08T09:40:18Z</time>
      </trkpt>
      <trkpt lat="47.80472" lon="-3.51708">
        <ele>6.53</ele>
        <time>2020-07-08T09:40:19Z</time>
      </trkpt>
      <trkpt lat="47.80473" lon="-3.51705">
        <ele>6.41</ele>
        <time>2020-07-08T09:40:20Z</time>
      </trkpt>
      <trkpt lat="47.80473" lon="-3.51703">
        <ele>6.3</ele>
        <time>2020-07-08T09:40:21Z</time>
      </trkpt>
      <trkpt lat="47.80473" lon="-3.517">
        <ele>6.18</ele>
        <time>2020-07-08T09:40:22Z</time>
      </trkpt>
      <trkpt lat="47.80473" lon="-3.51698">
        <ele>6.09</ele>
        <time>2020-07-08T09:40:23Z</time>
      </trkpt>
      <trkpt lat="47.80472" lon="-3.51695">
        <ele>6.19</ele>
        <time>2020-07-08T09:40:24Z</time>
      </trkpt>
      <trkpt lat="47.80472" lon="-3.51691">
        <ele>6.2</ele>
        <time>2020-07-08T09:40:25Z</time>
      </trkpt>
      <trkpt lat="47.80471" lon="-3.51686">
        <ele>6.25</ele>
        <time>2020-07-08T09:40:26Z</time>
      </trkpt>
      <trkpt lat="47.80472" lon="-3.51682">
        <ele>6.17</ele>
        <time>2020-07-08T09:40:27Z</time>
      </trkpt>
      <trkpt lat="47.80472" lon="-3.51678">
        <ele>6.18</ele>
        <time>2020-07-08T09:40:28Z</time>
      </trkpt>
      <trkpt lat="47.8047" lon="-3.51675">
        <ele>6.59</ele>
        <time>2020-07-08T09:40:29Z</time>
      </trkpt>
      <trkpt lat="47.80471" lon="-3.51675">
        <ele>6.49</ele>
        <time>2020-07-08T09:40:30Z</time>
      </trkpt>
      <trkpt lat="47.80471" lon="-3.51674">
        <ele>6.38</ele>
        <time>2020-07-08T09:40:31Z</time>
      </trkpt>
      <trkpt lat="47.80471" lon="-3.51673">
        <ele>6.38</ele>
        <time>2020-07-08T09:40:32Z</time>
      </trkpt>
      <trkpt lat="47.80471" lon="-3.51673">
        <ele>6.38</ele>
        <time>2020-07-08T09:40:33Z</time>
      </trkpt>
      <trkpt lat="47.80471" lon="-3.51673">
        <ele>6.38</ele>
        <time>2020-07-08T09:40:34Z</time>
      </trkpt>
      <trkpt lat="47.80471" lon="-3.51673">
        <ele>6.38</ele>
        <time>2020-07-08T09:40:35Z</time>
      </trkpt>
      <trkpt lat="47.80471" lon="-3.51673">
        <ele>6.38</ele>
        <time>2020-07-08T09:40:36Z</time>
      </trkpt>
      <trkpt lat="47.80471" lon="-3.51673">
        <ele>6.38</ele>
        <time>2020-07-08T09:40:37Z</time>
      </trkpt>
      <trkpt lat="47.80471" lon="-3.51673">
        <ele>6.38</ele>
        <time>2020-07-08T09:40:38Z</time>
      </trkpt>
      <trkpt lat="47.80471" lon="-3.51673">
        <ele>6.38</ele>
        <time>2020-07-08T09:40:39Z</time>
      </trkpt>
      <trkpt lat="47.80471" lon="-3.51673">
        <ele>6.38</ele>
        <time>2020-07-08T09:40:40Z</time>
      </trkpt>
      <trkpt lat="47.80471" lon="-3.51673">
        <ele>6.38</ele>
        <time>2020-07-08T09:40:41Z</time>
      </trkpt>
      <trkpt lat="47.80461" lon="-3.51672">
        <ele>8.5</ele>
        <time>2020-07-08T09:40:42Z</time>
      </trkpt>
      <trkpt lat="47.80458" lon="-3.51672">
        <ele>9.72</ele>
        <time>2020-07-08T09:40:43Z</time>
      </trkpt>
      <trkpt lat="47.80457" lon="-3.51673">
        <ele>10.32</ele>
        <time>2020-07-08T09:40:44Z</time>
      </trkpt>
      <trkpt lat="47.80457" lon="-3.51673">
        <ele>10.74</ele>
        <time>2020-07-08T09:40:45Z</time>
      </trkpt>
      <trkpt lat="47.80457" lon="-3.51671">
        <ele>10.64</ele>
        <time>2020-07-08T09:40:46Z</time>
      </trkpt>
      <trkpt lat="47.80457" lon="-3.51671">
        <ele>10.52</ele>
        <time>2020-07-08T09:40:47Z</time>
      </trkpt>
      <trkpt lat="47.80457" lon="-3.51671">
        <ele>10.67</ele>
        <time>2020-07-08T09:40:48Z</time>
      </trkpt>
      <trkpt lat="47.80457" lon="-3.51671">
        <ele>10.71</ele>
        <time>2020-07-08T09:40:49Z</time>
      </trkpt>
      <trkpt lat="47.80457" lon="-3.51671">
        <ele>10.73</ele>
        <time>2020-07-08T09:40:50Z</time>
      </trkpt>
      <trkpt lat="47.80457" lon="-3.51671">
        <ele>10.73</ele>
        <time>2020-07-08T09:40:51Z</time>
      </trkpt>
      <trkpt lat="47.80457" lon="-3.51671">
        <ele>10.73</ele>
        <time>2020-07-08T09:40:52Z</time>
      </trkpt>
      <trkpt lat="47.80457" lon="-3.51671">
        <ele>10.73</ele>
        <time>2020-07-08T09:40:53Z</time>
      </trkpt>
      <trkpt lat="47.80457" lon="-3.51671">
        <ele>10.73</ele>
        <time>2020-07-08T09:40:54Z</time>
      </trkpt>
      <trkpt lat="47.80457" lon="-3.51671">
        <ele>10.73</ele>
        <time>2020-07-08T09:40:55Z</time>
      </trkpt>
      <trkpt lat="47.80457" lon="-3.51671">
        <ele>10.73</ele>
        <time>2020-07-08T09:40:56Z</time>
      </trkpt>
      <trkpt lat="47.80457" lon="-3.51671">
        <ele>10.73</ele>
        <time>2020-07-08T09:40:57Z</time>
      </trkpt>
      <trkpt lat="47.80457" lon="-3.51671">
        <ele>10.73</ele>
        <time>2020-07-08T09:40:58Z</time>
      </trkpt>
      <trkpt lat="47.80457" lon="-3.51671">
        <ele>10.73</ele>
        <time>2020-07-08T09:40:59Z</time>
      </trkpt>
      <trkpt lat="47.80457" lon="-3.51671">
        <ele>10.73</ele>
        <time>2020-07-08T09:41:00Z</time>
      </trkpt>
      <trkpt lat="47.80457" lon="-3.51671">
        <ele>10.73</ele>
        <time>2020-07-08T09:41:01Z</time>
      </trkpt>
      <trkpt lat="47.80457" lon="-3.51671">
        <ele>10.73</ele>
        <time>2020-07-08T09:41:02Z</time>
      </trkpt>
      <trkpt lat="47.80457" lon="-3.51671">
        <ele>10.73</ele>
        <time>2020-07-08T09:41:03Z</time>
      </trkpt>
      <trkpt lat="47.80457" lon="-3.51671">
        <ele>10.73</ele>
        <time>2020-07-08T09:41:04Z</time>
      </trkpt>
      <trkpt lat="47.80457" lon="-3.51671">
        <ele>10.73</ele>
        <time>2020-07-08T09:41:05Z</time>
      </trkpt>
      <trkpt lat="47.80457" lon="-3.51671">
        <ele>10.73</ele>
        <time>2020-07-08T09:41:06Z</time>
      </trkpt>
      <trkpt lat="47.80457" lon="-3.51671">
        <ele>10.73</ele>
        <time>2020-07-08T09:41:07Z</time>
      </trkpt>
      <trkpt lat="47.80457" lon="-3.51671">
        <ele>10.73</ele>
        <time>2020-07-08T09:41:08Z</time>
      </trkpt>
      <trkpt lat="47.80461" lon="-3.51659">
        <ele>9.6</ele>
        <time>2020-07-08T09:41:09Z</time>
      </trkpt>
      <trkpt lat="47.80463" lon="-3.51655">
        <ele>8.81</ele>
        <time>2020-07-08T09:41:10Z</time>
      </trkpt>
      <trkpt lat="47.80464" lon="-3.51651">
        <ele>8.42</ele>
        <time>2020-07-08T09:41:11Z</time>
      </trkpt>
      <trkpt lat="47.80464" lon="-3.51647">
        <ele>8.21</ele>
        <time>2020-07-08T09:41:12Z</time>
      </trkpt>
      <trkpt lat="47.80466" lon="-3.51644">
        <ele>7.76</ele>
        <time>2020-07-08T09:41:13Z</time>
      </trkpt>
      <trkpt lat="47.8047" lon="-3.51641">
        <ele>6.84</ele>
        <time>2020-07-08T09:41:14Z</time>
      </trkpt>
      <trkpt lat="47.80477" lon="-3.51642">
        <ele>6.35</ele>
        <time>2020-07-08T09:41:15Z</time>
      </trkpt>
      <trkpt lat="47.8048" lon="-3.51641">
        <ele>6.27</ele>
        <time>2020-07-08T09:41:16Z</time>
      </trkpt>
      <trkpt lat="47.80482" lon="-3.51641">
        <ele>6.28</ele>
        <time>2020-07-08T09:41:17Z</time>
      </trkpt>
      <trkpt lat="47.80484" lon="-3.5164">
        <ele>6.37</ele>
        <time>2020-07-08T09:41:18Z</time>
      </trkpt>
      <trkpt lat="47.80486" lon="-3.51638">
        <ele>6.5</ele>
        <time>2020-07-08T09:41:19Z</time>
      </trkpt>
      <trkpt lat="47.80487" lon="-3.51635">
        <ele>6.69</ele>
        <time>2020-07-08T09:41:20Z</time>
      </trkpt>
      <trkpt lat="47.80487" lon="-3.51634">
        <ele>6.82</ele>
        <time>2020-07-08T09:41:21Z</time>
      </trkpt>
      <trkpt lat="47.80486" lon="-3.51632">
        <ele>6.94</ele>
        <time>2020-07-08T09:41:22Z</time>
      </trkpt>
      <trkpt lat="47.80486" lon="-3.51632">
        <ele>6.98</ele>
        <time>2020-07-08T09:41:23Z</time>
      </trkpt>
      <trkpt lat="47.80486" lon="-3.51632">
        <ele>6.99</ele>
        <time>2020-07-08T09:41:24Z</time>
      </trkpt>
      <trkpt lat="47.80487" lon="-3.51626">
        <ele>7.33</ele>
        <time>2020-07-08T09:41:25Z</time>
      </trkpt>
      <trkpt lat="47.80487" lon="-3.51623">
        <ele>7.56</ele>
        <time>2020-07-08T09:41:26Z</time>
      </trkpt>
      <trkpt lat="47.80486" lon="-3.51622">
        <ele>7.67</ele>
        <time>2020-07-08T09:41:27Z</time>
      </trkpt>
      <trkpt lat="47.80486" lon="-3.51621">
        <ele>7.73</ele>
        <time>2020-07-08T09:41:28Z</time>
      </trkpt>
      <trkpt lat="47.80485" lon="-3.51619">
        <ele>7.82</ele>
        <time>2020-07-08T09:41:29Z</time>
      </trkpt>
      <trkpt lat="47.80485" lon="-3.51619">
        <ele>7.85</ele>
        <time>2020-07-08T09:41:30Z</time>
      </trkpt>
      <trkpt lat="47.80485" lon="-3.51619">
        <ele>7.86</ele>
        <time>2020-07-08T09:41:31Z</time>
      </trkpt>
      <trkpt lat="47.80485" lon="-3.51619">
        <ele>7.86</ele>
        <time>2020-07-08T09:41:32Z</time>
      </trkpt>
      <trkpt lat="47.80485" lon="-3.51619">
        <ele>7.86</ele>
        <time>2020-07-08T09:41:33Z</time>
      </trkpt>
      <trkpt lat="47.80485" lon="-3.51619">
        <ele>7.86</ele>
        <time>2020-07-08T09:41:34Z</time>
      </trkpt>
      <trkpt lat="47.80485" lon="-3.51619">
        <ele>7.86</ele>
        <time>2020-07-08T09:41:35Z</time>
      </trkpt>
      <trkpt lat="47.80485" lon="-3.51619">
        <ele>7.86</ele>
        <time>2020-07-08T09:41:36Z</time>
      </trkpt>
      <trkpt lat="47.80485" lon="-3.51619">
        <ele>7.86</ele>
        <time>2020-07-08T09:41:37Z</time>
      </trkpt>
      <trkpt lat="47.80485" lon="-3.51619">
        <ele>7.86</ele>
        <time>2020-07-08T09:41:38Z</time>
      </trkpt>
      <trkpt lat="47.80485" lon="-3.51619">
        <ele>7.86</ele>
        <time>2020-07-08T09:41:39Z</time>
      </trkpt>
      <trkpt lat="47.80485" lon="-3.51619">
        <ele>7.86</ele>
        <time>2020-07-08T09:41:40Z</time>
      </trkpt>
      <trkpt lat="47.80485" lon="-3.51619">
        <ele>7.86</ele>
        <time>2020-07-08T09:41:41Z</time>
      </trkpt>
      <trkpt lat="47.80485" lon="-3.51619">
        <ele>7.86</ele>
        <time>2020-07-08T09:41:42Z</time>
      </trkpt>
      <trkpt lat="47.80485" lon="-3.51619">
        <ele>7.86</ele>
        <time>2020-07-08T09:41:43Z</time>
      </trkpt>
      <trkpt lat="47.80485" lon="-3.51619">
        <ele>7.86</ele>
        <time>2020-07-08T09:41:44Z</time>
      </trkpt>
      <trkpt lat="47.80485" lon="-3.51619">
        <ele>7.86</ele>
        <time>2020-07-08T09:41:45Z</time>
      </trkpt>
      <trkpt lat="47.80485" lon="-3.51619">
        <ele>7.86</ele>
        <time>2020-07-08T09:41:46Z</time>
      </trkpt>
      <trkpt lat="47.80485" lon="-3.51619">
        <ele>7.86</ele>
        <time>2020-07-08T09:41:47Z</time>
      </trkpt>
      <trkpt lat="47.80485" lon="-3.51619">
        <ele>7.86</ele>
        <time>2020-07-08T09:41:48Z</time>
      </trkpt>
      <trkpt lat="47.80485" lon="-3.51619">
        <ele>7.86</ele>
        <time>2020-07-08T09:41:49Z</time>
      </trkpt>
      <trkpt lat="47.80485" lon="-3.51619">
        <ele>7.86</ele>
        <time>2020-07-08T09:41:50Z</time>
      </trkpt>
      <trkpt lat="47.80485" lon="-3.51619">
        <ele>7.86</ele>
        <time>2020-07-08T09:41:51Z</time>
      </trkpt>
      <trkpt lat="47.80485" lon="-3.51619">
        <ele>7.86</ele>
        <time>2020-07-08T09:41:52Z</time>
      </trkpt>
      <trkpt lat="47.80485" lon="-3.51619">
        <ele>7.86</ele>
        <time>2020-07-08T09:41:53Z</time>
      </trkpt>
      <trkpt lat="47.80485" lon="-3.51619">
        <ele>7.86</ele>
        <time>2020-07-08T09:41:54Z</time>
      </trkpt>
      <trkpt lat="47.80485" lon="-3.51619">
        <ele>7.86</ele>
        <time>2020-07-08T09:41:55Z</time>
      </trkpt>
      <trkpt lat="47.80485" lon="-3.51619">
        <ele>7.86</ele>
        <time>2020-07-08T09:41:56Z</time>
      </trkpt>
      <trkpt lat="47.80485" lon="-3.51619">
        <ele>7.86</ele>
        <time>2020-07-08T09:41:57Z</time>
      </trkpt>
      <trkpt lat="47.80485" lon="-3.51619">
        <ele>7.86</ele>
        <time>2020-07-08T09:41:58Z</time>
      </trkpt>
      <trkpt lat="47.80485" lon="-3.51619">
        <ele>7.86</ele>
        <time>2020-07-08T09:41:59Z</time>
      </trkpt>
      <trkpt lat="47.80486" lon="-3.51618">
        <ele>7.97</ele>
        <time>2020-07-08T09:42:00Z</time>
      </trkpt>
      <trkpt lat="47.80489" lon="-3.51621">
        <ele>7.93</ele>
        <time>2020-07-08T09:42:01Z</time>
      </trkpt>
      <trkpt lat="47.80491" lon="-3.51623">
        <ele>7.84</ele>
        <time>2020-07-08T09:42:02Z</time>
      </trkpt>
      <trkpt lat="47.80492" lon="-3.51625">
        <ele>7.77</ele>
        <time>2020-07-08T09:42:03Z</time>
      </trkpt>
      <trkpt lat="47.80493" lon="-3.51626">
        <ele>7.69</ele>
        <time>2020-07-08T09:42:04Z</time>
      </trkpt>
      <trkpt lat="47.80495" lon="-3.51628">
        <ele>7.61</ele>
        <time>2020-07-08T09:42:05Z</time>
      </trkpt>
      <trkpt lat="47.80496" lon="-3.51629">
        <ele>7.58</ele>
        <time>2020-07-08T09:42:06Z</time>
      </trkpt>
      <trkpt lat="47.80497" lon="-3.5163">
        <ele>7.56</ele>
        <time>2020-07-08T09:42:07Z</time>
      </trkpt>
      <trkpt lat="47.80498" lon="-3.51631">
        <ele>7.52</ele>
        <time>2020-07-08T09:42:08Z</time>
      </trkpt>
      <trkpt lat="47.805" lon="-3.51632">
        <ele>7.5</ele>
        <time>2020-07-08T09:42:09Z</time>
      </trkpt>
      <trkpt lat="47.80501" lon="-3.51633">
        <ele>7.79</ele>
        <time>2020-07-08T09:42:10Z</time>
      </trkpt>
      <trkpt lat="47.80502" lon="-3.51635">
        <ele>8.14</ele>
        <time>2020-07-08T09:42:11Z</time>
      </trkpt>
      <trkpt lat="47.80503" lon="-3.51637">
        <ele>8.52</ele>
        <time>2020-07-08T09:42:12Z</time>
      </trkpt>
      <trkpt lat="47.80504" lon="-3.51639">
        <ele>8.82</ele>
        <time>2020-07-08T09:42:13Z</time>
      </trkpt>
      <trkpt lat="47.80504" lon="-3.51641">
        <ele>8.75</ele>
        <time>2020-07-08T09:42:14Z</time>
      </trkpt>
      <trkpt lat="47.80504" lon="-3.51643">
        <ele>8.55</ele>
        <time>2020-07-08T09:42:15Z</time>
      </trkpt>
      <trkpt lat="47.80504" lon="-3.51645">
        <ele>8.23</ele>
        <time>2020-07-08T09:42:16Z</time>
      </trkpt>
      <trkpt lat="47.80503" lon="-3.51647">
        <ele>7.97</ele>
        <time>2020-07-08T09:42:17Z</time>
      </trkpt>
      <trkpt lat="47.80503" lon="-3.51651">
        <ele>7.64</ele>
        <time>2020-07-08T09:42:18Z</time>
      </trkpt>
      <trkpt lat="47.80503" lon="-3.51654">
        <ele>7.37</ele>
        <time>2020-07-08T09:42:19Z</time>
      </trkpt>
      <trkpt lat="47.80505" lon="-3.51658">
        <ele>7.49</ele>
        <time>2020-07-08T09:42:20Z</time>
      </trkpt>
      <trkpt lat="47.80506" lon="-3.51661">
        <ele>7.67</ele>
        <time>2020-07-08T09:42:21Z</time>
      </trkpt>
      <trkpt lat="47.80507" lon="-3.51665">
        <ele>7.69</ele>
        <time>2020-07-08T09:42:22Z</time>
      </trkpt>
      <trkpt lat="47.80507" lon="-3.5167">
        <ele>7.47</ele>
        <time>2020-07-08T09:42:23Z</time>
      </trkpt>
      <trkpt lat="47.80509" lon="-3.51675">
        <ele>7.52</ele>
        <time>2020-07-08T09:42:24Z</time>
      </trkpt>
      <trkpt lat="47.80509" lon="-3.51681">
        <ele>7.39</ele>
        <time>2020-07-08T09:42:25Z</time>
      </trkpt>
      <trkpt lat="47.8051" lon="-3.51687">
        <ele>7.09</ele>
        <time>2020-07-08T09:42:26Z</time>
      </trkpt>
      <trkpt lat="47.80509" lon="-3.51692">
        <ele>6.61</ele>
        <time>2020-07-08T09:42:27Z</time>
      </trkpt>
      <trkpt lat="47.80509" lon="-3.51696">
        <ele>6.34</ele>
        <time>2020-07-08T09:42:28Z</time>
      </trkpt>
      <trkpt lat="47.80509" lon="-3.517">
        <ele>6.07</ele>
        <time>2020-07-08T09:42:29Z</time>
      </trkpt>
      <trkpt lat="47.80509" lon="-3.51704">
        <ele>5.84</ele>
        <time>2020-07-08T09:42:30Z</time>
      </trkpt>
      <trkpt lat="47.80509" lon="-3.5171">
        <ele>5.47</ele>
        <time>2020-07-08T09:42:31Z</time>
      </trkpt>
      <trkpt lat="47.80509" lon="-3.51715">
        <ele>5.17</ele>
        <time>2020-07-08T09:42:32Z</time>
      </trkpt>
      <trkpt lat="47.80509" lon="-3.5172">
        <ele>4.91</ele>
        <time>2020-07-08T09:42:33Z</time>
      </trkpt>
      <trkpt lat="47.80509" lon="-3.51723">
        <ele>4.71</ele>
        <time>2020-07-08T09:42:34Z</time>
      </trkpt>
      <trkpt lat="47.8051" lon="-3.51726">
        <ele>4.63</ele>
        <time>2020-07-08T09:42:35Z</time>
      </trkpt>
      <trkpt lat="47.80513" lon="-3.5173">
        <ele>4.74</ele>
        <time>2020-07-08T09:42:36Z</time>
      </trkpt>
      <trkpt lat="47.80513" lon="-3.51736">
        <ele>4.49</ele>
        <time>2020-07-08T09:42:37Z</time>
      </trkpt>
      <trkpt lat="47.80513" lon="-3.5174">
        <ele>4.29</ele>
        <time>2020-07-08T09:42:38Z</time>
      </trkpt>
      <trkpt lat="47.80515" lon="-3.51744">
        <ele>4.13</ele>
        <time>2020-07-08T09:42:39Z</time>
      </trkpt>
      <trkpt lat="47.80515" lon="-3.51747">
        <ele>3.94</ele>
        <time>2020-07-08T09:42:40Z</time>
      </trkpt>
      <trkpt lat="47.80516" lon="-3.51751">
        <ele>3.76</ele>
        <time>2020-07-08T09:42:41Z</time>
      </trkpt>
      <trkpt lat="47.80517" lon="-3.51754">
        <ele>3.67</ele>
        <time>2020-07-08T09:42:42Z</time>
      </trkpt>
      <trkpt lat="47.80517" lon="-3.51757">
        <ele>3.52</ele>
        <time>2020-07-08T09:42:43Z</time>
      </trkpt>
      <trkpt lat="47.80518" lon="-3.51761">
        <ele>3.36</ele>
        <time>2020-07-08T09:42:44Z</time>
      </trkpt>
      <trkpt lat="47.80521" lon="-3.51765">
        <ele>3.33</ele>
        <time>2020-07-08T09:42:45Z</time>
      </trkpt>
      <trkpt lat="47.80523" lon="-3.51768">
        <ele>3.29</ele>
        <time>2020-07-08T09:42:46Z</time>
      </trkpt>
      <trkpt lat="47.80524" lon="-3.51771">
        <ele>3.2</ele>
        <time>2020-07-08T09:42:47Z</time>
      </trkpt>
      <trkpt lat="47.80526" lon="-3.51775">
        <ele>3.09</ele>
        <time>2020-07-08T09:42:48Z</time>
      </trkpt>
      <trkpt lat="47.80527" lon="-3.51776">
        <ele>3.07</ele>
        <time>2020-07-08T09:42:49Z</time>
      </trkpt>
      <trkpt lat="47.80528" lon="-3.5178">
        <ele>2.97</ele>
        <time>2020-07-08T09:42:50Z</time>
      </trkpt>
      <trkpt lat="47.80529" lon="-3.51784">
        <ele>3.03</ele>
        <time>2020-07-08T09:42:51Z</time>
      </trkpt>
      <trkpt lat="47.8053" lon="-3.51787">
        <ele>3.21</ele>
        <time>2020-07-08T09:42:52Z</time>
      </trkpt>
      <trkpt lat="47.8053" lon="-3.51789">
        <ele>3.31</ele>
        <time>2020-07-08T09:42:53Z</time>
      </trkpt>
      <trkpt lat="47.8053" lon="-3.51793">
        <ele>3.15</ele>
        <time>2020-07-08T09:42:54Z</time>
      </trkpt>
      <trkpt lat="47.80529" lon="-3.51799">
        <ele>2.81</ele>
        <time>2020-07-08T09:42:55Z</time>
      </trkpt>
      <trkpt lat="47.8053" lon="-3.51802">
        <ele>2.7</ele>
        <time>2020-07-08T09:42:56Z</time>
      </trkpt>
      <trkpt lat="47.8053" lon="-3.51806">
        <ele>2.67</ele>
        <time>2020-07-08T09:42:57Z</time>
      </trkpt>
      <trkpt lat="47.80531" lon="-3.5181">
        <ele>2.65</ele>
        <time>2020-07-08T09:42:58Z</time>
      </trkpt>
      <trkpt lat="47.80534" lon="-3.51816">
        <ele>2.96</ele>
        <time>2020-07-08T09:42:59Z</time>
      </trkpt>
      <trkpt lat="47.80535" lon="-3.51819">
        <ele>3.05</ele>
        <time>2020-07-08T09:43:00Z</time>
      </trkpt>
      <trkpt lat="47.80535" lon="-3.51821">
        <ele>3.09</ele>
        <time>2020-07-08T09:43:01Z</time>
      </trkpt>
      <trkpt lat="47.80535" lon="-3.51824">
        <ele>3</ele>
        <time>2020-07-08T09:43:02Z</time>
      </trkpt>
      <trkpt lat="47.80535" lon="-3.51828">
        <ele>2.85</ele>
        <time>2020-07-08T09:43:03Z</time>
      </trkpt>
      <trkpt lat="47.80534" lon="-3.51833">
        <ele>2.55</ele>
        <time>2020-07-08T09:43:04Z</time>
      </trkpt>
      <trkpt lat="47.80533" lon="-3.51839">
        <ele>2.33</ele>
        <time>2020-07-08T09:43:05Z</time>
      </trkpt>
      <trkpt lat="47.80534" lon="-3.51842">
        <ele>2.31</ele>
        <time>2020-07-08T09:43:06Z</time>
      </trkpt>
      <trkpt lat="47.80534" lon="-3.51846">
        <ele>2.28</ele>
        <time>2020-07-08T09:43:07Z</time>
      </trkpt>
      <trkpt lat="47.80534" lon="-3.51849">
        <ele>2.33</ele>
        <time>2020-07-08T09:43:08Z</time>
      </trkpt>
      <trkpt lat="47.80534" lon="-3.51851">
        <ele>2.34</ele>
        <time>2020-07-08T09:43:09Z</time>
      </trkpt>
      <trkpt lat="47.80533" lon="-3.51853">
        <ele>2.27</ele>
        <time>2020-07-08T09:43:10Z</time>
      </trkpt>
      <trkpt lat="47.80533" lon="-3.51855">
        <ele>2.25</ele>
        <time>2020-07-08T09:43:11Z</time>
      </trkpt>
      <trkpt lat="47.80533" lon="-3.51858">
        <ele>2.19</ele>
        <time>2020-07-08T09:43:12Z</time>
      </trkpt>
      <trkpt lat="47.80533" lon="-3.51861">
        <ele>2.12</ele>
        <time>2020-07-08T09:43:13Z</time>
      </trkpt>
      <trkpt lat="47.80532" lon="-3.51864">
        <ele>1.93</ele>
        <time>2020-07-08T09:43:14Z</time>
      </trkpt>
      <trkpt lat="47.8053" lon="-3.51867">
        <ele>1.68</ele>
        <time>2020-07-08T09:43:15Z</time>
      </trkpt>
      <trkpt lat="47.8053" lon="-3.5187">
        <ele>1.64</ele>
        <time>2020-07-08T09:43:16Z</time>
      </trkpt>
      <trkpt lat="47.8053" lon="-3.51873">
        <ele>1.63</ele>
        <time>2020-07-08T09:43:17Z</time>
      </trkpt>
      <trkpt lat="47.8053" lon="-3.51876">
        <ele>1.61</ele>
        <time>2020-07-08T09:43:18Z</time>
      </trkpt>
      <trkpt lat="47.80531" lon="-3.51881">
        <ele>1.73</ele>
        <time>2020-07-08T09:43:19Z</time>
      </trkpt>
      <trkpt lat="47.80532" lon="-3.51882">
        <ele>1.85</ele>
        <time>2020-07-08T09:43:20Z</time>
      </trkpt>
      <trkpt lat="47.80532" lon="-3.51883">
        <ele>1.95</ele>
        <time>2020-07-08T09:43:21Z</time>
      </trkpt>
      <trkpt lat="47.80532" lon="-3.51883">
        <ele>1.98</ele>
        <time>2020-07-08T09:43:22Z</time>
      </trkpt>
      <trkpt lat="47.80532" lon="-3.51883">
        <ele>1.99</ele>
        <time>2020-07-08T09:43:23Z</time>
      </trkpt>
      <trkpt lat="47.80532" lon="-3.51883">
        <ele>1.99</ele>
        <time>2020-07-08T09:43:24Z</time>
      </trkpt>
      <trkpt lat="47.80532" lon="-3.51883">
        <ele>1.99</ele>
        <time>2020-07-08T09:43:25Z</time>
      </trkpt>
      <trkpt lat="47.80532" lon="-3.51883">
        <ele>1.99</ele>
        <time>2020-07-08T09:43:26Z</time>
      </trkpt>
      <trkpt lat="47.80532" lon="-3.51883">
        <ele>1.99</ele>
        <time>2020-07-08T09:43:27Z</time>
      </trkpt>
      <trkpt lat="47.80532" lon="-3.51883">
        <ele>1.99</ele>
        <time>2020-07-08T09:43:28Z</time>
      </trkpt>
      <trkpt lat="47.80532" lon="-3.51883">
        <ele>1.99</ele>
        <time>2020-07-08T09:43:29Z</time>
      </trkpt>
      <trkpt lat="47.80532" lon="-3.51883">
        <ele>1.99</ele>
        <time>2020-07-08T09:43:30Z</time>
      </trkpt>
      <trkpt lat="47.80532" lon="-3.51883">
        <ele>1.99</ele>
        <time>2020-07-08T09:43:31Z</time>
      </trkpt>
      <trkpt lat="47.80532" lon="-3.51883">
        <ele>1.99</ele>
        <time>2020-07-08T09:43:32Z</time>
      </trkpt>
      <trkpt lat="47.80532" lon="-3.51883">
        <ele>1.99</ele>
        <time>2020-07-08T09:43:33Z</time>
      </trkpt>
      <trkpt lat="47.80532" lon="-3.51883">
        <ele>1.99</ele>
        <time>2020-07-08T09:43:34Z</time>
      </trkpt>
      <trkpt lat="47.80532" lon="-3.51883">
        <ele>1.99</ele>
        <time>2020-07-08T09:43:35Z</time>
      </trkpt>
      <trkpt lat="47.80532" lon="-3.51883">
        <ele>1.99</ele>
        <time>2020-07-08T09:43:36Z</time>
      </trkpt>
      <trkpt lat="47.80532" lon="-3.51883">
        <ele>1.99</ele>
        <time>2020-07-08T09:43:37Z</time>
      </trkpt>
      <trkpt lat="47.80532" lon="-3.51883">
        <ele>1.99</ele>
        <time>2020-07-08T09:43:38Z</time>
      </trkpt>
      <trkpt lat="47.80532" lon="-3.51883">
        <ele>1.99</ele>
        <time>2020-07-08T09:43:39Z</time>
      </trkpt>
      <trkpt lat="47.80532" lon="-3.51883">
        <ele>1.99</ele>
        <time>2020-07-08T09:43:40Z</time>
      </trkpt>
      <trkpt lat="47.80532" lon="-3.51883">
        <ele>1.99</ele>
        <time>2020-07-08T09:43:41Z</time>
      </trkpt>
      <trkpt lat="47.80532" lon="-3.51883">
        <ele>1.99</ele>
        <time>2020-07-08T09:43:42Z</time>
      </trkpt>
      <trkpt lat="47.80532" lon="-3.51883">
        <ele>1.99</ele>
        <time>2020-07-08T09:43:43Z</time>
      </trkpt>
      <trkpt lat="47.80538" lon="-3.51893">
        <ele>3.04</ele>
        <time>2020-07-08T09:43:44Z</time>
      </trkpt>
      <trkpt lat="47.80538" lon="-3.51893">
        <ele>3.42</ele>
        <time>2020-07-08T09:43:45Z</time>
      </trkpt>
      <trkpt lat="47.80538" lon="-3.51894">
        <ele>3.56</ele>
        <time>2020-07-08T09:43:46Z</time>
      </trkpt>
      <trkpt lat="47.80539" lon="-3.51895">
        <ele>3.72</ele>
        <time>2020-07-08T09:43:47Z</time>
      </trkpt>
      <trkpt lat="47.80539" lon="-3.51895">
        <ele>3.77</ele>
        <time>2020-07-08T09:43:48Z</time>
      </trkpt>
      <trkpt lat="47.80539" lon="-3.51895">
        <ele>3.78</ele>
        <time>2020-07-08T09:43:49Z</time>
      </trkpt>
      <trkpt lat="47.80539" lon="-3.51895">
        <ele>3.78</ele>
        <time>2020-07-08T09:43:50Z</time>
      </trkpt>
      <trkpt lat="47.80539" lon="-3.51895">
        <ele>3.79</ele>
        <time>2020-07-08T09:43:51Z</time>
      </trkpt>
      <trkpt lat="47.80539" lon="-3.51895">
        <ele>3.79</ele>
        <time>2020-07-08T09:43:52Z</time>
      </trkpt>
      <trkpt lat="47.80539" lon="-3.51895">
        <ele>3.79</ele>
        <time>2020-07-08T09:43:53Z</time>
      </trkpt>
      <trkpt lat="47.80539" lon="-3.51895">
        <ele>3.79</ele>
        <time>2020-07-08T09:43:54Z</time>
      </trkpt>
      <trkpt lat="47.80539" lon="-3.51895">
        <ele>3.79</ele>
        <time>2020-07-08T09:43:55Z</time>
      </trkpt>
      <trkpt lat="47.80539" lon="-3.51895">
        <ele>3.79</ele>
        <time>2020-07-08T09:43:56Z</time>
      </trkpt>
      <trkpt lat="47.80539" lon="-3.51895">
        <ele>3.79</ele>
        <time>2020-07-08T09:43:57Z</time>
      </trkpt>
      <trkpt lat="47.80539" lon="-3.51895">
        <ele>3.79</ele>
        <time>2020-07-08T09:43:58Z</time>
      </trkpt>
      <trkpt lat="47.80539" lon="-3.51895">
        <ele>3.79</ele>
        <time>2020-07-08T09:43:59Z</time>
      </trkpt>
      <trkpt lat="47.80539" lon="-3.51895">
        <ele>3.79</ele>
        <time>2020-07-08T09:44:00Z</time>
      </trkpt>
      <trkpt lat="47.80539" lon="-3.51895">
        <ele>3.79</ele>
        <time>2020-07-08T09:44:01Z</time>
      </trkpt>
      <trkpt lat="47.80539" lon="-3.51895">
        <ele>3.79</ele>
        <time>2020-07-08T09:44:02Z</time>
      </trkpt>
      <trkpt lat="47.80539" lon="-3.51895">
        <ele>3.79</ele>
        <time>2020-07-08T09:44:03Z</time>
      </trkpt>
      <trkpt lat="47.80539" lon="-3.51895">
        <ele>3.79</ele>
        <time>2020-07-08T09:44:04Z</time>
      </trkpt>
      <trkpt lat="47.80539" lon="-3.51895">
        <ele>3.79</ele>
        <time>2020-07-08T09:44:05Z</time>
      </trkpt>
      <trkpt lat="47.80539" lon="-3.51895">
        <ele>3.79</ele>
        <time>2020-07-08T09:44:06Z</time>
      </trkpt>
      <trkpt lat="47.80541" lon="-3.51908">
        <ele>4.11</ele>
        <time>2020-07-08T09:44:07Z</time>
      </trkpt>
      <trkpt lat="47.80542" lon="-3.51908">
        <ele>4.44</ele>
        <time>2020-07-08T09:44:08Z</time>
      </trkpt>
      <trkpt lat="47.80543" lon="-3.51908">
        <ele>4.75</ele>
        <time>2020-07-08T09:44:09Z</time>
      </trkpt>
      <trkpt lat="47.80543" lon="-3.51909">
        <ele>4.9</ele>
        <time>2020-07-08T09:44:10Z</time>
      </trkpt>
      <trkpt lat="47.80543" lon="-3.51909">
        <ele>4.94</ele>
        <time>2020-07-08T09:44:11Z</time>
      </trkpt>
      <trkpt lat="47.80543" lon="-3.51909">
        <ele>4.96</ele>
        <time>2020-07-08T09:44:12Z</time>
      </trkpt>
      <trkpt lat="47.80543" lon="-3.51909">
        <ele>4.96</ele>
        <time>2020-07-08T09:44:13Z</time>
      </trkpt>
      <trkpt lat="47.80543" lon="-3.51909">
        <ele>4.96</ele>
        <time>2020-07-08T09:44:14Z</time>
      </trkpt>
      <trkpt lat="47.80543" lon="-3.51909">
        <ele>4.96</ele>
        <time>2020-07-08T09:44:15Z</time>
      </trkpt>
      <trkpt lat="47.80543" lon="-3.51909">
        <ele>4.96</ele>
        <time>2020-07-08T09:44:16Z</time>
      </trkpt>
      <trkpt lat="47.80543" lon="-3.51909">
        <ele>4.96</ele>
        <time>2020-07-08T09:44:17Z</time>
      </trkpt>
      <trkpt lat="47.80543" lon="-3.51909">
        <ele>4.96</ele>
        <time>2020-07-08T09:44:18Z</time>
      </trkpt>
      <trkpt lat="47.80543" lon="-3.51909">
        <ele>4.96</ele>
        <time>2020-07-08T09:44:19Z</time>
      </trkpt>
      <trkpt lat="47.80543" lon="-3.51909">
        <ele>4.96</ele>
        <time>2020-07-08T09:44:20Z</time>
      </trkpt>
      <trkpt lat="47.80543" lon="-3.51909">
        <ele>4.96</ele>
        <time>2020-07-08T09:44:21Z</time>
      </trkpt>
      <trkpt lat="47.80543" lon="-3.51909">
        <ele>4.96</ele>
        <time>2020-07-08T09:44:22Z</time>
      </trkpt>
      <trkpt lat="47.80543" lon="-3.51909">
        <ele>4.96</ele>
        <time>2020-07-08T09:44:23Z</time>
      </trkpt>
      <trkpt lat="47.80543" lon="-3.51909">
        <ele>4.96</ele>
        <time>2020-07-08T09:44:24Z</time>
      </trkpt>
      <trkpt lat="47.80543" lon="-3.51909">
        <ele>4.96</ele>
        <time>2020-07-08T09:44:25Z</time>
      </trkpt>
      <trkpt lat="47.80543" lon="-3.51909">
        <ele>4.96</ele>
        <time>2020-07-08T09:44:26Z</time>
      </trkpt>
      <trkpt lat="47.80543" lon="-3.51909">
        <ele>4.96</ele>
        <time>2020-07-08T09:44:27Z</time>
      </trkpt>
      <trkpt lat="47.80543" lon="-3.51909">
        <ele>4.96</ele>
        <time>2020-07-08T09:44:28Z</time>
      </trkpt>
      <trkpt lat="47.80543" lon="-3.51909">
        <ele>4.96</ele>
        <time>2020-07-08T09:44:29Z</time>
      </trkpt>
      <trkpt lat="47.80543" lon="-3.51909">
        <ele>4.96</ele>
        <time>2020-07-08T09:44:30Z</time>
      </trkpt>
      <trkpt lat="47.80543" lon="-3.51909">
        <ele>4.96</ele>
        <time>2020-07-08T09:44:31Z</time>
      </trkpt>
      <trkpt lat="47.80543" lon="-3.51909">
        <ele>4.96</ele>
        <time>2020-07-08T09:44:32Z</time>
      </trkpt>
      <trkpt lat="47.80543" lon="-3.51909">
        <ele>4.96</ele>
        <time>2020-07-08T09:44:33Z</time>
      </trkpt>
      <trkpt lat="47.80543" lon="-3.51909">
        <ele>4.96</ele>
        <time>2020-07-08T09:44:34Z</time>
      </trkpt>
      <trkpt lat="47.80543" lon="-3.51909">
        <ele>4.96</ele>
        <time>2020-07-08T09:44:35Z</time>
      </trkpt>
      <trkpt lat="47.80543" lon="-3.51909">
        <ele>4.96</ele>
        <time>2020-07-08T09:44:36Z</time>
      </trkpt>
      <trkpt lat="47.80545" lon="-3.5192">
        <ele>5.03</ele>
        <time>2020-07-08T09:44:37Z</time>
      </trkpt>
      <trkpt lat="47.80546" lon="-3.51923">
        <ele>5.15</ele>
        <time>2020-07-08T09:44:38Z</time>
      </trkpt>
      <trkpt lat="47.80545" lon="-3.51926">
        <ele>4.97</ele>
        <time>2020-07-08T09:44:39Z</time>
      </trkpt>
      <trkpt lat="47.80545" lon="-3.51929">
        <ele>4.87</ele>
        <time>2020-07-08T09:44:40Z</time>
      </trkpt>
      <trkpt lat="47.80545" lon="-3.51932">
        <ele>4.77</ele>
        <time>2020-07-08T09:44:41Z</time>
      </trkpt>
      <trkpt lat="47.80546" lon="-3.51936">
        <ele>4.7</ele>
        <time>2020-07-08T09:44:42Z</time>
      </trkpt>
      <trkpt lat="47.80547" lon="-3.51938">
        <ele>4.72</ele>
        <time>2020-07-08T09:44:43Z</time>
      </trkpt>
      <trkpt lat="47.80547" lon="-3.51943">
        <ele>4.57</ele>
        <time>2020-07-08T09:44:44Z</time>
      </trkpt>
      <trkpt lat="47.80547" lon="-3.51946">
        <ele>4.48</ele>
        <time>2020-07-08T09:44:45Z</time>
      </trkpt>
      <trkpt lat="47.80549" lon="-3.51948">
        <ele>4.55</ele>
        <time>2020-07-08T09:44:46Z</time>
      </trkpt>
      <trkpt lat="47.80548" lon="-3.5195">
        <ele>4.47</ele>
        <time>2020-07-08T09:44:47Z</time>
      </trkpt>
      <trkpt lat="47.80548" lon="-3.51951">
        <ele>4.43</ele>
        <time>2020-07-08T09:44:48Z</time>
      </trkpt>
      <trkpt lat="47.80549" lon="-3.51951">
        <ele>4.55</ele>
        <time>2020-07-08T09:44:49Z</time>
      </trkpt>
      <trkpt lat="47.80549" lon="-3.51951">
        <ele>4.58</ele>
        <time>2020-07-08T09:44:50Z</time>
      </trkpt>
      <trkpt lat="47.80549" lon="-3.51957">
        <ele>4.32</ele>
        <time>2020-07-08T09:44:51Z</time>
      </trkpt>
      <trkpt lat="47.80549" lon="-3.51963">
        <ele>4.05</ele>
        <time>2020-07-08T09:44:52Z</time>
      </trkpt>
      <trkpt lat="47.80549" lon="-3.51967">
        <ele>3.85</ele>
        <time>2020-07-08T09:44:53Z</time>
      </trkpt>
      <trkpt lat="47.80549" lon="-3.5197">
        <ele>3.74</ele>
        <time>2020-07-08T09:44:54Z</time>
      </trkpt>
      <trkpt lat="47.80549" lon="-3.51973">
        <ele>3.62</ele>
        <time>2020-07-08T09:44:55Z</time>
      </trkpt>
      <trkpt lat="47.8055" lon="-3.51976">
        <ele>3.63</ele>
        <time>2020-07-08T09:44:56Z</time>
      </trkpt>
      <trkpt lat="47.80552" lon="-3.5198">
        <ele>3.73</ele>
        <time>2020-07-08T09:44:57Z</time>
      </trkpt>
      <trkpt lat="47.80553" lon="-3.51983">
        <ele>3.79</ele>
        <time>2020-07-08T09:44:58Z</time>
      </trkpt>
      <trkpt lat="47.80554" lon="-3.51986">
        <ele>3.87</ele>
        <time>2020-07-08T09:44:59Z</time>
      </trkpt>
      <trkpt lat="47.80555" lon="-3.51989">
        <ele>3.91</ele>
        <time>2020-07-08T09:45:00Z</time>
      </trkpt>
      <trkpt lat="47.80555" lon="-3.51991">
        <ele>3.92</ele>
        <time>2020-07-08T09:45:01Z</time>
      </trkpt>
      <trkpt lat="47.80555" lon="-3.51993">
        <ele>3.92</ele>
        <time>2020-07-08T09:45:02Z</time>
      </trkpt>
      <trkpt lat="47.80554" lon="-3.51997">
        <ele>3.9</ele>
        <time>2020-07-08T09:45:03Z</time>
      </trkpt>
      <trkpt lat="47.80553" lon="-3.52001">
        <ele>3.86</ele>
        <time>2020-07-08T09:45:04Z</time>
      </trkpt>
      <trkpt lat="47.80553" lon="-3.52005">
        <ele>3.82</ele>
        <time>2020-07-08T09:45:05Z</time>
      </trkpt>
      <trkpt lat="47.80552" lon="-3.52009">
        <ele>3.78</ele>
        <time>2020-07-08T09:45:06Z</time>
      </trkpt>
      <trkpt lat="47.80552" lon="-3.52016">
        <ele>3.77</ele>
        <time>2020-07-08T09:45:07Z</time>
      </trkpt>
      <trkpt lat="47.80553" lon="-3.52023">
        <ele>3.79</ele>
        <time>2020-07-08T09:45:08Z</time>
      </trkpt>
      <trkpt lat="47.80553" lon="-3.52031">
        <ele>3.8</ele>
        <time>2020-07-08T09:45:09Z</time>
      </trkpt>
      <trkpt lat="47.80553" lon="-3.52035">
        <ele>3.78</ele>
        <time>2020-07-08T09:45:10Z</time>
      </trkpt>
      <trkpt lat="47.80552" lon="-3.52039">
        <ele>3.75</ele>
        <time>2020-07-08T09:45:11Z</time>
      </trkpt>
      <trkpt lat="47.80552" lon="-3.52042">
        <ele>3.71</ele>
        <time>2020-07-08T09:45:12Z</time>
      </trkpt>
      <trkpt lat="47.80552" lon="-3.52044">
        <ele>3.68</ele>
        <time>2020-07-08T09:45:13Z</time>
      </trkpt>
      <trkpt lat="47.80551" lon="-3.52049">
        <ele>3.58</ele>
        <time>2020-07-08T09:45:14Z</time>
      </trkpt>
      <trkpt lat="47.8055" lon="-3.52053">
        <ele>3.46</ele>
        <time>2020-07-08T09:45:15Z</time>
      </trkpt>
      <trkpt lat="47.80549" lon="-3.52057">
        <ele>3.31</ele>
        <time>2020-07-08T09:45:16Z</time>
      </trkpt>
      <trkpt lat="47.80548" lon="-3.52061">
        <ele>3.17</ele>
        <time>2020-07-08T09:45:17Z</time>
      </trkpt>
      <trkpt lat="47.80547" lon="-3.52065">
        <ele>2.96</ele>
        <time>2020-07-08T09:45:18Z</time>
      </trkpt>
      <trkpt lat="47.80545" lon="-3.5207">
        <ele>2.65</ele>
        <time>2020-07-08T09:45:19Z</time>
      </trkpt>
      <trkpt lat="47.80545" lon="-3.52074">
        <ele>2.43</ele>
        <time>2020-07-08T09:45:20Z</time>
      </trkpt>
      <trkpt lat="47.80544" lon="-3.52078">
        <ele>2.23</ele>
        <time>2020-07-08T09:45:21Z</time>
      </trkpt>
      <trkpt lat="47.80543" lon="-3.52082">
        <ele>1.92</ele>
        <time>2020-07-08T09:45:22Z</time>
      </trkpt>
      <trkpt lat="47.80541" lon="-3.52085">
        <ele>1.59</ele>
        <time>2020-07-08T09:45:23Z</time>
      </trkpt>
      <trkpt lat="47.80538" lon="-3.52089">
        <ele>1.27</ele>
        <time>2020-07-08T09:45:24Z</time>
      </trkpt>
      <trkpt lat="47.80535" lon="-3.52094">
        <ele>1.01</ele>
        <time>2020-07-08T09:45:25Z</time>
      </trkpt>
      <trkpt lat="47.80532" lon="-3.52099">
        <ele>0.64</ele>
        <time>2020-07-08T09:45:26Z</time>
      </trkpt>
      <trkpt lat="47.80531" lon="-3.52102">
        <ele>0.48</ele>
        <time>2020-07-08T09:45:27Z</time>
      </trkpt>
      <trkpt lat="47.8053" lon="-3.52105">
        <ele>0.36</ele>
        <time>2020-07-08T09:45:28Z</time>
      </trkpt>
      <trkpt lat="47.80529" lon="-3.52107">
        <ele>0.22</ele>
        <time>2020-07-08T09:45:29Z</time>
      </trkpt>
      <trkpt lat="47.80527" lon="-3.5211">
        <ele>0.02</ele>
        <time>2020-07-08T09:45:30Z</time>
      </trkpt>
      <trkpt lat="47.80526" lon="-3.52111">
        <ele>-0.03</ele>
        <time>2020-07-08T09:45:31Z</time>
      </trkpt>
      <trkpt lat="47.80527" lon="-3.52113">
        <ele>0.04</ele>
        <time>2020-07-08T09:45:32Z</time>
      </trkpt>
      <trkpt lat="47.80527" lon="-3.52114">
        <ele>0.1</ele>
        <time>2020-07-08T09:45:33Z</time>
      </trkpt>
      <trkpt lat="47.80527" lon="-3.52114">
        <ele>0.16</ele>
        <time>2020-07-08T09:45:34Z</time>
      </trkpt>
      <trkpt lat="47.80527" lon="-3.52114">
        <ele>0.17</ele>
        <time>2020-07-08T09:45:35Z</time>
      </trkpt>
      <trkpt lat="47.80527" lon="-3.52114">
        <ele>0.18</ele>
        <time>2020-07-08T09:45:36Z</time>
      </trkpt>
      <trkpt lat="47.80527" lon="-3.52114">
        <ele>0.18</ele>
        <time>2020-07-08T09:45:37Z</time>
      </trkpt>
      <trkpt lat="47.80527" lon="-3.52114">
        <ele>0.18</ele>
        <time>2020-07-08T09:45:38Z</time>
      </trkpt>
      <trkpt lat="47.80527" lon="-3.52114">
        <ele>0.18</ele>
        <time>2020-07-08T09:45:39Z</time>
      </trkpt>
      <trkpt lat="47.80527" lon="-3.52114">
        <ele>0.18</ele>
        <time>2020-07-08T09:45:40Z</time>
      </trkpt>
      <trkpt lat="47.80527" lon="-3.52114">
        <ele>0.18</ele>
        <time>2020-07-08T09:45:41Z</time>
      </trkpt>
      <trkpt lat="47.80527" lon="-3.52114">
        <ele>0.18</ele>
        <time>2020-07-08T09:45:42Z</time>
      </trkpt>
      <trkpt lat="47.80527" lon="-3.52114">
        <ele>0.18</ele>
        <time>2020-07-08T09:45:43Z</time>
      </trkpt>
      <trkpt lat="47.80527" lon="-3.52114">
        <ele>0.18</ele>
        <time>2020-07-08T09:45:44Z</time>
      </trkpt>
      <trkpt lat="47.80527" lon="-3.52114">
        <ele>0.18</ele>
        <time>2020-07-08T09:45:45Z</time>
      </trkpt>
      <trkpt lat="47.80527" lon="-3.52114">
        <ele>0.18</ele>
        <time>2020-07-08T09:45:46Z</time>
      </trkpt>
      <trkpt lat="47.80527" lon="-3.52114">
        <ele>0.18</ele>
        <time>2020-07-08T09:45:47Z</time>
      </trkpt>
      <trkpt lat="47.80527" lon="-3.52114">
        <ele>0.18</ele>
        <time>2020-07-08T09:45:48Z</time>
      </trkpt>
      <trkpt lat="47.8053" lon="-3.52127">
        <ele>1.33</ele>
        <time>2020-07-08T09:45:49Z</time>
      </trkpt>
      <trkpt lat="47.8053" lon="-3.52127">
        <ele>1.6</ele>
        <time>2020-07-08T09:45:50Z</time>
      </trkpt>
      <trkpt lat="47.8053" lon="-3.52127">
        <ele>1.68</ele>
        <time>2020-07-08T09:45:51Z</time>
      </trkpt>
      <trkpt lat="47.8053" lon="-3.52127">
        <ele>1.74</ele>
        <time>2020-07-08T09:45:52Z</time>
      </trkpt>
      <trkpt lat="47.8053" lon="-3.52127">
        <ele>1.76</ele>
        <time>2020-07-08T09:45:53Z</time>
      </trkpt>
      <trkpt lat="47.8053" lon="-3.52127">
        <ele>1.77</ele>
        <time>2020-07-08T09:45:54Z</time>
      </trkpt>
      <trkpt lat="47.8053" lon="-3.52127">
        <ele>1.77</ele>
        <time>2020-07-08T09:45:55Z</time>
      </trkpt>
      <trkpt lat="47.80533" lon="-3.52133">
        <ele>2.77</ele>
        <time>2020-07-08T09:45:56Z</time>
      </trkpt>
      <trkpt lat="47.80535" lon="-3.52136">
        <ele>3.62</ele>
        <time>2020-07-08T09:45:57Z</time>
      </trkpt>
      <trkpt lat="47.80536" lon="-3.52138">
        <ele>4.29</ele>
        <time>2020-07-08T09:45:58Z</time>
      </trkpt>
      <trkpt lat="47.80537" lon="-3.5214">
        <ele>4.88</ele>
        <time>2020-07-08T09:45:59Z</time>
      </trkpt>
      <trkpt lat="47.80539" lon="-3.52142">
        <ele>5.48</ele>
        <time>2020-07-08T09:46:00Z</time>
      </trkpt>
      <trkpt lat="47.8054" lon="-3.52144">
        <ele>6.02</ele>
        <time>2020-07-08T09:46:01Z</time>
      </trkpt>
      <trkpt lat="47.80541" lon="-3.52146">
        <ele>6.56</ele>
        <time>2020-07-08T09:46:02Z</time>
      </trkpt>
      <trkpt lat="47.80542" lon="-3.52148">
        <ele>7.12</ele>
        <time>2020-07-08T09:46:03Z</time>
      </trkpt>
      <trkpt lat="47.80544" lon="-3.52149">
        <ele>7.73</ele>
        <time>2020-07-08T09:46:04Z</time>
      </trkpt>
      <trkpt lat="47.80546" lon="-3.5215">
        <ele>8.4</ele>
        <time>2020-07-08T09:46:05Z</time>
      </trkpt>
      <trkpt lat="47.80548" lon="-3.52151">
        <ele>9.03</ele>
        <time>2020-07-08T09:46:06Z</time>
      </trkpt>
      <trkpt lat="47.80549" lon="-3.52152">
        <ele>9.6</ele>
        <time>2020-07-08T09:46:07Z</time>
      </trkpt>
      <trkpt lat="47.80551" lon="-3.52152">
        <ele>10.13</ele>
        <time>2020-07-08T09:46:08Z</time>
      </trkpt>
      <trkpt lat="47.80552" lon="-3.52152">
        <ele>10.71</ele>
        <time>2020-07-08T09:46:09Z</time>
      </trkpt>
      <trkpt lat="47.80555" lon="-3.52152">
        <ele>11.36</ele>
        <time>2020-07-08T09:46:10Z</time>
      </trkpt>
      <trkpt lat="47.80556" lon="-3.52152">
        <ele>11.94</ele>
        <time>2020-07-08T09:46:11Z</time>
      </trkpt>
      <trkpt lat="47.80558" lon="-3.52153">
        <ele>12.39</ele>
        <time>2020-07-08T09:46:12Z</time>
      </trkpt>
      <trkpt lat="47.80559" lon="-3.52153">
        <ele>12.7</ele>
        <time>2020-07-08T09:46:13Z</time>
      </trkpt>
      <trkpt lat="47.80559" lon="-3.52153">
        <ele>12.86</ele>
        <time>2020-07-08T09:46:14Z</time>
      </trkpt>
      <trkpt lat="47.8056" lon="-3.52153">
        <ele>13.01</ele>
        <time>2020-07-08T09:46:15Z</time>
      </trkpt>
      <trkpt lat="47.8056" lon="-3.52153">
        <ele>13.11</ele>
        <time>2020-07-08T09:46:16Z</time>
      </trkpt>
      <trkpt lat="47.8056" lon="-3.52153">
        <ele>13.14</ele>
        <time>2020-07-08T09:46:17Z</time>
      </trkpt>
      <trkpt lat="47.8056" lon="-3.52153">
        <ele>13.15</ele>
        <time>2020-07-08T09:46:18Z</time>
      </trkpt>
      <trkpt lat="47.80561" lon="-3.52148">
        <ele>13.12</ele>
        <time>2020-07-08T09:46:19Z</time>
      </trkpt>
      <trkpt lat="47.80561" lon="-3.52146">
        <ele>13.01</ele>
        <time>2020-07-08T09:46:20Z</time>
      </trkpt>
      <trkpt lat="47.80562" lon="-3.52144">
        <ele>13.07</ele>
        <time>2020-07-08T09:46:21Z</time>
      </trkpt>
      <trkpt lat="47.80562" lon="-3.52142">
        <ele>13.08</ele>
        <time>2020-07-08T09:46:22Z</time>
      </trkpt>
      <trkpt lat="47.80563" lon="-3.52139">
        <ele>13.04</ele>
        <time>2020-07-08T09:46:23Z</time>
      </trkpt>
      <trkpt lat="47.80563" lon="-3.52137">
        <ele>12.97</ele>
        <time>2020-07-08T09:46:24Z</time>
      </trkpt>
      <trkpt lat="47.80564" lon="-3.52136">
        <ele>13.09</ele>
        <time>2020-07-08T09:46:25Z</time>
      </trkpt>
      <trkpt lat="47.80566" lon="-3.52133">
        <ele>13.25</ele>
        <time>2020-07-08T09:46:26Z</time>
      </trkpt>
      <trkpt lat="47.80567" lon="-3.5213">
        <ele>13.42</ele>
        <time>2020-07-08T09:46:27Z</time>
      </trkpt>
      <trkpt lat="47.80568" lon="-3.52127">
        <ele>13.46</ele>
        <time>2020-07-08T09:46:28Z</time>
      </trkpt>
      <trkpt lat="47.80569" lon="-3.52126">
        <ele>13.52</ele>
        <time>2020-07-08T09:46:29Z</time>
      </trkpt>
      <trkpt lat="47.80569" lon="-3.52123">
        <ele>13.59</ele>
        <time>2020-07-08T09:46:30Z</time>
      </trkpt>
      <trkpt lat="47.80571" lon="-3.52121">
        <ele>13.78</ele>
        <time>2020-07-08T09:46:31Z</time>
      </trkpt>
      <trkpt lat="47.80572" lon="-3.52118">
        <ele>14.06</ele>
        <time>2020-07-08T09:46:32Z</time>
      </trkpt>
      <trkpt lat="47.80574" lon="-3.52115">
        <ele>14.41</ele>
        <time>2020-07-08T09:46:33Z</time>
      </trkpt>
      <trkpt lat="47.80575" lon="-3.52112">
        <ele>14.64</ele>
        <time>2020-07-08T09:46:34Z</time>
      </trkpt>
      <trkpt lat="47.80576" lon="-3.5211">
        <ele>14.84</ele>
        <time>2020-07-08T09:46:35Z</time>
      </trkpt>
      <trkpt lat="47.80577" lon="-3.52107">
        <ele>15.01</ele>
        <time>2020-07-08T09:46:36Z</time>
      </trkpt>
      <trkpt lat="47.80578" lon="-3.52105">
        <ele>15.18</ele>
        <time>2020-07-08T09:46:37Z</time>
      </trkpt>
      <trkpt lat="47.80579" lon="-3.52103">
        <ele>15.3</ele>
        <time>2020-07-08T09:46:38Z</time>
      </trkpt>
      <trkpt lat="47.8058" lon="-3.521">
        <ele>15.38</ele>
        <time>2020-07-08T09:46:39Z</time>
      </trkpt>
      <trkpt lat="47.80581" lon="-3.52098">
        <ele>15.63</ele>
        <time>2020-07-08T09:46:40Z</time>
      </trkpt>
      <trkpt lat="47.80583" lon="-3.52094">
        <ele>15.87</ele>
        <time>2020-07-08T09:46:41Z</time>
      </trkpt>
      <trkpt lat="47.80584" lon="-3.52091">
        <ele>16.05</ele>
        <time>2020-07-08T09:46:42Z</time>
      </trkpt>
      <trkpt lat="47.80585" lon="-3.52087">
        <ele>16.1</ele>
        <time>2020-07-08T09:46:43Z</time>
      </trkpt>
      <trkpt lat="47.80587" lon="-3.52083">
        <ele>16.15</ele>
        <time>2020-07-08T09:46:44Z</time>
      </trkpt>
      <trkpt lat="47.80589" lon="-3.52079">
        <ele>16.51</ele>
        <time>2020-07-08T09:46:45Z</time>
      </trkpt>
      <trkpt lat="47.80591" lon="-3.52076">
        <ele>16.99</ele>
        <time>2020-07-08T09:46:46Z</time>
      </trkpt>
      <trkpt lat="47.80592" lon="-3.52072">
        <ele>17.28</ele>
        <time>2020-07-08T09:46:47Z</time>
      </trkpt>
      <trkpt lat="47.80592" lon="-3.52069">
        <ele>17.41</ele>
        <time>2020-07-08T09:46:48Z</time>
      </trkpt>
      <trkpt lat="47.80593" lon="-3.52065">
        <ele>17.46</ele>
        <time>2020-07-08T09:46:49Z</time>
      </trkpt>
      <trkpt lat="47.80593" lon="-3.52062">
        <ele>17.36</ele>
        <time>2020-07-08T09:46:50Z</time>
      </trkpt>
      <trkpt lat="47.80592" lon="-3.52058">
        <ele>17.16</ele>
        <time>2020-07-08T09:46:51Z</time>
      </trkpt>
      <trkpt lat="47.80592" lon="-3.52053">
        <ele>17</ele>
        <time>2020-07-08T09:46:52Z</time>
      </trkpt>
      <trkpt lat="47.80593" lon="-3.52049">
        <ele>17.02</ele>
        <time>2020-07-08T09:46:53Z</time>
      </trkpt>
      <trkpt lat="47.80593" lon="-3.52045">
        <ele>17.15</ele>
        <time>2020-07-08T09:46:54Z</time>
      </trkpt>
      <trkpt lat="47.80594" lon="-3.52041">
        <ele>17.33</ele>
        <time>2020-07-08T09:46:55Z</time>
      </trkpt>
      <trkpt lat="47.80594" lon="-3.52036">
        <ele>17.41</ele>
        <time>2020-07-08T09:46:56Z</time>
      </trkpt>
      <trkpt lat="47.80595" lon="-3.52031">
        <ele>17.58</ele>
        <time>2020-07-08T09:46:57Z</time>
      </trkpt>
      <trkpt lat="47.80595" lon="-3.52026">
        <ele>18.02</ele>
        <time>2020-07-08T09:46:58Z</time>
      </trkpt>
      <trkpt lat="47.80596" lon="-3.52021">
        <ele>18.5</ele>
        <time>2020-07-08T09:46:59Z</time>
      </trkpt>
      <trkpt lat="47.80596" lon="-3.52017">
        <ele>18.97</ele>
        <time>2020-07-08T09:47:00Z</time>
      </trkpt>
      <trkpt lat="47.80596" lon="-3.52014">
        <ele>19.41</ele>
        <time>2020-07-08T09:47:01Z</time>
      </trkpt>
      <trkpt lat="47.80596" lon="-3.5201">
        <ele>19.73</ele>
        <time>2020-07-08T09:47:02Z</time>
      </trkpt>
      <trkpt lat="47.80596" lon="-3.52006">
        <ele>20.04</ele>
        <time>2020-07-08T09:47:03Z</time>
      </trkpt>
      <trkpt lat="47.80597" lon="-3.52003">
        <ele>20.41</ele>
        <time>2020-07-08T09:47:04Z</time>
      </trkpt>
      <trkpt lat="47.80597" lon="-3.52">
        <ele>20.7</ele>
        <time>2020-07-08T09:47:05Z</time>
      </trkpt>
      <trkpt lat="47.80597" lon="-3.51997">
        <ele>21.1</ele>
        <time>2020-07-08T09:47:06Z</time>
      </trkpt>
      <trkpt lat="47.80598" lon="-3.51993">
        <ele>21.49</ele>
        <time>2020-07-08T09:47:07Z</time>
      </trkpt>
      <trkpt lat="47.80598" lon="-3.51988">
        <ele>21.88</ele>
        <time>2020-07-08T09:47:08Z</time>
      </trkpt>
      <trkpt lat="47.80598" lon="-3.51985">
        <ele>22.13</ele>
        <time>2020-07-08T09:47:09Z</time>
      </trkpt>
      <trkpt lat="47.80598" lon="-3.51982">
        <ele>22.46</ele>
        <time>2020-07-08T09:47:10Z</time>
      </trkpt>
      <trkpt lat="47.80598" lon="-3.51979">
        <ele>22.67</ele>
        <time>2020-07-08T09:47:11Z</time>
      </trkpt>
      <trkpt lat="47.80598" lon="-3.51975">
        <ele>23.06</ele>
        <time>2020-07-08T09:47:12Z</time>
      </trkpt>
      <trkpt lat="47.80598" lon="-3.51971">
        <ele>23.39</ele>
        <time>2020-07-08T09:47:13Z</time>
      </trkpt>
      <trkpt lat="47.80599" lon="-3.51969">
        <ele>23.68</ele>
        <time>2020-07-08T09:47:14Z</time>
      </trkpt>
      <trkpt lat="47.80599" lon="-3.51966">
        <ele>24.04</ele>
        <time>2020-07-08T09:47:15Z</time>
      </trkpt>
      <trkpt lat="47.80599" lon="-3.51962">
        <ele>24.35</ele>
        <time>2020-07-08T09:47:16Z</time>
      </trkpt>
      <trkpt lat="47.806" lon="-3.51959">
        <ele>24.73</ele>
        <time>2020-07-08T09:47:17Z</time>
      </trkpt>
      <trkpt lat="47.806" lon="-3.51955">
        <ele>25.07</ele>
        <time>2020-07-08T09:47:18Z</time>
      </trkpt>
      <trkpt lat="47.80601" lon="-3.5195">
        <ele>25.56</ele>
        <time>2020-07-08T09:47:19Z</time>
      </trkpt>
      <trkpt lat="47.80601" lon="-3.51947">
        <ele>25.87</ele>
        <time>2020-07-08T09:47:20Z</time>
      </trkpt>
      <trkpt lat="47.80601" lon="-3.51943">
        <ele>26.04</ele>
        <time>2020-07-08T09:47:21Z</time>
      </trkpt>
      <trkpt lat="47.806" lon="-3.5194">
        <ele>26.21</ele>
        <time>2020-07-08T09:47:22Z</time>
      </trkpt>
      <trkpt lat="47.806" lon="-3.51936">
        <ele>26.46</ele>
        <time>2020-07-08T09:47:23Z</time>
      </trkpt>
      <trkpt lat="47.80599" lon="-3.51934">
        <ele>26.52</ele>
        <time>2020-07-08T09:47:24Z</time>
      </trkpt>
      <trkpt lat="47.80598" lon="-3.51929">
        <ele>26.7</ele>
        <time>2020-07-08T09:47:25Z</time>
      </trkpt>
      <trkpt lat="47.80598" lon="-3.51925">
        <ele>26.87</ele>
        <time>2020-07-08T09:47:26Z</time>
      </trkpt>
      <trkpt lat="47.80597" lon="-3.51919">
        <ele>27.1</ele>
        <time>2020-07-08T09:47:27Z</time>
      </trkpt>
      <trkpt lat="47.80596" lon="-3.51914">
        <ele>27.31</ele>
        <time>2020-07-08T09:47:28Z</time>
      </trkpt>
      <trkpt lat="47.80596" lon="-3.51909">
        <ele>27.42</ele>
        <time>2020-07-08T09:47:29Z</time>
      </trkpt>
      <trkpt lat="47.80595" lon="-3.51904">
        <ele>27.5</ele>
        <time>2020-07-08T09:47:30Z</time>
      </trkpt>
      <trkpt lat="47.80594" lon="-3.51899">
        <ele>27.38</ele>
        <time>2020-07-08T09:47:31Z</time>
      </trkpt>
      <trkpt lat="47.80593" lon="-3.51893">
        <ele>27.29</ele>
        <time>2020-07-08T09:47:32Z</time>
      </trkpt>
      <trkpt lat="47.80592" lon="-3.51888">
        <ele>27.31</ele>
        <time>2020-07-08T09:47:33Z</time>
      </trkpt>
      <trkpt lat="47.80592" lon="-3.51885">
        <ele>27.23</ele>
        <time>2020-07-08T09:47:34Z</time>
      </trkpt>
      <trkpt lat="47.80591" lon="-3.51881">
        <ele>27.12</ele>
        <time>2020-07-08T09:47:35Z</time>
      </trkpt>
      <trkpt lat="47.8059" lon="-3.51876">
        <ele>27.1</ele>
        <time>2020-07-08T09:47:36Z</time>
      </trkpt>
      <trkpt lat="47.8059" lon="-3.51872">
        <ele>27.23</ele>
        <time>2020-07-08T09:47:37Z</time>
      </trkpt>
      <trkpt lat="47.8059" lon="-3.51868">
        <ele>27.36</ele>
        <time>2020-07-08T09:47:38Z</time>
      </trkpt>
      <trkpt lat="47.8059" lon="-3.51864">
        <ele>27.43</ele>
        <time>2020-07-08T09:47:39Z</time>
      </trkpt>
      <trkpt lat="47.8059" lon="-3.5186">
        <ele>27.49</ele>
        <time>2020-07-08T09:47:40Z</time>
      </trkpt>
      <trkpt lat="47.80589" lon="-3.51855">
        <ele>27.4</ele>
        <time>2020-07-08T09:47:41Z</time>
      </trkpt>
      <trkpt lat="47.80589" lon="-3.5185">
        <ele>27.35</ele>
        <time>2020-07-08T09:47:42Z</time>
      </trkpt>
      <trkpt lat="47.80589" lon="-3.51845">
        <ele>27.45</ele>
        <time>2020-07-08T09:47:43Z</time>
      </trkpt>
      <trkpt lat="47.8059" lon="-3.51841">
        <ele>27.66</ele>
        <time>2020-07-08T09:47:44Z</time>
      </trkpt>
      <trkpt lat="47.8059" lon="-3.51837">
        <ele>27.84</ele>
        <time>2020-07-08T09:47:45Z</time>
      </trkpt>
      <trkpt lat="47.80591" lon="-3.51834">
        <ele>28.07</ele>
        <time>2020-07-08T09:47:46Z</time>
      </trkpt>
      <trkpt lat="47.80592" lon="-3.5183">
        <ele>28.51</ele>
        <time>2020-07-08T09:47:47Z</time>
      </trkpt>
      <trkpt lat="47.80593" lon="-3.51826">
        <ele>28.99</ele>
        <time>2020-07-08T09:47:48Z</time>
      </trkpt>
      <trkpt lat="47.80594" lon="-3.51822">
        <ele>29.54</ele>
        <time>2020-07-08T09:47:49Z</time>
      </trkpt>
      <trkpt lat="47.80595" lon="-3.51818">
        <ele>30.01</ele>
        <time>2020-07-08T09:47:50Z</time>
      </trkpt>
      <trkpt lat="47.80595" lon="-3.51815">
        <ele>30.4</ele>
        <time>2020-07-08T09:47:51Z</time>
      </trkpt>
      <trkpt lat="47.80596" lon="-3.51811">
        <ele>30.75</ele>
        <time>2020-07-08T09:47:52Z</time>
      </trkpt>
      <trkpt lat="47.80596" lon="-3.51808">
        <ele>31.05</ele>
        <time>2020-07-08T09:47:53Z</time>
      </trkpt>
      <trkpt lat="47.80597" lon="-3.51804">
        <ele>31.36</ele>
        <time>2020-07-08T09:47:54Z</time>
      </trkpt>
      <trkpt lat="47.80598" lon="-3.51801">
        <ele>31.77</ele>
        <time>2020-07-08T09:47:55Z</time>
      </trkpt>
      <trkpt lat="47.80598" lon="-3.51797">
        <ele>32.11</ele>
        <time>2020-07-08T09:47:56Z</time>
      </trkpt>
      <trkpt lat="47.80598" lon="-3.51793">
        <ele>32.44</ele>
        <time>2020-07-08T09:47:57Z</time>
      </trkpt>
      <trkpt lat="47.80599" lon="-3.5179">
        <ele>32.85</ele>
        <time>2020-07-08T09:47:58Z</time>
      </trkpt>
      <trkpt lat="47.806" lon="-3.51786">
        <ele>33.42</ele>
        <time>2020-07-08T09:47:59Z</time>
      </trkpt>
      <trkpt lat="47.80602" lon="-3.51782">
        <ele>34.1</ele>
        <time>2020-07-08T09:48:00Z</time>
      </trkpt>
      <trkpt lat="47.80603" lon="-3.5178">
        <ele>34.8</ele>
        <time>2020-07-08T09:48:01Z</time>
      </trkpt>
      <trkpt lat="47.80606" lon="-3.51778">
        <ele>35.67</ele>
        <time>2020-07-08T09:48:02Z</time>
      </trkpt>
      <trkpt lat="47.80608" lon="-3.51777">
        <ele>36.68</ele>
        <time>2020-07-08T09:48:03Z</time>
      </trkpt>
      <trkpt lat="47.80612" lon="-3.51776">
        <ele>37.68</ele>
        <time>2020-07-08T09:48:04Z</time>
      </trkpt>
      <trkpt lat="47.80615" lon="-3.51777">
        <ele>38.22</ele>
        <time>2020-07-08T09:48:05Z</time>
      </trkpt>
      <trkpt lat="47.80618" lon="-3.51777">
        <ele>38.61</ele>
        <time>2020-07-08T09:48:06Z</time>
      </trkpt>
      <trkpt lat="47.80621" lon="-3.51777">
        <ele>38.92</ele>
        <time>2020-07-08T09:48:07Z</time>
      </trkpt>
      <trkpt lat="47.80623" lon="-3.51778">
        <ele>39.19</ele>
        <time>2020-07-08T09:48:08Z</time>
      </trkpt>
      <trkpt lat="47.80626" lon="-3.51779">
        <ele>39.48</ele>
        <time>2020-07-08T09:48:09Z</time>
      </trkpt>
      <trkpt lat="47.80629" lon="-3.5178">
        <ele>39.77</ele>
        <time>2020-07-08T09:48:10Z</time>
      </trkpt>
      <trkpt lat="47.80632" lon="-3.51781">
        <ele>40.09</ele>
        <time>2020-07-08T09:48:11Z</time>
      </trkpt>
      <trkpt lat="47.80635" lon="-3.51782">
        <ele>40.42</ele>
        <time>2020-07-08T09:48:12Z</time>
      </trkpt>
      <trkpt lat="47.80638" lon="-3.51783">
        <ele>40.78</ele>
        <time>2020-07-08T09:48:13Z</time>
      </trkpt>
      <trkpt lat="47.80641" lon="-3.51783">
        <ele>41.18</ele>
        <time>2020-07-08T09:48:14Z</time>
      </trkpt>
      <trkpt lat="47.80644" lon="-3.51785">
        <ele>41.59</ele>
        <time>2020-07-08T09:48:15Z</time>
      </trkpt>
      <trkpt lat="47.80647" lon="-3.51786">
        <ele>41.95</ele>
        <time>2020-07-08T09:48:16Z</time>
      </trkpt>
      <trkpt lat="47.8065" lon="-3.51787">
        <ele>42.31</ele>
        <time>2020-07-08T09:48:17Z</time>
      </trkpt>
      <trkpt lat="47.80653" lon="-3.51788">
        <ele>42.67</ele>
        <time>2020-07-08T09:48:18Z</time>
      </trkpt>
      <trkpt lat="47.80656" lon="-3.51788">
        <ele>43.03</ele>
        <time>2020-07-08T09:48:19Z</time>
      </trkpt>
      <trkpt lat="47.80658" lon="-3.5179">
        <ele>43.31</ele>
        <time>2020-07-08T09:48:20Z</time>
      </trkpt>
      <trkpt lat="47.8066" lon="-3.51792">
        <ele>43.57</ele>
        <time>2020-07-08T09:48:21Z</time>
      </trkpt>
      <trkpt lat="47.80663" lon="-3.51793">
        <ele>43.83</ele>
        <time>2020-07-08T09:48:22Z</time>
      </trkpt>
      <trkpt lat="47.80665" lon="-3.51794">
        <ele>44.11</ele>
        <time>2020-07-08T09:48:23Z</time>
      </trkpt>
      <trkpt lat="47.80668" lon="-3.51795">
        <ele>44.34</ele>
        <time>2020-07-08T09:48:24Z</time>
      </trkpt>
      <trkpt lat="47.80671" lon="-3.51796">
        <ele>44.52</ele>
        <time>2020-07-08T09:48:25Z</time>
      </trkpt>
      <trkpt lat="47.80674" lon="-3.51796">
        <ele>44.68</ele>
        <time>2020-07-08T09:48:26Z</time>
      </trkpt>
      <trkpt lat="47.80676" lon="-3.51797">
        <ele>44.82</ele>
        <time>2020-07-08T09:48:27Z</time>
      </trkpt>
      <trkpt lat="47.80679" lon="-3.51798">
        <ele>44.97</ele>
        <time>2020-07-08T09:48:28Z</time>
      </trkpt>
      <trkpt lat="47.80681" lon="-3.51799">
        <ele>45.1</ele>
        <time>2020-07-08T09:48:29Z</time>
      </trkpt>
      <trkpt lat="47.80684" lon="-3.518">
        <ele>45.25</ele>
        <time>2020-07-08T09:48:30Z</time>
      </trkpt>
      <trkpt lat="47.80687" lon="-3.51801">
        <ele>45.41</ele>
        <time>2020-07-08T09:48:31Z</time>
      </trkpt>
      <trkpt lat="47.80689" lon="-3.51803">
        <ele>45.56</ele>
        <time>2020-07-08T09:48:32Z</time>
      </trkpt>
      <trkpt lat="47.80691" lon="-3.51805">
        <ele>45.71</ele>
        <time>2020-07-08T09:48:33Z</time>
      </trkpt>
      <trkpt lat="47.80694" lon="-3.51806">
        <ele>45.84</ele>
        <time>2020-07-08T09:48:34Z</time>
      </trkpt>
      <trkpt lat="47.80696" lon="-3.51809">
        <ele>45.96</ele>
        <time>2020-07-08T09:48:35Z</time>
      </trkpt>
      <trkpt lat="47.80699" lon="-3.51811">
        <ele>46.08</ele>
        <time>2020-07-08T09:48:36Z</time>
      </trkpt>
      <trkpt lat="47.80701" lon="-3.51813">
        <ele>46.17</ele>
        <time>2020-07-08T09:48:37Z</time>
      </trkpt>
      <trkpt lat="47.80703" lon="-3.51815">
        <ele>46.26</ele>
        <time>2020-07-08T09:48:38Z</time>
      </trkpt>
      <trkpt lat="47.80706" lon="-3.51818">
        <ele>46.35</ele>
        <time>2020-07-08T09:48:39Z</time>
      </trkpt>
      <trkpt lat="47.80709" lon="-3.51821">
        <ele>46.45</ele>
        <time>2020-07-08T09:48:40Z</time>
      </trkpt>
      <trkpt lat="47.80711" lon="-3.51823">
        <ele>46.55</ele>
        <time>2020-07-08T09:48:41Z</time>
      </trkpt>
      <trkpt lat="47.80714" lon="-3.51825">
        <ele>46.66</ele>
        <time>2020-07-08T09:48:42Z</time>
      </trkpt>
      <trkpt lat="47.80717" lon="-3.51828">
        <ele>46.76</ele>
        <time>2020-07-08T09:48:43Z</time>
      </trkpt>
      <trkpt lat="47.8072" lon="-3.51831">
        <ele>46.85</ele>
        <time>2020-07-08T09:48:44Z</time>
      </trkpt>
      <trkpt lat="47.80723" lon="-3.51834">
        <ele>46.96</ele>
        <time>2020-07-08T09:48:45Z</time>
      </trkpt>
      <trkpt lat="47.80726" lon="-3.51838">
        <ele>47.07</ele>
        <time>2020-07-08T09:48:46Z</time>
      </trkpt>
      <trkpt lat="47.80728" lon="-3.51841">
        <ele>47.18</ele>
        <time>2020-07-08T09:48:47Z</time>
      </trkpt>
      <trkpt lat="47.80731" lon="-3.51845">
        <ele>47.28</ele>
        <time>2020-07-08T09:48:48Z</time>
      </trkpt>
      <trkpt lat="47.80734" lon="-3.51848">
        <ele>47.39</ele>
        <time>2020-07-08T09:48:49Z</time>
      </trkpt>
      <trkpt lat="47.80737" lon="-3.51851">
        <ele>47.5</ele>
        <time>2020-07-08T09:48:50Z</time>
      </trkpt>
      <trkpt lat="47.80741" lon="-3.51855">
        <ele>47.62</ele>
        <time>2020-07-08T09:48:51Z</time>
      </trkpt>
      <trkpt lat="47.80745" lon="-3.51858">
        <ele>47.75</ele>
        <time>2020-07-08T09:48:52Z</time>
      </trkpt>
      <trkpt lat="47.80748" lon="-3.51862">
        <ele>47.86</ele>
        <time>2020-07-08T09:48:53Z</time>
      </trkpt>
      <trkpt lat="47.80751" lon="-3.51865">
        <ele>47.85</ele>
        <time>2020-07-08T09:48:54Z</time>
      </trkpt>
      <trkpt lat="47.80755" lon="-3.51869">
        <ele>47.78</ele>
        <time>2020-07-08T09:48:55Z</time>
      </trkpt>
      <trkpt lat="47.80758" lon="-3.51873">
        <ele>47.72</ele>
        <time>2020-07-08T09:48:56Z</time>
      </trkpt>
      <trkpt lat="47.80761" lon="-3.51877">
        <ele>47.67</ele>
        <time>2020-07-08T09:48:57Z</time>
      </trkpt>
      <trkpt lat="47.80765" lon="-3.51881">
        <ele>47.66</ele>
        <time>2020-07-08T09:48:58Z</time>
      </trkpt>
      <trkpt lat="47.80769" lon="-3.51885">
        <ele>47.7</ele>
        <time>2020-07-08T09:48:59Z</time>
      </trkpt>
      <trkpt lat="47.80772" lon="-3.51889">
        <ele>47.75</ele>
        <time>2020-07-08T09:49:00Z</time>
      </trkpt>
      <trkpt lat="47.80776" lon="-3.51893">
        <ele>47.77</ele>
        <time>2020-07-08T09:49:01Z</time>
      </trkpt>
      <trkpt lat="47.8078" lon="-3.51897">
        <ele>47.74</ele>
        <time>2020-07-08T09:49:02Z</time>
      </trkpt>
      <trkpt lat="47.80784" lon="-3.519">
        <ele>47.63</ele>
        <time>2020-07-08T09:49:03Z</time>
      </trkpt>
      <trkpt lat="47.80788" lon="-3.51904">
        <ele>47.5</ele>
        <time>2020-07-08T09:49:04Z</time>
      </trkpt>
      <trkpt lat="47.80792" lon="-3.51908">
        <ele>47.36</ele>
        <time>2020-07-08T09:49:05Z</time>
      </trkpt>
      <trkpt lat="47.80796" lon="-3.51911">
        <ele>47.24</ele>
        <time>2020-07-08T09:49:06Z</time>
      </trkpt>
      <trkpt lat="47.80801" lon="-3.51914">
        <ele>47.15</ele>
        <time>2020-07-08T09:49:07Z</time>
      </trkpt>
      <trkpt lat="47.80805" lon="-3.51916">
        <ele>47.05</ele>
        <time>2020-07-08T09:49:08Z</time>
      </trkpt>
      <trkpt lat="47.80809" lon="-3.51918">
        <ele>47.02</ele>
        <time>2020-07-08T09:49:09Z</time>
      </trkpt>
      <trkpt lat="47.80813" lon="-3.51922">
        <ele>47</ele>
        <time>2020-07-08T09:49:10Z</time>
      </trkpt>
      <trkpt lat="47.80817" lon="-3.51926">
        <ele>47</ele>
        <time>2020-07-08T09:49:11Z</time>
      </trkpt>
      <trkpt lat="47.80822" lon="-3.51929">
        <ele>47</ele>
        <time>2020-07-08T09:49:12Z</time>
      </trkpt>
      <trkpt lat="47.80826" lon="-3.51932">
        <ele>47</ele>
        <time>2020-07-08T09:49:13Z</time>
      </trkpt>
      <trkpt lat="47.80831" lon="-3.51935">
        <ele>47</ele>
        <time>2020-07-08T09:49:14Z</time>
      </trkpt>
      <trkpt lat="47.80835" lon="-3.51939">
        <ele>47</ele>
        <time>2020-07-08T09:49:15Z</time>
      </trkpt>
      <trkpt lat="47.80839" lon="-3.51943">
        <ele>47</ele>
        <time>2020-07-08T09:49:16Z</time>
      </trkpt>
      <trkpt lat="47.80844" lon="-3.51946">
        <ele>46.99</ele>
        <time>2020-07-08T09:49:17Z</time>
      </trkpt>
      <trkpt lat="47.80848" lon="-3.51949">
        <ele>46.94</ele>
        <time>2020-07-08T09:49:18Z</time>
      </trkpt>
      <trkpt lat="47.80852" lon="-3.51952">
        <ele>46.85</ele>
        <time>2020-07-08T09:49:19Z</time>
      </trkpt>
      <trkpt lat="47.80857" lon="-3.51956">
        <ele>46.72</ele>
        <time>2020-07-08T09:49:20Z</time>
      </trkpt>
      <trkpt lat="47.80861" lon="-3.51959">
        <ele>46.53</ele>
        <time>2020-07-08T09:49:21Z</time>
      </trkpt>
      <trkpt lat="47.80866" lon="-3.51963">
        <ele>46.27</ele>
        <time>2020-07-08T09:49:22Z</time>
      </trkpt>
      <trkpt lat="47.80871" lon="-3.51966">
        <ele>45.99</ele>
        <time>2020-07-08T09:49:23Z</time>
      </trkpt>
      <trkpt lat="47.80875" lon="-3.5197">
        <ele>45.69</ele>
        <time>2020-07-08T09:49:24Z</time>
      </trkpt>
      <trkpt lat="47.8088" lon="-3.51974">
        <ele>45.43</ele>
        <time>2020-07-08T09:49:25Z</time>
      </trkpt>
      <trkpt lat="47.80884" lon="-3.51978">
        <ele>45.24</ele>
        <time>2020-07-08T09:49:26Z</time>
      </trkpt>
      <trkpt lat="47.80889" lon="-3.51982">
        <ele>45.06</ele>
        <time>2020-07-08T09:49:27Z</time>
      </trkpt>
      <trkpt lat="47.80894" lon="-3.51985">
        <ele>44.89</ele>
        <time>2020-07-08T09:49:28Z</time>
      </trkpt>
      <trkpt lat="47.80899" lon="-3.51989">
        <ele>44.7</ele>
        <time>2020-07-08T09:49:29Z</time>
      </trkpt>
      <trkpt lat="47.80904" lon="-3.51992">
        <ele>44.53</ele>
        <time>2020-07-08T09:49:30Z</time>
      </trkpt>
      <trkpt lat="47.80909" lon="-3.51996">
        <ele>44.35</ele>
        <time>2020-07-08T09:49:31Z</time>
      </trkpt>
      <trkpt lat="47.80914" lon="-3.52">
        <ele>44.17</ele>
        <time>2020-07-08T09:49:32Z</time>
      </trkpt>
      <trkpt lat="47.80919" lon="-3.52003">
        <ele>44</ele>
        <time>2020-07-08T09:49:33Z</time>
      </trkpt>
      <trkpt lat="47.80923" lon="-3.52007">
        <ele>43.83</ele>
        <time>2020-07-08T09:49:34Z</time>
      </trkpt>
      <trkpt lat="47.80928" lon="-3.52011">
        <ele>43.66</ele>
        <time>2020-07-08T09:49:35Z</time>
      </trkpt>
      <trkpt lat="47.80933" lon="-3.52014">
        <ele>43.48</ele>
        <time>2020-07-08T09:49:36Z</time>
      </trkpt>
      <trkpt lat="47.80938" lon="-3.52016">
        <ele>43.31</ele>
        <time>2020-07-08T09:49:37Z</time>
      </trkpt>
      <trkpt lat="47.80943" lon="-3.52019">
        <ele>43.13</ele>
        <time>2020-07-08T09:49:38Z</time>
      </trkpt>
      <trkpt lat="47.80948" lon="-3.52021">
        <ele>42.93</ele>
        <time>2020-07-08T09:49:39Z</time>
      </trkpt>
      <trkpt lat="47.80953" lon="-3.52024">
        <ele>42.74</ele>
        <time>2020-07-08T09:49:40Z</time>
      </trkpt>
      <trkpt lat="47.80958" lon="-3.52027">
        <ele>42.58</ele>
        <time>2020-07-08T09:49:41Z</time>
      </trkpt>
      <trkpt lat="47.80963" lon="-3.52031">
        <ele>42.36</ele>
        <time>2020-07-08T09:49:42Z</time>
      </trkpt>
      <trkpt lat="47.80967" lon="-3.52035">
        <ele>42.08</ele>
        <time>2020-07-08T09:49:43Z</time>
      </trkpt>
      <trkpt lat="47.80973" lon="-3.52038">
        <ele>41.75</ele>
        <time>2020-07-08T09:49:44Z</time>
      </trkpt>
      <trkpt lat="47.80978" lon="-3.52041">
        <ele>41.37</ele>
        <time>2020-07-08T09:49:45Z</time>
      </trkpt>
      <trkpt lat="47.80984" lon="-3.52044">
        <ele>40.99</ele>
        <time>2020-07-08T09:49:46Z</time>
      </trkpt>
      <trkpt lat="47.8099" lon="-3.52047">
        <ele>40.62</ele>
        <time>2020-07-08T09:49:47Z</time>
      </trkpt>
      <trkpt lat="47.80996" lon="-3.52051">
        <ele>40.32</ele>
        <time>2020-07-08T09:49:48Z</time>
      </trkpt>
      <trkpt lat="47.81002" lon="-3.52054">
        <ele>40.01</ele>
        <time>2020-07-08T09:49:49Z</time>
      </trkpt>
      <trkpt lat="47.81008" lon="-3.52056">
        <ele>39.6</ele>
        <time>2020-07-08T09:49:50Z</time>
      </trkpt>
      <trkpt lat="47.81014" lon="-3.5206">
        <ele>39.08</ele>
        <time>2020-07-08T09:49:51Z</time>
      </trkpt>
      <trkpt lat="47.81021" lon="-3.52064">
        <ele>38.49</ele>
        <time>2020-07-08T09:49:52Z</time>
      </trkpt>
      <trkpt lat="47.81027" lon="-3.52067">
        <ele>37.89</ele>
        <time>2020-07-08T09:49:53Z</time>
      </trkpt>
      <trkpt lat="47.81032" lon="-3.5207">
        <ele>37.37</ele>
        <time>2020-07-08T09:49:54Z</time>
      </trkpt>
      <trkpt lat="47.81037" lon="-3.52073">
        <ele>36.92</ele>
        <time>2020-07-08T09:49:55Z</time>
      </trkpt>
      <trkpt lat="47.81041" lon="-3.52076">
        <ele>36.51</ele>
        <time>2020-07-08T09:49:56Z</time>
      </trkpt>
      <trkpt lat="47.81043" lon="-3.52081">
        <ele>36.14</ele>
        <time>2020-07-08T09:49:57Z</time>
      </trkpt>
      <trkpt lat="47.81044" lon="-3.52087">
        <ele>35.89</ele>
        <time>2020-07-08T09:49:58Z</time>
      </trkpt>
      <trkpt lat="47.81042" lon="-3.52093">
        <ele>35.81</ele>
        <time>2020-07-08T09:49:59Z</time>
      </trkpt>
      <trkpt lat="47.8104" lon="-3.521">
        <ele>35.79</ele>
        <time>2020-07-08T09:50:00Z</time>
      </trkpt>
      <trkpt lat="47.81038" lon="-3.52108">
        <ele>35.72</ele>
        <time>2020-07-08T09:50:01Z</time>
      </trkpt>
      <trkpt lat="47.81037" lon="-3.52115">
        <ele>35.59</ele>
        <time>2020-07-08T09:50:02Z</time>
      </trkpt>
      <trkpt lat="47.81036" lon="-3.52123">
        <ele>35.38</ele>
        <time>2020-07-08T09:50:03Z</time>
      </trkpt>
      <trkpt lat="47.81037" lon="-3.5213">
        <ele>35.11</ele>
        <time>2020-07-08T09:50:04Z</time>
      </trkpt>
      <trkpt lat="47.81039" lon="-3.52137">
        <ele>34.8</ele>
        <time>2020-07-08T09:50:05Z</time>
      </trkpt>
      <trkpt lat="47.81042" lon="-3.52146">
        <ele>34.07</ele>
        <time>2020-07-08T09:50:06Z</time>
      </trkpt>
      <trkpt lat="47.81047" lon="-3.52154">
        <ele>33.1</ele>
        <time>2020-07-08T09:50:07Z</time>
      </trkpt>
      <trkpt lat="47.81053" lon="-3.52162">
        <ele>32.03</ele>
        <time>2020-07-08T09:50:08Z</time>
      </trkpt>
      <trkpt lat="47.81059" lon="-3.5217">
        <ele>31.13</ele>
        <time>2020-07-08T09:50:09Z</time>
      </trkpt>
      <trkpt lat="47.81066" lon="-3.52177">
        <ele>30.41</ele>
        <time>2020-07-08T09:50:10Z</time>
      </trkpt>
      <trkpt lat="47.81073" lon="-3.52185">
        <ele>29.63</ele>
        <time>2020-07-08T09:50:11Z</time>
      </trkpt>
      <trkpt lat="47.8108" lon="-3.52193">
        <ele>28.66</ele>
        <time>2020-07-08T09:50:12Z</time>
      </trkpt>
      <trkpt lat="47.81087" lon="-3.52202">
        <ele>27.84</ele>
        <time>2020-07-08T09:50:13Z</time>
      </trkpt>
      <trkpt lat="47.81094" lon="-3.52209">
        <ele>27.24</ele>
        <time>2020-07-08T09:50:14Z</time>
      </trkpt>
      <trkpt lat="47.81101" lon="-3.52216">
        <ele>26.69</ele>
        <time>2020-07-08T09:50:15Z</time>
      </trkpt>
      <trkpt lat="47.81108" lon="-3.52223">
        <ele>26.17</ele>
        <time>2020-07-08T09:50:16Z</time>
      </trkpt>
      <trkpt lat="47.81116" lon="-3.52231">
        <ele>25.83</ele>
        <time>2020-07-08T09:50:17Z</time>
      </trkpt>
      <trkpt lat="47.81122" lon="-3.52238">
        <ele>25.55</ele>
        <time>2020-07-08T09:50:18Z</time>
      </trkpt>
      <trkpt lat="47.81129" lon="-3.52245">
        <ele>25.28</ele>
        <time>2020-07-08T09:50:19Z</time>
      </trkpt>
      <trkpt lat="47.81136" lon="-3.52252">
        <ele>24.95</ele>
        <time>2020-07-08T09:50:20Z</time>
      </trkpt>
      <trkpt lat="47.81143" lon="-3.5226">
        <ele>24.47</ele>
        <time>2020-07-08T09:50:21Z</time>
      </trkpt>
      <trkpt lat="47.8115" lon="-3.52266">
        <ele>24.06</ele>
        <time>2020-07-08T09:50:22Z</time>
      </trkpt>
      <trkpt lat="47.81156" lon="-3.52273">
        <ele>23.84</ele>
        <time>2020-07-08T09:50:23Z</time>
      </trkpt>
      <trkpt lat="47.81163" lon="-3.5228">
        <ele>23.73</ele>
        <time>2020-07-08T09:50:24Z</time>
      </trkpt>
      <trkpt lat="47.8117" lon="-3.52287">
        <ele>23.27</ele>
        <time>2020-07-08T09:50:25Z</time>
      </trkpt>
      <trkpt lat="47.81176" lon="-3.52294">
        <ele>22.4</ele>
        <time>2020-07-08T09:50:26Z</time>
      </trkpt>
      <trkpt lat="47.81183" lon="-3.52301">
        <ele>21.48</ele>
        <time>2020-07-08T09:50:27Z</time>
      </trkpt>
      <trkpt lat="47.81189" lon="-3.52308">
        <ele>20.7</ele>
        <time>2020-07-08T09:50:28Z</time>
      </trkpt>
      <trkpt lat="47.81194" lon="-3.52316">
        <ele>20.24</ele>
        <time>2020-07-08T09:50:29Z</time>
      </trkpt>
      <trkpt lat="47.81198" lon="-3.52325">
        <ele>19.42</ele>
        <time>2020-07-08T09:50:30Z</time>
      </trkpt>
      <trkpt lat="47.81202" lon="-3.52335">
        <ele>18.42</ele>
        <time>2020-07-08T09:50:31Z</time>
      </trkpt>
      <trkpt lat="47.81206" lon="-3.52346">
        <ele>17.33</ele>
        <time>2020-07-08T09:50:32Z</time>
      </trkpt>
      <trkpt lat="47.8121" lon="-3.52358">
        <ele>16.41</ele>
        <time>2020-07-08T09:50:33Z</time>
      </trkpt>
      <trkpt lat="47.81214" lon="-3.52371">
        <ele>15.62</ele>
        <time>2020-07-08T09:50:34Z</time>
      </trkpt>
      <trkpt lat="47.81218" lon="-3.52386">
        <ele>15.04</ele>
        <time>2020-07-08T09:50:35Z</time>
      </trkpt>
      <trkpt lat="47.81221" lon="-3.52397">
        <ele>14.7</ele>
        <time>2020-07-08T09:50:36Z</time>
      </trkpt>
      <trkpt lat="47.81223" lon="-3.52407">
        <ele>14.57</ele>
        <time>2020-07-08T09:50:37Z</time>
      </trkpt>
      <trkpt lat="47.81225" lon="-3.5242">
        <ele>14.44</ele>
        <time>2020-07-08T09:50:38Z</time>
      </trkpt>
      <trkpt lat="47.81232" lon="-3.52435">
        <ele>13.5</ele>
        <time>2020-07-08T09:50:39Z</time>
      </trkpt>
      <trkpt lat="47.81239" lon="-3.52448">
        <ele>12.32</ele>
        <time>2020-07-08T09:50:40Z</time>
      </trkpt>
      <trkpt lat="47.81245" lon="-3.52461">
        <ele>11.14</ele>
        <time>2020-07-08T09:50:41Z</time>
      </trkpt>
      <trkpt lat="47.8125" lon="-3.52468">
        <ele>10.21</ele>
        <time>2020-07-08T09:50:42Z</time>
      </trkpt>
      <trkpt lat="47.81256" lon="-3.52475">
        <ele>9.88</ele>
        <time>2020-07-08T09:50:43Z</time>
      </trkpt>
      <trkpt lat="47.81263" lon="-3.5248">
        <ele>9.58</ele>
        <time>2020-07-08T09:50:44Z</time>
      </trkpt>
      <trkpt lat="47.8127" lon="-3.52482">
        <ele>9.06</ele>
        <time>2020-07-08T09:50:45Z</time>
      </trkpt>
      <trkpt lat="47.81277" lon="-3.52484">
        <ele>8.4</ele>
        <time>2020-07-08T09:50:46Z</time>
      </trkpt>
      <trkpt lat="47.81283" lon="-3.52486">
        <ele>8.05</ele>
        <time>2020-07-08T09:50:47Z</time>
      </trkpt>
      <trkpt lat="47.81289" lon="-3.52489">
        <ele>7.79</ele>
        <time>2020-07-08T09:50:48Z</time>
      </trkpt>
      <trkpt lat="47.81295" lon="-3.52493">
        <ele>7.41</ele>
        <time>2020-07-08T09:50:49Z</time>
      </trkpt>
      <trkpt lat="47.813" lon="-3.52499">
        <ele>6.76</ele>
        <time>2020-07-08T09:50:50Z</time>
      </trkpt>
      <trkpt lat="47.81305" lon="-3.52506">
        <ele>6.26</ele>
        <time>2020-07-08T09:50:51Z</time>
      </trkpt>
      <trkpt lat="47.81309" lon="-3.52514">
        <ele>6.41</ele>
        <time>2020-07-08T09:50:52Z</time>
      </trkpt>
      <trkpt lat="47.81312" lon="-3.52522">
        <ele>6.59</ele>
        <time>2020-07-08T09:50:53Z</time>
      </trkpt>
      <trkpt lat="47.81315" lon="-3.5253">
        <ele>6.63</ele>
        <time>2020-07-08T09:50:54Z</time>
      </trkpt>
      <trkpt lat="47.81318" lon="-3.52537">
        <ele>6.61</ele>
        <time>2020-07-08T09:50:55Z</time>
      </trkpt>
      <trkpt lat="47.81321" lon="-3.52543">
        <ele>6.56</ele>
        <time>2020-07-08T09:50:56Z</time>
      </trkpt>
      <trkpt lat="47.81323" lon="-3.52549">
        <ele>6.5</ele>
        <time>2020-07-08T09:50:57Z</time>
      </trkpt>
      <trkpt lat="47.81324" lon="-3.52554">
        <ele>6.43</ele>
        <time>2020-07-08T09:50:58Z</time>
      </trkpt>
      <trkpt lat="47.81326" lon="-3.52558">
        <ele>6.47</ele>
        <time>2020-07-08T09:50:59Z</time>
      </trkpt>
      <trkpt lat="47.81327" lon="-3.52561">
        <ele>6.61</ele>
        <time>2020-07-08T09:51:00Z</time>
      </trkpt>
      <trkpt lat="47.81328" lon="-3.52565">
        <ele>6.79</ele>
        <time>2020-07-08T09:51:01Z</time>
      </trkpt>
      <trkpt lat="47.8133" lon="-3.52568">
        <ele>6.97</ele>
        <time>2020-07-08T09:51:02Z</time>
      </trkpt>
      <trkpt lat="47.8133" lon="-3.52571">
        <ele>7.12</ele>
        <time>2020-07-08T09:51:03Z</time>
      </trkpt>
      <trkpt lat="47.81331" lon="-3.52574">
        <ele>7.31</ele>
        <time>2020-07-08T09:51:04Z</time>
      </trkpt>
      <trkpt lat="47.81332" lon="-3.52577">
        <ele>7.51</ele>
        <time>2020-07-08T09:51:05Z</time>
      </trkpt>
      <trkpt lat="47.81333" lon="-3.5258">
        <ele>7.73</ele>
        <time>2020-07-08T09:51:06Z</time>
      </trkpt>
      <trkpt lat="47.81334" lon="-3.52582">
        <ele>7.99</ele>
        <time>2020-07-08T09:51:07Z</time>
      </trkpt>
      <trkpt lat="47.81334" lon="-3.52584">
        <ele>8.05</ele>
        <time>2020-07-08T09:51:08Z</time>
      </trkpt>
      <trkpt lat="47.81334" lon="-3.52586">
        <ele>8.21</ele>
        <time>2020-07-08T09:51:09Z</time>
      </trkpt>
      <trkpt lat="47.81335" lon="-3.52587">
        <ele>8.59</ele>
        <time>2020-07-08T09:51:10Z</time>
      </trkpt>
      <trkpt lat="47.81336" lon="-3.52589">
        <ele>8.93</ele>
        <time>2020-07-08T09:51:11Z</time>
      </trkpt>
      <trkpt lat="47.81337" lon="-3.52591">
        <ele>9.29</ele>
        <time>2020-07-08T09:51:12Z</time>
      </trkpt>
      <trkpt lat="47.81338" lon="-3.52593">
        <ele>9.59</ele>
        <time>2020-07-08T09:51:13Z</time>
      </trkpt>
      <trkpt lat="47.81338" lon="-3.52596">
        <ele>9.8</ele>
        <time>2020-07-08T09:51:14Z</time>
      </trkpt>
      <trkpt lat="47.8134" lon="-3.52599">
        <ele>10.14</ele>
        <time>2020-07-08T09:51:15Z</time>
      </trkpt>
      <trkpt lat="47.81342" lon="-3.52601">
        <ele>10.75</ele>
        <time>2020-07-08T09:51:16Z</time>
      </trkpt>
      <trkpt lat="47.81344" lon="-3.52603">
        <ele>11.38</ele>
        <time>2020-07-08T09:51:17Z</time>
      </trkpt>
      <trkpt lat="47.81347" lon="-3.52606">
        <ele>12.11</ele>
        <time>2020-07-08T09:51:18Z</time>
      </trkpt>
      <trkpt lat="47.8135" lon="-3.52609">
        <ele>12.81</ele>
        <time>2020-07-08T09:51:19Z</time>
      </trkpt>
      <trkpt lat="47.81353" lon="-3.52611">
        <ele>13.52</ele>
        <time>2020-07-08T09:51:20Z</time>
      </trkpt>
      <trkpt lat="47.81356" lon="-3.52613">
        <ele>14.21</ele>
        <time>2020-07-08T09:51:21Z</time>
      </trkpt>
      <trkpt lat="47.81358" lon="-3.52617">
        <ele>14.81</ele>
        <time>2020-07-08T09:51:22Z</time>
      </trkpt>
      <trkpt lat="47.81362" lon="-3.52621">
        <ele>15.57</ele>
        <time>2020-07-08T09:51:23Z</time>
      </trkpt>
      <trkpt lat="47.81364" lon="-3.52624">
        <ele>16.06</ele>
        <time>2020-07-08T09:51:24Z</time>
      </trkpt>
      <trkpt lat="47.81366" lon="-3.52626">
        <ele>16.42</ele>
        <time>2020-07-08T09:51:25Z</time>
      </trkpt>
      <trkpt lat="47.81368" lon="-3.52629">
        <ele>16.79</ele>
        <time>2020-07-08T09:51:26Z</time>
      </trkpt>
      <trkpt lat="47.81371" lon="-3.52631">
        <ele>17.15</ele>
        <time>2020-07-08T09:51:27Z</time>
      </trkpt>
      <trkpt lat="47.81372" lon="-3.52633">
        <ele>17.37</ele>
        <time>2020-07-08T09:51:28Z</time>
      </trkpt>
      <trkpt lat="47.81374" lon="-3.52636">
        <ele>17.58</ele>
        <time>2020-07-08T09:51:29Z</time>
      </trkpt>
      <trkpt lat="47.81376" lon="-3.52637">
        <ele>17.79</ele>
        <time>2020-07-08T09:51:30Z</time>
      </trkpt>
      <trkpt lat="47.81379" lon="-3.52639">
        <ele>18.07</ele>
        <time>2020-07-08T09:51:31Z</time>
      </trkpt>
      <trkpt lat="47.8138" lon="-3.52642">
        <ele>18.53</ele>
        <time>2020-07-08T09:51:32Z</time>
      </trkpt>
      <trkpt lat="47.81382" lon="-3.52644">
        <ele>18.98</ele>
        <time>2020-07-08T09:51:33Z</time>
      </trkpt>
      <trkpt lat="47.81385" lon="-3.52645">
        <ele>19.48</ele>
        <time>2020-07-08T09:51:34Z</time>
      </trkpt>
      <trkpt lat="47.81388" lon="-3.52645">
        <ele>19.9</ele>
        <time>2020-07-08T09:51:35Z</time>
      </trkpt>
      <trkpt lat="47.8139" lon="-3.52646">
        <ele>20.31</ele>
        <time>2020-07-08T09:51:36Z</time>
      </trkpt>
      <trkpt lat="47.81394" lon="-3.52647">
        <ele>20.82</ele>
        <time>2020-07-08T09:51:37Z</time>
      </trkpt>
      <trkpt lat="47.81396" lon="-3.52649">
        <ele>21.25</ele>
        <time>2020-07-08T09:51:38Z</time>
      </trkpt>
      <trkpt lat="47.81399" lon="-3.5265">
        <ele>21.64</ele>
        <time>2020-07-08T09:51:39Z</time>
      </trkpt>
      <trkpt lat="47.81402" lon="-3.52651">
        <ele>22.03</ele>
        <time>2020-07-08T09:51:40Z</time>
      </trkpt>
      <trkpt lat="47.81405" lon="-3.52652">
        <ele>22.35</ele>
        <time>2020-07-08T09:51:41Z</time>
      </trkpt>
      <trkpt lat="47.81407" lon="-3.52652">
        <ele>22.64</ele>
        <time>2020-07-08T09:51:42Z</time>
      </trkpt>
      <trkpt lat="47.81408" lon="-3.52653">
        <ele>22.86</ele>
        <time>2020-07-08T09:51:43Z</time>
      </trkpt>
      <trkpt lat="47.8141" lon="-3.52653">
        <ele>23.09</ele>
        <time>2020-07-08T09:51:44Z</time>
      </trkpt>
      <trkpt lat="47.81412" lon="-3.52652">
        <ele>23.37</ele>
        <time>2020-07-08T09:51:45Z</time>
      </trkpt>
      <trkpt lat="47.81415" lon="-3.52652">
        <ele>23.68</ele>
        <time>2020-07-08T09:51:46Z</time>
      </trkpt>
      <trkpt lat="47.81419" lon="-3.52653">
        <ele>24.11</ele>
        <time>2020-07-08T09:51:47Z</time>
      </trkpt>
      <trkpt lat="47.81422" lon="-3.52652">
        <ele>24.61</ele>
        <time>2020-07-08T09:51:48Z</time>
      </trkpt>
      <trkpt lat="47.81425" lon="-3.52652">
        <ele>25.07</ele>
        <time>2020-07-08T09:51:49Z</time>
      </trkpt>
      <trkpt lat="47.81428" lon="-3.52652">
        <ele>25.5</ele>
        <time>2020-07-08T09:51:50Z</time>
      </trkpt>
      <trkpt lat="47.8143" lon="-3.52651">
        <ele>25.88</ele>
        <time>2020-07-08T09:51:51Z</time>
      </trkpt>
      <trkpt lat="47.81432" lon="-3.5265">
        <ele>26.23</ele>
        <time>2020-07-08T09:51:52Z</time>
      </trkpt>
      <trkpt lat="47.81435" lon="-3.52649">
        <ele>26.53</ele>
        <time>2020-07-08T09:51:53Z</time>
      </trkpt>
      <trkpt lat="47.81436" lon="-3.52648">
        <ele>26.82</ele>
        <time>2020-07-08T09:51:54Z</time>
      </trkpt>
      <trkpt lat="47.81439" lon="-3.52648">
        <ele>27.12</ele>
        <time>2020-07-08T09:51:55Z</time>
      </trkpt>
      <trkpt lat="47.8144" lon="-3.52648">
        <ele>27.36</ele>
        <time>2020-07-08T09:51:56Z</time>
      </trkpt>
      <trkpt lat="47.81442" lon="-3.52648">
        <ele>27.58</ele>
        <time>2020-07-08T09:51:57Z</time>
      </trkpt>
      <trkpt lat="47.81443" lon="-3.52648">
        <ele>27.77</ele>
        <time>2020-07-08T09:51:58Z</time>
      </trkpt>
      <trkpt lat="47.81445" lon="-3.52648">
        <ele>28</ele>
        <time>2020-07-08T09:51:59Z</time>
      </trkpt>
      <trkpt lat="47.81446" lon="-3.52647">
        <ele>28.17</ele>
        <time>2020-07-08T09:52:00Z</time>
      </trkpt>
      <trkpt lat="47.81449" lon="-3.52645">
        <ele>28.42</ele>
        <time>2020-07-08T09:52:01Z</time>
      </trkpt>
      <trkpt lat="47.81451" lon="-3.52644">
        <ele>28.64</ele>
        <time>2020-07-08T09:52:02Z</time>
      </trkpt>
      <trkpt lat="47.81453" lon="-3.52642">
        <ele>28.86</ele>
        <time>2020-07-08T09:52:03Z</time>
      </trkpt>
      <trkpt lat="47.81455" lon="-3.52641">
        <ele>29.07</ele>
        <time>2020-07-08T09:52:04Z</time>
      </trkpt>
      <trkpt lat="47.81456" lon="-3.52641">
        <ele>29.28</ele>
        <time>2020-07-08T09:52:05Z</time>
      </trkpt>
      <trkpt lat="47.81458" lon="-3.52642">
        <ele>29.5</ele>
        <time>2020-07-08T09:52:06Z</time>
      </trkpt>
      <trkpt lat="47.8146" lon="-3.52641">
        <ele>29.7</ele>
        <time>2020-07-08T09:52:07Z</time>
      </trkpt>
      <trkpt lat="47.81462" lon="-3.5264">
        <ele>29.87</ele>
        <time>2020-07-08T09:52:08Z</time>
      </trkpt>
      <trkpt lat="47.81464" lon="-3.52638">
        <ele>30.09</ele>
        <time>2020-07-08T09:52:09Z</time>
      </trkpt>
      <trkpt lat="47.81466" lon="-3.52637">
        <ele>30.32</ele>
        <time>2020-07-08T09:52:10Z</time>
      </trkpt>
      <trkpt lat="47.81467" lon="-3.52637">
        <ele>30.55</ele>
        <time>2020-07-08T09:52:11Z</time>
      </trkpt>
      <trkpt lat="47.81469" lon="-3.52635">
        <ele>30.82</ele>
        <time>2020-07-08T09:52:12Z</time>
      </trkpt>
      <trkpt lat="47.81471" lon="-3.52635">
        <ele>31.05</ele>
        <time>2020-07-08T09:52:13Z</time>
      </trkpt>
      <trkpt lat="47.81472" lon="-3.52634">
        <ele>31.25</ele>
        <time>2020-07-08T09:52:14Z</time>
      </trkpt>
      <trkpt lat="47.81474" lon="-3.52635">
        <ele>31.41</ele>
        <time>2020-07-08T09:52:15Z</time>
      </trkpt>
      <trkpt lat="47.81476" lon="-3.52633">
        <ele>31.65</ele>
        <time>2020-07-08T09:52:16Z</time>
      </trkpt>
      <trkpt lat="47.81478" lon="-3.52633">
        <ele>31.85</ele>
        <time>2020-07-08T09:52:17Z</time>
      </trkpt>
      <trkpt lat="47.81481" lon="-3.52633">
        <ele>32.12</ele>
        <time>2020-07-08T09:52:18Z</time>
      </trkpt>
      <trkpt lat="47.81483" lon="-3.52634">
        <ele>32.33</ele>
        <time>2020-07-08T09:52:19Z</time>
      </trkpt>
      <trkpt lat="47.81486" lon="-3.52634">
        <ele>32.55</ele>
        <time>2020-07-08T09:52:20Z</time>
      </trkpt>
      <trkpt lat="47.81488" lon="-3.52633">
        <ele>32.8</ele>
        <time>2020-07-08T09:52:21Z</time>
      </trkpt>
      <trkpt lat="47.81491" lon="-3.52633">
        <ele>33.05</ele>
        <time>2020-07-08T09:52:22Z</time>
      </trkpt>
      <trkpt lat="47.81494" lon="-3.52632">
        <ele>33.33</ele>
        <time>2020-07-08T09:52:23Z</time>
      </trkpt>
      <trkpt lat="47.81496" lon="-3.52632">
        <ele>33.57</ele>
        <time>2020-07-08T09:52:24Z</time>
      </trkpt>
      <trkpt lat="47.81499" lon="-3.52632">
        <ele>33.82</ele>
        <time>2020-07-08T09:52:25Z</time>
      </trkpt>
      <trkpt lat="47.81502" lon="-3.52631">
        <ele>34.05</ele>
        <time>2020-07-08T09:52:26Z</time>
      </trkpt>
      <trkpt lat="47.81505" lon="-3.5263">
        <ele>34.29</ele>
        <time>2020-07-08T09:52:27Z</time>
      </trkpt>
      <trkpt lat="47.81508" lon="-3.5263">
        <ele>34.51</ele>
        <time>2020-07-08T09:52:28Z</time>
      </trkpt>
      <trkpt lat="47.81511" lon="-3.52629">
        <ele>34.73</ele>
        <time>2020-07-08T09:52:29Z</time>
      </trkpt>
      <trkpt lat="47.81514" lon="-3.52627">
        <ele>34.94</ele>
        <time>2020-07-08T09:52:30Z</time>
      </trkpt>
      <trkpt lat="47.81517" lon="-3.52626">
        <ele>35.15</ele>
        <time>2020-07-08T09:52:31Z</time>
      </trkpt>
      <trkpt lat="47.8152" lon="-3.52625">
        <ele>35.35</ele>
        <time>2020-07-08T09:52:32Z</time>
      </trkpt>
      <trkpt lat="47.81523" lon="-3.52625">
        <ele>35.57</ele>
        <time>2020-07-08T09:52:33Z</time>
      </trkpt>
      <trkpt lat="47.81526" lon="-3.52623">
        <ele>35.78</ele>
        <time>2020-07-08T09:52:34Z</time>
      </trkpt>
      <trkpt lat="47.81529" lon="-3.52621">
        <ele>35.99</ele>
        <time>2020-07-08T09:52:35Z</time>
      </trkpt>
      <trkpt lat="47.81532" lon="-3.52619">
        <ele>36.15</ele>
        <time>2020-07-08T09:52:36Z</time>
      </trkpt>
      <trkpt lat="47.81536" lon="-3.52619">
        <ele>36.3</ele>
        <time>2020-07-08T09:52:37Z</time>
      </trkpt>
      <trkpt lat="47.81539" lon="-3.52618">
        <ele>36.44</ele>
        <time>2020-07-08T09:52:38Z</time>
      </trkpt>
      <trkpt lat="47.81542" lon="-3.52617">
        <ele>36.56</ele>
        <time>2020-07-08T09:52:39Z</time>
      </trkpt>
      <trkpt lat="47.81546" lon="-3.52616">
        <ele>36.71</ele>
        <time>2020-07-08T09:52:40Z</time>
      </trkpt>
      <trkpt lat="47.81549" lon="-3.52615">
        <ele>36.83</ele>
        <time>2020-07-08T09:52:41Z</time>
      </trkpt>
      <trkpt lat="47.81552" lon="-3.52613">
        <ele>36.92</ele>
        <time>2020-07-08T09:52:42Z</time>
      </trkpt>
      <trkpt lat="47.81555" lon="-3.52613">
        <ele>37.01</ele>
        <time>2020-07-08T09:52:43Z</time>
      </trkpt>
      <trkpt lat="47.81558" lon="-3.52612">
        <ele>37.17</ele>
        <time>2020-07-08T09:52:44Z</time>
      </trkpt>
      <trkpt lat="47.81562" lon="-3.52611">
        <ele>37.36</ele>
        <time>2020-07-08T09:52:45Z</time>
      </trkpt>
      <trkpt lat="47.81565" lon="-3.5261">
        <ele>37.58</ele>
        <time>2020-07-08T09:52:46Z</time>
      </trkpt>
      <trkpt lat="47.81568" lon="-3.52609">
        <ele>37.76</ele>
        <time>2020-07-08T09:52:47Z</time>
      </trkpt>
      <trkpt lat="47.8157" lon="-3.52608">
        <ele>37.93</ele>
        <time>2020-07-08T09:52:48Z</time>
      </trkpt>
      <trkpt lat="47.81573" lon="-3.52606">
        <ele>38.09</ele>
        <time>2020-07-08T09:52:49Z</time>
      </trkpt>
      <trkpt lat="47.81576" lon="-3.52606">
        <ele>38.26</ele>
        <time>2020-07-08T09:52:50Z</time>
      </trkpt>
      <trkpt lat="47.81579" lon="-3.52604">
        <ele>38.43</ele>
        <time>2020-07-08T09:52:51Z</time>
      </trkpt>
      <trkpt lat="47.81582" lon="-3.52603">
        <ele>38.59</ele>
        <time>2020-07-08T09:52:52Z</time>
      </trkpt>
      <trkpt lat="47.81586" lon="-3.52602">
        <ele>38.77</ele>
        <time>2020-07-08T09:52:53Z</time>
      </trkpt>
      <trkpt lat="47.81589" lon="-3.52601">
        <ele>38.96</ele>
        <time>2020-07-08T09:52:54Z</time>
      </trkpt>
      <trkpt lat="47.81593" lon="-3.526">
        <ele>39.16</ele>
        <time>2020-07-08T09:52:55Z</time>
      </trkpt>
      <trkpt lat="47.81596" lon="-3.52599">
        <ele>39.35</ele>
        <time>2020-07-08T09:52:56Z</time>
      </trkpt>
      <trkpt lat="47.81599" lon="-3.52598">
        <ele>39.55</ele>
        <time>2020-07-08T09:52:57Z</time>
      </trkpt>
      <trkpt lat="47.81602" lon="-3.52597">
        <ele>39.75</ele>
        <time>2020-07-08T09:52:58Z</time>
      </trkpt>
      <trkpt lat="47.81605" lon="-3.52596">
        <ele>39.93</ele>
        <time>2020-07-08T09:52:59Z</time>
      </trkpt>
      <trkpt lat="47.81609" lon="-3.52594">
        <ele>40.13</ele>
        <time>2020-07-08T09:53:00Z</time>
      </trkpt>
      <trkpt lat="47.81612" lon="-3.52593">
        <ele>40.3</ele>
        <time>2020-07-08T09:53:01Z</time>
      </trkpt>
      <trkpt lat="47.81615" lon="-3.52592">
        <ele>40.48</ele>
        <time>2020-07-08T09:53:02Z</time>
      </trkpt>
      <trkpt lat="47.81618" lon="-3.52593">
        <ele>40.66</ele>
        <time>2020-07-08T09:53:03Z</time>
      </trkpt>
      <trkpt lat="47.81621" lon="-3.52593">
        <ele>40.85</ele>
        <time>2020-07-08T09:53:04Z</time>
      </trkpt>
      <trkpt lat="47.81625" lon="-3.52592">
        <ele>41.04</ele>
        <time>2020-07-08T09:53:05Z</time>
      </trkpt>
      <trkpt lat="47.81628" lon="-3.52593">
        <ele>41.23</ele>
        <time>2020-07-08T09:53:06Z</time>
      </trkpt>
      <trkpt lat="47.8163" lon="-3.52593">
        <ele>41.41</ele>
        <time>2020-07-08T09:53:07Z</time>
      </trkpt>
      <trkpt lat="47.81632" lon="-3.52593">
        <ele>41.54</ele>
        <time>2020-07-08T09:53:08Z</time>
      </trkpt>
      <trkpt lat="47.81634" lon="-3.52593">
        <ele>41.64</ele>
        <time>2020-07-08T09:53:09Z</time>
      </trkpt>
      <trkpt lat="47.81635" lon="-3.52594">
        <ele>41.71</ele>
        <time>2020-07-08T09:53:10Z</time>
      </trkpt>
      <trkpt lat="47.81635" lon="-3.52597">
        <ele>41.75</ele>
        <time>2020-07-08T09:53:11Z</time>
      </trkpt>
      <trkpt lat="47.81634" lon="-3.526">
        <ele>41.75</ele>
        <time>2020-07-08T09:53:12Z</time>
      </trkpt>
      <trkpt lat="47.81633" lon="-3.52604">
        <ele>41.74</ele>
        <time>2020-07-08T09:53:13Z</time>
      </trkpt>
      <trkpt lat="47.81632" lon="-3.52609">
        <ele>41.73</ele>
        <time>2020-07-08T09:53:14Z</time>
      </trkpt>
      <trkpt lat="47.81631" lon="-3.52613">
        <ele>41.8</ele>
        <time>2020-07-08T09:53:15Z</time>
      </trkpt>
      <trkpt lat="47.8163" lon="-3.52618">
        <ele>42.01</ele>
        <time>2020-07-08T09:53:16Z</time>
      </trkpt>
      <trkpt lat="47.81629" lon="-3.52623">
        <ele>42.29</ele>
        <time>2020-07-08T09:53:17Z</time>
      </trkpt>
      <trkpt lat="47.81629" lon="-3.52629">
        <ele>42.58</ele>
        <time>2020-07-08T09:53:18Z</time>
      </trkpt>
      <trkpt lat="47.81629" lon="-3.52635">
        <ele>42.89</ele>
        <time>2020-07-08T09:53:19Z</time>
      </trkpt>
      <trkpt lat="47.81628" lon="-3.5264">
        <ele>43.1</ele>
        <time>2020-07-08T09:53:20Z</time>
      </trkpt>
      <trkpt lat="47.81627" lon="-3.52646">
        <ele>43.13</ele>
        <time>2020-07-08T09:53:21Z</time>
      </trkpt>
      <trkpt lat="47.81626" lon="-3.52652">
        <ele>43.11</ele>
        <time>2020-07-08T09:53:22Z</time>
      </trkpt>
      <trkpt lat="47.81626" lon="-3.52658">
        <ele>43.09</ele>
        <time>2020-07-08T09:53:23Z</time>
      </trkpt>
      <trkpt lat="47.81626" lon="-3.52664">
        <ele>43.06</ele>
        <time>2020-07-08T09:53:24Z</time>
      </trkpt>
      <trkpt lat="47.81625" lon="-3.52669">
        <ele>43.05</ele>
        <time>2020-07-08T09:53:25Z</time>
      </trkpt>
      <trkpt lat="47.81624" lon="-3.52675">
        <ele>43.09</ele>
        <time>2020-07-08T09:53:26Z</time>
      </trkpt>
      <trkpt lat="47.81624" lon="-3.52681">
        <ele>43.15</ele>
        <time>2020-07-08T09:53:27Z</time>
      </trkpt>
      <trkpt lat="47.81623" lon="-3.52687">
        <ele>43.18</ele>
        <time>2020-07-08T09:53:28Z</time>
      </trkpt>
      <trkpt lat="47.81623" lon="-3.52693">
        <ele>43.24</ele>
        <time>2020-07-08T09:53:29Z</time>
      </trkpt>
      <trkpt lat="47.81623" lon="-3.52699">
        <ele>43.23</ele>
        <time>2020-07-08T09:53:30Z</time>
      </trkpt>
      <trkpt lat="47.81623" lon="-3.52706">
        <ele>43.16</ele>
        <time>2020-07-08T09:53:31Z</time>
      </trkpt>
      <trkpt lat="47.81623" lon="-3.52713">
        <ele>43.06</ele>
        <time>2020-07-08T09:53:32Z</time>
      </trkpt>
      <trkpt lat="47.81623" lon="-3.5272">
        <ele>42.93</ele>
        <time>2020-07-08T09:53:33Z</time>
      </trkpt>
      <trkpt lat="47.81623" lon="-3.52728">
        <ele>42.87</ele>
        <time>2020-07-08T09:53:34Z</time>
      </trkpt>
      <trkpt lat="47.81623" lon="-3.52735">
        <ele>42.85</ele>
        <time>2020-07-08T09:53:35Z</time>
      </trkpt>
      <trkpt lat="47.81623" lon="-3.52743">
        <ele>42.85</ele>
        <time>2020-07-08T09:53:36Z</time>
      </trkpt>
      <trkpt lat="47.81623" lon="-3.52751">
        <ele>42.86</ele>
        <time>2020-07-08T09:53:37Z</time>
      </trkpt>
      <trkpt lat="47.81623" lon="-3.52759">
        <ele>42.83</ele>
        <time>2020-07-08T09:53:38Z</time>
      </trkpt>
      <trkpt lat="47.81623" lon="-3.52766">
        <ele>42.83</ele>
        <time>2020-07-08T09:53:39Z</time>
      </trkpt>
      <trkpt lat="47.81623" lon="-3.52774">
        <ele>42.85</ele>
        <time>2020-07-08T09:53:40Z</time>
      </trkpt>
      <trkpt lat="47.81623" lon="-3.52781">
        <ele>42.84</ele>
        <time>2020-07-08T09:53:41Z</time>
      </trkpt>
      <trkpt lat="47.81623" lon="-3.52788">
        <ele>42.85</ele>
        <time>2020-07-08T09:53:42Z</time>
      </trkpt>
      <trkpt lat="47.81623" lon="-3.52795">
        <ele>42.87</ele>
        <time>2020-07-08T09:53:43Z</time>
      </trkpt>
      <trkpt lat="47.81624" lon="-3.52802">
        <ele>42.9</ele>
        <time>2020-07-08T09:53:44Z</time>
      </trkpt>
      <trkpt lat="47.81624" lon="-3.52808">
        <ele>42.91</ele>
        <time>2020-07-08T09:53:45Z</time>
      </trkpt>
      <trkpt lat="47.81624" lon="-3.52814">
        <ele>42.92</ele>
        <time>2020-07-08T09:53:46Z</time>
      </trkpt>
      <trkpt lat="47.81624" lon="-3.5282">
        <ele>42.93</ele>
        <time>2020-07-08T09:53:47Z</time>
      </trkpt>
      <trkpt lat="47.81624" lon="-3.52827">
        <ele>42.95</ele>
        <time>2020-07-08T09:53:48Z</time>
      </trkpt>
      <trkpt lat="47.81625" lon="-3.52834">
        <ele>42.96</ele>
        <time>2020-07-08T09:53:49Z</time>
      </trkpt>
      <trkpt lat="47.81625" lon="-3.52841">
        <ele>42.87</ele>
        <time>2020-07-08T09:53:50Z</time>
      </trkpt>
      <trkpt lat="47.81625" lon="-3.52849">
        <ele>42.77</ele>
        <time>2020-07-08T09:53:51Z</time>
      </trkpt>
      <trkpt lat="47.81626" lon="-3.52856">
        <ele>42.68</ele>
        <time>2020-07-08T09:53:52Z</time>
      </trkpt>
      <trkpt lat="47.81626" lon="-3.52863">
        <ele>42.58</ele>
        <time>2020-07-08T09:53:53Z</time>
      </trkpt>
      <trkpt lat="47.81626" lon="-3.52871">
        <ele>42.55</ele>
        <time>2020-07-08T09:53:54Z</time>
      </trkpt>
      <trkpt lat="47.81627" lon="-3.52878">
        <ele>42.56</ele>
        <time>2020-07-08T09:53:55Z</time>
      </trkpt>
      <trkpt lat="47.81627" lon="-3.52886">
        <ele>42.57</ele>
        <time>2020-07-08T09:53:56Z</time>
      </trkpt>
      <trkpt lat="47.81628" lon="-3.52893">
        <ele>42.59</ele>
        <time>2020-07-08T09:53:57Z</time>
      </trkpt>
      <trkpt lat="47.81628" lon="-3.52901">
        <ele>42.6</ele>
        <time>2020-07-08T09:53:58Z</time>
      </trkpt>
      <trkpt lat="47.81628" lon="-3.52909">
        <ele>42.6</ele>
        <time>2020-07-08T09:53:59Z</time>
      </trkpt>
      <trkpt lat="47.81627" lon="-3.52917">
        <ele>42.58</ele>
        <time>2020-07-08T09:54:00Z</time>
      </trkpt>
      <trkpt lat="47.81627" lon="-3.52925">
        <ele>42.38</ele>
        <time>2020-07-08T09:54:01Z</time>
      </trkpt>
      <trkpt lat="47.81627" lon="-3.52932">
        <ele>42.11</ele>
        <time>2020-07-08T09:54:02Z</time>
      </trkpt>
      <trkpt lat="47.81627" lon="-3.52941">
        <ele>41.83</ele>
        <time>2020-07-08T09:54:03Z</time>
      </trkpt>
      <trkpt lat="47.81627" lon="-3.52948">
        <ele>41.65</ele>
        <time>2020-07-08T09:54:04Z</time>
      </trkpt>
      <trkpt lat="47.81627" lon="-3.52957">
        <ele>41.6</ele>
        <time>2020-07-08T09:54:05Z</time>
      </trkpt>
      <trkpt lat="47.81627" lon="-3.52964">
        <ele>41.58</ele>
        <time>2020-07-08T09:54:06Z</time>
      </trkpt>
      <trkpt lat="47.81627" lon="-3.52973">
        <ele>41.58</ele>
        <time>2020-07-08T09:54:07Z</time>
      </trkpt>
      <trkpt lat="47.81627" lon="-3.52981">
        <ele>41.49</ele>
        <time>2020-07-08T09:54:08Z</time>
      </trkpt>
      <trkpt lat="47.81628" lon="-3.52988">
        <ele>41.39</ele>
        <time>2020-07-08T09:54:09Z</time>
      </trkpt>
      <trkpt lat="47.81628" lon="-3.52996">
        <ele>41.31</ele>
        <time>2020-07-08T09:54:10Z</time>
      </trkpt>
      <trkpt lat="47.81629" lon="-3.53004">
        <ele>41.2</ele>
        <time>2020-07-08T09:54:11Z</time>
      </trkpt>
      <trkpt lat="47.81629" lon="-3.53013">
        <ele>41.07</ele>
        <time>2020-07-08T09:54:12Z</time>
      </trkpt>
      <trkpt lat="47.8163" lon="-3.5302">
        <ele>40.92</ele>
        <time>2020-07-08T09:54:13Z</time>
      </trkpt>
      <trkpt lat="47.8163" lon="-3.53029">
        <ele>40.75</ele>
        <time>2020-07-08T09:54:14Z</time>
      </trkpt>
      <trkpt lat="47.8163" lon="-3.53036">
        <ele>40.64</ele>
        <time>2020-07-08T09:54:15Z</time>
      </trkpt>
      <trkpt lat="47.8163" lon="-3.53044">
        <ele>40.53</ele>
        <time>2020-07-08T09:54:16Z</time>
      </trkpt>
      <trkpt lat="47.8163" lon="-3.53052">
        <ele>40.43</ele>
        <time>2020-07-08T09:54:17Z</time>
      </trkpt>
      <trkpt lat="47.81629" lon="-3.5306">
        <ele>40.25</ele>
        <time>2020-07-08T09:54:18Z</time>
      </trkpt>
      <trkpt lat="47.81627" lon="-3.53068">
        <ele>40.01</ele>
        <time>2020-07-08T09:54:19Z</time>
      </trkpt>
      <trkpt lat="47.81625" lon="-3.53075">
        <ele>39.75</ele>
        <time>2020-07-08T09:54:20Z</time>
      </trkpt>
      <trkpt lat="47.81622" lon="-3.53083">
        <ele>39.51</ele>
        <time>2020-07-08T09:54:21Z</time>
      </trkpt>
      <trkpt lat="47.81619" lon="-3.5309">
        <ele>39.35</ele>
        <time>2020-07-08T09:54:22Z</time>
      </trkpt>
      <trkpt lat="47.81616" lon="-3.53096">
        <ele>39.22</ele>
        <time>2020-07-08T09:54:23Z</time>
      </trkpt>
      <trkpt lat="47.81613" lon="-3.53101">
        <ele>39.1</ele>
        <time>2020-07-08T09:54:24Z</time>
      </trkpt>
      <trkpt lat="47.81609" lon="-3.53105">
        <ele>38.89</ele>
        <time>2020-07-08T09:54:25Z</time>
      </trkpt>
      <trkpt lat="47.81605" lon="-3.53107">
        <ele>38.55</ele>
        <time>2020-07-08T09:54:26Z</time>
      </trkpt>
      <trkpt lat="47.81601" lon="-3.53107">
        <ele>38.14</ele>
        <time>2020-07-08T09:54:27Z</time>
      </trkpt>
      <trkpt lat="47.81596" lon="-3.53104">
        <ele>37.73</ele>
        <time>2020-07-08T09:54:28Z</time>
      </trkpt>
      <trkpt lat="47.81592" lon="-3.53099">
        <ele>37.36</ele>
        <time>2020-07-08T09:54:29Z</time>
      </trkpt>
      <trkpt lat="47.81587" lon="-3.53094">
        <ele>37.05</ele>
        <time>2020-07-08T09:54:30Z</time>
      </trkpt>
      <trkpt lat="47.81582" lon="-3.5309">
        <ele>36.83</ele>
        <time>2020-07-08T09:54:31Z</time>
      </trkpt>
      <trkpt lat="47.81577" lon="-3.53086">
        <ele>36.74</ele>
        <time>2020-07-08T09:54:32Z</time>
      </trkpt>
      <trkpt lat="47.81572" lon="-3.53082">
        <ele>36.67</ele>
        <time>2020-07-08T09:54:33Z</time>
      </trkpt>
      <trkpt lat="47.81567" lon="-3.53078">
        <ele>36.63</ele>
        <time>2020-07-08T09:54:34Z</time>
      </trkpt>
      <trkpt lat="47.81561" lon="-3.53074">
        <ele>36.57</ele>
        <time>2020-07-08T09:54:35Z</time>
      </trkpt>
      <trkpt lat="47.81556" lon="-3.5307">
        <ele>36.53</ele>
        <time>2020-07-08T09:54:36Z</time>
      </trkpt>
      <trkpt lat="47.81551" lon="-3.53066">
        <ele>36.54</ele>
        <time>2020-07-08T09:54:37Z</time>
      </trkpt>
      <trkpt lat="47.81547" lon="-3.53062">
        <ele>36.53</ele>
        <time>2020-07-08T09:54:38Z</time>
      </trkpt>
      <trkpt lat="47.81542" lon="-3.53058">
        <ele>36.48</ele>
        <time>2020-07-08T09:54:39Z</time>
      </trkpt>
      <trkpt lat="47.81537" lon="-3.53054">
        <ele>36.39</ele>
        <time>2020-07-08T09:54:40Z</time>
      </trkpt>
      <trkpt lat="47.81533" lon="-3.5305">
        <ele>36.26</ele>
        <time>2020-07-08T09:54:41Z</time>
      </trkpt>
      <trkpt lat="47.81528" lon="-3.53046">
        <ele>36.08</ele>
        <time>2020-07-08T09:54:42Z</time>
      </trkpt>
      <trkpt lat="47.81523" lon="-3.53043">
        <ele>36.02</ele>
        <time>2020-07-08T09:54:43Z</time>
      </trkpt>
      <trkpt lat="47.81519" lon="-3.53039">
        <ele>36.01</ele>
        <time>2020-07-08T09:54:44Z</time>
      </trkpt>
      <trkpt lat="47.81514" lon="-3.53036">
        <ele>36</ele>
        <time>2020-07-08T09:54:45Z</time>
      </trkpt>
      <trkpt lat="47.8151" lon="-3.53033">
        <ele>36</ele>
        <time>2020-07-08T09:54:46Z</time>
      </trkpt>
      <trkpt lat="47.81505" lon="-3.5303">
        <ele>36</ele>
        <time>2020-07-08T09:54:47Z</time>
      </trkpt>
      <trkpt lat="47.81502" lon="-3.53027">
        <ele>36</ele>
        <time>2020-07-08T09:54:48Z</time>
      </trkpt>
      <trkpt lat="47.81499" lon="-3.53026">
        <ele>36</ele>
        <time>2020-07-08T09:54:49Z</time>
      </trkpt>
      <trkpt lat="47.81496" lon="-3.53024">
        <ele>36</ele>
        <time>2020-07-08T09:54:50Z</time>
      </trkpt>
      <trkpt lat="47.81494" lon="-3.53023">
        <ele>36</ele>
        <time>2020-07-08T09:54:51Z</time>
      </trkpt>
      <trkpt lat="47.81492" lon="-3.53019">
        <ele>36</ele>
        <time>2020-07-08T09:54:52Z</time>
      </trkpt>
      <trkpt lat="47.81489" lon="-3.53014">
        <ele>36</ele>
        <time>2020-07-08T09:54:53Z</time>
      </trkpt>
      <trkpt lat="47.81488" lon="-3.53011">
        <ele>36</ele>
        <time>2020-07-08T09:54:54Z</time>
      </trkpt>
      <trkpt lat="47.81486" lon="-3.53006">
        <ele>36</ele>
        <time>2020-07-08T09:54:55Z</time>
      </trkpt>
      <trkpt lat="47.81484" lon="-3.53">
        <ele>36</ele>
        <time>2020-07-08T09:54:56Z</time>
      </trkpt>
      <trkpt lat="47.81483" lon="-3.52994">
        <ele>36</ele>
        <time>2020-07-08T09:54:57Z</time>
      </trkpt>
      <trkpt lat="47.81481" lon="-3.52988">
        <ele>36</ele>
        <time>2020-07-08T09:54:58Z</time>
      </trkpt>
      <trkpt lat="47.81479" lon="-3.52981">
        <ele>36</ele>
        <time>2020-07-08T09:54:59Z</time>
      </trkpt>
      <trkpt lat="47.81477" lon="-3.52977">
        <ele>36</ele>
        <time>2020-07-08T09:55:00Z</time>
      </trkpt>
      <trkpt lat="47.81475" lon="-3.52976">
        <ele>36</ele>
        <time>2020-07-08T09:55:01Z</time>
      </trkpt>
      <trkpt lat="47.81471" lon="-3.52975">
        <ele>35.95</ele>
        <time>2020-07-08T09:55:02Z</time>
      </trkpt>
      <trkpt lat="47.81468" lon="-3.52974">
        <ele>35.76</ele>
        <time>2020-07-08T09:55:03Z</time>
      </trkpt>
      <trkpt lat="47.81464" lon="-3.52974">
        <ele>35.52</ele>
        <time>2020-07-08T09:55:04Z</time>
      </trkpt>
      <trkpt lat="47.81461" lon="-3.52974">
        <ele>35.25</ele>
        <time>2020-07-08T09:55:05Z</time>
      </trkpt>
      <trkpt lat="47.81457" lon="-3.52975">
        <ele>34.97</ele>
        <time>2020-07-08T09:55:06Z</time>
      </trkpt>
      <trkpt lat="47.81453" lon="-3.52976">
        <ele>34.68</ele>
        <time>2020-07-08T09:55:07Z</time>
      </trkpt>
      <trkpt lat="47.8145" lon="-3.52977">
        <ele>34.39</ele>
        <time>2020-07-08T09:55:08Z</time>
      </trkpt>
      <trkpt lat="47.81446" lon="-3.52979">
        <ele>34.06</ele>
        <time>2020-07-08T09:55:09Z</time>
      </trkpt>
      <trkpt lat="47.81443" lon="-3.52981">
        <ele>33.56</ele>
        <time>2020-07-08T09:55:10Z</time>
      </trkpt>
      <trkpt lat="47.8144" lon="-3.52983">
        <ele>32.78</ele>
        <time>2020-07-08T09:55:11Z</time>
      </trkpt>
      <trkpt lat="47.81436" lon="-3.52985">
        <ele>31.78</ele>
        <time>2020-07-08T09:55:12Z</time>
      </trkpt>
      <trkpt lat="47.81432" lon="-3.52986">
        <ele>30.76</ele>
        <time>2020-07-08T09:55:13Z</time>
      </trkpt>
      <trkpt lat="47.81428" lon="-3.52987">
        <ele>29.73</ele>
        <time>2020-07-08T09:55:14Z</time>
      </trkpt>
      <trkpt lat="47.81424" lon="-3.52988">
        <ele>28.67</ele>
        <time>2020-07-08T09:55:15Z</time>
      </trkpt>
      <trkpt lat="47.8142" lon="-3.5299">
        <ele>27.45</ele>
        <time>2020-07-08T09:55:16Z</time>
      </trkpt>
      <trkpt lat="47.81415" lon="-3.52992">
        <ele>26.21</ele>
        <time>2020-07-08T09:55:17Z</time>
      </trkpt>
      <trkpt lat="47.8141" lon="-3.52994">
        <ele>25.39</ele>
        <time>2020-07-08T09:55:18Z</time>
      </trkpt>
      <trkpt lat="47.81406" lon="-3.52997">
        <ele>24.75</ele>
        <time>2020-07-08T09:55:19Z</time>
      </trkpt>
      <trkpt lat="47.81402" lon="-3.52998">
        <ele>24.27</ele>
        <time>2020-07-08T09:55:20Z</time>
      </trkpt>
      <trkpt lat="47.81398" lon="-3.53">
        <ele>23.78</ele>
        <time>2020-07-08T09:55:21Z</time>
      </trkpt>
      <trkpt lat="47.81393" lon="-3.53002">
        <ele>23.27</ele>
        <time>2020-07-08T09:55:22Z</time>
      </trkpt>
      <trkpt lat="47.81388" lon="-3.53004">
        <ele>22.51</ele>
        <time>2020-07-08T09:55:23Z</time>
      </trkpt>
      <trkpt lat="47.81384" lon="-3.53007">
        <ele>21.52</ele>
        <time>2020-07-08T09:55:24Z</time>
      </trkpt>
      <trkpt lat="47.81382" lon="-3.53012">
        <ele>20.5</ele>
        <time>2020-07-08T09:55:25Z</time>
      </trkpt>
      <trkpt lat="47.8138" lon="-3.53016">
        <ele>19.55</ele>
        <time>2020-07-08T09:55:26Z</time>
      </trkpt>
      <trkpt lat="47.8138" lon="-3.5302">
        <ele>18.77</ele>
        <time>2020-07-08T09:55:27Z</time>
      </trkpt>
      <trkpt lat="47.81378" lon="-3.53024">
        <ele>17.9</ele>
        <time>2020-07-08T09:55:28Z</time>
      </trkpt>
      <trkpt lat="47.81375" lon="-3.53028">
        <ele>16.95</ele>
        <time>2020-07-08T09:55:29Z</time>
      </trkpt>
      <trkpt lat="47.81373" lon="-3.53031">
        <ele>16.11</ele>
        <time>2020-07-08T09:55:30Z</time>
      </trkpt>
      <trkpt lat="47.81372" lon="-3.53034">
        <ele>15.38</ele>
        <time>2020-07-08T09:55:31Z</time>
      </trkpt>
      <trkpt lat="47.81372" lon="-3.53038">
        <ele>14.78</ele>
        <time>2020-07-08T09:55:32Z</time>
      </trkpt>
      <trkpt lat="47.81373" lon="-3.53043">
        <ele>14.18</ele>
        <time>2020-07-08T09:55:33Z</time>
      </trkpt>
      <trkpt lat="47.81375" lon="-3.5305">
        <ele>13.52</ele>
        <time>2020-07-08T09:55:34Z</time>
      </trkpt>
      <trkpt lat="47.81375" lon="-3.53055">
        <ele>12.9</ele>
        <time>2020-07-08T09:55:35Z</time>
      </trkpt>
      <trkpt lat="47.81375" lon="-3.53057">
        <ele>12.45</ele>
        <time>2020-07-08T09:55:36Z</time>
      </trkpt>
      <trkpt lat="47.81374" lon="-3.53059">
        <ele>12.06</ele>
        <time>2020-07-08T09:55:37Z</time>
      </trkpt>
      <trkpt lat="47.81372" lon="-3.53059">
        <ele>11.72</ele>
        <time>2020-07-08T09:55:38Z</time>
      </trkpt>
      <trkpt lat="47.8137" lon="-3.53058">
        <ele>11.4</ele>
        <time>2020-07-08T09:55:39Z</time>
      </trkpt>
      <trkpt lat="47.81367" lon="-3.53057">
        <ele>11.04</ele>
        <time>2020-07-08T09:55:40Z</time>
      </trkpt>
      <trkpt lat="47.81365" lon="-3.53056">
        <ele>10.79</ele>
        <time>2020-07-08T09:55:41Z</time>
      </trkpt>
      <trkpt lat="47.8136" lon="-3.53054">
        <ele>10.28</ele>
        <time>2020-07-08T09:55:42Z</time>
      </trkpt>
      <trkpt lat="47.81357" lon="-3.53053">
        <ele>9.74</ele>
        <time>2020-07-08T09:55:43Z</time>
      </trkpt>
      <trkpt lat="47.81354" lon="-3.53051">
        <ele>9.33</ele>
        <time>2020-07-08T09:55:44Z</time>
      </trkpt>
      <trkpt lat="47.81352" lon="-3.53049">
        <ele>9.07</ele>
        <time>2020-07-08T09:55:45Z</time>
      </trkpt>
      <trkpt lat="47.8135" lon="-3.53048">
        <ele>8.73</ele>
        <time>2020-07-08T09:55:46Z</time>
      </trkpt>
      <trkpt lat="47.81347" lon="-3.53049">
        <ele>8.11</ele>
        <time>2020-07-08T09:55:47Z</time>
      </trkpt>
      <trkpt lat="47.81344" lon="-3.53048">
        <ele>7.61</ele>
        <time>2020-07-08T09:55:48Z</time>
      </trkpt>
      <trkpt lat="47.81341" lon="-3.53048">
        <ele>7.11</ele>
        <time>2020-07-08T09:55:49Z</time>
      </trkpt>
      <trkpt lat="47.81339" lon="-3.53047">
        <ele>6.59</ele>
        <time>2020-07-08T09:55:50Z</time>
      </trkpt>
      <trkpt lat="47.81336" lon="-3.53048">
        <ele>5.97</ele>
        <time>2020-07-08T09:55:51Z</time>
      </trkpt>
      <trkpt lat="47.81335" lon="-3.5305">
        <ele>5.33</ele>
        <time>2020-07-08T09:55:52Z</time>
      </trkpt>
      <trkpt lat="47.81334" lon="-3.53054">
        <ele>4.62</ele>
        <time>2020-07-08T09:55:53Z</time>
      </trkpt>
      <trkpt lat="47.81333" lon="-3.53058">
        <ele>4.05</ele>
        <time>2020-07-08T09:55:54Z</time>
      </trkpt>
      <trkpt lat="47.81333" lon="-3.53062">
        <ele>3.66</ele>
        <time>2020-07-08T09:55:55Z</time>
      </trkpt>
      <trkpt lat="47.81334" lon="-3.53066">
        <ele>3.47</ele>
        <time>2020-07-08T09:55:56Z</time>
      </trkpt>
      <trkpt lat="47.81335" lon="-3.5307">
        <ele>3.3</ele>
        <time>2020-07-08T09:55:57Z</time>
      </trkpt>
      <trkpt lat="47.81335" lon="-3.53075">
        <ele>3.06</ele>
        <time>2020-07-08T09:55:58Z</time>
      </trkpt>
      <trkpt lat="47.81336" lon="-3.53078">
        <ele>2.9</ele>
        <time>2020-07-08T09:55:59Z</time>
      </trkpt>
      <trkpt lat="47.81336" lon="-3.5308">
        <ele>2.75</ele>
        <time>2020-07-08T09:56:00Z</time>
      </trkpt>
      <trkpt lat="47.81335" lon="-3.5308">
        <ele>2.62</ele>
        <time>2020-07-08T09:56:01Z</time>
      </trkpt>
      <trkpt lat="47.81335" lon="-3.5308">
        <ele>2.56</ele>
        <time>2020-07-08T09:56:02Z</time>
      </trkpt>
      <trkpt lat="47.81335" lon="-3.5308">
        <ele>2.55</ele>
        <time>2020-07-08T09:56:03Z</time>
      </trkpt>
      <trkpt lat="47.81335" lon="-3.5308">
        <ele>2.55</ele>
        <time>2020-07-08T09:56:04Z</time>
      </trkpt>
      <trkpt lat="47.81335" lon="-3.5308">
        <ele>2.55</ele>
        <time>2020-07-08T09:56:05Z</time>
      </trkpt>
      <trkpt lat="47.81335" lon="-3.5308">
        <ele>2.55</ele>
        <time>2020-07-08T09:56:06Z</time>
      </trkpt>
      <trkpt lat="47.81335" lon="-3.5308">
        <ele>2.55</ele>
        <time>2020-07-08T09:56:07Z</time>
      </trkpt>
      <trkpt lat="47.81335" lon="-3.5308">
        <ele>2.55</ele>
        <time>2020-07-08T09:56:08Z</time>
      </trkpt>
      <trkpt lat="47.81335" lon="-3.5308">
        <ele>2.55</ele>
        <time>2020-07-08T09:56:09Z</time>
      </trkpt>
      <trkpt lat="47.81335" lon="-3.5308">
        <ele>2.55</ele>
        <time>2020-07-08T09:56:10Z</time>
      </trkpt>
      <trkpt lat="47.81335" lon="-3.5308">
        <ele>2.55</ele>
        <time>2020-07-08T09:56:11Z</time>
      </trkpt>
      <trkpt lat="47.81335" lon="-3.5308">
        <ele>2.55</ele>
        <time>2020-07-08T09:56:12Z</time>
      </trkpt>
      <trkpt lat="47.81335" lon="-3.5308">
        <ele>2.55</ele>
        <time>2020-07-08T09:56:13Z</time>
      </trkpt>
      <trkpt lat="47.81335" lon="-3.5308">
        <ele>2.55</ele>
        <time>2020-07-08T09:56:14Z</time>
      </trkpt>
      <trkpt lat="47.81335" lon="-3.5308">
        <ele>2.55</ele>
        <time>2020-07-08T09:56:15Z</time>
      </trkpt>
      <trkpt lat="47.81336" lon="-3.5308">
        <ele>2.65</ele>
        <time>2020-07-08T09:56:16Z</time>
      </trkpt>
      <trkpt lat="47.81336" lon="-3.53082">
        <ele>2.61</ele>
        <time>2020-07-08T09:56:17Z</time>
      </trkpt>
      <trkpt lat="47.81337" lon="-3.53085">
        <ele>2.54</ele>
        <time>2020-07-08T09:56:18Z</time>
      </trkpt>
      <trkpt lat="47.81336" lon="-3.53089">
        <ele>2.39</ele>
        <time>2020-07-08T09:56:19Z</time>
      </trkpt>
      <trkpt lat="47.81337" lon="-3.53092">
        <ele>2.26</ele>
        <time>2020-07-08T09:56:20Z</time>
      </trkpt>
      <trkpt lat="47.81337" lon="-3.53096">
        <ele>2.15</ele>
        <time>2020-07-08T09:56:21Z</time>
      </trkpt>
      <trkpt lat="47.81337" lon="-3.53099">
        <ele>2.08</ele>
        <time>2020-07-08T09:56:22Z</time>
      </trkpt>
      <trkpt lat="47.81338" lon="-3.53102">
        <ele>2.03</ele>
        <time>2020-07-08T09:56:23Z</time>
      </trkpt>
      <trkpt lat="47.81338" lon="-3.53103">
        <ele>1.99</ele>
        <time>2020-07-08T09:56:24Z</time>
      </trkpt>
      <trkpt lat="47.81338" lon="-3.53105">
        <ele>1.99</ele>
        <time>2020-07-08T09:56:25Z</time>
      </trkpt>
      <trkpt lat="47.81339" lon="-3.53106">
        <ele>2.04</ele>
        <time>2020-07-08T09:56:26Z</time>
      </trkpt>
      <trkpt lat="47.81339" lon="-3.53108">
        <ele>1.97</ele>
        <time>2020-07-08T09:56:27Z</time>
      </trkpt>
      <trkpt lat="47.81339" lon="-3.53111">
        <ele>1.84</ele>
        <time>2020-07-08T09:56:28Z</time>
      </trkpt>
      <trkpt lat="47.81339" lon="-3.53114">
        <ele>1.81</ele>
        <time>2020-07-08T09:56:29Z</time>
      </trkpt>
      <trkpt lat="47.81339" lon="-3.53116">
        <ele>1.8</ele>
        <time>2020-07-08T09:56:30Z</time>
      </trkpt>
      <trkpt lat="47.8134" lon="-3.5312">
        <ele>1.81</ele>
        <time>2020-07-08T09:56:31Z</time>
      </trkpt>
      <trkpt lat="47.8134" lon="-3.53122">
        <ele>1.86</ele>
        <time>2020-07-08T09:56:32Z</time>
      </trkpt>
      <trkpt lat="47.81341" lon="-3.53124">
        <ele>1.95</ele>
        <time>2020-07-08T09:56:33Z</time>
      </trkpt>
      <trkpt lat="47.81343" lon="-3.53126">
        <ele>2.14</ele>
        <time>2020-07-08T09:56:34Z</time>
      </trkpt>
      <trkpt lat="47.81346" lon="-3.53128">
        <ele>2.38</ele>
        <time>2020-07-08T09:56:35Z</time>
      </trkpt>
      <trkpt lat="47.81348" lon="-3.5313">
        <ele>2.66</ele>
        <time>2020-07-08T09:56:36Z</time>
      </trkpt>
      <trkpt lat="47.81351" lon="-3.53132">
        <ele>2.94</ele>
        <time>2020-07-08T09:56:37Z</time>
      </trkpt>
      <trkpt lat="47.81354" lon="-3.53134">
        <ele>3.22</ele>
        <time>2020-07-08T09:56:38Z</time>
      </trkpt>
      <trkpt lat="47.81356" lon="-3.53135">
        <ele>3.47</ele>
        <time>2020-07-08T09:56:39Z</time>
      </trkpt>
      <trkpt lat="47.81357" lon="-3.53137">
        <ele>3.61</ele>
        <time>2020-07-08T09:56:40Z</time>
      </trkpt>
      <trkpt lat="47.81359" lon="-3.53137">
        <ele>3.75</ele>
        <time>2020-07-08T09:56:41Z</time>
      </trkpt>
      <trkpt lat="47.8136" lon="-3.53139">
        <ele>3.82</ele>
        <time>2020-07-08T09:56:42Z</time>
      </trkpt>
      <trkpt lat="47.81361" lon="-3.53141">
        <ele>3.86</ele>
        <time>2020-07-08T09:56:43Z</time>
      </trkpt>
      <trkpt lat="47.81362" lon="-3.53141">
        <ele>3.94</ele>
        <time>2020-07-08T09:56:44Z</time>
      </trkpt>
      <trkpt lat="47.81363" lon="-3.53143">
        <ele>3.96</ele>
        <time>2020-07-08T09:56:45Z</time>
      </trkpt>
      <trkpt lat="47.81363" lon="-3.53145">
        <ele>3.91</ele>
        <time>2020-07-08T09:56:46Z</time>
      </trkpt>
      <trkpt lat="47.81363" lon="-3.53148">
        <ele>3.82</ele>
        <time>2020-07-08T09:56:47Z</time>
      </trkpt>
      <trkpt lat="47.81362" lon="-3.53151">
        <ele>3.69</ele>
        <time>2020-07-08T09:56:48Z</time>
      </trkpt>
      <trkpt lat="47.8136" lon="-3.53152">
        <ele>3.51</ele>
        <time>2020-07-08T09:56:49Z</time>
      </trkpt>
      <trkpt lat="47.81359" lon="-3.53154">
        <ele>3.31</ele>
        <time>2020-07-08T09:56:50Z</time>
      </trkpt>
      <trkpt lat="47.81357" lon="-3.53156">
        <ele>3.12</ele>
        <time>2020-07-08T09:56:51Z</time>
      </trkpt>
      <trkpt lat="47.81354" lon="-3.53158">
        <ele>2.88</ele>
        <time>2020-07-08T09:56:52Z</time>
      </trkpt>
      <trkpt lat="47.81353" lon="-3.53158">
        <ele>2.67</ele>
        <time>2020-07-08T09:56:53Z</time>
      </trkpt>
      <trkpt lat="47.81351" lon="-3.53161">
        <ele>2.51</ele>
        <time>2020-07-08T09:56:54Z</time>
      </trkpt>
      <trkpt lat="47.81351" lon="-3.53166">
        <ele>2.34</ele>
        <time>2020-07-08T09:56:55Z</time>
      </trkpt>
      <trkpt lat="47.8135" lon="-3.53171">
        <ele>2.23</ele>
        <time>2020-07-08T09:56:56Z</time>
      </trkpt>
      <trkpt lat="47.81351" lon="-3.53175">
        <ele>2.16</ele>
        <time>2020-07-08T09:56:57Z</time>
      </trkpt>
      <trkpt lat="47.81352" lon="-3.53179">
        <ele>2.17</ele>
        <time>2020-07-08T09:56:58Z</time>
      </trkpt>
      <trkpt lat="47.81353" lon="-3.53184">
        <ele>2.22</ele>
        <time>2020-07-08T09:56:59Z</time>
      </trkpt>
      <trkpt lat="47.81354" lon="-3.53187">
        <ele>2.25</ele>
        <time>2020-07-08T09:57:00Z</time>
      </trkpt>
      <trkpt lat="47.81354" lon="-3.53191">
        <ele>2.27</ele>
        <time>2020-07-08T09:57:01Z</time>
      </trkpt>
      <trkpt lat="47.81355" lon="-3.53194">
        <ele>2.3</ele>
        <time>2020-07-08T09:57:02Z</time>
      </trkpt>
      <trkpt lat="47.81355" lon="-3.53197">
        <ele>2.33</ele>
        <time>2020-07-08T09:57:03Z</time>
      </trkpt>
      <trkpt lat="47.81356" lon="-3.532">
        <ele>2.4</ele>
        <time>2020-07-08T09:57:04Z</time>
      </trkpt>
      <trkpt lat="47.81357" lon="-3.53204">
        <ele>2.48</ele>
        <time>2020-07-08T09:57:05Z</time>
      </trkpt>
      <trkpt lat="47.81358" lon="-3.53209">
        <ele>2.6</ele>
        <time>2020-07-08T09:57:06Z</time>
      </trkpt>
      <trkpt lat="47.81359" lon="-3.53214">
        <ele>2.71</ele>
        <time>2020-07-08T09:57:07Z</time>
      </trkpt>
      <trkpt lat="47.8136" lon="-3.53218">
        <ele>2.82</ele>
        <time>2020-07-08T09:57:08Z</time>
      </trkpt>
      <trkpt lat="47.81361" lon="-3.53221">
        <ele>2.95</ele>
        <time>2020-07-08T09:57:09Z</time>
      </trkpt>
      <trkpt lat="47.81363" lon="-3.53224">
        <ele>3.02</ele>
        <time>2020-07-08T09:57:10Z</time>
      </trkpt>
      <trkpt lat="47.81364" lon="-3.53228">
        <ele>3.06</ele>
        <time>2020-07-08T09:57:11Z</time>
      </trkpt>
      <trkpt lat="47.81365" lon="-3.53231">
        <ele>3.09</ele>
        <time>2020-07-08T09:57:12Z</time>
      </trkpt>
      <trkpt lat="47.81367" lon="-3.53235">
        <ele>3.11</ele>
        <time>2020-07-08T09:57:13Z</time>
      </trkpt>
      <trkpt lat="47.8137" lon="-3.53239">
        <ele>3.11</ele>
        <time>2020-07-08T09:57:14Z</time>
      </trkpt>
      <trkpt lat="47.81372" lon="-3.53249">
        <ele>3.04</ele>
        <time>2020-07-08T09:57:15Z</time>
      </trkpt>
      <trkpt lat="47.81374" lon="-3.53253">
        <ele>3.01</ele>
        <time>2020-07-08T09:57:16Z</time>
      </trkpt>
      <trkpt lat="47.81376" lon="-3.53256">
        <ele>3</ele>
        <time>2020-07-08T09:57:17Z</time>
      </trkpt>
      <trkpt lat="47.81377" lon="-3.53262">
        <ele>3</ele>
        <time>2020-07-08T09:57:18Z</time>
      </trkpt>
      <trkpt lat="47.81379" lon="-3.53267">
        <ele>3</ele>
        <time>2020-07-08T09:57:19Z</time>
      </trkpt>
      <trkpt lat="47.8138" lon="-3.53272">
        <ele>3</ele>
        <time>2020-07-08T09:57:20Z</time>
      </trkpt>
      <trkpt lat="47.81381" lon="-3.53277">
        <ele>3</ele>
        <time>2020-07-08T09:57:21Z</time>
      </trkpt>
      <trkpt lat="47.81381" lon="-3.53282">
        <ele>3</ele>
        <time>2020-07-08T09:57:22Z</time>
      </trkpt>
      <trkpt lat="47.81383" lon="-3.53286">
        <ele>3</ele>
        <time>2020-07-08T09:57:23Z</time>
      </trkpt>
      <trkpt lat="47.81383" lon="-3.53291">
        <ele>3</ele>
        <time>2020-07-08T09:57:24Z</time>
      </trkpt>
      <trkpt lat="47.81384" lon="-3.53295">
        <ele>3</ele>
        <time>2020-07-08T09:57:25Z</time>
      </trkpt>
      <trkpt lat="47.81385" lon="-3.53298">
        <ele>3</ele>
        <time>2020-07-08T09:57:26Z</time>
      </trkpt>
      <trkpt lat="47.81386" lon="-3.53301">
        <ele>3</ele>
        <time>2020-07-08T09:57:27Z</time>
      </trkpt>
      <trkpt lat="47.81386" lon="-3.53304">
        <ele>3</ele>
        <time>2020-07-08T09:57:28Z</time>
      </trkpt>
      <trkpt lat="47.81387" lon="-3.53309">
        <ele>3</ele>
        <time>2020-07-08T09:57:29Z</time>
      </trkpt>
      <trkpt lat="47.81387" lon="-3.53313">
        <ele>3</ele>
        <time>2020-07-08T09:57:30Z</time>
      </trkpt>
      <trkpt lat="47.81389" lon="-3.53317">
        <ele>3</ele>
        <time>2020-07-08T09:57:31Z</time>
      </trkpt>
      <trkpt lat="47.8139" lon="-3.53321">
        <ele>3.01</ele>
        <time>2020-07-08T09:57:32Z</time>
      </trkpt>
      <trkpt lat="47.81391" lon="-3.53325">
        <ele>3.02</ele>
        <time>2020-07-08T09:57:33Z</time>
      </trkpt>
      <trkpt lat="47.81393" lon="-3.53329">
        <ele>3.02</ele>
        <time>2020-07-08T09:57:34Z</time>
      </trkpt>
      <trkpt lat="47.81394" lon="-3.53334">
        <ele>3.01</ele>
        <time>2020-07-08T09:57:35Z</time>
      </trkpt>
      <trkpt lat="47.81396" lon="-3.53338">
        <ele>3</ele>
        <time>2020-07-08T09:57:36Z</time>
      </trkpt>
      <trkpt lat="47.81397" lon="-3.53342">
        <ele>3</ele>
        <time>2020-07-08T09:57:37Z</time>
      </trkpt>
      <trkpt lat="47.81399" lon="-3.53345">
        <ele>3</ele>
        <time>2020-07-08T09:57:38Z</time>
      </trkpt>
      <trkpt lat="47.814" lon="-3.53349">
        <ele>3</ele>
        <time>2020-07-08T09:57:39Z</time>
      </trkpt>
      <trkpt lat="47.81402" lon="-3.53354">
        <ele>3</ele>
        <time>2020-07-08T09:57:40Z</time>
      </trkpt>
      <trkpt lat="47.81404" lon="-3.53358">
        <ele>3</ele>
        <time>2020-07-08T09:57:41Z</time>
      </trkpt>
      <trkpt lat="47.81405" lon="-3.53362">
        <ele>2.99</ele>
        <time>2020-07-08T09:57:42Z</time>
      </trkpt>
      <trkpt lat="47.81407" lon="-3.53367">
        <ele>2.94</ele>
        <time>2020-07-08T09:57:43Z</time>
      </trkpt>
      <trkpt lat="47.81409" lon="-3.53372">
        <ele>2.91</ele>
        <time>2020-07-08T09:57:44Z</time>
      </trkpt>
      <trkpt lat="47.81411" lon="-3.53377">
        <ele>2.9</ele>
        <time>2020-07-08T09:57:45Z</time>
      </trkpt>
      <trkpt lat="47.81413" lon="-3.53381">
        <ele>2.91</ele>
        <time>2020-07-08T09:57:46Z</time>
      </trkpt>
      <trkpt lat="47.81415" lon="-3.53385">
        <ele>2.94</ele>
        <time>2020-07-08T09:57:47Z</time>
      </trkpt>
      <trkpt lat="47.81417" lon="-3.53389">
        <ele>3.02</ele>
        <time>2020-07-08T09:57:48Z</time>
      </trkpt>
      <trkpt lat="47.81419" lon="-3.53393">
        <ele>3.26</ele>
        <time>2020-07-08T09:57:49Z</time>
      </trkpt>
      <trkpt lat="47.8142" lon="-3.53396">
        <ele>3.51</ele>
        <time>2020-07-08T09:57:50Z</time>
      </trkpt>
      <trkpt lat="47.81422" lon="-3.53399">
        <ele>3.74</ele>
        <time>2020-07-08T09:57:51Z</time>
      </trkpt>
      <trkpt lat="47.81424" lon="-3.53403">
        <ele>3.95</ele>
        <time>2020-07-08T09:57:52Z</time>
      </trkpt>
      <trkpt lat="47.81426" lon="-3.53406">
        <ele>4.16</ele>
        <time>2020-07-08T09:57:53Z</time>
      </trkpt>
      <trkpt lat="47.81428" lon="-3.5341">
        <ele>4.38</ele>
        <time>2020-07-08T09:57:54Z</time>
      </trkpt>
      <trkpt lat="47.81431" lon="-3.53414">
        <ele>4.61</ele>
        <time>2020-07-08T09:57:55Z</time>
      </trkpt>
      <trkpt lat="47.81434" lon="-3.53418">
        <ele>4.78</ele>
        <time>2020-07-08T09:57:56Z</time>
      </trkpt>
      <trkpt lat="47.81438" lon="-3.53424">
        <ele>4.86</ele>
        <time>2020-07-08T09:57:57Z</time>
      </trkpt>
      <trkpt lat="47.81442" lon="-3.5343">
        <ele>4.82</ele>
        <time>2020-07-08T09:57:58Z</time>
      </trkpt>
      <trkpt lat="47.81445" lon="-3.53437">
        <ele>4.76</ele>
        <time>2020-07-08T09:57:59Z</time>
      </trkpt>
      <trkpt lat="47.81448" lon="-3.53444">
        <ele>4.98</ele>
        <time>2020-07-08T09:58:00Z</time>
      </trkpt>
      <trkpt lat="47.81451" lon="-3.53452">
        <ele>5.25</ele>
        <time>2020-07-08T09:58:01Z</time>
      </trkpt>
      <trkpt lat="47.81453" lon="-3.5346">
        <ele>5.22</ele>
        <time>2020-07-08T09:58:02Z</time>
      </trkpt>
      <trkpt lat="47.81455" lon="-3.5347">
        <ele>4.93</ele>
        <time>2020-07-08T09:58:03Z</time>
      </trkpt>
      <trkpt lat="47.81457" lon="-3.53477">
        <ele>4.7</ele>
        <time>2020-07-08T09:58:04Z</time>
      </trkpt>
      <trkpt lat="47.81459" lon="-3.53485">
        <ele>4.53</ele>
        <time>2020-07-08T09:58:05Z</time>
      </trkpt>
      <trkpt lat="47.81463" lon="-3.53489">
        <ele>4.49</ele>
        <time>2020-07-08T09:58:06Z</time>
      </trkpt>
      <trkpt lat="47.81467" lon="-3.53491">
        <ele>4.57</ele>
        <time>2020-07-08T09:58:07Z</time>
      </trkpt>
      <trkpt lat="47.81471" lon="-3.53492">
        <ele>4.72</ele>
        <time>2020-07-08T09:58:08Z</time>
      </trkpt>
      <trkpt lat="47.81475" lon="-3.53493">
        <ele>4.9</ele>
        <time>2020-07-08T09:58:09Z</time>
      </trkpt>
      <trkpt lat="47.81479" lon="-3.53495">
        <ele>5.09</ele>
        <time>2020-07-08T09:58:10Z</time>
      </trkpt>
      <trkpt lat="47.81483" lon="-3.53497">
        <ele>5.22</ele>
        <time>2020-07-08T09:58:11Z</time>
      </trkpt>
      <trkpt lat="47.81487" lon="-3.53499">
        <ele>5.25</ele>
        <time>2020-07-08T09:58:12Z</time>
      </trkpt>
      <trkpt lat="47.81491" lon="-3.53501">
        <ele>5.27</ele>
        <time>2020-07-08T09:58:13Z</time>
      </trkpt>
      <trkpt lat="47.81495" lon="-3.53504">
        <ele>5.35</ele>
        <time>2020-07-08T09:58:14Z</time>
      </trkpt>
      <trkpt lat="47.81498" lon="-3.53506">
        <ele>5.41</ele>
        <time>2020-07-08T09:58:15Z</time>
      </trkpt>
      <trkpt lat="47.81502" lon="-3.53509">
        <ele>5.56</ele>
        <time>2020-07-08T09:58:16Z</time>
      </trkpt>
      <trkpt lat="47.81505" lon="-3.53512">
        <ele>5.79</ele>
        <time>2020-07-08T09:58:17Z</time>
      </trkpt>
      <trkpt lat="47.81509" lon="-3.53515">
        <ele>5.98</ele>
        <time>2020-07-08T09:58:18Z</time>
      </trkpt>
      <trkpt lat="47.81512" lon="-3.53517">
        <ele>6.07</ele>
        <time>2020-07-08T09:58:19Z</time>
      </trkpt>
      <trkpt lat="47.81515" lon="-3.5352">
        <ele>6.06</ele>
        <time>2020-07-08T09:58:20Z</time>
      </trkpt>
      <trkpt lat="47.81518" lon="-3.53523">
        <ele>6.02</ele>
        <time>2020-07-08T09:58:21Z</time>
      </trkpt>
      <trkpt lat="47.81521" lon="-3.53525">
        <ele>6.03</ele>
        <time>2020-07-08T09:58:22Z</time>
      </trkpt>
      <trkpt lat="47.81525" lon="-3.53527">
        <ele>5.96</ele>
        <time>2020-07-08T09:58:23Z</time>
      </trkpt>
      <trkpt lat="47.81529" lon="-3.53529">
        <ele>5.95</ele>
        <time>2020-07-08T09:58:24Z</time>
      </trkpt>
      <trkpt lat="47.81532" lon="-3.53531">
        <ele>6.04</ele>
        <time>2020-07-08T09:58:25Z</time>
      </trkpt>
      <trkpt lat="47.81535" lon="-3.53536">
        <ele>5.83</ele>
        <time>2020-07-08T09:58:26Z</time>
      </trkpt>
      <trkpt lat="47.81539" lon="-3.53539">
        <ele>5.7</ele>
        <time>2020-07-08T09:58:27Z</time>
      </trkpt>
      <trkpt lat="47.81543" lon="-3.53542">
        <ele>5.64</ele>
        <time>2020-07-08T09:58:28Z</time>
      </trkpt>
      <trkpt lat="47.81546" lon="-3.53543">
        <ele>5.59</ele>
        <time>2020-07-08T09:58:29Z</time>
      </trkpt>
      <trkpt lat="47.81552" lon="-3.53545">
        <ele>5.66</ele>
        <time>2020-07-08T09:58:30Z</time>
      </trkpt>
      <trkpt lat="47.81557" lon="-3.53547">
        <ele>5.56</ele>
        <time>2020-07-08T09:58:31Z</time>
      </trkpt>
      <trkpt lat="47.81562" lon="-3.53549">
        <ele>5.38</ele>
        <time>2020-07-08T09:58:32Z</time>
      </trkpt>
      <trkpt lat="47.81567" lon="-3.53551">
        <ele>5.24</ele>
        <time>2020-07-08T09:58:33Z</time>
      </trkpt>
      <trkpt lat="47.81571" lon="-3.53553">
        <ele>5.05</ele>
        <time>2020-07-08T09:58:34Z</time>
      </trkpt>
      <trkpt lat="47.81574" lon="-3.53556">
        <ele>4.74</ele>
        <time>2020-07-08T09:58:35Z</time>
      </trkpt>
      <trkpt lat="47.81576" lon="-3.5356">
        <ele>4.53</ele>
        <time>2020-07-08T09:58:36Z</time>
      </trkpt>
      <trkpt lat="47.81578" lon="-3.53564">
        <ele>4.34</ele>
        <time>2020-07-08T09:58:37Z</time>
      </trkpt>
      <trkpt lat="47.8158" lon="-3.53567">
        <ele>4.17</ele>
        <time>2020-07-08T09:58:38Z</time>
      </trkpt>
      <trkpt lat="47.81583" lon="-3.53571">
        <ele>3.98</ele>
        <time>2020-07-08T09:58:39Z</time>
      </trkpt>
      <trkpt lat="47.81586" lon="-3.53575">
        <ele>3.72</ele>
        <time>2020-07-08T09:58:40Z</time>
      </trkpt>
      <trkpt lat="47.81589" lon="-3.53577">
        <ele>3.52</ele>
        <time>2020-07-08T09:58:41Z</time>
      </trkpt>
      <trkpt lat="47.81593" lon="-3.53578">
        <ele>3.38</ele>
        <time>2020-07-08T09:58:42Z</time>
      </trkpt>
      <trkpt lat="47.81596" lon="-3.53579">
        <ele>3.29</ele>
        <time>2020-07-08T09:58:43Z</time>
      </trkpt>
      <trkpt lat="47.81599" lon="-3.53581">
        <ele>3.18</ele>
        <time>2020-07-08T09:58:44Z</time>
      </trkpt>
      <trkpt lat="47.81603" lon="-3.53586">
        <ele>3.03</ele>
        <time>2020-07-08T09:58:45Z</time>
      </trkpt>
      <trkpt lat="47.81607" lon="-3.53588">
        <ele>2.99</ele>
        <time>2020-07-08T09:58:46Z</time>
      </trkpt>
      <trkpt lat="47.81611" lon="-3.53588">
        <ele>3</ele>
        <time>2020-07-08T09:58:47Z</time>
      </trkpt>
      <trkpt lat="47.81615" lon="-3.53589">
        <ele>3</ele>
        <time>2020-07-08T09:58:48Z</time>
      </trkpt>
      <trkpt lat="47.81618" lon="-3.5359">
        <ele>3</ele>
        <time>2020-07-08T09:58:49Z</time>
      </trkpt>
      <trkpt lat="47.81622" lon="-3.53588">
        <ele>3</ele>
        <time>2020-07-08T09:58:50Z</time>
      </trkpt>
      <trkpt lat="47.81626" lon="-3.53586">
        <ele>3</ele>
        <time>2020-07-08T09:58:51Z</time>
      </trkpt>
      <trkpt lat="47.81628" lon="-3.53584">
        <ele>3</ele>
        <time>2020-07-08T09:58:52Z</time>
      </trkpt>
      <trkpt lat="47.81631" lon="-3.53582">
        <ele>3.04</ele>
        <time>2020-07-08T09:58:53Z</time>
      </trkpt>
      <trkpt lat="47.81634" lon="-3.53581">
        <ele>3.14</ele>
        <time>2020-07-08T09:58:54Z</time>
      </trkpt>
      <trkpt lat="47.81637" lon="-3.53579">
        <ele>3.27</ele>
        <time>2020-07-08T09:58:55Z</time>
      </trkpt>
      <trkpt lat="47.8164" lon="-3.53577">
        <ele>3.41</ele>
        <time>2020-07-08T09:58:56Z</time>
      </trkpt>
      <trkpt lat="47.81642" lon="-3.53575">
        <ele>3.58</ele>
        <time>2020-07-08T09:58:57Z</time>
      </trkpt>
      <trkpt lat="47.81646" lon="-3.53574">
        <ele>3.77</ele>
        <time>2020-07-08T09:58:58Z</time>
      </trkpt>
      <trkpt lat="47.81651" lon="-3.53574">
        <ele>3.92</ele>
        <time>2020-07-08T09:58:59Z</time>
      </trkpt>
      <trkpt lat="47.81653" lon="-3.53573">
        <ele>4.01</ele>
        <time>2020-07-08T09:59:00Z</time>
      </trkpt>
      <trkpt lat="47.81656" lon="-3.53574">
        <ele>4.07</ele>
        <time>2020-07-08T09:59:01Z</time>
      </trkpt>
      <trkpt lat="47.81659" lon="-3.53573">
        <ele>4.15</ele>
        <time>2020-07-08T09:59:02Z</time>
      </trkpt>
      <trkpt lat="47.81661" lon="-3.53572">
        <ele>4.26</ele>
        <time>2020-07-08T09:59:03Z</time>
      </trkpt>
      <trkpt lat="47.81664" lon="-3.5357">
        <ele>4.37</ele>
        <time>2020-07-08T09:59:04Z</time>
      </trkpt>
      <trkpt lat="47.81666" lon="-3.53568">
        <ele>4.48</ele>
        <time>2020-07-08T09:59:05Z</time>
      </trkpt>
      <trkpt lat="47.8167" lon="-3.53567">
        <ele>4.46</ele>
        <time>2020-07-08T09:59:06Z</time>
      </trkpt>
      <trkpt lat="47.81673" lon="-3.53567">
        <ele>4.4</ele>
        <time>2020-07-08T09:59:07Z</time>
      </trkpt>
      <trkpt lat="47.81676" lon="-3.53566">
        <ele>4.32</ele>
        <time>2020-07-08T09:59:08Z</time>
      </trkpt>
      <trkpt lat="47.81681" lon="-3.53565">
        <ele>4.2</ele>
        <time>2020-07-08T09:59:09Z</time>
      </trkpt>
      <trkpt lat="47.81685" lon="-3.53564">
        <ele>4.1</ele>
        <time>2020-07-08T09:59:10Z</time>
      </trkpt>
      <trkpt lat="47.81688" lon="-3.53563">
        <ele>4.02</ele>
        <time>2020-07-08T09:59:11Z</time>
      </trkpt>
      <trkpt lat="47.81691" lon="-3.5356">
        <ele>3.98</ele>
        <time>2020-07-08T09:59:12Z</time>
      </trkpt>
      <trkpt lat="47.81694" lon="-3.53558">
        <ele>3.96</ele>
        <time>2020-07-08T09:59:13Z</time>
      </trkpt>
      <trkpt lat="47.81696" lon="-3.53556">
        <ele>3.94</ele>
        <time>2020-07-08T09:59:14Z</time>
      </trkpt>
      <trkpt lat="47.81699" lon="-3.53552">
        <ele>3.96</ele>
        <time>2020-07-08T09:59:15Z</time>
      </trkpt>
      <trkpt lat="47.81701" lon="-3.53548">
        <ele>3.99</ele>
        <time>2020-07-08T09:59:16Z</time>
      </trkpt>
      <trkpt lat="47.81703" lon="-3.53547">
        <ele>4</ele>
        <time>2020-07-08T09:59:17Z</time>
      </trkpt>
      <trkpt lat="47.81705" lon="-3.53544">
        <ele>4.03</ele>
        <time>2020-07-08T09:59:18Z</time>
      </trkpt>
      <trkpt lat="47.81706" lon="-3.53542">
        <ele>4.04</ele>
        <time>2020-07-08T09:59:19Z</time>
      </trkpt>
      <trkpt lat="47.81708" lon="-3.53542">
        <ele>4.03</ele>
        <time>2020-07-08T09:59:20Z</time>
      </trkpt>
      <trkpt lat="47.8171" lon="-3.53541">
        <ele>3.99</ele>
        <time>2020-07-08T09:59:21Z</time>
      </trkpt>
      <trkpt lat="47.81711" lon="-3.53541">
        <ele>3.94</ele>
        <time>2020-07-08T09:59:22Z</time>
      </trkpt>
      <trkpt lat="47.81712" lon="-3.53539">
        <ele>3.94</ele>
        <time>2020-07-08T09:59:23Z</time>
      </trkpt>
      <trkpt lat="47.81714" lon="-3.53538">
        <ele>3.93</ele>
        <time>2020-07-08T09:59:24Z</time>
      </trkpt>
      <trkpt lat="47.81714" lon="-3.53538">
        <ele>3.92</ele>
        <time>2020-07-08T09:59:25Z</time>
      </trkpt>
      <trkpt lat="47.81715" lon="-3.53537">
        <ele>3.92</ele>
        <time>2020-07-08T09:59:26Z</time>
      </trkpt>
      <trkpt lat="47.81715" lon="-3.53537">
        <ele>3.92</ele>
        <time>2020-07-08T09:59:27Z</time>
      </trkpt>
      <trkpt lat="47.81715" lon="-3.53537">
        <ele>3.92</ele>
        <time>2020-07-08T09:59:28Z</time>
      </trkpt>
      <trkpt lat="47.81715" lon="-3.53537">
        <ele>3.92</ele>
        <time>2020-07-08T09:59:29Z</time>
      </trkpt>
      <trkpt lat="47.81715" lon="-3.53537">
        <ele>3.92</ele>
        <time>2020-07-08T09:59:30Z</time>
      </trkpt>
      <trkpt lat="47.81715" lon="-3.53537">
        <ele>3.92</ele>
        <time>2020-07-08T09:59:31Z</time>
      </trkpt>
      <trkpt lat="47.81715" lon="-3.53537">
        <ele>3.92</ele>
        <time>2020-07-08T09:59:32Z</time>
      </trkpt>
      <trkpt lat="47.81715" lon="-3.53537">
        <ele>3.92</ele>
        <time>2020-07-08T09:59:33Z</time>
      </trkpt>
      <trkpt lat="47.81715" lon="-3.53537">
        <ele>3.92</ele>
        <time>2020-07-08T09:59:34Z</time>
      </trkpt>
      <trkpt lat="47.81715" lon="-3.53537">
        <ele>3.92</ele>
        <time>2020-07-08T09:59:35Z</time>
      </trkpt>
      <trkpt lat="47.81715" lon="-3.53537">
        <ele>3.92</ele>
        <time>2020-07-08T09:59:36Z</time>
      </trkpt>
      <trkpt lat="47.81715" lon="-3.53537">
        <ele>3.92</ele>
        <time>2020-07-08T09:59:37Z</time>
      </trkpt>
      <trkpt lat="47.81715" lon="-3.53537">
        <ele>3.92</ele>
        <time>2020-07-08T09:59:38Z</time>
      </trkpt>
      <trkpt lat="47.81715" lon="-3.53537">
        <ele>3.92</ele>
        <time>2020-07-08T09:59:39Z</time>
      </trkpt>
      <trkpt lat="47.81715" lon="-3.53537">
        <ele>3.92</ele>
        <time>2020-07-08T09:59:40Z</time>
      </trkpt>
      <trkpt lat="47.81715" lon="-3.53537">
        <ele>3.92</ele>
        <time>2020-07-08T09:59:41Z</time>
      </trkpt>
      <trkpt lat="47.81715" lon="-3.53537">
        <ele>3.92</ele>
        <time>2020-07-08T09:59:42Z</time>
      </trkpt>
      <trkpt lat="47.81715" lon="-3.53537">
        <ele>3.92</ele>
        <time>2020-07-08T09:59:43Z</time>
      </trkpt>
      <trkpt lat="47.81722" lon="-3.53532">
        <ele>3.88</ele>
        <time>2020-07-08T09:59:44Z</time>
      </trkpt>
      <trkpt lat="47.81724" lon="-3.5353">
        <ele>3.9</ele>
        <time>2020-07-08T09:59:45Z</time>
      </trkpt>
      <trkpt lat="47.81725" lon="-3.5353">
        <ele>3.91</ele>
        <time>2020-07-08T09:59:46Z</time>
      </trkpt>
      <trkpt lat="47.81727" lon="-3.53529">
        <ele>3.95</ele>
        <time>2020-07-08T09:59:47Z</time>
      </trkpt>
      <trkpt lat="47.81728" lon="-3.53528">
        <ele>3.98</ele>
        <time>2020-07-08T09:59:48Z</time>
      </trkpt>
      <trkpt lat="47.81729" lon="-3.53528">
        <ele>3.99</ele>
        <time>2020-07-08T09:59:49Z</time>
      </trkpt>
      <trkpt lat="47.81731" lon="-3.53527">
        <ele>4.05</ele>
        <time>2020-07-08T09:59:50Z</time>
      </trkpt>
      <trkpt lat="47.81733" lon="-3.53526">
        <ele>4.13</ele>
        <time>2020-07-08T09:59:51Z</time>
      </trkpt>
      <trkpt lat="47.81735" lon="-3.53525">
        <ele>4.21</ele>
        <time>2020-07-08T09:59:52Z</time>
      </trkpt>
      <trkpt lat="47.81737" lon="-3.53525">
        <ele>4.23</ele>
        <time>2020-07-08T09:59:53Z</time>
      </trkpt>
      <trkpt lat="47.81739" lon="-3.53524">
        <ele>4.22</ele>
        <time>2020-07-08T09:59:54Z</time>
      </trkpt>
      <trkpt lat="47.81743" lon="-3.53522">
        <ele>4.28</ele>
        <time>2020-07-08T09:59:55Z</time>
      </trkpt>
      <trkpt lat="47.81745" lon="-3.53521">
        <ele>4.32</ele>
        <time>2020-07-08T09:59:56Z</time>
      </trkpt>
      <trkpt lat="47.81747" lon="-3.53519">
        <ele>4.36</ele>
        <time>2020-07-08T09:59:57Z</time>
      </trkpt>
      <trkpt lat="47.81749" lon="-3.53518">
        <ele>4.39</ele>
        <time>2020-07-08T09:59:58Z</time>
      </trkpt>
      <trkpt lat="47.8175" lon="-3.53516">
        <ele>4.42</ele>
        <time>2020-07-08T09:59:59Z</time>
      </trkpt>
      <trkpt lat="47.81752" lon="-3.53514">
        <ele>4.45</ele>
        <time>2020-07-08T10:00:00Z</time>
      </trkpt>
      <trkpt lat="47.81753" lon="-3.53513">
        <ele>4.48</ele>
        <time>2020-07-08T10:00:01Z</time>
      </trkpt>
      <trkpt lat="47.81753" lon="-3.53511">
        <ele>4.52</ele>
        <time>2020-07-08T10:00:02Z</time>
      </trkpt>
      <trkpt lat="47.81754" lon="-3.5351">
        <ele>4.55</ele>
        <time>2020-07-08T10:00:03Z</time>
      </trkpt>
      <trkpt lat="47.81754" lon="-3.5351">
        <ele>4.55</ele>
        <time>2020-07-08T10:00:04Z</time>
      </trkpt>
      <trkpt lat="47.81754" lon="-3.5351">
        <ele>4.56</ele>
        <time>2020-07-08T10:00:05Z</time>
      </trkpt>
      <trkpt lat="47.81754" lon="-3.5351">
        <ele>4.56</ele>
        <time>2020-07-08T10:00:06Z</time>
      </trkpt>
      <trkpt lat="47.81754" lon="-3.5351">
        <ele>4.56</ele>
        <time>2020-07-08T10:00:07Z</time>
      </trkpt>
      <trkpt lat="47.81754" lon="-3.5351">
        <ele>4.56</ele>
        <time>2020-07-08T10:00:08Z</time>
      </trkpt>
      <trkpt lat="47.81754" lon="-3.5351">
        <ele>4.56</ele>
        <time>2020-07-08T10:00:09Z</time>
      </trkpt>
      <trkpt lat="47.81754" lon="-3.5351">
        <ele>4.56</ele>
        <time>2020-07-08T10:00:10Z</time>
      </trkpt>
      <trkpt lat="47.81754" lon="-3.5351">
        <ele>4.56</ele>
        <time>2020-07-08T10:00:11Z</time>
      </trkpt>
      <trkpt lat="47.81754" lon="-3.5351">
        <ele>4.56</ele>
        <time>2020-07-08T10:00:12Z</time>
      </trkpt>
      <trkpt lat="47.81754" lon="-3.5351">
        <ele>4.56</ele>
        <time>2020-07-08T10:00:13Z</time>
      </trkpt>
      <trkpt lat="47.81762" lon="-3.53502">
        <ele>4.52</ele>
        <time>2020-07-08T10:00:14Z</time>
      </trkpt>
      <trkpt lat="47.81764" lon="-3.53502">
        <ele>4.49</ele>
        <time>2020-07-08T10:00:15Z</time>
      </trkpt>
      <trkpt lat="47.81764" lon="-3.53502">
        <ele>4.45</ele>
        <time>2020-07-08T10:00:16Z</time>
      </trkpt>
      <trkpt lat="47.81766" lon="-3.53502">
        <ele>4.42</ele>
        <time>2020-07-08T10:00:17Z</time>
      </trkpt>
      <trkpt lat="47.81767" lon="-3.53502">
        <ele>4.39</ele>
        <time>2020-07-08T10:00:18Z</time>
      </trkpt>
      <trkpt lat="47.81768" lon="-3.53501">
        <ele>4.36</ele>
        <time>2020-07-08T10:00:19Z</time>
      </trkpt>
      <trkpt lat="47.81768" lon="-3.53501">
        <ele>4.35</ele>
        <time>2020-07-08T10:00:20Z</time>
      </trkpt>
      <trkpt lat="47.81768" lon="-3.53501">
        <ele>4.35</ele>
        <time>2020-07-08T10:00:21Z</time>
      </trkpt>
      <trkpt lat="47.81772" lon="-3.53499">
        <ele>4.32</ele>
        <time>2020-07-08T10:00:22Z</time>
      </trkpt>
      <trkpt lat="47.81774" lon="-3.53496">
        <ele>4.38</ele>
        <time>2020-07-08T10:00:23Z</time>
      </trkpt>
      <trkpt lat="47.81776" lon="-3.53495">
        <ele>4.46</ele>
        <time>2020-07-08T10:00:24Z</time>
      </trkpt>
      <trkpt lat="47.81777" lon="-3.53493">
        <ele>4.53</ele>
        <time>2020-07-08T10:00:25Z</time>
      </trkpt>
      <trkpt lat="47.81777" lon="-3.53492">
        <ele>4.58</ele>
        <time>2020-07-08T10:00:26Z</time>
      </trkpt>
      <trkpt lat="47.81777" lon="-3.53492">
        <ele>4.58</ele>
        <time>2020-07-08T10:00:27Z</time>
      </trkpt>
      <trkpt lat="47.81777" lon="-3.53493">
        <ele>4.58</ele>
        <time>2020-07-08T10:00:28Z</time>
      </trkpt>
      <trkpt lat="47.81777" lon="-3.53493">
        <ele>4.58</ele>
        <time>2020-07-08T10:00:29Z</time>
      </trkpt>
      <trkpt lat="47.81777" lon="-3.53493">
        <ele>4.58</ele>
        <time>2020-07-08T10:00:30Z</time>
      </trkpt>
      <trkpt lat="47.81777" lon="-3.53493">
        <ele>4.58</ele>
        <time>2020-07-08T10:00:31Z</time>
      </trkpt>
      <trkpt lat="47.81776" lon="-3.53485">
        <ele>5.07</ele>
        <time>2020-07-08T10:00:32Z</time>
      </trkpt>
      <trkpt lat="47.81776" lon="-3.53483">
        <ele>5.3</ele>
        <time>2020-07-08T10:00:33Z</time>
      </trkpt>
      <trkpt lat="47.81775" lon="-3.53482">
        <ele>5.48</ele>
        <time>2020-07-08T10:00:34Z</time>
      </trkpt>
      <trkpt lat="47.81774" lon="-3.53481">
        <ele>5.61</ele>
        <time>2020-07-08T10:00:35Z</time>
      </trkpt>
      <trkpt lat="47.81774" lon="-3.53481">
        <ele>5.65</ele>
        <time>2020-07-08T10:00:36Z</time>
      </trkpt>
      <trkpt lat="47.81774" lon="-3.53481">
        <ele>5.66</ele>
        <time>2020-07-08T10:00:37Z</time>
      </trkpt>
      <trkpt lat="47.81774" lon="-3.53481">
        <ele>5.66</ele>
        <time>2020-07-08T10:00:38Z</time>
      </trkpt>
      <trkpt lat="47.81775" lon="-3.53478">
        <ele>5.78</ele>
        <time>2020-07-08T10:00:39Z</time>
      </trkpt>
      <trkpt lat="47.81777" lon="-3.53476">
        <ele>5.83</ele>
        <time>2020-07-08T10:00:40Z</time>
      </trkpt>
      <trkpt lat="47.81778" lon="-3.53475">
        <ele>5.83</ele>
        <time>2020-07-08T10:00:41Z</time>
      </trkpt>
      <trkpt lat="47.8178" lon="-3.53476">
        <ele>5.72</ele>
        <time>2020-07-08T10:00:42Z</time>
      </trkpt>
      <trkpt lat="47.81782" lon="-3.53476">
        <ele>5.64</ele>
        <time>2020-07-08T10:00:43Z</time>
      </trkpt>
      <trkpt lat="47.81784" lon="-3.53476">
        <ele>5.59</ele>
        <time>2020-07-08T10:00:44Z</time>
      </trkpt>
      <trkpt lat="47.81786" lon="-3.53474">
        <ele>5.6</ele>
        <time>2020-07-08T10:00:45Z</time>
      </trkpt>
      <trkpt lat="47.81787" lon="-3.53473">
        <ele>5.63</ele>
        <time>2020-07-08T10:00:46Z</time>
      </trkpt>
      <trkpt lat="47.81787" lon="-3.53471">
        <ele>5.77</ele>
        <time>2020-07-08T10:00:47Z</time>
      </trkpt>
      <trkpt lat="47.81788" lon="-3.5347">
        <ele>5.98</ele>
        <time>2020-07-08T10:00:48Z</time>
      </trkpt>
      <trkpt lat="47.81789" lon="-3.53469">
        <ele>6.2</ele>
        <time>2020-07-08T10:00:49Z</time>
      </trkpt>
      <trkpt lat="47.81789" lon="-3.53468">
        <ele>6.33</ele>
        <time>2020-07-08T10:00:50Z</time>
      </trkpt>
      <trkpt lat="47.81789" lon="-3.53468">
        <ele>6.37</ele>
        <time>2020-07-08T10:00:51Z</time>
      </trkpt>
      <trkpt lat="47.81789" lon="-3.53468">
        <ele>6.38</ele>
        <time>2020-07-08T10:00:52Z</time>
      </trkpt>
      <trkpt lat="47.81789" lon="-3.53468">
        <ele>6.38</ele>
        <time>2020-07-08T10:00:53Z</time>
      </trkpt>
      <trkpt lat="47.81789" lon="-3.53468">
        <ele>6.39</ele>
        <time>2020-07-08T10:00:54Z</time>
      </trkpt>
      <trkpt lat="47.81789" lon="-3.53468">
        <ele>6.39</ele>
        <time>2020-07-08T10:00:55Z</time>
      </trkpt>
      <trkpt lat="47.81789" lon="-3.53468">
        <ele>6.39</ele>
        <time>2020-07-08T10:00:56Z</time>
      </trkpt>
      <trkpt lat="47.81789" lon="-3.53468">
        <ele>6.39</ele>
        <time>2020-07-08T10:00:57Z</time>
      </trkpt>
      <trkpt lat="47.81789" lon="-3.53468">
        <ele>6.39</ele>
        <time>2020-07-08T10:00:58Z</time>
      </trkpt>
      <trkpt lat="47.81789" lon="-3.53468">
        <ele>6.39</ele>
        <time>2020-07-08T10:00:59Z</time>
      </trkpt>
      <trkpt lat="47.81789" lon="-3.53468">
        <ele>6.39</ele>
        <time>2020-07-08T10:01:00Z</time>
      </trkpt>
      <trkpt lat="47.81789" lon="-3.53468">
        <ele>6.39</ele>
        <time>2020-07-08T10:01:01Z</time>
      </trkpt>
      <trkpt lat="47.81789" lon="-3.53468">
        <ele>6.39</ele>
        <time>2020-07-08T10:01:02Z</time>
      </trkpt>
      <trkpt lat="47.81789" lon="-3.53468">
        <ele>6.39</ele>
        <time>2020-07-08T10:01:03Z</time>
      </trkpt>
      <trkpt lat="47.81789" lon="-3.53468">
        <ele>6.39</ele>
        <time>2020-07-08T10:01:04Z</time>
      </trkpt>
      <trkpt lat="47.81789" lon="-3.53468">
        <ele>6.39</ele>
        <time>2020-07-08T10:01:05Z</time>
      </trkpt>
      <trkpt lat="47.81789" lon="-3.53468">
        <ele>6.39</ele>
        <time>2020-07-08T10:01:06Z</time>
      </trkpt>
      <trkpt lat="47.81789" lon="-3.53468">
        <ele>6.39</ele>
        <time>2020-07-08T10:01:07Z</time>
      </trkpt>
      <trkpt lat="47.81789" lon="-3.53468">
        <ele>6.39</ele>
        <time>2020-07-08T10:01:08Z</time>
      </trkpt>
      <trkpt lat="47.81789" lon="-3.53468">
        <ele>6.39</ele>
        <time>2020-07-08T10:01:09Z</time>
      </trkpt>
      <trkpt lat="47.81789" lon="-3.53468">
        <ele>6.39</ele>
        <time>2020-07-08T10:01:10Z</time>
      </trkpt>
      <trkpt lat="47.81789" lon="-3.53468">
        <ele>6.39</ele>
        <time>2020-07-08T10:01:11Z</time>
      </trkpt>
      <trkpt lat="47.81789" lon="-3.53468">
        <ele>6.39</ele>
        <time>2020-07-08T10:01:12Z</time>
      </trkpt>
      <trkpt lat="47.81789" lon="-3.53468">
        <ele>6.39</ele>
        <time>2020-07-08T10:01:13Z</time>
      </trkpt>
      <trkpt lat="47.81789" lon="-3.53468">
        <ele>6.39</ele>
        <time>2020-07-08T10:01:14Z</time>
      </trkpt>
      <trkpt lat="47.81789" lon="-3.53468">
        <ele>6.39</ele>
        <time>2020-07-08T10:01:15Z</time>
      </trkpt>
      <trkpt lat="47.81789" lon="-3.53468">
        <ele>6.39</ele>
        <time>2020-07-08T10:01:16Z</time>
      </trkpt>
      <trkpt lat="47.81789" lon="-3.53468">
        <ele>6.39</ele>
        <time>2020-07-08T10:01:17Z</time>
      </trkpt>
      <trkpt lat="47.81789" lon="-3.53468">
        <ele>6.39</ele>
        <time>2020-07-08T10:01:18Z</time>
      </trkpt>
      <trkpt lat="47.81789" lon="-3.53468">
        <ele>6.39</ele>
        <time>2020-07-08T10:01:19Z</time>
      </trkpt>
      <trkpt lat="47.81789" lon="-3.53468">
        <ele>6.39</ele>
        <time>2020-07-08T10:01:20Z</time>
      </trkpt>
      <trkpt lat="47.81789" lon="-3.53468">
        <ele>6.39</ele>
        <time>2020-07-08T10:01:21Z</time>
      </trkpt>
      <trkpt lat="47.81789" lon="-3.53468">
        <ele>6.39</ele>
        <time>2020-07-08T10:01:22Z</time>
      </trkpt>
      <trkpt lat="47.81789" lon="-3.53468">
        <ele>6.39</ele>
        <time>2020-07-08T10:01:23Z</time>
      </trkpt>
      <trkpt lat="47.81789" lon="-3.53457">
        <ele>7.95</ele>
        <time>2020-07-08T10:01:24Z</time>
      </trkpt>
      <trkpt lat="47.81788" lon="-3.53458">
        <ele>8.36</ele>
        <time>2020-07-08T10:01:25Z</time>
      </trkpt>
      <trkpt lat="47.81787" lon="-3.53458">
        <ele>8.54</ele>
        <time>2020-07-08T10:01:26Z</time>
      </trkpt>
      <trkpt lat="47.81787" lon="-3.53457">
        <ele>8.65</ele>
        <time>2020-07-08T10:01:27Z</time>
      </trkpt>
      <trkpt lat="47.81787" lon="-3.53457">
        <ele>8.69</ele>
        <time>2020-07-08T10:01:28Z</time>
      </trkpt>
      <trkpt lat="47.81787" lon="-3.53457">
        <ele>8.7</ele>
        <time>2020-07-08T10:01:29Z</time>
      </trkpt>
      <trkpt lat="47.81787" lon="-3.53457">
        <ele>8.7</ele>
        <time>2020-07-08T10:01:30Z</time>
      </trkpt>
      <trkpt lat="47.81787" lon="-3.53457">
        <ele>8.7</ele>
        <time>2020-07-08T10:01:31Z</time>
      </trkpt>
      <trkpt lat="47.81787" lon="-3.53457">
        <ele>8.7</ele>
        <time>2020-07-08T10:01:32Z</time>
      </trkpt>
      <trkpt lat="47.81787" lon="-3.53457">
        <ele>8.7</ele>
        <time>2020-07-08T10:01:33Z</time>
      </trkpt>
      <trkpt lat="47.81787" lon="-3.53457">
        <ele>8.7</ele>
        <time>2020-07-08T10:01:34Z</time>
      </trkpt>
      <trkpt lat="47.81787" lon="-3.53457">
        <ele>8.7</ele>
        <time>2020-07-08T10:01:35Z</time>
      </trkpt>
      <trkpt lat="47.81787" lon="-3.53457">
        <ele>8.7</ele>
        <time>2020-07-08T10:01:36Z</time>
      </trkpt>
      <trkpt lat="47.81787" lon="-3.53457">
        <ele>8.7</ele>
        <time>2020-07-08T10:01:37Z</time>
      </trkpt>
      <trkpt lat="47.81787" lon="-3.53457">
        <ele>8.7</ele>
        <time>2020-07-08T10:01:38Z</time>
      </trkpt>
      <trkpt lat="47.81787" lon="-3.53457">
        <ele>8.7</ele>
        <time>2020-07-08T10:01:39Z</time>
      </trkpt>
      <trkpt lat="47.81787" lon="-3.53457">
        <ele>8.7</ele>
        <time>2020-07-08T10:01:40Z</time>
      </trkpt>
      <trkpt lat="47.81787" lon="-3.53457">
        <ele>8.7</ele>
        <time>2020-07-08T10:01:41Z</time>
      </trkpt>
      <trkpt lat="47.81787" lon="-3.53457">
        <ele>8.7</ele>
        <time>2020-07-08T10:01:42Z</time>
      </trkpt>
      <trkpt lat="47.81787" lon="-3.53457">
        <ele>8.7</ele>
        <time>2020-07-08T10:01:43Z</time>
      </trkpt>
      <trkpt lat="47.81787" lon="-3.53457">
        <ele>8.7</ele>
        <time>2020-07-08T10:01:44Z</time>
      </trkpt>
      <trkpt lat="47.81787" lon="-3.53457">
        <ele>8.7</ele>
        <time>2020-07-08T10:01:45Z</time>
      </trkpt>
      <trkpt lat="47.81787" lon="-3.53457">
        <ele>8.7</ele>
        <time>2020-07-08T10:01:46Z</time>
      </trkpt>
      <trkpt lat="47.81787" lon="-3.53457">
        <ele>8.7</ele>
        <time>2020-07-08T10:01:47Z</time>
      </trkpt>
      <trkpt lat="47.81787" lon="-3.53457">
        <ele>8.7</ele>
        <time>2020-07-08T10:01:48Z</time>
      </trkpt>
      <trkpt lat="47.81787" lon="-3.53457">
        <ele>8.7</ele>
        <time>2020-07-08T10:01:49Z</time>
      </trkpt>
      <trkpt lat="47.81787" lon="-3.53457">
        <ele>8.7</ele>
        <time>2020-07-08T10:01:50Z</time>
      </trkpt>
      <trkpt lat="47.81787" lon="-3.53457">
        <ele>8.7</ele>
        <time>2020-07-08T10:01:51Z</time>
      </trkpt>
      <trkpt lat="47.81791" lon="-3.53446">
        <ele>10.08</ele>
        <time>2020-07-08T10:01:52Z</time>
      </trkpt>
      <trkpt lat="47.81791" lon="-3.53445">
        <ele>10.62</ele>
        <time>2020-07-08T10:01:53Z</time>
      </trkpt>
      <trkpt lat="47.81792" lon="-3.53445">
        <ele>10.85</ele>
        <time>2020-07-08T10:01:54Z</time>
      </trkpt>
      <trkpt lat="47.81792" lon="-3.53445">
        <ele>10.89</ele>
        <time>2020-07-08T10:01:55Z</time>
      </trkpt>
      <trkpt lat="47.81792" lon="-3.53445">
        <ele>10.9</ele>
        <time>2020-07-08T10:01:56Z</time>
      </trkpt>
      <trkpt lat="47.81792" lon="-3.53445">
        <ele>10.9</ele>
        <time>2020-07-08T10:01:57Z</time>
      </trkpt>
      <trkpt lat="47.81792" lon="-3.53445">
        <ele>10.9</ele>
        <time>2020-07-08T10:01:58Z</time>
      </trkpt>
      <trkpt lat="47.81792" lon="-3.53445">
        <ele>10.9</ele>
        <time>2020-07-08T10:01:59Z</time>
      </trkpt>
      <trkpt lat="47.81792" lon="-3.53445">
        <ele>10.9</ele>
        <time>2020-07-08T10:02:00Z</time>
      </trkpt>
      <trkpt lat="47.81792" lon="-3.53445">
        <ele>10.9</ele>
        <time>2020-07-08T10:02:01Z</time>
      </trkpt>
      <trkpt lat="47.81792" lon="-3.53445">
        <ele>10.9</ele>
        <time>2020-07-08T10:02:02Z</time>
      </trkpt>
      <trkpt lat="47.81792" lon="-3.53445">
        <ele>10.9</ele>
        <time>2020-07-08T10:02:03Z</time>
      </trkpt>
      <trkpt lat="47.81792" lon="-3.53445">
        <ele>10.9</ele>
        <time>2020-07-08T10:02:04Z</time>
      </trkpt>
      <trkpt lat="47.81792" lon="-3.53445">
        <ele>10.9</ele>
        <time>2020-07-08T10:02:05Z</time>
      </trkpt>
      <trkpt lat="47.81792" lon="-3.53445">
        <ele>10.9</ele>
        <time>2020-07-08T10:02:06Z</time>
      </trkpt>
      <trkpt lat="47.81792" lon="-3.53445">
        <ele>10.9</ele>
        <time>2020-07-08T10:02:07Z</time>
      </trkpt>
      <trkpt lat="47.81792" lon="-3.53445">
        <ele>10.9</ele>
        <time>2020-07-08T10:02:08Z</time>
      </trkpt>
      <trkpt lat="47.81792" lon="-3.53445">
        <ele>10.9</ele>
        <time>2020-07-08T10:02:09Z</time>
      </trkpt>
      <trkpt lat="47.81792" lon="-3.53445">
        <ele>10.9</ele>
        <time>2020-07-08T10:02:10Z</time>
      </trkpt>
      <trkpt lat="47.81792" lon="-3.53445">
        <ele>10.9</ele>
        <time>2020-07-08T10:02:11Z</time>
      </trkpt>
      <trkpt lat="47.81792" lon="-3.53445">
        <ele>10.9</ele>
        <time>2020-07-08T10:02:12Z</time>
      </trkpt>
      <trkpt lat="47.81792" lon="-3.53445">
        <ele>10.9</ele>
        <time>2020-07-08T10:02:13Z</time>
      </trkpt>
      <trkpt lat="47.81792" lon="-3.53445">
        <ele>10.9</ele>
        <time>2020-07-08T10:02:14Z</time>
      </trkpt>
      <trkpt lat="47.81792" lon="-3.53445">
        <ele>10.9</ele>
        <time>2020-07-08T10:02:15Z</time>
      </trkpt>
      <trkpt lat="47.81792" lon="-3.53445">
        <ele>10.9</ele>
        <time>2020-07-08T10:02:16Z</time>
      </trkpt>
      <trkpt lat="47.81792" lon="-3.53445">
        <ele>10.9</ele>
        <time>2020-07-08T10:02:17Z</time>
      </trkpt>
      <trkpt lat="47.81792" lon="-3.53445">
        <ele>10.9</ele>
        <time>2020-07-08T10:02:18Z</time>
      </trkpt>
      <trkpt lat="47.81792" lon="-3.53445">
        <ele>10.9</ele>
        <time>2020-07-08T10:02:19Z</time>
      </trkpt>
      <trkpt lat="47.81792" lon="-3.53445">
        <ele>10.9</ele>
        <time>2020-07-08T10:02:20Z</time>
      </trkpt>
      <trkpt lat="47.81792" lon="-3.53445">
        <ele>10.9</ele>
        <time>2020-07-08T10:02:21Z</time>
      </trkpt>
      <trkpt lat="47.81792" lon="-3.53445">
        <ele>10.9</ele>
        <time>2020-07-08T10:02:22Z</time>
      </trkpt>
      <trkpt lat="47.81792" lon="-3.53445">
        <ele>10.9</ele>
        <time>2020-07-08T10:02:23Z</time>
      </trkpt>
      <trkpt lat="47.81792" lon="-3.53445">
        <ele>10.9</ele>
        <time>2020-07-08T10:02:24Z</time>
      </trkpt>
      <trkpt lat="47.81792" lon="-3.53445">
        <ele>10.9</ele>
        <time>2020-07-08T10:02:25Z</time>
      </trkpt>
      <trkpt lat="47.81792" lon="-3.53445">
        <ele>10.9</ele>
        <time>2020-07-08T10:02:26Z</time>
      </trkpt>
      <trkpt lat="47.81795" lon="-3.5343">
        <ele>13.73</ele>
        <time>2020-07-08T10:02:27Z</time>
      </trkpt>
      <trkpt lat="47.81796" lon="-3.5343">
        <ele>14.67</ele>
        <time>2020-07-08T10:02:28Z</time>
      </trkpt>
      <trkpt lat="47.81796" lon="-3.53429">
        <ele>15.21</ele>
        <time>2020-07-08T10:02:29Z</time>
      </trkpt>
      <trkpt lat="47.81797" lon="-3.53427">
        <ele>15.78</ele>
        <time>2020-07-08T10:02:30Z</time>
      </trkpt>
      <trkpt lat="47.81798" lon="-3.53425">
        <ele>16.16</ele>
        <time>2020-07-08T10:02:31Z</time>
      </trkpt>
      <trkpt lat="47.81799" lon="-3.53423">
        <ele>16.65</ele>
        <time>2020-07-08T10:02:32Z</time>
      </trkpt>
      <trkpt lat="47.818" lon="-3.53422">
        <ele>16.96</ele>
        <time>2020-07-08T10:02:33Z</time>
      </trkpt>
      <trkpt lat="47.818" lon="-3.53422">
        <ele>17</ele>
        <time>2020-07-08T10:02:34Z</time>
      </trkpt>
      <trkpt lat="47.81802" lon="-3.53421">
        <ele>17.08</ele>
        <time>2020-07-08T10:02:35Z</time>
      </trkpt>
      <trkpt lat="47.81802" lon="-3.53421">
        <ele>17.12</ele>
        <time>2020-07-08T10:02:36Z</time>
      </trkpt>
      <trkpt lat="47.81802" lon="-3.53421">
        <ele>17.13</ele>
        <time>2020-07-08T10:02:37Z</time>
      </trkpt>
      <trkpt lat="47.81802" lon="-3.53421">
        <ele>17.13</ele>
        <time>2020-07-08T10:02:38Z</time>
      </trkpt>
      <trkpt lat="47.81802" lon="-3.53421">
        <ele>17.13</ele>
        <time>2020-07-08T10:02:39Z</time>
      </trkpt>
      <trkpt lat="47.81802" lon="-3.53421">
        <ele>17.13</ele>
        <time>2020-07-08T10:02:40Z</time>
      </trkpt>
      <trkpt lat="47.81802" lon="-3.53421">
        <ele>17.13</ele>
        <time>2020-07-08T10:02:41Z</time>
      </trkpt>
      <trkpt lat="47.81802" lon="-3.53421">
        <ele>17.13</ele>
        <time>2020-07-08T10:02:42Z</time>
      </trkpt>
      <trkpt lat="47.81802" lon="-3.53421">
        <ele>17.13</ele>
        <time>2020-07-08T10:02:43Z</time>
      </trkpt>
      <trkpt lat="47.81802" lon="-3.53421">
        <ele>17.13</ele>
        <time>2020-07-08T10:02:44Z</time>
      </trkpt>
      <trkpt lat="47.81802" lon="-3.53421">
        <ele>17.13</ele>
        <time>2020-07-08T10:02:45Z</time>
      </trkpt>
      <trkpt lat="47.81802" lon="-3.53421">
        <ele>17.13</ele>
        <time>2020-07-08T10:02:46Z</time>
      </trkpt>
      <trkpt lat="47.81805" lon="-3.53413">
        <ele>18.6</ele>
        <time>2020-07-08T10:02:47Z</time>
      </trkpt>
      <trkpt lat="47.81805" lon="-3.53412">
        <ele>19.33</ele>
        <time>2020-07-08T10:02:48Z</time>
      </trkpt>
      <trkpt lat="47.81806" lon="-3.53411">
        <ele>19.72</ele>
        <time>2020-07-08T10:02:49Z</time>
      </trkpt>
      <trkpt lat="47.81807" lon="-3.5341">
        <ele>19.88</ele>
        <time>2020-07-08T10:02:50Z</time>
      </trkpt>
      <trkpt lat="47.81808" lon="-3.53408">
        <ele>20.06</ele>
        <time>2020-07-08T10:02:51Z</time>
      </trkpt>
      <trkpt lat="47.8181" lon="-3.53407">
        <ele>20.21</ele>
        <time>2020-07-08T10:02:52Z</time>
      </trkpt>
      <trkpt lat="47.81811" lon="-3.53406">
        <ele>20.34</ele>
        <time>2020-07-08T10:02:53Z</time>
      </trkpt>
      <trkpt lat="47.81813" lon="-3.53405">
        <ele>20.33</ele>
        <time>2020-07-08T10:02:54Z</time>
      </trkpt>
      <trkpt lat="47.81814" lon="-3.53404">
        <ele>20.43</ele>
        <time>2020-07-08T10:02:55Z</time>
      </trkpt>
      <trkpt lat="47.81815" lon="-3.53402">
        <ele>20.64</ele>
        <time>2020-07-08T10:02:56Z</time>
      </trkpt>
      <trkpt lat="47.81817" lon="-3.53401">
        <ele>20.7</ele>
        <time>2020-07-08T10:02:57Z</time>
      </trkpt>
      <trkpt lat="47.81818" lon="-3.53401">
        <ele>20.61</ele>
        <time>2020-07-08T10:02:58Z</time>
      </trkpt>
      <trkpt lat="47.81819" lon="-3.534">
        <ele>20.68</ele>
        <time>2020-07-08T10:02:59Z</time>
      </trkpt>
      <trkpt lat="47.81819" lon="-3.53398">
        <ele>20.9</ele>
        <time>2020-07-08T10:03:00Z</time>
      </trkpt>
      <trkpt lat="47.81819" lon="-3.53398">
        <ele>20.97</ele>
        <time>2020-07-08T10:03:01Z</time>
      </trkpt>
      <trkpt lat="47.8182" lon="-3.53395">
        <ele>21.43</ele>
        <time>2020-07-08T10:03:02Z</time>
      </trkpt>
      <trkpt lat="47.8182" lon="-3.53394">
        <ele>21.91</ele>
        <time>2020-07-08T10:03:03Z</time>
      </trkpt>
      <trkpt lat="47.81821" lon="-3.53392">
        <ele>22.38</ele>
        <time>2020-07-08T10:03:04Z</time>
      </trkpt>
      <trkpt lat="47.81822" lon="-3.53391">
        <ele>22.81</ele>
        <time>2020-07-08T10:03:05Z</time>
      </trkpt>
      <trkpt lat="47.81823" lon="-3.53387">
        <ele>23.43</ele>
        <time>2020-07-08T10:03:06Z</time>
      </trkpt>
      <trkpt lat="47.81825" lon="-3.53386">
        <ele>23.65</ele>
        <time>2020-07-08T10:03:07Z</time>
      </trkpt>
      <trkpt lat="47.81826" lon="-3.53384">
        <ele>23.88</ele>
        <time>2020-07-08T10:03:08Z</time>
      </trkpt>
      <trkpt lat="47.81827" lon="-3.53383">
        <ele>24.03</ele>
        <time>2020-07-08T10:03:09Z</time>
      </trkpt>
      <trkpt lat="47.81829" lon="-3.53381">
        <ele>24.2</ele>
        <time>2020-07-08T10:03:10Z</time>
      </trkpt>
      <trkpt lat="47.8183" lon="-3.53381">
        <ele>24.29</ele>
        <time>2020-07-08T10:03:11Z</time>
      </trkpt>
      <trkpt lat="47.81831" lon="-3.5338">
        <ele>24.39</ele>
        <time>2020-07-08T10:03:12Z</time>
      </trkpt>
      <trkpt lat="47.81832" lon="-3.53379">
        <ele>24.52</ele>
        <time>2020-07-08T10:03:13Z</time>
      </trkpt>
      <trkpt lat="47.81832" lon="-3.53378">
        <ele>24.73</ele>
        <time>2020-07-08T10:03:14Z</time>
      </trkpt>
      <trkpt lat="47.81833" lon="-3.53377">
        <ele>25.03</ele>
        <time>2020-07-08T10:03:15Z</time>
      </trkpt>
      <trkpt lat="47.81833" lon="-3.53375">
        <ele>25.43</ele>
        <time>2020-07-08T10:03:16Z</time>
      </trkpt>
      <trkpt lat="47.81834" lon="-3.53373">
        <ele>25.75</ele>
        <time>2020-07-08T10:03:17Z</time>
      </trkpt>
      <trkpt lat="47.81834" lon="-3.53372">
        <ele>26.21</ele>
        <time>2020-07-08T10:03:18Z</time>
      </trkpt>
      <trkpt lat="47.81836" lon="-3.53368">
        <ele>26.97</ele>
        <time>2020-07-08T10:03:19Z</time>
      </trkpt>
      <trkpt lat="47.81837" lon="-3.53365">
        <ele>27.57</ele>
        <time>2020-07-08T10:03:20Z</time>
      </trkpt>
      <trkpt lat="47.81839" lon="-3.53362">
        <ele>28.26</ele>
        <time>2020-07-08T10:03:21Z</time>
      </trkpt>
      <trkpt lat="47.8184" lon="-3.53359">
        <ele>28.76</ele>
        <time>2020-07-08T10:03:22Z</time>
      </trkpt>
      <trkpt lat="47.8184" lon="-3.53357">
        <ele>29.11</ele>
        <time>2020-07-08T10:03:23Z</time>
      </trkpt>
      <trkpt lat="47.81841" lon="-3.53355">
        <ele>29.4</ele>
        <time>2020-07-08T10:03:24Z</time>
      </trkpt>
      <trkpt lat="47.81842" lon="-3.53352">
        <ele>29.67</ele>
        <time>2020-07-08T10:03:25Z</time>
      </trkpt>
      <trkpt lat="47.81842" lon="-3.53349">
        <ele>29.93</ele>
        <time>2020-07-08T10:03:26Z</time>
      </trkpt>
      <trkpt lat="47.81843" lon="-3.53347">
        <ele>30.22</ele>
        <time>2020-07-08T10:03:27Z</time>
      </trkpt>
      <trkpt lat="47.81843" lon="-3.53344">
        <ele>30.53</ele>
        <time>2020-07-08T10:03:28Z</time>
      </trkpt>
      <trkpt lat="47.81844" lon="-3.53342">
        <ele>30.77</ele>
        <time>2020-07-08T10:03:29Z</time>
      </trkpt>
      <trkpt lat="47.81844" lon="-3.5334">
        <ele>31.04</ele>
        <time>2020-07-08T10:03:30Z</time>
      </trkpt>
      <trkpt lat="47.81844" lon="-3.53338">
        <ele>31.36</ele>
        <time>2020-07-08T10:03:31Z</time>
      </trkpt>
      <trkpt lat="47.81844" lon="-3.53336">
        <ele>31.52</ele>
        <time>2020-07-08T10:03:32Z</time>
      </trkpt>
      <trkpt lat="47.81846" lon="-3.53335">
        <ele>31.52</ele>
        <time>2020-07-08T10:03:33Z</time>
      </trkpt>
      <trkpt lat="47.81847" lon="-3.53334">
        <ele>31.52</ele>
        <time>2020-07-08T10:03:34Z</time>
      </trkpt>
      <trkpt lat="47.81847" lon="-3.53332">
        <ele>31.62</ele>
        <time>2020-07-08T10:03:35Z</time>
      </trkpt>
      <trkpt lat="47.81849" lon="-3.53331">
        <ele>31.51</ele>
        <time>2020-07-08T10:03:36Z</time>
      </trkpt>
      <trkpt lat="47.81851" lon="-3.53331">
        <ele>31.26</ele>
        <time>2020-07-08T10:03:37Z</time>
      </trkpt>
      <trkpt lat="47.81852" lon="-3.5333">
        <ele>31.07</ele>
        <time>2020-07-08T10:03:38Z</time>
      </trkpt>
      <trkpt lat="47.81855" lon="-3.53328">
        <ele>30.94</ele>
        <time>2020-07-08T10:03:39Z</time>
      </trkpt>
      <trkpt lat="47.81856" lon="-3.53326">
        <ele>30.89</ele>
        <time>2020-07-08T10:03:40Z</time>
      </trkpt>
      <trkpt lat="47.81859" lon="-3.53323">
        <ele>30.86</ele>
        <time>2020-07-08T10:03:41Z</time>
      </trkpt>
      <trkpt lat="47.81862" lon="-3.53321">
        <ele>30.73</ele>
        <time>2020-07-08T10:03:42Z</time>
      </trkpt>
      <trkpt lat="47.81864" lon="-3.53318">
        <ele>30.57</ele>
        <time>2020-07-08T10:03:43Z</time>
      </trkpt>
      <trkpt lat="47.81866" lon="-3.53315">
        <ele>30.44</ele>
        <time>2020-07-08T10:03:44Z</time>
      </trkpt>
      <trkpt lat="47.81869" lon="-3.53311">
        <ele>30.36</ele>
        <time>2020-07-08T10:03:45Z</time>
      </trkpt>
      <trkpt lat="47.81872" lon="-3.53305">
        <ele>30.62</ele>
        <time>2020-07-08T10:03:46Z</time>
      </trkpt>
      <trkpt lat="47.81875" lon="-3.53298">
        <ele>30.84</ele>
        <time>2020-07-08T10:03:47Z</time>
      </trkpt>
      <trkpt lat="47.8188" lon="-3.5329">
        <ele>31.06</ele>
        <time>2020-07-08T10:03:48Z</time>
      </trkpt>
      <trkpt lat="47.81884" lon="-3.53285">
        <ele>31.11</ele>
        <time>2020-07-08T10:03:49Z</time>
      </trkpt>
      <trkpt lat="47.81888" lon="-3.53278">
        <ele>31.08</ele>
        <time>2020-07-08T10:03:50Z</time>
      </trkpt>
      <trkpt lat="47.81894" lon="-3.53273">
        <ele>30.64</ele>
        <time>2020-07-08T10:03:51Z</time>
      </trkpt>
      <trkpt lat="47.81899" lon="-3.53268">
        <ele>30.02</ele>
        <time>2020-07-08T10:03:52Z</time>
      </trkpt>
      <trkpt lat="47.81904" lon="-3.53264">
        <ele>29.44</ele>
        <time>2020-07-08T10:03:53Z</time>
      </trkpt>
      <trkpt lat="47.81908" lon="-3.53261">
        <ele>29.1</ele>
        <time>2020-07-08T10:03:54Z</time>
      </trkpt>
      <trkpt lat="47.81911" lon="-3.53258">
        <ele>28.88</ele>
        <time>2020-07-08T10:03:55Z</time>
      </trkpt>
      <trkpt lat="47.81914" lon="-3.53255">
        <ele>28.7</ele>
        <time>2020-07-08T10:03:56Z</time>
      </trkpt>
      <trkpt lat="47.81916" lon="-3.53253">
        <ele>28.62</ele>
        <time>2020-07-08T10:03:57Z</time>
      </trkpt>
      <trkpt lat="47.81918" lon="-3.53251">
        <ele>28.54</ele>
        <time>2020-07-08T10:03:58Z</time>
      </trkpt>
      <trkpt lat="47.81921" lon="-3.53249">
        <ele>28.37</ele>
        <time>2020-07-08T10:03:59Z</time>
      </trkpt>
      <trkpt lat="47.81922" lon="-3.53248">
        <ele>28.21</ele>
        <time>2020-07-08T10:04:00Z</time>
      </trkpt>
      <trkpt lat="47.81924" lon="-3.53246">
        <ele>27.95</ele>
        <time>2020-07-08T10:04:01Z</time>
      </trkpt>
      <trkpt lat="47.81928" lon="-3.53243">
        <ele>27.6</ele>
        <time>2020-07-08T10:04:02Z</time>
      </trkpt>
      <trkpt lat="47.81929" lon="-3.53241">
        <ele>27.42</ele>
        <time>2020-07-08T10:04:03Z</time>
      </trkpt>
      <trkpt lat="47.8193" lon="-3.53239">
        <ele>27.38</ele>
        <time>2020-07-08T10:04:04Z</time>
      </trkpt>
      <trkpt lat="47.81931" lon="-3.53236">
        <ele>27.37</ele>
        <time>2020-07-08T10:04:05Z</time>
      </trkpt>
      <trkpt lat="47.81932" lon="-3.53234">
        <ele>27.4</ele>
        <time>2020-07-08T10:04:06Z</time>
      </trkpt>
      <trkpt lat="47.81934" lon="-3.5323">
        <ele>27.46</ele>
        <time>2020-07-08T10:04:07Z</time>
      </trkpt>
      <trkpt lat="47.81934" lon="-3.53227">
        <ele>27.66</ele>
        <time>2020-07-08T10:04:08Z</time>
      </trkpt>
      <trkpt lat="47.81934" lon="-3.53223">
        <ele>27.92</ele>
        <time>2020-07-08T10:04:09Z</time>
      </trkpt>
      <trkpt lat="47.81935" lon="-3.5322">
        <ele>28.17</ele>
        <time>2020-07-08T10:04:10Z</time>
      </trkpt>
      <trkpt lat="47.81935" lon="-3.53216">
        <ele>28.48</ele>
        <time>2020-07-08T10:04:11Z</time>
      </trkpt>
      <trkpt lat="47.81936" lon="-3.53213">
        <ele>28.75</ele>
        <time>2020-07-08T10:04:12Z</time>
      </trkpt>
      <trkpt lat="47.81936" lon="-3.53209">
        <ele>29.02</ele>
        <time>2020-07-08T10:04:13Z</time>
      </trkpt>
      <trkpt lat="47.81937" lon="-3.53206">
        <ele>29.29</ele>
        <time>2020-07-08T10:04:14Z</time>
      </trkpt>
      <trkpt lat="47.81941" lon="-3.53199">
        <ele>29.67</ele>
        <time>2020-07-08T10:04:15Z</time>
      </trkpt>
      <trkpt lat="47.81943" lon="-3.53195">
        <ele>29.97</ele>
        <time>2020-07-08T10:04:16Z</time>
      </trkpt>
      <trkpt lat="47.81945" lon="-3.53191">
        <ele>30.01</ele>
        <time>2020-07-08T10:04:17Z</time>
      </trkpt>
      <trkpt lat="47.81948" lon="-3.53189">
        <ele>29.92</ele>
        <time>2020-07-08T10:04:18Z</time>
      </trkpt>
      <trkpt lat="47.8195" lon="-3.53187">
        <ele>29.81</ele>
        <time>2020-07-08T10:04:19Z</time>
      </trkpt>
      <trkpt lat="47.81952" lon="-3.53184">
        <ele>29.7</ele>
        <time>2020-07-08T10:04:20Z</time>
      </trkpt>
      <trkpt lat="47.81954" lon="-3.53182">
        <ele>29.61</ele>
        <time>2020-07-08T10:04:21Z</time>
      </trkpt>
      <trkpt lat="47.81957" lon="-3.5318">
        <ele>29.5</ele>
        <time>2020-07-08T10:04:22Z</time>
      </trkpt>
      <trkpt lat="47.81959" lon="-3.53178">
        <ele>29.38</ele>
        <time>2020-07-08T10:04:23Z</time>
      </trkpt>
      <trkpt lat="47.81961" lon="-3.53176">
        <ele>29.3</ele>
        <time>2020-07-08T10:04:24Z</time>
      </trkpt>
      <trkpt lat="47.81963" lon="-3.53174">
        <ele>29.23</ele>
        <time>2020-07-08T10:04:25Z</time>
      </trkpt>
      <trkpt lat="47.81966" lon="-3.53172">
        <ele>29.14</ele>
        <time>2020-07-08T10:04:26Z</time>
      </trkpt>
      <trkpt lat="47.81968" lon="-3.53174">
        <ele>28.94</ele>
        <time>2020-07-08T10:04:27Z</time>
      </trkpt>
      <trkpt lat="47.8197" lon="-3.53171">
        <ele>28.89</ele>
        <time>2020-07-08T10:04:28Z</time>
      </trkpt>
      <trkpt lat="47.81972" lon="-3.53173">
        <ele>28.66</ele>
        <time>2020-07-08T10:04:29Z</time>
      </trkpt>
      <trkpt lat="47.81975" lon="-3.53176">
        <ele>28.24</ele>
        <time>2020-07-08T10:04:30Z</time>
      </trkpt>
      <trkpt lat="47.81977" lon="-3.53179">
        <ele>27.74</ele>
        <time>2020-07-08T10:04:31Z</time>
      </trkpt>
      <trkpt lat="47.81979" lon="-3.53181">
        <ele>27.2</ele>
        <time>2020-07-08T10:04:32Z</time>
      </trkpt>
      <trkpt lat="47.81981" lon="-3.53183">
        <ele>26.68</ele>
        <time>2020-07-08T10:04:33Z</time>
      </trkpt>
      <trkpt lat="47.81982" lon="-3.53185">
        <ele>26.17</ele>
        <time>2020-07-08T10:04:34Z</time>
      </trkpt>
      <trkpt lat="47.81984" lon="-3.53187">
        <ele>25.68</ele>
        <time>2020-07-08T10:04:35Z</time>
      </trkpt>
      <trkpt lat="47.81986" lon="-3.53191">
        <ele>24.84</ele>
        <time>2020-07-08T10:04:36Z</time>
      </trkpt>
      <trkpt lat="47.81989" lon="-3.53191">
        <ele>24.21</ele>
        <time>2020-07-08T10:04:37Z</time>
      </trkpt>
      <trkpt lat="47.81991" lon="-3.53193">
        <ele>23.52</ele>
        <time>2020-07-08T10:04:38Z</time>
      </trkpt>
      <trkpt lat="47.81992" lon="-3.53194">
        <ele>22.93</ele>
        <time>2020-07-08T10:04:39Z</time>
      </trkpt>
      <trkpt lat="47.81993" lon="-3.53194">
        <ele>22.67</ele>
        <time>2020-07-08T10:04:40Z</time>
      </trkpt>
      <trkpt lat="47.81994" lon="-3.53195">
        <ele>22.41</ele>
        <time>2020-07-08T10:04:41Z</time>
      </trkpt>
      <trkpt lat="47.81993" lon="-3.53194">
        <ele>22.49</ele>
        <time>2020-07-08T10:04:42Z</time>
      </trkpt>
      <trkpt lat="47.81993" lon="-3.53194">
        <ele>22.51</ele>
        <time>2020-07-08T10:04:43Z</time>
      </trkpt>
      <trkpt lat="47.81997" lon="-3.53196">
        <ele>21.64</ele>
        <time>2020-07-08T10:04:44Z</time>
      </trkpt>
      <trkpt lat="47.82" lon="-3.53198">
        <ele>20.78</ele>
        <time>2020-07-08T10:04:45Z</time>
      </trkpt>
      <trkpt lat="47.82001" lon="-3.53201">
        <ele>20.18</ele>
        <time>2020-07-08T10:04:46Z</time>
      </trkpt>
      <trkpt lat="47.82004" lon="-3.53203">
        <ele>20.01</ele>
        <time>2020-07-08T10:04:47Z</time>
      </trkpt>
      <trkpt lat="47.82006" lon="-3.53205">
        <ele>19.79</ele>
        <time>2020-07-08T10:04:48Z</time>
      </trkpt>
      <trkpt lat="47.82008" lon="-3.53207">
        <ele>19.61</ele>
        <time>2020-07-08T10:04:49Z</time>
      </trkpt>
      <trkpt lat="47.8201" lon="-3.53209">
        <ele>19.4</ele>
        <time>2020-07-08T10:04:50Z</time>
      </trkpt>
      <trkpt lat="47.82012" lon="-3.53212">
        <ele>18.98</ele>
        <time>2020-07-08T10:04:51Z</time>
      </trkpt>
      <trkpt lat="47.82012" lon="-3.53214">
        <ele>18.49</ele>
        <time>2020-07-08T10:04:52Z</time>
      </trkpt>
      <trkpt lat="47.82014" lon="-3.53217">
        <ele>18</ele>
        <time>2020-07-08T10:04:53Z</time>
      </trkpt>
      <trkpt lat="47.82016" lon="-3.53219">
        <ele>17.56</ele>
        <time>2020-07-08T10:04:54Z</time>
      </trkpt>
      <trkpt lat="47.82017" lon="-3.5322">
        <ele>17.3</ele>
        <time>2020-07-08T10:04:55Z</time>
      </trkpt>
      <trkpt lat="47.82019" lon="-3.53223">
        <ele>16.78</ele>
        <time>2020-07-08T10:04:56Z</time>
      </trkpt>
      <trkpt lat="47.82019" lon="-3.53226">
        <ele>16.1</ele>
        <time>2020-07-08T10:04:57Z</time>
      </trkpt>
      <trkpt lat="47.82019" lon="-3.53229">
        <ele>15.29</ele>
        <time>2020-07-08T10:04:58Z</time>
      </trkpt>
      <trkpt lat="47.8202" lon="-3.53233">
        <ele>14.46</ele>
        <time>2020-07-08T10:04:59Z</time>
      </trkpt>
      <trkpt lat="47.82022" lon="-3.53237">
        <ele>13.53</ele>
        <time>2020-07-08T10:05:00Z</time>
      </trkpt>
      <trkpt lat="47.82025" lon="-3.53241">
        <ele>12.53</ele>
        <time>2020-07-08T10:05:01Z</time>
      </trkpt>
      <trkpt lat="47.8203" lon="-3.53245">
        <ele>11.79</ele>
        <time>2020-07-08T10:05:02Z</time>
      </trkpt>
      <trkpt lat="47.82034" lon="-3.53249">
        <ele>11.43</ele>
        <time>2020-07-08T10:05:03Z</time>
      </trkpt>
      <trkpt lat="47.82039" lon="-3.53252">
        <ele>11.14</ele>
        <time>2020-07-08T10:05:04Z</time>
      </trkpt>
      <trkpt lat="47.82044" lon="-3.53256">
        <ele>10.64</ele>
        <time>2020-07-08T10:05:05Z</time>
      </trkpt>
      <trkpt lat="47.82049" lon="-3.53257">
        <ele>10.53</ele>
        <time>2020-07-08T10:05:06Z</time>
      </trkpt>
      <trkpt lat="47.82053" lon="-3.53261">
        <ele>9.92</ele>
        <time>2020-07-08T10:05:07Z</time>
      </trkpt>
      <trkpt lat="47.82059" lon="-3.53266">
        <ele>9.36</ele>
        <time>2020-07-08T10:05:08Z</time>
      </trkpt>
      <trkpt lat="47.82064" lon="-3.53271">
        <ele>9.1</ele>
        <time>2020-07-08T10:05:09Z</time>
      </trkpt>
      <trkpt lat="47.82069" lon="-3.53276">
        <ele>8.81</ele>
        <time>2020-07-08T10:05:10Z</time>
      </trkpt>
      <trkpt lat="47.82075" lon="-3.53279">
        <ele>8.97</ele>
        <time>2020-07-08T10:05:11Z</time>
      </trkpt>
      <trkpt lat="47.8208" lon="-3.53285">
        <ele>8.98</ele>
        <time>2020-07-08T10:05:12Z</time>
      </trkpt>
      <trkpt lat="47.82086" lon="-3.53291">
        <ele>8.74</ele>
        <time>2020-07-08T10:05:13Z</time>
      </trkpt>
      <trkpt lat="47.82092" lon="-3.53297">
        <ele>8.54</ele>
        <time>2020-07-08T10:05:14Z</time>
      </trkpt>
      <trkpt lat="47.82099" lon="-3.53304">
        <ele>8.03</ele>
        <time>2020-07-08T10:05:15Z</time>
      </trkpt>
      <trkpt lat="47.82104" lon="-3.53311">
        <ele>7.99</ele>
        <time>2020-07-08T10:05:16Z</time>
      </trkpt>
      <trkpt lat="47.82109" lon="-3.53316">
        <ele>7.94</ele>
        <time>2020-07-08T10:05:17Z</time>
      </trkpt>
      <trkpt lat="47.82114" lon="-3.53322">
        <ele>7.87</ele>
        <time>2020-07-08T10:05:18Z</time>
      </trkpt>
      <trkpt lat="47.82119" lon="-3.53325">
        <ele>8.2</ele>
        <time>2020-07-08T10:05:19Z</time>
      </trkpt>
      <trkpt lat="47.82123" lon="-3.53328">
        <ele>8.44</ele>
        <time>2020-07-08T10:05:20Z</time>
      </trkpt>
      <trkpt lat="47.82127" lon="-3.53331">
        <ele>8.58</ele>
        <time>2020-07-08T10:05:21Z</time>
      </trkpt>
      <trkpt lat="47.8213" lon="-3.53334">
        <ele>8.66</ele>
        <time>2020-07-08T10:05:22Z</time>
      </trkpt>
      <trkpt lat="47.82133" lon="-3.53337">
        <ele>8.69</ele>
        <time>2020-07-08T10:05:23Z</time>
      </trkpt>
      <trkpt lat="47.82136" lon="-3.53342">
        <ele>8.47</ele>
        <time>2020-07-08T10:05:24Z</time>
      </trkpt>
      <trkpt lat="47.82139" lon="-3.53346">
        <ele>8.09</ele>
        <time>2020-07-08T10:05:25Z</time>
      </trkpt>
      <trkpt lat="47.82142" lon="-3.53351">
        <ele>7.82</ele>
        <time>2020-07-08T10:05:26Z</time>
      </trkpt>
      <trkpt lat="47.82145" lon="-3.53357">
        <ele>7.48</ele>
        <time>2020-07-08T10:05:27Z</time>
      </trkpt>
      <trkpt lat="47.82148" lon="-3.53364">
        <ele>7.2</ele>
        <time>2020-07-08T10:05:28Z</time>
      </trkpt>
      <trkpt lat="47.82151" lon="-3.53368">
        <ele>7.46</ele>
        <time>2020-07-08T10:05:29Z</time>
      </trkpt>
      <trkpt lat="47.82154" lon="-3.53373">
        <ele>7.7</ele>
        <time>2020-07-08T10:05:30Z</time>
      </trkpt>
      <trkpt lat="47.82158" lon="-3.53378">
        <ele>7.77</ele>
        <time>2020-07-08T10:05:31Z</time>
      </trkpt>
      <trkpt lat="47.82161" lon="-3.53384">
        <ele>7.49</ele>
        <time>2020-07-08T10:05:32Z</time>
      </trkpt>
      <trkpt lat="47.82165" lon="-3.53389">
        <ele>6.95</ele>
        <time>2020-07-08T10:05:33Z</time>
      </trkpt>
      <trkpt lat="47.82168" lon="-3.53395">
        <ele>6.89</ele>
        <time>2020-07-08T10:05:34Z</time>
      </trkpt>
      <trkpt lat="47.82171" lon="-3.534">
        <ele>6.95</ele>
        <time>2020-07-08T10:05:35Z</time>
      </trkpt>
      <trkpt lat="47.82174" lon="-3.53407">
        <ele>6.6</ele>
        <time>2020-07-08T10:05:36Z</time>
      </trkpt>
      <trkpt lat="47.82177" lon="-3.53412">
        <ele>6.18</ele>
        <time>2020-07-08T10:05:37Z</time>
      </trkpt>
      <trkpt lat="47.8218" lon="-3.53417">
        <ele>5.58</ele>
        <time>2020-07-08T10:05:38Z</time>
      </trkpt>
      <trkpt lat="47.82182" lon="-3.53422">
        <ele>5.34</ele>
        <time>2020-07-08T10:05:39Z</time>
      </trkpt>
      <trkpt lat="47.82184" lon="-3.53428">
        <ele>5.08</ele>
        <time>2020-07-08T10:05:40Z</time>
      </trkpt>
      <trkpt lat="47.82187" lon="-3.53431">
        <ele>4.96</ele>
        <time>2020-07-08T10:05:41Z</time>
      </trkpt>
      <trkpt lat="47.82191" lon="-3.53434">
        <ele>4.9</ele>
        <time>2020-07-08T10:05:42Z</time>
      </trkpt>
      <trkpt lat="47.82195" lon="-3.53436">
        <ele>4.94</ele>
        <time>2020-07-08T10:05:43Z</time>
      </trkpt>
      <trkpt lat="47.822" lon="-3.53436">
        <ele>5.1</ele>
        <time>2020-07-08T10:05:44Z</time>
      </trkpt>
      <trkpt lat="47.82204" lon="-3.53435">
        <ele>5.26</ele>
        <time>2020-07-08T10:05:45Z</time>
      </trkpt>
      <trkpt lat="47.82207" lon="-3.53434">
        <ele>5.51</ele>
        <time>2020-07-08T10:05:46Z</time>
      </trkpt>
      <trkpt lat="47.82211" lon="-3.53432">
        <ele>5.8</ele>
        <time>2020-07-08T10:05:47Z</time>
      </trkpt>
      <trkpt lat="47.82214" lon="-3.5343">
        <ele>6.09</ele>
        <time>2020-07-08T10:05:48Z</time>
      </trkpt>
      <trkpt lat="47.82217" lon="-3.53429">
        <ele>6.39</ele>
        <time>2020-07-08T10:05:49Z</time>
      </trkpt>
      <trkpt lat="47.8222" lon="-3.53426">
        <ele>6.74</ele>
        <time>2020-07-08T10:05:50Z</time>
      </trkpt>
      <trkpt lat="47.82223" lon="-3.53424">
        <ele>7.12</ele>
        <time>2020-07-08T10:05:51Z</time>
      </trkpt>
      <trkpt lat="47.82225" lon="-3.53421">
        <ele>7.51</ele>
        <time>2020-07-08T10:05:52Z</time>
      </trkpt>
      <trkpt lat="47.82228" lon="-3.53418">
        <ele>7.9</ele>
        <time>2020-07-08T10:05:53Z</time>
      </trkpt>
      <trkpt lat="47.8223" lon="-3.53416">
        <ele>8.35</ele>
        <time>2020-07-08T10:05:54Z</time>
      </trkpt>
      <trkpt lat="47.82232" lon="-3.53413">
        <ele>9.02</ele>
        <time>2020-07-08T10:05:55Z</time>
      </trkpt>
      <trkpt lat="47.82234" lon="-3.53411">
        <ele>9.6</ele>
        <time>2020-07-08T10:05:56Z</time>
      </trkpt>
      <trkpt lat="47.82236" lon="-3.53409">
        <ele>9.97</ele>
        <time>2020-07-08T10:05:57Z</time>
      </trkpt>
      <trkpt lat="47.82237" lon="-3.53408">
        <ele>10.22</ele>
        <time>2020-07-08T10:05:58Z</time>
      </trkpt>
      <trkpt lat="47.82241" lon="-3.53407">
        <ele>10.33</ele>
        <time>2020-07-08T10:05:59Z</time>
      </trkpt>
      <trkpt lat="47.82243" lon="-3.53408">
        <ele>10.24</ele>
        <time>2020-07-08T10:06:00Z</time>
      </trkpt>
      <trkpt lat="47.82246" lon="-3.53409">
        <ele>10.06</ele>
        <time>2020-07-08T10:06:01Z</time>
      </trkpt>
      <trkpt lat="47.82247" lon="-3.53411">
        <ele>9.81</ele>
        <time>2020-07-08T10:06:02Z</time>
      </trkpt>
      <trkpt lat="47.82247" lon="-3.53413">
        <ele>9.49</ele>
        <time>2020-07-08T10:06:03Z</time>
      </trkpt>
      <trkpt lat="47.82248" lon="-3.53416">
        <ele>9.12</ele>
        <time>2020-07-08T10:06:04Z</time>
      </trkpt>
      <trkpt lat="47.82247" lon="-3.5342">
        <ele>8.94</ele>
        <time>2020-07-08T10:06:05Z</time>
      </trkpt>
      <trkpt lat="47.82245" lon="-3.53421">
        <ele>8.78</ele>
        <time>2020-07-08T10:06:06Z</time>
      </trkpt>
      <trkpt lat="47.82244" lon="-3.53425">
        <ele>8.63</ele>
        <time>2020-07-08T10:06:07Z</time>
      </trkpt>
      <trkpt lat="47.82242" lon="-3.53429">
        <ele>8.43</ele>
        <time>2020-07-08T10:06:08Z</time>
      </trkpt>
      <trkpt lat="47.82241" lon="-3.53432">
        <ele>8.21</ele>
        <time>2020-07-08T10:06:09Z</time>
      </trkpt>
      <trkpt lat="47.82239" lon="-3.53436">
        <ele>7.91</ele>
        <time>2020-07-08T10:06:10Z</time>
      </trkpt>
      <trkpt lat="47.82238" lon="-3.53438">
        <ele>7.66</ele>
        <time>2020-07-08T10:06:11Z</time>
      </trkpt>
      <trkpt lat="47.82238" lon="-3.53439">
        <ele>7.55</ele>
        <time>2020-07-08T10:06:12Z</time>
      </trkpt>
      <trkpt lat="47.82238" lon="-3.53439">
        <ele>7.51</ele>
        <time>2020-07-08T10:06:13Z</time>
      </trkpt>
      <trkpt lat="47.82238" lon="-3.5344">
        <ele>7.5</ele>
        <time>2020-07-08T10:06:14Z</time>
      </trkpt>
      <trkpt lat="47.82238" lon="-3.5344">
        <ele>7.5</ele>
        <time>2020-07-08T10:06:15Z</time>
      </trkpt>
      <trkpt lat="47.82238" lon="-3.5344">
        <ele>7.5</ele>
        <time>2020-07-08T10:06:16Z</time>
      </trkpt>
      <trkpt lat="47.82238" lon="-3.5344">
        <ele>7.5</ele>
        <time>2020-07-08T10:06:17Z</time>
      </trkpt>
      <trkpt lat="47.82238" lon="-3.5344">
        <ele>7.5</ele>
        <time>2020-07-08T10:06:18Z</time>
      </trkpt>
      <trkpt lat="47.82238" lon="-3.5344">
        <ele>7.5</ele>
        <time>2020-07-08T10:06:19Z</time>
      </trkpt>
      <trkpt lat="47.82233" lon="-3.53444">
        <ele>6.91</ele>
        <time>2020-07-08T10:06:20Z</time>
      </trkpt>
      <trkpt lat="47.82231" lon="-3.53446">
        <ele>6.43</ele>
        <time>2020-07-08T10:06:21Z</time>
      </trkpt>
      <trkpt lat="47.82229" lon="-3.53448">
        <ele>6.06</ele>
        <time>2020-07-08T10:06:22Z</time>
      </trkpt>
      <trkpt lat="47.82227" lon="-3.53449">
        <ele>5.81</ele>
        <time>2020-07-08T10:06:23Z</time>
      </trkpt>
      <trkpt lat="47.82227" lon="-3.53449">
        <ele>5.66</ele>
        <time>2020-07-08T10:06:24Z</time>
      </trkpt>
      <trkpt lat="47.82226" lon="-3.5345">
        <ele>5.59</ele>
        <time>2020-07-08T10:06:25Z</time>
      </trkpt>
      <trkpt lat="47.82226" lon="-3.53451">
        <ele>5.55</ele>
        <time>2020-07-08T10:06:26Z</time>
      </trkpt>
      <trkpt lat="47.82225" lon="-3.53453">
        <ele>5.42</ele>
        <time>2020-07-08T10:06:27Z</time>
      </trkpt>
      <trkpt lat="47.82223" lon="-3.53457">
        <ele>5.2</ele>
        <time>2020-07-08T10:06:28Z</time>
      </trkpt>
      <trkpt lat="47.8222" lon="-3.53459">
        <ele>5.02</ele>
        <time>2020-07-08T10:06:29Z</time>
      </trkpt>
      <trkpt lat="47.82218" lon="-3.53463">
        <ele>4.89</ele>
        <time>2020-07-08T10:06:30Z</time>
      </trkpt>
      <trkpt lat="47.82215" lon="-3.53465">
        <ele>4.78</ele>
        <time>2020-07-08T10:06:31Z</time>
      </trkpt>
      <trkpt lat="47.82212" lon="-3.53472">
        <ele>4.67</ele>
        <time>2020-07-08T10:06:32Z</time>
      </trkpt>
      <trkpt lat="47.82211" lon="-3.53476">
        <ele>4.57</ele>
        <time>2020-07-08T10:06:33Z</time>
      </trkpt>
      <trkpt lat="47.82211" lon="-3.53481">
        <ele>4.46</ele>
        <time>2020-07-08T10:06:34Z</time>
      </trkpt>
      <trkpt lat="47.82211" lon="-3.53486">
        <ele>4.36</ele>
        <time>2020-07-08T10:06:35Z</time>
      </trkpt>
      <trkpt lat="47.82212" lon="-3.53489">
        <ele>4.28</ele>
        <time>2020-07-08T10:06:36Z</time>
      </trkpt>
      <trkpt lat="47.82214" lon="-3.53492">
        <ele>4.22</ele>
        <time>2020-07-08T10:06:37Z</time>
      </trkpt>
      <trkpt lat="47.82216" lon="-3.53496">
        <ele>4.14</ele>
        <time>2020-07-08T10:06:38Z</time>
      </trkpt>
      <trkpt lat="47.82218" lon="-3.535">
        <ele>4.04</ele>
        <time>2020-07-08T10:06:39Z</time>
      </trkpt>
      <trkpt lat="47.82221" lon="-3.53504">
        <ele>4.01</ele>
        <time>2020-07-08T10:06:40Z</time>
      </trkpt>
      <trkpt lat="47.82223" lon="-3.53509">
        <ele>4.04</ele>
        <time>2020-07-08T10:06:41Z</time>
      </trkpt>
      <trkpt lat="47.82225" lon="-3.53512">
        <ele>4.13</ele>
        <time>2020-07-08T10:06:42Z</time>
      </trkpt>
      <trkpt lat="47.82227" lon="-3.53515">
        <ele>4.23</ele>
        <time>2020-07-08T10:06:43Z</time>
      </trkpt>
      <trkpt lat="47.8223" lon="-3.53518">
        <ele>4.33</ele>
        <time>2020-07-08T10:06:44Z</time>
      </trkpt>
      <trkpt lat="47.82232" lon="-3.53522">
        <ele>4.4</ele>
        <time>2020-07-08T10:06:45Z</time>
      </trkpt>
      <trkpt lat="47.82234" lon="-3.53525">
        <ele>4.44</ele>
        <time>2020-07-08T10:06:46Z</time>
      </trkpt>
      <trkpt lat="47.82235" lon="-3.53528">
        <ele>4.45</ele>
        <time>2020-07-08T10:06:47Z</time>
      </trkpt>
      <trkpt lat="47.82236" lon="-3.53533">
        <ele>4.36</ele>
        <time>2020-07-08T10:06:48Z</time>
      </trkpt>
      <trkpt lat="47.82237" lon="-3.53537">
        <ele>4.25</ele>
        <time>2020-07-08T10:06:49Z</time>
      </trkpt>
      <trkpt lat="47.82239" lon="-3.53542">
        <ele>4.14</ele>
        <time>2020-07-08T10:06:50Z</time>
      </trkpt>
      <trkpt lat="47.8224" lon="-3.53546">
        <ele>4.02</ele>
        <time>2020-07-08T10:06:51Z</time>
      </trkpt>
      <trkpt lat="47.82241" lon="-3.53551">
        <ele>3.89</ele>
        <time>2020-07-08T10:06:52Z</time>
      </trkpt>
      <trkpt lat="47.82242" lon="-3.53556">
        <ele>3.76</ele>
        <time>2020-07-08T10:06:53Z</time>
      </trkpt>
      <trkpt lat="47.82243" lon="-3.5356">
        <ele>3.75</ele>
        <time>2020-07-08T10:06:54Z</time>
      </trkpt>
      <trkpt lat="47.82245" lon="-3.53565">
        <ele>3.8</ele>
        <time>2020-07-08T10:06:55Z</time>
      </trkpt>
      <trkpt lat="47.82246" lon="-3.53569">
        <ele>3.85</ele>
        <time>2020-07-08T10:06:56Z</time>
      </trkpt>
      <trkpt lat="47.82248" lon="-3.53573">
        <ele>3.9</ele>
        <time>2020-07-08T10:06:57Z</time>
      </trkpt>
      <trkpt lat="47.8225" lon="-3.53578">
        <ele>3.97</ele>
        <time>2020-07-08T10:06:58Z</time>
      </trkpt>
      <trkpt lat="47.82252" lon="-3.53582">
        <ele>3.99</ele>
        <time>2020-07-08T10:06:59Z</time>
      </trkpt>
      <trkpt lat="47.82253" lon="-3.53586">
        <ele>3.99</ele>
        <time>2020-07-08T10:07:00Z</time>
      </trkpt>
      <trkpt lat="47.82255" lon="-3.5359">
        <ele>3.97</ele>
        <time>2020-07-08T10:07:01Z</time>
      </trkpt>
      <trkpt lat="47.82257" lon="-3.53591">
        <ele>3.94</ele>
        <time>2020-07-08T10:07:02Z</time>
      </trkpt>
      <trkpt lat="47.8226" lon="-3.53591">
        <ele>3.91</ele>
        <time>2020-07-08T10:07:03Z</time>
      </trkpt>
      <trkpt lat="47.82262" lon="-3.53591">
        <ele>3.88</ele>
        <time>2020-07-08T10:07:04Z</time>
      </trkpt>
      <trkpt lat="47.82264" lon="-3.53591">
        <ele>3.86</ele>
        <time>2020-07-08T10:07:05Z</time>
      </trkpt>
      <trkpt lat="47.82266" lon="-3.53591">
        <ele>3.86</ele>
        <time>2020-07-08T10:07:06Z</time>
      </trkpt>
      <trkpt lat="47.82267" lon="-3.53589">
        <ele>3.87</ele>
        <time>2020-07-08T10:07:07Z</time>
      </trkpt>
      <trkpt lat="47.82269" lon="-3.53588">
        <ele>3.88</ele>
        <time>2020-07-08T10:07:08Z</time>
      </trkpt>
      <trkpt lat="47.8227" lon="-3.53586">
        <ele>3.91</ele>
        <time>2020-07-08T10:07:09Z</time>
      </trkpt>
      <trkpt lat="47.82272" lon="-3.53585">
        <ele>3.94</ele>
        <time>2020-07-08T10:07:10Z</time>
      </trkpt>
      <trkpt lat="47.82273" lon="-3.53583">
        <ele>3.98</ele>
        <time>2020-07-08T10:07:11Z</time>
      </trkpt>
      <trkpt lat="47.82275" lon="-3.53581">
        <ele>4.09</ele>
        <time>2020-07-08T10:07:12Z</time>
      </trkpt>
      <trkpt lat="47.82277" lon="-3.53579">
        <ele>4.24</ele>
        <time>2020-07-08T10:07:13Z</time>
      </trkpt>
      <trkpt lat="47.82279" lon="-3.53576">
        <ele>4.58</ele>
        <time>2020-07-08T10:07:14Z</time>
      </trkpt>
      <trkpt lat="47.8228" lon="-3.53573">
        <ele>4.9</ele>
        <time>2020-07-08T10:07:15Z</time>
      </trkpt>
      <trkpt lat="47.82281" lon="-3.53571">
        <ele>5.18</ele>
        <time>2020-07-08T10:07:16Z</time>
      </trkpt>
      <trkpt lat="47.82282" lon="-3.53569">
        <ele>5.46</ele>
        <time>2020-07-08T10:07:17Z</time>
      </trkpt>
      <trkpt lat="47.82283" lon="-3.53565">
        <ele>5.76</ele>
        <time>2020-07-08T10:07:18Z</time>
      </trkpt>
      <trkpt lat="47.82285" lon="-3.53562">
        <ele>5.99</ele>
        <time>2020-07-08T10:07:19Z</time>
      </trkpt>
      <trkpt lat="47.82285" lon="-3.53559">
        <ele>6.12</ele>
        <time>2020-07-08T10:07:20Z</time>
      </trkpt>
      <trkpt lat="47.82286" lon="-3.53557">
        <ele>6.21</ele>
        <time>2020-07-08T10:07:21Z</time>
      </trkpt>
      <trkpt lat="47.82287" lon="-3.53554">
        <ele>6.37</ele>
        <time>2020-07-08T10:07:22Z</time>
      </trkpt>
      <trkpt lat="47.82288" lon="-3.53553">
        <ele>6.52</ele>
        <time>2020-07-08T10:07:23Z</time>
      </trkpt>
      <trkpt lat="47.82289" lon="-3.5355">
        <ele>6.73</ele>
        <time>2020-07-08T10:07:24Z</time>
      </trkpt>
      <trkpt lat="47.82289" lon="-3.53548">
        <ele>6.92</ele>
        <time>2020-07-08T10:07:25Z</time>
      </trkpt>
      <trkpt lat="47.8229" lon="-3.53546">
        <ele>7.1</ele>
        <time>2020-07-08T10:07:26Z</time>
      </trkpt>
      <trkpt lat="47.82291" lon="-3.53546">
        <ele>7.21</ele>
        <time>2020-07-08T10:07:27Z</time>
      </trkpt>
      <trkpt lat="47.82292" lon="-3.53545">
        <ele>7.36</ele>
        <time>2020-07-08T10:07:28Z</time>
      </trkpt>
      <trkpt lat="47.82293" lon="-3.53545">
        <ele>7.54</ele>
        <time>2020-07-08T10:07:29Z</time>
      </trkpt>
      <trkpt lat="47.82295" lon="-3.53544">
        <ele>7.73</ele>
        <time>2020-07-08T10:07:30Z</time>
      </trkpt>
      <trkpt lat="47.82297" lon="-3.53544">
        <ele>7.85</ele>
        <time>2020-07-08T10:07:31Z</time>
      </trkpt>
      <trkpt lat="47.82299" lon="-3.53544">
        <ele>8.05</ele>
        <time>2020-07-08T10:07:32Z</time>
      </trkpt>
      <trkpt lat="47.82301" lon="-3.53543">
        <ele>8.27</ele>
        <time>2020-07-08T10:07:33Z</time>
      </trkpt>
      <trkpt lat="47.82303" lon="-3.53543">
        <ele>8.52</ele>
        <time>2020-07-08T10:07:34Z</time>
      </trkpt>
      <trkpt lat="47.82306" lon="-3.53542">
        <ele>8.88</ele>
        <time>2020-07-08T10:07:35Z</time>
      </trkpt>
      <trkpt lat="47.82308" lon="-3.53542">
        <ele>9.13</ele>
        <time>2020-07-08T10:07:36Z</time>
      </trkpt>
      <trkpt lat="47.82309" lon="-3.53542">
        <ele>9.28</ele>
        <time>2020-07-08T10:07:37Z</time>
      </trkpt>
      <trkpt lat="47.82311" lon="-3.53542">
        <ele>9.39</ele>
        <time>2020-07-08T10:07:38Z</time>
      </trkpt>
      <trkpt lat="47.82313" lon="-3.53543">
        <ele>9.55</ele>
        <time>2020-07-08T10:07:39Z</time>
      </trkpt>
      <trkpt lat="47.82315" lon="-3.53542">
        <ele>9.79</ele>
        <time>2020-07-08T10:07:40Z</time>
      </trkpt>
      <trkpt lat="47.82316" lon="-3.53543">
        <ele>9.9</ele>
        <time>2020-07-08T10:07:41Z</time>
      </trkpt>
      <trkpt lat="47.82316" lon="-3.53544">
        <ele>9.91</ele>
        <time>2020-07-08T10:07:42Z</time>
      </trkpt>
      <trkpt lat="47.82316" lon="-3.53544">
        <ele>9.82</ele>
        <time>2020-07-08T10:07:43Z</time>
      </trkpt>
      <trkpt lat="47.82315" lon="-3.53545">
        <ele>9.61</ele>
        <time>2020-07-08T10:07:44Z</time>
      </trkpt>
      <trkpt lat="47.82314" lon="-3.53548">
        <ele>9.29</ele>
        <time>2020-07-08T10:07:45Z</time>
      </trkpt>
      <trkpt lat="47.82312" lon="-3.53549">
        <ele>8.95</ele>
        <time>2020-07-08T10:07:46Z</time>
      </trkpt>
      <trkpt lat="47.82312" lon="-3.5355">
        <ele>8.75</ele>
        <time>2020-07-08T10:07:47Z</time>
      </trkpt>
      <trkpt lat="47.82312" lon="-3.53552">
        <ele>8.54</ele>
        <time>2020-07-08T10:07:48Z</time>
      </trkpt>
      <trkpt lat="47.82312" lon="-3.53553">
        <ele>8.36</ele>
        <time>2020-07-08T10:07:49Z</time>
      </trkpt>
      <trkpt lat="47.82312" lon="-3.53554">
        <ele>8.19</ele>
        <time>2020-07-08T10:07:50Z</time>
      </trkpt>
      <trkpt lat="47.82311" lon="-3.53556">
        <ele>7.93</ele>
        <time>2020-07-08T10:07:51Z</time>
      </trkpt>
      <trkpt lat="47.8231" lon="-3.53557">
        <ele>7.84</ele>
        <time>2020-07-08T10:07:52Z</time>
      </trkpt>
      <trkpt lat="47.82309" lon="-3.53559">
        <ele>7.9</ele>
        <time>2020-07-08T10:07:53Z</time>
      </trkpt>
      <trkpt lat="47.82309" lon="-3.53561">
        <ele>8.03</ele>
        <time>2020-07-08T10:07:54Z</time>
      </trkpt>
      <trkpt lat="47.82309" lon="-3.53564">
        <ele>8.23</ele>
        <time>2020-07-08T10:07:55Z</time>
      </trkpt>
      <trkpt lat="47.82307" lon="-3.53567">
        <ele>8.39</ele>
        <time>2020-07-08T10:07:56Z</time>
      </trkpt>
      <trkpt lat="47.82305" lon="-3.53571">
        <ele>8.51</ele>
        <time>2020-07-08T10:07:57Z</time>
      </trkpt>
      <trkpt lat="47.82301" lon="-3.53573">
        <ele>8.33</ele>
        <time>2020-07-08T10:07:58Z</time>
      </trkpt>
      <trkpt lat="47.82301" lon="-3.53576">
        <ele>8.35</ele>
        <time>2020-07-08T10:07:59Z</time>
      </trkpt>
      <trkpt lat="47.82296" lon="-3.5358">
        <ele>8.01</ele>
        <time>2020-07-08T10:08:00Z</time>
      </trkpt>
      <trkpt lat="47.82293" lon="-3.53583">
        <ele>7.55</ele>
        <time>2020-07-08T10:08:01Z</time>
      </trkpt>
      <trkpt lat="47.82292" lon="-3.53588">
        <ele>6.98</ele>
        <time>2020-07-08T10:08:02Z</time>
      </trkpt>
      <trkpt lat="47.8229" lon="-3.53591">
        <ele>6.54</ele>
        <time>2020-07-08T10:08:03Z</time>
      </trkpt>
      <trkpt lat="47.82289" lon="-3.53595">
        <ele>6.09</ele>
        <time>2020-07-08T10:08:04Z</time>
      </trkpt>
      <trkpt lat="47.82288" lon="-3.536">
        <ele>5.57</ele>
        <time>2020-07-08T10:08:05Z</time>
      </trkpt>
      <trkpt lat="47.82286" lon="-3.53603">
        <ele>5.02</ele>
        <time>2020-07-08T10:08:06Z</time>
      </trkpt>
      <trkpt lat="47.82283" lon="-3.53607">
        <ele>4.36</ele>
        <time>2020-07-08T10:08:07Z</time>
      </trkpt>
      <trkpt lat="47.8228" lon="-3.5361">
        <ele>3.76</ele>
        <time>2020-07-08T10:08:08Z</time>
      </trkpt>
      <trkpt lat="47.82278" lon="-3.53613">
        <ele>3.27</ele>
        <time>2020-07-08T10:08:09Z</time>
      </trkpt>
      <trkpt lat="47.82275" lon="-3.53616">
        <ele>3.28</ele>
        <time>2020-07-08T10:08:10Z</time>
      </trkpt>
      <trkpt lat="47.82272" lon="-3.53623">
        <ele>3.47</ele>
        <time>2020-07-08T10:08:11Z</time>
      </trkpt>
      <trkpt lat="47.82269" lon="-3.5363">
        <ele>3.69</ele>
        <time>2020-07-08T10:08:12Z</time>
      </trkpt>
      <trkpt lat="47.82267" lon="-3.53635">
        <ele>3.85</ele>
        <time>2020-07-08T10:08:13Z</time>
      </trkpt>
      <trkpt lat="47.82265" lon="-3.53644">
        <ele>4.02</ele>
        <time>2020-07-08T10:08:14Z</time>
      </trkpt>
      <trkpt lat="47.82264" lon="-3.5365">
        <ele>4.15</ele>
        <time>2020-07-08T10:08:15Z</time>
      </trkpt>
      <trkpt lat="47.82264" lon="-3.53657">
        <ele>4.27</ele>
        <time>2020-07-08T10:08:16Z</time>
      </trkpt>
      <trkpt lat="47.82265" lon="-3.53663">
        <ele>4.41</ele>
        <time>2020-07-08T10:08:17Z</time>
      </trkpt>
      <trkpt lat="47.82265" lon="-3.53668">
        <ele>4.5</ele>
        <time>2020-07-08T10:08:18Z</time>
      </trkpt>
      <trkpt lat="47.82267" lon="-3.53674">
        <ele>4.57</ele>
        <time>2020-07-08T10:08:19Z</time>
      </trkpt>
      <trkpt lat="47.82269" lon="-3.5368">
        <ele>4.65</ele>
        <time>2020-07-08T10:08:20Z</time>
      </trkpt>
      <trkpt lat="47.8227" lon="-3.53686">
        <ele>4.71</ele>
        <time>2020-07-08T10:08:21Z</time>
      </trkpt>
      <trkpt lat="47.82272" lon="-3.5369">
        <ele>4.78</ele>
        <time>2020-07-08T10:08:22Z</time>
      </trkpt>
      <trkpt lat="47.82274" lon="-3.53695">
        <ele>4.83</ele>
        <time>2020-07-08T10:08:23Z</time>
      </trkpt>
      <trkpt lat="47.82276" lon="-3.53699">
        <ele>4.78</ele>
        <time>2020-07-08T10:08:24Z</time>
      </trkpt>
      <trkpt lat="47.82277" lon="-3.53704">
        <ele>4.69</ele>
        <time>2020-07-08T10:08:25Z</time>
      </trkpt>
      <trkpt lat="47.82279" lon="-3.53709">
        <ele>4.59</ele>
        <time>2020-07-08T10:08:26Z</time>
      </trkpt>
      <trkpt lat="47.82279" lon="-3.53711">
        <ele>4.54</ele>
        <time>2020-07-08T10:08:27Z</time>
      </trkpt>
      <trkpt lat="47.8228" lon="-3.53713">
        <ele>4.51</ele>
        <time>2020-07-08T10:08:28Z</time>
      </trkpt>
      <trkpt lat="47.82281" lon="-3.53715">
        <ele>4.46</ele>
        <time>2020-07-08T10:08:29Z</time>
      </trkpt>
      <trkpt lat="47.82282" lon="-3.53717">
        <ele>4.44</ele>
        <time>2020-07-08T10:08:30Z</time>
      </trkpt>
      <trkpt lat="47.82284" lon="-3.53719">
        <ele>4.41</ele>
        <time>2020-07-08T10:08:31Z</time>
      </trkpt>
      <trkpt lat="47.82287" lon="-3.53722">
        <ele>4.38</ele>
        <time>2020-07-08T10:08:32Z</time>
      </trkpt>
      <trkpt lat="47.82289" lon="-3.53725">
        <ele>4.38</ele>
        <time>2020-07-08T10:08:33Z</time>
      </trkpt>
      <trkpt lat="47.82292" lon="-3.53728">
        <ele>4.4</ele>
        <time>2020-07-08T10:08:34Z</time>
      </trkpt>
      <trkpt lat="47.82295" lon="-3.5373">
        <ele>4.42</ele>
        <time>2020-07-08T10:08:35Z</time>
      </trkpt>
      <trkpt lat="47.82297" lon="-3.53733">
        <ele>4.42</ele>
        <time>2020-07-08T10:08:36Z</time>
      </trkpt>
      <trkpt lat="47.823" lon="-3.53735">
        <ele>4.42</ele>
        <time>2020-07-08T10:08:37Z</time>
      </trkpt>
      <trkpt lat="47.82302" lon="-3.53738">
        <ele>4.4</ele>
        <time>2020-07-08T10:08:38Z</time>
      </trkpt>
      <trkpt lat="47.82305" lon="-3.5374">
        <ele>4.36</ele>
        <time>2020-07-08T10:08:39Z</time>
      </trkpt>
      <trkpt lat="47.82308" lon="-3.53743">
        <ele>4.52</ele>
        <time>2020-07-08T10:08:40Z</time>
      </trkpt>
      <trkpt lat="47.8231" lon="-3.53746">
        <ele>4.68</ele>
        <time>2020-07-08T10:08:41Z</time>
      </trkpt>
      <trkpt lat="47.82312" lon="-3.53749">
        <ele>4.73</ele>
        <time>2020-07-08T10:08:42Z</time>
      </trkpt>
      <trkpt lat="47.82314" lon="-3.53753">
        <ele>4.81</ele>
        <time>2020-07-08T10:08:43Z</time>
      </trkpt>
      <trkpt lat="47.82316" lon="-3.53758">
        <ele>4.87</ele>
        <time>2020-07-08T10:08:44Z</time>
      </trkpt>
      <trkpt lat="47.82318" lon="-3.53763">
        <ele>4.91</ele>
        <time>2020-07-08T10:08:45Z</time>
      </trkpt>
      <trkpt lat="47.82319" lon="-3.53766">
        <ele>4.92</ele>
        <time>2020-07-08T10:08:46Z</time>
      </trkpt>
      <trkpt lat="47.82321" lon="-3.53768">
        <ele>4.93</ele>
        <time>2020-07-08T10:08:47Z</time>
      </trkpt>
      <trkpt lat="47.82323" lon="-3.53771">
        <ele>4.94</ele>
        <time>2020-07-08T10:08:48Z</time>
      </trkpt>
      <trkpt lat="47.82325" lon="-3.53774">
        <ele>4.91</ele>
        <time>2020-07-08T10:08:49Z</time>
      </trkpt>
      <trkpt lat="47.82326" lon="-3.53776">
        <ele>4.86</ele>
        <time>2020-07-08T10:08:50Z</time>
      </trkpt>
      <trkpt lat="47.82328" lon="-3.53778">
        <ele>4.83</ele>
        <time>2020-07-08T10:08:51Z</time>
      </trkpt>
      <trkpt lat="47.8233" lon="-3.53779">
        <ele>4.85</ele>
        <time>2020-07-08T10:08:52Z</time>
      </trkpt>
      <trkpt lat="47.82332" lon="-3.5378">
        <ele>4.87</ele>
        <time>2020-07-08T10:08:53Z</time>
      </trkpt>
      <trkpt lat="47.82335" lon="-3.53781">
        <ele>5.12</ele>
        <time>2020-07-08T10:08:54Z</time>
      </trkpt>
      <trkpt lat="47.82338" lon="-3.53782">
        <ele>5.55</ele>
        <time>2020-07-08T10:08:55Z</time>
      </trkpt>
      <trkpt lat="47.8234" lon="-3.53783">
        <ele>5.89</ele>
        <time>2020-07-08T10:08:56Z</time>
      </trkpt>
      <trkpt lat="47.82341" lon="-3.53784">
        <ele>6.16</ele>
        <time>2020-07-08T10:08:57Z</time>
      </trkpt>
      <trkpt lat="47.82343" lon="-3.53784">
        <ele>6.37</ele>
        <time>2020-07-08T10:08:58Z</time>
      </trkpt>
      <trkpt lat="47.82344" lon="-3.53786">
        <ele>6.55</ele>
        <time>2020-07-08T10:08:59Z</time>
      </trkpt>
      <trkpt lat="47.82345" lon="-3.53788">
        <ele>6.57</ele>
        <time>2020-07-08T10:09:00Z</time>
      </trkpt>
      <trkpt lat="47.82347" lon="-3.53792">
        <ele>6.5</ele>
        <time>2020-07-08T10:09:01Z</time>
      </trkpt>
      <trkpt lat="47.82349" lon="-3.53796">
        <ele>6.34</ele>
        <time>2020-07-08T10:09:02Z</time>
      </trkpt>
      <trkpt lat="47.82351" lon="-3.53801">
        <ele>6.08</ele>
        <time>2020-07-08T10:09:03Z</time>
      </trkpt>
      <trkpt lat="47.82354" lon="-3.53806">
        <ele>5.65</ele>
        <time>2020-07-08T10:09:04Z</time>
      </trkpt>
      <trkpt lat="47.82357" lon="-3.53812">
        <ele>5.4</ele>
        <time>2020-07-08T10:09:05Z</time>
      </trkpt>
      <trkpt lat="47.82361" lon="-3.53818">
        <ele>5.17</ele>
        <time>2020-07-08T10:09:06Z</time>
      </trkpt>
      <trkpt lat="47.82366" lon="-3.53825">
        <ele>5.1</ele>
        <time>2020-07-08T10:09:07Z</time>
      </trkpt>
      <trkpt lat="47.82369" lon="-3.53831">
        <ele>4.93</ele>
        <time>2020-07-08T10:09:08Z</time>
      </trkpt>
      <trkpt lat="47.82373" lon="-3.53837">
        <ele>4.83</ele>
        <time>2020-07-08T10:09:09Z</time>
      </trkpt>
      <trkpt lat="47.82377" lon="-3.53843">
        <ele>4.77</ele>
        <time>2020-07-08T10:09:10Z</time>
      </trkpt>
      <trkpt lat="47.82381" lon="-3.53849">
        <ele>4.66</ele>
        <time>2020-07-08T10:09:11Z</time>
      </trkpt>
      <trkpt lat="47.82384" lon="-3.53855">
        <ele>4.47</ele>
        <time>2020-07-08T10:09:12Z</time>
      </trkpt>
      <trkpt lat="47.82388" lon="-3.5386">
        <ele>4.21</ele>
        <time>2020-07-08T10:09:13Z</time>
      </trkpt>
      <trkpt lat="47.82394" lon="-3.53864">
        <ele>4.19</ele>
        <time>2020-07-08T10:09:14Z</time>
      </trkpt>
      <trkpt lat="47.82399" lon="-3.53867">
        <ele>4.25</ele>
        <time>2020-07-08T10:09:15Z</time>
      </trkpt>
      <trkpt lat="47.82404" lon="-3.5387">
        <ele>4.35</ele>
        <time>2020-07-08T10:09:16Z</time>
      </trkpt>
      <trkpt lat="47.82409" lon="-3.53871">
        <ele>4.43</ele>
        <time>2020-07-08T10:09:17Z</time>
      </trkpt>
      <trkpt lat="47.82413" lon="-3.53872">
        <ele>4.5</ele>
        <time>2020-07-08T10:09:18Z</time>
      </trkpt>
      <trkpt lat="47.82417" lon="-3.53874">
        <ele>4.53</ele>
        <time>2020-07-08T10:09:19Z</time>
      </trkpt>
      <trkpt lat="47.8242" lon="-3.53874">
        <ele>4.68</ele>
        <time>2020-07-08T10:09:20Z</time>
      </trkpt>
      <trkpt lat="47.82424" lon="-3.53874">
        <ele>4.87</ele>
        <time>2020-07-08T10:09:21Z</time>
      </trkpt>
      <trkpt lat="47.82427" lon="-3.53873">
        <ele>5.08</ele>
        <time>2020-07-08T10:09:22Z</time>
      </trkpt>
      <trkpt lat="47.8243" lon="-3.53874">
        <ele>5.24</ele>
        <time>2020-07-08T10:09:23Z</time>
      </trkpt>
      <trkpt lat="47.82433" lon="-3.53876">
        <ele>5.32</ele>
        <time>2020-07-08T10:09:24Z</time>
      </trkpt>
      <trkpt lat="47.82438" lon="-3.53877">
        <ele>5.33</ele>
        <time>2020-07-08T10:09:25Z</time>
      </trkpt>
      <trkpt lat="47.82443" lon="-3.53876">
        <ele>5.62</ele>
        <time>2020-07-08T10:09:26Z</time>
      </trkpt>
      <trkpt lat="47.82448" lon="-3.53876">
        <ele>5.78</ele>
        <time>2020-07-08T10:09:27Z</time>
      </trkpt>
      <trkpt lat="47.82452" lon="-3.53877">
        <ele>5.67</ele>
        <time>2020-07-08T10:09:28Z</time>
      </trkpt>
      <trkpt lat="47.82456" lon="-3.53878">
        <ele>5.58</ele>
        <time>2020-07-08T10:09:29Z</time>
      </trkpt>
      <trkpt lat="47.8246" lon="-3.53878">
        <ele>5.49</ele>
        <time>2020-07-08T10:09:30Z</time>
      </trkpt>
      <trkpt lat="47.82464" lon="-3.53879">
        <ele>5.35</ele>
        <time>2020-07-08T10:09:31Z</time>
      </trkpt>
      <trkpt lat="47.82468" lon="-3.53879">
        <ele>5.28</ele>
        <time>2020-07-08T10:09:32Z</time>
      </trkpt>
      <trkpt lat="47.82472" lon="-3.53878">
        <ele>5.3</ele>
        <time>2020-07-08T10:09:33Z</time>
      </trkpt>
      <trkpt lat="47.82475" lon="-3.53879">
        <ele>5.33</ele>
        <time>2020-07-08T10:09:34Z</time>
      </trkpt>
      <trkpt lat="47.82478" lon="-3.5388">
        <ele>5.21</ele>
        <time>2020-07-08T10:09:35Z</time>
      </trkpt>
      <trkpt lat="47.8248" lon="-3.53879">
        <ele>5.35</ele>
        <time>2020-07-08T10:09:36Z</time>
      </trkpt>
      <trkpt lat="47.82483" lon="-3.53879">
        <ele>5.54</ele>
        <time>2020-07-08T10:09:37Z</time>
      </trkpt>
      <trkpt lat="47.82485" lon="-3.53878">
        <ele>5.71</ele>
        <time>2020-07-08T10:09:38Z</time>
      </trkpt>
      <trkpt lat="47.82488" lon="-3.53878">
        <ele>5.83</ele>
        <time>2020-07-08T10:09:39Z</time>
      </trkpt>
      <trkpt lat="47.8249" lon="-3.53878">
        <ele>5.9</ele>
        <time>2020-07-08T10:09:40Z</time>
      </trkpt>
      <trkpt lat="47.82493" lon="-3.53879">
        <ele>5.92</ele>
        <time>2020-07-08T10:09:41Z</time>
      </trkpt>
      <trkpt lat="47.82499" lon="-3.53881">
        <ele>5.78</ele>
        <time>2020-07-08T10:09:42Z</time>
      </trkpt>
      <trkpt lat="47.82503" lon="-3.53881">
        <ele>5.75</ele>
        <time>2020-07-08T10:09:43Z</time>
      </trkpt>
      <trkpt lat="47.82508" lon="-3.53882">
        <ele>5.81</ele>
        <time>2020-07-08T10:09:44Z</time>
      </trkpt>
      <trkpt lat="47.82512" lon="-3.53881">
        <ele>5.95</ele>
        <time>2020-07-08T10:09:45Z</time>
      </trkpt>
      <trkpt lat="47.82515" lon="-3.53881">
        <ele>6.07</ele>
        <time>2020-07-08T10:09:46Z</time>
      </trkpt>
      <trkpt lat="47.82518" lon="-3.53881">
        <ele>6.21</ele>
        <time>2020-07-08T10:09:47Z</time>
      </trkpt>
      <trkpt lat="47.82519" lon="-3.5388">
        <ele>6.5</ele>
        <time>2020-07-08T10:09:48Z</time>
      </trkpt>
      <trkpt lat="47.82521" lon="-3.53879">
        <ele>6.83</ele>
        <time>2020-07-08T10:09:49Z</time>
      </trkpt>
      <trkpt lat="47.82523" lon="-3.53877">
        <ele>7.19</ele>
        <time>2020-07-08T10:09:50Z</time>
      </trkpt>
      <trkpt lat="47.82523" lon="-3.53876">
        <ele>7.55</ele>
        <time>2020-07-08T10:09:51Z</time>
      </trkpt>
      <trkpt lat="47.82525" lon="-3.53875">
        <ele>7.77</ele>
        <time>2020-07-08T10:09:52Z</time>
      </trkpt>
      <trkpt lat="47.82526" lon="-3.53874">
        <ele>7.99</ele>
        <time>2020-07-08T10:09:53Z</time>
      </trkpt>
      <trkpt lat="47.82528" lon="-3.53873">
        <ele>8.22</ele>
        <time>2020-07-08T10:09:54Z</time>
      </trkpt>
      <trkpt lat="47.82529" lon="-3.53871">
        <ele>8.59</ele>
        <time>2020-07-08T10:09:55Z</time>
      </trkpt>
      <trkpt lat="47.82531" lon="-3.53869">
        <ele>9</ele>
        <time>2020-07-08T10:09:56Z</time>
      </trkpt>
      <trkpt lat="47.82533" lon="-3.53867">
        <ele>9.36</ele>
        <time>2020-07-08T10:09:57Z</time>
      </trkpt>
      <trkpt lat="47.82535" lon="-3.53867">
        <ele>9.52</ele>
        <time>2020-07-08T10:09:58Z</time>
      </trkpt>
      <trkpt lat="47.82536" lon="-3.53867">
        <ele>9.52</ele>
        <time>2020-07-08T10:09:59Z</time>
      </trkpt>
      <trkpt lat="47.82537" lon="-3.53868">
        <ele>9.39</ele>
        <time>2020-07-08T10:10:00Z</time>
      </trkpt>
      <trkpt lat="47.82538" lon="-3.5387">
        <ele>9.14</ele>
        <time>2020-07-08T10:10:01Z</time>
      </trkpt>
      <trkpt lat="47.8254" lon="-3.53871">
        <ele>8.79</ele>
        <time>2020-07-08T10:10:02Z</time>
      </trkpt>
      <trkpt lat="47.82542" lon="-3.53874">
        <ele>8.41</ele>
        <time>2020-07-08T10:10:03Z</time>
      </trkpt>
      <trkpt lat="47.82542" lon="-3.53876">
        <ele>8.04</ele>
        <time>2020-07-08T10:10:04Z</time>
      </trkpt>
      <trkpt lat="47.82543" lon="-3.53877">
        <ele>7.7</ele>
        <time>2020-07-08T10:10:05Z</time>
      </trkpt>
      <trkpt lat="47.82543" lon="-3.53879">
        <ele>7.4</ele>
        <time>2020-07-08T10:10:06Z</time>
      </trkpt>
      <trkpt lat="47.82543" lon="-3.5388">
        <ele>7.2</ele>
        <time>2020-07-08T10:10:07Z</time>
      </trkpt>
      <trkpt lat="47.82544" lon="-3.53882">
        <ele>6.95</ele>
        <time>2020-07-08T10:10:08Z</time>
      </trkpt>
      <trkpt lat="47.82545" lon="-3.53885">
        <ele>6.52</ele>
        <time>2020-07-08T10:10:09Z</time>
      </trkpt>
      <trkpt lat="47.82545" lon="-3.53887">
        <ele>6.16</ele>
        <time>2020-07-08T10:10:10Z</time>
      </trkpt>
      <trkpt lat="47.82546" lon="-3.53887">
        <ele>6.06</ele>
        <time>2020-07-08T10:10:11Z</time>
      </trkpt>
      <trkpt lat="47.82545" lon="-3.53887">
        <ele>6.01</ele>
        <time>2020-07-08T10:10:12Z</time>
      </trkpt>
      <trkpt lat="47.82545" lon="-3.53887">
        <ele>5.99</ele>
        <time>2020-07-08T10:10:13Z</time>
      </trkpt>
      <trkpt lat="47.82545" lon="-3.53887">
        <ele>5.98</ele>
        <time>2020-07-08T10:10:14Z</time>
      </trkpt>
      <trkpt lat="47.82545" lon="-3.53887">
        <ele>5.98</ele>
        <time>2020-07-08T10:10:15Z</time>
      </trkpt>
      <trkpt lat="47.82545" lon="-3.53887">
        <ele>5.98</ele>
        <time>2020-07-08T10:10:16Z</time>
      </trkpt>
      <trkpt lat="47.82545" lon="-3.53887">
        <ele>5.98</ele>
        <time>2020-07-08T10:10:17Z</time>
      </trkpt>
      <trkpt lat="47.82545" lon="-3.53887">
        <ele>5.98</ele>
        <time>2020-07-08T10:10:18Z</time>
      </trkpt>
      <trkpt lat="47.82545" lon="-3.53887">
        <ele>5.98</ele>
        <time>2020-07-08T10:10:19Z</time>
      </trkpt>
      <trkpt lat="47.82545" lon="-3.53887">
        <ele>5.98</ele>
        <time>2020-07-08T10:10:20Z</time>
      </trkpt>
      <trkpt lat="47.82556" lon="-3.53886">
        <ele>6.35</ele>
        <time>2020-07-08T10:10:21Z</time>
      </trkpt>
      <trkpt lat="47.82558" lon="-3.53884">
        <ele>6.69</ele>
        <time>2020-07-08T10:10:22Z</time>
      </trkpt>
      <trkpt lat="47.82558" lon="-3.53883">
        <ele>6.97</ele>
        <time>2020-07-08T10:10:23Z</time>
      </trkpt>
      <trkpt lat="47.8256" lon="-3.53883">
        <ele>7.15</ele>
        <time>2020-07-08T10:10:24Z</time>
      </trkpt>
      <trkpt lat="47.82559" lon="-3.53883">
        <ele>7.2</ele>
        <time>2020-07-08T10:10:25Z</time>
      </trkpt>
      <trkpt lat="47.82559" lon="-3.53883">
        <ele>7.21</ele>
        <time>2020-07-08T10:10:26Z</time>
      </trkpt>
      <trkpt lat="47.82559" lon="-3.53883">
        <ele>7.21</ele>
        <time>2020-07-08T10:10:27Z</time>
      </trkpt>
      <trkpt lat="47.82559" lon="-3.53883">
        <ele>7.21</ele>
        <time>2020-07-08T10:10:28Z</time>
      </trkpt>
      <trkpt lat="47.82559" lon="-3.53883">
        <ele>7.21</ele>
        <time>2020-07-08T10:10:29Z</time>
      </trkpt>
      <trkpt lat="47.82559" lon="-3.53883">
        <ele>7.21</ele>
        <time>2020-07-08T10:10:30Z</time>
      </trkpt>
      <trkpt lat="47.82559" lon="-3.53883">
        <ele>7.21</ele>
        <time>2020-07-08T10:10:31Z</time>
      </trkpt>
      <trkpt lat="47.82559" lon="-3.53883">
        <ele>7.21</ele>
        <time>2020-07-08T10:10:32Z</time>
      </trkpt>
      <trkpt lat="47.82559" lon="-3.53883">
        <ele>7.21</ele>
        <time>2020-07-08T10:10:33Z</time>
      </trkpt>
      <trkpt lat="47.82559" lon="-3.53883">
        <ele>7.21</ele>
        <time>2020-07-08T10:10:34Z</time>
      </trkpt>
      <trkpt lat="47.82559" lon="-3.53883">
        <ele>7.21</ele>
        <time>2020-07-08T10:10:35Z</time>
      </trkpt>
      <trkpt lat="47.82559" lon="-3.53883">
        <ele>7.21</ele>
        <time>2020-07-08T10:10:36Z</time>
      </trkpt>
      <trkpt lat="47.82559" lon="-3.53883">
        <ele>7.21</ele>
        <time>2020-07-08T10:10:37Z</time>
      </trkpt>
      <trkpt lat="47.82559" lon="-3.53883">
        <ele>7.21</ele>
        <time>2020-07-08T10:10:38Z</time>
      </trkpt>
      <trkpt lat="47.82559" lon="-3.53883">
        <ele>7.21</ele>
        <time>2020-07-08T10:10:39Z</time>
      </trkpt>
      <trkpt lat="47.82559" lon="-3.53883">
        <ele>7.21</ele>
        <time>2020-07-08T10:10:40Z</time>
      </trkpt>
      <trkpt lat="47.82559" lon="-3.53883">
        <ele>7.21</ele>
        <time>2020-07-08T10:10:41Z</time>
      </trkpt>
      <trkpt lat="47.82559" lon="-3.53883">
        <ele>7.21</ele>
        <time>2020-07-08T10:10:42Z</time>
      </trkpt>
      <trkpt lat="47.82559" lon="-3.53883">
        <ele>7.21</ele>
        <time>2020-07-08T10:10:43Z</time>
      </trkpt>
      <trkpt lat="47.82559" lon="-3.53883">
        <ele>7.21</ele>
        <time>2020-07-08T10:10:44Z</time>
      </trkpt>
      <trkpt lat="47.82559" lon="-3.53883">
        <ele>7.21</ele>
        <time>2020-07-08T10:10:45Z</time>
      </trkpt>
      <trkpt lat="47.82559" lon="-3.53883">
        <ele>7.21</ele>
        <time>2020-07-08T10:10:46Z</time>
      </trkpt>
      <trkpt lat="47.82559" lon="-3.53883">
        <ele>7.21</ele>
        <time>2020-07-08T10:10:47Z</time>
      </trkpt>
      <trkpt lat="47.82559" lon="-3.53883">
        <ele>7.21</ele>
        <time>2020-07-08T10:10:48Z</time>
      </trkpt>
      <trkpt lat="47.82559" lon="-3.53883">
        <ele>7.21</ele>
        <time>2020-07-08T10:10:49Z</time>
      </trkpt>
      <trkpt lat="47.82559" lon="-3.53883">
        <ele>7.21</ele>
        <time>2020-07-08T10:10:50Z</time>
      </trkpt>
      <trkpt lat="47.82559" lon="-3.53883">
        <ele>7.21</ele>
        <time>2020-07-08T10:10:51Z</time>
      </trkpt>
      <trkpt lat="47.82559" lon="-3.53883">
        <ele>7.21</ele>
        <time>2020-07-08T10:10:52Z</time>
      </trkpt>
      <trkpt lat="47.82559" lon="-3.53883">
        <ele>7.21</ele>
        <time>2020-07-08T10:10:53Z</time>
      </trkpt>
      <trkpt lat="47.82559" lon="-3.53883">
        <ele>7.21</ele>
        <time>2020-07-08T10:10:54Z</time>
      </trkpt>
      <trkpt lat="47.82559" lon="-3.53883">
        <ele>7.21</ele>
        <time>2020-07-08T10:10:55Z</time>
      </trkpt>
      <trkpt lat="47.82559" lon="-3.53883">
        <ele>7.21</ele>
        <time>2020-07-08T10:10:56Z</time>
      </trkpt>
      <trkpt lat="47.82559" lon="-3.53883">
        <ele>7.21</ele>
        <time>2020-07-08T10:10:57Z</time>
      </trkpt>
      <trkpt lat="47.82559" lon="-3.53883">
        <ele>7.21</ele>
        <time>2020-07-08T10:10:58Z</time>
      </trkpt>
      <trkpt lat="47.82559" lon="-3.53883">
        <ele>7.21</ele>
        <time>2020-07-08T10:10:59Z</time>
      </trkpt>
      <trkpt lat="47.82559" lon="-3.53883">
        <ele>7.21</ele>
        <time>2020-07-08T10:11:00Z</time>
      </trkpt>
      <trkpt lat="47.82559" lon="-3.53883">
        <ele>7.21</ele>
        <time>2020-07-08T10:11:01Z</time>
      </trkpt>
      <trkpt lat="47.82559" lon="-3.53883">
        <ele>7.21</ele>
        <time>2020-07-08T10:11:02Z</time>
      </trkpt>
      <trkpt lat="47.82559" lon="-3.53883">
        <ele>7.21</ele>
        <time>2020-07-08T10:11:03Z</time>
      </trkpt>
      <trkpt lat="47.82559" lon="-3.53883">
        <ele>7.21</ele>
        <time>2020-07-08T10:11:04Z</time>
      </trkpt>
      <trkpt lat="47.82559" lon="-3.53883">
        <ele>7.21</ele>
        <time>2020-07-08T10:11:05Z</time>
      </trkpt>
      <trkpt lat="47.82559" lon="-3.53883">
        <ele>7.21</ele>
        <time>2020-07-08T10:11:06Z</time>
      </trkpt>
      <trkpt lat="47.82559" lon="-3.53883">
        <ele>7.21</ele>
        <time>2020-07-08T10:11:07Z</time>
      </trkpt>
      <trkpt lat="47.82559" lon="-3.53883">
        <ele>7.21</ele>
        <time>2020-07-08T10:11:08Z</time>
      </trkpt>
      <trkpt lat="47.82559" lon="-3.53883">
        <ele>7.21</ele>
        <time>2020-07-08T10:11:09Z</time>
      </trkpt>
      <trkpt lat="47.82559" lon="-3.53883">
        <ele>7.21</ele>
        <time>2020-07-08T10:11:10Z</time>
      </trkpt>
      <trkpt lat="47.82559" lon="-3.53883">
        <ele>7.21</ele>
        <time>2020-07-08T10:11:11Z</time>
      </trkpt>
      <trkpt lat="47.82559" lon="-3.53883">
        <ele>7.21</ele>
        <time>2020-07-08T10:11:12Z</time>
      </trkpt>
      <trkpt lat="47.82559" lon="-3.53883">
        <ele>7.21</ele>
        <time>2020-07-08T10:11:13Z</time>
      </trkpt>
      <trkpt lat="47.82559" lon="-3.53883">
        <ele>7.21</ele>
        <time>2020-07-08T10:11:14Z</time>
      </trkpt>
      <trkpt lat="47.82559" lon="-3.53883">
        <ele>7.21</ele>
        <time>2020-07-08T10:11:15Z</time>
      </trkpt>
      <trkpt lat="47.82559" lon="-3.53883">
        <ele>7.21</ele>
        <time>2020-07-08T10:11:16Z</time>
      </trkpt>
      <trkpt lat="47.82559" lon="-3.53883">
        <ele>7.21</ele>
        <time>2020-07-08T10:11:17Z</time>
      </trkpt>
      <trkpt lat="47.82559" lon="-3.53883">
        <ele>7.21</ele>
        <time>2020-07-08T10:11:18Z</time>
      </trkpt>
      <trkpt lat="47.82559" lon="-3.53883">
        <ele>7.21</ele>
        <time>2020-07-08T10:11:19Z</time>
      </trkpt>
      <trkpt lat="47.82559" lon="-3.53883">
        <ele>7.21</ele>
        <time>2020-07-08T10:11:20Z</time>
      </trkpt>
      <trkpt lat="47.82559" lon="-3.53883">
        <ele>7.21</ele>
        <time>2020-07-08T10:11:21Z</time>
      </trkpt>
      <trkpt lat="47.82559" lon="-3.53883">
        <ele>7.21</ele>
        <time>2020-07-08T10:11:22Z</time>
      </trkpt>
      <trkpt lat="47.82559" lon="-3.53883">
        <ele>7.21</ele>
        <time>2020-07-08T10:11:23Z</time>
      </trkpt>
      <trkpt lat="47.82559" lon="-3.53883">
        <ele>7.21</ele>
        <time>2020-07-08T10:11:24Z</time>
      </trkpt>
      <trkpt lat="47.82559" lon="-3.53883">
        <ele>7.21</ele>
        <time>2020-07-08T10:11:25Z</time>
      </trkpt>
      <trkpt lat="47.82567" lon="-3.53876">
        <ele>8.51</ele>
        <time>2020-07-08T10:11:26Z</time>
      </trkpt>
      <trkpt lat="47.82568" lon="-3.53876">
        <ele>8.98</ele>
        <time>2020-07-08T10:11:27Z</time>
      </trkpt>
      <trkpt lat="47.82568" lon="-3.53875">
        <ele>9.25</ele>
        <time>2020-07-08T10:11:28Z</time>
      </trkpt>
      <trkpt lat="47.82569" lon="-3.53874">
        <ele>9.43</ele>
        <time>2020-07-08T10:11:29Z</time>
      </trkpt>
      <trkpt lat="47.82569" lon="-3.53874">
        <ele>9.48</ele>
        <time>2020-07-08T10:11:30Z</time>
      </trkpt>
      <trkpt lat="47.82569" lon="-3.53874">
        <ele>9.5</ele>
        <time>2020-07-08T10:11:31Z</time>
      </trkpt>
      <trkpt lat="47.82569" lon="-3.53874">
        <ele>9.5</ele>
        <time>2020-07-08T10:11:32Z</time>
      </trkpt>
      <trkpt lat="47.82569" lon="-3.53874">
        <ele>9.5</ele>
        <time>2020-07-08T10:11:33Z</time>
      </trkpt>
      <trkpt lat="47.82569" lon="-3.53874">
        <ele>9.5</ele>
        <time>2020-07-08T10:11:34Z</time>
      </trkpt>
      <trkpt lat="47.82569" lon="-3.53874">
        <ele>9.5</ele>
        <time>2020-07-08T10:11:35Z</time>
      </trkpt>
      <trkpt lat="47.82569" lon="-3.53874">
        <ele>9.5</ele>
        <time>2020-07-08T10:11:36Z</time>
      </trkpt>
      <trkpt lat="47.82569" lon="-3.53874">
        <ele>9.5</ele>
        <time>2020-07-08T10:11:37Z</time>
      </trkpt>
      <trkpt lat="47.82573" lon="-3.53886">
        <ele>8.27</ele>
        <time>2020-07-08T10:11:38Z</time>
      </trkpt>
      <trkpt lat="47.82574" lon="-3.53887">
        <ele>7.83</ele>
        <time>2020-07-08T10:11:39Z</time>
      </trkpt>
      <trkpt lat="47.82575" lon="-3.53888">
        <ele>7.69</ele>
        <time>2020-07-08T10:11:40Z</time>
      </trkpt>
      <trkpt lat="47.82576" lon="-3.53888">
        <ele>7.66</ele>
        <time>2020-07-08T10:11:41Z</time>
      </trkpt>
      <trkpt lat="47.82576" lon="-3.53888">
        <ele>7.66</ele>
        <time>2020-07-08T10:11:42Z</time>
      </trkpt>
      <trkpt lat="47.82576" lon="-3.53888">
        <ele>7.66</ele>
        <time>2020-07-08T10:11:43Z</time>
      </trkpt>
      <trkpt lat="47.82576" lon="-3.53888">
        <ele>7.66</ele>
        <time>2020-07-08T10:11:44Z</time>
      </trkpt>
      <trkpt lat="47.82576" lon="-3.53888">
        <ele>7.66</ele>
        <time>2020-07-08T10:11:45Z</time>
      </trkpt>
      <trkpt lat="47.82576" lon="-3.53888">
        <ele>7.66</ele>
        <time>2020-07-08T10:11:46Z</time>
      </trkpt>
      <trkpt lat="47.82576" lon="-3.53888">
        <ele>7.66</ele>
        <time>2020-07-08T10:11:47Z</time>
      </trkpt>
      <trkpt lat="47.82576" lon="-3.53888">
        <ele>7.66</ele>
        <time>2020-07-08T10:11:48Z</time>
      </trkpt>
      <trkpt lat="47.82576" lon="-3.53888">
        <ele>7.66</ele>
        <time>2020-07-08T10:11:49Z</time>
      </trkpt>
      <trkpt lat="47.82576" lon="-3.53888">
        <ele>7.66</ele>
        <time>2020-07-08T10:11:50Z</time>
      </trkpt>
      <trkpt lat="47.82576" lon="-3.53888">
        <ele>7.66</ele>
        <time>2020-07-08T10:11:51Z</time>
      </trkpt>
      <trkpt lat="47.82576" lon="-3.53888">
        <ele>7.66</ele>
        <time>2020-07-08T10:11:52Z</time>
      </trkpt>
      <trkpt lat="47.82585" lon="-3.5389">
        <ele>7.85</ele>
        <time>2020-07-08T10:11:54Z</time>
      </trkpt>
      <trkpt lat="47.82585" lon="-3.53891">
        <ele>7.79</ele>
        <time>2020-07-08T10:11:55Z</time>
      </trkpt>
      <trkpt lat="47.82586" lon="-3.53891">
        <ele>7.66</ele>
        <time>2020-07-08T10:11:56Z</time>
      </trkpt>
      <trkpt lat="47.82586" lon="-3.53891">
        <ele>7.63</ele>
        <time>2020-07-08T10:11:57Z</time>
      </trkpt>
      <trkpt lat="47.82586" lon="-3.53891">
        <ele>7.61</ele>
        <time>2020-07-08T10:11:58Z</time>
      </trkpt>
      <trkpt lat="47.82586" lon="-3.53891">
        <ele>7.61</ele>
        <time>2020-07-08T10:11:59Z</time>
      </trkpt>
      <trkpt lat="47.82586" lon="-3.53891">
        <ele>7.61</ele>
        <time>2020-07-08T10:12:00Z</time>
      </trkpt>
      <trkpt lat="47.82586" lon="-3.53891">
        <ele>7.61</ele>
        <time>2020-07-08T10:12:01Z</time>
      </trkpt>
      <trkpt lat="47.82586" lon="-3.53891">
        <ele>7.61</ele>
        <time>2020-07-08T10:12:02Z</time>
      </trkpt>
      <trkpt lat="47.82586" lon="-3.53891">
        <ele>7.61</ele>
        <time>2020-07-08T10:12:03Z</time>
      </trkpt>
      <trkpt lat="47.82586" lon="-3.53891">
        <ele>7.61</ele>
        <time>2020-07-08T10:12:04Z</time>
      </trkpt>
      <trkpt lat="47.82586" lon="-3.53891">
        <ele>7.61</ele>
        <time>2020-07-08T10:12:05Z</time>
      </trkpt>
      <trkpt lat="47.82586" lon="-3.53891">
        <ele>7.61</ele>
        <time>2020-07-08T10:12:06Z</time>
      </trkpt>
      <trkpt lat="47.82586" lon="-3.53891">
        <ele>7.61</ele>
        <time>2020-07-08T10:12:07Z</time>
      </trkpt>
      <trkpt lat="47.82586" lon="-3.53891">
        <ele>7.61</ele>
        <time>2020-07-08T10:12:08Z</time>
      </trkpt>
      <trkpt lat="47.82586" lon="-3.53891">
        <ele>7.61</ele>
        <time>2020-07-08T10:12:09Z</time>
      </trkpt>
      <trkpt lat="47.82586" lon="-3.53891">
        <ele>7.61</ele>
        <time>2020-07-08T10:12:10Z</time>
      </trkpt>
      <trkpt lat="47.82586" lon="-3.53891">
        <ele>7.61</ele>
        <time>2020-07-08T10:12:11Z</time>
      </trkpt>
      <trkpt lat="47.82586" lon="-3.53891">
        <ele>7.61</ele>
        <time>2020-07-08T10:12:12Z</time>
      </trkpt>
      <trkpt lat="47.82586" lon="-3.53891">
        <ele>7.61</ele>
        <time>2020-07-08T10:12:13Z</time>
      </trkpt>
      <trkpt lat="47.82586" lon="-3.53891">
        <ele>7.61</ele>
        <time>2020-07-08T10:12:14Z</time>
      </trkpt>
      <trkpt lat="47.82586" lon="-3.53891">
        <ele>7.61</ele>
        <time>2020-07-08T10:12:15Z</time>
      </trkpt>
      <trkpt lat="47.82586" lon="-3.53891">
        <ele>7.61</ele>
        <time>2020-07-08T10:12:16Z</time>
      </trkpt>
      <trkpt lat="47.82586" lon="-3.53891">
        <ele>7.61</ele>
        <time>2020-07-08T10:12:17Z</time>
      </trkpt>
      <trkpt lat="47.82586" lon="-3.53891">
        <ele>7.61</ele>
        <time>2020-07-08T10:12:18Z</time>
      </trkpt>
      <trkpt lat="47.82586" lon="-3.53891">
        <ele>7.61</ele>
        <time>2020-07-08T10:12:19Z</time>
      </trkpt>
      <trkpt lat="47.82586" lon="-3.53891">
        <ele>7.61</ele>
        <time>2020-07-08T10:12:20Z</time>
      </trkpt>
      <trkpt lat="47.82592" lon="-3.5389">
        <ele>8.47</ele>
        <time>2020-07-08T10:12:21Z</time>
      </trkpt>
      <trkpt lat="47.82592" lon="-3.5389">
        <ele>8.85</ele>
        <time>2020-07-08T10:12:22Z</time>
      </trkpt>
      <trkpt lat="47.82593" lon="-3.5389">
        <ele>9</ele>
        <time>2020-07-08T10:12:23Z</time>
      </trkpt>
      <trkpt lat="47.82593" lon="-3.5389">
        <ele>9.12</ele>
        <time>2020-07-08T10:12:24Z</time>
      </trkpt>
      <trkpt lat="47.82594" lon="-3.53889">
        <ele>9.3</ele>
        <time>2020-07-08T10:12:25Z</time>
      </trkpt>
      <trkpt lat="47.82594" lon="-3.53889">
        <ele>9.35</ele>
        <time>2020-07-08T10:12:26Z</time>
      </trkpt>
      <trkpt lat="47.82594" lon="-3.53889">
        <ele>9.37</ele>
        <time>2020-07-08T10:12:27Z</time>
      </trkpt>
      <trkpt lat="47.82594" lon="-3.53889">
        <ele>9.37</ele>
        <time>2020-07-08T10:12:28Z</time>
      </trkpt>
      <trkpt lat="47.82594" lon="-3.53889">
        <ele>9.37</ele>
        <time>2020-07-08T10:12:29Z</time>
      </trkpt>
      <trkpt lat="47.82594" lon="-3.53889">
        <ele>9.37</ele>
        <time>2020-07-08T10:12:30Z</time>
      </trkpt>
      <trkpt lat="47.82594" lon="-3.53889">
        <ele>9.37</ele>
        <time>2020-07-08T10:12:31Z</time>
      </trkpt>
      <trkpt lat="47.82594" lon="-3.53889">
        <ele>9.37</ele>
        <time>2020-07-08T10:12:32Z</time>
      </trkpt>
      <trkpt lat="47.82594" lon="-3.53889">
        <ele>9.37</ele>
        <time>2020-07-08T10:12:33Z</time>
      </trkpt>
      <trkpt lat="47.82594" lon="-3.53889">
        <ele>9.37</ele>
        <time>2020-07-08T10:12:34Z</time>
      </trkpt>
      <trkpt lat="47.82594" lon="-3.53889">
        <ele>9.37</ele>
        <time>2020-07-08T10:12:35Z</time>
      </trkpt>
      <trkpt lat="47.82594" lon="-3.53889">
        <ele>9.37</ele>
        <time>2020-07-08T10:12:36Z</time>
      </trkpt>
      <trkpt lat="47.82594" lon="-3.53889">
        <ele>9.37</ele>
        <time>2020-07-08T10:12:37Z</time>
      </trkpt>
      <trkpt lat="47.82594" lon="-3.53889">
        <ele>9.37</ele>
        <time>2020-07-08T10:12:38Z</time>
      </trkpt>
      <trkpt lat="47.82594" lon="-3.53889">
        <ele>9.37</ele>
        <time>2020-07-08T10:12:39Z</time>
      </trkpt>
      <trkpt lat="47.82594" lon="-3.53889">
        <ele>9.37</ele>
        <time>2020-07-08T10:12:40Z</time>
      </trkpt>
      <trkpt lat="47.82594" lon="-3.53889">
        <ele>9.37</ele>
        <time>2020-07-08T10:12:41Z</time>
      </trkpt>
      <trkpt lat="47.82594" lon="-3.53889">
        <ele>9.37</ele>
        <time>2020-07-08T10:12:42Z</time>
      </trkpt>
      <trkpt lat="47.82594" lon="-3.53889">
        <ele>9.37</ele>
        <time>2020-07-08T10:12:43Z</time>
      </trkpt>
      <trkpt lat="47.82594" lon="-3.53889">
        <ele>9.37</ele>
        <time>2020-07-08T10:12:44Z</time>
      </trkpt>
      <trkpt lat="47.82594" lon="-3.53889">
        <ele>9.37</ele>
        <time>2020-07-08T10:12:45Z</time>
      </trkpt>
      <trkpt lat="47.82594" lon="-3.53889">
        <ele>9.37</ele>
        <time>2020-07-08T10:12:46Z</time>
      </trkpt>
      <trkpt lat="47.82594" lon="-3.53889">
        <ele>9.37</ele>
        <time>2020-07-08T10:12:47Z</time>
      </trkpt>
      <trkpt lat="47.82594" lon="-3.53889">
        <ele>9.37</ele>
        <time>2020-07-08T10:12:48Z</time>
      </trkpt>
      <trkpt lat="47.82594" lon="-3.53889">
        <ele>9.37</ele>
        <time>2020-07-08T10:12:49Z</time>
      </trkpt>
      <trkpt lat="47.82594" lon="-3.53889">
        <ele>9.37</ele>
        <time>2020-07-08T10:12:50Z</time>
      </trkpt>
      <trkpt lat="47.82594" lon="-3.53889">
        <ele>9.37</ele>
        <time>2020-07-08T10:12:51Z</time>
      </trkpt>
      <trkpt lat="47.82594" lon="-3.53889">
        <ele>9.37</ele>
        <time>2020-07-08T10:12:52Z</time>
      </trkpt>
      <trkpt lat="47.82603" lon="-3.53891">
        <ele>9.81</ele>
        <time>2020-07-08T10:12:53Z</time>
      </trkpt>
      <trkpt lat="47.82603" lon="-3.53892">
        <ele>9.85</ele>
        <time>2020-07-08T10:12:54Z</time>
      </trkpt>
      <trkpt lat="47.82604" lon="-3.53893">
        <ele>9.74</ele>
        <time>2020-07-08T10:12:55Z</time>
      </trkpt>
      <trkpt lat="47.82606" lon="-3.53893">
        <ele>9.82</ele>
        <time>2020-07-08T10:12:56Z</time>
      </trkpt>
      <trkpt lat="47.82606" lon="-3.53893">
        <ele>9.85</ele>
        <time>2020-07-08T10:12:57Z</time>
      </trkpt>
      <trkpt lat="47.82606" lon="-3.53893">
        <ele>9.86</ele>
        <time>2020-07-08T10:12:58Z</time>
      </trkpt>
      <trkpt lat="47.82606" lon="-3.53893">
        <ele>9.86</ele>
        <time>2020-07-08T10:12:59Z</time>
      </trkpt>
      <trkpt lat="47.82606" lon="-3.53893">
        <ele>9.86</ele>
        <time>2020-07-08T10:13:00Z</time>
      </trkpt>
      <trkpt lat="47.82606" lon="-3.53893">
        <ele>9.86</ele>
        <time>2020-07-08T10:13:01Z</time>
      </trkpt>
      <trkpt lat="47.82606" lon="-3.53893">
        <ele>9.86</ele>
        <time>2020-07-08T10:13:02Z</time>
      </trkpt>
      <trkpt lat="47.82606" lon="-3.53893">
        <ele>9.86</ele>
        <time>2020-07-08T10:13:03Z</time>
      </trkpt>
      <trkpt lat="47.82606" lon="-3.53893">
        <ele>9.86</ele>
        <time>2020-07-08T10:13:04Z</time>
      </trkpt>
      <trkpt lat="47.82606" lon="-3.53893">
        <ele>9.86</ele>
        <time>2020-07-08T10:13:05Z</time>
      </trkpt>
      <trkpt lat="47.82606" lon="-3.53893">
        <ele>9.86</ele>
        <time>2020-07-08T10:13:06Z</time>
      </trkpt>
      <trkpt lat="47.82606" lon="-3.53893">
        <ele>9.86</ele>
        <time>2020-07-08T10:13:07Z</time>
      </trkpt>
      <trkpt lat="47.82606" lon="-3.53893">
        <ele>9.86</ele>
        <time>2020-07-08T10:13:08Z</time>
      </trkpt>
      <trkpt lat="47.82606" lon="-3.53893">
        <ele>9.86</ele>
        <time>2020-07-08T10:13:09Z</time>
      </trkpt>
      <trkpt lat="47.82606" lon="-3.53893">
        <ele>9.86</ele>
        <time>2020-07-08T10:13:10Z</time>
      </trkpt>
      <trkpt lat="47.82606" lon="-3.53893">
        <ele>9.86</ele>
        <time>2020-07-08T10:13:11Z</time>
      </trkpt>
      <trkpt lat="47.82606" lon="-3.53893">
        <ele>9.86</ele>
        <time>2020-07-08T10:13:12Z</time>
      </trkpt>
      <trkpt lat="47.82606" lon="-3.53893">
        <ele>9.86</ele>
        <time>2020-07-08T10:13:13Z</time>
      </trkpt>
      <trkpt lat="47.82606" lon="-3.53893">
        <ele>9.86</ele>
        <time>2020-07-08T10:13:14Z</time>
      </trkpt>
      <trkpt lat="47.82606" lon="-3.53893">
        <ele>9.86</ele>
        <time>2020-07-08T10:13:15Z</time>
      </trkpt>
      <trkpt lat="47.82606" lon="-3.53893">
        <ele>9.86</ele>
        <time>2020-07-08T10:13:16Z</time>
      </trkpt>
      <trkpt lat="47.82606" lon="-3.53893">
        <ele>9.86</ele>
        <time>2020-07-08T10:13:17Z</time>
      </trkpt>
      <trkpt lat="47.82614" lon="-3.53897">
        <ele>9.59</ele>
        <time>2020-07-08T10:13:18Z</time>
      </trkpt>
      <trkpt lat="47.82615" lon="-3.53897">
        <ele>9.54</ele>
        <time>2020-07-08T10:13:19Z</time>
      </trkpt>
      <trkpt lat="47.82615" lon="-3.53897">
        <ele>9.41</ele>
        <time>2020-07-08T10:13:20Z</time>
      </trkpt>
      <trkpt lat="47.82615" lon="-3.53898">
        <ele>9.29</ele>
        <time>2020-07-08T10:13:21Z</time>
      </trkpt>
      <trkpt lat="47.82615" lon="-3.53898">
        <ele>9.25</ele>
        <time>2020-07-08T10:13:22Z</time>
      </trkpt>
      <trkpt lat="47.82615" lon="-3.53898">
        <ele>9.24</ele>
        <time>2020-07-08T10:13:23Z</time>
      </trkpt>
      <trkpt lat="47.82615" lon="-3.53898">
        <ele>9.24</ele>
        <time>2020-07-08T10:13:24Z</time>
      </trkpt>
      <trkpt lat="47.82615" lon="-3.53898">
        <ele>9.24</ele>
        <time>2020-07-08T10:13:25Z</time>
      </trkpt>
      <trkpt lat="47.82615" lon="-3.53898">
        <ele>9.24</ele>
        <time>2020-07-08T10:13:26Z</time>
      </trkpt>
      <trkpt lat="47.82615" lon="-3.53898">
        <ele>9.24</ele>
        <time>2020-07-08T10:13:27Z</time>
      </trkpt>
      <trkpt lat="47.82615" lon="-3.53898">
        <ele>9.24</ele>
        <time>2020-07-08T10:13:28Z</time>
      </trkpt>
      <trkpt lat="47.82615" lon="-3.53898">
        <ele>9.24</ele>
        <time>2020-07-08T10:13:29Z</time>
      </trkpt>
      <trkpt lat="47.82615" lon="-3.53898">
        <ele>9.24</ele>
        <time>2020-07-08T10:13:30Z</time>
      </trkpt>
      <trkpt lat="47.82615" lon="-3.53898">
        <ele>9.24</ele>
        <time>2020-07-08T10:13:31Z</time>
      </trkpt>
      <trkpt lat="47.82615" lon="-3.53898">
        <ele>9.24</ele>
        <time>2020-07-08T10:13:32Z</time>
      </trkpt>
      <trkpt lat="47.82615" lon="-3.53898">
        <ele>9.24</ele>
        <time>2020-07-08T10:13:33Z</time>
      </trkpt>
      <trkpt lat="47.82615" lon="-3.53898">
        <ele>9.24</ele>
        <time>2020-07-08T10:13:34Z</time>
      </trkpt>
      <trkpt lat="47.82615" lon="-3.53898">
        <ele>9.24</ele>
        <time>2020-07-08T10:13:35Z</time>
      </trkpt>
      <trkpt lat="47.82615" lon="-3.53898">
        <ele>9.24</ele>
        <time>2020-07-08T10:13:36Z</time>
      </trkpt>
      <trkpt lat="47.82615" lon="-3.53898">
        <ele>9.24</ele>
        <time>2020-07-08T10:13:37Z</time>
      </trkpt>
      <trkpt lat="47.82615" lon="-3.53898">
        <ele>9.24</ele>
        <time>2020-07-08T10:13:38Z</time>
      </trkpt>
      <trkpt lat="47.82615" lon="-3.53898">
        <ele>9.24</ele>
        <time>2020-07-08T10:13:39Z</time>
      </trkpt>
      <trkpt lat="47.82615" lon="-3.53898">
        <ele>9.24</ele>
        <time>2020-07-08T10:13:40Z</time>
      </trkpt>
      <trkpt lat="47.82615" lon="-3.53898">
        <ele>9.24</ele>
        <time>2020-07-08T10:13:41Z</time>
      </trkpt>
      <trkpt lat="47.82615" lon="-3.53898">
        <ele>9.24</ele>
        <time>2020-07-08T10:13:42Z</time>
      </trkpt>
      <trkpt lat="47.82615" lon="-3.53898">
        <ele>9.24</ele>
        <time>2020-07-08T10:13:43Z</time>
      </trkpt>
      <trkpt lat="47.82615" lon="-3.53898">
        <ele>9.24</ele>
        <time>2020-07-08T10:13:44Z</time>
      </trkpt>
      <trkpt lat="47.82615" lon="-3.53898">
        <ele>9.24</ele>
        <time>2020-07-08T10:13:45Z</time>
      </trkpt>
      <trkpt lat="47.82615" lon="-3.53898">
        <ele>9.24</ele>
        <time>2020-07-08T10:13:46Z</time>
      </trkpt>
      <trkpt lat="47.82615" lon="-3.53898">
        <ele>9.24</ele>
        <time>2020-07-08T10:13:47Z</time>
      </trkpt>
      <trkpt lat="47.82615" lon="-3.53898">
        <ele>9.24</ele>
        <time>2020-07-08T10:13:48Z</time>
      </trkpt>
      <trkpt lat="47.82615" lon="-3.53898">
        <ele>9.24</ele>
        <time>2020-07-08T10:13:49Z</time>
      </trkpt>
      <trkpt lat="47.82615" lon="-3.53898">
        <ele>9.24</ele>
        <time>2020-07-08T10:13:50Z</time>
      </trkpt>
      <trkpt lat="47.82615" lon="-3.53898">
        <ele>9.24</ele>
        <time>2020-07-08T10:13:51Z</time>
      </trkpt>
      <trkpt lat="47.82615" lon="-3.53898">
        <ele>9.24</ele>
        <time>2020-07-08T10:13:52Z</time>
      </trkpt>
      <trkpt lat="47.82615" lon="-3.53898">
        <ele>9.24</ele>
        <time>2020-07-08T10:13:53Z</time>
      </trkpt>
      <trkpt lat="47.82625" lon="-3.53897">
        <ele>10.69</ele>
        <time>2020-07-08T10:13:54Z</time>
      </trkpt>
      <trkpt lat="47.82626" lon="-3.53896">
        <ele>11.28</ele>
        <time>2020-07-08T10:13:55Z</time>
      </trkpt>
      <trkpt lat="47.82626" lon="-3.53896">
        <ele>11.78</ele>
        <time>2020-07-08T10:13:56Z</time>
      </trkpt>
      <trkpt lat="47.82627" lon="-3.53896">
        <ele>11.85</ele>
        <time>2020-07-08T10:13:57Z</time>
      </trkpt>
      <trkpt lat="47.82627" lon="-3.53896">
        <ele>11.87</ele>
        <time>2020-07-08T10:13:58Z</time>
      </trkpt>
      <trkpt lat="47.82627" lon="-3.53896">
        <ele>11.88</ele>
        <time>2020-07-08T10:13:59Z</time>
      </trkpt>
      <trkpt lat="47.82627" lon="-3.53896">
        <ele>11.88</ele>
        <time>2020-07-08T10:14:00Z</time>
      </trkpt>
      <trkpt lat="47.82627" lon="-3.53896">
        <ele>11.88</ele>
        <time>2020-07-08T10:14:01Z</time>
      </trkpt>
      <trkpt lat="47.82627" lon="-3.53896">
        <ele>11.88</ele>
        <time>2020-07-08T10:14:02Z</time>
      </trkpt>
      <trkpt lat="47.82627" lon="-3.53896">
        <ele>11.88</ele>
        <time>2020-07-08T10:14:03Z</time>
      </trkpt>
      <trkpt lat="47.82627" lon="-3.53896">
        <ele>11.88</ele>
        <time>2020-07-08T10:14:04Z</time>
      </trkpt>
      <trkpt lat="47.82627" lon="-3.53896">
        <ele>11.88</ele>
        <time>2020-07-08T10:14:05Z</time>
      </trkpt>
      <trkpt lat="47.82627" lon="-3.53896">
        <ele>11.88</ele>
        <time>2020-07-08T10:14:06Z</time>
      </trkpt>
      <trkpt lat="47.82627" lon="-3.53896">
        <ele>11.88</ele>
        <time>2020-07-08T10:14:07Z</time>
      </trkpt>
      <trkpt lat="47.82627" lon="-3.53896">
        <ele>11.88</ele>
        <time>2020-07-08T10:14:08Z</time>
      </trkpt>
      <trkpt lat="47.82627" lon="-3.53896">
        <ele>11.88</ele>
        <time>2020-07-08T10:14:09Z</time>
      </trkpt>
      <trkpt lat="47.82627" lon="-3.53896">
        <ele>11.88</ele>
        <time>2020-07-08T10:14:10Z</time>
      </trkpt>
      <trkpt lat="47.82635" lon="-3.53891">
        <ele>14.37</ele>
        <time>2020-07-08T10:14:11Z</time>
      </trkpt>
      <trkpt lat="47.82636" lon="-3.5389">
        <ele>15.45</ele>
        <time>2020-07-08T10:14:12Z</time>
      </trkpt>
      <trkpt lat="47.82636" lon="-3.53889">
        <ele>16.24</ele>
        <time>2020-07-08T10:14:13Z</time>
      </trkpt>
      <trkpt lat="47.82637" lon="-3.53888">
        <ele>16.72</ele>
        <time>2020-07-08T10:14:14Z</time>
      </trkpt>
      <trkpt lat="47.82637" lon="-3.53888">
        <ele>16.86</ele>
        <time>2020-07-08T10:14:15Z</time>
      </trkpt>
      <trkpt lat="47.82637" lon="-3.53888">
        <ele>16.9</ele>
        <time>2020-07-08T10:14:16Z</time>
      </trkpt>
      <trkpt lat="47.82637" lon="-3.53888">
        <ele>16.91</ele>
        <time>2020-07-08T10:14:17Z</time>
      </trkpt>
      <trkpt lat="47.82637" lon="-3.53888">
        <ele>16.92</ele>
        <time>2020-07-08T10:14:18Z</time>
      </trkpt>
      <trkpt lat="47.82637" lon="-3.53888">
        <ele>16.92</ele>
        <time>2020-07-08T10:14:19Z</time>
      </trkpt>
      <trkpt lat="47.82637" lon="-3.53888">
        <ele>16.92</ele>
        <time>2020-07-08T10:14:20Z</time>
      </trkpt>
      <trkpt lat="47.82637" lon="-3.53888">
        <ele>16.92</ele>
        <time>2020-07-08T10:14:21Z</time>
      </trkpt>
      <trkpt lat="47.82637" lon="-3.53888">
        <ele>16.92</ele>
        <time>2020-07-08T10:14:22Z</time>
      </trkpt>
      <trkpt lat="47.82637" lon="-3.53888">
        <ele>16.92</ele>
        <time>2020-07-08T10:14:23Z</time>
      </trkpt>
      <trkpt lat="47.82637" lon="-3.53888">
        <ele>16.92</ele>
        <time>2020-07-08T10:14:24Z</time>
      </trkpt>
      <trkpt lat="47.82637" lon="-3.53888">
        <ele>16.92</ele>
        <time>2020-07-08T10:14:25Z</time>
      </trkpt>
      <trkpt lat="47.82637" lon="-3.53888">
        <ele>16.92</ele>
        <time>2020-07-08T10:14:26Z</time>
      </trkpt>
      <trkpt lat="47.82637" lon="-3.53888">
        <ele>16.92</ele>
        <time>2020-07-08T10:14:27Z</time>
      </trkpt>
      <trkpt lat="47.82637" lon="-3.53888">
        <ele>16.92</ele>
        <time>2020-07-08T10:14:28Z</time>
      </trkpt>
      <trkpt lat="47.82637" lon="-3.53888">
        <ele>16.92</ele>
        <time>2020-07-08T10:14:29Z</time>
      </trkpt>
      <trkpt lat="47.82637" lon="-3.53888">
        <ele>16.92</ele>
        <time>2020-07-08T10:14:30Z</time>
      </trkpt>
      <trkpt lat="47.82637" lon="-3.53888">
        <ele>16.92</ele>
        <time>2020-07-08T10:14:31Z</time>
      </trkpt>
      <trkpt lat="47.82637" lon="-3.53888">
        <ele>16.92</ele>
        <time>2020-07-08T10:14:32Z</time>
      </trkpt>
      <trkpt lat="47.82637" lon="-3.53888">
        <ele>16.92</ele>
        <time>2020-07-08T10:14:33Z</time>
      </trkpt>
      <trkpt lat="47.82637" lon="-3.53888">
        <ele>16.92</ele>
        <time>2020-07-08T10:14:34Z</time>
      </trkpt>
      <trkpt lat="47.82637" lon="-3.53888">
        <ele>16.92</ele>
        <time>2020-07-08T10:14:35Z</time>
      </trkpt>
      <trkpt lat="47.82647" lon="-3.53883">
        <ele>18.39</ele>
        <time>2020-07-08T10:14:36Z</time>
      </trkpt>
      <trkpt lat="47.82647" lon="-3.53883">
        <ele>18.85</ele>
        <time>2020-07-08T10:14:37Z</time>
      </trkpt>
      <trkpt lat="47.82649" lon="-3.53883">
        <ele>19.04</ele>
        <time>2020-07-08T10:14:38Z</time>
      </trkpt>
      <trkpt lat="47.82651" lon="-3.53883">
        <ele>19.17</ele>
        <time>2020-07-08T10:14:39Z</time>
      </trkpt>
      <trkpt lat="47.82654" lon="-3.53885">
        <ele>18.9</ele>
        <time>2020-07-08T10:14:40Z</time>
      </trkpt>
      <trkpt lat="47.82656" lon="-3.53885">
        <ele>18.85</ele>
        <time>2020-07-08T10:14:41Z</time>
      </trkpt>
      <trkpt lat="47.82659" lon="-3.53885">
        <ele>19.01</ele>
        <time>2020-07-08T10:14:42Z</time>
      </trkpt>
      <trkpt lat="47.8266" lon="-3.53886">
        <ele>18.88</ele>
        <time>2020-07-08T10:14:43Z</time>
      </trkpt>
      <trkpt lat="47.82662" lon="-3.53886">
        <ele>18.8</ele>
        <time>2020-07-08T10:14:44Z</time>
      </trkpt>
      <trkpt lat="47.82664" lon="-3.53886">
        <ele>18.75</ele>
        <time>2020-07-08T10:14:45Z</time>
      </trkpt>
      <trkpt lat="47.82666" lon="-3.53887">
        <ele>18.68</ele>
        <time>2020-07-08T10:14:46Z</time>
      </trkpt>
      <trkpt lat="47.82668" lon="-3.53888">
        <ele>18.49</ele>
        <time>2020-07-08T10:14:47Z</time>
      </trkpt>
      <trkpt lat="47.8267" lon="-3.53889">
        <ele>18.34</ele>
        <time>2020-07-08T10:14:48Z</time>
      </trkpt>
      <trkpt lat="47.82671" lon="-3.53889">
        <ele>18.22</ele>
        <time>2020-07-08T10:14:49Z</time>
      </trkpt>
      <trkpt lat="47.82673" lon="-3.5389">
        <ele>18.15</ele>
        <time>2020-07-08T10:14:50Z</time>
      </trkpt>
      <trkpt lat="47.82673" lon="-3.5389">
        <ele>18.08</ele>
        <time>2020-07-08T10:14:51Z</time>
      </trkpt>
      <trkpt lat="47.82674" lon="-3.5389">
        <ele>18.1</ele>
        <time>2020-07-08T10:14:52Z</time>
      </trkpt>
      <trkpt lat="47.82674" lon="-3.5389">
        <ele>18.09</ele>
        <time>2020-07-08T10:14:53Z</time>
      </trkpt>
      <trkpt lat="47.82674" lon="-3.5389">
        <ele>18.09</ele>
        <time>2020-07-08T10:14:54Z</time>
      </trkpt>
      <trkpt lat="47.82674" lon="-3.5389">
        <ele>18.08</ele>
        <time>2020-07-08T10:14:55Z</time>
      </trkpt>
      <trkpt lat="47.82678" lon="-3.53893">
        <ele>17.65</ele>
        <time>2020-07-08T10:14:56Z</time>
      </trkpt>
      <trkpt lat="47.82679" lon="-3.53892">
        <ele>17.7</ele>
        <time>2020-07-08T10:14:57Z</time>
      </trkpt>
      <trkpt lat="47.82682" lon="-3.53894">
        <ele>17.42</ele>
        <time>2020-07-08T10:14:58Z</time>
      </trkpt>
      <trkpt lat="47.82683" lon="-3.53895">
        <ele>17.16</ele>
        <time>2020-07-08T10:14:59Z</time>
      </trkpt>
      <trkpt lat="47.82686" lon="-3.53897">
        <ele>16.63</ele>
        <time>2020-07-08T10:15:00Z</time>
      </trkpt>
      <trkpt lat="47.82688" lon="-3.53899">
        <ele>16.31</ele>
        <time>2020-07-08T10:15:01Z</time>
      </trkpt>
      <trkpt lat="47.82687" lon="-3.53901">
        <ele>15.68</ele>
        <time>2020-07-08T10:15:02Z</time>
      </trkpt>
      <trkpt lat="47.82688" lon="-3.53903">
        <ele>14.99</ele>
        <time>2020-07-08T10:15:03Z</time>
      </trkpt>
      <trkpt lat="47.82689" lon="-3.53905">
        <ele>14.38</ele>
        <time>2020-07-08T10:15:04Z</time>
      </trkpt>
      <trkpt lat="47.82691" lon="-3.53907">
        <ele>13.87</ele>
        <time>2020-07-08T10:15:05Z</time>
      </trkpt>
      <trkpt lat="47.82693" lon="-3.53909">
        <ele>13.41</ele>
        <time>2020-07-08T10:15:06Z</time>
      </trkpt>
      <trkpt lat="47.82694" lon="-3.53911">
        <ele>13</ele>
        <time>2020-07-08T10:15:07Z</time>
      </trkpt>
      <trkpt lat="47.82696" lon="-3.53912">
        <ele>12.71</ele>
        <time>2020-07-08T10:15:08Z</time>
      </trkpt>
      <trkpt lat="47.82697" lon="-3.53912">
        <ele>12.59</ele>
        <time>2020-07-08T10:15:09Z</time>
      </trkpt>
      <trkpt lat="47.82697" lon="-3.53912">
        <ele>12.55</ele>
        <time>2020-07-08T10:15:10Z</time>
      </trkpt>
      <trkpt lat="47.82697" lon="-3.53914">
        <ele>12.27</ele>
        <time>2020-07-08T10:15:11Z</time>
      </trkpt>
      <trkpt lat="47.82699" lon="-3.53915">
        <ele>11.99</ele>
        <time>2020-07-08T10:15:12Z</time>
      </trkpt>
      <trkpt lat="47.827" lon="-3.53916">
        <ele>11.73</ele>
        <time>2020-07-08T10:15:13Z</time>
      </trkpt>
      <trkpt lat="47.82702" lon="-3.53917">
        <ele>11.59</ele>
        <time>2020-07-08T10:15:14Z</time>
      </trkpt>
      <trkpt lat="47.82705" lon="-3.53917">
        <ele>11.58</ele>
        <time>2020-07-08T10:15:15Z</time>
      </trkpt>
      <trkpt lat="47.82708" lon="-3.53919">
        <ele>11.48</ele>
        <time>2020-07-08T10:15:16Z</time>
      </trkpt>
      <trkpt lat="47.82712" lon="-3.5392">
        <ele>11.41</ele>
        <time>2020-07-08T10:15:17Z</time>
      </trkpt>
      <trkpt lat="47.82714" lon="-3.53921">
        <ele>11.43</ele>
        <time>2020-07-08T10:15:18Z</time>
      </trkpt>
      <trkpt lat="47.82715" lon="-3.53922">
        <ele>11.39</ele>
        <time>2020-07-08T10:15:19Z</time>
      </trkpt>
      <trkpt lat="47.82717" lon="-3.53923">
        <ele>11.29</ele>
        <time>2020-07-08T10:15:20Z</time>
      </trkpt>
      <trkpt lat="47.8272" lon="-3.53924">
        <ele>11.18</ele>
        <time>2020-07-08T10:15:21Z</time>
      </trkpt>
      <trkpt lat="47.82723" lon="-3.53926">
        <ele>11.02</ele>
        <time>2020-07-08T10:15:22Z</time>
      </trkpt>
      <trkpt lat="47.82726" lon="-3.53928">
        <ele>10.94</ele>
        <time>2020-07-08T10:15:23Z</time>
      </trkpt>
      <trkpt lat="47.82728" lon="-3.53929">
        <ele>10.94</ele>
        <time>2020-07-08T10:15:24Z</time>
      </trkpt>
      <trkpt lat="47.82731" lon="-3.5393">
        <ele>10.95</ele>
        <time>2020-07-08T10:15:25Z</time>
      </trkpt>
      <trkpt lat="47.82733" lon="-3.53931">
        <ele>10.91</ele>
        <time>2020-07-08T10:15:26Z</time>
      </trkpt>
      <trkpt lat="47.82736" lon="-3.53932">
        <ele>10.97</ele>
        <time>2020-07-08T10:15:27Z</time>
      </trkpt>
      <trkpt lat="47.82738" lon="-3.53932">
        <ele>10.99</ele>
        <time>2020-07-08T10:15:28Z</time>
      </trkpt>
      <trkpt lat="47.8274" lon="-3.53934">
        <ele>10.89</ele>
        <time>2020-07-08T10:15:29Z</time>
      </trkpt>
      <trkpt lat="47.82743" lon="-3.53935">
        <ele>10.78</ele>
        <time>2020-07-08T10:15:30Z</time>
      </trkpt>
      <trkpt lat="47.82745" lon="-3.53937">
        <ele>10.61</ele>
        <time>2020-07-08T10:15:31Z</time>
      </trkpt>
      <trkpt lat="47.82748" lon="-3.53938">
        <ele>10.59</ele>
        <time>2020-07-08T10:15:32Z</time>
      </trkpt>
      <trkpt lat="47.82752" lon="-3.53938">
        <ele>10.9</ele>
        <time>2020-07-08T10:15:33Z</time>
      </trkpt>
      <trkpt lat="47.82757" lon="-3.53939">
        <ele>11.4</ele>
        <time>2020-07-08T10:15:34Z</time>
      </trkpt>
      <trkpt lat="47.82761" lon="-3.53939">
        <ele>11.98</ele>
        <time>2020-07-08T10:15:35Z</time>
      </trkpt>
      <trkpt lat="47.82764" lon="-3.53941">
        <ele>12.28</ele>
        <time>2020-07-08T10:15:36Z</time>
      </trkpt>
      <trkpt lat="47.82766" lon="-3.53941">
        <ele>12.59</ele>
        <time>2020-07-08T10:15:37Z</time>
      </trkpt>
      <trkpt lat="47.82769" lon="-3.53942">
        <ele>12.89</ele>
        <time>2020-07-08T10:15:38Z</time>
      </trkpt>
      <trkpt lat="47.82771" lon="-3.53943">
        <ele>13.1</ele>
        <time>2020-07-08T10:15:39Z</time>
      </trkpt>
      <trkpt lat="47.82774" lon="-3.53945">
        <ele>13.16</ele>
        <time>2020-07-08T10:15:40Z</time>
      </trkpt>
      <trkpt lat="47.82777" lon="-3.53947">
        <ele>13.12</ele>
        <time>2020-07-08T10:15:41Z</time>
      </trkpt>
      <trkpt lat="47.82779" lon="-3.53949">
        <ele>12.97</ele>
        <time>2020-07-08T10:15:42Z</time>
      </trkpt>
      <trkpt lat="47.82781" lon="-3.5395">
        <ele>12.82</ele>
        <time>2020-07-08T10:15:43Z</time>
      </trkpt>
      <trkpt lat="47.82783" lon="-3.5395">
        <ele>12.85</ele>
        <time>2020-07-08T10:15:44Z</time>
      </trkpt>
      <trkpt lat="47.82786" lon="-3.5395">
        <ele>12.99</ele>
        <time>2020-07-08T10:15:45Z</time>
      </trkpt>
      <trkpt lat="47.82788" lon="-3.53951">
        <ele>13.03</ele>
        <time>2020-07-08T10:15:46Z</time>
      </trkpt>
      <trkpt lat="47.82791" lon="-3.53952">
        <ele>13.21</ele>
        <time>2020-07-08T10:15:47Z</time>
      </trkpt>
      <trkpt lat="47.82794" lon="-3.53953">
        <ele>13.25</ele>
        <time>2020-07-08T10:15:48Z</time>
      </trkpt>
      <trkpt lat="47.82798" lon="-3.53953">
        <ele>13.37</ele>
        <time>2020-07-08T10:15:49Z</time>
      </trkpt>
      <trkpt lat="47.82802" lon="-3.53954">
        <ele>13.57</ele>
        <time>2020-07-08T10:15:50Z</time>
      </trkpt>
      <trkpt lat="47.82805" lon="-3.53954">
        <ele>13.84</ele>
        <time>2020-07-08T10:15:51Z</time>
      </trkpt>
      <trkpt lat="47.82808" lon="-3.53954">
        <ele>13.97</ele>
        <time>2020-07-08T10:15:52Z</time>
      </trkpt>
      <trkpt lat="47.82812" lon="-3.53955">
        <ele>14.06</ele>
        <time>2020-07-08T10:15:53Z</time>
      </trkpt>
      <trkpt lat="47.82816" lon="-3.53957">
        <ele>13.75</ele>
        <time>2020-07-08T10:15:54Z</time>
      </trkpt>
      <trkpt lat="47.82819" lon="-3.53955">
        <ele>14.11</ele>
        <time>2020-07-08T10:15:55Z</time>
      </trkpt>
      <trkpt lat="47.82822" lon="-3.53955">
        <ele>14.48</ele>
        <time>2020-07-08T10:15:56Z</time>
      </trkpt>
      <trkpt lat="47.82824" lon="-3.53954">
        <ele>14.83</ele>
        <time>2020-07-08T10:15:57Z</time>
      </trkpt>
      <trkpt lat="47.82826" lon="-3.53955">
        <ele>14.82</ele>
        <time>2020-07-08T10:15:58Z</time>
      </trkpt>
      <trkpt lat="47.82827" lon="-3.53955">
        <ele>14.84</ele>
        <time>2020-07-08T10:15:59Z</time>
      </trkpt>
      <trkpt lat="47.82831" lon="-3.53956">
        <ele>14.81</ele>
        <time>2020-07-08T10:16:00Z</time>
      </trkpt>
      <trkpt lat="47.82833" lon="-3.53956">
        <ele>14.76</ele>
        <time>2020-07-08T10:16:01Z</time>
      </trkpt>
      <trkpt lat="47.82836" lon="-3.53958">
        <ele>14.5</ele>
        <time>2020-07-08T10:16:02Z</time>
      </trkpt>
      <trkpt lat="47.82838" lon="-3.53959">
        <ele>14.03</ele>
        <time>2020-07-08T10:16:03Z</time>
      </trkpt>
      <trkpt lat="47.82842" lon="-3.53963">
        <ele>12.93</ele>
        <time>2020-07-08T10:16:04Z</time>
      </trkpt>
      <trkpt lat="47.82846" lon="-3.53963">
        <ele>12.68</ele>
        <time>2020-07-08T10:16:05Z</time>
      </trkpt>
      <trkpt lat="47.82848" lon="-3.53963">
        <ele>12.76</ele>
        <time>2020-07-08T10:16:06Z</time>
      </trkpt>
      <trkpt lat="47.82851" lon="-3.53963">
        <ele>12.94</ele>
        <time>2020-07-08T10:16:07Z</time>
      </trkpt>
      <trkpt lat="47.82853" lon="-3.53964">
        <ele>12.85</ele>
        <time>2020-07-08T10:16:08Z</time>
      </trkpt>
      <trkpt lat="47.82855" lon="-3.53964">
        <ele>12.86</ele>
        <time>2020-07-08T10:16:09Z</time>
      </trkpt>
      <trkpt lat="47.82856" lon="-3.53964">
        <ele>12.81</ele>
        <time>2020-07-08T10:16:10Z</time>
      </trkpt>
      <trkpt lat="47.82858" lon="-3.53964">
        <ele>12.79</ele>
        <time>2020-07-08T10:16:11Z</time>
      </trkpt>
      <trkpt lat="47.82859" lon="-3.53965">
        <ele>12.73</ele>
        <time>2020-07-08T10:16:12Z</time>
      </trkpt>
      <trkpt lat="47.8286" lon="-3.53964">
        <ele>12.83</ele>
        <time>2020-07-08T10:16:13Z</time>
      </trkpt>
      <trkpt lat="47.82862" lon="-3.53965">
        <ele>12.59</ele>
        <time>2020-07-08T10:16:14Z</time>
      </trkpt>
      <trkpt lat="47.82864" lon="-3.53966">
        <ele>12.46</ele>
        <time>2020-07-08T10:16:15Z</time>
      </trkpt>
      <trkpt lat="47.82867" lon="-3.53967">
        <ele>12.36</ele>
        <time>2020-07-08T10:16:16Z</time>
      </trkpt>
      <trkpt lat="47.82869" lon="-3.53967">
        <ele>12.31</ele>
        <time>2020-07-08T10:16:17Z</time>
      </trkpt>
      <trkpt lat="47.82871" lon="-3.53969">
        <ele>12.1</ele>
        <time>2020-07-08T10:16:18Z</time>
      </trkpt>
      <trkpt lat="47.82873" lon="-3.5397">
        <ele>11.85</ele>
        <time>2020-07-08T10:16:19Z</time>
      </trkpt>
      <trkpt lat="47.82876" lon="-3.5397">
        <ele>11.77</ele>
        <time>2020-07-08T10:16:20Z</time>
      </trkpt>
      <trkpt lat="47.82878" lon="-3.53971">
        <ele>11.7</ele>
        <time>2020-07-08T10:16:21Z</time>
      </trkpt>
      <trkpt lat="47.8288" lon="-3.53972">
        <ele>11.63</ele>
        <time>2020-07-08T10:16:22Z</time>
      </trkpt>
      <trkpt lat="47.82882" lon="-3.53972">
        <ele>11.57</ele>
        <time>2020-07-08T10:16:23Z</time>
      </trkpt>
      <trkpt lat="47.82885" lon="-3.53973">
        <ele>11.5</ele>
        <time>2020-07-08T10:16:24Z</time>
      </trkpt>
      <trkpt lat="47.82887" lon="-3.53973">
        <ele>11.58</ele>
        <time>2020-07-08T10:16:25Z</time>
      </trkpt>
      <trkpt lat="47.8289" lon="-3.53972">
        <ele>12.06</ele>
        <time>2020-07-08T10:16:26Z</time>
      </trkpt>
      <trkpt lat="47.82892" lon="-3.5397">
        <ele>12.52</ele>
        <time>2020-07-08T10:16:27Z</time>
      </trkpt>
      <trkpt lat="47.82894" lon="-3.53969">
        <ele>13.08</ele>
        <time>2020-07-08T10:16:28Z</time>
      </trkpt>
      <trkpt lat="47.82896" lon="-3.53969">
        <ele>13.26</ele>
        <time>2020-07-08T10:16:29Z</time>
      </trkpt>
      <trkpt lat="47.82898" lon="-3.53969">
        <ele>13.28</ele>
        <time>2020-07-08T10:16:30Z</time>
      </trkpt>
      <trkpt lat="47.829" lon="-3.53969">
        <ele>13.37</ele>
        <time>2020-07-08T10:16:31Z</time>
      </trkpt>
      <trkpt lat="47.82903" lon="-3.53969">
        <ele>13.37</ele>
        <time>2020-07-08T10:16:32Z</time>
      </trkpt>
      <trkpt lat="47.82905" lon="-3.5397">
        <ele>13.32</ele>
        <time>2020-07-08T10:16:33Z</time>
      </trkpt>
      <trkpt lat="47.82907" lon="-3.5397">
        <ele>13.28</ele>
        <time>2020-07-08T10:16:34Z</time>
      </trkpt>
      <trkpt lat="47.82909" lon="-3.5397">
        <ele>13.39</ele>
        <time>2020-07-08T10:16:35Z</time>
      </trkpt>
      <trkpt lat="47.8291" lon="-3.5397">
        <ele>13.38</ele>
        <time>2020-07-08T10:16:36Z</time>
      </trkpt>
      <trkpt lat="47.82911" lon="-3.5397">
        <ele>13.4</ele>
        <time>2020-07-08T10:16:37Z</time>
      </trkpt>
      <trkpt lat="47.82913" lon="-3.53971">
        <ele>13.29</ele>
        <time>2020-07-08T10:16:38Z</time>
      </trkpt>
      <trkpt lat="47.82916" lon="-3.53972">
        <ele>13.18</ele>
        <time>2020-07-08T10:16:39Z</time>
      </trkpt>
      <trkpt lat="47.82919" lon="-3.53972">
        <ele>13.31</ele>
        <time>2020-07-08T10:16:40Z</time>
      </trkpt>
      <trkpt lat="47.82922" lon="-3.53974">
        <ele>13.08</ele>
        <time>2020-07-08T10:16:41Z</time>
      </trkpt>
      <trkpt lat="47.82926" lon="-3.53974">
        <ele>13.16</ele>
        <time>2020-07-08T10:16:42Z</time>
      </trkpt>
      <trkpt lat="47.82929" lon="-3.53974">
        <ele>13.26</ele>
        <time>2020-07-08T10:16:43Z</time>
      </trkpt>
      <trkpt lat="47.8293" lon="-3.53974">
        <ele>13.4</ele>
        <time>2020-07-08T10:16:44Z</time>
      </trkpt>
      <trkpt lat="47.82932" lon="-3.53974">
        <ele>13.59</ele>
        <time>2020-07-08T10:16:45Z</time>
      </trkpt>
      <trkpt lat="47.82934" lon="-3.53974">
        <ele>13.77</ele>
        <time>2020-07-08T10:16:46Z</time>
      </trkpt>
      <trkpt lat="47.82936" lon="-3.53974">
        <ele>13.9</ele>
        <time>2020-07-08T10:16:47Z</time>
      </trkpt>
      <trkpt lat="47.82938" lon="-3.53973">
        <ele>14.16</ele>
        <time>2020-07-08T10:16:48Z</time>
      </trkpt>
      <trkpt lat="47.8294" lon="-3.53972">
        <ele>14.49</ele>
        <time>2020-07-08T10:16:49Z</time>
      </trkpt>
      <trkpt lat="47.82942" lon="-3.53972">
        <ele>14.84</ele>
        <time>2020-07-08T10:16:50Z</time>
      </trkpt>
      <trkpt lat="47.82944" lon="-3.53971">
        <ele>15.19</ele>
        <time>2020-07-08T10:16:51Z</time>
      </trkpt>
      <trkpt lat="47.82947" lon="-3.53972">
        <ele>15.37</ele>
        <time>2020-07-08T10:16:52Z</time>
      </trkpt>
      <trkpt lat="47.8295" lon="-3.53973">
        <ele>15.4</ele>
        <time>2020-07-08T10:16:53Z</time>
      </trkpt>
      <trkpt lat="47.82951" lon="-3.53973">
        <ele>15.4</ele>
        <time>2020-07-08T10:16:54Z</time>
      </trkpt>
      <trkpt lat="47.82951" lon="-3.53974">
        <ele>15.25</ele>
        <time>2020-07-08T10:16:55Z</time>
      </trkpt>
      <trkpt lat="47.82951" lon="-3.53975">
        <ele>15.07</ele>
        <time>2020-07-08T10:16:56Z</time>
      </trkpt>
      <trkpt lat="47.82951" lon="-3.53975">
        <ele>15.02</ele>
        <time>2020-07-08T10:16:57Z</time>
      </trkpt>
      <trkpt lat="47.82951" lon="-3.53975">
        <ele>15</ele>
        <time>2020-07-08T10:16:58Z</time>
      </trkpt>
      <trkpt lat="47.82951" lon="-3.53975">
        <ele>15</ele>
        <time>2020-07-08T10:16:59Z</time>
      </trkpt>
      <trkpt lat="47.82951" lon="-3.53975">
        <ele>15</ele>
        <time>2020-07-08T10:17:00Z</time>
      </trkpt>
      <trkpt lat="47.82951" lon="-3.53975">
        <ele>15</ele>
        <time>2020-07-08T10:17:01Z</time>
      </trkpt>
      <trkpt lat="47.82951" lon="-3.53975">
        <ele>15</ele>
        <time>2020-07-08T10:17:02Z</time>
      </trkpt>
      <trkpt lat="47.82951" lon="-3.53975">
        <ele>15</ele>
        <time>2020-07-08T10:17:03Z</time>
      </trkpt>
      <trkpt lat="47.82951" lon="-3.53975">
        <ele>15</ele>
        <time>2020-07-08T10:17:04Z</time>
      </trkpt>
      <trkpt lat="47.82961" lon="-3.53971">
        <ele>16.49</ele>
        <time>2020-07-08T10:17:05Z</time>
      </trkpt>
      <trkpt lat="47.82964" lon="-3.53971">
        <ele>17.15</ele>
        <time>2020-07-08T10:17:06Z</time>
      </trkpt>
      <trkpt lat="47.82965" lon="-3.53969">
        <ele>17.71</ele>
        <time>2020-07-08T10:17:07Z</time>
      </trkpt>
      <trkpt lat="47.82969" lon="-3.53966">
        <ele>18.57</ele>
        <time>2020-07-08T10:17:08Z</time>
      </trkpt>
      <trkpt lat="47.82972" lon="-3.53965">
        <ele>19.18</ele>
        <time>2020-07-08T10:17:09Z</time>
      </trkpt>
      <trkpt lat="47.82975" lon="-3.53966">
        <ele>19.4</ele>
        <time>2020-07-08T10:17:10Z</time>
      </trkpt>
      <trkpt lat="47.82978" lon="-3.53966">
        <ele>19.52</ele>
        <time>2020-07-08T10:17:11Z</time>
      </trkpt>
      <trkpt lat="47.82979" lon="-3.53965">
        <ele>19.6</ele>
        <time>2020-07-08T10:17:12Z</time>
      </trkpt>
      <trkpt lat="47.82981" lon="-3.53965">
        <ele>19.66</ele>
        <time>2020-07-08T10:17:13Z</time>
      </trkpt>
      <trkpt lat="47.82982" lon="-3.53966">
        <ele>19.66</ele>
        <time>2020-07-08T10:17:14Z</time>
      </trkpt>
      <trkpt lat="47.82985" lon="-3.53967">
        <ele>19.55</ele>
        <time>2020-07-08T10:17:15Z</time>
      </trkpt>
      <trkpt lat="47.82988" lon="-3.53967">
        <ele>19.53</ele>
        <time>2020-07-08T10:17:16Z</time>
      </trkpt>
      <trkpt lat="47.8299" lon="-3.53968">
        <ele>19.5</ele>
        <time>2020-07-08T10:17:17Z</time>
      </trkpt>
      <trkpt lat="47.82991" lon="-3.53968">
        <ele>19.52</ele>
        <time>2020-07-08T10:17:18Z</time>
      </trkpt>
      <trkpt lat="47.82994" lon="-3.53969">
        <ele>19.48</ele>
        <time>2020-07-08T10:17:19Z</time>
      </trkpt>
      <trkpt lat="47.82996" lon="-3.53969">
        <ele>19.52</ele>
        <time>2020-07-08T10:17:20Z</time>
      </trkpt>
      <trkpt lat="47.82998" lon="-3.53965">
        <ele>19.98</ele>
        <time>2020-07-08T10:17:21Z</time>
      </trkpt>
      <trkpt lat="47.82999" lon="-3.53965">
        <ele>20.23</ele>
        <time>2020-07-08T10:17:22Z</time>
      </trkpt>
      <trkpt lat="47.83003" lon="-3.53965">
        <ele>20.37</ele>
        <time>2020-07-08T10:17:23Z</time>
      </trkpt>
      <trkpt lat="47.83005" lon="-3.53965">
        <ele>20.57</ele>
        <time>2020-07-08T10:17:24Z</time>
      </trkpt>
      <trkpt lat="47.83005" lon="-3.53965">
        <ele>20.66</ele>
        <time>2020-07-08T10:17:25Z</time>
      </trkpt>
      <trkpt lat="47.83006" lon="-3.53965">
        <ele>20.72</ele>
        <time>2020-07-08T10:17:26Z</time>
      </trkpt>
      <trkpt lat="47.83006" lon="-3.53965">
        <ele>20.73</ele>
        <time>2020-07-08T10:17:27Z</time>
      </trkpt>
      <trkpt lat="47.83006" lon="-3.53965">
        <ele>20.74</ele>
        <time>2020-07-08T10:17:28Z</time>
      </trkpt>
      <trkpt lat="47.83006" lon="-3.53965">
        <ele>20.74</ele>
        <time>2020-07-08T10:17:29Z</time>
      </trkpt>
      <trkpt lat="47.83006" lon="-3.53965">
        <ele>20.74</ele>
        <time>2020-07-08T10:17:30Z</time>
      </trkpt>
      <trkpt lat="47.83006" lon="-3.53965">
        <ele>20.74</ele>
        <time>2020-07-08T10:17:31Z</time>
      </trkpt>
      <trkpt lat="47.83006" lon="-3.53965">
        <ele>20.74</ele>
        <time>2020-07-08T10:17:32Z</time>
      </trkpt>
      <trkpt lat="47.83006" lon="-3.53965">
        <ele>20.74</ele>
        <time>2020-07-08T10:17:33Z</time>
      </trkpt>
      <trkpt lat="47.83006" lon="-3.53965">
        <ele>20.74</ele>
        <time>2020-07-08T10:17:34Z</time>
      </trkpt>
      <trkpt lat="47.83006" lon="-3.53965">
        <ele>20.74</ele>
        <time>2020-07-08T10:17:35Z</time>
      </trkpt>
      <trkpt lat="47.83006" lon="-3.53965">
        <ele>20.74</ele>
        <time>2020-07-08T10:17:36Z</time>
      </trkpt>
      <trkpt lat="47.83006" lon="-3.53965">
        <ele>20.74</ele>
        <time>2020-07-08T10:17:37Z</time>
      </trkpt>
      <trkpt lat="47.83006" lon="-3.53965">
        <ele>20.74</ele>
        <time>2020-07-08T10:17:38Z</time>
      </trkpt>
      <trkpt lat="47.83006" lon="-3.53965">
        <ele>20.74</ele>
        <time>2020-07-08T10:17:39Z</time>
      </trkpt>
      <trkpt lat="47.83006" lon="-3.53965">
        <ele>20.74</ele>
        <time>2020-07-08T10:17:40Z</time>
      </trkpt>
      <trkpt lat="47.83006" lon="-3.53965">
        <ele>20.74</ele>
        <time>2020-07-08T10:17:41Z</time>
      </trkpt>
      <trkpt lat="47.83006" lon="-3.53965">
        <ele>20.74</ele>
        <time>2020-07-08T10:17:42Z</time>
      </trkpt>
      <trkpt lat="47.83006" lon="-3.53965">
        <ele>20.74</ele>
        <time>2020-07-08T10:17:43Z</time>
      </trkpt>
      <trkpt lat="47.83006" lon="-3.53965">
        <ele>20.74</ele>
        <time>2020-07-08T10:17:44Z</time>
      </trkpt>
      <trkpt lat="47.83006" lon="-3.53965">
        <ele>20.74</ele>
        <time>2020-07-08T10:17:45Z</time>
      </trkpt>
      <trkpt lat="47.83006" lon="-3.53965">
        <ele>20.74</ele>
        <time>2020-07-08T10:17:46Z</time>
      </trkpt>
      <trkpt lat="47.83006" lon="-3.53965">
        <ele>20.74</ele>
        <time>2020-07-08T10:17:47Z</time>
      </trkpt>
      <trkpt lat="47.83006" lon="-3.53965">
        <ele>20.74</ele>
        <time>2020-07-08T10:17:48Z</time>
      </trkpt>
      <trkpt lat="47.83006" lon="-3.53965">
        <ele>20.74</ele>
        <time>2020-07-08T10:17:49Z</time>
      </trkpt>
      <trkpt lat="47.83014" lon="-3.53969">
        <ele>20.64</ele>
        <time>2020-07-08T10:17:50Z</time>
      </trkpt>
      <trkpt lat="47.83017" lon="-3.5397">
        <ele>20.62</ele>
        <time>2020-07-08T10:17:51Z</time>
      </trkpt>
      <trkpt lat="47.8302" lon="-3.53973">
        <ele>20.31</ele>
        <time>2020-07-08T10:17:52Z</time>
      </trkpt>
      <trkpt lat="47.83024" lon="-3.53976">
        <ele>19.59</ele>
        <time>2020-07-08T10:17:53Z</time>
      </trkpt>
      <trkpt lat="47.83027" lon="-3.53979">
        <ele>18.74</ele>
        <time>2020-07-08T10:17:54Z</time>
      </trkpt>
      <trkpt lat="47.8303" lon="-3.53981">
        <ele>18.07</ele>
        <time>2020-07-08T10:17:55Z</time>
      </trkpt>
      <trkpt lat="47.83034" lon="-3.53983">
        <ele>17.54</ele>
        <time>2020-07-08T10:17:56Z</time>
      </trkpt>
      <trkpt lat="47.83039" lon="-3.53985">
        <ele>17.02</ele>
        <time>2020-07-08T10:17:57Z</time>
      </trkpt>
      <trkpt lat="47.83042" lon="-3.53985">
        <ele>16.78</ele>
        <time>2020-07-08T10:17:58Z</time>
      </trkpt>
      <trkpt lat="47.83045" lon="-3.53985">
        <ele>16.83</ele>
        <time>2020-07-08T10:17:59Z</time>
      </trkpt>
      <trkpt lat="47.83047" lon="-3.53984">
        <ele>17.14</ele>
        <time>2020-07-08T10:18:00Z</time>
      </trkpt>
      <trkpt lat="47.83047" lon="-3.53982">
        <ele>17.65</ele>
        <time>2020-07-08T10:18:01Z</time>
      </trkpt>
      <trkpt lat="47.83047" lon="-3.53981">
        <ele>18.03</ele>
        <time>2020-07-08T10:18:02Z</time>
      </trkpt>
      <trkpt lat="47.83047" lon="-3.53981">
        <ele>18.27</ele>
        <time>2020-07-08T10:18:03Z</time>
      </trkpt>
      <trkpt lat="47.83047" lon="-3.5398">
        <ele>18.53</ele>
        <time>2020-07-08T10:18:04Z</time>
      </trkpt>
      <trkpt lat="47.83047" lon="-3.5398">
        <ele>18.61</ele>
        <time>2020-07-08T10:18:05Z</time>
      </trkpt>
      <trkpt lat="47.83047" lon="-3.5398">
        <ele>18.63</ele>
        <time>2020-07-08T10:18:06Z</time>
      </trkpt>
      <trkpt lat="47.83047" lon="-3.5398">
        <ele>18.64</ele>
        <time>2020-07-08T10:18:07Z</time>
      </trkpt>
      <trkpt lat="47.83047" lon="-3.5398">
        <ele>18.64</ele>
        <time>2020-07-08T10:18:08Z</time>
      </trkpt>
      <trkpt lat="47.83047" lon="-3.5398">
        <ele>18.64</ele>
        <time>2020-07-08T10:18:09Z</time>
      </trkpt>
      <trkpt lat="47.83047" lon="-3.5398">
        <ele>18.64</ele>
        <time>2020-07-08T10:18:10Z</time>
      </trkpt>
      <trkpt lat="47.83047" lon="-3.5398">
        <ele>18.64</ele>
        <time>2020-07-08T10:18:11Z</time>
      </trkpt>
      <trkpt lat="47.83047" lon="-3.5398">
        <ele>18.64</ele>
        <time>2020-07-08T10:18:12Z</time>
      </trkpt>
      <trkpt lat="47.83047" lon="-3.5398">
        <ele>18.64</ele>
        <time>2020-07-08T10:18:13Z</time>
      </trkpt>
      <trkpt lat="47.83047" lon="-3.5398">
        <ele>18.64</ele>
        <time>2020-07-08T10:18:14Z</time>
      </trkpt>
      <trkpt lat="47.83054" lon="-3.53968">
        <ele>21.39</ele>
        <time>2020-07-08T10:18:15Z</time>
      </trkpt>
      <trkpt lat="47.83054" lon="-3.53967">
        <ele>22.31</ele>
        <time>2020-07-08T10:18:16Z</time>
      </trkpt>
      <trkpt lat="47.83053" lon="-3.53966">
        <ele>22.66</ele>
        <time>2020-07-08T10:18:17Z</time>
      </trkpt>
      <trkpt lat="47.83054" lon="-3.53966">
        <ele>22.79</ele>
        <time>2020-07-08T10:18:18Z</time>
      </trkpt>
      <trkpt lat="47.83054" lon="-3.53966">
        <ele>22.83</ele>
        <time>2020-07-08T10:18:19Z</time>
      </trkpt>
      <trkpt lat="47.83054" lon="-3.53966">
        <ele>22.84</ele>
        <time>2020-07-08T10:18:20Z</time>
      </trkpt>
      <trkpt lat="47.83054" lon="-3.53966">
        <ele>22.84</ele>
        <time>2020-07-08T10:18:21Z</time>
      </trkpt>
      <trkpt lat="47.83054" lon="-3.53966">
        <ele>22.85</ele>
        <time>2020-07-08T10:18:22Z</time>
      </trkpt>
      <trkpt lat="47.83054" lon="-3.53966">
        <ele>22.85</ele>
        <time>2020-07-08T10:18:23Z</time>
      </trkpt>
      <trkpt lat="47.83054" lon="-3.53966">
        <ele>22.85</ele>
        <time>2020-07-08T10:18:24Z</time>
      </trkpt>
      <trkpt lat="47.83054" lon="-3.53966">
        <ele>22.85</ele>
        <time>2020-07-08T10:18:25Z</time>
      </trkpt>
      <trkpt lat="47.83063" lon="-3.53971">
        <ele>22.52</ele>
        <time>2020-07-08T10:18:26Z</time>
      </trkpt>
      <trkpt lat="47.83063" lon="-3.53972">
        <ele>22.26</ele>
        <time>2020-07-08T10:18:27Z</time>
      </trkpt>
      <trkpt lat="47.83065" lon="-3.53972">
        <ele>22.28</ele>
        <time>2020-07-08T10:18:28Z</time>
      </trkpt>
      <trkpt lat="47.83066" lon="-3.53972">
        <ele>22.36</ele>
        <time>2020-07-08T10:18:29Z</time>
      </trkpt>
      <trkpt lat="47.83066" lon="-3.53972">
        <ele>22.39</ele>
        <time>2020-07-08T10:18:30Z</time>
      </trkpt>
      <trkpt lat="47.83066" lon="-3.53972">
        <ele>22.4</ele>
        <time>2020-07-08T10:18:31Z</time>
      </trkpt>
      <trkpt lat="47.83066" lon="-3.53972">
        <ele>22.4</ele>
        <time>2020-07-08T10:18:32Z</time>
      </trkpt>
      <trkpt lat="47.83066" lon="-3.53972">
        <ele>22.4</ele>
        <time>2020-07-08T10:18:33Z</time>
      </trkpt>
      <trkpt lat="47.83066" lon="-3.53972">
        <ele>22.4</ele>
        <time>2020-07-08T10:18:34Z</time>
      </trkpt>
      <trkpt lat="47.83066" lon="-3.53972">
        <ele>22.4</ele>
        <time>2020-07-08T10:18:35Z</time>
      </trkpt>
      <trkpt lat="47.83066" lon="-3.53972">
        <ele>22.4</ele>
        <time>2020-07-08T10:18:36Z</time>
      </trkpt>
      <trkpt lat="47.83066" lon="-3.53972">
        <ele>22.4</ele>
        <time>2020-07-08T10:18:37Z</time>
      </trkpt>
      <trkpt lat="47.83066" lon="-3.53972">
        <ele>22.4</ele>
        <time>2020-07-08T10:18:38Z</time>
      </trkpt>
      <trkpt lat="47.83066" lon="-3.53972">
        <ele>22.4</ele>
        <time>2020-07-08T10:18:39Z</time>
      </trkpt>
      <trkpt lat="47.83066" lon="-3.53972">
        <ele>22.4</ele>
        <time>2020-07-08T10:18:40Z</time>
      </trkpt>
      <trkpt lat="47.83066" lon="-3.53972">
        <ele>22.4</ele>
        <time>2020-07-08T10:18:41Z</time>
      </trkpt>
      <trkpt lat="47.83066" lon="-3.53972">
        <ele>22.4</ele>
        <time>2020-07-08T10:18:42Z</time>
      </trkpt>
      <trkpt lat="47.83066" lon="-3.53972">
        <ele>22.4</ele>
        <time>2020-07-08T10:18:43Z</time>
      </trkpt>
      <trkpt lat="47.83066" lon="-3.53972">
        <ele>22.4</ele>
        <time>2020-07-08T10:18:44Z</time>
      </trkpt>
      <trkpt lat="47.83066" lon="-3.53972">
        <ele>22.4</ele>
        <time>2020-07-08T10:18:45Z</time>
      </trkpt>
      <trkpt lat="47.83066" lon="-3.53972">
        <ele>22.4</ele>
        <time>2020-07-08T10:18:46Z</time>
      </trkpt>
      <trkpt lat="47.83066" lon="-3.53972">
        <ele>22.4</ele>
        <time>2020-07-08T10:18:47Z</time>
      </trkpt>
      <trkpt lat="47.83066" lon="-3.53972">
        <ele>22.4</ele>
        <time>2020-07-08T10:18:48Z</time>
      </trkpt>
      <trkpt lat="47.83066" lon="-3.53972">
        <ele>22.4</ele>
        <time>2020-07-08T10:18:49Z</time>
      </trkpt>
      <trkpt lat="47.83066" lon="-3.53972">
        <ele>22.4</ele>
        <time>2020-07-08T10:18:50Z</time>
      </trkpt>
      <trkpt lat="47.83072" lon="-3.53962">
        <ele>23.66</ele>
        <time>2020-07-08T10:18:51Z</time>
      </trkpt>
      <trkpt lat="47.83072" lon="-3.53962">
        <ele>24.17</ele>
        <time>2020-07-08T10:18:52Z</time>
      </trkpt>
      <trkpt lat="47.83072" lon="-3.5396">
        <ele>24.47</ele>
        <time>2020-07-08T10:18:53Z</time>
      </trkpt>
      <trkpt lat="47.83072" lon="-3.53959">
        <ele>24.66</ele>
        <time>2020-07-08T10:18:54Z</time>
      </trkpt>
      <trkpt lat="47.83072" lon="-3.53959">
        <ele>24.72</ele>
        <time>2020-07-08T10:18:55Z</time>
      </trkpt>
      <trkpt lat="47.83072" lon="-3.53959">
        <ele>24.73</ele>
        <time>2020-07-08T10:18:56Z</time>
      </trkpt>
      <trkpt lat="47.83072" lon="-3.53959">
        <ele>24.74</ele>
        <time>2020-07-08T10:18:57Z</time>
      </trkpt>
      <trkpt lat="47.83072" lon="-3.53959">
        <ele>24.74</ele>
        <time>2020-07-08T10:18:58Z</time>
      </trkpt>
      <trkpt lat="47.83072" lon="-3.53959">
        <ele>24.74</ele>
        <time>2020-07-08T10:18:59Z</time>
      </trkpt>
      <trkpt lat="47.83072" lon="-3.53959">
        <ele>24.74</ele>
        <time>2020-07-08T10:19:00Z</time>
      </trkpt>
      <trkpt lat="47.83072" lon="-3.53959">
        <ele>24.74</ele>
        <time>2020-07-08T10:19:01Z</time>
      </trkpt>
      <trkpt lat="47.83072" lon="-3.53959">
        <ele>24.74</ele>
        <time>2020-07-08T10:19:02Z</time>
      </trkpt>
      <trkpt lat="47.83072" lon="-3.53959">
        <ele>24.74</ele>
        <time>2020-07-08T10:19:03Z</time>
      </trkpt>
      <trkpt lat="47.83067" lon="-3.53947">
        <ele>25.9</ele>
        <time>2020-07-08T10:19:04Z</time>
      </trkpt>
      <trkpt lat="47.83067" lon="-3.53947">
        <ele>26.3</ele>
        <time>2020-07-08T10:19:05Z</time>
      </trkpt>
      <trkpt lat="47.83065" lon="-3.53945">
        <ele>26.54</ele>
        <time>2020-07-08T10:19:06Z</time>
      </trkpt>
      <trkpt lat="47.83064" lon="-3.53943">
        <ele>26.73</ele>
        <time>2020-07-08T10:19:07Z</time>
      </trkpt>
      <trkpt lat="47.83064" lon="-3.53943">
        <ele>26.79</ele>
        <time>2020-07-08T10:19:08Z</time>
      </trkpt>
      <trkpt lat="47.83064" lon="-3.53943">
        <ele>26.8</ele>
        <time>2020-07-08T10:19:09Z</time>
      </trkpt>
      <trkpt lat="47.83064" lon="-3.53943">
        <ele>26.81</ele>
        <time>2020-07-08T10:19:10Z</time>
      </trkpt>
      <trkpt lat="47.83064" lon="-3.53943">
        <ele>26.81</ele>
        <time>2020-07-08T10:19:11Z</time>
      </trkpt>
      <trkpt lat="47.83064" lon="-3.53943">
        <ele>26.81</ele>
        <time>2020-07-08T10:19:12Z</time>
      </trkpt>
      <trkpt lat="47.83058" lon="-3.53932">
        <ele>27.31</ele>
        <time>2020-07-08T10:19:13Z</time>
      </trkpt>
      <trkpt lat="47.83056" lon="-3.5393">
        <ele>27.45</ele>
        <time>2020-07-08T10:19:14Z</time>
      </trkpt>
      <trkpt lat="47.83055" lon="-3.53929">
        <ele>27.55</ele>
        <time>2020-07-08T10:19:15Z</time>
      </trkpt>
      <trkpt lat="47.83054" lon="-3.53928">
        <ele>27.65</ele>
        <time>2020-07-08T10:19:16Z</time>
      </trkpt>
      <trkpt lat="47.83053" lon="-3.53928">
        <ele>27.69</ele>
        <time>2020-07-08T10:19:17Z</time>
      </trkpt>
      <trkpt lat="47.83052" lon="-3.53926">
        <ele>27.78</ele>
        <time>2020-07-08T10:19:18Z</time>
      </trkpt>
      <trkpt lat="47.83051" lon="-3.53925">
        <ele>27.87</ele>
        <time>2020-07-08T10:19:19Z</time>
      </trkpt>
      <trkpt lat="47.83051" lon="-3.53923">
        <ele>28.04</ele>
        <time>2020-07-08T10:19:20Z</time>
      </trkpt>
      <trkpt lat="47.8305" lon="-3.53922">
        <ele>28.21</ele>
        <time>2020-07-08T10:19:21Z</time>
      </trkpt>
      <trkpt lat="47.83049" lon="-3.5392">
        <ele>28.37</ele>
        <time>2020-07-08T10:19:22Z</time>
      </trkpt>
      <trkpt lat="47.83048" lon="-3.53919">
        <ele>28.46</ele>
        <time>2020-07-08T10:19:23Z</time>
      </trkpt>
      <trkpt lat="47.83047" lon="-3.53918">
        <ele>28.54</ele>
        <time>2020-07-08T10:19:24Z</time>
      </trkpt>
      <trkpt lat="47.83047" lon="-3.53917">
        <ele>28.61</ele>
        <time>2020-07-08T10:19:25Z</time>
      </trkpt>
      <trkpt lat="47.83045" lon="-3.53916">
        <ele>28.82</ele>
        <time>2020-07-08T10:19:26Z</time>
      </trkpt>
      <trkpt lat="47.83045" lon="-3.53915">
        <ele>29.01</ele>
        <time>2020-07-08T10:19:27Z</time>
      </trkpt>
      <trkpt lat="47.83041" lon="-3.53913">
        <ele>29.29</ele>
        <time>2020-07-08T10:19:28Z</time>
      </trkpt>
      <trkpt lat="47.83038" lon="-3.53912">
        <ele>29.34</ele>
        <time>2020-07-08T10:19:29Z</time>
      </trkpt>
      <trkpt lat="47.83037" lon="-3.53912">
        <ele>29.34</ele>
        <time>2020-07-08T10:19:30Z</time>
      </trkpt>
      <trkpt lat="47.83035" lon="-3.53913">
        <ele>29.19</ele>
        <time>2020-07-08T10:19:31Z</time>
      </trkpt>
      <trkpt lat="47.83034" lon="-3.53913">
        <ele>29.06</ele>
        <time>2020-07-08T10:19:32Z</time>
      </trkpt>
      <trkpt lat="47.83033" lon="-3.53913">
        <ele>29.08</ele>
        <time>2020-07-08T10:19:33Z</time>
      </trkpt>
      <trkpt lat="47.83033" lon="-3.53913">
        <ele>29.04</ele>
        <time>2020-07-08T10:19:34Z</time>
      </trkpt>
      <trkpt lat="47.83033" lon="-3.53913">
        <ele>29.03</ele>
        <time>2020-07-08T10:19:35Z</time>
      </trkpt>
      <trkpt lat="47.83033" lon="-3.53913">
        <ele>29.02</ele>
        <time>2020-07-08T10:19:36Z</time>
      </trkpt>
      <trkpt lat="47.83033" lon="-3.53913">
        <ele>29.02</ele>
        <time>2020-07-08T10:19:37Z</time>
      </trkpt>
      <trkpt lat="47.83033" lon="-3.53913">
        <ele>29.02</ele>
        <time>2020-07-08T10:19:38Z</time>
      </trkpt>
      <trkpt lat="47.83027" lon="-3.5391">
        <ele>29.3</ele>
        <time>2020-07-08T10:19:39Z</time>
      </trkpt>
      <trkpt lat="47.83026" lon="-3.53909">
        <ele>29.4</ele>
        <time>2020-07-08T10:19:40Z</time>
      </trkpt>
      <trkpt lat="47.83024" lon="-3.53909">
        <ele>29.46</ele>
        <time>2020-07-08T10:19:41Z</time>
      </trkpt>
      <trkpt lat="47.83022" lon="-3.53908">
        <ele>29.44</ele>
        <time>2020-07-08T10:19:42Z</time>
      </trkpt>
      <trkpt lat="47.83021" lon="-3.53908">
        <ele>29.41</ele>
        <time>2020-07-08T10:19:43Z</time>
      </trkpt>
      <trkpt lat="47.8302" lon="-3.53908">
        <ele>29.28</ele>
        <time>2020-07-08T10:19:44Z</time>
      </trkpt>
      <trkpt lat="47.83018" lon="-3.53908">
        <ele>29.16</ele>
        <time>2020-07-08T10:19:45Z</time>
      </trkpt>
      <trkpt lat="47.83017" lon="-3.53907">
        <ele>29.11</ele>
        <time>2020-07-08T10:19:46Z</time>
      </trkpt>
      <trkpt lat="47.83017" lon="-3.53907">
        <ele>29.12</ele>
        <time>2020-07-08T10:19:47Z</time>
      </trkpt>
      <trkpt lat="47.83016" lon="-3.53907">
        <ele>29.14</ele>
        <time>2020-07-08T10:19:48Z</time>
      </trkpt>
      <trkpt lat="47.83016" lon="-3.53907">
        <ele>29.14</ele>
        <time>2020-07-08T10:19:49Z</time>
      </trkpt>
      <trkpt lat="47.83014" lon="-3.53905">
        <ele>29.25</ele>
        <time>2020-07-08T10:19:50Z</time>
      </trkpt>
      <trkpt lat="47.83013" lon="-3.53904">
        <ele>29.38</ele>
        <time>2020-07-08T10:19:51Z</time>
      </trkpt>
      <trkpt lat="47.83011" lon="-3.53902">
        <ele>29.62</ele>
        <time>2020-07-08T10:19:52Z</time>
      </trkpt>
      <trkpt lat="47.8301" lon="-3.53901">
        <ele>29.73</ele>
        <time>2020-07-08T10:19:53Z</time>
      </trkpt>
      <trkpt lat="47.83009" lon="-3.539">
        <ele>29.82</ele>
        <time>2020-07-08T10:19:54Z</time>
      </trkpt>
      <trkpt lat="47.83009" lon="-3.53899">
        <ele>29.9</ele>
        <time>2020-07-08T10:19:55Z</time>
      </trkpt>
      <trkpt lat="47.83008" lon="-3.53899">
        <ele>29.94</ele>
        <time>2020-07-08T10:19:56Z</time>
      </trkpt>
      <trkpt lat="47.83008" lon="-3.53899">
        <ele>29.97</ele>
        <time>2020-07-08T10:19:57Z</time>
      </trkpt>
      <trkpt lat="47.83008" lon="-3.53899">
        <ele>29.98</ele>
        <time>2020-07-08T10:19:58Z</time>
      </trkpt>
      <trkpt lat="47.83008" lon="-3.53899">
        <ele>29.99</ele>
        <time>2020-07-08T10:19:59Z</time>
      </trkpt>
      <trkpt lat="47.83008" lon="-3.53899">
        <ele>29.99</ele>
        <time>2020-07-08T10:20:00Z</time>
      </trkpt>
      <trkpt lat="47.83008" lon="-3.53899">
        <ele>29.99</ele>
        <time>2020-07-08T10:20:01Z</time>
      </trkpt>
      <trkpt lat="47.83008" lon="-3.53899">
        <ele>29.99</ele>
        <time>2020-07-08T10:20:02Z</time>
      </trkpt>
      <trkpt lat="47.83008" lon="-3.53899">
        <ele>29.99</ele>
        <time>2020-07-08T10:20:03Z</time>
      </trkpt>
      <trkpt lat="47.83008" lon="-3.53899">
        <ele>29.99</ele>
        <time>2020-07-08T10:20:04Z</time>
      </trkpt>
      <trkpt lat="47.83008" lon="-3.53899">
        <ele>29.99</ele>
        <time>2020-07-08T10:20:05Z</time>
      </trkpt>
      <trkpt lat="47.83008" lon="-3.53899">
        <ele>29.99</ele>
        <time>2020-07-08T10:20:06Z</time>
      </trkpt>
      <trkpt lat="47.83008" lon="-3.53899">
        <ele>29.99</ele>
        <time>2020-07-08T10:20:07Z</time>
      </trkpt>
      <trkpt lat="47.83008" lon="-3.53899">
        <ele>29.99</ele>
        <time>2020-07-08T10:20:08Z</time>
      </trkpt>
      <trkpt lat="47.83008" lon="-3.53899">
        <ele>29.99</ele>
        <time>2020-07-08T10:20:09Z</time>
      </trkpt>
      <trkpt lat="47.83008" lon="-3.53899">
        <ele>29.99</ele>
        <time>2020-07-08T10:20:10Z</time>
      </trkpt>
      <trkpt lat="47.83008" lon="-3.53899">
        <ele>29.99</ele>
        <time>2020-07-08T10:20:11Z</time>
      </trkpt>
      <trkpt lat="47.83008" lon="-3.53899">
        <ele>29.99</ele>
        <time>2020-07-08T10:20:12Z</time>
      </trkpt>
      <trkpt lat="47.83008" lon="-3.53899">
        <ele>29.99</ele>
        <time>2020-07-08T10:20:13Z</time>
      </trkpt>
      <trkpt lat="47.83008" lon="-3.53899">
        <ele>29.99</ele>
        <time>2020-07-08T10:20:14Z</time>
      </trkpt>
      <trkpt lat="47.83008" lon="-3.53899">
        <ele>29.99</ele>
        <time>2020-07-08T10:20:15Z</time>
      </trkpt>
      <trkpt lat="47.83008" lon="-3.53899">
        <ele>29.99</ele>
        <time>2020-07-08T10:20:16Z</time>
      </trkpt>
      <trkpt lat="47.83" lon="-3.53892">
        <ele>30.3</ele>
        <time>2020-07-08T10:20:17Z</time>
      </trkpt>
      <trkpt lat="47.83" lon="-3.53891">
        <ele>30.47</ele>
        <time>2020-07-08T10:20:18Z</time>
      </trkpt>
      <trkpt lat="47.83" lon="-3.5389">
        <ele>30.63</ele>
        <time>2020-07-08T10:20:19Z</time>
      </trkpt>
      <trkpt lat="47.82999" lon="-3.5389">
        <ele>30.77</ele>
        <time>2020-07-08T10:20:20Z</time>
      </trkpt>
      <trkpt lat="47.82999" lon="-3.5389">
        <ele>30.81</ele>
        <time>2020-07-08T10:20:21Z</time>
      </trkpt>
      <trkpt lat="47.82999" lon="-3.5389">
        <ele>30.82</ele>
        <time>2020-07-08T10:20:22Z</time>
      </trkpt>
      <trkpt lat="47.82999" lon="-3.5389">
        <ele>30.82</ele>
        <time>2020-07-08T10:20:23Z</time>
      </trkpt>
      <trkpt lat="47.82999" lon="-3.5389">
        <ele>30.82</ele>
        <time>2020-07-08T10:20:24Z</time>
      </trkpt>
      <trkpt lat="47.82999" lon="-3.5389">
        <ele>30.82</ele>
        <time>2020-07-08T10:20:25Z</time>
      </trkpt>
      <trkpt lat="47.82999" lon="-3.5389">
        <ele>30.82</ele>
        <time>2020-07-08T10:20:26Z</time>
      </trkpt>
      <trkpt lat="47.82999" lon="-3.5389">
        <ele>30.82</ele>
        <time>2020-07-08T10:20:27Z</time>
      </trkpt>
      <trkpt lat="47.82999" lon="-3.5389">
        <ele>30.83</ele>
        <time>2020-07-08T10:20:28Z</time>
      </trkpt>
      <trkpt lat="47.82999" lon="-3.5389">
        <ele>30.83</ele>
        <time>2020-07-08T10:20:29Z</time>
      </trkpt>
      <trkpt lat="47.82999" lon="-3.5389">
        <ele>30.83</ele>
        <time>2020-07-08T10:20:30Z</time>
      </trkpt>
      <trkpt lat="47.82999" lon="-3.5389">
        <ele>30.83</ele>
        <time>2020-07-08T10:20:31Z</time>
      </trkpt>
      <trkpt lat="47.82999" lon="-3.5389">
        <ele>30.83</ele>
        <time>2020-07-08T10:20:32Z</time>
      </trkpt>
      <trkpt lat="47.82999" lon="-3.5389">
        <ele>30.83</ele>
        <time>2020-07-08T10:20:33Z</time>
      </trkpt>
      <trkpt lat="47.82999" lon="-3.5389">
        <ele>30.83</ele>
        <time>2020-07-08T10:20:34Z</time>
      </trkpt>
      <trkpt lat="47.82999" lon="-3.5389">
        <ele>30.83</ele>
        <time>2020-07-08T10:20:35Z</time>
      </trkpt>
      <trkpt lat="47.82999" lon="-3.5389">
        <ele>30.83</ele>
        <time>2020-07-08T10:20:36Z</time>
      </trkpt>
      <trkpt lat="47.82999" lon="-3.5389">
        <ele>30.83</ele>
        <time>2020-07-08T10:20:37Z</time>
      </trkpt>
      <trkpt lat="47.82999" lon="-3.5389">
        <ele>30.83</ele>
        <time>2020-07-08T10:20:38Z</time>
      </trkpt>
      <trkpt lat="47.82999" lon="-3.5389">
        <ele>30.83</ele>
        <time>2020-07-08T10:20:39Z</time>
      </trkpt>
      <trkpt lat="47.82992" lon="-3.53881">
        <ele>31.79</ele>
        <time>2020-07-08T10:20:40Z</time>
      </trkpt>
      <trkpt lat="47.82992" lon="-3.53881">
        <ele>32.09</ele>
        <time>2020-07-08T10:20:41Z</time>
      </trkpt>
      <trkpt lat="47.82992" lon="-3.53881">
        <ele>32.18</ele>
        <time>2020-07-08T10:20:42Z</time>
      </trkpt>
      <trkpt lat="47.82992" lon="-3.5388">
        <ele>32.3</ele>
        <time>2020-07-08T10:20:43Z</time>
      </trkpt>
      <trkpt lat="47.82992" lon="-3.5388">
        <ele>32.33</ele>
        <time>2020-07-08T10:20:44Z</time>
      </trkpt>
      <trkpt lat="47.82992" lon="-3.5388">
        <ele>32.34</ele>
        <time>2020-07-08T10:20:45Z</time>
      </trkpt>
      <trkpt lat="47.82992" lon="-3.5388">
        <ele>32.35</ele>
        <time>2020-07-08T10:20:46Z</time>
      </trkpt>
      <trkpt lat="47.8299" lon="-3.53875">
        <ele>33.11</ele>
        <time>2020-07-08T10:20:47Z</time>
      </trkpt>
      <trkpt lat="47.82991" lon="-3.53873">
        <ele>33.62</ele>
        <time>2020-07-08T10:20:48Z</time>
      </trkpt>
      <trkpt lat="47.82991" lon="-3.53873">
        <ele>33.89</ele>
        <time>2020-07-08T10:20:49Z</time>
      </trkpt>
      <trkpt lat="47.82992" lon="-3.53873">
        <ele>34.09</ele>
        <time>2020-07-08T10:20:50Z</time>
      </trkpt>
      <trkpt lat="47.82993" lon="-3.53872">
        <ele>34.26</ele>
        <time>2020-07-08T10:20:51Z</time>
      </trkpt>
      <trkpt lat="47.82993" lon="-3.53872">
        <ele>34.31</ele>
        <time>2020-07-08T10:20:52Z</time>
      </trkpt>
      <trkpt lat="47.82993" lon="-3.53872">
        <ele>34.32</ele>
        <time>2020-07-08T10:20:53Z</time>
      </trkpt>
      <trkpt lat="47.82993" lon="-3.53872">
        <ele>34.33</ele>
        <time>2020-07-08T10:20:54Z</time>
      </trkpt>
      <trkpt lat="47.82993" lon="-3.53872">
        <ele>34.33</ele>
        <time>2020-07-08T10:20:55Z</time>
      </trkpt>
      <trkpt lat="47.82993" lon="-3.53872">
        <ele>34.33</ele>
        <time>2020-07-08T10:20:56Z</time>
      </trkpt>
      <trkpt lat="47.82999" lon="-3.53866">
        <ele>35.9</ele>
        <time>2020-07-08T10:20:57Z</time>
      </trkpt>
      <trkpt lat="47.83" lon="-3.53865">
        <ele>36.64</ele>
        <time>2020-07-08T10:20:58Z</time>
      </trkpt>
      <trkpt lat="47.83001" lon="-3.53865">
        <ele>37</ele>
        <time>2020-07-08T10:20:59Z</time>
      </trkpt>
      <trkpt lat="47.83" lon="-3.53864">
        <ele>37.15</ele>
        <time>2020-07-08T10:21:00Z</time>
      </trkpt>
      <trkpt lat="47.83" lon="-3.53864">
        <ele>37.19</ele>
        <time>2020-07-08T10:21:01Z</time>
      </trkpt>
      <trkpt lat="47.83" lon="-3.53864">
        <ele>37.21</ele>
        <time>2020-07-08T10:21:02Z</time>
      </trkpt>
      <trkpt lat="47.83" lon="-3.53864">
        <ele>37.21</ele>
        <time>2020-07-08T10:21:03Z</time>
      </trkpt>
      <trkpt lat="47.83" lon="-3.53864">
        <ele>37.21</ele>
        <time>2020-07-08T10:21:04Z</time>
      </trkpt>
      <trkpt lat="47.83" lon="-3.53864">
        <ele>37.21</ele>
        <time>2020-07-08T10:21:05Z</time>
      </trkpt>
      <trkpt lat="47.83" lon="-3.53864">
        <ele>37.21</ele>
        <time>2020-07-08T10:21:06Z</time>
      </trkpt>
      <trkpt lat="47.83" lon="-3.53864">
        <ele>37.21</ele>
        <time>2020-07-08T10:21:07Z</time>
      </trkpt>
      <trkpt lat="47.83003" lon="-3.53854">
        <ele>39.37</ele>
        <time>2020-07-08T10:21:08Z</time>
      </trkpt>
      <trkpt lat="47.83004" lon="-3.53852">
        <ele>40.45</ele>
        <time>2020-07-08T10:21:09Z</time>
      </trkpt>
      <trkpt lat="47.83005" lon="-3.5385">
        <ele>41.17</ele>
        <time>2020-07-08T10:21:10Z</time>
      </trkpt>
      <trkpt lat="47.83006" lon="-3.53847">
        <ele>41.87</ele>
        <time>2020-07-08T10:21:11Z</time>
      </trkpt>
      <trkpt lat="47.83007" lon="-3.53846">
        <ele>42.38</ele>
        <time>2020-07-08T10:21:12Z</time>
      </trkpt>
      <trkpt lat="47.83008" lon="-3.53845">
        <ele>42.82</ele>
        <time>2020-07-08T10:21:13Z</time>
      </trkpt>
      <trkpt lat="47.83009" lon="-3.53843">
        <ele>43.39</ele>
        <time>2020-07-08T10:21:14Z</time>
      </trkpt>
      <trkpt lat="47.8301" lon="-3.53841">
        <ele>44</ele>
        <time>2020-07-08T10:21:15Z</time>
      </trkpt>
      <trkpt lat="47.83011" lon="-3.5384">
        <ele>44.44</ele>
        <time>2020-07-08T10:21:16Z</time>
      </trkpt>
      <trkpt lat="47.83012" lon="-3.5384">
        <ele>44.69</ele>
        <time>2020-07-08T10:21:17Z</time>
      </trkpt>
      <trkpt lat="47.83013" lon="-3.53839">
        <ele>44.94</ele>
        <time>2020-07-08T10:21:18Z</time>
      </trkpt>
      <trkpt lat="47.83013" lon="-3.53839">
        <ele>45.02</ele>
        <time>2020-07-08T10:21:19Z</time>
      </trkpt>
      <trkpt lat="47.83013" lon="-3.53839">
        <ele>45.04</ele>
        <time>2020-07-08T10:21:20Z</time>
      </trkpt>
      <trkpt lat="47.83013" lon="-3.53839">
        <ele>45.05</ele>
        <time>2020-07-08T10:21:21Z</time>
      </trkpt>
      <trkpt lat="47.83013" lon="-3.53839">
        <ele>45.05</ele>
        <time>2020-07-08T10:21:22Z</time>
      </trkpt>
      <trkpt lat="47.83013" lon="-3.53839">
        <ele>45.05</ele>
        <time>2020-07-08T10:21:23Z</time>
      </trkpt>
      <trkpt lat="47.83018" lon="-3.53836">
        <ele>46</ele>
        <time>2020-07-08T10:21:24Z</time>
      </trkpt>
      <trkpt lat="47.83019" lon="-3.53836">
        <ele>46.34</ele>
        <time>2020-07-08T10:21:25Z</time>
      </trkpt>
      <trkpt lat="47.83021" lon="-3.53836">
        <ele>46.58</ele>
        <time>2020-07-08T10:21:26Z</time>
      </trkpt>
      <trkpt lat="47.83021" lon="-3.53835">
        <ele>46.84</ele>
        <time>2020-07-08T10:21:27Z</time>
      </trkpt>
      <trkpt lat="47.83023" lon="-3.53835">
        <ele>47.02</ele>
        <time>2020-07-08T10:21:28Z</time>
      </trkpt>
      <trkpt lat="47.83023" lon="-3.53836">
        <ele>47.01</ele>
        <time>2020-07-08T10:21:29Z</time>
      </trkpt>
      <trkpt lat="47.83024" lon="-3.53835">
        <ele>47.09</ele>
        <time>2020-07-08T10:21:30Z</time>
      </trkpt>
      <trkpt lat="47.83025" lon="-3.53835">
        <ele>47.3</ele>
        <time>2020-07-08T10:21:31Z</time>
      </trkpt>
      <trkpt lat="47.83027" lon="-3.53835">
        <ele>47.48</ele>
        <time>2020-07-08T10:21:32Z</time>
      </trkpt>
      <trkpt lat="47.83027" lon="-3.53836">
        <ele>47.47</ele>
        <time>2020-07-08T10:21:33Z</time>
      </trkpt>
      <trkpt lat="47.83029" lon="-3.53835">
        <ele>47.58</ele>
        <time>2020-07-08T10:21:34Z</time>
      </trkpt>
      <trkpt lat="47.8303" lon="-3.53835">
        <ele>47.74</ele>
        <time>2020-07-08T10:21:35Z</time>
      </trkpt>
      <trkpt lat="47.83032" lon="-3.53834">
        <ele>48.12</ele>
        <time>2020-07-08T10:21:36Z</time>
      </trkpt>
      <trkpt lat="47.83034" lon="-3.53834">
        <ele>48.34</ele>
        <time>2020-07-08T10:21:37Z</time>
      </trkpt>
      <trkpt lat="47.83035" lon="-3.53835">
        <ele>48.36</ele>
        <time>2020-07-08T10:21:38Z</time>
      </trkpt>
      <trkpt lat="47.83037" lon="-3.53836">
        <ele>48.39</ele>
        <time>2020-07-08T10:21:39Z</time>
      </trkpt>
      <trkpt lat="47.83038" lon="-3.53836">
        <ele>48.45</ele>
        <time>2020-07-08T10:21:40Z</time>
      </trkpt>
      <trkpt lat="47.8304" lon="-3.53837">
        <ele>48.52</ele>
        <time>2020-07-08T10:21:41Z</time>
      </trkpt>
      <trkpt lat="47.83041" lon="-3.53837">
        <ele>48.68</ele>
        <time>2020-07-08T10:21:42Z</time>
      </trkpt>
      <trkpt lat="47.83043" lon="-3.53837">
        <ele>48.85</ele>
        <time>2020-07-08T10:21:43Z</time>
      </trkpt>
      <trkpt lat="47.83044" lon="-3.53836">
        <ele>49.12</ele>
        <time>2020-07-08T10:21:44Z</time>
      </trkpt>
      <trkpt lat="47.83047" lon="-3.53837">
        <ele>49.3</ele>
        <time>2020-07-08T10:21:45Z</time>
      </trkpt>
      <trkpt lat="47.83048" lon="-3.53835">
        <ele>49.63</ele>
        <time>2020-07-08T10:21:46Z</time>
      </trkpt>
      <trkpt lat="47.8305" lon="-3.53834">
        <ele>50.12</ele>
        <time>2020-07-08T10:21:47Z</time>
      </trkpt>
      <trkpt lat="47.83052" lon="-3.53832">
        <ele>50.49</ele>
        <time>2020-07-08T10:21:48Z</time>
      </trkpt>
      <trkpt lat="47.83053" lon="-3.53831">
        <ele>50.73</ele>
        <time>2020-07-08T10:21:49Z</time>
      </trkpt>
      <trkpt lat="47.83054" lon="-3.53829">
        <ele>50.9</ele>
        <time>2020-07-08T10:21:50Z</time>
      </trkpt>
      <trkpt lat="47.83053" lon="-3.53828">
        <ele>50.95</ele>
        <time>2020-07-08T10:21:51Z</time>
      </trkpt>
      <trkpt lat="47.83054" lon="-3.53827">
        <ele>51.05</ele>
        <time>2020-07-08T10:21:52Z</time>
      </trkpt>
      <trkpt lat="47.83056" lon="-3.53825">
        <ele>51.23</ele>
        <time>2020-07-08T10:21:53Z</time>
      </trkpt>
      <trkpt lat="47.83057" lon="-3.53822">
        <ele>51.45</ele>
        <time>2020-07-08T10:21:54Z</time>
      </trkpt>
      <trkpt lat="47.83059" lon="-3.5382">
        <ele>51.66</ele>
        <time>2020-07-08T10:21:55Z</time>
      </trkpt>
      <trkpt lat="47.83062" lon="-3.5382">
        <ele>51.88</ele>
        <time>2020-07-08T10:21:56Z</time>
      </trkpt>
      <trkpt lat="47.83065" lon="-3.53818">
        <ele>52.1</ele>
        <time>2020-07-08T10:21:57Z</time>
      </trkpt>
      <trkpt lat="47.83066" lon="-3.53817">
        <ele>52.28</ele>
        <time>2020-07-08T10:21:58Z</time>
      </trkpt>
      <trkpt lat="47.83068" lon="-3.53817">
        <ele>52.42</ele>
        <time>2020-07-08T10:21:59Z</time>
      </trkpt>
      <trkpt lat="47.8307" lon="-3.53816">
        <ele>52.56</ele>
        <time>2020-07-08T10:22:00Z</time>
      </trkpt>
      <trkpt lat="47.83072" lon="-3.53815">
        <ele>52.77</ele>
        <time>2020-07-08T10:22:01Z</time>
      </trkpt>
      <trkpt lat="47.83074" lon="-3.53813">
        <ele>52.95</ele>
        <time>2020-07-08T10:22:02Z</time>
      </trkpt>
      <trkpt lat="47.83075" lon="-3.53812">
        <ele>53.09</ele>
        <time>2020-07-08T10:22:03Z</time>
      </trkpt>
      <trkpt lat="47.83076" lon="-3.53811">
        <ele>53.23</ele>
        <time>2020-07-08T10:22:04Z</time>
      </trkpt>
      <trkpt lat="47.83078" lon="-3.53809">
        <ele>53.43</ele>
        <time>2020-07-08T10:22:05Z</time>
      </trkpt>
      <trkpt lat="47.83081" lon="-3.53807">
        <ele>53.67</ele>
        <time>2020-07-08T10:22:06Z</time>
      </trkpt>
      <trkpt lat="47.83082" lon="-3.53806">
        <ele>53.83</ele>
        <time>2020-07-08T10:22:07Z</time>
      </trkpt>
      <trkpt lat="47.83083" lon="-3.53804">
        <ele>53.97</ele>
        <time>2020-07-08T10:22:08Z</time>
      </trkpt>
      <trkpt lat="47.83084" lon="-3.53803">
        <ele>54.06</ele>
        <time>2020-07-08T10:22:09Z</time>
      </trkpt>
      <trkpt lat="47.83085" lon="-3.53802">
        <ele>54.15</ele>
        <time>2020-07-08T10:22:10Z</time>
      </trkpt>
      <trkpt lat="47.83086" lon="-3.538">
        <ele>54.25</ele>
        <time>2020-07-08T10:22:11Z</time>
      </trkpt>
      <trkpt lat="47.83087" lon="-3.53799">
        <ele>54.33</ele>
        <time>2020-07-08T10:22:12Z</time>
      </trkpt>
      <trkpt lat="47.83087" lon="-3.53798">
        <ele>54.4</ele>
        <time>2020-07-08T10:22:13Z</time>
      </trkpt>
      <trkpt lat="47.83087" lon="-3.53796">
        <ele>54.46</ele>
        <time>2020-07-08T10:22:14Z</time>
      </trkpt>
      <trkpt lat="47.83088" lon="-3.53794">
        <ele>54.54</ele>
        <time>2020-07-08T10:22:15Z</time>
      </trkpt>
      <trkpt lat="47.83087" lon="-3.53791">
        <ele>54.62</ele>
        <time>2020-07-08T10:22:16Z</time>
      </trkpt>
      <trkpt lat="47.83087" lon="-3.53789">
        <ele>54.71</ele>
        <time>2020-07-08T10:22:17Z</time>
      </trkpt>
      <trkpt lat="47.83087" lon="-3.53787">
        <ele>54.79</ele>
        <time>2020-07-08T10:22:18Z</time>
      </trkpt>
      <trkpt lat="47.83089" lon="-3.53783">
        <ele>54.95</ele>
        <time>2020-07-08T10:22:19Z</time>
      </trkpt>
      <trkpt lat="47.8309" lon="-3.53779">
        <ele>55.11</ele>
        <time>2020-07-08T10:22:20Z</time>
      </trkpt>
      <trkpt lat="47.83091" lon="-3.53776">
        <ele>55.27</ele>
        <time>2020-07-08T10:22:21Z</time>
      </trkpt>
      <trkpt lat="47.83092" lon="-3.53773">
        <ele>55.43</ele>
        <time>2020-07-08T10:22:22Z</time>
      </trkpt>
      <trkpt lat="47.83093" lon="-3.5377">
        <ele>55.58</ele>
        <time>2020-07-08T10:22:23Z</time>
      </trkpt>
      <trkpt lat="47.83095" lon="-3.53765">
        <ele>55.81</ele>
        <time>2020-07-08T10:22:24Z</time>
      </trkpt>
      <trkpt lat="47.83098" lon="-3.5376">
        <ele>56.04</ele>
        <time>2020-07-08T10:22:25Z</time>
      </trkpt>
      <trkpt lat="47.831" lon="-3.53757">
        <ele>56.24</ele>
        <time>2020-07-08T10:22:26Z</time>
      </trkpt>
      <trkpt lat="47.831" lon="-3.53755">
        <ele>56.38</ele>
        <time>2020-07-08T10:22:27Z</time>
      </trkpt>
      <trkpt lat="47.83101" lon="-3.53754">
        <ele>56.45</ele>
        <time>2020-07-08T10:22:28Z</time>
      </trkpt>
      <trkpt lat="47.83102" lon="-3.53754">
        <ele>56.5</ele>
        <time>2020-07-08T10:22:29Z</time>
      </trkpt>
      <trkpt lat="47.83102" lon="-3.53754">
        <ele>56.51</ele>
        <time>2020-07-08T10:22:30Z</time>
      </trkpt>
      <trkpt lat="47.83102" lon="-3.53754">
        <ele>56.51</ele>
        <time>2020-07-08T10:22:31Z</time>
      </trkpt>
      <trkpt lat="47.83102" lon="-3.53754">
        <ele>56.52</ele>
        <time>2020-07-08T10:22:32Z</time>
      </trkpt>
      <trkpt lat="47.83102" lon="-3.53754">
        <ele>56.52</ele>
        <time>2020-07-08T10:22:33Z</time>
      </trkpt>
      <trkpt lat="47.83102" lon="-3.53754">
        <ele>56.52</ele>
        <time>2020-07-08T10:22:34Z</time>
      </trkpt>
      <trkpt lat="47.83102" lon="-3.53754">
        <ele>56.52</ele>
        <time>2020-07-08T10:22:35Z</time>
      </trkpt>
      <trkpt lat="47.83102" lon="-3.53754">
        <ele>56.52</ele>
        <time>2020-07-08T10:22:36Z</time>
      </trkpt>
      <trkpt lat="47.83101" lon="-3.53752">
        <ele>56.57</ele>
        <time>2020-07-08T10:22:37Z</time>
      </trkpt>
      <trkpt lat="47.83103" lon="-3.53751">
        <ele>56.62</ele>
        <time>2020-07-08T10:22:38Z</time>
      </trkpt>
      <trkpt lat="47.83102" lon="-3.53751">
        <ele>56.65</ele>
        <time>2020-07-08T10:22:39Z</time>
      </trkpt>
      <trkpt lat="47.83103" lon="-3.5375">
        <ele>56.67</ele>
        <time>2020-07-08T10:22:40Z</time>
      </trkpt>
      <trkpt lat="47.83103" lon="-3.5375">
        <ele>56.68</ele>
        <time>2020-07-08T10:22:41Z</time>
      </trkpt>
      <trkpt lat="47.83103" lon="-3.5375">
        <ele>56.68</ele>
        <time>2020-07-08T10:22:42Z</time>
      </trkpt>
      <trkpt lat="47.83103" lon="-3.5375">
        <ele>56.68</ele>
        <time>2020-07-08T10:22:43Z</time>
      </trkpt>
      <trkpt lat="47.83103" lon="-3.5375">
        <ele>56.68</ele>
        <time>2020-07-08T10:22:44Z</time>
      </trkpt>
      <trkpt lat="47.83103" lon="-3.5375">
        <ele>56.68</ele>
        <time>2020-07-08T10:22:45Z</time>
      </trkpt>
      <trkpt lat="47.83103" lon="-3.5375">
        <ele>56.68</ele>
        <time>2020-07-08T10:22:46Z</time>
      </trkpt>
      <trkpt lat="47.83111" lon="-3.53746">
        <ele>57</ele>
        <time>2020-07-08T10:22:47Z</time>
      </trkpt>
      <trkpt lat="47.83112" lon="-3.53745">
        <ele>57.12</ele>
        <time>2020-07-08T10:22:48Z</time>
      </trkpt>
      <trkpt lat="47.83112" lon="-3.53744">
        <ele>57.19</ele>
        <time>2020-07-08T10:22:49Z</time>
      </trkpt>
      <trkpt lat="47.83113" lon="-3.53744">
        <ele>57.22</ele>
        <time>2020-07-08T10:22:50Z</time>
      </trkpt>
      <trkpt lat="47.83113" lon="-3.53744">
        <ele>57.22</ele>
        <time>2020-07-08T10:22:51Z</time>
      </trkpt>
      <trkpt lat="47.83113" lon="-3.53744">
        <ele>57.23</ele>
        <time>2020-07-08T10:22:52Z</time>
      </trkpt>
      <trkpt lat="47.83113" lon="-3.53744">
        <ele>57.23</ele>
        <time>2020-07-08T10:22:53Z</time>
      </trkpt>
      <trkpt lat="47.83113" lon="-3.53744">
        <ele>57.23</ele>
        <time>2020-07-08T10:22:54Z</time>
      </trkpt>
      <trkpt lat="47.83113" lon="-3.53744">
        <ele>57.23</ele>
        <time>2020-07-08T10:22:55Z</time>
      </trkpt>
      <trkpt lat="47.83113" lon="-3.53744">
        <ele>57.23</ele>
        <time>2020-07-08T10:22:56Z</time>
      </trkpt>
      <trkpt lat="47.83113" lon="-3.53744">
        <ele>57.23</ele>
        <time>2020-07-08T10:22:57Z</time>
      </trkpt>
      <trkpt lat="47.83114" lon="-3.53745">
        <ele>57.19</ele>
        <time>2020-07-08T10:22:58Z</time>
      </trkpt>
      <trkpt lat="47.83114" lon="-3.53746">
        <ele>57.17</ele>
        <time>2020-07-08T10:22:59Z</time>
      </trkpt>
      <trkpt lat="47.83115" lon="-3.53746">
        <ele>57.14</ele>
        <time>2020-07-08T10:23:00Z</time>
      </trkpt>
      <trkpt lat="47.83116" lon="-3.53748">
        <ele>57.11</ele>
        <time>2020-07-08T10:23:01Z</time>
      </trkpt>
      <trkpt lat="47.83118" lon="-3.53748">
        <ele>57.08</ele>
        <time>2020-07-08T10:23:02Z</time>
      </trkpt>
      <trkpt lat="47.83118" lon="-3.5375">
        <ele>57.03</ele>
        <time>2020-07-08T10:23:03Z</time>
      </trkpt>
      <trkpt lat="47.83117" lon="-3.5375">
        <ele>57</ele>
        <time>2020-07-08T10:23:04Z</time>
      </trkpt>
      <trkpt lat="47.83117" lon="-3.53751">
        <ele>56.98</ele>
        <time>2020-07-08T10:23:05Z</time>
      </trkpt>
      <trkpt lat="47.83118" lon="-3.53751">
        <ele>56.96</ele>
        <time>2020-07-08T10:23:06Z</time>
      </trkpt>
      <trkpt lat="47.83118" lon="-3.53751">
        <ele>56.95</ele>
        <time>2020-07-08T10:23:07Z</time>
      </trkpt>
      <trkpt lat="47.83118" lon="-3.53751">
        <ele>56.95</ele>
        <time>2020-07-08T10:23:09Z</time>
      </trkpt>
      <trkpt lat="47.83124" lon="-3.53754">
        <ele>56.89</ele>
        <time>2020-07-08T10:23:10Z</time>
      </trkpt>
      <trkpt lat="47.83126" lon="-3.53754">
        <ele>56.88</ele>
        <time>2020-07-08T10:23:11Z</time>
      </trkpt>
      <trkpt lat="47.83128" lon="-3.53755">
        <ele>56.85</ele>
        <time>2020-07-08T10:23:12Z</time>
      </trkpt>
      <trkpt lat="47.83129" lon="-3.53754">
        <ele>56.86</ele>
        <time>2020-07-08T10:23:13Z</time>
      </trkpt>
      <trkpt lat="47.83131" lon="-3.53752">
        <ele>56.89</ele>
        <time>2020-07-08T10:23:14Z</time>
      </trkpt>
      <trkpt lat="47.83134" lon="-3.53752">
        <ele>56.92</ele>
        <time>2020-07-08T10:23:15Z</time>
      </trkpt>
      <trkpt lat="47.83136" lon="-3.53752">
        <ele>56.92</ele>
        <time>2020-07-08T10:23:16Z</time>
      </trkpt>
      <trkpt lat="47.83139" lon="-3.53751">
        <ele>56.94</ele>
        <time>2020-07-08T10:23:17Z</time>
      </trkpt>
      <trkpt lat="47.83141" lon="-3.53751">
        <ele>56.91</ele>
        <time>2020-07-08T10:23:18Z</time>
      </trkpt>
      <trkpt lat="47.83144" lon="-3.5375">
        <ele>56.86</ele>
        <time>2020-07-08T10:23:19Z</time>
      </trkpt>
      <trkpt lat="47.83146" lon="-3.53749">
        <ele>56.82</ele>
        <time>2020-07-08T10:23:20Z</time>
      </trkpt>
      <trkpt lat="47.83147" lon="-3.53748">
        <ele>56.79</ele>
        <time>2020-07-08T10:23:21Z</time>
      </trkpt>
      <trkpt lat="47.83149" lon="-3.53749">
        <ele>56.72</ele>
        <time>2020-07-08T10:23:22Z</time>
      </trkpt>
      <trkpt lat="47.83151" lon="-3.5375">
        <ele>56.62</ele>
        <time>2020-07-08T10:23:23Z</time>
      </trkpt>
      <trkpt lat="47.83153" lon="-3.53752">
        <ele>56.47</ele>
        <time>2020-07-08T10:23:24Z</time>
      </trkpt>
      <trkpt lat="47.83156" lon="-3.53754">
        <ele>56.32</ele>
        <time>2020-07-08T10:23:25Z</time>
      </trkpt>
      <trkpt lat="47.83157" lon="-3.53756">
        <ele>56.18</ele>
        <time>2020-07-08T10:23:26Z</time>
      </trkpt>
      <trkpt lat="47.83159" lon="-3.53758">
        <ele>56.04</ele>
        <time>2020-07-08T10:23:27Z</time>
      </trkpt>
      <trkpt lat="47.83161" lon="-3.53761">
        <ele>55.88</ele>
        <time>2020-07-08T10:23:28Z</time>
      </trkpt>
      <trkpt lat="47.83163" lon="-3.53763">
        <ele>55.73</ele>
        <time>2020-07-08T10:23:29Z</time>
      </trkpt>
      <trkpt lat="47.83166" lon="-3.53763">
        <ele>55.61</ele>
        <time>2020-07-08T10:23:30Z</time>
      </trkpt>
      <trkpt lat="47.83169" lon="-3.53763">
        <ele>55.52</ele>
        <time>2020-07-08T10:23:31Z</time>
      </trkpt>
      <trkpt lat="47.83173" lon="-3.53763">
        <ele>55.45</ele>
        <time>2020-07-08T10:23:32Z</time>
      </trkpt>
      <trkpt lat="47.83175" lon="-3.53762">
        <ele>55.4</ele>
        <time>2020-07-08T10:23:33Z</time>
      </trkpt>
      <trkpt lat="47.83178" lon="-3.53762">
        <ele>55.36</ele>
        <time>2020-07-08T10:23:34Z</time>
      </trkpt>
      <trkpt lat="47.83181" lon="-3.53762">
        <ele>55.3</ele>
        <time>2020-07-08T10:23:35Z</time>
      </trkpt>
      <trkpt lat="47.83185" lon="-3.53762">
        <ele>55.23</ele>
        <time>2020-07-08T10:23:36Z</time>
      </trkpt>
      <trkpt lat="47.8319" lon="-3.53762">
        <ele>55.14</ele>
        <time>2020-07-08T10:23:37Z</time>
      </trkpt>
      <trkpt lat="47.83194" lon="-3.53761">
        <ele>55.06</ele>
        <time>2020-07-08T10:23:38Z</time>
      </trkpt>
      <trkpt lat="47.83198" lon="-3.53762">
        <ele>54.94</ele>
        <time>2020-07-08T10:23:39Z</time>
      </trkpt>
      <trkpt lat="47.83202" lon="-3.53762">
        <ele>54.78</ele>
        <time>2020-07-08T10:23:40Z</time>
      </trkpt>
      <trkpt lat="47.83207" lon="-3.53762">
        <ele>54.61</ele>
        <time>2020-07-08T10:23:41Z</time>
      </trkpt>
      <trkpt lat="47.83211" lon="-3.53762">
        <ele>54.46</ele>
        <time>2020-07-08T10:23:42Z</time>
      </trkpt>
      <trkpt lat="47.83215" lon="-3.53761">
        <ele>54.31</ele>
        <time>2020-07-08T10:23:43Z</time>
      </trkpt>
      <trkpt lat="47.83219" lon="-3.5376">
        <ele>54.17</ele>
        <time>2020-07-08T10:23:44Z</time>
      </trkpt>
      <trkpt lat="47.83224" lon="-3.53758">
        <ele>54.02</ele>
        <time>2020-07-08T10:23:45Z</time>
      </trkpt>
      <trkpt lat="47.83229" lon="-3.53757">
        <ele>53.84</ele>
        <time>2020-07-08T10:23:46Z</time>
      </trkpt>
      <trkpt lat="47.83234" lon="-3.53757">
        <ele>53.65</ele>
        <time>2020-07-08T10:23:47Z</time>
      </trkpt>
      <trkpt lat="47.83238" lon="-3.53756">
        <ele>53.49</ele>
        <time>2020-07-08T10:23:48Z</time>
      </trkpt>
      <trkpt lat="47.83242" lon="-3.53755">
        <ele>53.36</ele>
        <time>2020-07-08T10:23:49Z</time>
      </trkpt>
      <trkpt lat="47.83244" lon="-3.53755">
        <ele>53.26</ele>
        <time>2020-07-08T10:23:50Z</time>
      </trkpt>
      <trkpt lat="47.83248" lon="-3.53753">
        <ele>53.13</ele>
        <time>2020-07-08T10:23:51Z</time>
      </trkpt>
      <trkpt lat="47.8325" lon="-3.53751">
        <ele>53.05</ele>
        <time>2020-07-08T10:23:52Z</time>
      </trkpt>
      <trkpt lat="47.83252" lon="-3.53747">
        <ele>52.54</ele>
        <time>2020-07-08T10:23:53Z</time>
      </trkpt>
      <trkpt lat="47.83254" lon="-3.53743">
        <ele>52.09</ele>
        <time>2020-07-08T10:23:54Z</time>
      </trkpt>
      <trkpt lat="47.83256" lon="-3.53739">
        <ele>51.58</ele>
        <time>2020-07-08T10:23:55Z</time>
      </trkpt>
      <trkpt lat="47.83257" lon="-3.53735">
        <ele>51.2</ele>
        <time>2020-07-08T10:23:56Z</time>
      </trkpt>
      <trkpt lat="47.8326" lon="-3.53731">
        <ele>50.41</ele>
        <time>2020-07-08T10:23:57Z</time>
      </trkpt>
      <trkpt lat="47.83261" lon="-3.53727">
        <ele>50.11</ele>
        <time>2020-07-08T10:23:58Z</time>
      </trkpt>
      <trkpt lat="47.8326" lon="-3.53722">
        <ele>50.18</ele>
        <time>2020-07-08T10:23:59Z</time>
      </trkpt>
      <trkpt lat="47.83259" lon="-3.53719">
        <ele>50.31</ele>
        <time>2020-07-08T10:24:00Z</time>
      </trkpt>
      <trkpt lat="47.83258" lon="-3.53716">
        <ele>50.58</ele>
        <time>2020-07-08T10:24:01Z</time>
      </trkpt>
      <trkpt lat="47.83257" lon="-3.53714">
        <ele>50.76</ele>
        <time>2020-07-08T10:24:02Z</time>
      </trkpt>
      <trkpt lat="47.83258" lon="-3.53713">
        <ele>50.65</ele>
        <time>2020-07-08T10:24:03Z</time>
      </trkpt>
      <trkpt lat="47.83258" lon="-3.53712">
        <ele>50.65</ele>
        <time>2020-07-08T10:24:04Z</time>
      </trkpt>
      <trkpt lat="47.83258" lon="-3.53712">
        <ele>50.75</ele>
        <time>2020-07-08T10:24:05Z</time>
      </trkpt>
      <trkpt lat="47.83258" lon="-3.53712">
        <ele>50.71</ele>
        <time>2020-07-08T10:24:06Z</time>
      </trkpt>
      <trkpt lat="47.83258" lon="-3.53712">
        <ele>50.7</ele>
        <time>2020-07-08T10:24:07Z</time>
      </trkpt>
      <trkpt lat="47.83258" lon="-3.53712">
        <ele>50.7</ele>
        <time>2020-07-08T10:24:08Z</time>
      </trkpt>
      <trkpt lat="47.83258" lon="-3.53712">
        <ele>50.7</ele>
        <time>2020-07-08T10:24:09Z</time>
      </trkpt>
      <trkpt lat="47.83258" lon="-3.53712">
        <ele>50.7</ele>
        <time>2020-07-08T10:24:10Z</time>
      </trkpt>
      <trkpt lat="47.83258" lon="-3.53712">
        <ele>50.7</ele>
        <time>2020-07-08T10:24:11Z</time>
      </trkpt>
      <trkpt lat="47.83258" lon="-3.53712">
        <ele>50.7</ele>
        <time>2020-07-08T10:24:12Z</time>
      </trkpt>
      <trkpt lat="47.83258" lon="-3.53712">
        <ele>50.7</ele>
        <time>2020-07-08T10:24:13Z</time>
      </trkpt>
      <trkpt lat="47.83258" lon="-3.53712">
        <ele>50.7</ele>
        <time>2020-07-08T10:24:14Z</time>
      </trkpt>
      <trkpt lat="47.83263" lon="-3.53709">
        <ele>49.69</ele>
        <time>2020-07-08T10:24:15Z</time>
      </trkpt>
      <trkpt lat="47.83264" lon="-3.53705">
        <ele>49.12</ele>
        <time>2020-07-08T10:24:16Z</time>
      </trkpt>
      <trkpt lat="47.83266" lon="-3.537">
        <ele>48.68</ele>
        <time>2020-07-08T10:24:17Z</time>
      </trkpt>
      <trkpt lat="47.83267" lon="-3.53694">
        <ele>48.24</ele>
        <time>2020-07-08T10:24:18Z</time>
      </trkpt>
      <trkpt lat="47.83268" lon="-3.53689">
        <ele>47.81</ele>
        <time>2020-07-08T10:24:19Z</time>
      </trkpt>
      <trkpt lat="47.83269" lon="-3.53684">
        <ele>47.33</ele>
        <time>2020-07-08T10:24:20Z</time>
      </trkpt>
      <trkpt lat="47.8327" lon="-3.5368">
        <ele>46.81</ele>
        <time>2020-07-08T10:24:21Z</time>
      </trkpt>
      <trkpt lat="47.83271" lon="-3.53677">
        <ele>46.41</ele>
        <time>2020-07-08T10:24:22Z</time>
      </trkpt>
      <trkpt lat="47.83271" lon="-3.53674">
        <ele>46.25</ele>
        <time>2020-07-08T10:24:23Z</time>
      </trkpt>
      <trkpt lat="47.83271" lon="-3.53672">
        <ele>46.07</ele>
        <time>2020-07-08T10:24:24Z</time>
      </trkpt>
      <trkpt lat="47.83272" lon="-3.53667">
        <ele>45.87</ele>
        <time>2020-07-08T10:24:25Z</time>
      </trkpt>
      <trkpt lat="47.83271" lon="-3.53664">
        <ele>45.68</ele>
        <time>2020-07-08T10:24:26Z</time>
      </trkpt>
      <trkpt lat="47.83271" lon="-3.5366">
        <ele>45.51</ele>
        <time>2020-07-08T10:24:27Z</time>
      </trkpt>
      <trkpt lat="47.83271" lon="-3.53656">
        <ele>45.21</ele>
        <time>2020-07-08T10:24:28Z</time>
      </trkpt>
      <trkpt lat="47.83271" lon="-3.53652">
        <ele>44.97</ele>
        <time>2020-07-08T10:24:29Z</time>
      </trkpt>
      <trkpt lat="47.8327" lon="-3.53647">
        <ele>44.79</ele>
        <time>2020-07-08T10:24:30Z</time>
      </trkpt>
      <trkpt lat="47.8327" lon="-3.53643">
        <ele>44.5</ele>
        <time>2020-07-08T10:24:31Z</time>
      </trkpt>
      <trkpt lat="47.83271" lon="-3.53638">
        <ele>44.11</ele>
        <time>2020-07-08T10:24:32Z</time>
      </trkpt>
      <trkpt lat="47.8327" lon="-3.53634">
        <ele>43.78</ele>
        <time>2020-07-08T10:24:33Z</time>
      </trkpt>
      <trkpt lat="47.8327" lon="-3.5363">
        <ele>43.55</ele>
        <time>2020-07-08T10:24:34Z</time>
      </trkpt>
      <trkpt lat="47.8327" lon="-3.53627">
        <ele>43.43</ele>
        <time>2020-07-08T10:24:35Z</time>
      </trkpt>
      <trkpt lat="47.83269" lon="-3.53625">
        <ele>43.36</ele>
        <time>2020-07-08T10:24:36Z</time>
      </trkpt>
      <trkpt lat="47.83269" lon="-3.53625">
        <ele>43.3</ele>
        <time>2020-07-08T10:24:37Z</time>
      </trkpt>
      <trkpt lat="47.8327" lon="-3.53624">
        <ele>43.09</ele>
        <time>2020-07-08T10:24:38Z</time>
      </trkpt>
      <trkpt lat="47.8327" lon="-3.53624">
        <ele>43.03</ele>
        <time>2020-07-08T10:24:39Z</time>
      </trkpt>
      <trkpt lat="47.8327" lon="-3.53624">
        <ele>43.01</ele>
        <time>2020-07-08T10:24:40Z</time>
      </trkpt>
      <trkpt lat="47.8327" lon="-3.53618">
        <ele>42.49</ele>
        <time>2020-07-08T10:24:41Z</time>
      </trkpt>
      <trkpt lat="47.8327" lon="-3.53616">
        <ele>42.33</ele>
        <time>2020-07-08T10:24:42Z</time>
      </trkpt>
      <trkpt lat="47.8327" lon="-3.53615">
        <ele>42.26</ele>
        <time>2020-07-08T10:24:43Z</time>
      </trkpt>
      <trkpt lat="47.83269" lon="-3.53612">
        <ele>42.16</ele>
        <time>2020-07-08T10:24:44Z</time>
      </trkpt>
      <trkpt lat="47.83269" lon="-3.53609">
        <ele>42.11</ele>
        <time>2020-07-08T10:24:45Z</time>
      </trkpt>
      <trkpt lat="47.83268" lon="-3.53605">
        <ele>41.88</ele>
        <time>2020-07-08T10:24:46Z</time>
      </trkpt>
      <trkpt lat="47.83268" lon="-3.53602">
        <ele>41.66</ele>
        <time>2020-07-08T10:24:47Z</time>
      </trkpt>
      <trkpt lat="47.83269" lon="-3.53594">
        <ele>40.77</ele>
        <time>2020-07-08T10:24:48Z</time>
      </trkpt>
      <trkpt lat="47.83269" lon="-3.5359">
        <ele>40.32</ele>
        <time>2020-07-08T10:24:49Z</time>
      </trkpt>
      <trkpt lat="47.83269" lon="-3.53585">
        <ele>39.96</ele>
        <time>2020-07-08T10:24:50Z</time>
      </trkpt>
      <trkpt lat="47.83268" lon="-3.53581">
        <ele>39.67</ele>
        <time>2020-07-08T10:24:51Z</time>
      </trkpt>
      <trkpt lat="47.83268" lon="-3.53578">
        <ele>39.56</ele>
        <time>2020-07-08T10:24:52Z</time>
      </trkpt>
      <trkpt lat="47.83267" lon="-3.53576">
        <ele>39.65</ele>
        <time>2020-07-08T10:24:53Z</time>
      </trkpt>
      <trkpt lat="47.83267" lon="-3.53575">
        <ele>39.54</ele>
        <time>2020-07-08T10:24:54Z</time>
      </trkpt>
      <trkpt lat="47.83267" lon="-3.53573">
        <ele>39.64</ele>
        <time>2020-07-08T10:24:55Z</time>
      </trkpt>
      <trkpt lat="47.83267" lon="-3.53573">
        <ele>39.67</ele>
        <time>2020-07-08T10:24:56Z</time>
      </trkpt>
      <trkpt lat="47.83267" lon="-3.53573">
        <ele>39.68</ele>
        <time>2020-07-08T10:24:57Z</time>
      </trkpt>
      <trkpt lat="47.83267" lon="-3.53573">
        <ele>39.68</ele>
        <time>2020-07-08T10:24:58Z</time>
      </trkpt>
      <trkpt lat="47.83267" lon="-3.53573">
        <ele>39.68</ele>
        <time>2020-07-08T10:24:59Z</time>
      </trkpt>
      <trkpt lat="47.83267" lon="-3.53573">
        <ele>39.68</ele>
        <time>2020-07-08T10:25:00Z</time>
      </trkpt>
      <trkpt lat="47.83259" lon="-3.53563">
        <ele>41.29</ele>
        <time>2020-07-08T10:25:01Z</time>
      </trkpt>
      <trkpt lat="47.83257" lon="-3.5356">
        <ele>42.13</ele>
        <time>2020-07-08T10:25:02Z</time>
      </trkpt>
      <trkpt lat="47.83254" lon="-3.53555">
        <ele>42.89</ele>
        <time>2020-07-08T10:25:03Z</time>
      </trkpt>
      <trkpt lat="47.83252" lon="-3.5355">
        <ele>43.38</ele>
        <time>2020-07-08T10:25:04Z</time>
      </trkpt>
      <trkpt lat="47.8325" lon="-3.53546">
        <ele>43.83</ele>
        <time>2020-07-08T10:25:05Z</time>
      </trkpt>
      <trkpt lat="47.83248" lon="-3.53541">
        <ele>43.95</ele>
        <time>2020-07-08T10:25:06Z</time>
      </trkpt>
      <trkpt lat="47.83246" lon="-3.53537">
        <ele>44.09</ele>
        <time>2020-07-08T10:25:07Z</time>
      </trkpt>
      <trkpt lat="47.83245" lon="-3.53535">
        <ele>44.14</ele>
        <time>2020-07-08T10:25:08Z</time>
      </trkpt>
      <trkpt lat="47.83244" lon="-3.53534">
        <ele>44.23</ele>
        <time>2020-07-08T10:25:09Z</time>
      </trkpt>
      <trkpt lat="47.83244" lon="-3.53534">
        <ele>44.32</ele>
        <time>2020-07-08T10:25:10Z</time>
      </trkpt>
      <trkpt lat="47.83244" lon="-3.53534">
        <ele>44.42</ele>
        <time>2020-07-08T10:25:11Z</time>
      </trkpt>
      <trkpt lat="47.83244" lon="-3.53534">
        <ele>44.45</ele>
        <time>2020-07-08T10:25:12Z</time>
      </trkpt>
      <trkpt lat="47.83244" lon="-3.53534">
        <ele>44.45</ele>
        <time>2020-07-08T10:25:13Z</time>
      </trkpt>
      <trkpt lat="47.83244" lon="-3.53534">
        <ele>44.46</ele>
        <time>2020-07-08T10:25:14Z</time>
      </trkpt>
      <trkpt lat="47.83244" lon="-3.53534">
        <ele>44.46</ele>
        <time>2020-07-08T10:25:15Z</time>
      </trkpt>
      <trkpt lat="47.8324" lon="-3.5353">
        <ele>44.83</ele>
        <time>2020-07-08T10:25:16Z</time>
      </trkpt>
      <trkpt lat="47.8324" lon="-3.53528">
        <ele>44.89</ele>
        <time>2020-07-08T10:25:17Z</time>
      </trkpt>
      <trkpt lat="47.83239" lon="-3.53526">
        <ele>44.91</ele>
        <time>2020-07-08T10:25:18Z</time>
      </trkpt>
      <trkpt lat="47.83238" lon="-3.53523">
        <ele>45.04</ele>
        <time>2020-07-08T10:25:19Z</time>
      </trkpt>
      <trkpt lat="47.83238" lon="-3.53518">
        <ele>44.88</ele>
        <time>2020-07-08T10:25:20Z</time>
      </trkpt>
      <trkpt lat="47.83238" lon="-3.53515">
        <ele>44.58</ele>
        <time>2020-07-08T10:25:21Z</time>
      </trkpt>
      <trkpt lat="47.83239" lon="-3.53513">
        <ele>44.32</ele>
        <time>2020-07-08T10:25:22Z</time>
      </trkpt>
      <trkpt lat="47.83238" lon="-3.53512">
        <ele>44.33</ele>
        <time>2020-07-08T10:25:23Z</time>
      </trkpt>
      <trkpt lat="47.83238" lon="-3.53511">
        <ele>44.33</ele>
        <time>2020-07-08T10:25:24Z</time>
      </trkpt>
      <trkpt lat="47.83238" lon="-3.53511">
        <ele>44.33</ele>
        <time>2020-07-08T10:25:25Z</time>
      </trkpt>
      <trkpt lat="47.83235" lon="-3.53508">
        <ele>44.6</ele>
        <time>2020-07-08T10:25:26Z</time>
      </trkpt>
      <trkpt lat="47.83235" lon="-3.53506">
        <ele>44.77</ele>
        <time>2020-07-08T10:25:27Z</time>
      </trkpt>
      <trkpt lat="47.83234" lon="-3.53505">
        <ele>44.96</ele>
        <time>2020-07-08T10:25:28Z</time>
      </trkpt>
      <trkpt lat="47.83233" lon="-3.53503">
        <ele>45.14</ele>
        <time>2020-07-08T10:25:29Z</time>
      </trkpt>
      <trkpt lat="47.83233" lon="-3.53503">
        <ele>45.2</ele>
        <time>2020-07-08T10:25:30Z</time>
      </trkpt>
      <trkpt lat="47.83233" lon="-3.53503">
        <ele>45.21</ele>
        <time>2020-07-08T10:25:31Z</time>
      </trkpt>
      <trkpt lat="47.83233" lon="-3.53503">
        <ele>45.22</ele>
        <time>2020-07-08T10:25:32Z</time>
      </trkpt>
      <trkpt lat="47.83233" lon="-3.53503">
        <ele>45.22</ele>
        <time>2020-07-08T10:25:33Z</time>
      </trkpt>
      <trkpt lat="47.83233" lon="-3.53503">
        <ele>45.22</ele>
        <time>2020-07-08T10:25:34Z</time>
      </trkpt>
      <trkpt lat="47.83228" lon="-3.53494">
        <ele>45.6</ele>
        <time>2020-07-08T10:25:35Z</time>
      </trkpt>
      <trkpt lat="47.83227" lon="-3.53492">
        <ele>45.79</ele>
        <time>2020-07-08T10:25:36Z</time>
      </trkpt>
      <trkpt lat="47.83226" lon="-3.53489">
        <ele>45.89</ele>
        <time>2020-07-08T10:25:37Z</time>
      </trkpt>
      <trkpt lat="47.83224" lon="-3.53487">
        <ele>45.97</ele>
        <time>2020-07-08T10:25:38Z</time>
      </trkpt>
      <trkpt lat="47.83224" lon="-3.53485">
        <ele>45.95</ele>
        <time>2020-07-08T10:25:39Z</time>
      </trkpt>
      <trkpt lat="47.83222" lon="-3.53482">
        <ele>45.98</ele>
        <time>2020-07-08T10:25:40Z</time>
      </trkpt>
      <trkpt lat="47.83221" lon="-3.53479">
        <ele>45.96</ele>
        <time>2020-07-08T10:25:41Z</time>
      </trkpt>
      <trkpt lat="47.83221" lon="-3.53477">
        <ele>45.82</ele>
        <time>2020-07-08T10:25:42Z</time>
      </trkpt>
      <trkpt lat="47.83219" lon="-3.53474">
        <ele>45.87</ele>
        <time>2020-07-08T10:25:43Z</time>
      </trkpt>
      <trkpt lat="47.83217" lon="-3.53471">
        <ele>45.83</ele>
        <time>2020-07-08T10:25:44Z</time>
      </trkpt>
      <trkpt lat="47.83215" lon="-3.53467">
        <ele>45.8</ele>
        <time>2020-07-08T10:25:45Z</time>
      </trkpt>
      <trkpt lat="47.83213" lon="-3.53464">
        <ele>45.88</ele>
        <time>2020-07-08T10:25:46Z</time>
      </trkpt>
      <trkpt lat="47.83211" lon="-3.53462">
        <ele>46.03</ele>
        <time>2020-07-08T10:25:47Z</time>
      </trkpt>
      <trkpt lat="47.8321" lon="-3.5346">
        <ele>46.11</ele>
        <time>2020-07-08T10:25:48Z</time>
      </trkpt>
      <trkpt lat="47.83209" lon="-3.53458">
        <ele>46.14</ele>
        <time>2020-07-08T10:25:49Z</time>
      </trkpt>
      <trkpt lat="47.83207" lon="-3.53453">
        <ele>46.08</ele>
        <time>2020-07-08T10:25:50Z</time>
      </trkpt>
      <trkpt lat="47.83205" lon="-3.5345">
        <ele>46.03</ele>
        <time>2020-07-08T10:25:51Z</time>
      </trkpt>
      <trkpt lat="47.83204" lon="-3.53446">
        <ele>45.84</ele>
        <time>2020-07-08T10:25:52Z</time>
      </trkpt>
      <trkpt lat="47.83202" lon="-3.53443">
        <ele>45.72</ele>
        <time>2020-07-08T10:25:53Z</time>
      </trkpt>
      <trkpt lat="47.83202" lon="-3.5344">
        <ele>45.53</ele>
        <time>2020-07-08T10:25:54Z</time>
      </trkpt>
      <trkpt lat="47.83202" lon="-3.5344">
        <ele>45.48</ele>
        <time>2020-07-08T10:25:55Z</time>
      </trkpt>
      <trkpt lat="47.83203" lon="-3.5344">
        <ele>45.42</ele>
        <time>2020-07-08T10:25:56Z</time>
      </trkpt>
      <trkpt lat="47.83203" lon="-3.5344">
        <ele>45.43</ele>
        <time>2020-07-08T10:25:57Z</time>
      </trkpt>
      <trkpt lat="47.83203" lon="-3.5344">
        <ele>45.43</ele>
        <time>2020-07-08T10:25:58Z</time>
      </trkpt>
      <trkpt lat="47.83203" lon="-3.5344">
        <ele>45.43</ele>
        <time>2020-07-08T10:25:59Z</time>
      </trkpt>
      <trkpt lat="47.83203" lon="-3.5344">
        <ele>45.43</ele>
        <time>2020-07-08T10:26:00Z</time>
      </trkpt>
      <trkpt lat="47.83203" lon="-3.5344">
        <ele>45.43</ele>
        <time>2020-07-08T10:26:01Z</time>
      </trkpt>
      <trkpt lat="47.83203" lon="-3.5344">
        <ele>45.43</ele>
        <time>2020-07-08T10:26:02Z</time>
      </trkpt>
      <trkpt lat="47.83203" lon="-3.5344">
        <ele>45.43</ele>
        <time>2020-07-08T10:26:03Z</time>
      </trkpt>
      <trkpt lat="47.83203" lon="-3.5344">
        <ele>45.43</ele>
        <time>2020-07-08T10:26:04Z</time>
      </trkpt>
      <trkpt lat="47.83194" lon="-3.53436">
        <ele>45.89</ele>
        <time>2020-07-08T10:26:05Z</time>
      </trkpt>
      <trkpt lat="47.83195" lon="-3.53436">
        <ele>45.94</ele>
        <time>2020-07-08T10:26:06Z</time>
      </trkpt>
      <trkpt lat="47.83195" lon="-3.53436">
        <ele>45.98</ele>
        <time>2020-07-08T10:26:07Z</time>
      </trkpt>
      <trkpt lat="47.83195" lon="-3.53436">
        <ele>45.94</ele>
        <time>2020-07-08T10:26:08Z</time>
      </trkpt>
      <trkpt lat="47.83195" lon="-3.53436">
        <ele>45.93</ele>
        <time>2020-07-08T10:26:09Z</time>
      </trkpt>
      <trkpt lat="47.83195" lon="-3.53436">
        <ele>45.93</ele>
        <time>2020-07-08T10:26:10Z</time>
      </trkpt>
      <trkpt lat="47.83195" lon="-3.53436">
        <ele>45.93</ele>
        <time>2020-07-08T10:26:11Z</time>
      </trkpt>
      <trkpt lat="47.83195" lon="-3.53436">
        <ele>45.93</ele>
        <time>2020-07-08T10:26:12Z</time>
      </trkpt>
      <trkpt lat="47.83195" lon="-3.53436">
        <ele>45.93</ele>
        <time>2020-07-08T10:26:13Z</time>
      </trkpt>
      <trkpt lat="47.83195" lon="-3.53436">
        <ele>45.93</ele>
        <time>2020-07-08T10:26:14Z</time>
      </trkpt>
      <trkpt lat="47.83195" lon="-3.53436">
        <ele>45.93</ele>
        <time>2020-07-08T10:26:15Z</time>
      </trkpt>
      <trkpt lat="47.83195" lon="-3.53437">
        <ele>46.06</ele>
        <time>2020-07-08T10:26:16Z</time>
      </trkpt>
      <trkpt lat="47.83196" lon="-3.53438">
        <ele>46.07</ele>
        <time>2020-07-08T10:26:17Z</time>
      </trkpt>
      <trkpt lat="47.83197" lon="-3.53438">
        <ele>46.03</ele>
        <time>2020-07-08T10:26:18Z</time>
      </trkpt>
      <trkpt lat="47.83198" lon="-3.53439">
        <ele>46.01</ele>
        <time>2020-07-08T10:26:19Z</time>
      </trkpt>
      <trkpt lat="47.83199" lon="-3.53438">
        <ele>45.82</ele>
        <time>2020-07-08T10:26:20Z</time>
      </trkpt>
      <trkpt lat="47.83199" lon="-3.53438">
        <ele>45.76</ele>
        <time>2020-07-08T10:26:21Z</time>
      </trkpt>
      <trkpt lat="47.83199" lon="-3.53438">
        <ele>45.74</ele>
        <time>2020-07-08T10:26:22Z</time>
      </trkpt>
      <trkpt lat="47.83199" lon="-3.53438">
        <ele>45.74</ele>
        <time>2020-07-08T10:26:23Z</time>
      </trkpt>
      <trkpt lat="47.83199" lon="-3.53438">
        <ele>45.73</ele>
        <time>2020-07-08T10:26:24Z</time>
      </trkpt>
      <trkpt lat="47.83199" lon="-3.53438">
        <ele>45.73</ele>
        <time>2020-07-08T10:26:25Z</time>
      </trkpt>
      <trkpt lat="47.83199" lon="-3.53438">
        <ele>45.73</ele>
        <time>2020-07-08T10:26:26Z</time>
      </trkpt>
      <trkpt lat="47.83199" lon="-3.53438">
        <ele>45.73</ele>
        <time>2020-07-08T10:26:27Z</time>
      </trkpt>
      <trkpt lat="47.83199" lon="-3.53438">
        <ele>45.73</ele>
        <time>2020-07-08T10:26:28Z</time>
      </trkpt>
      <trkpt lat="47.83199" lon="-3.53438">
        <ele>45.73</ele>
        <time>2020-07-08T10:26:29Z</time>
      </trkpt>
      <trkpt lat="47.83199" lon="-3.53438">
        <ele>45.73</ele>
        <time>2020-07-08T10:26:30Z</time>
      </trkpt>
      <trkpt lat="47.83199" lon="-3.53438">
        <ele>45.73</ele>
        <time>2020-07-08T10:26:31Z</time>
      </trkpt>
      <trkpt lat="47.83199" lon="-3.53438">
        <ele>45.73</ele>
        <time>2020-07-08T10:26:32Z</time>
      </trkpt>
      <trkpt lat="47.83199" lon="-3.53438">
        <ele>45.73</ele>
        <time>2020-07-08T10:26:33Z</time>
      </trkpt>
      <trkpt lat="47.83199" lon="-3.53438">
        <ele>45.73</ele>
        <time>2020-07-08T10:26:34Z</time>
      </trkpt>
      <trkpt lat="47.83199" lon="-3.53438">
        <ele>45.73</ele>
        <time>2020-07-08T10:26:35Z</time>
      </trkpt>
      <trkpt lat="47.83199" lon="-3.53438">
        <ele>45.73</ele>
        <time>2020-07-08T10:26:36Z</time>
      </trkpt>
      <trkpt lat="47.83199" lon="-3.53438">
        <ele>45.73</ele>
        <time>2020-07-08T10:26:37Z</time>
      </trkpt>
      <trkpt lat="47.83199" lon="-3.53438">
        <ele>45.73</ele>
        <time>2020-07-08T10:26:38Z</time>
      </trkpt>
      <trkpt lat="47.83199" lon="-3.53438">
        <ele>45.73</ele>
        <time>2020-07-08T10:26:39Z</time>
      </trkpt>
      <trkpt lat="47.83199" lon="-3.53438">
        <ele>45.73</ele>
        <time>2020-07-08T10:26:40Z</time>
      </trkpt>
      <trkpt lat="47.83198" lon="-3.53432">
        <ele>45.39</ele>
        <time>2020-07-08T10:26:41Z</time>
      </trkpt>
      <trkpt lat="47.83197" lon="-3.53433">
        <ele>45.4</ele>
        <time>2020-07-08T10:26:42Z</time>
      </trkpt>
      <trkpt lat="47.83197" lon="-3.53433">
        <ele>45.44</ele>
        <time>2020-07-08T10:26:43Z</time>
      </trkpt>
      <trkpt lat="47.83198" lon="-3.53433">
        <ele>45.38</ele>
        <time>2020-07-08T10:26:44Z</time>
      </trkpt>
      <trkpt lat="47.83198" lon="-3.53433">
        <ele>45.37</ele>
        <time>2020-07-08T10:26:45Z</time>
      </trkpt>
      <trkpt lat="47.83198" lon="-3.53433">
        <ele>45.36</ele>
        <time>2020-07-08T10:26:46Z</time>
      </trkpt>
      <trkpt lat="47.83198" lon="-3.53433">
        <ele>45.36</ele>
        <time>2020-07-08T10:26:47Z</time>
      </trkpt>
      <trkpt lat="47.83198" lon="-3.53433">
        <ele>45.36</ele>
        <time>2020-07-08T10:26:48Z</time>
      </trkpt>
      <trkpt lat="47.83198" lon="-3.53433">
        <ele>45.36</ele>
        <time>2020-07-08T10:26:49Z</time>
      </trkpt>
      <trkpt lat="47.83198" lon="-3.53433">
        <ele>45.36</ele>
        <time>2020-07-08T10:26:50Z</time>
      </trkpt>
      <trkpt lat="47.83198" lon="-3.53433">
        <ele>45.36</ele>
        <time>2020-07-08T10:26:51Z</time>
      </trkpt>
      <trkpt lat="47.83198" lon="-3.53433">
        <ele>45.36</ele>
        <time>2020-07-08T10:26:52Z</time>
      </trkpt>
      <trkpt lat="47.83198" lon="-3.53433">
        <ele>45.36</ele>
        <time>2020-07-08T10:26:53Z</time>
      </trkpt>
      <trkpt lat="47.83198" lon="-3.53433">
        <ele>45.36</ele>
        <time>2020-07-08T10:26:54Z</time>
      </trkpt>
      <trkpt lat="47.83198" lon="-3.53433">
        <ele>45.36</ele>
        <time>2020-07-08T10:26:55Z</time>
      </trkpt>
      <trkpt lat="47.83206" lon="-3.5344">
        <ele>45.11</ele>
        <time>2020-07-08T10:26:56Z</time>
      </trkpt>
      <trkpt lat="47.83207" lon="-3.53441">
        <ele>45</ele>
        <time>2020-07-08T10:26:57Z</time>
      </trkpt>
      <trkpt lat="47.83208" lon="-3.53443">
        <ele>44.9</ele>
        <time>2020-07-08T10:26:58Z</time>
      </trkpt>
      <trkpt lat="47.83213" lon="-3.53447">
        <ele>44.69</ele>
        <time>2020-07-08T10:26:59Z</time>
      </trkpt>
      <trkpt lat="47.83215" lon="-3.53449">
        <ele>44.51</ele>
        <time>2020-07-08T10:27:00Z</time>
      </trkpt>
      <trkpt lat="47.83218" lon="-3.53452">
        <ele>44.27</ele>
        <time>2020-07-08T10:27:01Z</time>
      </trkpt>
      <trkpt lat="47.83221" lon="-3.53454">
        <ele>43.98</ele>
        <time>2020-07-08T10:27:02Z</time>
      </trkpt>
      <trkpt lat="47.83224" lon="-3.53456">
        <ele>43.66</ele>
        <time>2020-07-08T10:27:03Z</time>
      </trkpt>
      <trkpt lat="47.83228" lon="-3.53459">
        <ele>43.22</ele>
        <time>2020-07-08T10:27:04Z</time>
      </trkpt>
      <trkpt lat="47.8323" lon="-3.53461">
        <ele>42.85</ele>
        <time>2020-07-08T10:27:05Z</time>
      </trkpt>
      <trkpt lat="47.83234" lon="-3.53463">
        <ele>42.39</ele>
        <time>2020-07-08T10:27:06Z</time>
      </trkpt>
      <trkpt lat="47.83237" lon="-3.53467">
        <ele>41.81</ele>
        <time>2020-07-08T10:27:07Z</time>
      </trkpt>
      <trkpt lat="47.83241" lon="-3.5347">
        <ele>41.14</ele>
        <time>2020-07-08T10:27:08Z</time>
      </trkpt>
      <trkpt lat="47.83244" lon="-3.53472">
        <ele>40.55</ele>
        <time>2020-07-08T10:27:09Z</time>
      </trkpt>
      <trkpt lat="47.83246" lon="-3.53474">
        <ele>40.07</ele>
        <time>2020-07-08T10:27:10Z</time>
      </trkpt>
      <trkpt lat="47.83249" lon="-3.53475">
        <ele>39.53</ele>
        <time>2020-07-08T10:27:11Z</time>
      </trkpt>
      <trkpt lat="47.83253" lon="-3.53477">
        <ele>38.72</ele>
        <time>2020-07-08T10:27:12Z</time>
      </trkpt>
      <trkpt lat="47.83257" lon="-3.5348">
        <ele>37.89</ele>
        <time>2020-07-08T10:27:13Z</time>
      </trkpt>
      <trkpt lat="47.8326" lon="-3.53483">
        <ele>37.08</ele>
        <time>2020-07-08T10:27:14Z</time>
      </trkpt>
      <trkpt lat="47.83264" lon="-3.53486">
        <ele>36.15</ele>
        <time>2020-07-08T10:27:15Z</time>
      </trkpt>
      <trkpt lat="47.83268" lon="-3.53489">
        <ele>35.15</ele>
        <time>2020-07-08T10:27:16Z</time>
      </trkpt>
      <trkpt lat="47.83271" lon="-3.53492">
        <ele>34.17</ele>
        <time>2020-07-08T10:27:17Z</time>
      </trkpt>
      <trkpt lat="47.83274" lon="-3.53495">
        <ele>33.33</ele>
        <time>2020-07-08T10:27:18Z</time>
      </trkpt>
      <trkpt lat="47.83277" lon="-3.53497">
        <ele>32.49</ele>
        <time>2020-07-08T10:27:19Z</time>
      </trkpt>
      <trkpt lat="47.8328" lon="-3.53499">
        <ele>31.89</ele>
        <time>2020-07-08T10:27:20Z</time>
      </trkpt>
      <trkpt lat="47.83282" lon="-3.53502">
        <ele>31.46</ele>
        <time>2020-07-08T10:27:21Z</time>
      </trkpt>
      <trkpt lat="47.83285" lon="-3.53505">
        <ele>31.11</ele>
        <time>2020-07-08T10:27:22Z</time>
      </trkpt>
      <trkpt lat="47.83287" lon="-3.53507">
        <ele>30.87</ele>
        <time>2020-07-08T10:27:23Z</time>
      </trkpt>
      <trkpt lat="47.83289" lon="-3.5351">
        <ele>30.63</ele>
        <time>2020-07-08T10:27:24Z</time>
      </trkpt>
      <trkpt lat="47.8329" lon="-3.53511">
        <ele>30.4</ele>
        <time>2020-07-08T10:27:25Z</time>
      </trkpt>
      <trkpt lat="47.83292" lon="-3.53512">
        <ele>30.16</ele>
        <time>2020-07-08T10:27:26Z</time>
      </trkpt>
      <trkpt lat="47.83295" lon="-3.53514">
        <ele>29.87</ele>
        <time>2020-07-08T10:27:27Z</time>
      </trkpt>
      <trkpt lat="47.83298" lon="-3.53518">
        <ele>29.57</ele>
        <time>2020-07-08T10:27:28Z</time>
      </trkpt>
      <trkpt lat="47.833" lon="-3.5352">
        <ele>29.35</ele>
        <time>2020-07-08T10:27:29Z</time>
      </trkpt>
      <trkpt lat="47.83304" lon="-3.53522">
        <ele>28.99</ele>
        <time>2020-07-08T10:27:30Z</time>
      </trkpt>
      <trkpt lat="47.83307" lon="-3.53524">
        <ele>28.65</ele>
        <time>2020-07-08T10:27:31Z</time>
      </trkpt>
      <trkpt lat="47.83309" lon="-3.53526">
        <ele>28.44</ele>
        <time>2020-07-08T10:27:32Z</time>
      </trkpt>
      <trkpt lat="47.83313" lon="-3.5353">
        <ele>28.17</ele>
        <time>2020-07-08T10:27:33Z</time>
      </trkpt>
      <trkpt lat="47.83316" lon="-3.53531">
        <ele>27.86</ele>
        <time>2020-07-08T10:27:34Z</time>
      </trkpt>
      <trkpt lat="47.83318" lon="-3.53533">
        <ele>27.66</ele>
        <time>2020-07-08T10:27:35Z</time>
      </trkpt>
      <trkpt lat="47.83319" lon="-3.53533">
        <ele>27.5</ele>
        <time>2020-07-08T10:27:36Z</time>
      </trkpt>
      <trkpt lat="47.8332" lon="-3.53533">
        <ele>27.33</ele>
        <time>2020-07-08T10:27:37Z</time>
      </trkpt>
      <trkpt lat="47.8332" lon="-3.53532">
        <ele>27.23</ele>
        <time>2020-07-08T10:27:38Z</time>
      </trkpt>
      <trkpt lat="47.83321" lon="-3.53532">
        <ele>27.17</ele>
        <time>2020-07-08T10:27:39Z</time>
      </trkpt>
      <trkpt lat="47.83321" lon="-3.53532">
        <ele>27.15</ele>
        <time>2020-07-08T10:27:40Z</time>
      </trkpt>
      <trkpt lat="47.83321" lon="-3.53532">
        <ele>27.14</ele>
        <time>2020-07-08T10:27:41Z</time>
      </trkpt>
      <trkpt lat="47.83321" lon="-3.53532">
        <ele>27.14</ele>
        <time>2020-07-08T10:27:42Z</time>
      </trkpt>
      <trkpt lat="47.83321" lon="-3.53532">
        <ele>27.14</ele>
        <time>2020-07-08T10:27:43Z</time>
      </trkpt>
      <trkpt lat="47.83321" lon="-3.53532">
        <ele>27.14</ele>
        <time>2020-07-08T10:27:44Z</time>
      </trkpt>
      <trkpt lat="47.83321" lon="-3.53532">
        <ele>27.14</ele>
        <time>2020-07-08T10:27:45Z</time>
      </trkpt>
      <trkpt lat="47.83321" lon="-3.53532">
        <ele>27.14</ele>
        <time>2020-07-08T10:27:46Z</time>
      </trkpt>
      <trkpt lat="47.83321" lon="-3.53532">
        <ele>27.14</ele>
        <time>2020-07-08T10:27:47Z</time>
      </trkpt>
      <trkpt lat="47.83321" lon="-3.53532">
        <ele>27.14</ele>
        <time>2020-07-08T10:27:48Z</time>
      </trkpt>
      <trkpt lat="47.83321" lon="-3.53532">
        <ele>27.14</ele>
        <time>2020-07-08T10:27:49Z</time>
      </trkpt>
      <trkpt lat="47.83321" lon="-3.53532">
        <ele>27.14</ele>
        <time>2020-07-08T10:27:50Z</time>
      </trkpt>
      <trkpt lat="47.83321" lon="-3.53532">
        <ele>27.14</ele>
        <time>2020-07-08T10:27:51Z</time>
      </trkpt>
      <trkpt lat="47.83321" lon="-3.53532">
        <ele>27.14</ele>
        <time>2020-07-08T10:27:52Z</time>
      </trkpt>
      <trkpt lat="47.83321" lon="-3.53532">
        <ele>27.14</ele>
        <time>2020-07-08T10:27:53Z</time>
      </trkpt>
      <trkpt lat="47.83321" lon="-3.53532">
        <ele>27.14</ele>
        <time>2020-07-08T10:27:54Z</time>
      </trkpt>
      <trkpt lat="47.83321" lon="-3.53532">
        <ele>27.14</ele>
        <time>2020-07-08T10:27:55Z</time>
      </trkpt>
      <trkpt lat="47.83321" lon="-3.53532">
        <ele>27.14</ele>
        <time>2020-07-08T10:27:56Z</time>
      </trkpt>
      <trkpt lat="47.83321" lon="-3.53532">
        <ele>27.14</ele>
        <time>2020-07-08T10:27:57Z</time>
      </trkpt>
      <trkpt lat="47.83321" lon="-3.53532">
        <ele>27.14</ele>
        <time>2020-07-08T10:27:58Z</time>
      </trkpt>
      <trkpt lat="47.83333" lon="-3.53537">
        <ele>26.38</ele>
        <time>2020-07-08T10:27:59Z</time>
      </trkpt>
      <trkpt lat="47.83335" lon="-3.53539">
        <ele>26.14</ele>
        <time>2020-07-08T10:28:00Z</time>
      </trkpt>
      <trkpt lat="47.83336" lon="-3.53541">
        <ele>26.04</ele>
        <time>2020-07-08T10:28:01Z</time>
      </trkpt>
      <trkpt lat="47.83338" lon="-3.53542">
        <ele>25.98</ele>
        <time>2020-07-08T10:28:02Z</time>
      </trkpt>
      <trkpt lat="47.8334" lon="-3.53543">
        <ele>25.85</ele>
        <time>2020-07-08T10:28:03Z</time>
      </trkpt>
      <trkpt lat="47.83343" lon="-3.53544">
        <ele>25.62</ele>
        <time>2020-07-08T10:28:04Z</time>
      </trkpt>
      <trkpt lat="47.83346" lon="-3.53545">
        <ele>25.32</ele>
        <time>2020-07-08T10:28:05Z</time>
      </trkpt>
      <trkpt lat="47.83349" lon="-3.53547">
        <ele>25.05</ele>
        <time>2020-07-08T10:28:06Z</time>
      </trkpt>
      <trkpt lat="47.8335" lon="-3.53548">
        <ele>24.93</ele>
        <time>2020-07-08T10:28:07Z</time>
      </trkpt>
      <trkpt lat="47.83352" lon="-3.53549">
        <ele>24.78</ele>
        <time>2020-07-08T10:28:08Z</time>
      </trkpt>
      <trkpt lat="47.83353" lon="-3.53549">
        <ele>24.66</ele>
        <time>2020-07-08T10:28:09Z</time>
      </trkpt>
      <trkpt lat="47.83355" lon="-3.53551">
        <ele>24.61</ele>
        <time>2020-07-08T10:28:10Z</time>
      </trkpt>
      <trkpt lat="47.83355" lon="-3.53551">
        <ele>24.59</ele>
        <time>2020-07-08T10:28:11Z</time>
      </trkpt>
      <trkpt lat="47.83359" lon="-3.53554">
        <ele>24.28</ele>
        <time>2020-07-08T10:28:12Z</time>
      </trkpt>
      <trkpt lat="47.83361" lon="-3.53555">
        <ele>24.11</ele>
        <time>2020-07-08T10:28:13Z</time>
      </trkpt>
      <trkpt lat="47.83361" lon="-3.53555">
        <ele>24.05</ele>
        <time>2020-07-08T10:28:14Z</time>
      </trkpt>
      <trkpt lat="47.83362" lon="-3.53555">
        <ele>23.98</ele>
        <time>2020-07-08T10:28:15Z</time>
      </trkpt>
      <trkpt lat="47.83362" lon="-3.53555">
        <ele>23.91</ele>
        <time>2020-07-08T10:28:16Z</time>
      </trkpt>
      <trkpt lat="47.83362" lon="-3.53555">
        <ele>23.89</ele>
        <time>2020-07-08T10:28:17Z</time>
      </trkpt>
      <trkpt lat="47.83362" lon="-3.53555">
        <ele>23.89</ele>
        <time>2020-07-08T10:28:18Z</time>
      </trkpt>
      <trkpt lat="47.83362" lon="-3.53555">
        <ele>23.88</ele>
        <time>2020-07-08T10:28:19Z</time>
      </trkpt>
      <trkpt lat="47.83368" lon="-3.53557">
        <ele>23.54</ele>
        <time>2020-07-08T10:28:20Z</time>
      </trkpt>
      <trkpt lat="47.83369" lon="-3.53557">
        <ele>23.32</ele>
        <time>2020-07-08T10:28:21Z</time>
      </trkpt>
      <trkpt lat="47.83372" lon="-3.53558">
        <ele>23.1</ele>
        <time>2020-07-08T10:28:22Z</time>
      </trkpt>
      <trkpt lat="47.83372" lon="-3.53558">
        <ele>22.97</ele>
        <time>2020-07-08T10:28:23Z</time>
      </trkpt>
      <trkpt lat="47.83373" lon="-3.53558">
        <ele>22.89</ele>
        <time>2020-07-08T10:28:24Z</time>
      </trkpt>
      <trkpt lat="47.83374" lon="-3.53557">
        <ele>22.79</ele>
        <time>2020-07-08T10:28:25Z</time>
      </trkpt>
      <trkpt lat="47.83374" lon="-3.53557">
        <ele>22.69</ele>
        <time>2020-07-08T10:28:26Z</time>
      </trkpt>
      <trkpt lat="47.83374" lon="-3.53557">
        <ele>22.66</ele>
        <time>2020-07-08T10:28:27Z</time>
      </trkpt>
      <trkpt lat="47.83374" lon="-3.53557">
        <ele>22.65</ele>
        <time>2020-07-08T10:28:28Z</time>
      </trkpt>
      <trkpt lat="47.83374" lon="-3.53557">
        <ele>22.65</ele>
        <time>2020-07-08T10:28:29Z</time>
      </trkpt>
      <trkpt lat="47.83374" lon="-3.53557">
        <ele>22.65</ele>
        <time>2020-07-08T10:28:30Z</time>
      </trkpt>
      <trkpt lat="47.83374" lon="-3.53557">
        <ele>22.65</ele>
        <time>2020-07-08T10:28:31Z</time>
      </trkpt>
      <trkpt lat="47.83374" lon="-3.53557">
        <ele>22.65</ele>
        <time>2020-07-08T10:28:32Z</time>
      </trkpt>
      <trkpt lat="47.83374" lon="-3.53557">
        <ele>22.65</ele>
        <time>2020-07-08T10:28:33Z</time>
      </trkpt>
      <trkpt lat="47.83374" lon="-3.53557">
        <ele>22.65</ele>
        <time>2020-07-08T10:28:34Z</time>
      </trkpt>
      <trkpt lat="47.83374" lon="-3.53557">
        <ele>22.65</ele>
        <time>2020-07-08T10:28:35Z</time>
      </trkpt>
      <trkpt lat="47.83374" lon="-3.53557">
        <ele>22.65</ele>
        <time>2020-07-08T10:28:36Z</time>
      </trkpt>
      <trkpt lat="47.83374" lon="-3.53557">
        <ele>22.65</ele>
        <time>2020-07-08T10:28:37Z</time>
      </trkpt>
      <trkpt lat="47.83374" lon="-3.53557">
        <ele>22.65</ele>
        <time>2020-07-08T10:28:38Z</time>
      </trkpt>
      <trkpt lat="47.83374" lon="-3.53557">
        <ele>22.65</ele>
        <time>2020-07-08T10:28:39Z</time>
      </trkpt>
      <trkpt lat="47.83374" lon="-3.53557">
        <ele>22.65</ele>
        <time>2020-07-08T10:28:40Z</time>
      </trkpt>
      <trkpt lat="47.83374" lon="-3.53557">
        <ele>22.65</ele>
        <time>2020-07-08T10:28:41Z</time>
      </trkpt>
      <trkpt lat="47.83374" lon="-3.53557">
        <ele>22.65</ele>
        <time>2020-07-08T10:28:42Z</time>
      </trkpt>
      <trkpt lat="47.83374" lon="-3.53557">
        <ele>22.65</ele>
        <time>2020-07-08T10:28:43Z</time>
      </trkpt>
      <trkpt lat="47.83374" lon="-3.53557">
        <ele>22.65</ele>
        <time>2020-07-08T10:28:44Z</time>
      </trkpt>
      <trkpt lat="47.83374" lon="-3.53557">
        <ele>22.65</ele>
        <time>2020-07-08T10:28:45Z</time>
      </trkpt>
      <trkpt lat="47.83374" lon="-3.53557">
        <ele>22.65</ele>
        <time>2020-07-08T10:28:46Z</time>
      </trkpt>
      <trkpt lat="47.83374" lon="-3.53557">
        <ele>22.65</ele>
        <time>2020-07-08T10:28:47Z</time>
      </trkpt>
      <trkpt lat="47.83374" lon="-3.53557">
        <ele>22.65</ele>
        <time>2020-07-08T10:28:48Z</time>
      </trkpt>
      <trkpt lat="47.83374" lon="-3.53557">
        <ele>22.65</ele>
        <time>2020-07-08T10:28:49Z</time>
      </trkpt>
      <trkpt lat="47.83374" lon="-3.53557">
        <ele>22.65</ele>
        <time>2020-07-08T10:28:50Z</time>
      </trkpt>
      <trkpt lat="47.83374" lon="-3.53557">
        <ele>22.65</ele>
        <time>2020-07-08T10:28:51Z</time>
      </trkpt>
      <trkpt lat="47.83383" lon="-3.53559">
        <ele>22</ele>
        <time>2020-07-08T10:28:52Z</time>
      </trkpt>
      <trkpt lat="47.83384" lon="-3.53559">
        <ele>21.79</ele>
        <time>2020-07-08T10:28:53Z</time>
      </trkpt>
      <trkpt lat="47.83383" lon="-3.53559">
        <ele>21.75</ele>
        <time>2020-07-08T10:28:54Z</time>
      </trkpt>
      <trkpt lat="47.83383" lon="-3.53559">
        <ele>21.76</ele>
        <time>2020-07-08T10:28:55Z</time>
      </trkpt>
      <trkpt lat="47.83383" lon="-3.53559">
        <ele>21.76</ele>
        <time>2020-07-08T10:28:56Z</time>
      </trkpt>
      <trkpt lat="47.83383" lon="-3.53559">
        <ele>21.76</ele>
        <time>2020-07-08T10:28:57Z</time>
      </trkpt>
      <trkpt lat="47.83383" lon="-3.53559">
        <ele>21.76</ele>
        <time>2020-07-08T10:28:58Z</time>
      </trkpt>
      <trkpt lat="47.83383" lon="-3.53559">
        <ele>21.76</ele>
        <time>2020-07-08T10:28:59Z</time>
      </trkpt>
      <trkpt lat="47.83383" lon="-3.53559">
        <ele>21.76</ele>
        <time>2020-07-08T10:29:00Z</time>
      </trkpt>
      <trkpt lat="47.83383" lon="-3.53559">
        <ele>21.76</ele>
        <time>2020-07-08T10:29:01Z</time>
      </trkpt>
      <trkpt lat="47.83383" lon="-3.53559">
        <ele>21.76</ele>
        <time>2020-07-08T10:29:02Z</time>
      </trkpt>
      <trkpt lat="47.83383" lon="-3.53559">
        <ele>21.76</ele>
        <time>2020-07-08T10:29:03Z</time>
      </trkpt>
      <trkpt lat="47.83383" lon="-3.53559">
        <ele>21.76</ele>
        <time>2020-07-08T10:29:04Z</time>
      </trkpt>
      <trkpt lat="47.83383" lon="-3.53559">
        <ele>21.76</ele>
        <time>2020-07-08T10:29:05Z</time>
      </trkpt>
      <trkpt lat="47.83383" lon="-3.53559">
        <ele>21.76</ele>
        <time>2020-07-08T10:29:06Z</time>
      </trkpt>
      <trkpt lat="47.83383" lon="-3.53559">
        <ele>21.76</ele>
        <time>2020-07-08T10:29:07Z</time>
      </trkpt>
      <trkpt lat="47.83383" lon="-3.53559">
        <ele>21.76</ele>
        <time>2020-07-08T10:29:08Z</time>
      </trkpt>
      <trkpt lat="47.83383" lon="-3.53559">
        <ele>21.76</ele>
        <time>2020-07-08T10:29:09Z</time>
      </trkpt>
      <trkpt lat="47.83383" lon="-3.53559">
        <ele>21.76</ele>
        <time>2020-07-08T10:29:10Z</time>
      </trkpt>
      <trkpt lat="47.83383" lon="-3.53559">
        <ele>21.76</ele>
        <time>2020-07-08T10:29:11Z</time>
      </trkpt>
      <trkpt lat="47.83383" lon="-3.53559">
        <ele>21.76</ele>
        <time>2020-07-08T10:29:12Z</time>
      </trkpt>
      <trkpt lat="47.83392" lon="-3.53564">
        <ele>21.26</ele>
        <time>2020-07-08T10:29:13Z</time>
      </trkpt>
      <trkpt lat="47.83392" lon="-3.53565">
        <ele>21.1</ele>
        <time>2020-07-08T10:29:14Z</time>
      </trkpt>
      <trkpt lat="47.83393" lon="-3.53565">
        <ele>21.04</ele>
        <time>2020-07-08T10:29:15Z</time>
      </trkpt>
      <trkpt lat="47.83393" lon="-3.53566">
        <ele>21.01</ele>
        <time>2020-07-08T10:29:16Z</time>
      </trkpt>
      <trkpt lat="47.83393" lon="-3.53566">
        <ele>21</ele>
        <time>2020-07-08T10:29:17Z</time>
      </trkpt>
      <trkpt lat="47.83393" lon="-3.53566">
        <ele>21</ele>
        <time>2020-07-08T10:29:18Z</time>
      </trkpt>
      <trkpt lat="47.83393" lon="-3.53566">
        <ele>21</ele>
        <time>2020-07-08T10:29:19Z</time>
      </trkpt>
      <trkpt lat="47.83393" lon="-3.53566">
        <ele>21</ele>
        <time>2020-07-08T10:29:20Z</time>
      </trkpt>
      <trkpt lat="47.83393" lon="-3.53566">
        <ele>21</ele>
        <time>2020-07-08T10:29:21Z</time>
      </trkpt>
      <trkpt lat="47.83393" lon="-3.53566">
        <ele>21</ele>
        <time>2020-07-08T10:29:22Z</time>
      </trkpt>
      <trkpt lat="47.83393" lon="-3.53566">
        <ele>21</ele>
        <time>2020-07-08T10:29:23Z</time>
      </trkpt>
      <trkpt lat="47.83393" lon="-3.53566">
        <ele>21</ele>
        <time>2020-07-08T10:29:24Z</time>
      </trkpt>
      <trkpt lat="47.83393" lon="-3.53566">
        <ele>21</ele>
        <time>2020-07-08T10:29:25Z</time>
      </trkpt>
      <trkpt lat="47.83393" lon="-3.53566">
        <ele>21</ele>
        <time>2020-07-08T10:29:26Z</time>
      </trkpt>
      <trkpt lat="47.83393" lon="-3.53566">
        <ele>21</ele>
        <time>2020-07-08T10:29:27Z</time>
      </trkpt>
      <trkpt lat="47.83393" lon="-3.53566">
        <ele>21</ele>
        <time>2020-07-08T10:29:28Z</time>
      </trkpt>
      <trkpt lat="47.83393" lon="-3.53566">
        <ele>21</ele>
        <time>2020-07-08T10:29:29Z</time>
      </trkpt>
      <trkpt lat="47.83393" lon="-3.53566">
        <ele>21</ele>
        <time>2020-07-08T10:29:30Z</time>
      </trkpt>
      <trkpt lat="47.83393" lon="-3.53566">
        <ele>21</ele>
        <time>2020-07-08T10:29:31Z</time>
      </trkpt>
      <trkpt lat="47.83393" lon="-3.53566">
        <ele>21</ele>
        <time>2020-07-08T10:29:32Z</time>
      </trkpt>
      <trkpt lat="47.83393" lon="-3.53566">
        <ele>21</ele>
        <time>2020-07-08T10:29:33Z</time>
      </trkpt>
      <trkpt lat="47.83393" lon="-3.53566">
        <ele>21</ele>
        <time>2020-07-08T10:29:34Z</time>
      </trkpt>
      <trkpt lat="47.83393" lon="-3.53566">
        <ele>21</ele>
        <time>2020-07-08T10:29:35Z</time>
      </trkpt>
      <trkpt lat="47.83393" lon="-3.53566">
        <ele>21</ele>
        <time>2020-07-08T10:29:36Z</time>
      </trkpt>
      <trkpt lat="47.83393" lon="-3.53566">
        <ele>21</ele>
        <time>2020-07-08T10:29:37Z</time>
      </trkpt>
      <trkpt lat="47.83393" lon="-3.53566">
        <ele>21</ele>
        <time>2020-07-08T10:29:38Z</time>
      </trkpt>
      <trkpt lat="47.83393" lon="-3.53566">
        <ele>21</ele>
        <time>2020-07-08T10:29:39Z</time>
      </trkpt>
      <trkpt lat="47.83393" lon="-3.53566">
        <ele>21</ele>
        <time>2020-07-08T10:29:40Z</time>
      </trkpt>
      <trkpt lat="47.83393" lon="-3.53566">
        <ele>21</ele>
        <time>2020-07-08T10:29:41Z</time>
      </trkpt>
      <trkpt lat="47.83393" lon="-3.53566">
        <ele>21</ele>
        <time>2020-07-08T10:29:42Z</time>
      </trkpt>
      <trkpt lat="47.83393" lon="-3.53566">
        <ele>21</ele>
        <time>2020-07-08T10:29:43Z</time>
      </trkpt>
      <trkpt lat="47.83393" lon="-3.53566">
        <ele>21</ele>
        <time>2020-07-08T10:29:44Z</time>
      </trkpt>
      <trkpt lat="47.83404" lon="-3.53567">
        <ele>20.38</ele>
        <time>2020-07-08T10:29:45Z</time>
      </trkpt>
      <trkpt lat="47.83404" lon="-3.53567">
        <ele>20.18</ele>
        <time>2020-07-08T10:29:46Z</time>
      </trkpt>
      <trkpt lat="47.83405" lon="-3.53566">
        <ele>20.04</ele>
        <time>2020-07-08T10:29:47Z</time>
      </trkpt>
      <trkpt lat="47.83405" lon="-3.53565">
        <ele>19.98</ele>
        <time>2020-07-08T10:29:48Z</time>
      </trkpt>
      <trkpt lat="47.83405" lon="-3.53565">
        <ele>19.96</ele>
        <time>2020-07-08T10:29:49Z</time>
      </trkpt>
      <trkpt lat="47.83405" lon="-3.53565">
        <ele>19.95</ele>
        <time>2020-07-08T10:29:50Z</time>
      </trkpt>
      <trkpt lat="47.83405" lon="-3.53565">
        <ele>19.95</ele>
        <time>2020-07-08T10:29:51Z</time>
      </trkpt>
      <trkpt lat="47.83405" lon="-3.53565">
        <ele>19.95</ele>
        <time>2020-07-08T10:29:52Z</time>
      </trkpt>
      <trkpt lat="47.83405" lon="-3.53565">
        <ele>19.95</ele>
        <time>2020-07-08T10:29:53Z</time>
      </trkpt>
      <trkpt lat="47.83405" lon="-3.53565">
        <ele>19.95</ele>
        <time>2020-07-08T10:29:54Z</time>
      </trkpt>
      <trkpt lat="47.83405" lon="-3.53565">
        <ele>19.95</ele>
        <time>2020-07-08T10:29:55Z</time>
      </trkpt>
      <trkpt lat="47.83405" lon="-3.53565">
        <ele>19.95</ele>
        <time>2020-07-08T10:29:56Z</time>
      </trkpt>
      <trkpt lat="47.83405" lon="-3.53565">
        <ele>19.95</ele>
        <time>2020-07-08T10:29:57Z</time>
      </trkpt>
      <trkpt lat="47.83405" lon="-3.53565">
        <ele>19.95</ele>
        <time>2020-07-08T10:29:58Z</time>
      </trkpt>
      <trkpt lat="47.83405" lon="-3.53565">
        <ele>19.95</ele>
        <time>2020-07-08T10:29:59Z</time>
      </trkpt>
      <trkpt lat="47.83405" lon="-3.53565">
        <ele>19.95</ele>
        <time>2020-07-08T10:30:00Z</time>
      </trkpt>
      <trkpt lat="47.83405" lon="-3.53565">
        <ele>19.95</ele>
        <time>2020-07-08T10:30:01Z</time>
      </trkpt>
      <trkpt lat="47.83405" lon="-3.53565">
        <ele>19.95</ele>
        <time>2020-07-08T10:30:02Z</time>
      </trkpt>
      <trkpt lat="47.83405" lon="-3.53565">
        <ele>19.95</ele>
        <time>2020-07-08T10:30:03Z</time>
      </trkpt>
      <trkpt lat="47.83405" lon="-3.53565">
        <ele>19.95</ele>
        <time>2020-07-08T10:30:04Z</time>
      </trkpt>
      <trkpt lat="47.83405" lon="-3.53565">
        <ele>19.95</ele>
        <time>2020-07-08T10:30:05Z</time>
      </trkpt>
      <trkpt lat="47.83405" lon="-3.53565">
        <ele>19.95</ele>
        <time>2020-07-08T10:30:06Z</time>
      </trkpt>
      <trkpt lat="47.83415" lon="-3.5357">
        <ele>19.41</ele>
        <time>2020-07-08T10:30:07Z</time>
      </trkpt>
      <trkpt lat="47.83415" lon="-3.53572">
        <ele>19.22</ele>
        <time>2020-07-08T10:30:08Z</time>
      </trkpt>
      <trkpt lat="47.83417" lon="-3.53572">
        <ele>19.07</ele>
        <time>2020-07-08T10:30:09Z</time>
      </trkpt>
      <trkpt lat="47.83418" lon="-3.53571">
        <ele>19</ele>
        <time>2020-07-08T10:30:10Z</time>
      </trkpt>
      <trkpt lat="47.83418" lon="-3.53571">
        <ele>18.98</ele>
        <time>2020-07-08T10:30:11Z</time>
      </trkpt>
      <trkpt lat="47.83418" lon="-3.53571">
        <ele>18.97</ele>
        <time>2020-07-08T10:30:12Z</time>
      </trkpt>
      <trkpt lat="47.83418" lon="-3.53571">
        <ele>18.97</ele>
        <time>2020-07-08T10:30:13Z</time>
      </trkpt>
      <trkpt lat="47.83418" lon="-3.53571">
        <ele>18.97</ele>
        <time>2020-07-08T10:30:14Z</time>
      </trkpt>
      <trkpt lat="47.83418" lon="-3.53571">
        <ele>18.97</ele>
        <time>2020-07-08T10:30:15Z</time>
      </trkpt>
      <trkpt lat="47.83418" lon="-3.53571">
        <ele>18.97</ele>
        <time>2020-07-08T10:30:16Z</time>
      </trkpt>
      <trkpt lat="47.83418" lon="-3.53571">
        <ele>18.97</ele>
        <time>2020-07-08T10:30:17Z</time>
      </trkpt>
      <trkpt lat="47.83418" lon="-3.53571">
        <ele>18.97</ele>
        <time>2020-07-08T10:30:18Z</time>
      </trkpt>
      <trkpt lat="47.83418" lon="-3.53571">
        <ele>18.97</ele>
        <time>2020-07-08T10:30:19Z</time>
      </trkpt>
      <trkpt lat="47.83418" lon="-3.53571">
        <ele>18.97</ele>
        <time>2020-07-08T10:30:20Z</time>
      </trkpt>
      <trkpt lat="47.83418" lon="-3.53571">
        <ele>18.97</ele>
        <time>2020-07-08T10:30:21Z</time>
      </trkpt>
      <trkpt lat="47.83418" lon="-3.53571">
        <ele>18.97</ele>
        <time>2020-07-08T10:30:22Z</time>
      </trkpt>
      <trkpt lat="47.83427" lon="-3.53578">
        <ele>18.78</ele>
        <time>2020-07-08T10:30:23Z</time>
      </trkpt>
      <trkpt lat="47.83428" lon="-3.53577">
        <ele>18.72</ele>
        <time>2020-07-08T10:30:24Z</time>
      </trkpt>
      <trkpt lat="47.83428" lon="-3.53577">
        <ele>18.7</ele>
        <time>2020-07-08T10:30:25Z</time>
      </trkpt>
      <trkpt lat="47.83428" lon="-3.53577">
        <ele>18.68</ele>
        <time>2020-07-08T10:30:26Z</time>
      </trkpt>
      <trkpt lat="47.83428" lon="-3.53577">
        <ele>18.68</ele>
        <time>2020-07-08T10:30:27Z</time>
      </trkpt>
      <trkpt lat="47.83428" lon="-3.53577">
        <ele>18.68</ele>
        <time>2020-07-08T10:30:28Z</time>
      </trkpt>
      <trkpt lat="47.83428" lon="-3.53577">
        <ele>18.68</ele>
        <time>2020-07-08T10:30:29Z</time>
      </trkpt>
      <trkpt lat="47.83428" lon="-3.53577">
        <ele>18.68</ele>
        <time>2020-07-08T10:30:30Z</time>
      </trkpt>
      <trkpt lat="47.83428" lon="-3.53577">
        <ele>18.68</ele>
        <time>2020-07-08T10:30:31Z</time>
      </trkpt>
      <trkpt lat="47.83428" lon="-3.53577">
        <ele>18.68</ele>
        <time>2020-07-08T10:30:32Z</time>
      </trkpt>
      <trkpt lat="47.83428" lon="-3.53577">
        <ele>18.68</ele>
        <time>2020-07-08T10:30:33Z</time>
      </trkpt>
      <trkpt lat="47.83428" lon="-3.53577">
        <ele>18.68</ele>
        <time>2020-07-08T10:30:34Z</time>
      </trkpt>
      <trkpt lat="47.83428" lon="-3.53577">
        <ele>18.68</ele>
        <time>2020-07-08T10:30:35Z</time>
      </trkpt>
      <trkpt lat="47.83428" lon="-3.53577">
        <ele>18.68</ele>
        <time>2020-07-08T10:30:36Z</time>
      </trkpt>
      <trkpt lat="47.83428" lon="-3.53577">
        <ele>18.68</ele>
        <time>2020-07-08T10:30:37Z</time>
      </trkpt>
      <trkpt lat="47.83428" lon="-3.53577">
        <ele>18.68</ele>
        <time>2020-07-08T10:30:38Z</time>
      </trkpt>
      <trkpt lat="47.83428" lon="-3.53577">
        <ele>18.68</ele>
        <time>2020-07-08T10:30:39Z</time>
      </trkpt>
      <trkpt lat="47.83428" lon="-3.53577">
        <ele>18.68</ele>
        <time>2020-07-08T10:30:40Z</time>
      </trkpt>
      <trkpt lat="47.83428" lon="-3.53577">
        <ele>18.68</ele>
        <time>2020-07-08T10:30:41Z</time>
      </trkpt>
      <trkpt lat="47.83428" lon="-3.53577">
        <ele>18.68</ele>
        <time>2020-07-08T10:30:42Z</time>
      </trkpt>
      <trkpt lat="47.83428" lon="-3.53577">
        <ele>18.68</ele>
        <time>2020-07-08T10:30:43Z</time>
      </trkpt>
      <trkpt lat="47.83428" lon="-3.53577">
        <ele>18.68</ele>
        <time>2020-07-08T10:30:44Z</time>
      </trkpt>
      <trkpt lat="47.83428" lon="-3.53577">
        <ele>18.68</ele>
        <time>2020-07-08T10:30:45Z</time>
      </trkpt>
      <trkpt lat="47.83428" lon="-3.53577">
        <ele>18.68</ele>
        <time>2020-07-08T10:30:46Z</time>
      </trkpt>
      <trkpt lat="47.83428" lon="-3.53577">
        <ele>18.68</ele>
        <time>2020-07-08T10:30:47Z</time>
      </trkpt>
      <trkpt lat="47.83428" lon="-3.53577">
        <ele>18.68</ele>
        <time>2020-07-08T10:30:48Z</time>
      </trkpt>
      <trkpt lat="47.83428" lon="-3.53577">
        <ele>18.68</ele>
        <time>2020-07-08T10:30:49Z</time>
      </trkpt>
      <trkpt lat="47.83428" lon="-3.53577">
        <ele>18.68</ele>
        <time>2020-07-08T10:30:50Z</time>
      </trkpt>
      <trkpt lat="47.83428" lon="-3.53577">
        <ele>18.68</ele>
        <time>2020-07-08T10:30:51Z</time>
      </trkpt>
      <trkpt lat="47.83428" lon="-3.53577">
        <ele>18.68</ele>
        <time>2020-07-08T10:30:52Z</time>
      </trkpt>
      <trkpt lat="47.83428" lon="-3.53577">
        <ele>18.68</ele>
        <time>2020-07-08T10:30:53Z</time>
      </trkpt>
      <trkpt lat="47.83428" lon="-3.53577">
        <ele>18.68</ele>
        <time>2020-07-08T10:30:54Z</time>
      </trkpt>
      <trkpt lat="47.83428" lon="-3.53577">
        <ele>18.68</ele>
        <time>2020-07-08T10:30:55Z</time>
      </trkpt>
      <trkpt lat="47.83428" lon="-3.53577">
        <ele>18.68</ele>
        <time>2020-07-08T10:30:56Z</time>
      </trkpt>
      <trkpt lat="47.83438" lon="-3.53574">
        <ele>18.56</ele>
        <time>2020-07-08T10:30:57Z</time>
      </trkpt>
      <trkpt lat="47.83438" lon="-3.53575">
        <ele>18.5</ele>
        <time>2020-07-08T10:30:58Z</time>
      </trkpt>
      <trkpt lat="47.83439" lon="-3.53575">
        <ele>18.45</ele>
        <time>2020-07-08T10:30:59Z</time>
      </trkpt>
      <trkpt lat="47.8344" lon="-3.53576">
        <ele>18.42</ele>
        <time>2020-07-08T10:31:00Z</time>
      </trkpt>
      <trkpt lat="47.8344" lon="-3.53576">
        <ele>18.4</ele>
        <time>2020-07-08T10:31:01Z</time>
      </trkpt>
      <trkpt lat="47.8344" lon="-3.53576">
        <ele>18.4</ele>
        <time>2020-07-08T10:31:02Z</time>
      </trkpt>
      <trkpt lat="47.8344" lon="-3.53576">
        <ele>18.4</ele>
        <time>2020-07-08T10:31:03Z</time>
      </trkpt>
      <trkpt lat="47.8344" lon="-3.53576">
        <ele>18.4</ele>
        <time>2020-07-08T10:31:04Z</time>
      </trkpt>
      <trkpt lat="47.83445" lon="-3.53582">
        <ele>18.13</ele>
        <time>2020-07-08T10:31:05Z</time>
      </trkpt>
      <trkpt lat="47.83445" lon="-3.53584">
        <ele>18.01</ele>
        <time>2020-07-08T10:31:06Z</time>
      </trkpt>
      <trkpt lat="47.83446" lon="-3.53585">
        <ele>17.93</ele>
        <time>2020-07-08T10:31:07Z</time>
      </trkpt>
      <trkpt lat="47.83447" lon="-3.53585">
        <ele>17.87</ele>
        <time>2020-07-08T10:31:08Z</time>
      </trkpt>
      <trkpt lat="47.83447" lon="-3.53585">
        <ele>17.86</ele>
        <time>2020-07-08T10:31:09Z</time>
      </trkpt>
      <trkpt lat="47.83449" lon="-3.53585">
        <ele>17.8</ele>
        <time>2020-07-08T10:31:10Z</time>
      </trkpt>
      <trkpt lat="47.8345" lon="-3.53585">
        <ele>17.77</ele>
        <time>2020-07-08T10:31:11Z</time>
      </trkpt>
      <trkpt lat="47.83451" lon="-3.53585">
        <ele>17.72</ele>
        <time>2020-07-08T10:31:12Z</time>
      </trkpt>
      <trkpt lat="47.83451" lon="-3.53586">
        <ele>17.69</ele>
        <time>2020-07-08T10:31:13Z</time>
      </trkpt>
      <trkpt lat="47.83451" lon="-3.53586">
        <ele>17.67</ele>
        <time>2020-07-08T10:31:14Z</time>
      </trkpt>
      <trkpt lat="47.83452" lon="-3.53585">
        <ele>17.65</ele>
        <time>2020-07-08T10:31:15Z</time>
      </trkpt>
      <trkpt lat="47.83453" lon="-3.53584">
        <ele>17.66</ele>
        <time>2020-07-08T10:31:16Z</time>
      </trkpt>
      <trkpt lat="47.83453" lon="-3.53584">
        <ele>17.67</ele>
        <time>2020-07-08T10:31:17Z</time>
      </trkpt>
      <trkpt lat="47.83456" lon="-3.53583">
        <ele>17.62</ele>
        <time>2020-07-08T10:31:18Z</time>
      </trkpt>
      <trkpt lat="47.83457" lon="-3.53582">
        <ele>17.57</ele>
        <time>2020-07-08T10:31:19Z</time>
      </trkpt>
      <trkpt lat="47.83458" lon="-3.53583">
        <ele>17.54</ele>
        <time>2020-07-08T10:31:20Z</time>
      </trkpt>
      <trkpt lat="47.83458" lon="-3.53582">
        <ele>17.54</ele>
        <time>2020-07-08T10:31:21Z</time>
      </trkpt>
      <trkpt lat="47.83457" lon="-3.53582">
        <ele>17.55</ele>
        <time>2020-07-08T10:31:22Z</time>
      </trkpt>
      <trkpt lat="47.83457" lon="-3.53582">
        <ele>17.55</ele>
        <time>2020-07-08T10:31:23Z</time>
      </trkpt>
      <trkpt lat="47.83457" lon="-3.53582">
        <ele>17.56</ele>
        <time>2020-07-08T10:31:24Z</time>
      </trkpt>
      <trkpt lat="47.83457" lon="-3.53582">
        <ele>17.56</ele>
        <time>2020-07-08T10:31:25Z</time>
      </trkpt>
      <trkpt lat="47.83457" lon="-3.53582">
        <ele>17.56</ele>
        <time>2020-07-08T10:31:26Z</time>
      </trkpt>
      <trkpt lat="47.83457" lon="-3.53582">
        <ele>17.56</ele>
        <time>2020-07-08T10:31:27Z</time>
      </trkpt>
      <trkpt lat="47.83457" lon="-3.53582">
        <ele>17.56</ele>
        <time>2020-07-08T10:31:28Z</time>
      </trkpt>
      <trkpt lat="47.83457" lon="-3.53582">
        <ele>17.56</ele>
        <time>2020-07-08T10:31:29Z</time>
      </trkpt>
      <trkpt lat="47.83457" lon="-3.53582">
        <ele>17.56</ele>
        <time>2020-07-08T10:31:30Z</time>
      </trkpt>
      <trkpt lat="47.83457" lon="-3.53582">
        <ele>17.56</ele>
        <time>2020-07-08T10:31:31Z</time>
      </trkpt>
      <trkpt lat="47.83457" lon="-3.53582">
        <ele>17.56</ele>
        <time>2020-07-08T10:31:32Z</time>
      </trkpt>
      <trkpt lat="47.83457" lon="-3.53582">
        <ele>17.56</ele>
        <time>2020-07-08T10:31:33Z</time>
      </trkpt>
      <trkpt lat="47.83457" lon="-3.53582">
        <ele>17.56</ele>
        <time>2020-07-08T10:31:34Z</time>
      </trkpt>
      <trkpt lat="47.83457" lon="-3.53582">
        <ele>17.56</ele>
        <time>2020-07-08T10:31:35Z</time>
      </trkpt>
      <trkpt lat="47.83457" lon="-3.53582">
        <ele>17.56</ele>
        <time>2020-07-08T10:31:36Z</time>
      </trkpt>
      <trkpt lat="47.83457" lon="-3.53582">
        <ele>17.56</ele>
        <time>2020-07-08T10:31:37Z</time>
      </trkpt>
      <trkpt lat="47.83457" lon="-3.53582">
        <ele>17.56</ele>
        <time>2020-07-08T10:31:38Z</time>
      </trkpt>
      <trkpt lat="47.83457" lon="-3.53582">
        <ele>17.56</ele>
        <time>2020-07-08T10:31:39Z</time>
      </trkpt>
      <trkpt lat="47.83457" lon="-3.53582">
        <ele>17.56</ele>
        <time>2020-07-08T10:31:40Z</time>
      </trkpt>
      <trkpt lat="47.83457" lon="-3.53582">
        <ele>17.56</ele>
        <time>2020-07-08T10:31:41Z</time>
      </trkpt>
      <trkpt lat="47.83457" lon="-3.53582">
        <ele>17.56</ele>
        <time>2020-07-08T10:31:42Z</time>
      </trkpt>
      <trkpt lat="47.83465" lon="-3.53574">
        <ele>17.4</ele>
        <time>2020-07-08T10:31:43Z</time>
      </trkpt>
      <trkpt lat="47.83467" lon="-3.53574">
        <ele>17.28</ele>
        <time>2020-07-08T10:31:44Z</time>
      </trkpt>
      <trkpt lat="47.8347" lon="-3.53573">
        <ele>17.15</ele>
        <time>2020-07-08T10:31:45Z</time>
      </trkpt>
      <trkpt lat="47.83473" lon="-3.53572">
        <ele>17.01</ele>
        <time>2020-07-08T10:31:46Z</time>
      </trkpt>
      <trkpt lat="47.83476" lon="-3.5357">
        <ele>16.87</ele>
        <time>2020-07-08T10:31:47Z</time>
      </trkpt>
      <trkpt lat="47.83478" lon="-3.53569">
        <ele>16.75</ele>
        <time>2020-07-08T10:31:48Z</time>
      </trkpt>
      <trkpt lat="47.8348" lon="-3.53567">
        <ele>16.62</ele>
        <time>2020-07-08T10:31:49Z</time>
      </trkpt>
      <trkpt lat="47.83481" lon="-3.53565">
        <ele>16.52</ele>
        <time>2020-07-08T10:31:50Z</time>
      </trkpt>
      <trkpt lat="47.83482" lon="-3.53562">
        <ele>16.42</ele>
        <time>2020-07-08T10:31:51Z</time>
      </trkpt>
      <trkpt lat="47.83483" lon="-3.53561">
        <ele>16.33</ele>
        <time>2020-07-08T10:31:52Z</time>
      </trkpt>
      <trkpt lat="47.83484" lon="-3.53558">
        <ele>16.24</ele>
        <time>2020-07-08T10:31:53Z</time>
      </trkpt>
      <trkpt lat="47.83485" lon="-3.53554">
        <ele>16.2</ele>
        <time>2020-07-08T10:31:54Z</time>
      </trkpt>
      <trkpt lat="47.83485" lon="-3.53551">
        <ele>16.29</ele>
        <time>2020-07-08T10:31:55Z</time>
      </trkpt>
      <trkpt lat="47.83486" lon="-3.53546">
        <ele>16.42</ele>
        <time>2020-07-08T10:31:56Z</time>
      </trkpt>
      <trkpt lat="47.83487" lon="-3.53541">
        <ele>16.62</ele>
        <time>2020-07-08T10:31:57Z</time>
      </trkpt>
      <trkpt lat="47.83488" lon="-3.53536">
        <ele>16.82</ele>
        <time>2020-07-08T10:31:58Z</time>
      </trkpt>
      <trkpt lat="47.83489" lon="-3.53531">
        <ele>17</ele>
        <time>2020-07-08T10:31:59Z</time>
      </trkpt>
      <trkpt lat="47.8349" lon="-3.53525">
        <ele>17.16</ele>
        <time>2020-07-08T10:32:00Z</time>
      </trkpt>
      <trkpt lat="47.8349" lon="-3.53519">
        <ele>17.29</ele>
        <time>2020-07-08T10:32:01Z</time>
      </trkpt>
      <trkpt lat="47.83491" lon="-3.53514">
        <ele>17.42</ele>
        <time>2020-07-08T10:32:02Z</time>
      </trkpt>
      <trkpt lat="47.83492" lon="-3.53508">
        <ele>17.56</ele>
        <time>2020-07-08T10:32:03Z</time>
      </trkpt>
      <trkpt lat="47.83492" lon="-3.53502">
        <ele>17.71</ele>
        <time>2020-07-08T10:32:04Z</time>
      </trkpt>
      <trkpt lat="47.83493" lon="-3.53497">
        <ele>17.85</ele>
        <time>2020-07-08T10:32:05Z</time>
      </trkpt>
      <trkpt lat="47.83493" lon="-3.53493">
        <ele>17.94</ele>
        <time>2020-07-08T10:32:06Z</time>
      </trkpt>
      <trkpt lat="47.83495" lon="-3.53487">
        <ele>18</ele>
        <time>2020-07-08T10:32:07Z</time>
      </trkpt>
      <trkpt lat="47.83496" lon="-3.53482">
        <ele>18.07</ele>
        <time>2020-07-08T10:32:08Z</time>
      </trkpt>
      <trkpt lat="47.83497" lon="-3.53477">
        <ele>18.12</ele>
        <time>2020-07-08T10:32:09Z</time>
      </trkpt>
      <trkpt lat="47.83498" lon="-3.53471">
        <ele>18.24</ele>
        <time>2020-07-08T10:32:10Z</time>
      </trkpt>
      <trkpt lat="47.83499" lon="-3.53466">
        <ele>18.5</ele>
        <time>2020-07-08T10:32:11Z</time>
      </trkpt>
      <trkpt lat="47.83499" lon="-3.5346">
        <ele>18.82</ele>
        <time>2020-07-08T10:32:12Z</time>
      </trkpt>
      <trkpt lat="47.835" lon="-3.53455">
        <ele>19.12</ele>
        <time>2020-07-08T10:32:13Z</time>
      </trkpt>
      <trkpt lat="47.83501" lon="-3.5345">
        <ele>19.43</ele>
        <time>2020-07-08T10:32:14Z</time>
      </trkpt>
      <trkpt lat="47.83501" lon="-3.53445">
        <ele>19.78</ele>
        <time>2020-07-08T10:32:15Z</time>
      </trkpt>
      <trkpt lat="47.83502" lon="-3.5344">
        <ele>20.12</ele>
        <time>2020-07-08T10:32:16Z</time>
      </trkpt>
      <trkpt lat="47.83503" lon="-3.53435">
        <ele>20.45</ele>
        <time>2020-07-08T10:32:17Z</time>
      </trkpt>
      <trkpt lat="47.83504" lon="-3.5343">
        <ele>20.78</ele>
        <time>2020-07-08T10:32:18Z</time>
      </trkpt>
      <trkpt lat="47.83506" lon="-3.53426">
        <ele>21.14</ele>
        <time>2020-07-08T10:32:19Z</time>
      </trkpt>
      <trkpt lat="47.83506" lon="-3.53421">
        <ele>21.49</ele>
        <time>2020-07-08T10:32:20Z</time>
      </trkpt>
      <trkpt lat="47.83508" lon="-3.53417">
        <ele>21.82</ele>
        <time>2020-07-08T10:32:21Z</time>
      </trkpt>
      <trkpt lat="47.83509" lon="-3.53414">
        <ele>22.14</ele>
        <time>2020-07-08T10:32:22Z</time>
      </trkpt>
      <trkpt lat="47.83511" lon="-3.53411">
        <ele>22.43</ele>
        <time>2020-07-08T10:32:23Z</time>
      </trkpt>
      <trkpt lat="47.83514" lon="-3.53407">
        <ele>22.72</ele>
        <time>2020-07-08T10:32:24Z</time>
      </trkpt>
      <trkpt lat="47.83516" lon="-3.53404">
        <ele>22.98</ele>
        <time>2020-07-08T10:32:25Z</time>
      </trkpt>
      <trkpt lat="47.83518" lon="-3.53401">
        <ele>23.24</ele>
        <time>2020-07-08T10:32:26Z</time>
      </trkpt>
      <trkpt lat="47.8352" lon="-3.53398">
        <ele>23.43</ele>
        <time>2020-07-08T10:32:27Z</time>
      </trkpt>
      <trkpt lat="47.83523" lon="-3.53396">
        <ele>23.55</ele>
        <time>2020-07-08T10:32:28Z</time>
      </trkpt>
      <trkpt lat="47.83525" lon="-3.53394">
        <ele>23.65</ele>
        <time>2020-07-08T10:32:29Z</time>
      </trkpt>
      <trkpt lat="47.83528" lon="-3.53392">
        <ele>23.74</ele>
        <time>2020-07-08T10:32:30Z</time>
      </trkpt>
      <trkpt lat="47.83531" lon="-3.5339">
        <ele>24.01</ele>
        <time>2020-07-08T10:32:31Z</time>
      </trkpt>
      <trkpt lat="47.83533" lon="-3.53388">
        <ele>24.4</ele>
        <time>2020-07-08T10:32:32Z</time>
      </trkpt>
      <trkpt lat="47.83536" lon="-3.53386">
        <ele>24.94</ele>
        <time>2020-07-08T10:32:33Z</time>
      </trkpt>
      <trkpt lat="47.83539" lon="-3.53384">
        <ele>25.52</ele>
        <time>2020-07-08T10:32:34Z</time>
      </trkpt>
      <trkpt lat="47.83542" lon="-3.53382">
        <ele>26.04</ele>
        <time>2020-07-08T10:32:35Z</time>
      </trkpt>
      <trkpt lat="47.83544" lon="-3.5338">
        <ele>26.57</ele>
        <time>2020-07-08T10:32:36Z</time>
      </trkpt>
      <trkpt lat="47.83546" lon="-3.53378">
        <ele>27.13</ele>
        <time>2020-07-08T10:32:37Z</time>
      </trkpt>
      <trkpt lat="47.83549" lon="-3.53376">
        <ele>27.67</ele>
        <time>2020-07-08T10:32:38Z</time>
      </trkpt>
      <trkpt lat="47.83552" lon="-3.53374">
        <ele>28.17</ele>
        <time>2020-07-08T10:32:39Z</time>
      </trkpt>
      <trkpt lat="47.83554" lon="-3.53373">
        <ele>28.62</ele>
        <time>2020-07-08T10:32:40Z</time>
      </trkpt>
      <trkpt lat="47.83556" lon="-3.53371">
        <ele>28.98</ele>
        <time>2020-07-08T10:32:41Z</time>
      </trkpt>
      <trkpt lat="47.83559" lon="-3.53369">
        <ele>29.37</ele>
        <time>2020-07-08T10:32:42Z</time>
      </trkpt>
      <trkpt lat="47.83563" lon="-3.53368">
        <ele>29.65</ele>
        <time>2020-07-08T10:32:43Z</time>
      </trkpt>
      <trkpt lat="47.83566" lon="-3.53368">
        <ele>29.79</ele>
        <time>2020-07-08T10:32:44Z</time>
      </trkpt>
      <trkpt lat="47.83569" lon="-3.53368">
        <ele>29.87</ele>
        <time>2020-07-08T10:32:45Z</time>
      </trkpt>
      <trkpt lat="47.83572" lon="-3.53369">
        <ele>29.76</ele>
        <time>2020-07-08T10:32:46Z</time>
      </trkpt>
      <trkpt lat="47.83574" lon="-3.53371">
        <ele>29.58</ele>
        <time>2020-07-08T10:32:47Z</time>
      </trkpt>
      <trkpt lat="47.83576" lon="-3.53373">
        <ele>29.31</ele>
        <time>2020-07-08T10:32:48Z</time>
      </trkpt>
      <trkpt lat="47.83577" lon="-3.53375">
        <ele>28.96</ele>
        <time>2020-07-08T10:32:49Z</time>
      </trkpt>
      <trkpt lat="47.83578" lon="-3.53378">
        <ele>28.56</ele>
        <time>2020-07-08T10:32:50Z</time>
      </trkpt>
      <trkpt lat="47.83578" lon="-3.53381">
        <ele>28.13</ele>
        <time>2020-07-08T10:32:51Z</time>
      </trkpt>
      <trkpt lat="47.83578" lon="-3.53384">
        <ele>27.73</ele>
        <time>2020-07-08T10:32:52Z</time>
      </trkpt>
      <trkpt lat="47.8358" lon="-3.53387">
        <ele>27.34</ele>
        <time>2020-07-08T10:32:53Z</time>
      </trkpt>
      <trkpt lat="47.83582" lon="-3.5339">
        <ele>27</ele>
        <time>2020-07-08T10:32:54Z</time>
      </trkpt>
      <trkpt lat="47.83583" lon="-3.53393">
        <ele>26.63</ele>
        <time>2020-07-08T10:32:55Z</time>
      </trkpt>
      <trkpt lat="47.83583" lon="-3.53396">
        <ele>26.14</ele>
        <time>2020-07-08T10:32:56Z</time>
      </trkpt>
      <trkpt lat="47.83586" lon="-3.534">
        <ele>25.65</ele>
        <time>2020-07-08T10:32:57Z</time>
      </trkpt>
      <trkpt lat="47.83588" lon="-3.53405">
        <ele>25.04</ele>
        <time>2020-07-08T10:32:58Z</time>
      </trkpt>
      <trkpt lat="47.83592" lon="-3.5341">
        <ele>24.55</ele>
        <time>2020-07-08T10:32:59Z</time>
      </trkpt>
      <trkpt lat="47.83596" lon="-3.53414">
        <ele>23.99</ele>
        <time>2020-07-08T10:33:00Z</time>
      </trkpt>
      <trkpt lat="47.83599" lon="-3.5342">
        <ele>23.5</ele>
        <time>2020-07-08T10:33:01Z</time>
      </trkpt>
      <trkpt lat="47.83604" lon="-3.53425">
        <ele>23.09</ele>
        <time>2020-07-08T10:33:02Z</time>
      </trkpt>
      <trkpt lat="47.83608" lon="-3.5343">
        <ele>22.68</ele>
        <time>2020-07-08T10:33:03Z</time>
      </trkpt>
      <trkpt lat="47.83612" lon="-3.53435">
        <ele>22.29</ele>
        <time>2020-07-08T10:33:04Z</time>
      </trkpt>
      <trkpt lat="47.83617" lon="-3.53439">
        <ele>21.95</ele>
        <time>2020-07-08T10:33:05Z</time>
      </trkpt>
      <trkpt lat="47.83622" lon="-3.53443">
        <ele>21.66</ele>
        <time>2020-07-08T10:33:06Z</time>
      </trkpt>
      <trkpt lat="47.83625" lon="-3.53447">
        <ele>21.51</ele>
        <time>2020-07-08T10:33:07Z</time>
      </trkpt>
      <trkpt lat="47.83629" lon="-3.5345">
        <ele>21.49</ele>
        <time>2020-07-08T10:33:08Z</time>
      </trkpt>
      <trkpt lat="47.83632" lon="-3.53452">
        <ele>21.49</ele>
        <time>2020-07-08T10:33:09Z</time>
      </trkpt>
      <trkpt lat="47.83635" lon="-3.53454">
        <ele>21.5</ele>
        <time>2020-07-08T10:33:10Z</time>
      </trkpt>
      <trkpt lat="47.83637" lon="-3.53457">
        <ele>21.48</ele>
        <time>2020-07-08T10:33:11Z</time>
      </trkpt>
      <trkpt lat="47.8364" lon="-3.53461">
        <ele>21.43</ele>
        <time>2020-07-08T10:33:12Z</time>
      </trkpt>
      <trkpt lat="47.83645" lon="-3.53464">
        <ele>21.38</ele>
        <time>2020-07-08T10:33:13Z</time>
      </trkpt>
      <trkpt lat="47.83649" lon="-3.53468">
        <ele>21.26</ele>
        <time>2020-07-08T10:33:14Z</time>
      </trkpt>
      <trkpt lat="47.83652" lon="-3.53472">
        <ele>21.1</ele>
        <time>2020-07-08T10:33:15Z</time>
      </trkpt>
      <trkpt lat="47.83656" lon="-3.53476">
        <ele>20.83</ele>
        <time>2020-07-08T10:33:16Z</time>
      </trkpt>
      <trkpt lat="47.83661" lon="-3.53479">
        <ele>20.59</ele>
        <time>2020-07-08T10:33:17Z</time>
      </trkpt>
      <trkpt lat="47.83667" lon="-3.53483">
        <ele>20.35</ele>
        <time>2020-07-08T10:33:18Z</time>
      </trkpt>
      <trkpt lat="47.83673" lon="-3.53486">
        <ele>20.03</ele>
        <time>2020-07-08T10:33:19Z</time>
      </trkpt>
      <trkpt lat="47.83678" lon="-3.5349">
        <ele>19.7</ele>
        <time>2020-07-08T10:33:20Z</time>
      </trkpt>
      <trkpt lat="47.83683" lon="-3.53495">
        <ele>19.38</ele>
        <time>2020-07-08T10:33:21Z</time>
      </trkpt>
      <trkpt lat="47.83687" lon="-3.535">
        <ele>19.12</ele>
        <time>2020-07-08T10:33:22Z</time>
      </trkpt>
      <trkpt lat="47.83691" lon="-3.53504">
        <ele>18.84</ele>
        <time>2020-07-08T10:33:23Z</time>
      </trkpt>
      <trkpt lat="47.83695" lon="-3.53507">
        <ele>18.58</ele>
        <time>2020-07-08T10:33:24Z</time>
      </trkpt>
      <trkpt lat="47.83699" lon="-3.5351">
        <ele>18.3</ele>
        <time>2020-07-08T10:33:25Z</time>
      </trkpt>
      <trkpt lat="47.83703" lon="-3.53513">
        <ele>18.03</ele>
        <time>2020-07-08T10:33:26Z</time>
      </trkpt>
      <trkpt lat="47.83708" lon="-3.53516">
        <ele>17.77</ele>
        <time>2020-07-08T10:33:27Z</time>
      </trkpt>
      <trkpt lat="47.83714" lon="-3.53519">
        <ele>17.52</ele>
        <time>2020-07-08T10:33:28Z</time>
      </trkpt>
      <trkpt lat="47.8372" lon="-3.53522">
        <ele>17.3</ele>
        <time>2020-07-08T10:33:29Z</time>
      </trkpt>
      <trkpt lat="47.83727" lon="-3.53525">
        <ele>17.06</ele>
        <time>2020-07-08T10:33:30Z</time>
      </trkpt>
      <trkpt lat="47.83733" lon="-3.53526">
        <ele>16.79</ele>
        <time>2020-07-08T10:33:31Z</time>
      </trkpt>
      <trkpt lat="47.83738" lon="-3.53528">
        <ele>16.5</ele>
        <time>2020-07-08T10:33:32Z</time>
      </trkpt>
      <trkpt lat="47.83741" lon="-3.53529">
        <ele>16.27</ele>
        <time>2020-07-08T10:33:33Z</time>
      </trkpt>
      <trkpt lat="47.83741" lon="-3.5353">
        <ele>16.11</ele>
        <time>2020-07-08T10:33:34Z</time>
      </trkpt>
      <trkpt lat="47.83742" lon="-3.53531">
        <ele>15.98</ele>
        <time>2020-07-08T10:33:35Z</time>
      </trkpt>
      <trkpt lat="47.83741" lon="-3.53531">
        <ele>15.96</ele>
        <time>2020-07-08T10:33:36Z</time>
      </trkpt>
      <trkpt lat="47.83741" lon="-3.53532">
        <ele>15.94</ele>
        <time>2020-07-08T10:33:37Z</time>
      </trkpt>
      <trkpt lat="47.83741" lon="-3.53532">
        <ele>15.94</ele>
        <time>2020-07-08T10:33:38Z</time>
      </trkpt>
      <trkpt lat="47.83741" lon="-3.53532">
        <ele>15.93</ele>
        <time>2020-07-08T10:33:39Z</time>
      </trkpt>
      <trkpt lat="47.83741" lon="-3.53532">
        <ele>15.93</ele>
        <time>2020-07-08T10:33:40Z</time>
      </trkpt>
      <trkpt lat="47.83741" lon="-3.53532">
        <ele>15.93</ele>
        <time>2020-07-08T10:33:41Z</time>
      </trkpt>
      <trkpt lat="47.83747" lon="-3.53532">
        <ele>15.78</ele>
        <time>2020-07-08T10:33:42Z</time>
      </trkpt>
      <trkpt lat="47.83749" lon="-3.53531">
        <ele>15.7</ele>
        <time>2020-07-08T10:33:43Z</time>
      </trkpt>
      <trkpt lat="47.83752" lon="-3.53531">
        <ele>15.58</ele>
        <time>2020-07-08T10:33:44Z</time>
      </trkpt>
      <trkpt lat="47.83756" lon="-3.5353">
        <ele>15.4</ele>
        <time>2020-07-08T10:33:45Z</time>
      </trkpt>
      <trkpt lat="47.83759" lon="-3.53529">
        <ele>15.25</ele>
        <time>2020-07-08T10:33:46Z</time>
      </trkpt>
      <trkpt lat="47.83763" lon="-3.53528">
        <ele>15.09</ele>
        <time>2020-07-08T10:33:47Z</time>
      </trkpt>
      <trkpt lat="47.83767" lon="-3.53527">
        <ele>14.93</ele>
        <time>2020-07-08T10:33:48Z</time>
      </trkpt>
      <trkpt lat="47.83771" lon="-3.53525">
        <ele>14.75</ele>
        <time>2020-07-08T10:33:49Z</time>
      </trkpt>
      <trkpt lat="47.83776" lon="-3.53523">
        <ele>14.56</ele>
        <time>2020-07-08T10:33:50Z</time>
      </trkpt>
      <trkpt lat="47.8378" lon="-3.53521">
        <ele>14.33</ele>
        <time>2020-07-08T10:33:51Z</time>
      </trkpt>
      <trkpt lat="47.83784" lon="-3.53517">
        <ele>14.07</ele>
        <time>2020-07-08T10:33:52Z</time>
      </trkpt>
      <trkpt lat="47.83788" lon="-3.53514">
        <ele>13.8</ele>
        <time>2020-07-08T10:33:53Z</time>
      </trkpt>
      <trkpt lat="47.83792" lon="-3.5351">
        <ele>13.56</ele>
        <time>2020-07-08T10:33:54Z</time>
      </trkpt>
      <trkpt lat="47.83795" lon="-3.53505">
        <ele>13.34</ele>
        <time>2020-07-08T10:33:55Z</time>
      </trkpt>
      <trkpt lat="47.83798" lon="-3.53501">
        <ele>13.1</ele>
        <time>2020-07-08T10:33:56Z</time>
      </trkpt>
      <trkpt lat="47.83801" lon="-3.53498">
        <ele>12.89</ele>
        <time>2020-07-08T10:33:57Z</time>
      </trkpt>
      <trkpt lat="47.83803" lon="-3.53495">
        <ele>12.73</ele>
        <time>2020-07-08T10:33:58Z</time>
      </trkpt>
      <trkpt lat="47.83806" lon="-3.53491">
        <ele>12.58</ele>
        <time>2020-07-08T10:33:59Z</time>
      </trkpt>
      <trkpt lat="47.83809" lon="-3.53487">
        <ele>12.54</ele>
        <time>2020-07-08T10:34:00Z</time>
      </trkpt>
      <trkpt lat="47.83812" lon="-3.53482">
        <ele>12.53</ele>
        <time>2020-07-08T10:34:01Z</time>
      </trkpt>
      <trkpt lat="47.83815" lon="-3.53477">
        <ele>12.61</ele>
        <time>2020-07-08T10:34:02Z</time>
      </trkpt>
      <trkpt lat="47.83818" lon="-3.53472">
        <ele>12.69</ele>
        <time>2020-07-08T10:34:03Z</time>
      </trkpt>
      <trkpt lat="47.83822" lon="-3.53466">
        <ele>12.78</ele>
        <time>2020-07-08T10:34:04Z</time>
      </trkpt>
      <trkpt lat="47.83827" lon="-3.53459">
        <ele>12.93</ele>
        <time>2020-07-08T10:34:05Z</time>
      </trkpt>
      <trkpt lat="47.83832" lon="-3.53453">
        <ele>13.12</ele>
        <time>2020-07-08T10:34:06Z</time>
      </trkpt>
      <trkpt lat="47.83837" lon="-3.53445">
        <ele>13.29</ele>
        <time>2020-07-08T10:34:07Z</time>
      </trkpt>
      <trkpt lat="47.83841" lon="-3.53438">
        <ele>13.29</ele>
        <time>2020-07-08T10:34:08Z</time>
      </trkpt>
      <trkpt lat="47.83847" lon="-3.53433">
        <ele>13.11</ele>
        <time>2020-07-08T10:34:09Z</time>
      </trkpt>
      <trkpt lat="47.83851" lon="-3.53429">
        <ele>12.89</ele>
        <time>2020-07-08T10:34:10Z</time>
      </trkpt>
      <trkpt lat="47.83856" lon="-3.53424">
        <ele>12.82</ele>
        <time>2020-07-08T10:34:11Z</time>
      </trkpt>
      <trkpt lat="47.8386" lon="-3.53417">
        <ele>13.03</ele>
        <time>2020-07-08T10:34:12Z</time>
      </trkpt>
      <trkpt lat="47.83862" lon="-3.5341">
        <ele>13.34</ele>
        <time>2020-07-08T10:34:13Z</time>
      </trkpt>
      <trkpt lat="47.83865" lon="-3.53403">
        <ele>13.39</ele>
        <time>2020-07-08T10:34:14Z</time>
      </trkpt>
      <trkpt lat="47.83868" lon="-3.53396">
        <ele>13.54</ele>
        <time>2020-07-08T10:34:15Z</time>
      </trkpt>
      <trkpt lat="47.8387" lon="-3.5339">
        <ele>13.64</ele>
        <time>2020-07-08T10:34:16Z</time>
      </trkpt>
      <trkpt lat="47.83873" lon="-3.53384">
        <ele>13.41</ele>
        <time>2020-07-08T10:34:17Z</time>
      </trkpt>
      <trkpt lat="47.83878" lon="-3.5338">
        <ele>12.85</ele>
        <time>2020-07-08T10:34:18Z</time>
      </trkpt>
      <trkpt lat="47.83882" lon="-3.53375">
        <ele>12.31</ele>
        <time>2020-07-08T10:34:19Z</time>
      </trkpt>
      <trkpt lat="47.83885" lon="-3.53372">
        <ele>11.79</ele>
        <time>2020-07-08T10:34:20Z</time>
      </trkpt>
      <trkpt lat="47.83889" lon="-3.53371">
        <ele>11.25</ele>
        <time>2020-07-08T10:34:21Z</time>
      </trkpt>
      <trkpt lat="47.8389" lon="-3.53368">
        <ele>11.12</ele>
        <time>2020-07-08T10:34:22Z</time>
      </trkpt>
      <trkpt lat="47.83891" lon="-3.53365">
        <ele>11.12</ele>
        <time>2020-07-08T10:34:23Z</time>
      </trkpt>
      <trkpt lat="47.83892" lon="-3.53364">
        <ele>11.12</ele>
        <time>2020-07-08T10:34:24Z</time>
      </trkpt>
      <trkpt lat="47.83893" lon="-3.53364">
        <ele>11.11</ele>
        <time>2020-07-08T10:34:25Z</time>
      </trkpt>
      <trkpt lat="47.83893" lon="-3.53364">
        <ele>11.1</ele>
        <time>2020-07-08T10:34:26Z</time>
      </trkpt>
      <trkpt lat="47.83893" lon="-3.53364">
        <ele>11.1</ele>
        <time>2020-07-08T10:34:27Z</time>
      </trkpt>
      <trkpt lat="47.83893" lon="-3.53364">
        <ele>11.1</ele>
        <time>2020-07-08T10:34:28Z</time>
      </trkpt>
      <trkpt lat="47.83893" lon="-3.53364">
        <ele>11.1</ele>
        <time>2020-07-08T10:34:29Z</time>
      </trkpt>
      <trkpt lat="47.83893" lon="-3.53364">
        <ele>11.1</ele>
        <time>2020-07-08T10:34:30Z</time>
      </trkpt>
      <trkpt lat="47.83893" lon="-3.53364">
        <ele>11.1</ele>
        <time>2020-07-08T10:34:31Z</time>
      </trkpt>
      <trkpt lat="47.83893" lon="-3.53364">
        <ele>11.1</ele>
        <time>2020-07-08T10:34:33Z</time>
      </trkpt>
      <trkpt lat="47.83893" lon="-3.53364">
        <ele>11.1</ele>
        <time>2020-07-08T10:34:34Z</time>
      </trkpt>
      <trkpt lat="47.83893" lon="-3.53364">
        <ele>11.1</ele>
        <time>2020-07-08T10:34:35Z</time>
      </trkpt>
      <trkpt lat="47.83893" lon="-3.53364">
        <ele>11.1</ele>
        <time>2020-07-08T10:34:36Z</time>
      </trkpt>
      <trkpt lat="47.83893" lon="-3.53364">
        <ele>11.1</ele>
        <time>2020-07-08T10:34:37Z</time>
      </trkpt>
      <trkpt lat="47.83893" lon="-3.53364">
        <ele>11.1</ele>
        <time>2020-07-08T10:34:38Z</time>
      </trkpt>
      <trkpt lat="47.83893" lon="-3.53364">
        <ele>11.1</ele>
        <time>2020-07-08T10:34:39Z</time>
      </trkpt>
      <trkpt lat="47.83893" lon="-3.53364">
        <ele>11.1</ele>
        <time>2020-07-08T10:34:40Z</time>
      </trkpt>
      <trkpt lat="47.83893" lon="-3.53364">
        <ele>11.1</ele>
        <time>2020-07-08T10:34:41Z</time>
      </trkpt>
      <trkpt lat="47.83893" lon="-3.53364">
        <ele>11.1</ele>
        <time>2020-07-08T10:34:42Z</time>
      </trkpt>
      <trkpt lat="47.83893" lon="-3.53364">
        <ele>11.1</ele>
        <time>2020-07-08T10:34:43Z</time>
      </trkpt>
      <trkpt lat="47.83893" lon="-3.53364">
        <ele>11.1</ele>
        <time>2020-07-08T10:34:44Z</time>
      </trkpt>
      <trkpt lat="47.83893" lon="-3.53364">
        <ele>11.1</ele>
        <time>2020-07-08T10:34:45Z</time>
      </trkpt>
      <trkpt lat="47.83893" lon="-3.53364">
        <ele>11.1</ele>
        <time>2020-07-08T10:34:46Z</time>
      </trkpt>
      <trkpt lat="47.83893" lon="-3.53364">
        <ele>11.1</ele>
        <time>2020-07-08T10:34:47Z</time>
      </trkpt>
      <trkpt lat="47.83893" lon="-3.53364">
        <ele>11.1</ele>
        <time>2020-07-08T10:34:48Z</time>
      </trkpt>
      <trkpt lat="47.83893" lon="-3.53364">
        <ele>11.1</ele>
        <time>2020-07-08T10:34:49Z</time>
      </trkpt>
      <trkpt lat="47.83893" lon="-3.53364">
        <ele>11.1</ele>
        <time>2020-07-08T10:34:50Z</time>
      </trkpt>
      <trkpt lat="47.83893" lon="-3.53364">
        <ele>11.1</ele>
        <time>2020-07-08T10:34:51Z</time>
      </trkpt>
      <trkpt lat="47.83893" lon="-3.53364">
        <ele>11.1</ele>
        <time>2020-07-08T10:34:52Z</time>
      </trkpt>
      <trkpt lat="47.83893" lon="-3.53364">
        <ele>11.1</ele>
        <time>2020-07-08T10:34:53Z</time>
      </trkpt>
      <trkpt lat="47.83893" lon="-3.53364">
        <ele>11.1</ele>
        <time>2020-07-08T10:34:54Z</time>
      </trkpt>
      <trkpt lat="47.83893" lon="-3.53364">
        <ele>11.1</ele>
        <time>2020-07-08T10:34:55Z</time>
      </trkpt>
      <trkpt lat="47.83893" lon="-3.53364">
        <ele>11.1</ele>
        <time>2020-07-08T10:34:56Z</time>
      </trkpt>
      <trkpt lat="47.83893" lon="-3.53364">
        <ele>11.1</ele>
        <time>2020-07-08T10:34:57Z</time>
      </trkpt>
      <trkpt lat="47.83893" lon="-3.53364">
        <ele>11.1</ele>
        <time>2020-07-08T10:34:58Z</time>
      </trkpt>
      <trkpt lat="47.83902" lon="-3.53358">
        <ele>10.25</ele>
        <time>2020-07-08T10:34:59Z</time>
      </trkpt>
      <trkpt lat="47.83902" lon="-3.53357">
        <ele>9.99</ele>
        <time>2020-07-08T10:35:00Z</time>
      </trkpt>
      <trkpt lat="47.83902" lon="-3.53357">
        <ele>9.87</ele>
        <time>2020-07-08T10:35:01Z</time>
      </trkpt>
      <trkpt lat="47.83902" lon="-3.53356">
        <ele>9.88</ele>
        <time>2020-07-08T10:35:02Z</time>
      </trkpt>
      <trkpt lat="47.83902" lon="-3.53356">
        <ele>9.89</ele>
        <time>2020-07-08T10:35:03Z</time>
      </trkpt>
      <trkpt lat="47.83902" lon="-3.53356">
        <ele>9.89</ele>
        <time>2020-07-08T10:35:04Z</time>
      </trkpt>
      <trkpt lat="47.83902" lon="-3.53356">
        <ele>9.89</ele>
        <time>2020-07-08T10:35:05Z</time>
      </trkpt>
      <trkpt lat="47.83902" lon="-3.53356">
        <ele>9.89</ele>
        <time>2020-07-08T10:35:06Z</time>
      </trkpt>
      <trkpt lat="47.83902" lon="-3.53356">
        <ele>9.89</ele>
        <time>2020-07-08T10:35:07Z</time>
      </trkpt>
      <trkpt lat="47.83902" lon="-3.53356">
        <ele>9.89</ele>
        <time>2020-07-08T10:35:08Z</time>
      </trkpt>
      <trkpt lat="47.83902" lon="-3.53356">
        <ele>9.89</ele>
        <time>2020-07-08T10:35:09Z</time>
      </trkpt>
      <trkpt lat="47.83902" lon="-3.53356">
        <ele>9.89</ele>
        <time>2020-07-08T10:35:10Z</time>
      </trkpt>
      <trkpt lat="47.83902" lon="-3.53356">
        <ele>9.89</ele>
        <time>2020-07-08T10:35:11Z</time>
      </trkpt>
      <trkpt lat="47.83902" lon="-3.53356">
        <ele>9.89</ele>
        <time>2020-07-08T10:35:12Z</time>
      </trkpt>
      <trkpt lat="47.83902" lon="-3.53356">
        <ele>9.89</ele>
        <time>2020-07-08T10:35:13Z</time>
      </trkpt>
      <trkpt lat="47.83902" lon="-3.53356">
        <ele>9.89</ele>
        <time>2020-07-08T10:35:14Z</time>
      </trkpt>
      <trkpt lat="47.83902" lon="-3.53356">
        <ele>9.89</ele>
        <time>2020-07-08T10:35:15Z</time>
      </trkpt>
      <trkpt lat="47.83902" lon="-3.53357">
        <ele>9.88</ele>
        <time>2020-07-08T10:35:16Z</time>
      </trkpt>
      <trkpt lat="47.83904" lon="-3.53359">
        <ele>9.52</ele>
        <time>2020-07-08T10:35:17Z</time>
      </trkpt>
      <trkpt lat="47.83906" lon="-3.53359">
        <ele>9.17</ele>
        <time>2020-07-08T10:35:18Z</time>
      </trkpt>
      <trkpt lat="47.83908" lon="-3.53358">
        <ele>8.82</ele>
        <time>2020-07-08T10:35:19Z</time>
      </trkpt>
      <trkpt lat="47.83911" lon="-3.53355">
        <ele>8.47</ele>
        <time>2020-07-08T10:35:20Z</time>
      </trkpt>
      <trkpt lat="47.83912" lon="-3.53352">
        <ele>8.24</ele>
        <time>2020-07-08T10:35:21Z</time>
      </trkpt>
      <trkpt lat="47.83913" lon="-3.53349">
        <ele>8.12</ele>
        <time>2020-07-08T10:35:22Z</time>
      </trkpt>
      <trkpt lat="47.83914" lon="-3.53346">
        <ele>8.08</ele>
        <time>2020-07-08T10:35:23Z</time>
      </trkpt>
      <trkpt lat="47.83915" lon="-3.53342">
        <ele>8.02</ele>
        <time>2020-07-08T10:35:24Z</time>
      </trkpt>
      <trkpt lat="47.83916" lon="-3.53339">
        <ele>8.03</ele>
        <time>2020-07-08T10:35:25Z</time>
      </trkpt>
      <trkpt lat="47.83916" lon="-3.53336">
        <ele>8.07</ele>
        <time>2020-07-08T10:35:26Z</time>
      </trkpt>
      <trkpt lat="47.83917" lon="-3.53332">
        <ele>8.09</ele>
        <time>2020-07-08T10:35:27Z</time>
      </trkpt>
      <trkpt lat="47.83917" lon="-3.53329">
        <ele>8.13</ele>
        <time>2020-07-08T10:35:28Z</time>
      </trkpt>
      <trkpt lat="47.83917" lon="-3.53326">
        <ele>8.21</ele>
        <time>2020-07-08T10:35:29Z</time>
      </trkpt>
      <trkpt lat="47.83917" lon="-3.53322">
        <ele>8.37</ele>
        <time>2020-07-08T10:35:30Z</time>
      </trkpt>
      <trkpt lat="47.83916" lon="-3.53318">
        <ele>8.56</ele>
        <time>2020-07-08T10:35:31Z</time>
      </trkpt>
      <trkpt lat="47.83916" lon="-3.53314">
        <ele>8.69</ele>
        <time>2020-07-08T10:35:32Z</time>
      </trkpt>
      <trkpt lat="47.83917" lon="-3.53312">
        <ele>8.78</ele>
        <time>2020-07-08T10:35:33Z</time>
      </trkpt>
      <trkpt lat="47.83917" lon="-3.53308">
        <ele>8.87</ele>
        <time>2020-07-08T10:35:34Z</time>
      </trkpt>
      <trkpt lat="47.83917" lon="-3.53305">
        <ele>9</ele>
        <time>2020-07-08T10:35:35Z</time>
      </trkpt>
      <trkpt lat="47.83916" lon="-3.53302">
        <ele>9.16</ele>
        <time>2020-07-08T10:35:36Z</time>
      </trkpt>
      <trkpt lat="47.83916" lon="-3.53298">
        <ele>9.31</ele>
        <time>2020-07-08T10:35:37Z</time>
      </trkpt>
      <trkpt lat="47.83916" lon="-3.53295">
        <ele>9.49</ele>
        <time>2020-07-08T10:35:38Z</time>
      </trkpt>
      <trkpt lat="47.83914" lon="-3.53289">
        <ele>9.8</ele>
        <time>2020-07-08T10:35:39Z</time>
      </trkpt>
      <trkpt lat="47.83913" lon="-3.53285">
        <ele>10.09</ele>
        <time>2020-07-08T10:35:40Z</time>
      </trkpt>
      <trkpt lat="47.83912" lon="-3.53279">
        <ele>10.32</ele>
        <time>2020-07-08T10:35:41Z</time>
      </trkpt>
      <trkpt lat="47.83912" lon="-3.53275">
        <ele>10.48</ele>
        <time>2020-07-08T10:35:42Z</time>
      </trkpt>
      <trkpt lat="47.83913" lon="-3.5327">
        <ele>10.6</ele>
        <time>2020-07-08T10:35:43Z</time>
      </trkpt>
      <trkpt lat="47.83913" lon="-3.53266">
        <ele>10.69</ele>
        <time>2020-07-08T10:35:44Z</time>
      </trkpt>
      <trkpt lat="47.83913" lon="-3.53262">
        <ele>10.79</ele>
        <time>2020-07-08T10:35:45Z</time>
      </trkpt>
      <trkpt lat="47.83911" lon="-3.53257">
        <ele>10.96</ele>
        <time>2020-07-08T10:35:46Z</time>
      </trkpt>
      <trkpt lat="47.8391" lon="-3.53254">
        <ele>11.1</ele>
        <time>2020-07-08T10:35:47Z</time>
      </trkpt>
      <trkpt lat="47.83909" lon="-3.53251">
        <ele>11.21</ele>
        <time>2020-07-08T10:35:48Z</time>
      </trkpt>
      <trkpt lat="47.83908" lon="-3.53249">
        <ele>11.34</ele>
        <time>2020-07-08T10:35:49Z</time>
      </trkpt>
      <trkpt lat="47.83907" lon="-3.53247">
        <ele>11.47</ele>
        <time>2020-07-08T10:35:50Z</time>
      </trkpt>
      <trkpt lat="47.83907" lon="-3.53245">
        <ele>11.61</ele>
        <time>2020-07-08T10:35:51Z</time>
      </trkpt>
      <trkpt lat="47.83906" lon="-3.53242">
        <ele>11.77</ele>
        <time>2020-07-08T10:35:52Z</time>
      </trkpt>
      <trkpt lat="47.83905" lon="-3.53239">
        <ele>11.96</ele>
        <time>2020-07-08T10:35:53Z</time>
      </trkpt>
      <trkpt lat="47.83906" lon="-3.53236">
        <ele>12.14</ele>
        <time>2020-07-08T10:35:54Z</time>
      </trkpt>
      <trkpt lat="47.83906" lon="-3.53233">
        <ele>12.3</ele>
        <time>2020-07-08T10:35:55Z</time>
      </trkpt>
      <trkpt lat="47.83906" lon="-3.53231">
        <ele>12.42</ele>
        <time>2020-07-08T10:35:56Z</time>
      </trkpt>
      <trkpt lat="47.83906" lon="-3.5323">
        <ele>12.5</ele>
        <time>2020-07-08T10:35:57Z</time>
      </trkpt>
      <trkpt lat="47.83907" lon="-3.53229">
        <ele>12.57</ele>
        <time>2020-07-08T10:35:58Z</time>
      </trkpt>
      <trkpt lat="47.83907" lon="-3.53227">
        <ele>12.66</ele>
        <time>2020-07-08T10:35:59Z</time>
      </trkpt>
      <trkpt lat="47.83908" lon="-3.53225">
        <ele>12.77</ele>
        <time>2020-07-08T10:36:00Z</time>
      </trkpt>
      <trkpt lat="47.83909" lon="-3.53222">
        <ele>12.94</ele>
        <time>2020-07-08T10:36:01Z</time>
      </trkpt>
      <trkpt lat="47.8391" lon="-3.53218">
        <ele>13.1</ele>
        <time>2020-07-08T10:36:02Z</time>
      </trkpt>
      <trkpt lat="47.83913" lon="-3.53216">
        <ele>13.22</ele>
        <time>2020-07-08T10:36:03Z</time>
      </trkpt>
      <trkpt lat="47.83915" lon="-3.53213">
        <ele>13.31</ele>
        <time>2020-07-08T10:36:04Z</time>
      </trkpt>
      <trkpt lat="47.83918" lon="-3.53211">
        <ele>13.31</ele>
        <time>2020-07-08T10:36:05Z</time>
      </trkpt>
      <trkpt lat="47.83921" lon="-3.53209">
        <ele>13.15</ele>
        <time>2020-07-08T10:36:06Z</time>
      </trkpt>
      <trkpt lat="47.83926" lon="-3.53207">
        <ele>12.87</ele>
        <time>2020-07-08T10:36:07Z</time>
      </trkpt>
      <trkpt lat="47.83931" lon="-3.53205">
        <ele>12.54</ele>
        <time>2020-07-08T10:36:08Z</time>
      </trkpt>
      <trkpt lat="47.83936" lon="-3.53205">
        <ele>12.12</ele>
        <time>2020-07-08T10:36:09Z</time>
      </trkpt>
      <trkpt lat="47.83941" lon="-3.53205">
        <ele>11.71</ele>
        <time>2020-07-08T10:36:10Z</time>
      </trkpt>
      <trkpt lat="47.83946" lon="-3.53207">
        <ele>11.25</ele>
        <time>2020-07-08T10:36:11Z</time>
      </trkpt>
      <trkpt lat="47.83951" lon="-3.53208">
        <ele>10.82</ele>
        <time>2020-07-08T10:36:12Z</time>
      </trkpt>
      <trkpt lat="47.83957" lon="-3.5321">
        <ele>10.41</ele>
        <time>2020-07-08T10:36:13Z</time>
      </trkpt>
      <trkpt lat="47.83961" lon="-3.53211">
        <ele>10.03</ele>
        <time>2020-07-08T10:36:14Z</time>
      </trkpt>
      <trkpt lat="47.83966" lon="-3.53213">
        <ele>9.6</ele>
        <time>2020-07-08T10:36:15Z</time>
      </trkpt>
      <trkpt lat="47.8397" lon="-3.53215">
        <ele>9.12</ele>
        <time>2020-07-08T10:36:16Z</time>
      </trkpt>
      <trkpt lat="47.83975" lon="-3.53215">
        <ele>8.69</ele>
        <time>2020-07-08T10:36:17Z</time>
      </trkpt>
      <trkpt lat="47.83979" lon="-3.53214">
        <ele>8.37</ele>
        <time>2020-07-08T10:36:18Z</time>
      </trkpt>
      <trkpt lat="47.83984" lon="-3.5321">
        <ele>8.18</ele>
        <time>2020-07-08T10:36:19Z</time>
      </trkpt>
      <trkpt lat="47.83988" lon="-3.53205">
        <ele>8.05</ele>
        <time>2020-07-08T10:36:20Z</time>
      </trkpt>
      <trkpt lat="47.83993" lon="-3.532">
        <ele>7.84</ele>
        <time>2020-07-08T10:36:21Z</time>
      </trkpt>
      <trkpt lat="47.83995" lon="-3.53195">
        <ele>7.71</ele>
        <time>2020-07-08T10:36:22Z</time>
      </trkpt>
      <trkpt lat="47.83998" lon="-3.5319">
        <ele>7.56</ele>
        <time>2020-07-08T10:36:23Z</time>
      </trkpt>
      <trkpt lat="47.84" lon="-3.53185">
        <ele>7.39</ele>
        <time>2020-07-08T10:36:24Z</time>
      </trkpt>
      <trkpt lat="47.84002" lon="-3.53181">
        <ele>7.36</ele>
        <time>2020-07-08T10:36:25Z</time>
      </trkpt>
      <trkpt lat="47.84004" lon="-3.53177">
        <ele>7.41</ele>
        <time>2020-07-08T10:36:26Z</time>
      </trkpt>
      <trkpt lat="47.84006" lon="-3.53172">
        <ele>7.5</ele>
        <time>2020-07-08T10:36:27Z</time>
      </trkpt>
      <trkpt lat="47.84009" lon="-3.53167">
        <ele>7.61</ele>
        <time>2020-07-08T10:36:28Z</time>
      </trkpt>
      <trkpt lat="47.84011" lon="-3.53162">
        <ele>7.8</ele>
        <time>2020-07-08T10:36:29Z</time>
      </trkpt>
      <trkpt lat="47.84015" lon="-3.53156">
        <ele>7.98</ele>
        <time>2020-07-08T10:36:30Z</time>
      </trkpt>
      <trkpt lat="47.84018" lon="-3.5315">
        <ele>8.12</ele>
        <time>2020-07-08T10:36:31Z</time>
      </trkpt>
      <trkpt lat="47.84019" lon="-3.53145">
        <ele>8.25</ele>
        <time>2020-07-08T10:36:32Z</time>
      </trkpt>
      <trkpt lat="47.84021" lon="-3.53139">
        <ele>8.43</ele>
        <time>2020-07-08T10:36:33Z</time>
      </trkpt>
      <trkpt lat="47.84022" lon="-3.53134">
        <ele>8.53</ele>
        <time>2020-07-08T10:36:34Z</time>
      </trkpt>
      <trkpt lat="47.84023" lon="-3.53129">
        <ele>8.62</ele>
        <time>2020-07-08T10:36:35Z</time>
      </trkpt>
      <trkpt lat="47.84025" lon="-3.53125">
        <ele>8.69</ele>
        <time>2020-07-08T10:36:36Z</time>
      </trkpt>
      <trkpt lat="47.84027" lon="-3.5312">
        <ele>8.73</ele>
        <time>2020-07-08T10:36:37Z</time>
      </trkpt>
      <trkpt lat="47.84029" lon="-3.53115">
        <ele>8.79</ele>
        <time>2020-07-08T10:36:38Z</time>
      </trkpt>
      <trkpt lat="47.84032" lon="-3.5311">
        <ele>8.9</ele>
        <time>2020-07-08T10:36:39Z</time>
      </trkpt>
      <trkpt lat="47.84035" lon="-3.53105">
        <ele>9.06</ele>
        <time>2020-07-08T10:36:40Z</time>
      </trkpt>
      <trkpt lat="47.84037" lon="-3.531">
        <ele>9.24</ele>
        <time>2020-07-08T10:36:41Z</time>
      </trkpt>
      <trkpt lat="47.8404" lon="-3.53095">
        <ele>9.39</ele>
        <time>2020-07-08T10:36:42Z</time>
      </trkpt>
      <trkpt lat="47.84043" lon="-3.53091">
        <ele>9.47</ele>
        <time>2020-07-08T10:36:43Z</time>
      </trkpt>
      <trkpt lat="47.84046" lon="-3.53089">
        <ele>9.46</ele>
        <time>2020-07-08T10:36:44Z</time>
      </trkpt>
      <trkpt lat="47.84049" lon="-3.53086">
        <ele>9.37</ele>
        <time>2020-07-08T10:36:45Z</time>
      </trkpt>
      <trkpt lat="47.84053" lon="-3.53081">
        <ele>9.3</ele>
        <time>2020-07-08T10:36:46Z</time>
      </trkpt>
      <trkpt lat="47.84056" lon="-3.53077">
        <ele>9.19</ele>
        <time>2020-07-08T10:36:47Z</time>
      </trkpt>
      <trkpt lat="47.8406" lon="-3.53073">
        <ele>9.09</ele>
        <time>2020-07-08T10:36:48Z</time>
      </trkpt>
      <trkpt lat="47.84064" lon="-3.53069">
        <ele>8.96</ele>
        <time>2020-07-08T10:36:49Z</time>
      </trkpt>
      <trkpt lat="47.84067" lon="-3.53066">
        <ele>8.86</ele>
        <time>2020-07-08T10:36:50Z</time>
      </trkpt>
      <trkpt lat="47.84071" lon="-3.53061">
        <ele>8.78</ele>
        <time>2020-07-08T10:36:51Z</time>
      </trkpt>
      <trkpt lat="47.84073" lon="-3.53056">
        <ele>8.74</ele>
        <time>2020-07-08T10:36:52Z</time>
      </trkpt>
      <trkpt lat="47.84076" lon="-3.53051">
        <ele>8.73</ele>
        <time>2020-07-08T10:36:53Z</time>
      </trkpt>
      <trkpt lat="47.84078" lon="-3.53047">
        <ele>8.73</ele>
        <time>2020-07-08T10:36:54Z</time>
      </trkpt>
      <trkpt lat="47.84081" lon="-3.53043">
        <ele>8.65</ele>
        <time>2020-07-08T10:36:55Z</time>
      </trkpt>
      <trkpt lat="47.84084" lon="-3.53039">
        <ele>8.57</ele>
        <time>2020-07-08T10:36:56Z</time>
      </trkpt>
      <trkpt lat="47.84088" lon="-3.53035">
        <ele>8.46</ele>
        <time>2020-07-08T10:36:57Z</time>
      </trkpt>
      <trkpt lat="47.84091" lon="-3.5303">
        <ele>8.36</ele>
        <time>2020-07-08T10:36:58Z</time>
      </trkpt>
      <trkpt lat="47.84095" lon="-3.53026">
        <ele>8.32</ele>
        <time>2020-07-08T10:36:59Z</time>
      </trkpt>
      <trkpt lat="47.84099" lon="-3.53023">
        <ele>8.33</ele>
        <time>2020-07-08T10:37:00Z</time>
      </trkpt>
      <trkpt lat="47.84103" lon="-3.53019">
        <ele>8.34</ele>
        <time>2020-07-08T10:37:01Z</time>
      </trkpt>
      <trkpt lat="47.84107" lon="-3.53015">
        <ele>8.33</ele>
        <time>2020-07-08T10:37:02Z</time>
      </trkpt>
      <trkpt lat="47.84111" lon="-3.53011">
        <ele>8.29</ele>
        <time>2020-07-08T10:37:03Z</time>
      </trkpt>
      <trkpt lat="47.84114" lon="-3.53006">
        <ele>8.34</ele>
        <time>2020-07-08T10:37:04Z</time>
      </trkpt>
      <trkpt lat="47.84118" lon="-3.53002">
        <ele>8.38</ele>
        <time>2020-07-08T10:37:05Z</time>
      </trkpt>
      <trkpt lat="47.84121" lon="-3.52998">
        <ele>8.46</ele>
        <time>2020-07-08T10:37:06Z</time>
      </trkpt>
      <trkpt lat="47.84125" lon="-3.52993">
        <ele>8.6</ele>
        <time>2020-07-08T10:37:07Z</time>
      </trkpt>
      <trkpt lat="47.84128" lon="-3.52988">
        <ele>8.76</ele>
        <time>2020-07-08T10:37:08Z</time>
      </trkpt>
      <trkpt lat="47.8413" lon="-3.52984">
        <ele>8.92</ele>
        <time>2020-07-08T10:37:09Z</time>
      </trkpt>
      <trkpt lat="47.84133" lon="-3.52979">
        <ele>9.04</ele>
        <time>2020-07-08T10:37:10Z</time>
      </trkpt>
      <trkpt lat="47.84136" lon="-3.52974">
        <ele>9.16</ele>
        <time>2020-07-08T10:37:11Z</time>
      </trkpt>
      <trkpt lat="47.84137" lon="-3.5297">
        <ele>9.31</ele>
        <time>2020-07-08T10:37:12Z</time>
      </trkpt>
      <trkpt lat="47.84141" lon="-3.52964">
        <ele>9.32</ele>
        <time>2020-07-08T10:37:13Z</time>
      </trkpt>
      <trkpt lat="47.84144" lon="-3.52959">
        <ele>9.21</ele>
        <time>2020-07-08T10:37:14Z</time>
      </trkpt>
      <trkpt lat="47.84147" lon="-3.52955">
        <ele>8.95</ele>
        <time>2020-07-08T10:37:15Z</time>
      </trkpt>
      <trkpt lat="47.84152" lon="-3.5295">
        <ele>8.56</ele>
        <time>2020-07-08T10:37:16Z</time>
      </trkpt>
      <trkpt lat="47.84156" lon="-3.52944">
        <ele>8.17</ele>
        <time>2020-07-08T10:37:17Z</time>
      </trkpt>
      <trkpt lat="47.84159" lon="-3.52938">
        <ele>7.86</ele>
        <time>2020-07-08T10:37:18Z</time>
      </trkpt>
      <trkpt lat="47.84163" lon="-3.52933">
        <ele>7.57</ele>
        <time>2020-07-08T10:37:19Z</time>
      </trkpt>
      <trkpt lat="47.84167" lon="-3.52929">
        <ele>7.24</ele>
        <time>2020-07-08T10:37:20Z</time>
      </trkpt>
      <trkpt lat="47.84171" lon="-3.52925">
        <ele>7.22</ele>
        <time>2020-07-08T10:37:21Z</time>
      </trkpt>
      <trkpt lat="47.84174" lon="-3.52922">
        <ele>7.31</ele>
        <time>2020-07-08T10:37:22Z</time>
      </trkpt>
      <trkpt lat="47.84178" lon="-3.52918">
        <ele>7.46</ele>
        <time>2020-07-08T10:37:23Z</time>
      </trkpt>
      <trkpt lat="47.84182" lon="-3.52914">
        <ele>7.6</ele>
        <time>2020-07-08T10:37:24Z</time>
      </trkpt>
      <trkpt lat="47.84186" lon="-3.52908">
        <ele>7.74</ele>
        <time>2020-07-08T10:37:25Z</time>
      </trkpt>
      <trkpt lat="47.84188" lon="-3.52903">
        <ele>7.91</ele>
        <time>2020-07-08T10:37:26Z</time>
      </trkpt>
      <trkpt lat="47.84189" lon="-3.52898">
        <ele>8.05</ele>
        <time>2020-07-08T10:37:27Z</time>
      </trkpt>
      <trkpt lat="47.84192" lon="-3.52892">
        <ele>8.12</ele>
        <time>2020-07-08T10:37:28Z</time>
      </trkpt>
      <trkpt lat="47.84194" lon="-3.52886">
        <ele>8.01</ele>
        <time>2020-07-08T10:37:29Z</time>
      </trkpt>
      <trkpt lat="47.84196" lon="-3.5288">
        <ele>7.6</ele>
        <time>2020-07-08T10:37:30Z</time>
      </trkpt>
      <trkpt lat="47.84199" lon="-3.52874">
        <ele>7.13</ele>
        <time>2020-07-08T10:37:31Z</time>
      </trkpt>
      <trkpt lat="47.84201" lon="-3.52869">
        <ele>6.66</ele>
        <time>2020-07-08T10:37:32Z</time>
      </trkpt>
      <trkpt lat="47.84204" lon="-3.52864">
        <ele>6.21</ele>
        <time>2020-07-08T10:37:33Z</time>
      </trkpt>
      <trkpt lat="47.84206" lon="-3.5286">
        <ele>5.93</ele>
        <time>2020-07-08T10:37:34Z</time>
      </trkpt>
      <trkpt lat="47.84207" lon="-3.52856">
        <ele>5.89</ele>
        <time>2020-07-08T10:37:35Z</time>
      </trkpt>
      <trkpt lat="47.84209" lon="-3.52852">
        <ele>5.93</ele>
        <time>2020-07-08T10:37:36Z</time>
      </trkpt>
      <trkpt lat="47.8421" lon="-3.52848">
        <ele>6</ele>
        <time>2020-07-08T10:37:37Z</time>
      </trkpt>
      <trkpt lat="47.84212" lon="-3.52845">
        <ele>6.06</ele>
        <time>2020-07-08T10:37:38Z</time>
      </trkpt>
      <trkpt lat="47.84213" lon="-3.52842">
        <ele>6.12</ele>
        <time>2020-07-08T10:37:39Z</time>
      </trkpt>
      <trkpt lat="47.84214" lon="-3.52839">
        <ele>6.19</ele>
        <time>2020-07-08T10:37:40Z</time>
      </trkpt>
      <trkpt lat="47.84215" lon="-3.52837">
        <ele>6.25</ele>
        <time>2020-07-08T10:37:41Z</time>
      </trkpt>
      <trkpt lat="47.84216" lon="-3.52835">
        <ele>6.31</ele>
        <time>2020-07-08T10:37:42Z</time>
      </trkpt>
      <trkpt lat="47.84218" lon="-3.52832">
        <ele>6.34</ele>
        <time>2020-07-08T10:37:43Z</time>
      </trkpt>
      <trkpt lat="47.8422" lon="-3.5283">
        <ele>6.4</ele>
        <time>2020-07-08T10:37:44Z</time>
      </trkpt>
      <trkpt lat="47.84221" lon="-3.52827">
        <ele>6.48</ele>
        <time>2020-07-08T10:37:45Z</time>
      </trkpt>
      <trkpt lat="47.84222" lon="-3.52825">
        <ele>6.57</ele>
        <time>2020-07-08T10:37:46Z</time>
      </trkpt>
      <trkpt lat="47.84224" lon="-3.52822">
        <ele>6.66</ele>
        <time>2020-07-08T10:37:47Z</time>
      </trkpt>
      <trkpt lat="47.84226" lon="-3.52819">
        <ele>6.76</ele>
        <time>2020-07-08T10:37:48Z</time>
      </trkpt>
      <trkpt lat="47.84226" lon="-3.52815">
        <ele>6.89</ele>
        <time>2020-07-08T10:37:49Z</time>
      </trkpt>
      <trkpt lat="47.84227" lon="-3.52812">
        <ele>7.05</ele>
        <time>2020-07-08T10:37:50Z</time>
      </trkpt>
      <trkpt lat="47.84227" lon="-3.52808">
        <ele>7.23</ele>
        <time>2020-07-08T10:37:51Z</time>
      </trkpt>
      <trkpt lat="47.84228" lon="-3.52804">
        <ele>7.38</ele>
        <time>2020-07-08T10:37:52Z</time>
      </trkpt>
      <trkpt lat="47.84228" lon="-3.528">
        <ele>7.52</ele>
        <time>2020-07-08T10:37:53Z</time>
      </trkpt>
      <trkpt lat="47.84227" lon="-3.52797">
        <ele>7.64</ele>
        <time>2020-07-08T10:37:54Z</time>
      </trkpt>
      <trkpt lat="47.84227" lon="-3.52796">
        <ele>7.73</ele>
        <time>2020-07-08T10:37:55Z</time>
      </trkpt>
      <trkpt lat="47.84227" lon="-3.52793">
        <ele>7.79</ele>
        <time>2020-07-08T10:37:56Z</time>
      </trkpt>
      <trkpt lat="47.84227" lon="-3.52791">
        <ele>7.86</ele>
        <time>2020-07-08T10:37:57Z</time>
      </trkpt>
      <trkpt lat="47.84227" lon="-3.52788">
        <ele>7.94</ele>
        <time>2020-07-08T10:37:58Z</time>
      </trkpt>
      <trkpt lat="47.84227" lon="-3.52785">
        <ele>8.05</ele>
        <time>2020-07-08T10:37:59Z</time>
      </trkpt>
      <trkpt lat="47.84227" lon="-3.52783">
        <ele>8.13</ele>
        <time>2020-07-08T10:38:00Z</time>
      </trkpt>
      <trkpt lat="47.84226" lon="-3.52781">
        <ele>8.25</ele>
        <time>2020-07-08T10:38:01Z</time>
      </trkpt>
      <trkpt lat="47.84227" lon="-3.52778">
        <ele>8.31</ele>
        <time>2020-07-08T10:38:02Z</time>
      </trkpt>
      <trkpt lat="47.84227" lon="-3.52776">
        <ele>8.35</ele>
        <time>2020-07-08T10:38:03Z</time>
      </trkpt>
      <trkpt lat="47.84228" lon="-3.52774">
        <ele>8.34</ele>
        <time>2020-07-08T10:38:04Z</time>
      </trkpt>
      <trkpt lat="47.84228" lon="-3.52773">
        <ele>8.38</ele>
        <time>2020-07-08T10:38:05Z</time>
      </trkpt>
      <trkpt lat="47.84229" lon="-3.5277">
        <ele>8.36</ele>
        <time>2020-07-08T10:38:06Z</time>
      </trkpt>
      <trkpt lat="47.84231" lon="-3.52766">
        <ele>8.26</ele>
        <time>2020-07-08T10:38:07Z</time>
      </trkpt>
      <trkpt lat="47.84233" lon="-3.52761">
        <ele>8.12</ele>
        <time>2020-07-08T10:38:08Z</time>
      </trkpt>
      <trkpt lat="47.84235" lon="-3.52755">
        <ele>8.02</ele>
        <time>2020-07-08T10:38:09Z</time>
      </trkpt>
      <trkpt lat="47.84238" lon="-3.52749">
        <ele>7.83</ele>
        <time>2020-07-08T10:38:10Z</time>
      </trkpt>
      <trkpt lat="47.84242" lon="-3.52741">
        <ele>7.55</ele>
        <time>2020-07-08T10:38:11Z</time>
      </trkpt>
      <trkpt lat="47.84245" lon="-3.52733">
        <ele>7.28</ele>
        <time>2020-07-08T10:38:12Z</time>
      </trkpt>
      <trkpt lat="47.84248" lon="-3.52726">
        <ele>7.12</ele>
        <time>2020-07-08T10:38:13Z</time>
      </trkpt>
      <trkpt lat="47.8425" lon="-3.52718">
        <ele>7.09</ele>
        <time>2020-07-08T10:38:14Z</time>
      </trkpt>
      <trkpt lat="47.84253" lon="-3.5271">
        <ele>6.86</ele>
        <time>2020-07-08T10:38:15Z</time>
      </trkpt>
      <trkpt lat="47.84255" lon="-3.52704">
        <ele>6.57</ele>
        <time>2020-07-08T10:38:16Z</time>
      </trkpt>
      <trkpt lat="47.84258" lon="-3.52698">
        <ele>6.24</ele>
        <time>2020-07-08T10:38:17Z</time>
      </trkpt>
      <trkpt lat="47.84261" lon="-3.5269">
        <ele>6</ele>
        <time>2020-07-08T10:38:18Z</time>
      </trkpt>
      <trkpt lat="47.84264" lon="-3.52683">
        <ele>5.84</ele>
        <time>2020-07-08T10:38:19Z</time>
      </trkpt>
      <trkpt lat="47.84267" lon="-3.52677">
        <ele>5.73</ele>
        <time>2020-07-08T10:38:20Z</time>
      </trkpt>
      <trkpt lat="47.8427" lon="-3.52669">
        <ele>5.6</ele>
        <time>2020-07-08T10:38:21Z</time>
      </trkpt>
      <trkpt lat="47.84274" lon="-3.52661">
        <ele>5.51</ele>
        <time>2020-07-08T10:38:22Z</time>
      </trkpt>
      <trkpt lat="47.84279" lon="-3.52652">
        <ele>5.4</ele>
        <time>2020-07-08T10:38:23Z</time>
      </trkpt>
      <trkpt lat="47.84284" lon="-3.52646">
        <ele>5.15</ele>
        <time>2020-07-08T10:38:24Z</time>
      </trkpt>
      <trkpt lat="47.8429" lon="-3.52636">
        <ele>4.75</ele>
        <time>2020-07-08T10:38:25Z</time>
      </trkpt>
      <trkpt lat="47.84294" lon="-3.52628">
        <ele>4.31</ele>
        <time>2020-07-08T10:38:26Z</time>
      </trkpt>
      <trkpt lat="47.84298" lon="-3.52621">
        <ele>3.85</ele>
        <time>2020-07-08T10:38:27Z</time>
      </trkpt>
      <trkpt lat="47.84302" lon="-3.52615">
        <ele>3.48</ele>
        <time>2020-07-08T10:38:28Z</time>
      </trkpt>
      <trkpt lat="47.84306" lon="-3.52609">
        <ele>3.24</ele>
        <time>2020-07-08T10:38:29Z</time>
      </trkpt>
      <trkpt lat="47.84308" lon="-3.52603">
        <ele>3.44</ele>
        <time>2020-07-08T10:38:30Z</time>
      </trkpt>
      <trkpt lat="47.84309" lon="-3.52598">
        <ele>3.71</ele>
        <time>2020-07-08T10:38:31Z</time>
      </trkpt>
      <trkpt lat="47.84308" lon="-3.52593">
        <ele>4.07</ele>
        <time>2020-07-08T10:38:32Z</time>
      </trkpt>
      <trkpt lat="47.84307" lon="-3.52589">
        <ele>4.4</ele>
        <time>2020-07-08T10:38:33Z</time>
      </trkpt>
      <trkpt lat="47.84307" lon="-3.52584">
        <ele>4.74</ele>
        <time>2020-07-08T10:38:34Z</time>
      </trkpt>
      <trkpt lat="47.84305" lon="-3.5258">
        <ele>4.94</ele>
        <time>2020-07-08T10:38:35Z</time>
      </trkpt>
      <trkpt lat="47.84304" lon="-3.52574">
        <ele>5.09</ele>
        <time>2020-07-08T10:38:36Z</time>
      </trkpt>
      <trkpt lat="47.84303" lon="-3.52568">
        <ele>5.25</ele>
        <time>2020-07-08T10:38:37Z</time>
      </trkpt>
      <trkpt lat="47.84302" lon="-3.52564">
        <ele>5.38</ele>
        <time>2020-07-08T10:38:38Z</time>
      </trkpt>
      <trkpt lat="47.84301" lon="-3.52558">
        <ele>5.54</ele>
        <time>2020-07-08T10:38:39Z</time>
      </trkpt>
      <trkpt lat="47.843" lon="-3.52554">
        <ele>5.73</ele>
        <time>2020-07-08T10:38:40Z</time>
      </trkpt>
      <trkpt lat="47.84298" lon="-3.5255">
        <ele>6.01</ele>
        <time>2020-07-08T10:38:41Z</time>
      </trkpt>
      <trkpt lat="47.84296" lon="-3.52546">
        <ele>6.31</ele>
        <time>2020-07-08T10:38:42Z</time>
      </trkpt>
      <trkpt lat="47.84294" lon="-3.52542">
        <ele>6.6</ele>
        <time>2020-07-08T10:38:43Z</time>
      </trkpt>
      <trkpt lat="47.84292" lon="-3.52537">
        <ele>6.83</ele>
        <time>2020-07-08T10:38:44Z</time>
      </trkpt>
      <trkpt lat="47.84291" lon="-3.52532">
        <ele>6.97</ele>
        <time>2020-07-08T10:38:45Z</time>
      </trkpt>
      <trkpt lat="47.84291" lon="-3.52528">
        <ele>7.06</ele>
        <time>2020-07-08T10:38:46Z</time>
      </trkpt>
      <trkpt lat="47.84289" lon="-3.52522">
        <ele>7.27</ele>
        <time>2020-07-08T10:38:47Z</time>
      </trkpt>
      <trkpt lat="47.84288" lon="-3.52516">
        <ele>7.49</ele>
        <time>2020-07-08T10:38:48Z</time>
      </trkpt>
      <trkpt lat="47.84287" lon="-3.52511">
        <ele>7.67</ele>
        <time>2020-07-08T10:38:49Z</time>
      </trkpt>
      <trkpt lat="47.84286" lon="-3.52506">
        <ele>7.81</ele>
        <time>2020-07-08T10:38:50Z</time>
      </trkpt>
      <trkpt lat="47.84285" lon="-3.52503">
        <ele>7.91</ele>
        <time>2020-07-08T10:38:51Z</time>
      </trkpt>
      <trkpt lat="47.84284" lon="-3.52499">
        <ele>8.02</ele>
        <time>2020-07-08T10:38:52Z</time>
      </trkpt>
      <trkpt lat="47.84282" lon="-3.52496">
        <ele>8.17</ele>
        <time>2020-07-08T10:38:53Z</time>
      </trkpt>
      <trkpt lat="47.84282" lon="-3.52492">
        <ele>8.35</ele>
        <time>2020-07-08T10:38:54Z</time>
      </trkpt>
      <trkpt lat="47.84281" lon="-3.52489">
        <ele>8.5</ele>
        <time>2020-07-08T10:38:55Z</time>
      </trkpt>
      <trkpt lat="47.8428" lon="-3.52486">
        <ele>8.61</ele>
        <time>2020-07-08T10:38:56Z</time>
      </trkpt>
      <trkpt lat="47.84279" lon="-3.52484">
        <ele>8.67</ele>
        <time>2020-07-08T10:38:57Z</time>
      </trkpt>
      <trkpt lat="47.84278" lon="-3.5248">
        <ele>8.73</ele>
        <time>2020-07-08T10:38:58Z</time>
      </trkpt>
      <trkpt lat="47.84277" lon="-3.52476">
        <ele>8.86</ele>
        <time>2020-07-08T10:38:59Z</time>
      </trkpt>
      <trkpt lat="47.84275" lon="-3.52472">
        <ele>9.01</ele>
        <time>2020-07-08T10:39:00Z</time>
      </trkpt>
      <trkpt lat="47.84274" lon="-3.52469">
        <ele>9.49</ele>
        <time>2020-07-08T10:39:01Z</time>
      </trkpt>
      <trkpt lat="47.84271" lon="-3.52467">
        <ele>9.99</ele>
        <time>2020-07-08T10:39:02Z</time>
      </trkpt>
      <trkpt lat="47.84269" lon="-3.52465">
        <ele>10.48</ele>
        <time>2020-07-08T10:39:03Z</time>
      </trkpt>
      <trkpt lat="47.84266" lon="-3.52463">
        <ele>10.84</ele>
        <time>2020-07-08T10:39:04Z</time>
      </trkpt>
      <trkpt lat="47.84264" lon="-3.52462">
        <ele>11</ele>
        <time>2020-07-08T10:39:05Z</time>
      </trkpt>
      <trkpt lat="47.84263" lon="-3.52461">
        <ele>11.2</ele>
        <time>2020-07-08T10:39:06Z</time>
      </trkpt>
      <trkpt lat="47.8426" lon="-3.52462">
        <ele>11.21</ele>
        <time>2020-07-08T10:39:07Z</time>
      </trkpt>
      <trkpt lat="47.84257" lon="-3.52462">
        <ele>11.2</ele>
        <time>2020-07-08T10:39:08Z</time>
      </trkpt>
      <trkpt lat="47.84254" lon="-3.52461">
        <ele>11.21</ele>
        <time>2020-07-08T10:39:09Z</time>
      </trkpt>
      <trkpt lat="47.84251" lon="-3.52461">
        <ele>11.26</ele>
        <time>2020-07-08T10:39:10Z</time>
      </trkpt>
      <trkpt lat="47.84248" lon="-3.52458">
        <ele>11.73</ele>
        <time>2020-07-08T10:39:11Z</time>
      </trkpt>
      <trkpt lat="47.84245" lon="-3.52456">
        <ele>12.26</ele>
        <time>2020-07-08T10:39:12Z</time>
      </trkpt>
      <trkpt lat="47.84244" lon="-3.52455">
        <ele>12.64</ele>
        <time>2020-07-08T10:39:13Z</time>
      </trkpt>
      <trkpt lat="47.84241" lon="-3.52453">
        <ele>13.03</ele>
        <time>2020-07-08T10:39:14Z</time>
      </trkpt>
      <trkpt lat="47.84239" lon="-3.52453">
        <ele>13.35</ele>
        <time>2020-07-08T10:39:15Z</time>
      </trkpt>
      <trkpt lat="47.84237" lon="-3.52453">
        <ele>13.58</ele>
        <time>2020-07-08T10:39:16Z</time>
      </trkpt>
      <trkpt lat="47.84235" lon="-3.52451">
        <ele>13.77</ele>
        <time>2020-07-08T10:39:17Z</time>
      </trkpt>
      <trkpt lat="47.84234" lon="-3.5245">
        <ele>13.88</ele>
        <time>2020-07-08T10:39:18Z</time>
      </trkpt>
      <trkpt lat="47.84232" lon="-3.52449">
        <ele>13.96</ele>
        <time>2020-07-08T10:39:19Z</time>
      </trkpt>
      <trkpt lat="47.8423" lon="-3.52448">
        <ele>14.03</ele>
        <time>2020-07-08T10:39:20Z</time>
      </trkpt>
      <trkpt lat="47.84227" lon="-3.52448">
        <ele>14.16</ele>
        <time>2020-07-08T10:39:21Z</time>
      </trkpt>
      <trkpt lat="47.84224" lon="-3.52448">
        <ele>14.36</ele>
        <time>2020-07-08T10:39:22Z</time>
      </trkpt>
      <trkpt lat="47.84223" lon="-3.52448">
        <ele>14.48</ele>
        <time>2020-07-08T10:39:23Z</time>
      </trkpt>
      <trkpt lat="47.84219" lon="-3.52447">
        <ele>14.88</ele>
        <time>2020-07-08T10:39:24Z</time>
      </trkpt>
      <trkpt lat="47.84216" lon="-3.52446">
        <ele>15.35</ele>
        <time>2020-07-08T10:39:25Z</time>
      </trkpt>
      <trkpt lat="47.84213" lon="-3.52445">
        <ele>15.66</ele>
        <time>2020-07-08T10:39:26Z</time>
      </trkpt>
      <trkpt lat="47.84211" lon="-3.52442">
        <ele>16</ele>
        <time>2020-07-08T10:39:27Z</time>
      </trkpt>
      <trkpt lat="47.84209" lon="-3.5244">
        <ele>16.38</ele>
        <time>2020-07-08T10:39:28Z</time>
      </trkpt>
      <trkpt lat="47.84207" lon="-3.52439">
        <ele>16.69</ele>
        <time>2020-07-08T10:39:29Z</time>
      </trkpt>
      <trkpt lat="47.84205" lon="-3.52437">
        <ele>17.01</ele>
        <time>2020-07-08T10:39:30Z</time>
      </trkpt>
      <trkpt lat="47.84203" lon="-3.52435">
        <ele>17.21</ele>
        <time>2020-07-08T10:39:31Z</time>
      </trkpt>
      <trkpt lat="47.842" lon="-3.52432">
        <ele>17.33</ele>
        <time>2020-07-08T10:39:32Z</time>
      </trkpt>
      <trkpt lat="47.84198" lon="-3.5243">
        <ele>17.35</ele>
        <time>2020-07-08T10:39:33Z</time>
      </trkpt>
      <trkpt lat="47.84196" lon="-3.52428">
        <ele>17.24</ele>
        <time>2020-07-08T10:39:34Z</time>
      </trkpt>
      <trkpt lat="47.84195" lon="-3.52426">
        <ele>17.04</ele>
        <time>2020-07-08T10:39:35Z</time>
      </trkpt>
      <trkpt lat="47.84192" lon="-3.52423">
        <ele>17.12</ele>
        <time>2020-07-08T10:39:36Z</time>
      </trkpt>
      <trkpt lat="47.8419" lon="-3.5242">
        <ele>17.27</ele>
        <time>2020-07-08T10:39:37Z</time>
      </trkpt>
      <trkpt lat="47.84188" lon="-3.52416">
        <ele>17.35</ele>
        <time>2020-07-08T10:39:38Z</time>
      </trkpt>
      <trkpt lat="47.84187" lon="-3.52413">
        <ele>17.75</ele>
        <time>2020-07-08T10:39:39Z</time>
      </trkpt>
      <trkpt lat="47.84185" lon="-3.52409">
        <ele>18.2</ele>
        <time>2020-07-08T10:39:40Z</time>
      </trkpt>
      <trkpt lat="47.84183" lon="-3.52406">
        <ele>18.6</ele>
        <time>2020-07-08T10:39:41Z</time>
      </trkpt>
      <trkpt lat="47.84182" lon="-3.52403">
        <ele>18.95</ele>
        <time>2020-07-08T10:39:42Z</time>
      </trkpt>
      <trkpt lat="47.8418" lon="-3.52399">
        <ele>19.23</ele>
        <time>2020-07-08T10:39:43Z</time>
      </trkpt>
      <trkpt lat="47.84178" lon="-3.52396">
        <ele>19.46</ele>
        <time>2020-07-08T10:39:44Z</time>
      </trkpt>
      <trkpt lat="47.84176" lon="-3.52393">
        <ele>19.62</ele>
        <time>2020-07-08T10:39:45Z</time>
      </trkpt>
      <trkpt lat="47.84174" lon="-3.5239">
        <ele>19.71</ele>
        <time>2020-07-08T10:39:46Z</time>
      </trkpt>
      <trkpt lat="47.84173" lon="-3.52387">
        <ele>19.83</ele>
        <time>2020-07-08T10:39:47Z</time>
      </trkpt>
      <trkpt lat="47.84172" lon="-3.52383">
        <ele>20</ele>
        <time>2020-07-08T10:39:48Z</time>
      </trkpt>
      <trkpt lat="47.8417" lon="-3.52375">
        <ele>20.19</ele>
        <time>2020-07-08T10:39:49Z</time>
      </trkpt>
      <trkpt lat="47.8417" lon="-3.52372">
        <ele>20.24</ele>
        <time>2020-07-08T10:39:50Z</time>
      </trkpt>
      <trkpt lat="47.84169" lon="-3.52369">
        <ele>20.23</ele>
        <time>2020-07-08T10:39:51Z</time>
      </trkpt>
      <trkpt lat="47.84167" lon="-3.52366">
        <ele>20.15</ele>
        <time>2020-07-08T10:39:52Z</time>
      </trkpt>
      <trkpt lat="47.84166" lon="-3.52363">
        <ele>20.08</ele>
        <time>2020-07-08T10:39:53Z</time>
      </trkpt>
      <trkpt lat="47.84166" lon="-3.5236">
        <ele>20.25</ele>
        <time>2020-07-08T10:39:54Z</time>
      </trkpt>
      <trkpt lat="47.84164" lon="-3.52358">
        <ele>20.63</ele>
        <time>2020-07-08T10:39:55Z</time>
      </trkpt>
      <trkpt lat="47.84163" lon="-3.52356">
        <ele>21.02</ele>
        <time>2020-07-08T10:39:56Z</time>
      </trkpt>
      <trkpt lat="47.84161" lon="-3.52354">
        <ele>21.48</ele>
        <time>2020-07-08T10:39:57Z</time>
      </trkpt>
      <trkpt lat="47.84159" lon="-3.5235">
        <ele>21.99</ele>
        <time>2020-07-08T10:39:58Z</time>
      </trkpt>
      <trkpt lat="47.84156" lon="-3.52346">
        <ele>22.52</ele>
        <time>2020-07-08T10:39:59Z</time>
      </trkpt>
      <trkpt lat="47.84153" lon="-3.52344">
        <ele>23.01</ele>
        <time>2020-07-08T10:40:00Z</time>
      </trkpt>
      <trkpt lat="47.84151" lon="-3.52341">
        <ele>23.41</ele>
        <time>2020-07-08T10:40:01Z</time>
      </trkpt>
      <trkpt lat="47.84149" lon="-3.52339">
        <ele>23.7</ele>
        <time>2020-07-08T10:40:02Z</time>
      </trkpt>
      <trkpt lat="47.84147" lon="-3.52337">
        <ele>23.92</ele>
        <time>2020-07-08T10:40:03Z</time>
      </trkpt>
      <trkpt lat="47.84146" lon="-3.52335">
        <ele>24.04</ele>
        <time>2020-07-08T10:40:04Z</time>
      </trkpt>
      <trkpt lat="47.84144" lon="-3.52332">
        <ele>24.13</ele>
        <time>2020-07-08T10:40:05Z</time>
      </trkpt>
      <trkpt lat="47.84142" lon="-3.52329">
        <ele>24.21</ele>
        <time>2020-07-08T10:40:06Z</time>
      </trkpt>
      <trkpt lat="47.8414" lon="-3.52328">
        <ele>24.25</ele>
        <time>2020-07-08T10:40:07Z</time>
      </trkpt>
      <trkpt lat="47.84139" lon="-3.52326">
        <ele>24.24</ele>
        <time>2020-07-08T10:40:08Z</time>
      </trkpt>
      <trkpt lat="47.84137" lon="-3.52324">
        <ele>24.29</ele>
        <time>2020-07-08T10:40:09Z</time>
      </trkpt>
      <trkpt lat="47.84136" lon="-3.52324">
        <ele>24.38</ele>
        <time>2020-07-08T10:40:10Z</time>
      </trkpt>
      <trkpt lat="47.84135" lon="-3.52323">
        <ele>24.49</ele>
        <time>2020-07-08T10:40:11Z</time>
      </trkpt>
      <trkpt lat="47.84133" lon="-3.52322">
        <ele>24.65</ele>
        <time>2020-07-08T10:40:12Z</time>
      </trkpt>
      <trkpt lat="47.84132" lon="-3.52321">
        <ele>24.76</ele>
        <time>2020-07-08T10:40:13Z</time>
      </trkpt>
      <trkpt lat="47.8413" lon="-3.52319">
        <ele>24.86</ele>
        <time>2020-07-08T10:40:14Z</time>
      </trkpt>
      <trkpt lat="47.84128" lon="-3.52318">
        <ele>25.06</ele>
        <time>2020-07-08T10:40:15Z</time>
      </trkpt>
      <trkpt lat="47.84126" lon="-3.52318">
        <ele>25.24</ele>
        <time>2020-07-08T10:40:16Z</time>
      </trkpt>
      <trkpt lat="47.84123" lon="-3.52316">
        <ele>25.49</ele>
        <time>2020-07-08T10:40:17Z</time>
      </trkpt>
      <trkpt lat="47.84121" lon="-3.52316">
        <ele>25.86</ele>
        <time>2020-07-08T10:40:18Z</time>
      </trkpt>
      <trkpt lat="47.84119" lon="-3.52314">
        <ele>26.02</ele>
        <time>2020-07-08T10:40:19Z</time>
      </trkpt>
      <trkpt lat="47.84117" lon="-3.52312">
        <ele>26</ele>
        <time>2020-07-08T10:40:20Z</time>
      </trkpt>
      <trkpt lat="47.84115" lon="-3.52309">
        <ele>25.96</ele>
        <time>2020-07-08T10:40:21Z</time>
      </trkpt>
      <trkpt lat="47.84113" lon="-3.52307">
        <ele>25.96</ele>
        <time>2020-07-08T10:40:22Z</time>
      </trkpt>
      <trkpt lat="47.84111" lon="-3.52305">
        <ele>25.98</ele>
        <time>2020-07-08T10:40:23Z</time>
      </trkpt>
      <trkpt lat="47.84109" lon="-3.52304">
        <ele>26.17</ele>
        <time>2020-07-08T10:40:24Z</time>
      </trkpt>
      <trkpt lat="47.84104" lon="-3.52301">
        <ele>26.55</ele>
        <time>2020-07-08T10:40:25Z</time>
      </trkpt>
      <trkpt lat="47.84101" lon="-3.523">
        <ele>26.8</ele>
        <time>2020-07-08T10:40:26Z</time>
      </trkpt>
      <trkpt lat="47.84099" lon="-3.52298">
        <ele>27.02</ele>
        <time>2020-07-08T10:40:27Z</time>
      </trkpt>
      <trkpt lat="47.84096" lon="-3.52296">
        <ele>27.2</ele>
        <time>2020-07-08T10:40:28Z</time>
      </trkpt>
      <trkpt lat="47.84093" lon="-3.52294">
        <ele>27.33</ele>
        <time>2020-07-08T10:40:29Z</time>
      </trkpt>
      <trkpt lat="47.84091" lon="-3.52291">
        <ele>27.41</ele>
        <time>2020-07-08T10:40:30Z</time>
      </trkpt>
      <trkpt lat="47.84088" lon="-3.5229">
        <ele>27.5</ele>
        <time>2020-07-08T10:40:31Z</time>
      </trkpt>
      <trkpt lat="47.84086" lon="-3.52288">
        <ele>27.53</ele>
        <time>2020-07-08T10:40:32Z</time>
      </trkpt>
      <trkpt lat="47.84083" lon="-3.52285">
        <ele>27.55</ele>
        <time>2020-07-08T10:40:33Z</time>
      </trkpt>
      <trkpt lat="47.84081" lon="-3.52283">
        <ele>27.56</ele>
        <time>2020-07-08T10:40:34Z</time>
      </trkpt>
      <trkpt lat="47.84078" lon="-3.5228">
        <ele>27.56</ele>
        <time>2020-07-08T10:40:35Z</time>
      </trkpt>
      <trkpt lat="47.84076" lon="-3.52277">
        <ele>27.61</ele>
        <time>2020-07-08T10:40:36Z</time>
      </trkpt>
      <trkpt lat="47.84074" lon="-3.52273">
        <ele>27.86</ele>
        <time>2020-07-08T10:40:37Z</time>
      </trkpt>
      <trkpt lat="47.84072" lon="-3.52271">
        <ele>28.07</ele>
        <time>2020-07-08T10:40:38Z</time>
      </trkpt>
      <trkpt lat="47.8407" lon="-3.52268">
        <ele>28.27</ele>
        <time>2020-07-08T10:40:39Z</time>
      </trkpt>
      <trkpt lat="47.84068" lon="-3.52264">
        <ele>28.42</ele>
        <time>2020-07-08T10:40:40Z</time>
      </trkpt>
      <trkpt lat="47.84065" lon="-3.52259">
        <ele>28.53</ele>
        <time>2020-07-08T10:40:41Z</time>
      </trkpt>
      <trkpt lat="47.84063" lon="-3.52255">
        <ele>28.53</ele>
        <time>2020-07-08T10:40:42Z</time>
      </trkpt>
      <trkpt lat="47.84061" lon="-3.52252">
        <ele>28.43</ele>
        <time>2020-07-08T10:40:43Z</time>
      </trkpt>
      <trkpt lat="47.84058" lon="-3.5225">
        <ele>28.27</ele>
        <time>2020-07-08T10:40:44Z</time>
      </trkpt>
      <trkpt lat="47.84056" lon="-3.52248">
        <ele>28.25</ele>
        <time>2020-07-08T10:40:45Z</time>
      </trkpt>
      <trkpt lat="47.84052" lon="-3.52246">
        <ele>28.46</ele>
        <time>2020-07-08T10:40:46Z</time>
      </trkpt>
      <trkpt lat="47.8405" lon="-3.52245">
        <ele>28.73</ele>
        <time>2020-07-08T10:40:47Z</time>
      </trkpt>
      <trkpt lat="47.84047" lon="-3.52242">
        <ele>29.04</ele>
        <time>2020-07-08T10:40:48Z</time>
      </trkpt>
      <trkpt lat="47.84045" lon="-3.52241">
        <ele>29.28</ele>
        <time>2020-07-08T10:40:49Z</time>
      </trkpt>
      <trkpt lat="47.84042" lon="-3.52239">
        <ele>29.49</ele>
        <time>2020-07-08T10:40:50Z</time>
      </trkpt>
      <trkpt lat="47.8404" lon="-3.52238">
        <ele>29.64</ele>
        <time>2020-07-08T10:40:51Z</time>
      </trkpt>
      <trkpt lat="47.84038" lon="-3.52238">
        <ele>29.73</ele>
        <time>2020-07-08T10:40:52Z</time>
      </trkpt>
      <trkpt lat="47.84035" lon="-3.52238">
        <ele>29.8</ele>
        <time>2020-07-08T10:40:53Z</time>
      </trkpt>
      <trkpt lat="47.84032" lon="-3.52236">
        <ele>29.88</ele>
        <time>2020-07-08T10:40:54Z</time>
      </trkpt>
      <trkpt lat="47.84029" lon="-3.52235">
        <ele>29.96</ele>
        <time>2020-07-08T10:40:55Z</time>
      </trkpt>
      <trkpt lat="47.84025" lon="-3.52233">
        <ele>30.06</ele>
        <time>2020-07-08T10:40:56Z</time>
      </trkpt>
      <trkpt lat="47.84022" lon="-3.52232">
        <ele>30.18</ele>
        <time>2020-07-08T10:40:57Z</time>
      </trkpt>
      <trkpt lat="47.84018" lon="-3.52229">
        <ele>30.3</ele>
        <time>2020-07-08T10:40:58Z</time>
      </trkpt>
      <trkpt lat="47.84015" lon="-3.52227">
        <ele>30.41</ele>
        <time>2020-07-08T10:40:59Z</time>
      </trkpt>
      <trkpt lat="47.84012" lon="-3.52224">
        <ele>30.51</ele>
        <time>2020-07-08T10:41:00Z</time>
      </trkpt>
      <trkpt lat="47.84011" lon="-3.5222">
        <ele>30.6</ele>
        <time>2020-07-08T10:41:01Z</time>
      </trkpt>
      <trkpt lat="47.8401" lon="-3.52217">
        <ele>30.68</ele>
        <time>2020-07-08T10:41:02Z</time>
      </trkpt>
      <trkpt lat="47.84009" lon="-3.52213">
        <ele>30.75</ele>
        <time>2020-07-08T10:41:03Z</time>
      </trkpt>
      <trkpt lat="47.84008" lon="-3.52209">
        <ele>30.82</ele>
        <time>2020-07-08T10:41:04Z</time>
      </trkpt>
      <trkpt lat="47.84008" lon="-3.52205">
        <ele>30.87</ele>
        <time>2020-07-08T10:41:05Z</time>
      </trkpt>
      <trkpt lat="47.84008" lon="-3.52201">
        <ele>30.91</ele>
        <time>2020-07-08T10:41:06Z</time>
      </trkpt>
      <trkpt lat="47.84009" lon="-3.52198">
        <ele>30.95</ele>
        <time>2020-07-08T10:41:07Z</time>
      </trkpt>
      <trkpt lat="47.8401" lon="-3.52195">
        <ele>30.98</ele>
        <time>2020-07-08T10:41:08Z</time>
      </trkpt>
      <trkpt lat="47.84013" lon="-3.52193">
        <ele>31.04</ele>
        <time>2020-07-08T10:41:09Z</time>
      </trkpt>
      <trkpt lat="47.84016" lon="-3.52191">
        <ele>31.1</ele>
        <time>2020-07-08T10:41:10Z</time>
      </trkpt>
      <trkpt lat="47.84019" lon="-3.52191">
        <ele>31.12</ele>
        <time>2020-07-08T10:41:11Z</time>
      </trkpt>
      <trkpt lat="47.84021" lon="-3.52191">
        <ele>31.12</ele>
        <time>2020-07-08T10:41:12Z</time>
      </trkpt>
      <trkpt lat="47.84023" lon="-3.52192">
        <ele>31.11</ele>
        <time>2020-07-08T10:41:13Z</time>
      </trkpt>
      <trkpt lat="47.84025" lon="-3.52193">
        <ele>31.08</ele>
        <time>2020-07-08T10:41:14Z</time>
      </trkpt>
      <trkpt lat="47.84028" lon="-3.52193">
        <ele>31.07</ele>
        <time>2020-07-08T10:41:15Z</time>
      </trkpt>
      <trkpt lat="47.84031" lon="-3.52195">
        <ele>31.16</ele>
        <time>2020-07-08T10:41:16Z</time>
      </trkpt>
      <trkpt lat="47.84034" lon="-3.52196">
        <ele>31.32</ele>
        <time>2020-07-08T10:41:17Z</time>
      </trkpt>
      <trkpt lat="47.84036" lon="-3.52197">
        <ele>31.44</ele>
        <time>2020-07-08T10:41:18Z</time>
      </trkpt>
      <trkpt lat="47.84039" lon="-3.52199">
        <ele>31.55</ele>
        <time>2020-07-08T10:41:19Z</time>
      </trkpt>
      <trkpt lat="47.84042" lon="-3.52201">
        <ele>31.64</ele>
        <time>2020-07-08T10:41:20Z</time>
      </trkpt>
      <trkpt lat="47.84045" lon="-3.52202">
        <ele>31.79</ele>
        <time>2020-07-08T10:41:21Z</time>
      </trkpt>
      <trkpt lat="47.84049" lon="-3.52202">
        <ele>31.96</ele>
        <time>2020-07-08T10:41:22Z</time>
      </trkpt>
      <trkpt lat="47.84052" lon="-3.52203">
        <ele>32.1</ele>
        <time>2020-07-08T10:41:23Z</time>
      </trkpt>
      <trkpt lat="47.84055" lon="-3.52205">
        <ele>32.19</ele>
        <time>2020-07-08T10:41:24Z</time>
      </trkpt>
      <trkpt lat="47.8406" lon="-3.52206">
        <ele>32.15</ele>
        <time>2020-07-08T10:41:25Z</time>
      </trkpt>
      <trkpt lat="47.84065" lon="-3.52208">
        <ele>32.07</ele>
        <time>2020-07-08T10:41:26Z</time>
      </trkpt>
      <trkpt lat="47.8407" lon="-3.52209">
        <ele>31.99</ele>
        <time>2020-07-08T10:41:27Z</time>
      </trkpt>
      <trkpt lat="47.84074" lon="-3.5221">
        <ele>31.92</ele>
        <time>2020-07-08T10:41:28Z</time>
      </trkpt>
      <trkpt lat="47.84078" lon="-3.52212">
        <ele>31.81</ele>
        <time>2020-07-08T10:41:29Z</time>
      </trkpt>
      <trkpt lat="47.84083" lon="-3.52213">
        <ele>31.69</ele>
        <time>2020-07-08T10:41:30Z</time>
      </trkpt>
      <trkpt lat="47.84087" lon="-3.52214">
        <ele>31.7</ele>
        <time>2020-07-08T10:41:31Z</time>
      </trkpt>
      <trkpt lat="47.84091" lon="-3.52216">
        <ele>31.71</ele>
        <time>2020-07-08T10:41:32Z</time>
      </trkpt>
      <trkpt lat="47.84094" lon="-3.52216">
        <ele>31.76</ele>
        <time>2020-07-08T10:41:33Z</time>
      </trkpt>
      <trkpt lat="47.84097" lon="-3.52218">
        <ele>31.81</ele>
        <time>2020-07-08T10:41:34Z</time>
      </trkpt>
      <trkpt lat="47.84101" lon="-3.52218">
        <ele>31.89</ele>
        <time>2020-07-08T10:41:35Z</time>
      </trkpt>
      <trkpt lat="47.84104" lon="-3.52219">
        <ele>31.97</ele>
        <time>2020-07-08T10:41:36Z</time>
      </trkpt>
      <trkpt lat="47.84107" lon="-3.52219">
        <ele>32.05</ele>
        <time>2020-07-08T10:41:37Z</time>
      </trkpt>
      <trkpt lat="47.84109" lon="-3.52218">
        <ele>32.17</ele>
        <time>2020-07-08T10:41:38Z</time>
      </trkpt>
      <trkpt lat="47.84113" lon="-3.52218">
        <ele>32.3</ele>
        <time>2020-07-08T10:41:39Z</time>
      </trkpt>
      <trkpt lat="47.84116" lon="-3.52218">
        <ele>32.43</ele>
        <time>2020-07-08T10:41:40Z</time>
      </trkpt>
      <trkpt lat="47.84119" lon="-3.52217">
        <ele>32.58</ele>
        <time>2020-07-08T10:41:41Z</time>
      </trkpt>
      <trkpt lat="47.84123" lon="-3.52216">
        <ele>32.77</ele>
        <time>2020-07-08T10:41:42Z</time>
      </trkpt>
      <trkpt lat="47.84127" lon="-3.52216">
        <ele>32.97</ele>
        <time>2020-07-08T10:41:43Z</time>
      </trkpt>
      <trkpt lat="47.84133" lon="-3.52215">
        <ele>33.2</ele>
        <time>2020-07-08T10:41:44Z</time>
      </trkpt>
      <trkpt lat="47.84137" lon="-3.52213">
        <ele>33.48</ele>
        <time>2020-07-08T10:41:45Z</time>
      </trkpt>
      <trkpt lat="47.84143" lon="-3.52212">
        <ele>33.75</ele>
        <time>2020-07-08T10:41:46Z</time>
      </trkpt>
      <trkpt lat="47.84148" lon="-3.52211">
        <ele>34.03</ele>
        <time>2020-07-08T10:41:47Z</time>
      </trkpt>
      <trkpt lat="47.84153" lon="-3.52209">
        <ele>34.33</ele>
        <time>2020-07-08T10:41:48Z</time>
      </trkpt>
      <trkpt lat="47.84157" lon="-3.52207">
        <ele>34.64</ele>
        <time>2020-07-08T10:41:49Z</time>
      </trkpt>
      <trkpt lat="47.84161" lon="-3.52205">
        <ele>34.9</ele>
        <time>2020-07-08T10:41:50Z</time>
      </trkpt>
      <trkpt lat="47.84163" lon="-3.52203">
        <ele>35.14</ele>
        <time>2020-07-08T10:41:51Z</time>
      </trkpt>
      <trkpt lat="47.84167" lon="-3.52202">
        <ele>35.35</ele>
        <time>2020-07-08T10:41:52Z</time>
      </trkpt>
      <trkpt lat="47.84171" lon="-3.522">
        <ele>35.6</ele>
        <time>2020-07-08T10:41:53Z</time>
      </trkpt>
      <trkpt lat="47.84174" lon="-3.52199">
        <ele>35.84</ele>
        <time>2020-07-08T10:41:54Z</time>
      </trkpt>
      <trkpt lat="47.84177" lon="-3.52197">
        <ele>36.11</ele>
        <time>2020-07-08T10:41:55Z</time>
      </trkpt>
      <trkpt lat="47.84181" lon="-3.52196">
        <ele>36.29</ele>
        <time>2020-07-08T10:41:56Z</time>
      </trkpt>
      <trkpt lat="47.84184" lon="-3.52195">
        <ele>36.52</ele>
        <time>2020-07-08T10:41:57Z</time>
      </trkpt>
      <trkpt lat="47.84188" lon="-3.52193">
        <ele>36.75</ele>
        <time>2020-07-08T10:41:58Z</time>
      </trkpt>
      <trkpt lat="47.84193" lon="-3.52193">
        <ele>36.97</ele>
        <time>2020-07-08T10:41:59Z</time>
      </trkpt>
      <trkpt lat="47.84196" lon="-3.52192">
        <ele>37.22</ele>
        <time>2020-07-08T10:42:00Z</time>
      </trkpt>
      <trkpt lat="47.842" lon="-3.52189">
        <ele>37.59</ele>
        <time>2020-07-08T10:42:01Z</time>
      </trkpt>
      <trkpt lat="47.84204" lon="-3.52187">
        <ele>37.98</ele>
        <time>2020-07-08T10:42:02Z</time>
      </trkpt>
      <trkpt lat="47.84208" lon="-3.52185">
        <ele>38.34</ele>
        <time>2020-07-08T10:42:03Z</time>
      </trkpt>
      <trkpt lat="47.84212" lon="-3.52183">
        <ele>38.68</ele>
        <time>2020-07-08T10:42:04Z</time>
      </trkpt>
      <trkpt lat="47.84217" lon="-3.52182">
        <ele>39.02</ele>
        <time>2020-07-08T10:42:05Z</time>
      </trkpt>
      <trkpt lat="47.84221" lon="-3.52181">
        <ele>39.31</ele>
        <time>2020-07-08T10:42:06Z</time>
      </trkpt>
      <trkpt lat="47.84225" lon="-3.5218">
        <ele>39.46</ele>
        <time>2020-07-08T10:42:07Z</time>
      </trkpt>
      <trkpt lat="47.84229" lon="-3.52178">
        <ele>39.55</ele>
        <time>2020-07-08T10:42:08Z</time>
      </trkpt>
      <trkpt lat="47.84233" lon="-3.52177">
        <ele>39.61</ele>
        <time>2020-07-08T10:42:09Z</time>
      </trkpt>
      <trkpt lat="47.84237" lon="-3.52175">
        <ele>39.67</ele>
        <time>2020-07-08T10:42:10Z</time>
      </trkpt>
      <trkpt lat="47.84241" lon="-3.52173">
        <ele>39.73</ele>
        <time>2020-07-08T10:42:11Z</time>
      </trkpt>
      <trkpt lat="47.84246" lon="-3.52171">
        <ele>39.81</ele>
        <time>2020-07-08T10:42:12Z</time>
      </trkpt>
      <trkpt lat="47.84251" lon="-3.52168">
        <ele>39.91</ele>
        <time>2020-07-08T10:42:13Z</time>
      </trkpt>
      <trkpt lat="47.84255" lon="-3.52165">
        <ele>40.02</ele>
        <time>2020-07-08T10:42:14Z</time>
      </trkpt>
      <trkpt lat="47.84259" lon="-3.52162">
        <ele>40.13</ele>
        <time>2020-07-08T10:42:15Z</time>
      </trkpt>
      <trkpt lat="47.84263" lon="-3.52158">
        <ele>40.25</ele>
        <time>2020-07-08T10:42:16Z</time>
      </trkpt>
      <trkpt lat="47.84267" lon="-3.52154">
        <ele>40.38</ele>
        <time>2020-07-08T10:42:17Z</time>
      </trkpt>
      <trkpt lat="47.84272" lon="-3.52151">
        <ele>40.51</ele>
        <time>2020-07-08T10:42:18Z</time>
      </trkpt>
      <trkpt lat="47.84276" lon="-3.52148">
        <ele>40.63</ele>
        <time>2020-07-08T10:42:19Z</time>
      </trkpt>
      <trkpt lat="47.8428" lon="-3.52145">
        <ele>40.68</ele>
        <time>2020-07-08T10:42:20Z</time>
      </trkpt>
      <trkpt lat="47.84285" lon="-3.52143">
        <ele>40.66</ele>
        <time>2020-07-08T10:42:21Z</time>
      </trkpt>
      <trkpt lat="47.84289" lon="-3.5214">
        <ele>40.59</ele>
        <time>2020-07-08T10:42:22Z</time>
      </trkpt>
      <trkpt lat="47.84294" lon="-3.52137">
        <ele>40.49</ele>
        <time>2020-07-08T10:42:23Z</time>
      </trkpt>
      <trkpt lat="47.84299" lon="-3.52134">
        <ele>40.42</ele>
        <time>2020-07-08T10:42:24Z</time>
      </trkpt>
      <trkpt lat="47.84303" lon="-3.52131">
        <ele>40.37</ele>
        <time>2020-07-08T10:42:25Z</time>
      </trkpt>
      <trkpt lat="47.84308" lon="-3.52128">
        <ele>40.38</ele>
        <time>2020-07-08T10:42:26Z</time>
      </trkpt>
      <trkpt lat="47.84313" lon="-3.52126">
        <ele>40.45</ele>
        <time>2020-07-08T10:42:27Z</time>
      </trkpt>
      <trkpt lat="47.84317" lon="-3.52123">
        <ele>40.54</ele>
        <time>2020-07-08T10:42:28Z</time>
      </trkpt>
      <trkpt lat="47.84322" lon="-3.5212">
        <ele>40.63</ele>
        <time>2020-07-08T10:42:29Z</time>
      </trkpt>
      <trkpt lat="47.84327" lon="-3.52117">
        <ele>40.74</ele>
        <time>2020-07-08T10:42:30Z</time>
      </trkpt>
      <trkpt lat="47.84331" lon="-3.52114">
        <ele>40.85</ele>
        <time>2020-07-08T10:42:31Z</time>
      </trkpt>
      <trkpt lat="47.84336" lon="-3.52111">
        <ele>40.88</ele>
        <time>2020-07-08T10:42:32Z</time>
      </trkpt>
      <trkpt lat="47.84341" lon="-3.52108">
        <ele>40.79</ele>
        <time>2020-07-08T10:42:33Z</time>
      </trkpt>
      <trkpt lat="47.84346" lon="-3.52105">
        <ele>40.68</ele>
        <time>2020-07-08T10:42:34Z</time>
      </trkpt>
      <trkpt lat="47.84351" lon="-3.52102">
        <ele>40.6</ele>
        <time>2020-07-08T10:42:35Z</time>
      </trkpt>
      <trkpt lat="47.84356" lon="-3.52099">
        <ele>40.55</ele>
        <time>2020-07-08T10:42:36Z</time>
      </trkpt>
      <trkpt lat="47.84361" lon="-3.52096">
        <ele>40.54</ele>
        <time>2020-07-08T10:42:37Z</time>
      </trkpt>
      <trkpt lat="47.84366" lon="-3.52093">
        <ele>40.53</ele>
        <time>2020-07-08T10:42:38Z</time>
      </trkpt>
      <trkpt lat="47.84372" lon="-3.5209">
        <ele>40.48</ele>
        <time>2020-07-08T10:42:39Z</time>
      </trkpt>
      <trkpt lat="47.84378" lon="-3.52087">
        <ele>40.39</ele>
        <time>2020-07-08T10:42:40Z</time>
      </trkpt>
      <trkpt lat="47.84383" lon="-3.52084">
        <ele>40.25</ele>
        <time>2020-07-08T10:42:41Z</time>
      </trkpt>
      <trkpt lat="47.84389" lon="-3.52081">
        <ele>40.15</ele>
        <time>2020-07-08T10:42:42Z</time>
      </trkpt>
      <trkpt lat="47.84394" lon="-3.52078">
        <ele>40.19</ele>
        <time>2020-07-08T10:42:43Z</time>
      </trkpt>
      <trkpt lat="47.844" lon="-3.52075">
        <ele>40.27</ele>
        <time>2020-07-08T10:42:44Z</time>
      </trkpt>
      <trkpt lat="47.84405" lon="-3.52072">
        <ele>40.38</ele>
        <time>2020-07-08T10:42:45Z</time>
      </trkpt>
      <trkpt lat="47.8441" lon="-3.52069">
        <ele>40.48</ele>
        <time>2020-07-08T10:42:46Z</time>
      </trkpt>
      <trkpt lat="47.84415" lon="-3.52066">
        <ele>40.58</ele>
        <time>2020-07-08T10:42:47Z</time>
      </trkpt>
      <trkpt lat="47.8442" lon="-3.52063">
        <ele>40.58</ele>
        <time>2020-07-08T10:42:48Z</time>
      </trkpt>
      <trkpt lat="47.84426" lon="-3.52061">
        <ele>40.52</ele>
        <time>2020-07-08T10:42:49Z</time>
      </trkpt>
      <trkpt lat="47.84431" lon="-3.52058">
        <ele>40.45</ele>
        <time>2020-07-08T10:42:50Z</time>
      </trkpt>
      <trkpt lat="47.84436" lon="-3.52055">
        <ele>40.38</ele>
        <time>2020-07-08T10:42:51Z</time>
      </trkpt>
      <trkpt lat="47.84441" lon="-3.52052">
        <ele>40.31</ele>
        <time>2020-07-08T10:42:52Z</time>
      </trkpt>
      <trkpt lat="47.84446" lon="-3.52048">
        <ele>40.28</ele>
        <time>2020-07-08T10:42:53Z</time>
      </trkpt>
      <trkpt lat="47.84451" lon="-3.52046">
        <ele>40.33</ele>
        <time>2020-07-08T10:42:54Z</time>
      </trkpt>
      <trkpt lat="47.84456" lon="-3.52044">
        <ele>40.4</ele>
        <time>2020-07-08T10:42:55Z</time>
      </trkpt>
      <trkpt lat="47.84461" lon="-3.52041">
        <ele>40.5</ele>
        <time>2020-07-08T10:42:56Z</time>
      </trkpt>
      <trkpt lat="47.84466" lon="-3.52038">
        <ele>40.6</ele>
        <time>2020-07-08T10:42:57Z</time>
      </trkpt>
      <trkpt lat="47.84471" lon="-3.52035">
        <ele>40.7</ele>
        <time>2020-07-08T10:42:58Z</time>
      </trkpt>
      <trkpt lat="47.84475" lon="-3.52032">
        <ele>40.88</ele>
        <time>2020-07-08T10:42:59Z</time>
      </trkpt>
      <trkpt lat="47.8448" lon="-3.52029">
        <ele>41.12</ele>
        <time>2020-07-08T10:43:00Z</time>
      </trkpt>
      <trkpt lat="47.84484" lon="-3.52027">
        <ele>41.34</ele>
        <time>2020-07-08T10:43:01Z</time>
      </trkpt>
      <trkpt lat="47.84488" lon="-3.52025">
        <ele>41.51</ele>
        <time>2020-07-08T10:43:02Z</time>
      </trkpt>
      <trkpt lat="47.84492" lon="-3.52023">
        <ele>41.66</ele>
        <time>2020-07-08T10:43:03Z</time>
      </trkpt>
      <trkpt lat="47.84496" lon="-3.5202">
        <ele>41.81</ele>
        <time>2020-07-08T10:43:04Z</time>
      </trkpt>
      <trkpt lat="47.84501" lon="-3.52018">
        <ele>41.95</ele>
        <time>2020-07-08T10:43:05Z</time>
      </trkpt>
      <trkpt lat="47.84505" lon="-3.52016">
        <ele>42.11</ele>
        <time>2020-07-08T10:43:06Z</time>
      </trkpt>
      <trkpt lat="47.84509" lon="-3.52015">
        <ele>42.26</ele>
        <time>2020-07-08T10:43:07Z</time>
      </trkpt>
      <trkpt lat="47.84513" lon="-3.52012">
        <ele>42.41</ele>
        <time>2020-07-08T10:43:08Z</time>
      </trkpt>
      <trkpt lat="47.84517" lon="-3.5201">
        <ele>42.56</ele>
        <time>2020-07-08T10:43:09Z</time>
      </trkpt>
      <trkpt lat="47.84522" lon="-3.52008">
        <ele>42.71</ele>
        <time>2020-07-08T10:43:10Z</time>
      </trkpt>
      <trkpt lat="47.84526" lon="-3.52006">
        <ele>42.87</ele>
        <time>2020-07-08T10:43:11Z</time>
      </trkpt>
      <trkpt lat="47.84531" lon="-3.52003">
        <ele>43.09</ele>
        <time>2020-07-08T10:43:12Z</time>
      </trkpt>
      <trkpt lat="47.84536" lon="-3.52001">
        <ele>43.42</ele>
        <time>2020-07-08T10:43:13Z</time>
      </trkpt>
      <trkpt lat="47.8454" lon="-3.51999">
        <ele>43.74</ele>
        <time>2020-07-08T10:43:14Z</time>
      </trkpt>
      <trkpt lat="47.84545" lon="-3.51997">
        <ele>44.07</ele>
        <time>2020-07-08T10:43:15Z</time>
      </trkpt>
      <trkpt lat="47.84549" lon="-3.51995">
        <ele>44.38</ele>
        <time>2020-07-08T10:43:16Z</time>
      </trkpt>
      <trkpt lat="47.84554" lon="-3.51992">
        <ele>44.71</ele>
        <time>2020-07-08T10:43:17Z</time>
      </trkpt>
      <trkpt lat="47.84558" lon="-3.5199">
        <ele>45.03</ele>
        <time>2020-07-08T10:43:18Z</time>
      </trkpt>
      <trkpt lat="47.84562" lon="-3.51988">
        <ele>45.35</ele>
        <time>2020-07-08T10:43:19Z</time>
      </trkpt>
      <trkpt lat="47.84567" lon="-3.51986">
        <ele>45.66</ele>
        <time>2020-07-08T10:43:20Z</time>
      </trkpt>
      <trkpt lat="47.8457" lon="-3.51984">
        <ele>45.95</ele>
        <time>2020-07-08T10:43:21Z</time>
      </trkpt>
      <trkpt lat="47.84574" lon="-3.51983">
        <ele>46.21</ele>
        <time>2020-07-08T10:43:22Z</time>
      </trkpt>
      <trkpt lat="47.84577" lon="-3.51982">
        <ele>46.47</ele>
        <time>2020-07-08T10:43:23Z</time>
      </trkpt>
      <trkpt lat="47.84581" lon="-3.5198">
        <ele>46.75</ele>
        <time>2020-07-08T10:43:24Z</time>
      </trkpt>
      <trkpt lat="47.84586" lon="-3.51978">
        <ele>47.08</ele>
        <time>2020-07-08T10:43:25Z</time>
      </trkpt>
      <trkpt lat="47.8459" lon="-3.51976">
        <ele>47.48</ele>
        <time>2020-07-08T10:43:26Z</time>
      </trkpt>
      <trkpt lat="47.84593" lon="-3.51974">
        <ele>47.89</ele>
        <time>2020-07-08T10:43:27Z</time>
      </trkpt>
      <trkpt lat="47.84597" lon="-3.51973">
        <ele>48.33</ele>
        <time>2020-07-08T10:43:28Z</time>
      </trkpt>
      <trkpt lat="47.84602" lon="-3.51972">
        <ele>48.8</ele>
        <time>2020-07-08T10:43:29Z</time>
      </trkpt>
      <trkpt lat="47.84606" lon="-3.5197">
        <ele>49.23</ele>
        <time>2020-07-08T10:43:30Z</time>
      </trkpt>
      <trkpt lat="47.8461" lon="-3.51968">
        <ele>49.65</ele>
        <time>2020-07-08T10:43:31Z</time>
      </trkpt>
      <trkpt lat="47.84613" lon="-3.51967">
        <ele>50</ele>
        <time>2020-07-08T10:43:32Z</time>
      </trkpt>
      <trkpt lat="47.84617" lon="-3.51966">
        <ele>50.32</ele>
        <time>2020-07-08T10:43:33Z</time>
      </trkpt>
      <trkpt lat="47.84621" lon="-3.51965">
        <ele>50.61</ele>
        <time>2020-07-08T10:43:34Z</time>
      </trkpt>
      <trkpt lat="47.84625" lon="-3.51964">
        <ele>50.87</ele>
        <time>2020-07-08T10:43:35Z</time>
      </trkpt>
      <trkpt lat="47.84627" lon="-3.51962">
        <ele>51.09</ele>
        <time>2020-07-08T10:43:36Z</time>
      </trkpt>
      <trkpt lat="47.8463" lon="-3.51961">
        <ele>51.29</ele>
        <time>2020-07-08T10:43:37Z</time>
      </trkpt>
      <trkpt lat="47.84633" lon="-3.5196">
        <ele>51.51</ele>
        <time>2020-07-08T10:43:38Z</time>
      </trkpt>
      <trkpt lat="47.84636" lon="-3.51959">
        <ele>51.71</ele>
        <time>2020-07-08T10:43:39Z</time>
      </trkpt>
      <trkpt lat="47.84639" lon="-3.51958">
        <ele>51.91</ele>
        <time>2020-07-08T10:43:40Z</time>
      </trkpt>
      <trkpt lat="47.84642" lon="-3.51957">
        <ele>51.97</ele>
        <time>2020-07-08T10:43:41Z</time>
      </trkpt>
      <trkpt lat="47.84644" lon="-3.51956">
        <ele>51.99</ele>
        <time>2020-07-08T10:43:42Z</time>
      </trkpt>
      <trkpt lat="47.84647" lon="-3.51955">
        <ele>52</ele>
        <time>2020-07-08T10:43:43Z</time>
      </trkpt>
      <trkpt lat="47.84649" lon="-3.51953">
        <ele>52</ele>
        <time>2020-07-08T10:43:44Z</time>
      </trkpt>
      <trkpt lat="47.84652" lon="-3.51952">
        <ele>52</ele>
        <time>2020-07-08T10:43:45Z</time>
      </trkpt>
      <trkpt lat="47.84656" lon="-3.51949">
        <ele>52</ele>
        <time>2020-07-08T10:43:46Z</time>
      </trkpt>
      <trkpt lat="47.84659" lon="-3.51946">
        <ele>52</ele>
        <time>2020-07-08T10:43:47Z</time>
      </trkpt>
      <trkpt lat="47.84663" lon="-3.51943">
        <ele>52</ele>
        <time>2020-07-08T10:43:48Z</time>
      </trkpt>
      <trkpt lat="47.84668" lon="-3.51941">
        <ele>51.98</ele>
        <time>2020-07-08T10:43:49Z</time>
      </trkpt>
      <trkpt lat="47.84672" lon="-3.51937">
        <ele>51.87</ele>
        <time>2020-07-08T10:43:50Z</time>
      </trkpt>
      <trkpt lat="47.84676" lon="-3.51933">
        <ele>51.73</ele>
        <time>2020-07-08T10:43:51Z</time>
      </trkpt>
      <trkpt lat="47.8468" lon="-3.5193">
        <ele>51.58</ele>
        <time>2020-07-08T10:43:52Z</time>
      </trkpt>
      <trkpt lat="47.84685" lon="-3.51927">
        <ele>51.42</ele>
        <time>2020-07-08T10:43:53Z</time>
      </trkpt>
      <trkpt lat="47.8469" lon="-3.51923">
        <ele>51.23</ele>
        <time>2020-07-08T10:43:54Z</time>
      </trkpt>
      <trkpt lat="47.84696" lon="-3.51918">
        <ele>51</ele>
        <time>2020-07-08T10:43:55Z</time>
      </trkpt>
      <trkpt lat="47.84702" lon="-3.51913">
        <ele>50.5</ele>
        <time>2020-07-08T10:43:56Z</time>
      </trkpt>
      <trkpt lat="47.84707" lon="-3.51909">
        <ele>49.89</ele>
        <time>2020-07-08T10:43:57Z</time>
      </trkpt>
      <trkpt lat="47.84714" lon="-3.51904">
        <ele>49.25</ele>
        <time>2020-07-08T10:43:58Z</time>
      </trkpt>
      <trkpt lat="47.84721" lon="-3.51899">
        <ele>48.67</ele>
        <time>2020-07-08T10:43:59Z</time>
      </trkpt>
      <trkpt lat="47.84728" lon="-3.51893">
        <ele>48.04</ele>
        <time>2020-07-08T10:44:00Z</time>
      </trkpt>
      <trkpt lat="47.84735" lon="-3.51888">
        <ele>47.36</ele>
        <time>2020-07-08T10:44:01Z</time>
      </trkpt>
      <trkpt lat="47.84742" lon="-3.51884">
        <ele>46.56</ele>
        <time>2020-07-08T10:44:02Z</time>
      </trkpt>
      <trkpt lat="47.84749" lon="-3.51879">
        <ele>45.73</ele>
        <time>2020-07-08T10:44:03Z</time>
      </trkpt>
      <trkpt lat="47.84757" lon="-3.51874">
        <ele>44.54</ele>
        <time>2020-07-08T10:44:04Z</time>
      </trkpt>
      <trkpt lat="47.84765" lon="-3.51869">
        <ele>43.17</ele>
        <time>2020-07-08T10:44:05Z</time>
      </trkpt>
      <trkpt lat="47.84773" lon="-3.51866">
        <ele>41.77</ele>
        <time>2020-07-08T10:44:06Z</time>
      </trkpt>
      <trkpt lat="47.84781" lon="-3.51863">
        <ele>40.45</ele>
        <time>2020-07-08T10:44:07Z</time>
      </trkpt>
      <trkpt lat="47.84788" lon="-3.51861">
        <ele>39.32</ele>
        <time>2020-07-08T10:44:08Z</time>
      </trkpt>
      <trkpt lat="47.84796" lon="-3.51858">
        <ele>38.32</ele>
        <time>2020-07-08T10:44:09Z</time>
      </trkpt>
      <trkpt lat="47.84805" lon="-3.51857">
        <ele>37.35</ele>
        <time>2020-07-08T10:44:10Z</time>
      </trkpt>
      <trkpt lat="47.84814" lon="-3.51857">
        <ele>36.33</ele>
        <time>2020-07-08T10:44:11Z</time>
      </trkpt>
      <trkpt lat="47.84823" lon="-3.5186">
        <ele>35.15</ele>
        <time>2020-07-08T10:44:12Z</time>
      </trkpt>
      <trkpt lat="47.84833" lon="-3.51864">
        <ele>33.99</ele>
        <time>2020-07-08T10:44:13Z</time>
      </trkpt>
      <trkpt lat="47.8484" lon="-3.5187">
        <ele>33.6</ele>
        <time>2020-07-08T10:44:14Z</time>
      </trkpt>
      <trkpt lat="47.84846" lon="-3.51876">
        <ele>33.5</ele>
        <time>2020-07-08T10:44:15Z</time>
      </trkpt>
      <trkpt lat="47.84851" lon="-3.51882">
        <ele>33.26</ele>
        <time>2020-07-08T10:44:16Z</time>
      </trkpt>
      <trkpt lat="47.84858" lon="-3.51888">
        <ele>32.67</ele>
        <time>2020-07-08T10:44:17Z</time>
      </trkpt>
      <trkpt lat="47.84865" lon="-3.51896">
        <ele>31.96</ele>
        <time>2020-07-08T10:44:18Z</time>
      </trkpt>
      <trkpt lat="47.8487" lon="-3.51903">
        <ele>31.19</ele>
        <time>2020-07-08T10:44:19Z</time>
      </trkpt>
      <trkpt lat="47.84874" lon="-3.51909">
        <ele>30.54</ele>
        <time>2020-07-08T10:44:20Z</time>
      </trkpt>
      <trkpt lat="47.84879" lon="-3.51915">
        <ele>29.84</ele>
        <time>2020-07-08T10:44:21Z</time>
      </trkpt>
      <trkpt lat="47.84883" lon="-3.5192">
        <ele>28.98</ele>
        <time>2020-07-08T10:44:22Z</time>
      </trkpt>
      <trkpt lat="47.84886" lon="-3.51926">
        <ele>28.31</ele>
        <time>2020-07-08T10:44:23Z</time>
      </trkpt>
      <trkpt lat="47.84889" lon="-3.5193">
        <ele>27.67</ele>
        <time>2020-07-08T10:44:24Z</time>
      </trkpt>
      <trkpt lat="47.84893" lon="-3.51933">
        <ele>26.78</ele>
        <time>2020-07-08T10:44:25Z</time>
      </trkpt>
      <trkpt lat="47.84899" lon="-3.51932">
        <ele>25.46</ele>
        <time>2020-07-08T10:44:26Z</time>
      </trkpt>
      <trkpt lat="47.84905" lon="-3.51928">
        <ele>23.75</ele>
        <time>2020-07-08T10:44:27Z</time>
      </trkpt>
      <trkpt lat="47.84911" lon="-3.51922">
        <ele>22.15</ele>
        <time>2020-07-08T10:44:28Z</time>
      </trkpt>
      <trkpt lat="47.84916" lon="-3.51914">
        <ele>20.89</ele>
        <time>2020-07-08T10:44:29Z</time>
      </trkpt>
      <trkpt lat="47.84921" lon="-3.51907">
        <ele>20.89</ele>
        <time>2020-07-08T10:44:30Z</time>
      </trkpt>
      <trkpt lat="47.84927" lon="-3.51901">
        <ele>21.04</ele>
        <time>2020-07-08T10:44:31Z</time>
      </trkpt>
      <trkpt lat="47.84933" lon="-3.51897">
        <ele>20.94</ele>
        <time>2020-07-08T10:44:32Z</time>
      </trkpt>
      <trkpt lat="47.84939" lon="-3.51895">
        <ele>20.6</ele>
        <time>2020-07-08T10:44:33Z</time>
      </trkpt>
      <trkpt lat="47.84945" lon="-3.51893">
        <ele>20.25</ele>
        <time>2020-07-08T10:44:34Z</time>
      </trkpt>
      <trkpt lat="47.84952" lon="-3.51894">
        <ele>20.6</ele>
        <time>2020-07-08T10:44:35Z</time>
      </trkpt>
      <trkpt lat="47.84958" lon="-3.51895">
        <ele>21.09</ele>
        <time>2020-07-08T10:44:36Z</time>
      </trkpt>
      <trkpt lat="47.84962" lon="-3.51897">
        <ele>21.55</ele>
        <time>2020-07-08T10:44:37Z</time>
      </trkpt>
      <trkpt lat="47.84967" lon="-3.51898">
        <ele>21.98</ele>
        <time>2020-07-08T10:44:38Z</time>
      </trkpt>
      <trkpt lat="47.84971" lon="-3.51897">
        <ele>22.39</ele>
        <time>2020-07-08T10:44:39Z</time>
      </trkpt>
      <trkpt lat="47.84975" lon="-3.51896">
        <ele>22.83</ele>
        <time>2020-07-08T10:44:40Z</time>
      </trkpt>
      <trkpt lat="47.84978" lon="-3.51895">
        <ele>23.25</ele>
        <time>2020-07-08T10:44:41Z</time>
      </trkpt>
      <trkpt lat="47.84981" lon="-3.51893">
        <ele>23.66</ele>
        <time>2020-07-08T10:44:42Z</time>
      </trkpt>
      <trkpt lat="47.84984" lon="-3.51891">
        <ele>24.07</ele>
        <time>2020-07-08T10:44:43Z</time>
      </trkpt>
      <trkpt lat="47.84988" lon="-3.51889">
        <ele>24.53</ele>
        <time>2020-07-08T10:44:44Z</time>
      </trkpt>
      <trkpt lat="47.84991" lon="-3.51887">
        <ele>25.18</ele>
        <time>2020-07-08T10:44:45Z</time>
      </trkpt>
      <trkpt lat="47.84994" lon="-3.51884">
        <ele>25.91</ele>
        <time>2020-07-08T10:44:46Z</time>
      </trkpt>
      <trkpt lat="47.84998" lon="-3.51881">
        <ele>26.71</ele>
        <time>2020-07-08T10:44:47Z</time>
      </trkpt>
      <trkpt lat="47.85" lon="-3.51879">
        <ele>27.41</ele>
        <time>2020-07-08T10:44:48Z</time>
      </trkpt>
      <trkpt lat="47.85003" lon="-3.51877">
        <ele>27.83</ele>
        <time>2020-07-08T10:44:49Z</time>
      </trkpt>
      <trkpt lat="47.85005" lon="-3.51875">
        <ele>28.15</ele>
        <time>2020-07-08T10:44:50Z</time>
      </trkpt>
      <trkpt lat="47.85008" lon="-3.51872">
        <ele>28.43</ele>
        <time>2020-07-08T10:44:51Z</time>
      </trkpt>
      <trkpt lat="47.85011" lon="-3.5187">
        <ele>28.64</ele>
        <time>2020-07-08T10:44:52Z</time>
      </trkpt>
      <trkpt lat="47.85014" lon="-3.51868">
        <ele>28.76</ele>
        <time>2020-07-08T10:44:53Z</time>
      </trkpt>
      <trkpt lat="47.85016" lon="-3.51865">
        <ele>28.89</ele>
        <time>2020-07-08T10:44:54Z</time>
      </trkpt>
      <trkpt lat="47.85018" lon="-3.51861">
        <ele>28.99</ele>
        <time>2020-07-08T10:44:55Z</time>
      </trkpt>
      <trkpt lat="47.85021" lon="-3.51858">
        <ele>29.04</ele>
        <time>2020-07-08T10:44:56Z</time>
      </trkpt>
      <trkpt lat="47.85024" lon="-3.51855">
        <ele>29.12</ele>
        <time>2020-07-08T10:44:57Z</time>
      </trkpt>
      <trkpt lat="47.85027" lon="-3.51852">
        <ele>29.32</ele>
        <time>2020-07-08T10:44:58Z</time>
      </trkpt>
      <trkpt lat="47.8503" lon="-3.51848">
        <ele>29.63</ele>
        <time>2020-07-08T10:44:59Z</time>
      </trkpt>
      <trkpt lat="47.85032" lon="-3.51845">
        <ele>29.95</ele>
        <time>2020-07-08T10:45:00Z</time>
      </trkpt>
      <trkpt lat="47.85034" lon="-3.51841">
        <ele>30.27</ele>
        <time>2020-07-08T10:45:01Z</time>
      </trkpt>
      <trkpt lat="47.85036" lon="-3.51837">
        <ele>30.6</ele>
        <time>2020-07-08T10:45:02Z</time>
      </trkpt>
      <trkpt lat="47.85038" lon="-3.51834">
        <ele>30.8</ele>
        <time>2020-07-08T10:45:03Z</time>
      </trkpt>
      <trkpt lat="47.85038" lon="-3.5183">
        <ele>31.16</ele>
        <time>2020-07-08T10:45:04Z</time>
      </trkpt>
      <trkpt lat="47.85039" lon="-3.51826">
        <ele>31.52</ele>
        <time>2020-07-08T10:45:05Z</time>
      </trkpt>
      <trkpt lat="47.8504" lon="-3.51825">
        <ele>31.75</ele>
        <time>2020-07-08T10:45:06Z</time>
      </trkpt>
      <trkpt lat="47.8504" lon="-3.51824">
        <ele>31.84</ele>
        <time>2020-07-08T10:45:07Z</time>
      </trkpt>
      <trkpt lat="47.85041" lon="-3.51823">
        <ele>31.87</ele>
        <time>2020-07-08T10:45:08Z</time>
      </trkpt>
      <trkpt lat="47.85041" lon="-3.51823">
        <ele>31.89</ele>
        <time>2020-07-08T10:45:09Z</time>
      </trkpt>
      <trkpt lat="47.85041" lon="-3.51823">
        <ele>31.9</ele>
        <time>2020-07-08T10:45:10Z</time>
      </trkpt>
      <trkpt lat="47.85041" lon="-3.51823">
        <ele>31.9</ele>
        <time>2020-07-08T10:45:11Z</time>
      </trkpt>
      <trkpt lat="47.85041" lon="-3.51823">
        <ele>31.9</ele>
        <time>2020-07-08T10:45:12Z</time>
      </trkpt>
      <trkpt lat="47.85041" lon="-3.51823">
        <ele>31.9</ele>
        <time>2020-07-08T10:45:13Z</time>
      </trkpt>
      <trkpt lat="47.85041" lon="-3.51823">
        <ele>31.9</ele>
        <time>2020-07-08T10:45:14Z</time>
      </trkpt>
      <trkpt lat="47.85041" lon="-3.51823">
        <ele>31.9</ele>
        <time>2020-07-08T10:45:15Z</time>
      </trkpt>
      <trkpt lat="47.85041" lon="-3.51823">
        <ele>31.9</ele>
        <time>2020-07-08T10:45:16Z</time>
      </trkpt>
      <trkpt lat="47.85041" lon="-3.51823">
        <ele>31.9</ele>
        <time>2020-07-08T10:45:17Z</time>
      </trkpt>
      <trkpt lat="47.85041" lon="-3.51823">
        <ele>31.9</ele>
        <time>2020-07-08T10:45:18Z</time>
      </trkpt>
      <trkpt lat="47.85041" lon="-3.51823">
        <ele>31.9</ele>
        <time>2020-07-08T10:45:19Z</time>
      </trkpt>
      <trkpt lat="47.85041" lon="-3.51823">
        <ele>31.9</ele>
        <time>2020-07-08T10:45:20Z</time>
      </trkpt>
      <trkpt lat="47.85041" lon="-3.51823">
        <ele>31.9</ele>
        <time>2020-07-08T10:45:21Z</time>
      </trkpt>
      <trkpt lat="47.85041" lon="-3.51823">
        <ele>31.9</ele>
        <time>2020-07-08T10:45:22Z</time>
      </trkpt>
      <trkpt lat="47.85041" lon="-3.51823">
        <ele>31.9</ele>
        <time>2020-07-08T10:45:23Z</time>
      </trkpt>
      <trkpt lat="47.85041" lon="-3.51823">
        <ele>31.9</ele>
        <time>2020-07-08T10:45:24Z</time>
      </trkpt>
      <trkpt lat="47.85041" lon="-3.51823">
        <ele>31.9</ele>
        <time>2020-07-08T10:45:25Z</time>
      </trkpt>
      <trkpt lat="47.85041" lon="-3.51823">
        <ele>31.9</ele>
        <time>2020-07-08T10:45:26Z</time>
      </trkpt>
      <trkpt lat="47.85041" lon="-3.51823">
        <ele>31.9</ele>
        <time>2020-07-08T10:45:27Z</time>
      </trkpt>
      <trkpt lat="47.85041" lon="-3.51823">
        <ele>31.9</ele>
        <time>2020-07-08T10:45:28Z</time>
      </trkpt>
      <trkpt lat="47.85041" lon="-3.51823">
        <ele>31.9</ele>
        <time>2020-07-08T10:45:29Z</time>
      </trkpt>
      <trkpt lat="47.85041" lon="-3.51823">
        <ele>31.9</ele>
        <time>2020-07-08T10:45:30Z</time>
      </trkpt>
      <trkpt lat="47.85041" lon="-3.51823">
        <ele>31.9</ele>
        <time>2020-07-08T10:45:31Z</time>
      </trkpt>
      <trkpt lat="47.85041" lon="-3.51823">
        <ele>31.9</ele>
        <time>2020-07-08T10:45:32Z</time>
      </trkpt>
      <trkpt lat="47.85041" lon="-3.51823">
        <ele>31.9</ele>
        <time>2020-07-08T10:45:33Z</time>
      </trkpt>
      <trkpt lat="47.85043" lon="-3.51817">
        <ele>32.26</ele>
        <time>2020-07-08T10:45:34Z</time>
      </trkpt>
      <trkpt lat="47.85045" lon="-3.51816">
        <ele>32.28</ele>
        <time>2020-07-08T10:45:35Z</time>
      </trkpt>
      <trkpt lat="47.85046" lon="-3.51816">
        <ele>32.12</ele>
        <time>2020-07-08T10:45:36Z</time>
      </trkpt>
      <trkpt lat="47.85047" lon="-3.51817">
        <ele>31.89</ele>
        <time>2020-07-08T10:45:37Z</time>
      </trkpt>
      <trkpt lat="47.85049" lon="-3.51819">
        <ele>31.47</ele>
        <time>2020-07-08T10:45:38Z</time>
      </trkpt>
      <trkpt lat="47.85051" lon="-3.51821">
        <ele>31.1</ele>
        <time>2020-07-08T10:45:39Z</time>
      </trkpt>
      <trkpt lat="47.85052" lon="-3.51823">
        <ele>30.67</ele>
        <time>2020-07-08T10:45:40Z</time>
      </trkpt>
      <trkpt lat="47.85054" lon="-3.51826">
        <ele>30.2</ele>
        <time>2020-07-08T10:45:41Z</time>
      </trkpt>
      <trkpt lat="47.85056" lon="-3.5183">
        <ele>29.63</ele>
        <time>2020-07-08T10:45:42Z</time>
      </trkpt>
      <trkpt lat="47.85057" lon="-3.51834">
        <ele>29.27</ele>
        <time>2020-07-08T10:45:43Z</time>
      </trkpt>
      <trkpt lat="47.85059" lon="-3.51837">
        <ele>29.24</ele>
        <time>2020-07-08T10:45:44Z</time>
      </trkpt>
      <trkpt lat="47.8506" lon="-3.5184">
        <ele>29.3</ele>
        <time>2020-07-08T10:45:45Z</time>
      </trkpt>
      <trkpt lat="47.85061" lon="-3.51843">
        <ele>29.36</ele>
        <time>2020-07-08T10:45:46Z</time>
      </trkpt>
      <trkpt lat="47.85063" lon="-3.51847">
        <ele>29.48</ele>
        <time>2020-07-08T10:45:47Z</time>
      </trkpt>
      <trkpt lat="47.85064" lon="-3.51849">
        <ele>29.57</ele>
        <time>2020-07-08T10:45:48Z</time>
      </trkpt>
      <trkpt lat="47.85065" lon="-3.51852">
        <ele>29.65</ele>
        <time>2020-07-08T10:45:49Z</time>
      </trkpt>
      <trkpt lat="47.85068" lon="-3.51856">
        <ele>29.82</ele>
        <time>2020-07-08T10:45:50Z</time>
      </trkpt>
      <trkpt lat="47.85069" lon="-3.51859">
        <ele>29.94</ele>
        <time>2020-07-08T10:45:51Z</time>
      </trkpt>
      <trkpt lat="47.85071" lon="-3.51861">
        <ele>30.07</ele>
        <time>2020-07-08T10:45:52Z</time>
      </trkpt>
      <trkpt lat="47.85073" lon="-3.51863">
        <ele>30.41</ele>
        <time>2020-07-08T10:45:53Z</time>
      </trkpt>
      <trkpt lat="47.85075" lon="-3.51865">
        <ele>30.77</ele>
        <time>2020-07-08T10:45:54Z</time>
      </trkpt>
      <trkpt lat="47.85077" lon="-3.51867">
        <ele>31.15</ele>
        <time>2020-07-08T10:45:55Z</time>
      </trkpt>
      <trkpt lat="47.85078" lon="-3.51869">
        <ele>31.55</ele>
        <time>2020-07-08T10:45:56Z</time>
      </trkpt>
      <trkpt lat="47.85079" lon="-3.51871">
        <ele>31.88</ele>
        <time>2020-07-08T10:45:57Z</time>
      </trkpt>
      <trkpt lat="47.85079" lon="-3.51873">
        <ele>32.17</ele>
        <time>2020-07-08T10:45:58Z</time>
      </trkpt>
      <trkpt lat="47.8508" lon="-3.51875">
        <ele>32.56</ele>
        <time>2020-07-08T10:45:59Z</time>
      </trkpt>
      <trkpt lat="47.8508" lon="-3.51877">
        <ele>32.87</ele>
        <time>2020-07-08T10:46:00Z</time>
      </trkpt>
      <trkpt lat="47.8508" lon="-3.51879">
        <ele>33.17</ele>
        <time>2020-07-08T10:46:01Z</time>
      </trkpt>
      <trkpt lat="47.85081" lon="-3.51881">
        <ele>33.49</ele>
        <time>2020-07-08T10:46:02Z</time>
      </trkpt>
      <trkpt lat="47.85081" lon="-3.51883">
        <ele>33.8</ele>
        <time>2020-07-08T10:46:03Z</time>
      </trkpt>
      <trkpt lat="47.85081" lon="-3.51886">
        <ele>34.18</ele>
        <time>2020-07-08T10:46:04Z</time>
      </trkpt>
      <trkpt lat="47.85081" lon="-3.51888">
        <ele>34.54</ele>
        <time>2020-07-08T10:46:05Z</time>
      </trkpt>
      <trkpt lat="47.85081" lon="-3.51892">
        <ele>34.91</ele>
        <time>2020-07-08T10:46:06Z</time>
      </trkpt>
      <trkpt lat="47.85081" lon="-3.51895">
        <ele>35.22</ele>
        <time>2020-07-08T10:46:07Z</time>
      </trkpt>
      <trkpt lat="47.85081" lon="-3.51897">
        <ele>35.5</ele>
        <time>2020-07-08T10:46:08Z</time>
      </trkpt>
      <trkpt lat="47.85081" lon="-3.51899">
        <ele>35.75</ele>
        <time>2020-07-08T10:46:09Z</time>
      </trkpt>
      <trkpt lat="47.85081" lon="-3.519">
        <ele>35.89</ele>
        <time>2020-07-08T10:46:10Z</time>
      </trkpt>
      <trkpt lat="47.85081" lon="-3.51902">
        <ele>36.06</ele>
        <time>2020-07-08T10:46:11Z</time>
      </trkpt>
      <trkpt lat="47.8508" lon="-3.51904">
        <ele>36.21</ele>
        <time>2020-07-08T10:46:12Z</time>
      </trkpt>
      <trkpt lat="47.85079" lon="-3.51904">
        <ele>36.21</ele>
        <time>2020-07-08T10:46:13Z</time>
      </trkpt>
      <trkpt lat="47.85078" lon="-3.51906">
        <ele>36.23</ele>
        <time>2020-07-08T10:46:14Z</time>
      </trkpt>
      <trkpt lat="47.85076" lon="-3.51907">
        <ele>36.21</ele>
        <time>2020-07-08T10:46:15Z</time>
      </trkpt>
      <trkpt lat="47.85074" lon="-3.51908">
        <ele>36.13</ele>
        <time>2020-07-08T10:46:16Z</time>
      </trkpt>
      <trkpt lat="47.85071" lon="-3.5191">
        <ele>35.99</ele>
        <time>2020-07-08T10:46:17Z</time>
      </trkpt>
      <trkpt lat="47.85069" lon="-3.51911">
        <ele>35.86</ele>
        <time>2020-07-08T10:46:18Z</time>
      </trkpt>
      <trkpt lat="47.85065" lon="-3.51914">
        <ele>35.75</ele>
        <time>2020-07-08T10:46:19Z</time>
      </trkpt>
      <trkpt lat="47.85062" lon="-3.51916">
        <ele>35.62</ele>
        <time>2020-07-08T10:46:20Z</time>
      </trkpt>
      <trkpt lat="47.85059" lon="-3.51918">
        <ele>35.48</ele>
        <time>2020-07-08T10:46:21Z</time>
      </trkpt>
      <trkpt lat="47.85055" lon="-3.51921">
        <ele>35.26</ele>
        <time>2020-07-08T10:46:22Z</time>
      </trkpt>
      <trkpt lat="47.85051" lon="-3.51925">
        <ele>34.85</ele>
        <time>2020-07-08T10:46:23Z</time>
      </trkpt>
      <trkpt lat="47.85047" lon="-3.51929">
        <ele>34.37</ele>
        <time>2020-07-08T10:46:24Z</time>
      </trkpt>
      <trkpt lat="47.85043" lon="-3.51933">
        <ele>33.85</ele>
        <time>2020-07-08T10:46:25Z</time>
      </trkpt>
      <trkpt lat="47.85038" lon="-3.51937">
        <ele>33.38</ele>
        <time>2020-07-08T10:46:26Z</time>
      </trkpt>
      <trkpt lat="47.85033" lon="-3.51941">
        <ele>32.91</ele>
        <time>2020-07-08T10:46:27Z</time>
      </trkpt>
      <trkpt lat="47.85029" lon="-3.51947">
        <ele>32.49</ele>
        <time>2020-07-08T10:46:28Z</time>
      </trkpt>
      <trkpt lat="47.85024" lon="-3.51953">
        <ele>32.14</ele>
        <time>2020-07-08T10:46:29Z</time>
      </trkpt>
      <trkpt lat="47.85021" lon="-3.51958">
        <ele>31.96</ele>
        <time>2020-07-08T10:46:30Z</time>
      </trkpt>
      <trkpt lat="47.85018" lon="-3.51966">
        <ele>31.9</ele>
        <time>2020-07-08T10:46:31Z</time>
      </trkpt>
      <trkpt lat="47.85017" lon="-3.51973">
        <ele>32.01</ele>
        <time>2020-07-08T10:46:32Z</time>
      </trkpt>
      <trkpt lat="47.85017" lon="-3.5198">
        <ele>32.1</ele>
        <time>2020-07-08T10:46:33Z</time>
      </trkpt>
      <trkpt lat="47.85016" lon="-3.51987">
        <ele>32.19</ele>
        <time>2020-07-08T10:46:34Z</time>
      </trkpt>
      <trkpt lat="47.85017" lon="-3.51995">
        <ele>32.48</ele>
        <time>2020-07-08T10:46:35Z</time>
      </trkpt>
      <trkpt lat="47.85018" lon="-3.52004">
        <ele>32.69</ele>
        <time>2020-07-08T10:46:36Z</time>
      </trkpt>
      <trkpt lat="47.8502" lon="-3.52014">
        <ele>32.91</ele>
        <time>2020-07-08T10:46:37Z</time>
      </trkpt>
      <trkpt lat="47.85023" lon="-3.52022">
        <ele>33.24</ele>
        <time>2020-07-08T10:46:38Z</time>
      </trkpt>
      <trkpt lat="47.85026" lon="-3.52029">
        <ele>33.54</ele>
        <time>2020-07-08T10:46:39Z</time>
      </trkpt>
      <trkpt lat="47.8503" lon="-3.52037">
        <ele>33.55</ele>
        <time>2020-07-08T10:46:40Z</time>
      </trkpt>
      <trkpt lat="47.85035" lon="-3.52044">
        <ele>33.59</ele>
        <time>2020-07-08T10:46:41Z</time>
      </trkpt>
      <trkpt lat="47.8504" lon="-3.52051">
        <ele>33.48</ele>
        <time>2020-07-08T10:46:42Z</time>
      </trkpt>
      <trkpt lat="47.85046" lon="-3.52057">
        <ele>33.22</ele>
        <time>2020-07-08T10:46:43Z</time>
      </trkpt>
      <trkpt lat="47.8505" lon="-3.52062">
        <ele>32.86</ele>
        <time>2020-07-08T10:46:44Z</time>
      </trkpt>
      <trkpt lat="47.85055" lon="-3.52067">
        <ele>32.51</ele>
        <time>2020-07-08T10:46:45Z</time>
      </trkpt>
      <trkpt lat="47.85058" lon="-3.52071">
        <ele>32.18</ele>
        <time>2020-07-08T10:46:46Z</time>
      </trkpt>
      <trkpt lat="47.85062" lon="-3.52075">
        <ele>32</ele>
        <time>2020-07-08T10:46:47Z</time>
      </trkpt>
      <trkpt lat="47.85065" lon="-3.52077">
        <ele>32.11</ele>
        <time>2020-07-08T10:46:48Z</time>
      </trkpt>
      <trkpt lat="47.85069" lon="-3.52079">
        <ele>32.42</ele>
        <time>2020-07-08T10:46:49Z</time>
      </trkpt>
      <trkpt lat="47.85072" lon="-3.52082">
        <ele>32.51</ele>
        <time>2020-07-08T10:46:50Z</time>
      </trkpt>
      <trkpt lat="47.85074" lon="-3.52084">
        <ele>32.57</ele>
        <time>2020-07-08T10:46:51Z</time>
      </trkpt>
      <trkpt lat="47.85076" lon="-3.52086">
        <ele>32.4</ele>
        <time>2020-07-08T10:46:52Z</time>
      </trkpt>
      <trkpt lat="47.85077" lon="-3.52088">
        <ele>32.07</ele>
        <time>2020-07-08T10:46:53Z</time>
      </trkpt>
      <trkpt lat="47.85078" lon="-3.52089">
        <ele>31.82</ele>
        <time>2020-07-08T10:46:54Z</time>
      </trkpt>
      <trkpt lat="47.85077" lon="-3.5209">
        <ele>31.53</ele>
        <time>2020-07-08T10:46:55Z</time>
      </trkpt>
      <trkpt lat="47.85076" lon="-3.52091">
        <ele>31.26</ele>
        <time>2020-07-08T10:46:56Z</time>
      </trkpt>
      <trkpt lat="47.85075" lon="-3.52091">
        <ele>31.08</ele>
        <time>2020-07-08T10:46:57Z</time>
      </trkpt>
      <trkpt lat="47.85074" lon="-3.5209">
        <ele>31.08</ele>
        <time>2020-07-08T10:46:58Z</time>
      </trkpt>
      <trkpt lat="47.85073" lon="-3.52089">
        <ele>31.13</ele>
        <time>2020-07-08T10:46:59Z</time>
      </trkpt>
      <trkpt lat="47.8507" lon="-3.52088">
        <ele>31.08</ele>
        <time>2020-07-08T10:47:00Z</time>
      </trkpt>
      <trkpt lat="47.85069" lon="-3.52088">
        <ele>30.97</ele>
        <time>2020-07-08T10:47:01Z</time>
      </trkpt>
      <trkpt lat="47.85067" lon="-3.52087">
        <ele>30.9</ele>
        <time>2020-07-08T10:47:02Z</time>
      </trkpt>
      <trkpt lat="47.85065" lon="-3.52085">
        <ele>30.91</ele>
        <time>2020-07-08T10:47:03Z</time>
      </trkpt>
      <trkpt lat="47.85062" lon="-3.52083">
        <ele>30.92</ele>
        <time>2020-07-08T10:47:04Z</time>
      </trkpt>
      <trkpt lat="47.85059" lon="-3.52081">
        <ele>30.88</ele>
        <time>2020-07-08T10:47:05Z</time>
      </trkpt>
      <trkpt lat="47.85057" lon="-3.52078">
        <ele>30.99</ele>
        <time>2020-07-08T10:47:06Z</time>
      </trkpt>
      <trkpt lat="47.85056" lon="-3.52076">
        <ele>31.05</ele>
        <time>2020-07-08T10:47:07Z</time>
      </trkpt>
      <trkpt lat="47.85054" lon="-3.52075">
        <ele>31.09</ele>
        <time>2020-07-08T10:47:08Z</time>
      </trkpt>
      <trkpt lat="47.85052" lon="-3.52074">
        <ele>31.15</ele>
        <time>2020-07-08T10:47:09Z</time>
      </trkpt>
      <trkpt lat="47.8505" lon="-3.52072">
        <ele>31.25</ele>
        <time>2020-07-08T10:47:10Z</time>
      </trkpt>
      <trkpt lat="47.85047" lon="-3.52071">
        <ele>31.36</ele>
        <time>2020-07-08T10:47:11Z</time>
      </trkpt>
      <trkpt lat="47.85045" lon="-3.52069">
        <ele>31.47</ele>
        <time>2020-07-08T10:47:12Z</time>
      </trkpt>
      <trkpt lat="47.85043" lon="-3.52066">
        <ele>31.64</ele>
        <time>2020-07-08T10:47:13Z</time>
      </trkpt>
      <trkpt lat="47.85041" lon="-3.52063">
        <ele>31.86</ele>
        <time>2020-07-08T10:47:14Z</time>
      </trkpt>
      <trkpt lat="47.85038" lon="-3.52061">
        <ele>32.03</ele>
        <time>2020-07-08T10:47:15Z</time>
      </trkpt>
      <trkpt lat="47.85036" lon="-3.52059">
        <ele>32.14</ele>
        <time>2020-07-08T10:47:16Z</time>
      </trkpt>
      <trkpt lat="47.85034" lon="-3.52057">
        <ele>32.23</ele>
        <time>2020-07-08T10:47:17Z</time>
      </trkpt>
      <trkpt lat="47.85032" lon="-3.52055">
        <ele>32.36</ele>
        <time>2020-07-08T10:47:18Z</time>
      </trkpt>
      <trkpt lat="47.8503" lon="-3.52051">
        <ele>32.47</ele>
        <time>2020-07-08T10:47:19Z</time>
      </trkpt>
      <trkpt lat="47.85028" lon="-3.52048">
        <ele>32.57</ele>
        <time>2020-07-08T10:47:20Z</time>
      </trkpt>
      <trkpt lat="47.85027" lon="-3.52044">
        <ele>32.7</ele>
        <time>2020-07-08T10:47:21Z</time>
      </trkpt>
      <trkpt lat="47.85025" lon="-3.5204">
        <ele>32.79</ele>
        <time>2020-07-08T10:47:22Z</time>
      </trkpt>
      <trkpt lat="47.85022" lon="-3.52035">
        <ele>32.82</ele>
        <time>2020-07-08T10:47:23Z</time>
      </trkpt>
      <trkpt lat="47.8502" lon="-3.5203">
        <ele>32.8</ele>
        <time>2020-07-08T10:47:24Z</time>
      </trkpt>
      <trkpt lat="47.85018" lon="-3.52025">
        <ele>32.69</ele>
        <time>2020-07-08T10:47:25Z</time>
      </trkpt>
      <trkpt lat="47.85017" lon="-3.5202">
        <ele>32.53</ele>
        <time>2020-07-08T10:47:26Z</time>
      </trkpt>
      <trkpt lat="47.85015" lon="-3.52017">
        <ele>32.29</ele>
        <time>2020-07-08T10:47:27Z</time>
      </trkpt>
      <trkpt lat="47.85014" lon="-3.52012">
        <ele>32.06</ele>
        <time>2020-07-08T10:47:28Z</time>
      </trkpt>
      <trkpt lat="47.85013" lon="-3.52008">
        <ele>31.85</ele>
        <time>2020-07-08T10:47:29Z</time>
      </trkpt>
      <trkpt lat="47.85012" lon="-3.52004">
        <ele>31.68</ele>
        <time>2020-07-08T10:47:30Z</time>
      </trkpt>
      <trkpt lat="47.85012" lon="-3.52">
        <ele>31.62</ele>
        <time>2020-07-08T10:47:31Z</time>
      </trkpt>
      <trkpt lat="47.85013" lon="-3.51996">
        <ele>31.66</ele>
        <time>2020-07-08T10:47:32Z</time>
      </trkpt>
      <trkpt lat="47.85013" lon="-3.51992">
        <ele>31.65</ele>
        <time>2020-07-08T10:47:33Z</time>
      </trkpt>
      <trkpt lat="47.85013" lon="-3.51989">
        <ele>31.65</ele>
        <time>2020-07-08T10:47:34Z</time>
      </trkpt>
      <trkpt lat="47.85013" lon="-3.51985">
        <ele>31.65</ele>
        <time>2020-07-08T10:47:35Z</time>
      </trkpt>
      <trkpt lat="47.85014" lon="-3.51981">
        <ele>31.74</ele>
        <time>2020-07-08T10:47:36Z</time>
      </trkpt>
      <trkpt lat="47.85016" lon="-3.51977">
        <ele>31.9</ele>
        <time>2020-07-08T10:47:37Z</time>
      </trkpt>
      <trkpt lat="47.85018" lon="-3.51973">
        <ele>32.15</ele>
        <time>2020-07-08T10:47:38Z</time>
      </trkpt>
      <trkpt lat="47.8502" lon="-3.51969">
        <ele>32.36</ele>
        <time>2020-07-08T10:47:39Z</time>
      </trkpt>
      <trkpt lat="47.85023" lon="-3.51967">
        <ele>32.63</ele>
        <time>2020-07-08T10:47:40Z</time>
      </trkpt>
      <trkpt lat="47.85024" lon="-3.51965">
        <ele>32.83</ele>
        <time>2020-07-08T10:47:41Z</time>
      </trkpt>
      <trkpt lat="47.85027" lon="-3.51963">
        <ele>33.05</ele>
        <time>2020-07-08T10:47:42Z</time>
      </trkpt>
      <trkpt lat="47.85029" lon="-3.5196">
        <ele>33.24</ele>
        <time>2020-07-08T10:47:43Z</time>
      </trkpt>
      <trkpt lat="47.85031" lon="-3.51959">
        <ele>33.48</ele>
        <time>2020-07-08T10:47:44Z</time>
      </trkpt>
      <trkpt lat="47.85033" lon="-3.51956">
        <ele>33.73</ele>
        <time>2020-07-08T10:47:45Z</time>
      </trkpt>
      <trkpt lat="47.85036" lon="-3.51953">
        <ele>34</ele>
        <time>2020-07-08T10:47:46Z</time>
      </trkpt>
      <trkpt lat="47.85039" lon="-3.5195">
        <ele>34.31</ele>
        <time>2020-07-08T10:47:47Z</time>
      </trkpt>
      <trkpt lat="47.85041" lon="-3.51949">
        <ele>34.63</ele>
        <time>2020-07-08T10:47:48Z</time>
      </trkpt>
      <trkpt lat="47.85043" lon="-3.51946">
        <ele>34.81</ele>
        <time>2020-07-08T10:47:49Z</time>
      </trkpt>
      <trkpt lat="47.85044" lon="-3.51943">
        <ele>34.89</ele>
        <time>2020-07-08T10:47:50Z</time>
      </trkpt>
      <trkpt lat="47.85046" lon="-3.51942">
        <ele>35.07</ele>
        <time>2020-07-08T10:47:51Z</time>
      </trkpt>
      <trkpt lat="47.85048" lon="-3.5194">
        <ele>35.28</ele>
        <time>2020-07-08T10:47:52Z</time>
      </trkpt>
      <trkpt lat="47.8505" lon="-3.51938">
        <ele>35.47</ele>
        <time>2020-07-08T10:47:53Z</time>
      </trkpt>
      <trkpt lat="47.85052" lon="-3.51936">
        <ele>35.65</ele>
        <time>2020-07-08T10:47:54Z</time>
      </trkpt>
      <trkpt lat="47.85054" lon="-3.51933">
        <ele>35.82</ele>
        <time>2020-07-08T10:47:55Z</time>
      </trkpt>
      <trkpt lat="47.85056" lon="-3.51931">
        <ele>35.99</ele>
        <time>2020-07-08T10:47:56Z</time>
      </trkpt>
      <trkpt lat="47.85058" lon="-3.51929">
        <ele>36.11</ele>
        <time>2020-07-08T10:47:57Z</time>
      </trkpt>
      <trkpt lat="47.8506" lon="-3.51927">
        <ele>36.18</ele>
        <time>2020-07-08T10:47:58Z</time>
      </trkpt>
      <trkpt lat="47.85061" lon="-3.51925">
        <ele>36.19</ele>
        <time>2020-07-08T10:47:59Z</time>
      </trkpt>
      <trkpt lat="47.85063" lon="-3.51923">
        <ele>36.26</ele>
        <time>2020-07-08T10:48:00Z</time>
      </trkpt>
      <trkpt lat="47.85066" lon="-3.51922">
        <ele>36.42</ele>
        <time>2020-07-08T10:48:01Z</time>
      </trkpt>
      <trkpt lat="47.85068" lon="-3.5192">
        <ele>36.54</ele>
        <time>2020-07-08T10:48:02Z</time>
      </trkpt>
      <trkpt lat="47.85072" lon="-3.51916">
        <ele>36.65</ele>
        <time>2020-07-08T10:48:03Z</time>
      </trkpt>
      <trkpt lat="47.85076" lon="-3.51913">
        <ele>36.78</ele>
        <time>2020-07-08T10:48:04Z</time>
      </trkpt>
      <trkpt lat="47.85079" lon="-3.51911">
        <ele>36.89</ele>
        <time>2020-07-08T10:48:05Z</time>
      </trkpt>
      <trkpt lat="47.85083" lon="-3.5191">
        <ele>37.15</ele>
        <time>2020-07-08T10:48:06Z</time>
      </trkpt>
      <trkpt lat="47.85086" lon="-3.51911">
        <ele>37.47</ele>
        <time>2020-07-08T10:48:07Z</time>
      </trkpt>
      <trkpt lat="47.85089" lon="-3.51912">
        <ele>37.82</ele>
        <time>2020-07-08T10:48:08Z</time>
      </trkpt>
      <trkpt lat="47.85092" lon="-3.51914">
        <ele>38.23</ele>
        <time>2020-07-08T10:48:09Z</time>
      </trkpt>
      <trkpt lat="47.85095" lon="-3.51916">
        <ele>38.64</ele>
        <time>2020-07-08T10:48:10Z</time>
      </trkpt>
      <trkpt lat="47.85098" lon="-3.51918">
        <ele>39</ele>
        <time>2020-07-08T10:48:11Z</time>
      </trkpt>
      <trkpt lat="47.85101" lon="-3.5192">
        <ele>39.29</ele>
        <time>2020-07-08T10:48:12Z</time>
      </trkpt>
      <trkpt lat="47.85103" lon="-3.51921">
        <ele>39.54</ele>
        <time>2020-07-08T10:48:13Z</time>
      </trkpt>
      <trkpt lat="47.85106" lon="-3.51922">
        <ele>39.75</ele>
        <time>2020-07-08T10:48:14Z</time>
      </trkpt>
      <trkpt lat="47.85108" lon="-3.51923">
        <ele>39.95</ele>
        <time>2020-07-08T10:48:15Z</time>
      </trkpt>
      <trkpt lat="47.85111" lon="-3.51923">
        <ele>40.15</ele>
        <time>2020-07-08T10:48:16Z</time>
      </trkpt>
      <trkpt lat="47.85114" lon="-3.51924">
        <ele>40.34</ele>
        <time>2020-07-08T10:48:17Z</time>
      </trkpt>
      <trkpt lat="47.85116" lon="-3.51925">
        <ele>40.51</ele>
        <time>2020-07-08T10:48:18Z</time>
      </trkpt>
      <trkpt lat="47.85118" lon="-3.51925">
        <ele>40.66</ele>
        <time>2020-07-08T10:48:19Z</time>
      </trkpt>
      <trkpt lat="47.8512" lon="-3.51926">
        <ele>40.82</ele>
        <time>2020-07-08T10:48:20Z</time>
      </trkpt>
      <trkpt lat="47.85124" lon="-3.51928">
        <ele>41.04</ele>
        <time>2020-07-08T10:48:21Z</time>
      </trkpt>
      <trkpt lat="47.85127" lon="-3.5193">
        <ele>41.26</ele>
        <time>2020-07-08T10:48:22Z</time>
      </trkpt>
      <trkpt lat="47.85131" lon="-3.51931">
        <ele>41.48</ele>
        <time>2020-07-08T10:48:23Z</time>
      </trkpt>
      <trkpt lat="47.85133" lon="-3.51932">
        <ele>41.63</ele>
        <time>2020-07-08T10:48:24Z</time>
      </trkpt>
      <trkpt lat="47.85136" lon="-3.51933">
        <ele>41.78</ele>
        <time>2020-07-08T10:48:25Z</time>
      </trkpt>
      <trkpt lat="47.85139" lon="-3.51935">
        <ele>41.96</ele>
        <time>2020-07-08T10:48:26Z</time>
      </trkpt>
      <trkpt lat="47.85142" lon="-3.51936">
        <ele>42.15</ele>
        <time>2020-07-08T10:48:27Z</time>
      </trkpt>
      <trkpt lat="47.85145" lon="-3.51936">
        <ele>42.36</ele>
        <time>2020-07-08T10:48:28Z</time>
      </trkpt>
      <trkpt lat="47.85147" lon="-3.51937">
        <ele>42.53</ele>
        <time>2020-07-08T10:48:29Z</time>
      </trkpt>
      <trkpt lat="47.8515" lon="-3.51939">
        <ele>42.7</ele>
        <time>2020-07-08T10:48:30Z</time>
      </trkpt>
      <trkpt lat="47.85151" lon="-3.51941">
        <ele>42.85</ele>
        <time>2020-07-08T10:48:31Z</time>
      </trkpt>
      <trkpt lat="47.85154" lon="-3.51943">
        <ele>42.99</ele>
        <time>2020-07-08T10:48:32Z</time>
      </trkpt>
      <trkpt lat="47.85156" lon="-3.51944">
        <ele>43.14</ele>
        <time>2020-07-08T10:48:33Z</time>
      </trkpt>
      <trkpt lat="47.85158" lon="-3.51946">
        <ele>43.29</ele>
        <time>2020-07-08T10:48:34Z</time>
      </trkpt>
      <trkpt lat="47.85159" lon="-3.51948">
        <ele>43.43</ele>
        <time>2020-07-08T10:48:35Z</time>
      </trkpt>
      <trkpt lat="47.85161" lon="-3.5195">
        <ele>43.56</ele>
        <time>2020-07-08T10:48:36Z</time>
      </trkpt>
      <trkpt lat="47.85162" lon="-3.51952">
        <ele>43.69</ele>
        <time>2020-07-08T10:48:37Z</time>
      </trkpt>
      <trkpt lat="47.85164" lon="-3.51954">
        <ele>43.8</ele>
        <time>2020-07-08T10:48:38Z</time>
      </trkpt>
      <trkpt lat="47.85167" lon="-3.51957">
        <ele>43.94</ele>
        <time>2020-07-08T10:48:39Z</time>
      </trkpt>
      <trkpt lat="47.85169" lon="-3.5196">
        <ele>44.09</ele>
        <time>2020-07-08T10:48:40Z</time>
      </trkpt>
      <trkpt lat="47.85171" lon="-3.51964">
        <ele>44.25</ele>
        <time>2020-07-08T10:48:41Z</time>
      </trkpt>
      <trkpt lat="47.85172" lon="-3.51967">
        <ele>44.37</ele>
        <time>2020-07-08T10:48:42Z</time>
      </trkpt>
      <trkpt lat="47.85174" lon="-3.5197">
        <ele>44.49</ele>
        <time>2020-07-08T10:48:43Z</time>
      </trkpt>
      <trkpt lat="47.85177" lon="-3.51973">
        <ele>44.67</ele>
        <time>2020-07-08T10:48:44Z</time>
      </trkpt>
      <trkpt lat="47.85179" lon="-3.51976">
        <ele>44.84</ele>
        <time>2020-07-08T10:48:45Z</time>
      </trkpt>
      <trkpt lat="47.85181" lon="-3.51979">
        <ele>44.98</ele>
        <time>2020-07-08T10:48:46Z</time>
      </trkpt>
      <trkpt lat="47.85185" lon="-3.51983">
        <ele>45.2</ele>
        <time>2020-07-08T10:48:47Z</time>
      </trkpt>
      <trkpt lat="47.85187" lon="-3.51987">
        <ele>45.41</ele>
        <time>2020-07-08T10:48:48Z</time>
      </trkpt>
      <trkpt lat="47.85191" lon="-3.51991">
        <ele>45.62</ele>
        <time>2020-07-08T10:48:49Z</time>
      </trkpt>
      <trkpt lat="47.85193" lon="-3.51994">
        <ele>45.82</ele>
        <time>2020-07-08T10:48:50Z</time>
      </trkpt>
      <trkpt lat="47.85196" lon="-3.51997">
        <ele>46.01</ele>
        <time>2020-07-08T10:48:51Z</time>
      </trkpt>
      <trkpt lat="47.85198" lon="-3.51999">
        <ele>46.17</ele>
        <time>2020-07-08T10:48:52Z</time>
      </trkpt>
      <trkpt lat="47.85201" lon="-3.52002">
        <ele>46.36</ele>
        <time>2020-07-08T10:48:53Z</time>
      </trkpt>
      <trkpt lat="47.85205" lon="-3.52004">
        <ele>46.6</ele>
        <time>2020-07-08T10:48:54Z</time>
      </trkpt>
      <trkpt lat="47.85208" lon="-3.52006">
        <ele>46.82</ele>
        <time>2020-07-08T10:48:55Z</time>
      </trkpt>
      <trkpt lat="47.85213" lon="-3.52009">
        <ele>47.02</ele>
        <time>2020-07-08T10:48:56Z</time>
      </trkpt>
      <trkpt lat="47.85216" lon="-3.52012">
        <ele>47.15</ele>
        <time>2020-07-08T10:48:57Z</time>
      </trkpt>
      <trkpt lat="47.85218" lon="-3.52015">
        <ele>47.22</ele>
        <time>2020-07-08T10:48:58Z</time>
      </trkpt>
      <trkpt lat="47.85221" lon="-3.52018">
        <ele>47.28</ele>
        <time>2020-07-08T10:48:59Z</time>
      </trkpt>
      <trkpt lat="47.85225" lon="-3.52021">
        <ele>47.38</ele>
        <time>2020-07-08T10:49:00Z</time>
      </trkpt>
      <trkpt lat="47.85229" lon="-3.52023">
        <ele>47.54</ele>
        <time>2020-07-08T10:49:01Z</time>
      </trkpt>
      <trkpt lat="47.85232" lon="-3.52026">
        <ele>47.7</ele>
        <time>2020-07-08T10:49:02Z</time>
      </trkpt>
      <trkpt lat="47.85236" lon="-3.52029">
        <ele>47.87</ele>
        <time>2020-07-08T10:49:03Z</time>
      </trkpt>
      <trkpt lat="47.8524" lon="-3.52032">
        <ele>48.03</ele>
        <time>2020-07-08T10:49:04Z</time>
      </trkpt>
      <trkpt lat="47.85243" lon="-3.52034">
        <ele>48.17</ele>
        <time>2020-07-08T10:49:05Z</time>
      </trkpt>
      <trkpt lat="47.85246" lon="-3.52037">
        <ele>48.3</ele>
        <time>2020-07-08T10:49:06Z</time>
      </trkpt>
      <trkpt lat="47.85248" lon="-3.52039">
        <ele>48.41</ele>
        <time>2020-07-08T10:49:07Z</time>
      </trkpt>
      <trkpt lat="47.85252" lon="-3.52042">
        <ele>48.52</ele>
        <time>2020-07-08T10:49:08Z</time>
      </trkpt>
      <trkpt lat="47.85254" lon="-3.52045">
        <ele>48.58</ele>
        <time>2020-07-08T10:49:09Z</time>
      </trkpt>
      <trkpt lat="47.85257" lon="-3.52047">
        <ele>48.7</ele>
        <time>2020-07-08T10:49:10Z</time>
      </trkpt>
      <trkpt lat="47.85261" lon="-3.52049">
        <ele>48.85</ele>
        <time>2020-07-08T10:49:11Z</time>
      </trkpt>
      <trkpt lat="47.85264" lon="-3.52052">
        <ele>49.02</ele>
        <time>2020-07-08T10:49:12Z</time>
      </trkpt>
      <trkpt lat="47.85267" lon="-3.52055">
        <ele>49.18</ele>
        <time>2020-07-08T10:49:13Z</time>
      </trkpt>
      <trkpt lat="47.8527" lon="-3.52057">
        <ele>49.38</ele>
        <time>2020-07-08T10:49:14Z</time>
      </trkpt>
      <trkpt lat="47.85274" lon="-3.52059">
        <ele>49.61</ele>
        <time>2020-07-08T10:49:15Z</time>
      </trkpt>
      <trkpt lat="47.85276" lon="-3.5206">
        <ele>49.82</ele>
        <time>2020-07-08T10:49:16Z</time>
      </trkpt>
      <trkpt lat="47.85278" lon="-3.52062">
        <ele>49.96</ele>
        <time>2020-07-08T10:49:17Z</time>
      </trkpt>
      <trkpt lat="47.8528" lon="-3.52062">
        <ele>50.04</ele>
        <time>2020-07-08T10:49:18Z</time>
      </trkpt>
      <trkpt lat="47.85284" lon="-3.52064">
        <ele>50.12</ele>
        <time>2020-07-08T10:49:19Z</time>
      </trkpt>
      <trkpt lat="47.85286" lon="-3.52065">
        <ele>50.17</ele>
        <time>2020-07-08T10:49:20Z</time>
      </trkpt>
      <trkpt lat="47.85289" lon="-3.52066">
        <ele>50.22</ele>
        <time>2020-07-08T10:49:21Z</time>
      </trkpt>
      <trkpt lat="47.85291" lon="-3.52067">
        <ele>50.27</ele>
        <time>2020-07-08T10:49:22Z</time>
      </trkpt>
      <trkpt lat="47.85294" lon="-3.52067">
        <ele>50.32</ele>
        <time>2020-07-08T10:49:23Z</time>
      </trkpt>
      <trkpt lat="47.85297" lon="-3.52067">
        <ele>50.38</ele>
        <time>2020-07-08T10:49:24Z</time>
      </trkpt>
      <trkpt lat="47.853" lon="-3.52067">
        <ele>50.43</ele>
        <time>2020-07-08T10:49:25Z</time>
      </trkpt>
      <trkpt lat="47.85304" lon="-3.52068">
        <ele>50.49</ele>
        <time>2020-07-08T10:49:26Z</time>
      </trkpt>
      <trkpt lat="47.85308" lon="-3.5207">
        <ele>50.51</ele>
        <time>2020-07-08T10:49:27Z</time>
      </trkpt>
      <trkpt lat="47.85311" lon="-3.52072">
        <ele>50.5</ele>
        <time>2020-07-08T10:49:28Z</time>
      </trkpt>
      <trkpt lat="47.85315" lon="-3.52075">
        <ele>50.52</ele>
        <time>2020-07-08T10:49:29Z</time>
      </trkpt>
      <trkpt lat="47.85317" lon="-3.52077">
        <ele>50.54</ele>
        <time>2020-07-08T10:49:30Z</time>
      </trkpt>
      <trkpt lat="47.85321" lon="-3.5208">
        <ele>50.58</ele>
        <time>2020-07-08T10:49:31Z</time>
      </trkpt>
      <trkpt lat="47.85325" lon="-3.52082">
        <ele>50.66</ele>
        <time>2020-07-08T10:49:32Z</time>
      </trkpt>
      <trkpt lat="47.85328" lon="-3.52084">
        <ele>50.78</ele>
        <time>2020-07-08T10:49:33Z</time>
      </trkpt>
      <trkpt lat="47.85332" lon="-3.52087">
        <ele>50.9</ele>
        <time>2020-07-08T10:49:34Z</time>
      </trkpt>
      <trkpt lat="47.85336" lon="-3.5209">
        <ele>50.74</ele>
        <time>2020-07-08T10:49:35Z</time>
      </trkpt>
      <trkpt lat="47.85339" lon="-3.52093">
        <ele>50.43</ele>
        <time>2020-07-08T10:49:36Z</time>
      </trkpt>
      <trkpt lat="47.85343" lon="-3.52096">
        <ele>50.16</ele>
        <time>2020-07-08T10:49:37Z</time>
      </trkpt>
      <trkpt lat="47.85347" lon="-3.52099">
        <ele>49.99</ele>
        <time>2020-07-08T10:49:38Z</time>
      </trkpt>
      <trkpt lat="47.85351" lon="-3.52102">
        <ele>49.94</ele>
        <time>2020-07-08T10:49:39Z</time>
      </trkpt>
      <trkpt lat="47.85355" lon="-3.52106">
        <ele>50.19</ele>
        <time>2020-07-08T10:49:40Z</time>
      </trkpt>
      <trkpt lat="47.85359" lon="-3.5211">
        <ele>50.61</ele>
        <time>2020-07-08T10:49:41Z</time>
      </trkpt>
      <trkpt lat="47.85363" lon="-3.52114">
        <ele>50.65</ele>
        <time>2020-07-08T10:49:42Z</time>
      </trkpt>
      <trkpt lat="47.85366" lon="-3.52117">
        <ele>50.23</ele>
        <time>2020-07-08T10:49:43Z</time>
      </trkpt>
      <trkpt lat="47.85369" lon="-3.52121">
        <ele>49.78</ele>
        <time>2020-07-08T10:49:44Z</time>
      </trkpt>
      <trkpt lat="47.85372" lon="-3.52126">
        <ele>49.44</ele>
        <time>2020-07-08T10:49:45Z</time>
      </trkpt>
      <trkpt lat="47.85375" lon="-3.5213">
        <ele>49.25</ele>
        <time>2020-07-08T10:49:46Z</time>
      </trkpt>
      <trkpt lat="47.85377" lon="-3.52134">
        <ele>49.22</ele>
        <time>2020-07-08T10:49:47Z</time>
      </trkpt>
      <trkpt lat="47.8538" lon="-3.52138">
        <ele>49.26</ele>
        <time>2020-07-08T10:49:48Z</time>
      </trkpt>
      <trkpt lat="47.85382" lon="-3.52143">
        <ele>49.17</ele>
        <time>2020-07-08T10:49:49Z</time>
      </trkpt>
      <trkpt lat="47.85385" lon="-3.52148">
        <ele>49.08</ele>
        <time>2020-07-08T10:49:50Z</time>
      </trkpt>
      <trkpt lat="47.85388" lon="-3.52153">
        <ele>49.08</ele>
        <time>2020-07-08T10:49:51Z</time>
      </trkpt>
      <trkpt lat="47.85392" lon="-3.52159">
        <ele>48.96</ele>
        <time>2020-07-08T10:49:52Z</time>
      </trkpt>
      <trkpt lat="47.85395" lon="-3.52164">
        <ele>48.79</ele>
        <time>2020-07-08T10:49:53Z</time>
      </trkpt>
      <trkpt lat="47.85398" lon="-3.52169">
        <ele>48.49</ele>
        <time>2020-07-08T10:49:54Z</time>
      </trkpt>
      <trkpt lat="47.85402" lon="-3.52173">
        <ele>48.16</ele>
        <time>2020-07-08T10:49:55Z</time>
      </trkpt>
      <trkpt lat="47.85405" lon="-3.52178">
        <ele>47.91</ele>
        <time>2020-07-08T10:49:56Z</time>
      </trkpt>
      <trkpt lat="47.85408" lon="-3.52182">
        <ele>47.77</ele>
        <time>2020-07-08T10:49:57Z</time>
      </trkpt>
      <trkpt lat="47.85411" lon="-3.52187">
        <ele>47.76</ele>
        <time>2020-07-08T10:49:58Z</time>
      </trkpt>
      <trkpt lat="47.85414" lon="-3.5219">
        <ele>47.76</ele>
        <time>2020-07-08T10:49:59Z</time>
      </trkpt>
      <trkpt lat="47.85418" lon="-3.52195">
        <ele>47.71</ele>
        <time>2020-07-08T10:50:00Z</time>
      </trkpt>
      <trkpt lat="47.85423" lon="-3.52199">
        <ele>47.05</ele>
        <time>2020-07-08T10:50:01Z</time>
      </trkpt>
      <trkpt lat="47.85427" lon="-3.52204">
        <ele>46.26</ele>
        <time>2020-07-08T10:50:02Z</time>
      </trkpt>
      <trkpt lat="47.85431" lon="-3.52209">
        <ele>45.49</ele>
        <time>2020-07-08T10:50:03Z</time>
      </trkpt>
      <trkpt lat="47.85435" lon="-3.52216">
        <ele>44.72</ele>
        <time>2020-07-08T10:50:04Z</time>
      </trkpt>
      <trkpt lat="47.8544" lon="-3.52222">
        <ele>43.98</ele>
        <time>2020-07-08T10:50:05Z</time>
      </trkpt>
      <trkpt lat="47.85443" lon="-3.52228">
        <ele>43.43</ele>
        <time>2020-07-08T10:50:06Z</time>
      </trkpt>
      <trkpt lat="47.85446" lon="-3.52233">
        <ele>43.09</ele>
        <time>2020-07-08T10:50:07Z</time>
      </trkpt>
      <trkpt lat="47.85448" lon="-3.52239">
        <ele>42.94</ele>
        <time>2020-07-08T10:50:08Z</time>
      </trkpt>
      <trkpt lat="47.8545" lon="-3.52245">
        <ele>42.86</ele>
        <time>2020-07-08T10:50:09Z</time>
      </trkpt>
      <trkpt lat="47.85451" lon="-3.52251">
        <ele>42.78</ele>
        <time>2020-07-08T10:50:10Z</time>
      </trkpt>
      <trkpt lat="47.8545" lon="-3.52256">
        <ele>42.65</ele>
        <time>2020-07-08T10:50:11Z</time>
      </trkpt>
      <trkpt lat="47.85451" lon="-3.52264">
        <ele>42.47</ele>
        <time>2020-07-08T10:50:12Z</time>
      </trkpt>
      <trkpt lat="47.85452" lon="-3.52271">
        <ele>42.27</ele>
        <time>2020-07-08T10:50:13Z</time>
      </trkpt>
      <trkpt lat="47.85454" lon="-3.52278">
        <ele>42.08</ele>
        <time>2020-07-08T10:50:14Z</time>
      </trkpt>
      <trkpt lat="47.85455" lon="-3.52285">
        <ele>41.84</ele>
        <time>2020-07-08T10:50:15Z</time>
      </trkpt>
      <trkpt lat="47.85456" lon="-3.52292">
        <ele>41.59</ele>
        <time>2020-07-08T10:50:16Z</time>
      </trkpt>
      <trkpt lat="47.85457" lon="-3.52299">
        <ele>41.35</ele>
        <time>2020-07-08T10:50:17Z</time>
      </trkpt>
      <trkpt lat="47.85457" lon="-3.52308">
        <ele>40.99</ele>
        <time>2020-07-08T10:50:18Z</time>
      </trkpt>
      <trkpt lat="47.85457" lon="-3.52316">
        <ele>40.45</ele>
        <time>2020-07-08T10:50:19Z</time>
      </trkpt>
      <trkpt lat="47.85457" lon="-3.52325">
        <ele>39.85</ele>
        <time>2020-07-08T10:50:20Z</time>
      </trkpt>
      <trkpt lat="47.85457" lon="-3.52333">
        <ele>39.26</ele>
        <time>2020-07-08T10:50:21Z</time>
      </trkpt>
      <trkpt lat="47.85456" lon="-3.5234">
        <ele>38.83</ele>
        <time>2020-07-08T10:50:22Z</time>
      </trkpt>
      <trkpt lat="47.85454" lon="-3.52347">
        <ele>38.47</ele>
        <time>2020-07-08T10:50:23Z</time>
      </trkpt>
      <trkpt lat="47.85453" lon="-3.52353">
        <ele>38.2</ele>
        <time>2020-07-08T10:50:24Z</time>
      </trkpt>
      <trkpt lat="47.85451" lon="-3.52358">
        <ele>38</ele>
        <time>2020-07-08T10:50:25Z</time>
      </trkpt>
      <trkpt lat="47.85449" lon="-3.52362">
        <ele>37.83</ele>
        <time>2020-07-08T10:50:26Z</time>
      </trkpt>
      <trkpt lat="47.85447" lon="-3.52366">
        <ele>37.66</ele>
        <time>2020-07-08T10:50:27Z</time>
      </trkpt>
      <trkpt lat="47.85446" lon="-3.5237">
        <ele>37.46</ele>
        <time>2020-07-08T10:50:28Z</time>
      </trkpt>
      <trkpt lat="47.85445" lon="-3.52374">
        <ele>37.19</ele>
        <time>2020-07-08T10:50:29Z</time>
      </trkpt>
      <trkpt lat="47.85445" lon="-3.52378">
        <ele>36.93</ele>
        <time>2020-07-08T10:50:30Z</time>
      </trkpt>
      <trkpt lat="47.85445" lon="-3.52381">
        <ele>36.7</ele>
        <time>2020-07-08T10:50:31Z</time>
      </trkpt>
      <trkpt lat="47.85446" lon="-3.52383">
        <ele>36.54</ele>
        <time>2020-07-08T10:50:32Z</time>
      </trkpt>
      <trkpt lat="47.85446" lon="-3.52386">
        <ele>36.36</ele>
        <time>2020-07-08T10:50:33Z</time>
      </trkpt>
      <trkpt lat="47.85449" lon="-3.5239">
        <ele>36.19</ele>
        <time>2020-07-08T10:50:34Z</time>
      </trkpt>
      <trkpt lat="47.8545" lon="-3.52392">
        <ele>36.12</ele>
        <time>2020-07-08T10:50:35Z</time>
      </trkpt>
      <trkpt lat="47.8545" lon="-3.52394">
        <ele>36.09</ele>
        <time>2020-07-08T10:50:36Z</time>
      </trkpt>
      <trkpt lat="47.85451" lon="-3.52395">
        <ele>36.08</ele>
        <time>2020-07-08T10:50:37Z</time>
      </trkpt>
      <trkpt lat="47.85453" lon="-3.52397">
        <ele>36.09</ele>
        <time>2020-07-08T10:50:38Z</time>
      </trkpt>
      <trkpt lat="47.85454" lon="-3.52399">
        <ele>36.1</ele>
        <time>2020-07-08T10:50:39Z</time>
      </trkpt>
      <trkpt lat="47.85455" lon="-3.52402">
        <ele>36.08</ele>
        <time>2020-07-08T10:50:40Z</time>
      </trkpt>
      <trkpt lat="47.85455" lon="-3.52406">
        <ele>36.03</ele>
        <time>2020-07-08T10:50:41Z</time>
      </trkpt>
      <trkpt lat="47.85456" lon="-3.52409">
        <ele>35.99</ele>
        <time>2020-07-08T10:50:42Z</time>
      </trkpt>
      <trkpt lat="47.85457" lon="-3.52411">
        <ele>35.99</ele>
        <time>2020-07-08T10:50:43Z</time>
      </trkpt>
      <trkpt lat="47.85458" lon="-3.52414">
        <ele>36.02</ele>
        <time>2020-07-08T10:50:44Z</time>
      </trkpt>
      <trkpt lat="47.85459" lon="-3.52417">
        <ele>36.06</ele>
        <time>2020-07-08T10:50:45Z</time>
      </trkpt>
      <trkpt lat="47.85461" lon="-3.52421">
        <ele>36.16</ele>
        <time>2020-07-08T10:50:46Z</time>
      </trkpt>
      <trkpt lat="47.85463" lon="-3.52424">
        <ele>36.28</ele>
        <time>2020-07-08T10:50:47Z</time>
      </trkpt>
      <trkpt lat="47.85465" lon="-3.52427">
        <ele>36.41</ele>
        <time>2020-07-08T10:50:48Z</time>
      </trkpt>
      <trkpt lat="47.85466" lon="-3.52432">
        <ele>36.53</ele>
        <time>2020-07-08T10:50:49Z</time>
      </trkpt>
      <trkpt lat="47.85469" lon="-3.52436">
        <ele>36.7</ele>
        <time>2020-07-08T10:50:50Z</time>
      </trkpt>
      <trkpt lat="47.85471" lon="-3.5244">
        <ele>36.84</ele>
        <time>2020-07-08T10:50:51Z</time>
      </trkpt>
      <trkpt lat="47.85472" lon="-3.52443">
        <ele>36.92</ele>
        <time>2020-07-08T10:50:52Z</time>
      </trkpt>
      <trkpt lat="47.85472" lon="-3.52446">
        <ele>36.97</ele>
        <time>2020-07-08T10:50:53Z</time>
      </trkpt>
      <trkpt lat="47.85473" lon="-3.52449">
        <ele>37.03</ele>
        <time>2020-07-08T10:50:54Z</time>
      </trkpt>
      <trkpt lat="47.85474" lon="-3.52452">
        <ele>37.17</ele>
        <time>2020-07-08T10:50:55Z</time>
      </trkpt>
      <trkpt lat="47.85475" lon="-3.52455">
        <ele>37.27</ele>
        <time>2020-07-08T10:50:56Z</time>
      </trkpt>
      <trkpt lat="47.85476" lon="-3.52457">
        <ele>37.4</ele>
        <time>2020-07-08T10:50:57Z</time>
      </trkpt>
      <trkpt lat="47.85476" lon="-3.52459">
        <ele>37.48</ele>
        <time>2020-07-08T10:50:58Z</time>
      </trkpt>
      <trkpt lat="47.85477" lon="-3.52459">
        <ele>37.57</ele>
        <time>2020-07-08T10:50:59Z</time>
      </trkpt>
      <trkpt lat="47.85478" lon="-3.52458">
        <ele>37.68</ele>
        <time>2020-07-08T10:51:00Z</time>
      </trkpt>
      <trkpt lat="47.85479" lon="-3.52458">
        <ele>37.84</ele>
        <time>2020-07-08T10:51:01Z</time>
      </trkpt>
      <trkpt lat="47.85481" lon="-3.52457">
        <ele>38</ele>
        <time>2020-07-08T10:51:02Z</time>
      </trkpt>
      <trkpt lat="47.85483" lon="-3.52457">
        <ele>38.23</ele>
        <time>2020-07-08T10:51:03Z</time>
      </trkpt>
      <trkpt lat="47.85485" lon="-3.52456">
        <ele>38.47</ele>
        <time>2020-07-08T10:51:04Z</time>
      </trkpt>
      <trkpt lat="47.85488" lon="-3.52456">
        <ele>38.78</ele>
        <time>2020-07-08T10:51:05Z</time>
      </trkpt>
      <trkpt lat="47.8549" lon="-3.52456">
        <ele>39.1</ele>
        <time>2020-07-08T10:51:06Z</time>
      </trkpt>
      <trkpt lat="47.85492" lon="-3.52458">
        <ele>39.33</ele>
        <time>2020-07-08T10:51:07Z</time>
      </trkpt>
      <trkpt lat="47.85493" lon="-3.52459">
        <ele>39.56</ele>
        <time>2020-07-08T10:51:08Z</time>
      </trkpt>
      <trkpt lat="47.85495" lon="-3.52459">
        <ele>39.8</ele>
        <time>2020-07-08T10:51:09Z</time>
      </trkpt>
      <trkpt lat="47.85497" lon="-3.52461">
        <ele>40.09</ele>
        <time>2020-07-08T10:51:10Z</time>
      </trkpt>
      <trkpt lat="47.85499" lon="-3.52462">
        <ele>40.37</ele>
        <time>2020-07-08T10:51:11Z</time>
      </trkpt>
      <trkpt lat="47.85501" lon="-3.52463">
        <ele>40.64</ele>
        <time>2020-07-08T10:51:12Z</time>
      </trkpt>
      <trkpt lat="47.85504" lon="-3.52465">
        <ele>40.95</ele>
        <time>2020-07-08T10:51:13Z</time>
      </trkpt>
      <trkpt lat="47.85506" lon="-3.52466">
        <ele>41.19</ele>
        <time>2020-07-08T10:51:14Z</time>
      </trkpt>
      <trkpt lat="47.85508" lon="-3.52466">
        <ele>41.37</ele>
        <time>2020-07-08T10:51:15Z</time>
      </trkpt>
      <trkpt lat="47.8551" lon="-3.52465">
        <ele>41.52</ele>
        <time>2020-07-08T10:51:16Z</time>
      </trkpt>
      <trkpt lat="47.85512" lon="-3.52464">
        <ele>41.67</ele>
        <time>2020-07-08T10:51:17Z</time>
      </trkpt>
      <trkpt lat="47.85514" lon="-3.52462">
        <ele>41.76</ele>
        <time>2020-07-08T10:51:18Z</time>
      </trkpt>
      <trkpt lat="47.85515" lon="-3.52461">
        <ele>41.83</ele>
        <time>2020-07-08T10:51:19Z</time>
      </trkpt>
      <trkpt lat="47.85516" lon="-3.52459">
        <ele>41.92</ele>
        <time>2020-07-08T10:51:20Z</time>
      </trkpt>
      <trkpt lat="47.85517" lon="-3.52457">
        <ele>42.01</ele>
        <time>2020-07-08T10:51:21Z</time>
      </trkpt>
      <trkpt lat="47.85519" lon="-3.52455">
        <ele>42.1</ele>
        <time>2020-07-08T10:51:22Z</time>
      </trkpt>
      <trkpt lat="47.8552" lon="-3.52452">
        <ele>42.2</ele>
        <time>2020-07-08T10:51:23Z</time>
      </trkpt>
      <trkpt lat="47.85521" lon="-3.5245">
        <ele>42.29</ele>
        <time>2020-07-08T10:51:24Z</time>
      </trkpt>
      <trkpt lat="47.85522" lon="-3.52449">
        <ele>42.4</ele>
        <time>2020-07-08T10:51:25Z</time>
      </trkpt>
      <trkpt lat="47.85523" lon="-3.52448">
        <ele>42.48</ele>
        <time>2020-07-08T10:51:26Z</time>
      </trkpt>
      <trkpt lat="47.85524" lon="-3.52448">
        <ele>42.56</ele>
        <time>2020-07-08T10:51:27Z</time>
      </trkpt>
      <trkpt lat="47.85524" lon="-3.52448">
        <ele>42.58</ele>
        <time>2020-07-08T10:51:28Z</time>
      </trkpt>
      <trkpt lat="47.85528" lon="-3.52446">
        <ele>42.85</ele>
        <time>2020-07-08T10:51:29Z</time>
      </trkpt>
      <trkpt lat="47.8553" lon="-3.52445">
        <ele>42.96</ele>
        <time>2020-07-08T10:51:30Z</time>
      </trkpt>
      <trkpt lat="47.85533" lon="-3.52443">
        <ele>42.94</ele>
        <time>2020-07-08T10:51:31Z</time>
      </trkpt>
      <trkpt lat="47.85535" lon="-3.52442">
        <ele>42.91</ele>
        <time>2020-07-08T10:51:32Z</time>
      </trkpt>
      <trkpt lat="47.85536" lon="-3.5244">
        <ele>42.87</ele>
        <time>2020-07-08T10:51:33Z</time>
      </trkpt>
      <trkpt lat="47.85539" lon="-3.52439">
        <ele>42.81</ele>
        <time>2020-07-08T10:51:34Z</time>
      </trkpt>
      <trkpt lat="47.8554" lon="-3.52436">
        <ele>42.73</ele>
        <time>2020-07-08T10:51:35Z</time>
      </trkpt>
      <trkpt lat="47.85542" lon="-3.52434">
        <ele>42.65</ele>
        <time>2020-07-08T10:51:36Z</time>
      </trkpt>
      <trkpt lat="47.85543" lon="-3.52432">
        <ele>42.57</ele>
        <time>2020-07-08T10:51:37Z</time>
      </trkpt>
      <trkpt lat="47.85545" lon="-3.5243">
        <ele>42.51</ele>
        <time>2020-07-08T10:51:38Z</time>
      </trkpt>
      <trkpt lat="47.85547" lon="-3.5243">
        <ele>42.48</ele>
        <time>2020-07-08T10:51:39Z</time>
      </trkpt>
      <trkpt lat="47.85548" lon="-3.5243">
        <ele>42.48</ele>
        <time>2020-07-08T10:51:40Z</time>
      </trkpt>
      <trkpt lat="47.85549" lon="-3.52432">
        <ele>42.52</ele>
        <time>2020-07-08T10:51:41Z</time>
      </trkpt>
      <trkpt lat="47.85551" lon="-3.52434">
        <ele>42.59</ele>
        <time>2020-07-08T10:51:42Z</time>
      </trkpt>
      <trkpt lat="47.85552" lon="-3.52437">
        <ele>42.69</ele>
        <time>2020-07-08T10:51:43Z</time>
      </trkpt>
      <trkpt lat="47.85553" lon="-3.5244">
        <ele>42.79</ele>
        <time>2020-07-08T10:51:44Z</time>
      </trkpt>
      <trkpt lat="47.85554" lon="-3.52443">
        <ele>42.9</ele>
        <time>2020-07-08T10:51:45Z</time>
      </trkpt>
      <trkpt lat="47.85555" lon="-3.52446">
        <ele>42.97</ele>
        <time>2020-07-08T10:51:46Z</time>
      </trkpt>
      <trkpt lat="47.85558" lon="-3.52449">
        <ele>42.99</ele>
        <time>2020-07-08T10:51:47Z</time>
      </trkpt>
      <trkpt lat="47.85559" lon="-3.52452">
        <ele>43</ele>
        <time>2020-07-08T10:51:48Z</time>
      </trkpt>
      <trkpt lat="47.8556" lon="-3.52455">
        <ele>43</ele>
        <time>2020-07-08T10:51:49Z</time>
      </trkpt>
      <trkpt lat="47.85561" lon="-3.52457">
        <ele>43</ele>
        <time>2020-07-08T10:51:50Z</time>
      </trkpt>
      <trkpt lat="47.85563" lon="-3.5246">
        <ele>43</ele>
        <time>2020-07-08T10:51:51Z</time>
      </trkpt>
      <trkpt lat="47.85565" lon="-3.52463">
        <ele>43</ele>
        <time>2020-07-08T10:51:52Z</time>
      </trkpt>
      <trkpt lat="47.85567" lon="-3.52465">
        <ele>43</ele>
        <time>2020-07-08T10:51:53Z</time>
      </trkpt>
      <trkpt lat="47.85568" lon="-3.52468">
        <ele>43</ele>
        <time>2020-07-08T10:51:54Z</time>
      </trkpt>
      <trkpt lat="47.8557" lon="-3.52472">
        <ele>43</ele>
        <time>2020-07-08T10:51:55Z</time>
      </trkpt>
      <trkpt lat="47.85571" lon="-3.52475">
        <ele>42.97</ele>
        <time>2020-07-08T10:51:56Z</time>
      </trkpt>
      <trkpt lat="47.85573" lon="-3.52478">
        <ele>42.94</ele>
        <time>2020-07-08T10:51:57Z</time>
      </trkpt>
      <trkpt lat="47.85574" lon="-3.5248">
        <ele>42.92</ele>
        <time>2020-07-08T10:51:58Z</time>
      </trkpt>
      <trkpt lat="47.85576" lon="-3.52482">
        <ele>42.91</ele>
        <time>2020-07-08T10:51:59Z</time>
      </trkpt>
      <trkpt lat="47.85578" lon="-3.52485">
        <ele>42.9</ele>
        <time>2020-07-08T10:52:00Z</time>
      </trkpt>
      <trkpt lat="47.85579" lon="-3.52488">
        <ele>42.91</ele>
        <time>2020-07-08T10:52:01Z</time>
      </trkpt>
      <trkpt lat="47.85581" lon="-3.52491">
        <ele>42.93</ele>
        <time>2020-07-08T10:52:02Z</time>
      </trkpt>
      <trkpt lat="47.85582" lon="-3.52495">
        <ele>42.96</ele>
        <time>2020-07-08T10:52:03Z</time>
      </trkpt>
      <trkpt lat="47.85584" lon="-3.52498">
        <ele>42.99</ele>
        <time>2020-07-08T10:52:04Z</time>
      </trkpt>
      <trkpt lat="47.85586" lon="-3.525">
        <ele>42.98</ele>
        <time>2020-07-08T10:52:05Z</time>
      </trkpt>
      <trkpt lat="47.85587" lon="-3.52503">
        <ele>42.86</ele>
        <time>2020-07-08T10:52:06Z</time>
      </trkpt>
      <trkpt lat="47.85589" lon="-3.52506">
        <ele>42.74</ele>
        <time>2020-07-08T10:52:07Z</time>
      </trkpt>
      <trkpt lat="47.85591" lon="-3.52508">
        <ele>42.61</ele>
        <time>2020-07-08T10:52:08Z</time>
      </trkpt>
      <trkpt lat="47.85593" lon="-3.52511">
        <ele>42.51</ele>
        <time>2020-07-08T10:52:09Z</time>
      </trkpt>
      <trkpt lat="47.85595" lon="-3.52514">
        <ele>42.46</ele>
        <time>2020-07-08T10:52:10Z</time>
      </trkpt>
      <trkpt lat="47.85598" lon="-3.52517">
        <ele>42.44</ele>
        <time>2020-07-08T10:52:11Z</time>
      </trkpt>
      <trkpt lat="47.856" lon="-3.52519">
        <ele>42.44</ele>
        <time>2020-07-08T10:52:12Z</time>
      </trkpt>
      <trkpt lat="47.85602" lon="-3.52522">
        <ele>42.47</ele>
        <time>2020-07-08T10:52:13Z</time>
      </trkpt>
      <trkpt lat="47.85604" lon="-3.52525">
        <ele>42.5</ele>
        <time>2020-07-08T10:52:14Z</time>
      </trkpt>
      <trkpt lat="47.85605" lon="-3.52529">
        <ele>42.5</ele>
        <time>2020-07-08T10:52:15Z</time>
      </trkpt>
      <trkpt lat="47.85605" lon="-3.52532">
        <ele>42.44</ele>
        <time>2020-07-08T10:52:16Z</time>
      </trkpt>
      <trkpt lat="47.85605" lon="-3.52535">
        <ele>42.36</ele>
        <time>2020-07-08T10:52:17Z</time>
      </trkpt>
      <trkpt lat="47.85606" lon="-3.52537">
        <ele>42.31</ele>
        <time>2020-07-08T10:52:18Z</time>
      </trkpt>
      <trkpt lat="47.85606" lon="-3.52539">
        <ele>42.26</ele>
        <time>2020-07-08T10:52:19Z</time>
      </trkpt>
      <trkpt lat="47.85605" lon="-3.5254">
        <ele>42.16</ele>
        <time>2020-07-08T10:52:20Z</time>
      </trkpt>
      <trkpt lat="47.85603" lon="-3.52541">
        <ele>42.01</ele>
        <time>2020-07-08T10:52:21Z</time>
      </trkpt>
      <trkpt lat="47.856" lon="-3.52542">
        <ele>41.78</ele>
        <time>2020-07-08T10:52:22Z</time>
      </trkpt>
      <trkpt lat="47.85597" lon="-3.52545">
        <ele>41.48</ele>
        <time>2020-07-08T10:52:23Z</time>
      </trkpt>
      <trkpt lat="47.85594" lon="-3.52547">
        <ele>41.17</ele>
        <time>2020-07-08T10:52:24Z</time>
      </trkpt>
      <trkpt lat="47.85591" lon="-3.52551">
        <ele>40.82</ele>
        <time>2020-07-08T10:52:25Z</time>
      </trkpt>
      <trkpt lat="47.85588" lon="-3.52555">
        <ele>40.5</ele>
        <time>2020-07-08T10:52:26Z</time>
      </trkpt>
      <trkpt lat="47.85586" lon="-3.52559">
        <ele>40.27</ele>
        <time>2020-07-08T10:52:27Z</time>
      </trkpt>
      <trkpt lat="47.85582" lon="-3.52565">
        <ele>40.04</ele>
        <time>2020-07-08T10:52:28Z</time>
      </trkpt>
      <trkpt lat="47.85579" lon="-3.5257">
        <ele>39.85</ele>
        <time>2020-07-08T10:52:29Z</time>
      </trkpt>
      <trkpt lat="47.85576" lon="-3.52575">
        <ele>39.65</ele>
        <time>2020-07-08T10:52:30Z</time>
      </trkpt>
      <trkpt lat="47.85574" lon="-3.5258">
        <ele>39.43</ele>
        <time>2020-07-08T10:52:31Z</time>
      </trkpt>
      <trkpt lat="47.85571" lon="-3.52587">
        <ele>39.16</ele>
        <time>2020-07-08T10:52:32Z</time>
      </trkpt>
      <trkpt lat="47.85568" lon="-3.52593">
        <ele>38.82</ele>
        <time>2020-07-08T10:52:33Z</time>
      </trkpt>
      <trkpt lat="47.85565" lon="-3.52599">
        <ele>38.44</ele>
        <time>2020-07-08T10:52:34Z</time>
      </trkpt>
      <trkpt lat="47.85562" lon="-3.52606">
        <ele>38.02</ele>
        <time>2020-07-08T10:52:35Z</time>
      </trkpt>
      <trkpt lat="47.85558" lon="-3.52613">
        <ele>37.54</ele>
        <time>2020-07-08T10:52:36Z</time>
      </trkpt>
      <trkpt lat="47.85555" lon="-3.5262">
        <ele>37.37</ele>
        <time>2020-07-08T10:52:37Z</time>
      </trkpt>
      <trkpt lat="47.85552" lon="-3.52628">
        <ele>37.38</ele>
        <time>2020-07-08T10:52:38Z</time>
      </trkpt>
      <trkpt lat="47.85549" lon="-3.52636">
        <ele>37.42</ele>
        <time>2020-07-08T10:52:39Z</time>
      </trkpt>
      <trkpt lat="47.85546" lon="-3.52644">
        <ele>37.37</ele>
        <time>2020-07-08T10:52:40Z</time>
      </trkpt>
      <trkpt lat="47.85545" lon="-3.52652">
        <ele>37.3</ele>
        <time>2020-07-08T10:52:41Z</time>
      </trkpt>
      <trkpt lat="47.85545" lon="-3.52661">
        <ele>37.24</ele>
        <time>2020-07-08T10:52:42Z</time>
      </trkpt>
      <trkpt lat="47.85545" lon="-3.52669">
        <ele>37.25</ele>
        <time>2020-07-08T10:52:43Z</time>
      </trkpt>
      <trkpt lat="47.85546" lon="-3.52675">
        <ele>37.3</ele>
        <time>2020-07-08T10:52:44Z</time>
      </trkpt>
      <trkpt lat="47.85549" lon="-3.52682">
        <ele>37.44</ele>
        <time>2020-07-08T10:52:45Z</time>
      </trkpt>
      <trkpt lat="47.85552" lon="-3.52688">
        <ele>37.64</ele>
        <time>2020-07-08T10:52:46Z</time>
      </trkpt>
      <trkpt lat="47.85555" lon="-3.52694">
        <ele>37.89</ele>
        <time>2020-07-08T10:52:47Z</time>
      </trkpt>
      <trkpt lat="47.8556" lon="-3.527">
        <ele>37.93</ele>
        <time>2020-07-08T10:52:48Z</time>
      </trkpt>
      <trkpt lat="47.85564" lon="-3.52706">
        <ele>37.89</ele>
        <time>2020-07-08T10:52:49Z</time>
      </trkpt>
      <trkpt lat="47.85568" lon="-3.52711">
        <ele>37.84</ele>
        <time>2020-07-08T10:52:50Z</time>
      </trkpt>
      <trkpt lat="47.85572" lon="-3.52717">
        <ele>37.8</ele>
        <time>2020-07-08T10:52:51Z</time>
      </trkpt>
      <trkpt lat="47.85577" lon="-3.52722">
        <ele>37.78</ele>
        <time>2020-07-08T10:52:52Z</time>
      </trkpt>
      <trkpt lat="47.85581" lon="-3.52727">
        <ele>37.76</ele>
        <time>2020-07-08T10:52:53Z</time>
      </trkpt>
      <trkpt lat="47.85586" lon="-3.52731">
        <ele>37.77</ele>
        <time>2020-07-08T10:52:54Z</time>
      </trkpt>
      <trkpt lat="47.85591" lon="-3.52736">
        <ele>37.79</ele>
        <time>2020-07-08T10:52:55Z</time>
      </trkpt>
      <trkpt lat="47.85597" lon="-3.5274">
        <ele>37.82</ele>
        <time>2020-07-08T10:52:56Z</time>
      </trkpt>
      <trkpt lat="47.85602" lon="-3.52745">
        <ele>37.84</ele>
        <time>2020-07-08T10:52:57Z</time>
      </trkpt>
      <trkpt lat="47.85607" lon="-3.52749">
        <ele>37.87</ele>
        <time>2020-07-08T10:52:58Z</time>
      </trkpt>
      <trkpt lat="47.85612" lon="-3.52753">
        <ele>37.81</ele>
        <time>2020-07-08T10:52:59Z</time>
      </trkpt>
      <trkpt lat="47.85616" lon="-3.52757">
        <ele>37.63</ele>
        <time>2020-07-08T10:53:00Z</time>
      </trkpt>
      <trkpt lat="47.8562" lon="-3.52761">
        <ele>37.45</ele>
        <time>2020-07-08T10:53:01Z</time>
      </trkpt>
      <trkpt lat="47.85625" lon="-3.52764">
        <ele>37.32</ele>
        <time>2020-07-08T10:53:02Z</time>
      </trkpt>
      <trkpt lat="47.8563" lon="-3.52767">
        <ele>37.23</ele>
        <time>2020-07-08T10:53:03Z</time>
      </trkpt>
      <trkpt lat="47.85634" lon="-3.5277">
        <ele>37.16</ele>
        <time>2020-07-08T10:53:04Z</time>
      </trkpt>
      <trkpt lat="47.85639" lon="-3.52773">
        <ele>37.16</ele>
        <time>2020-07-08T10:53:05Z</time>
      </trkpt>
      <trkpt lat="47.85644" lon="-3.52777">
        <ele>36.96</ele>
        <time>2020-07-08T10:53:06Z</time>
      </trkpt>
      <trkpt lat="47.85648" lon="-3.5278">
        <ele>36.64</ele>
        <time>2020-07-08T10:53:07Z</time>
      </trkpt>
      <trkpt lat="47.85653" lon="-3.52784">
        <ele>36.28</ele>
        <time>2020-07-08T10:53:08Z</time>
      </trkpt>
      <trkpt lat="47.85659" lon="-3.52788">
        <ele>35.95</ele>
        <time>2020-07-08T10:53:09Z</time>
      </trkpt>
      <trkpt lat="47.85664" lon="-3.52793">
        <ele>35.65</ele>
        <time>2020-07-08T10:53:10Z</time>
      </trkpt>
      <trkpt lat="47.85669" lon="-3.52796">
        <ele>35.36</ele>
        <time>2020-07-08T10:53:11Z</time>
      </trkpt>
      <trkpt lat="47.85674" lon="-3.528">
        <ele>35.05</ele>
        <time>2020-07-08T10:53:12Z</time>
      </trkpt>
      <trkpt lat="47.85679" lon="-3.52804">
        <ele>34.74</ele>
        <time>2020-07-08T10:53:13Z</time>
      </trkpt>
      <trkpt lat="47.85684" lon="-3.52808">
        <ele>34.41</ele>
        <time>2020-07-08T10:53:14Z</time>
      </trkpt>
      <trkpt lat="47.85689" lon="-3.52811">
        <ele>34.08</ele>
        <time>2020-07-08T10:53:15Z</time>
      </trkpt>
      <trkpt lat="47.85696" lon="-3.52814">
        <ele>33.77</ele>
        <time>2020-07-08T10:53:16Z</time>
      </trkpt>
      <trkpt lat="47.85701" lon="-3.52817">
        <ele>33.41</ele>
        <time>2020-07-08T10:53:17Z</time>
      </trkpt>
      <trkpt lat="47.85708" lon="-3.52818">
        <ele>33.01</ele>
        <time>2020-07-08T10:53:18Z</time>
      </trkpt>
      <trkpt lat="47.85714" lon="-3.52819">
        <ele>32.63</ele>
        <time>2020-07-08T10:53:19Z</time>
      </trkpt>
      <trkpt lat="47.8572" lon="-3.52818">
        <ele>32.32</ele>
        <time>2020-07-08T10:53:20Z</time>
      </trkpt>
      <trkpt lat="47.85726" lon="-3.52816">
        <ele>32.2</ele>
        <time>2020-07-08T10:53:21Z</time>
      </trkpt>
      <trkpt lat="47.85732" lon="-3.52814">
        <ele>32.14</ele>
        <time>2020-07-08T10:53:22Z</time>
      </trkpt>
      <trkpt lat="47.85738" lon="-3.52812">
        <ele>32.11</ele>
        <time>2020-07-08T10:53:23Z</time>
      </trkpt>
      <trkpt lat="47.85745" lon="-3.5281">
        <ele>32.03</ele>
        <time>2020-07-08T10:53:24Z</time>
      </trkpt>
      <trkpt lat="47.85751" lon="-3.52809">
        <ele>31.92</ele>
        <time>2020-07-08T10:53:25Z</time>
      </trkpt>
      <trkpt lat="47.85758" lon="-3.52809">
        <ele>31.91</ele>
        <time>2020-07-08T10:53:26Z</time>
      </trkpt>
      <trkpt lat="47.85764" lon="-3.5281">
        <ele>31.92</ele>
        <time>2020-07-08T10:53:27Z</time>
      </trkpt>
      <trkpt lat="47.8577" lon="-3.52813">
        <ele>31.93</ele>
        <time>2020-07-08T10:53:28Z</time>
      </trkpt>
      <trkpt lat="47.85776" lon="-3.52815">
        <ele>31.96</ele>
        <time>2020-07-08T10:53:29Z</time>
      </trkpt>
      <trkpt lat="47.85781" lon="-3.52819">
        <ele>32.22</ele>
        <time>2020-07-08T10:53:30Z</time>
      </trkpt>
      <trkpt lat="47.85786" lon="-3.52824">
        <ele>32.57</ele>
        <time>2020-07-08T10:53:31Z</time>
      </trkpt>
      <trkpt lat="47.85791" lon="-3.52829">
        <ele>32.87</ele>
        <time>2020-07-08T10:53:32Z</time>
      </trkpt>
      <trkpt lat="47.85795" lon="-3.52835">
        <ele>32.92</ele>
        <time>2020-07-08T10:53:33Z</time>
      </trkpt>
      <trkpt lat="47.85799" lon="-3.52841">
        <ele>32.55</ele>
        <time>2020-07-08T10:53:34Z</time>
      </trkpt>
      <trkpt lat="47.85802" lon="-3.52847">
        <ele>32.2</ele>
        <time>2020-07-08T10:53:35Z</time>
      </trkpt>
      <trkpt lat="47.85806" lon="-3.52852">
        <ele>32.05</ele>
        <time>2020-07-08T10:53:36Z</time>
      </trkpt>
      <trkpt lat="47.85809" lon="-3.52858">
        <ele>31.84</ele>
        <time>2020-07-08T10:53:37Z</time>
      </trkpt>
      <trkpt lat="47.85811" lon="-3.52865">
        <ele>31.58</ele>
        <time>2020-07-08T10:53:38Z</time>
      </trkpt>
      <trkpt lat="47.85813" lon="-3.52872">
        <ele>31.36</ele>
        <time>2020-07-08T10:53:39Z</time>
      </trkpt>
      <trkpt lat="47.85816" lon="-3.52878">
        <ele>31.32</ele>
        <time>2020-07-08T10:53:40Z</time>
      </trkpt>
      <trkpt lat="47.85818" lon="-3.52885">
        <ele>31.38</ele>
        <time>2020-07-08T10:53:41Z</time>
      </trkpt>
      <trkpt lat="47.8582" lon="-3.52891">
        <ele>31.64</ele>
        <time>2020-07-08T10:53:42Z</time>
      </trkpt>
      <trkpt lat="47.85822" lon="-3.52896">
        <ele>32.4</ele>
        <time>2020-07-08T10:53:43Z</time>
      </trkpt>
      <trkpt lat="47.85824" lon="-3.52902">
        <ele>33.19</ele>
        <time>2020-07-08T10:53:44Z</time>
      </trkpt>
      <trkpt lat="47.85826" lon="-3.52908">
        <ele>33.94</ele>
        <time>2020-07-08T10:53:45Z</time>
      </trkpt>
      <trkpt lat="47.85827" lon="-3.52914">
        <ele>34.56</ele>
        <time>2020-07-08T10:53:46Z</time>
      </trkpt>
      <trkpt lat="47.85829" lon="-3.5292">
        <ele>35.37</ele>
        <time>2020-07-08T10:53:47Z</time>
      </trkpt>
      <trkpt lat="47.85831" lon="-3.52927">
        <ele>36.28</ele>
        <time>2020-07-08T10:53:48Z</time>
      </trkpt>
      <trkpt lat="47.85832" lon="-3.52932">
        <ele>37.15</ele>
        <time>2020-07-08T10:53:49Z</time>
      </trkpt>
      <trkpt lat="47.85833" lon="-3.52938">
        <ele>37.95</ele>
        <time>2020-07-08T10:53:50Z</time>
      </trkpt>
      <trkpt lat="47.85834" lon="-3.52943">
        <ele>38.45</ele>
        <time>2020-07-08T10:53:51Z</time>
      </trkpt>
      <trkpt lat="47.85836" lon="-3.52948">
        <ele>38.65</ele>
        <time>2020-07-08T10:53:52Z</time>
      </trkpt>
      <trkpt lat="47.85837" lon="-3.52953">
        <ele>38.75</ele>
        <time>2020-07-08T10:53:53Z</time>
      </trkpt>
      <trkpt lat="47.85838" lon="-3.52958">
        <ele>38.81</ele>
        <time>2020-07-08T10:53:54Z</time>
      </trkpt>
      <trkpt lat="47.85839" lon="-3.52963">
        <ele>38.81</ele>
        <time>2020-07-08T10:53:55Z</time>
      </trkpt>
      <trkpt lat="47.85841" lon="-3.52969">
        <ele>38.77</ele>
        <time>2020-07-08T10:53:56Z</time>
      </trkpt>
      <trkpt lat="47.85843" lon="-3.52975">
        <ele>38.72</ele>
        <time>2020-07-08T10:53:57Z</time>
      </trkpt>
      <trkpt lat="47.85845" lon="-3.52981">
        <ele>38.71</ele>
        <time>2020-07-08T10:53:58Z</time>
      </trkpt>
      <trkpt lat="47.85847" lon="-3.52987">
        <ele>38.79</ele>
        <time>2020-07-08T10:53:59Z</time>
      </trkpt>
      <trkpt lat="47.85849" lon="-3.52993">
        <ele>38.94</ele>
        <time>2020-07-08T10:54:00Z</time>
      </trkpt>
      <trkpt lat="47.85851" lon="-3.52998">
        <ele>39.15</ele>
        <time>2020-07-08T10:54:01Z</time>
      </trkpt>
      <trkpt lat="47.85854" lon="-3.53004">
        <ele>39.2</ele>
        <time>2020-07-08T10:54:02Z</time>
      </trkpt>
      <trkpt lat="47.85856" lon="-3.5301">
        <ele>39.15</ele>
        <time>2020-07-08T10:54:03Z</time>
      </trkpt>
      <trkpt lat="47.85858" lon="-3.53016">
        <ele>39.08</ele>
        <time>2020-07-08T10:54:04Z</time>
      </trkpt>
      <trkpt lat="47.85861" lon="-3.53023">
        <ele>39.03</ele>
        <time>2020-07-08T10:54:05Z</time>
      </trkpt>
      <trkpt lat="47.85864" lon="-3.53029">
        <ele>38.68</ele>
        <time>2020-07-08T10:54:06Z</time>
      </trkpt>
      <trkpt lat="47.85866" lon="-3.53036">
        <ele>38.19</ele>
        <time>2020-07-08T10:54:07Z</time>
      </trkpt>
      <trkpt lat="47.85868" lon="-3.53042">
        <ele>37.67</ele>
        <time>2020-07-08T10:54:08Z</time>
      </trkpt>
      <trkpt lat="47.85871" lon="-3.53049">
        <ele>37.23</ele>
        <time>2020-07-08T10:54:09Z</time>
      </trkpt>
      <trkpt lat="47.85873" lon="-3.53056">
        <ele>36.89</ele>
        <time>2020-07-08T10:54:10Z</time>
      </trkpt>
      <trkpt lat="47.85875" lon="-3.53063">
        <ele>36.55</ele>
        <time>2020-07-08T10:54:11Z</time>
      </trkpt>
      <trkpt lat="47.85877" lon="-3.5307">
        <ele>36.27</ele>
        <time>2020-07-08T10:54:12Z</time>
      </trkpt>
      <trkpt lat="47.85879" lon="-3.53077">
        <ele>36.09</ele>
        <time>2020-07-08T10:54:13Z</time>
      </trkpt>
      <trkpt lat="47.85881" lon="-3.53086">
        <ele>36.05</ele>
        <time>2020-07-08T10:54:14Z</time>
      </trkpt>
      <trkpt lat="47.85884" lon="-3.53094">
        <ele>36.19</ele>
        <time>2020-07-08T10:54:15Z</time>
      </trkpt>
      <trkpt lat="47.85887" lon="-3.53102">
        <ele>36.47</ele>
        <time>2020-07-08T10:54:16Z</time>
      </trkpt>
      <trkpt lat="47.85889" lon="-3.53111">
        <ele>36.8</ele>
        <time>2020-07-08T10:54:17Z</time>
      </trkpt>
      <trkpt lat="47.85892" lon="-3.5312">
        <ele>36.53</ele>
        <time>2020-07-08T10:54:18Z</time>
      </trkpt>
      <trkpt lat="47.85894" lon="-3.53129">
        <ele>36.11</ele>
        <time>2020-07-08T10:54:19Z</time>
      </trkpt>
      <trkpt lat="47.85896" lon="-3.53139">
        <ele>35.65</ele>
        <time>2020-07-08T10:54:20Z</time>
      </trkpt>
      <trkpt lat="47.85899" lon="-3.53148">
        <ele>35.14</ele>
        <time>2020-07-08T10:54:21Z</time>
      </trkpt>
      <trkpt lat="47.85902" lon="-3.53158">
        <ele>34.58</ele>
        <time>2020-07-08T10:54:22Z</time>
      </trkpt>
      <trkpt lat="47.85905" lon="-3.53169">
        <ele>33.96</ele>
        <time>2020-07-08T10:54:23Z</time>
      </trkpt>
      <trkpt lat="47.85909" lon="-3.53179">
        <ele>33.27</ele>
        <time>2020-07-08T10:54:24Z</time>
      </trkpt>
      <trkpt lat="47.85913" lon="-3.5319">
        <ele>32.6</ele>
        <time>2020-07-08T10:54:25Z</time>
      </trkpt>
      <trkpt lat="47.85918" lon="-3.532">
        <ele>31.81</ele>
        <time>2020-07-08T10:54:26Z</time>
      </trkpt>
      <trkpt lat="47.85922" lon="-3.53211">
        <ele>31.07</ele>
        <time>2020-07-08T10:54:27Z</time>
      </trkpt>
      <trkpt lat="47.85925" lon="-3.53223">
        <ele>30.42</ele>
        <time>2020-07-08T10:54:28Z</time>
      </trkpt>
      <trkpt lat="47.85929" lon="-3.53236">
        <ele>29.91</ele>
        <time>2020-07-08T10:54:29Z</time>
      </trkpt>
      <trkpt lat="47.85932" lon="-3.53248">
        <ele>29.59</ele>
        <time>2020-07-08T10:54:30Z</time>
      </trkpt>
      <trkpt lat="47.85935" lon="-3.5326">
        <ele>29.36</ele>
        <time>2020-07-08T10:54:31Z</time>
      </trkpt>
      <trkpt lat="47.85937" lon="-3.53272">
        <ele>29.2</ele>
        <time>2020-07-08T10:54:32Z</time>
      </trkpt>
      <trkpt lat="47.85939" lon="-3.53283">
        <ele>29.19</ele>
        <time>2020-07-08T10:54:33Z</time>
      </trkpt>
      <trkpt lat="47.8594" lon="-3.53294">
        <ele>29.18</ele>
        <time>2020-07-08T10:54:34Z</time>
      </trkpt>
      <trkpt lat="47.85942" lon="-3.53305">
        <ele>29.24</ele>
        <time>2020-07-08T10:54:35Z</time>
      </trkpt>
      <trkpt lat="47.85944" lon="-3.53316">
        <ele>29.1</ele>
        <time>2020-07-08T10:54:36Z</time>
      </trkpt>
      <trkpt lat="47.85945" lon="-3.53327">
        <ele>28.7</ele>
        <time>2020-07-08T10:54:37Z</time>
      </trkpt>
      <trkpt lat="47.85947" lon="-3.53337">
        <ele>28.35</ele>
        <time>2020-07-08T10:54:38Z</time>
      </trkpt>
      <trkpt lat="47.85949" lon="-3.53348">
        <ele>28.33</ele>
        <time>2020-07-08T10:54:39Z</time>
      </trkpt>
      <trkpt lat="47.85951" lon="-3.53358">
        <ele>28.42</ele>
        <time>2020-07-08T10:54:40Z</time>
      </trkpt>
      <trkpt lat="47.85953" lon="-3.53368">
        <ele>28.47</ele>
        <time>2020-07-08T10:54:41Z</time>
      </trkpt>
      <trkpt lat="47.85955" lon="-3.53377">
        <ele>28.56</ele>
        <time>2020-07-08T10:54:42Z</time>
      </trkpt>
      <trkpt lat="47.85957" lon="-3.53387">
        <ele>28.74</ele>
        <time>2020-07-08T10:54:43Z</time>
      </trkpt>
      <trkpt lat="47.85959" lon="-3.53396">
        <ele>28.94</ele>
        <time>2020-07-08T10:54:44Z</time>
      </trkpt>
      <trkpt lat="47.8596" lon="-3.53405">
        <ele>29.11</ele>
        <time>2020-07-08T10:54:45Z</time>
      </trkpt>
      <trkpt lat="47.85962" lon="-3.53413">
        <ele>29.21</ele>
        <time>2020-07-08T10:54:46Z</time>
      </trkpt>
      <trkpt lat="47.85963" lon="-3.53421">
        <ele>29.35</ele>
        <time>2020-07-08T10:54:47Z</time>
      </trkpt>
      <trkpt lat="47.85965" lon="-3.53429">
        <ele>29.5</ele>
        <time>2020-07-08T10:54:48Z</time>
      </trkpt>
      <trkpt lat="47.85966" lon="-3.53437">
        <ele>29.65</ele>
        <time>2020-07-08T10:54:49Z</time>
      </trkpt>
      <trkpt lat="47.85967" lon="-3.53446">
        <ele>29.81</ele>
        <time>2020-07-08T10:54:50Z</time>
      </trkpt>
      <trkpt lat="47.85968" lon="-3.53454">
        <ele>30.11</ele>
        <time>2020-07-08T10:54:51Z</time>
      </trkpt>
      <trkpt lat="47.85968" lon="-3.53462">
        <ele>30.44</ele>
        <time>2020-07-08T10:54:52Z</time>
      </trkpt>
      <trkpt lat="47.85969" lon="-3.53469">
        <ele>30.75</ele>
        <time>2020-07-08T10:54:53Z</time>
      </trkpt>
      <trkpt lat="47.85969" lon="-3.53477">
        <ele>31.05</ele>
        <time>2020-07-08T10:54:54Z</time>
      </trkpt>
      <trkpt lat="47.85969" lon="-3.53484">
        <ele>31.35</ele>
        <time>2020-07-08T10:54:55Z</time>
      </trkpt>
      <trkpt lat="47.85969" lon="-3.53491">
        <ele>31.63</ele>
        <time>2020-07-08T10:54:56Z</time>
      </trkpt>
      <trkpt lat="47.85969" lon="-3.53497">
        <ele>31.91</ele>
        <time>2020-07-08T10:54:57Z</time>
      </trkpt>
      <trkpt lat="47.85968" lon="-3.53504">
        <ele>32.34</ele>
        <time>2020-07-08T10:54:58Z</time>
      </trkpt>
      <trkpt lat="47.85967" lon="-3.5351">
        <ele>32.88</ele>
        <time>2020-07-08T10:54:59Z</time>
      </trkpt>
      <trkpt lat="47.85967" lon="-3.53517">
        <ele>33.54</ele>
        <time>2020-07-08T10:55:00Z</time>
      </trkpt>
      <trkpt lat="47.85966" lon="-3.53524">
        <ele>34.17</ele>
        <time>2020-07-08T10:55:01Z</time>
      </trkpt>
      <trkpt lat="47.85966" lon="-3.5353">
        <ele>34.65</ele>
        <time>2020-07-08T10:55:02Z</time>
      </trkpt>
      <trkpt lat="47.85965" lon="-3.53536">
        <ele>34.93</ele>
        <time>2020-07-08T10:55:03Z</time>
      </trkpt>
      <trkpt lat="47.85965" lon="-3.53542">
        <ele>35.13</ele>
        <time>2020-07-08T10:55:04Z</time>
      </trkpt>
      <trkpt lat="47.85964" lon="-3.53547">
        <ele>35.31</ele>
        <time>2020-07-08T10:55:05Z</time>
      </trkpt>
      <trkpt lat="47.85964" lon="-3.53552">
        <ele>35.49</ele>
        <time>2020-07-08T10:55:06Z</time>
      </trkpt>
      <trkpt lat="47.85964" lon="-3.53558">
        <ele>35.67</ele>
        <time>2020-07-08T10:55:07Z</time>
      </trkpt>
      <trkpt lat="47.85965" lon="-3.53563">
        <ele>35.81</ele>
        <time>2020-07-08T10:55:08Z</time>
      </trkpt>
      <trkpt lat="47.85966" lon="-3.53567">
        <ele>35.92</ele>
        <time>2020-07-08T10:55:09Z</time>
      </trkpt>
      <trkpt lat="47.85967" lon="-3.53571">
        <ele>35.99</ele>
        <time>2020-07-08T10:55:10Z</time>
      </trkpt>
      <trkpt lat="47.85969" lon="-3.53574">
        <ele>36.03</ele>
        <time>2020-07-08T10:55:11Z</time>
      </trkpt>
      <trkpt lat="47.85969" lon="-3.53577">
        <ele>36.05</ele>
        <time>2020-07-08T10:55:12Z</time>
      </trkpt>
      <trkpt lat="47.85969" lon="-3.53579">
        <ele>36.06</ele>
        <time>2020-07-08T10:55:13Z</time>
      </trkpt>
      <trkpt lat="47.8597" lon="-3.5358">
        <ele>36.06</ele>
        <time>2020-07-08T10:55:14Z</time>
      </trkpt>
      <trkpt lat="47.8597" lon="-3.5358">
        <ele>36.06</ele>
        <time>2020-07-08T10:55:15Z</time>
      </trkpt>
      <trkpt lat="47.8597" lon="-3.5358">
        <ele>36.06</ele>
        <time>2020-07-08T10:55:16Z</time>
      </trkpt>
      <trkpt lat="47.8597" lon="-3.5358">
        <ele>36.06</ele>
        <time>2020-07-08T10:55:17Z</time>
      </trkpt>
      <trkpt lat="47.8597" lon="-3.5358">
        <ele>36.06</ele>
        <time>2020-07-08T10:55:18Z</time>
      </trkpt>
      <trkpt lat="47.8597" lon="-3.5358">
        <ele>36.06</ele>
        <time>2020-07-08T10:55:19Z</time>
      </trkpt>
      <trkpt lat="47.8597" lon="-3.5358">
        <ele>36.06</ele>
        <time>2020-07-08T10:55:20Z</time>
      </trkpt>
      <trkpt lat="47.8597" lon="-3.5358">
        <ele>36.06</ele>
        <time>2020-07-08T10:55:21Z</time>
      </trkpt>
      <trkpt lat="47.8597" lon="-3.5358">
        <ele>36.06</ele>
        <time>2020-07-08T10:55:22Z</time>
      </trkpt>
      <trkpt lat="47.8597" lon="-3.5358">
        <ele>36.06</ele>
        <time>2020-07-08T10:55:23Z</time>
      </trkpt>
      <trkpt lat="47.8597" lon="-3.5358">
        <ele>36.06</ele>
        <time>2020-07-08T10:55:24Z</time>
      </trkpt>
      <trkpt lat="47.8597" lon="-3.5358">
        <ele>36.06</ele>
        <time>2020-07-08T10:55:25Z</time>
      </trkpt>
      <trkpt lat="47.8597" lon="-3.5358">
        <ele>36.06</ele>
        <time>2020-07-08T10:55:26Z</time>
      </trkpt>
      <trkpt lat="47.8597" lon="-3.5358">
        <ele>36.06</ele>
        <time>2020-07-08T10:55:27Z</time>
      </trkpt>
      <trkpt lat="47.8597" lon="-3.5358">
        <ele>36.06</ele>
        <time>2020-07-08T10:55:28Z</time>
      </trkpt>
      <trkpt lat="47.8597" lon="-3.5358">
        <ele>36.06</ele>
        <time>2020-07-08T10:55:29Z</time>
      </trkpt>
      <trkpt lat="47.8597" lon="-3.5358">
        <ele>36.06</ele>
        <time>2020-07-08T10:55:30Z</time>
      </trkpt>
      <trkpt lat="47.8597" lon="-3.5358">
        <ele>36.06</ele>
        <time>2020-07-08T10:55:31Z</time>
      </trkpt>
      <trkpt lat="47.8597" lon="-3.5358">
        <ele>36.06</ele>
        <time>2020-07-08T10:55:32Z</time>
      </trkpt>
      <trkpt lat="47.8597" lon="-3.5358">
        <ele>36.06</ele>
        <time>2020-07-08T10:55:33Z</time>
      </trkpt>
      <trkpt lat="47.8597" lon="-3.5358">
        <ele>36.06</ele>
        <time>2020-07-08T10:55:34Z</time>
      </trkpt>
      <trkpt lat="47.8597" lon="-3.5358">
        <ele>36.06</ele>
        <time>2020-07-08T10:55:35Z</time>
      </trkpt>
      <trkpt lat="47.8597" lon="-3.5358">
        <ele>36.06</ele>
        <time>2020-07-08T10:55:36Z</time>
      </trkpt>
      <trkpt lat="47.8597" lon="-3.5358">
        <ele>36.06</ele>
        <time>2020-07-08T10:55:37Z</time>
      </trkpt>
      <trkpt lat="47.8597" lon="-3.5358">
        <ele>36.06</ele>
        <time>2020-07-08T10:55:38Z</time>
      </trkpt>
      <trkpt lat="47.8597" lon="-3.5358">
        <ele>36.06</ele>
        <time>2020-07-08T10:55:39Z</time>
      </trkpt>
      <trkpt lat="47.8597" lon="-3.5358">
        <ele>36.06</ele>
        <time>2020-07-08T10:55:40Z</time>
      </trkpt>
      <trkpt lat="47.8597" lon="-3.5358">
        <ele>36.06</ele>
        <time>2020-07-08T10:55:41Z</time>
      </trkpt>
      <trkpt lat="47.8597" lon="-3.5358">
        <ele>36.06</ele>
        <time>2020-07-08T10:55:42Z</time>
      </trkpt>
      <trkpt lat="47.8597" lon="-3.5358">
        <ele>36.06</ele>
        <time>2020-07-08T10:55:43Z</time>
      </trkpt>
      <trkpt lat="47.8597" lon="-3.5358">
        <ele>36.06</ele>
        <time>2020-07-08T10:55:44Z</time>
      </trkpt>
      <trkpt lat="47.8597" lon="-3.5358">
        <ele>36.06</ele>
        <time>2020-07-08T10:55:45Z</time>
      </trkpt>
      <trkpt lat="47.8597" lon="-3.5358">
        <ele>36.06</ele>
        <time>2020-07-08T10:55:46Z</time>
      </trkpt>
      <trkpt lat="47.8597" lon="-3.5358">
        <ele>36.06</ele>
        <time>2020-07-08T10:55:47Z</time>
      </trkpt>
      <trkpt lat="47.8597" lon="-3.5358">
        <ele>36.06</ele>
        <time>2020-07-08T10:55:48Z</time>
      </trkpt>
      <trkpt lat="47.8597" lon="-3.5358">
        <ele>36.06</ele>
        <time>2020-07-08T10:55:49Z</time>
      </trkpt>
      <trkpt lat="47.8597" lon="-3.5358">
        <ele>36.06</ele>
        <time>2020-07-08T10:55:50Z</time>
      </trkpt>
      <trkpt lat="47.8597" lon="-3.5358">
        <ele>36.06</ele>
        <time>2020-07-08T10:55:51Z</time>
      </trkpt>
      <trkpt lat="47.8597" lon="-3.5358">
        <ele>36.06</ele>
        <time>2020-07-08T10:55:52Z</time>
      </trkpt>
      <trkpt lat="47.85972" lon="-3.53577">
        <ele>36.02</ele>
        <time>2020-07-08T10:55:53Z</time>
      </trkpt>
      <trkpt lat="47.85975" lon="-3.53577">
        <ele>35.76</ele>
        <time>2020-07-08T10:55:54Z</time>
      </trkpt>
      <trkpt lat="47.85978" lon="-3.53577">
        <ele>35.33</ele>
        <time>2020-07-08T10:55:55Z</time>
      </trkpt>
      <trkpt lat="47.85981" lon="-3.53577">
        <ele>34.83</ele>
        <time>2020-07-08T10:55:56Z</time>
      </trkpt>
      <trkpt lat="47.85985" lon="-3.53577">
        <ele>34.29</ele>
        <time>2020-07-08T10:55:57Z</time>
      </trkpt>
      <trkpt lat="47.85989" lon="-3.53576">
        <ele>33.7</ele>
        <time>2020-07-08T10:55:58Z</time>
      </trkpt>
      <trkpt lat="47.85992" lon="-3.53575">
        <ele>33.16</ele>
        <time>2020-07-08T10:55:59Z</time>
      </trkpt>
      <trkpt lat="47.85996" lon="-3.53575">
        <ele>32.6</ele>
        <time>2020-07-08T10:56:00Z</time>
      </trkpt>
      <trkpt lat="47.85999" lon="-3.53573">
        <ele>32.06</ele>
        <time>2020-07-08T10:56:01Z</time>
      </trkpt>
      <trkpt lat="47.86002" lon="-3.53572">
        <ele>31.91</ele>
        <time>2020-07-08T10:56:02Z</time>
      </trkpt>
      <trkpt lat="47.86005" lon="-3.5357">
        <ele>32.21</ele>
        <time>2020-07-08T10:56:03Z</time>
      </trkpt>
      <trkpt lat="47.86009" lon="-3.53569">
        <ele>32.68</ele>
        <time>2020-07-08T10:56:04Z</time>
      </trkpt>
      <trkpt lat="47.86013" lon="-3.53567">
        <ele>33.28</ele>
        <time>2020-07-08T10:56:05Z</time>
      </trkpt>
      <trkpt lat="47.86017" lon="-3.53566">
        <ele>33.89</ele>
        <time>2020-07-08T10:56:06Z</time>
      </trkpt>
      <trkpt lat="47.86021" lon="-3.53564">
        <ele>34.5</ele>
        <time>2020-07-08T10:56:07Z</time>
      </trkpt>
      <trkpt lat="47.86025" lon="-3.53562">
        <ele>35.18</ele>
        <time>2020-07-08T10:56:08Z</time>
      </trkpt>
      <trkpt lat="47.86029" lon="-3.53561">
        <ele>35.79</ele>
        <time>2020-07-08T10:56:09Z</time>
      </trkpt>
      <trkpt lat="47.86033" lon="-3.5356">
        <ele>36.11</ele>
        <time>2020-07-08T10:56:10Z</time>
      </trkpt>
      <trkpt lat="47.86037" lon="-3.53559">
        <ele>36.32</ele>
        <time>2020-07-08T10:56:11Z</time>
      </trkpt>
      <trkpt lat="47.86041" lon="-3.53558">
        <ele>36.49</ele>
        <time>2020-07-08T10:56:12Z</time>
      </trkpt>
      <trkpt lat="47.86045" lon="-3.53559">
        <ele>36.67</ele>
        <time>2020-07-08T10:56:13Z</time>
      </trkpt>
      <trkpt lat="47.86049" lon="-3.5356">
        <ele>36.91</ele>
        <time>2020-07-08T10:56:14Z</time>
      </trkpt>
      <trkpt lat="47.86054" lon="-3.53561">
        <ele>37.2</ele>
        <time>2020-07-08T10:56:15Z</time>
      </trkpt>
      <trkpt lat="47.86058" lon="-3.53563">
        <ele>37.44</ele>
        <time>2020-07-08T10:56:16Z</time>
      </trkpt>
      <trkpt lat="47.86062" lon="-3.53565">
        <ele>37.62</ele>
        <time>2020-07-08T10:56:17Z</time>
      </trkpt>
      <trkpt lat="47.86066" lon="-3.53568">
        <ele>37.83</ele>
        <time>2020-07-08T10:56:18Z</time>
      </trkpt>
      <trkpt lat="47.8607" lon="-3.53572">
        <ele>38.07</ele>
        <time>2020-07-08T10:56:19Z</time>
      </trkpt>
      <trkpt lat="47.86073" lon="-3.53576">
        <ele>38.34</ele>
        <time>2020-07-08T10:56:20Z</time>
      </trkpt>
      <trkpt lat="47.86077" lon="-3.5358">
        <ele>38.63</ele>
        <time>2020-07-08T10:56:21Z</time>
      </trkpt>
      <trkpt lat="47.8608" lon="-3.53583">
        <ele>38.89</ele>
        <time>2020-07-08T10:56:22Z</time>
      </trkpt>
      <trkpt lat="47.86084" lon="-3.53587">
        <ele>39.07</ele>
        <time>2020-07-08T10:56:23Z</time>
      </trkpt>
      <trkpt lat="47.86088" lon="-3.53591">
        <ele>39.25</ele>
        <time>2020-07-08T10:56:24Z</time>
      </trkpt>
      <trkpt lat="47.86092" lon="-3.53594">
        <ele>39.44</ele>
        <time>2020-07-08T10:56:25Z</time>
      </trkpt>
      <trkpt lat="47.86096" lon="-3.53598">
        <ele>39.65</ele>
        <time>2020-07-08T10:56:26Z</time>
      </trkpt>
      <trkpt lat="47.861" lon="-3.53601">
        <ele>39.88</ele>
        <time>2020-07-08T10:56:27Z</time>
      </trkpt>
      <trkpt lat="47.86104" lon="-3.53603">
        <ele>40.13</ele>
        <time>2020-07-08T10:56:28Z</time>
      </trkpt>
      <trkpt lat="47.86107" lon="-3.53605">
        <ele>40.37</ele>
        <time>2020-07-08T10:56:29Z</time>
      </trkpt>
      <trkpt lat="47.86111" lon="-3.53607">
        <ele>40.56</ele>
        <time>2020-07-08T10:56:30Z</time>
      </trkpt>
      <trkpt lat="47.86116" lon="-3.53605">
        <ele>40.26</ele>
        <time>2020-07-08T10:56:31Z</time>
      </trkpt>
      <trkpt lat="47.8612" lon="-3.53603">
        <ele>39.8</ele>
        <time>2020-07-08T10:56:32Z</time>
      </trkpt>
      <trkpt lat="47.86123" lon="-3.53599">
        <ele>39.27</ele>
        <time>2020-07-08T10:56:33Z</time>
      </trkpt>
      <trkpt lat="47.86126" lon="-3.53595">
        <ele>38.73</ele>
        <time>2020-07-08T10:56:34Z</time>
      </trkpt>
      <trkpt lat="47.8613" lon="-3.53591">
        <ele>38.22</ele>
        <time>2020-07-08T10:56:35Z</time>
      </trkpt>
      <trkpt lat="47.86134" lon="-3.53588">
        <ele>37.75</ele>
        <time>2020-07-08T10:56:36Z</time>
      </trkpt>
      <trkpt lat="47.86137" lon="-3.53584">
        <ele>37.31</ele>
        <time>2020-07-08T10:56:37Z</time>
      </trkpt>
      <trkpt lat="47.86142" lon="-3.53581">
        <ele>37.6</ele>
        <time>2020-07-08T10:56:38Z</time>
      </trkpt>
      <trkpt lat="47.86146" lon="-3.53577">
        <ele>38.42</ele>
        <time>2020-07-08T10:56:39Z</time>
      </trkpt>
      <trkpt lat="47.8615" lon="-3.53574">
        <ele>39.28</ele>
        <time>2020-07-08T10:56:40Z</time>
      </trkpt>
      <trkpt lat="47.86154" lon="-3.5357">
        <ele>40.07</ele>
        <time>2020-07-08T10:56:41Z</time>
      </trkpt>
      <trkpt lat="47.86158" lon="-3.53567">
        <ele>40.75</ele>
        <time>2020-07-08T10:56:42Z</time>
      </trkpt>
      <trkpt lat="47.86162" lon="-3.53563">
        <ele>41.32</ele>
        <time>2020-07-08T10:56:43Z</time>
      </trkpt>
      <trkpt lat="47.86165" lon="-3.5356">
        <ele>41.77</ele>
        <time>2020-07-08T10:56:44Z</time>
      </trkpt>
      <trkpt lat="47.86169" lon="-3.53557">
        <ele>42.08</ele>
        <time>2020-07-08T10:56:45Z</time>
      </trkpt>
      <trkpt lat="47.86172" lon="-3.53555">
        <ele>42.33</ele>
        <time>2020-07-08T10:56:46Z</time>
      </trkpt>
      <trkpt lat="47.86176" lon="-3.53554">
        <ele>42.59</ele>
        <time>2020-07-08T10:56:47Z</time>
      </trkpt>
      <trkpt lat="47.86179" lon="-3.53553">
        <ele>42.84</ele>
        <time>2020-07-08T10:56:48Z</time>
      </trkpt>
      <trkpt lat="47.86182" lon="-3.53553">
        <ele>43.04</ele>
        <time>2020-07-08T10:56:49Z</time>
      </trkpt>
      <trkpt lat="47.86185" lon="-3.53553">
        <ele>43.26</ele>
        <time>2020-07-08T10:56:50Z</time>
      </trkpt>
      <trkpt lat="47.86188" lon="-3.53553">
        <ele>43.48</ele>
        <time>2020-07-08T10:56:51Z</time>
      </trkpt>
      <trkpt lat="47.86192" lon="-3.53552">
        <ele>43.71</ele>
        <time>2020-07-08T10:56:52Z</time>
      </trkpt>
      <trkpt lat="47.86195" lon="-3.53552">
        <ele>43.92</ele>
        <time>2020-07-08T10:56:53Z</time>
      </trkpt>
      <trkpt lat="47.86197" lon="-3.53552">
        <ele>44.05</ele>
        <time>2020-07-08T10:56:54Z</time>
      </trkpt>
      <trkpt lat="47.86201" lon="-3.5355">
        <ele>44.17</ele>
        <time>2020-07-08T10:56:55Z</time>
      </trkpt>
      <trkpt lat="47.86204" lon="-3.53549">
        <ele>44.3</ele>
        <time>2020-07-08T10:56:56Z</time>
      </trkpt>
      <trkpt lat="47.86208" lon="-3.53548">
        <ele>44.43</ele>
        <time>2020-07-08T10:56:57Z</time>
      </trkpt>
      <trkpt lat="47.86211" lon="-3.53546">
        <ele>44.55</ele>
        <time>2020-07-08T10:56:58Z</time>
      </trkpt>
      <trkpt lat="47.86215" lon="-3.53545">
        <ele>44.68</ele>
        <time>2020-07-08T10:56:59Z</time>
      </trkpt>
      <trkpt lat="47.86218" lon="-3.53543">
        <ele>44.8</ele>
        <time>2020-07-08T10:57:00Z</time>
      </trkpt>
      <trkpt lat="47.86221" lon="-3.53542">
        <ele>44.92</ele>
        <time>2020-07-08T10:57:01Z</time>
      </trkpt>
      <trkpt lat="47.86225" lon="-3.53541">
        <ele>45.06</ele>
        <time>2020-07-08T10:57:02Z</time>
      </trkpt>
      <trkpt lat="47.86229" lon="-3.5354">
        <ele>45.19</ele>
        <time>2020-07-08T10:57:03Z</time>
      </trkpt>
      <trkpt lat="47.86233" lon="-3.53538">
        <ele>45.32</ele>
        <time>2020-07-08T10:57:04Z</time>
      </trkpt>
      <trkpt lat="47.86236" lon="-3.53537">
        <ele>45.44</ele>
        <time>2020-07-08T10:57:05Z</time>
      </trkpt>
      <trkpt lat="47.8624" lon="-3.53536">
        <ele>45.57</ele>
        <time>2020-07-08T10:57:06Z</time>
      </trkpt>
      <trkpt lat="47.86244" lon="-3.53535">
        <ele>45.71</ele>
        <time>2020-07-08T10:57:07Z</time>
      </trkpt>
      <trkpt lat="47.86247" lon="-3.53535">
        <ele>45.83</ele>
        <time>2020-07-08T10:57:08Z</time>
      </trkpt>
      <trkpt lat="47.8625" lon="-3.53534">
        <ele>45.95</ele>
        <time>2020-07-08T10:57:09Z</time>
      </trkpt>
      <trkpt lat="47.86254" lon="-3.53534">
        <ele>46.09</ele>
        <time>2020-07-08T10:57:10Z</time>
      </trkpt>
      <trkpt lat="47.86258" lon="-3.53534">
        <ele>46.23</ele>
        <time>2020-07-08T10:57:11Z</time>
      </trkpt>
      <trkpt lat="47.86263" lon="-3.53534">
        <ele>46.38</ele>
        <time>2020-07-08T10:57:12Z</time>
      </trkpt>
      <trkpt lat="47.86267" lon="-3.53534">
        <ele>46.53</ele>
        <time>2020-07-08T10:57:13Z</time>
      </trkpt>
      <trkpt lat="47.86271" lon="-3.53534">
        <ele>46.7</ele>
        <time>2020-07-08T10:57:14Z</time>
      </trkpt>
      <trkpt lat="47.86277" lon="-3.53535">
        <ele>46.88</ele>
        <time>2020-07-08T10:57:15Z</time>
      </trkpt>
      <trkpt lat="47.86281" lon="-3.53535">
        <ele>46.98</ele>
        <time>2020-07-08T10:57:16Z</time>
      </trkpt>
      <trkpt lat="47.86286" lon="-3.53535">
        <ele>47.05</ele>
        <time>2020-07-08T10:57:17Z</time>
      </trkpt>
      <trkpt lat="47.8629" lon="-3.53535">
        <ele>47.1</ele>
        <time>2020-07-08T10:57:18Z</time>
      </trkpt>
      <trkpt lat="47.86295" lon="-3.53535">
        <ele>47.15</ele>
        <time>2020-07-08T10:57:19Z</time>
      </trkpt>
      <trkpt lat="47.863" lon="-3.53535">
        <ele>47.2</ele>
        <time>2020-07-08T10:57:20Z</time>
      </trkpt>
      <trkpt lat="47.86304" lon="-3.53536">
        <ele>47.25</ele>
        <time>2020-07-08T10:57:21Z</time>
      </trkpt>
      <trkpt lat="47.86308" lon="-3.53536">
        <ele>47.32</ele>
        <time>2020-07-08T10:57:22Z</time>
      </trkpt>
      <trkpt lat="47.86312" lon="-3.53537">
        <ele>47.43</ele>
        <time>2020-07-08T10:57:23Z</time>
      </trkpt>
      <trkpt lat="47.86315" lon="-3.53537">
        <ele>47.53</ele>
        <time>2020-07-08T10:57:24Z</time>
      </trkpt>
      <trkpt lat="47.86319" lon="-3.53538">
        <ele>47.64</ele>
        <time>2020-07-08T10:57:25Z</time>
      </trkpt>
      <trkpt lat="47.86323" lon="-3.53539">
        <ele>47.74</ele>
        <time>2020-07-08T10:57:26Z</time>
      </trkpt>
      <trkpt lat="47.86327" lon="-3.53539">
        <ele>47.83</ele>
        <time>2020-07-08T10:57:27Z</time>
      </trkpt>
      <trkpt lat="47.86331" lon="-3.53539">
        <ele>47.92</ele>
        <time>2020-07-08T10:57:28Z</time>
      </trkpt>
      <trkpt lat="47.86336" lon="-3.5354">
        <ele>48.03</ele>
        <time>2020-07-08T10:57:29Z</time>
      </trkpt>
      <trkpt lat="47.8634" lon="-3.5354">
        <ele>48.17</ele>
        <time>2020-07-08T10:57:30Z</time>
      </trkpt>
      <trkpt lat="47.86345" lon="-3.5354">
        <ele>48.34</ele>
        <time>2020-07-08T10:57:31Z</time>
      </trkpt>
      <trkpt lat="47.8635" lon="-3.5354">
        <ele>48.53</ele>
        <time>2020-07-08T10:57:32Z</time>
      </trkpt>
      <trkpt lat="47.86355" lon="-3.5354">
        <ele>48.7</ele>
        <time>2020-07-08T10:57:33Z</time>
      </trkpt>
      <trkpt lat="47.86359" lon="-3.5354">
        <ele>48.85</ele>
        <time>2020-07-08T10:57:34Z</time>
      </trkpt>
      <trkpt lat="47.86362" lon="-3.5354">
        <ele>48.97</ele>
        <time>2020-07-08T10:57:35Z</time>
      </trkpt>
      <trkpt lat="47.86366" lon="-3.53541">
        <ele>49.05</ele>
        <time>2020-07-08T10:57:36Z</time>
      </trkpt>
      <trkpt lat="47.8637" lon="-3.53542">
        <ele>49.13</ele>
        <time>2020-07-08T10:57:37Z</time>
      </trkpt>
      <trkpt lat="47.86375" lon="-3.53542">
        <ele>49.23</ele>
        <time>2020-07-08T10:57:38Z</time>
      </trkpt>
      <trkpt lat="47.86379" lon="-3.53543">
        <ele>49.32</ele>
        <time>2020-07-08T10:57:39Z</time>
      </trkpt>
      <trkpt lat="47.86383" lon="-3.53543">
        <ele>49.4</ele>
        <time>2020-07-08T10:57:40Z</time>
      </trkpt>
      <trkpt lat="47.86386" lon="-3.53545">
        <ele>49.51</ele>
        <time>2020-07-08T10:57:41Z</time>
      </trkpt>
      <trkpt lat="47.8639" lon="-3.53547">
        <ele>49.68</ele>
        <time>2020-07-08T10:57:42Z</time>
      </trkpt>
      <trkpt lat="47.86395" lon="-3.53549">
        <ele>49.92</ele>
        <time>2020-07-08T10:57:43Z</time>
      </trkpt>
      <trkpt lat="47.86399" lon="-3.53551">
        <ele>50.14</ele>
        <time>2020-07-08T10:57:44Z</time>
      </trkpt>
      <trkpt lat="47.86404" lon="-3.53551">
        <ele>50.36</ele>
        <time>2020-07-08T10:57:45Z</time>
      </trkpt>
      <trkpt lat="47.86408" lon="-3.53553">
        <ele>50.57</ele>
        <time>2020-07-08T10:57:46Z</time>
      </trkpt>
      <trkpt lat="47.86412" lon="-3.53555">
        <ele>50.76</ele>
        <time>2020-07-08T10:57:47Z</time>
      </trkpt>
      <trkpt lat="47.86416" lon="-3.53557">
        <ele>50.92</ele>
        <time>2020-07-08T10:57:48Z</time>
      </trkpt>
      <trkpt lat="47.8642" lon="-3.53558">
        <ele>51.06</ele>
        <time>2020-07-08T10:57:49Z</time>
      </trkpt>
      <trkpt lat="47.86424" lon="-3.5356">
        <ele>51.21</ele>
        <time>2020-07-08T10:57:50Z</time>
      </trkpt>
      <trkpt lat="47.86429" lon="-3.53561">
        <ele>51.36</ele>
        <time>2020-07-08T10:57:51Z</time>
      </trkpt>
      <trkpt lat="47.86435" lon="-3.53563">
        <ele>51.56</ele>
        <time>2020-07-08T10:57:52Z</time>
      </trkpt>
      <trkpt lat="47.86439" lon="-3.53566">
        <ele>51.74</ele>
        <time>2020-07-08T10:57:53Z</time>
      </trkpt>
      <trkpt lat="47.86444" lon="-3.53569">
        <ele>51.91</ele>
        <time>2020-07-08T10:57:54Z</time>
      </trkpt>
      <trkpt lat="47.86448" lon="-3.53571">
        <ele>51.97</ele>
        <time>2020-07-08T10:57:55Z</time>
      </trkpt>
      <trkpt lat="47.86452" lon="-3.53574">
        <ele>51.99</ele>
        <time>2020-07-08T10:57:56Z</time>
      </trkpt>
      <trkpt lat="47.86457" lon="-3.53576">
        <ele>52</ele>
        <time>2020-07-08T10:57:57Z</time>
      </trkpt>
      <trkpt lat="47.8646" lon="-3.53579">
        <ele>52</ele>
        <time>2020-07-08T10:57:58Z</time>
      </trkpt>
      <trkpt lat="47.86464" lon="-3.53582">
        <ele>52</ele>
        <time>2020-07-08T10:57:59Z</time>
      </trkpt>
      <trkpt lat="47.86468" lon="-3.53585">
        <ele>52.01</ele>
        <time>2020-07-08T10:58:00Z</time>
      </trkpt>
      <trkpt lat="47.86472" lon="-3.53587">
        <ele>52</ele>
        <time>2020-07-08T10:58:01Z</time>
      </trkpt>
      <trkpt lat="47.86476" lon="-3.53586">
        <ele>52</ele>
        <time>2020-07-08T10:58:02Z</time>
      </trkpt>
      <trkpt lat="47.86481" lon="-3.53583">
        <ele>52</ele>
        <time>2020-07-08T10:58:03Z</time>
      </trkpt>
      <trkpt lat="47.86485" lon="-3.53579">
        <ele>52</ele>
        <time>2020-07-08T10:58:04Z</time>
      </trkpt>
      <trkpt lat="47.86488" lon="-3.53575">
        <ele>52</ele>
        <time>2020-07-08T10:58:05Z</time>
      </trkpt>
      <trkpt lat="47.86491" lon="-3.5357">
        <ele>52</ele>
        <time>2020-07-08T10:58:06Z</time>
      </trkpt>
      <trkpt lat="47.86495" lon="-3.53564">
        <ele>52</ele>
        <time>2020-07-08T10:58:07Z</time>
      </trkpt>
      <trkpt lat="47.86498" lon="-3.53559">
        <ele>52</ele>
        <time>2020-07-08T10:58:08Z</time>
      </trkpt>
      <trkpt lat="47.865" lon="-3.53553">
        <ele>52</ele>
        <time>2020-07-08T10:58:09Z</time>
      </trkpt>
      <trkpt lat="47.865" lon="-3.53547">
        <ele>52</ele>
        <time>2020-07-08T10:58:10Z</time>
      </trkpt>
      <trkpt lat="47.865" lon="-3.53542">
        <ele>52</ele>
        <time>2020-07-08T10:58:11Z</time>
      </trkpt>
      <trkpt lat="47.86499" lon="-3.53536">
        <ele>52</ele>
        <time>2020-07-08T10:58:12Z</time>
      </trkpt>
      <trkpt lat="47.86497" lon="-3.53531">
        <ele>52</ele>
        <time>2020-07-08T10:58:13Z</time>
      </trkpt>
      <trkpt lat="47.86495" lon="-3.53525">
        <ele>52</ele>
        <time>2020-07-08T10:58:14Z</time>
      </trkpt>
      <trkpt lat="47.86493" lon="-3.5352">
        <ele>52</ele>
        <time>2020-07-08T10:58:15Z</time>
      </trkpt>
      <trkpt lat="47.86491" lon="-3.53514">
        <ele>52</ele>
        <time>2020-07-08T10:58:16Z</time>
      </trkpt>
      <trkpt lat="47.86489" lon="-3.53509">
        <ele>52</ele>
        <time>2020-07-08T10:58:17Z</time>
      </trkpt>
      <trkpt lat="47.86488" lon="-3.53503">
        <ele>52</ele>
        <time>2020-07-08T10:58:18Z</time>
      </trkpt>
      <trkpt lat="47.86486" lon="-3.53497">
        <ele>51.97</ele>
        <time>2020-07-08T10:58:19Z</time>
      </trkpt>
      <trkpt lat="47.86483" lon="-3.53492">
        <ele>51.86</ele>
        <time>2020-07-08T10:58:20Z</time>
      </trkpt>
      <trkpt lat="47.86481" lon="-3.53485">
        <ele>51.7</ele>
        <time>2020-07-08T10:58:21Z</time>
      </trkpt>
      <trkpt lat="47.86478" lon="-3.53479">
        <ele>51.49</ele>
        <time>2020-07-08T10:58:22Z</time>
      </trkpt>
      <trkpt lat="47.86475" lon="-3.53472">
        <ele>51.23</ele>
        <time>2020-07-08T10:58:23Z</time>
      </trkpt>
      <trkpt lat="47.86473" lon="-3.53466">
        <ele>51.08</ele>
        <time>2020-07-08T10:58:24Z</time>
      </trkpt>
      <trkpt lat="47.8647" lon="-3.53459">
        <ele>50.97</ele>
        <time>2020-07-08T10:58:25Z</time>
      </trkpt>
      <trkpt lat="47.86467" lon="-3.53452">
        <ele>50.86</ele>
        <time>2020-07-08T10:58:26Z</time>
      </trkpt>
      <trkpt lat="47.86464" lon="-3.53446">
        <ele>50.75</ele>
        <time>2020-07-08T10:58:27Z</time>
      </trkpt>
      <trkpt lat="47.86461" lon="-3.5344">
        <ele>50.53</ele>
        <time>2020-07-08T10:58:28Z</time>
      </trkpt>
      <trkpt lat="47.86457" lon="-3.53432">
        <ele>50.17</ele>
        <time>2020-07-08T10:58:29Z</time>
      </trkpt>
      <trkpt lat="47.86453" lon="-3.53424">
        <ele>49.77</ele>
        <time>2020-07-08T10:58:30Z</time>
      </trkpt>
      <trkpt lat="47.8645" lon="-3.53417">
        <ele>49.37</ele>
        <time>2020-07-08T10:58:31Z</time>
      </trkpt>
      <trkpt lat="47.86446" lon="-3.53409">
        <ele>49.15</ele>
        <time>2020-07-08T10:58:32Z</time>
      </trkpt>
      <trkpt lat="47.86443" lon="-3.53403">
        <ele>49</ele>
        <time>2020-07-08T10:58:33Z</time>
      </trkpt>
      <trkpt lat="47.86439" lon="-3.53397">
        <ele>48.88</ele>
        <time>2020-07-08T10:58:34Z</time>
      </trkpt>
      <trkpt lat="47.86436" lon="-3.5339">
        <ele>48.75</ele>
        <time>2020-07-08T10:58:35Z</time>
      </trkpt>
      <trkpt lat="47.86434" lon="-3.53382">
        <ele>48.72</ele>
        <time>2020-07-08T10:58:36Z</time>
      </trkpt>
      <trkpt lat="47.86433" lon="-3.53374">
        <ele>48.79</ele>
        <time>2020-07-08T10:58:37Z</time>
      </trkpt>
      <trkpt lat="47.86434" lon="-3.53365">
        <ele>48.9</ele>
        <time>2020-07-08T10:58:38Z</time>
      </trkpt>
      <trkpt lat="47.86435" lon="-3.53358">
        <ele>49.03</ele>
        <time>2020-07-08T10:58:39Z</time>
      </trkpt>
      <trkpt lat="47.86438" lon="-3.53351">
        <ele>49.2</ele>
        <time>2020-07-08T10:58:40Z</time>
      </trkpt>
      <trkpt lat="47.86442" lon="-3.53347">
        <ele>49.39</ele>
        <time>2020-07-08T10:58:41Z</time>
      </trkpt>
      <trkpt lat="47.86446" lon="-3.53344">
        <ele>49.57</ele>
        <time>2020-07-08T10:58:42Z</time>
      </trkpt>
      <trkpt lat="47.86451" lon="-3.53341">
        <ele>49.73</ele>
        <time>2020-07-08T10:58:43Z</time>
      </trkpt>
      <trkpt lat="47.86456" lon="-3.53338">
        <ele>49.85</ele>
        <time>2020-07-08T10:58:44Z</time>
      </trkpt>
      <trkpt lat="47.8646" lon="-3.53336">
        <ele>49.93</ele>
        <time>2020-07-08T10:58:45Z</time>
      </trkpt>
      <trkpt lat="47.86465" lon="-3.53334">
        <ele>49.98</ele>
        <time>2020-07-08T10:58:46Z</time>
      </trkpt>
      <trkpt lat="47.8647" lon="-3.53331">
        <ele>50.06</ele>
        <time>2020-07-08T10:58:47Z</time>
      </trkpt>
      <trkpt lat="47.86475" lon="-3.53328">
        <ele>50.22</ele>
        <time>2020-07-08T10:58:48Z</time>
      </trkpt>
      <trkpt lat="47.86481" lon="-3.53325">
        <ele>50.43</ele>
        <time>2020-07-08T10:58:49Z</time>
      </trkpt>
      <trkpt lat="47.86486" lon="-3.53322">
        <ele>50.62</ele>
        <time>2020-07-08T10:58:50Z</time>
      </trkpt>
      <trkpt lat="47.86491" lon="-3.5332">
        <ele>50.77</ele>
        <time>2020-07-08T10:58:51Z</time>
      </trkpt>
      <trkpt lat="47.86497" lon="-3.53318">
        <ele>50.9</ele>
        <time>2020-07-08T10:58:52Z</time>
      </trkpt>
      <trkpt lat="47.86502" lon="-3.53316">
        <ele>50.97</ele>
        <time>2020-07-08T10:58:53Z</time>
      </trkpt>
      <trkpt lat="47.86507" lon="-3.53313">
        <ele>50.99</ele>
        <time>2020-07-08T10:58:54Z</time>
      </trkpt>
      <trkpt lat="47.86513" lon="-3.53311">
        <ele>51</ele>
        <time>2020-07-08T10:58:55Z</time>
      </trkpt>
      <trkpt lat="47.86518" lon="-3.53309">
        <ele>51</ele>
        <time>2020-07-08T10:58:56Z</time>
      </trkpt>
      <trkpt lat="47.86523" lon="-3.53306">
        <ele>51</ele>
        <time>2020-07-08T10:58:57Z</time>
      </trkpt>
      <trkpt lat="47.86528" lon="-3.53304">
        <ele>51.04</ele>
        <time>2020-07-08T10:58:58Z</time>
      </trkpt>
      <trkpt lat="47.86533" lon="-3.53302">
        <ele>51.1</ele>
        <time>2020-07-08T10:58:59Z</time>
      </trkpt>
      <trkpt lat="47.86538" lon="-3.53301">
        <ele>51.15</ele>
        <time>2020-07-08T10:59:00Z</time>
      </trkpt>
      <trkpt lat="47.86542" lon="-3.533">
        <ele>51.19</ele>
        <time>2020-07-08T10:59:01Z</time>
      </trkpt>
      <trkpt lat="47.86546" lon="-3.53298">
        <ele>51.24</ele>
        <time>2020-07-08T10:59:02Z</time>
      </trkpt>
      <trkpt lat="47.8655" lon="-3.53296">
        <ele>51.32</ele>
        <time>2020-07-08T10:59:03Z</time>
      </trkpt>
      <trkpt lat="47.86553" lon="-3.53294">
        <ele>51.39</ele>
        <time>2020-07-08T10:59:04Z</time>
      </trkpt>
      <trkpt lat="47.86557" lon="-3.53292">
        <ele>51.42</ele>
        <time>2020-07-08T10:59:05Z</time>
      </trkpt>
      <trkpt lat="47.86562" lon="-3.53289">
        <ele>51.39</ele>
        <time>2020-07-08T10:59:06Z</time>
      </trkpt>
      <trkpt lat="47.86566" lon="-3.53287">
        <ele>51.32</ele>
        <time>2020-07-08T10:59:07Z</time>
      </trkpt>
      <trkpt lat="47.8657" lon="-3.53285">
        <ele>51.24</ele>
        <time>2020-07-08T10:59:08Z</time>
      </trkpt>
      <trkpt lat="47.86575" lon="-3.53283">
        <ele>51.15</ele>
        <time>2020-07-08T10:59:09Z</time>
      </trkpt>
      <trkpt lat="47.86579" lon="-3.53281">
        <ele>51.06</ele>
        <time>2020-07-08T10:59:10Z</time>
      </trkpt>
      <trkpt lat="47.86584" lon="-3.5328">
        <ele>50.95</ele>
        <time>2020-07-08T10:59:11Z</time>
      </trkpt>
      <trkpt lat="47.86587" lon="-3.5328">
        <ele>50.92</ele>
        <time>2020-07-08T10:59:12Z</time>
      </trkpt>
      <trkpt lat="47.86589" lon="-3.5328">
        <ele>50.9</ele>
        <time>2020-07-08T10:59:13Z</time>
      </trkpt>
      <trkpt lat="47.86591" lon="-3.5328">
        <ele>50.89</ele>
        <time>2020-07-08T10:59:14Z</time>
      </trkpt>
      <trkpt lat="47.86594" lon="-3.53281">
        <ele>50.85</ele>
        <time>2020-07-08T10:59:15Z</time>
      </trkpt>
      <trkpt lat="47.86597" lon="-3.53283">
        <ele>50.77</ele>
        <time>2020-07-08T10:59:16Z</time>
      </trkpt>
      <trkpt lat="47.86601" lon="-3.53286">
        <ele>50.58</ele>
        <time>2020-07-08T10:59:17Z</time>
      </trkpt>
      <trkpt lat="47.86604" lon="-3.53291">
        <ele>50.27</ele>
        <time>2020-07-08T10:59:18Z</time>
      </trkpt>
      <trkpt lat="47.86608" lon="-3.53298">
        <ele>49.83</ele>
        <time>2020-07-08T10:59:19Z</time>
      </trkpt>
      <trkpt lat="47.86611" lon="-3.53306">
        <ele>49.26</ele>
        <time>2020-07-08T10:59:20Z</time>
      </trkpt>
      <trkpt lat="47.86613" lon="-3.53314">
        <ele>49.17</ele>
        <time>2020-07-08T10:59:21Z</time>
      </trkpt>
      <trkpt lat="47.86616" lon="-3.53323">
        <ele>49.23</ele>
        <time>2020-07-08T10:59:22Z</time>
      </trkpt>
      <trkpt lat="47.86619" lon="-3.53331">
        <ele>49.28</ele>
        <time>2020-07-08T10:59:23Z</time>
      </trkpt>
      <trkpt lat="47.86622" lon="-3.53339">
        <ele>49.34</ele>
        <time>2020-07-08T10:59:24Z</time>
      </trkpt>
      <trkpt lat="47.86626" lon="-3.53348">
        <ele>49.25</ele>
        <time>2020-07-08T10:59:25Z</time>
      </trkpt>
      <trkpt lat="47.86631" lon="-3.53355">
        <ele>48.94</ele>
        <time>2020-07-08T10:59:26Z</time>
      </trkpt>
      <trkpt lat="47.86635" lon="-3.53364">
        <ele>48.41</ele>
        <time>2020-07-08T10:59:27Z</time>
      </trkpt>
      <trkpt lat="47.86639" lon="-3.53373">
        <ele>47.83</ele>
        <time>2020-07-08T10:59:28Z</time>
      </trkpt>
      <trkpt lat="47.86644" lon="-3.53382">
        <ele>47.55</ele>
        <time>2020-07-08T10:59:29Z</time>
      </trkpt>
      <trkpt lat="47.86648" lon="-3.53391">
        <ele>47.32</ele>
        <time>2020-07-08T10:59:30Z</time>
      </trkpt>
      <trkpt lat="47.86652" lon="-3.534">
        <ele>46.91</ele>
        <time>2020-07-08T10:59:31Z</time>
      </trkpt>
      <trkpt lat="47.86657" lon="-3.53408">
        <ele>46.29</ele>
        <time>2020-07-08T10:59:32Z</time>
      </trkpt>
      <trkpt lat="47.86662" lon="-3.53418">
        <ele>45.48</ele>
        <time>2020-07-08T10:59:33Z</time>
      </trkpt>
      <trkpt lat="47.86667" lon="-3.53427">
        <ele>44.9</ele>
        <time>2020-07-08T10:59:34Z</time>
      </trkpt>
      <trkpt lat="47.86671" lon="-3.53436">
        <ele>44.51</ele>
        <time>2020-07-08T10:59:35Z</time>
      </trkpt>
      <trkpt lat="47.86675" lon="-3.53445">
        <ele>44.14</ele>
        <time>2020-07-08T10:59:36Z</time>
      </trkpt>
      <trkpt lat="47.8668" lon="-3.53454">
        <ele>43.81</ele>
        <time>2020-07-08T10:59:37Z</time>
      </trkpt>
      <trkpt lat="47.86684" lon="-3.53463">
        <ele>43.36</ele>
        <time>2020-07-08T10:59:38Z</time>
      </trkpt>
      <trkpt lat="47.8669" lon="-3.53471">
        <ele>42.7</ele>
        <time>2020-07-08T10:59:39Z</time>
      </trkpt>
      <trkpt lat="47.86695" lon="-3.5348">
        <ele>41.99</ele>
        <time>2020-07-08T10:59:40Z</time>
      </trkpt>
      <trkpt lat="47.86699" lon="-3.53489">
        <ele>41.08</ele>
        <time>2020-07-08T10:59:41Z</time>
      </trkpt>
      <trkpt lat="47.86704" lon="-3.53499">
        <ele>40.05</ele>
        <time>2020-07-08T10:59:42Z</time>
      </trkpt>
      <trkpt lat="47.86709" lon="-3.53508">
        <ele>39.29</ele>
        <time>2020-07-08T10:59:43Z</time>
      </trkpt>
      <trkpt lat="47.86713" lon="-3.53517">
        <ele>38.77</ele>
        <time>2020-07-08T10:59:44Z</time>
      </trkpt>
      <trkpt lat="47.86717" lon="-3.53526">
        <ele>38.44</ele>
        <time>2020-07-08T10:59:45Z</time>
      </trkpt>
      <trkpt lat="47.86722" lon="-3.53535">
        <ele>38.33</ele>
        <time>2020-07-08T10:59:46Z</time>
      </trkpt>
      <trkpt lat="47.86727" lon="-3.53545">
        <ele>38.01</ele>
        <time>2020-07-08T10:59:47Z</time>
      </trkpt>
      <trkpt lat="47.86732" lon="-3.53554">
        <ele>37.66</ele>
        <time>2020-07-08T10:59:48Z</time>
      </trkpt>
      <trkpt lat="47.86737" lon="-3.53564">
        <ele>37.12</ele>
        <time>2020-07-08T10:59:49Z</time>
      </trkpt>
      <trkpt lat="47.86742" lon="-3.53573">
        <ele>36.64</ele>
        <time>2020-07-08T10:59:50Z</time>
      </trkpt>
      <trkpt lat="47.86746" lon="-3.53583">
        <ele>36.37</ele>
        <time>2020-07-08T10:59:51Z</time>
      </trkpt>
      <trkpt lat="47.86751" lon="-3.53593">
        <ele>36.03</ele>
        <time>2020-07-08T10:59:52Z</time>
      </trkpt>
      <trkpt lat="47.86756" lon="-3.53602">
        <ele>35.55</ele>
        <time>2020-07-08T10:59:53Z</time>
      </trkpt>
      <trkpt lat="47.8676" lon="-3.53613">
        <ele>35.09</ele>
        <time>2020-07-08T10:59:54Z</time>
      </trkpt>
      <trkpt lat="47.86766" lon="-3.53622">
        <ele>34.71</ele>
        <time>2020-07-08T10:59:55Z</time>
      </trkpt>
      <trkpt lat="47.8677" lon="-3.53632">
        <ele>34.47</ele>
        <time>2020-07-08T10:59:56Z</time>
      </trkpt>
      <trkpt lat="47.86779" lon="-3.53651">
        <ele>34.34</ele>
        <time>2020-07-08T10:59:58Z</time>
      </trkpt>
      <trkpt lat="47.86784" lon="-3.53661">
        <ele>34.22</ele>
        <time>2020-07-08T10:59:59Z</time>
      </trkpt>
      <trkpt lat="47.86787" lon="-3.53672">
        <ele>34.07</ele>
        <time>2020-07-08T11:00:00Z</time>
      </trkpt>
      <trkpt lat="47.86791" lon="-3.53682">
        <ele>33.9</ele>
        <time>2020-07-08T11:00:01Z</time>
      </trkpt>
      <trkpt lat="47.86795" lon="-3.53693">
        <ele>33.8</ele>
        <time>2020-07-08T11:00:02Z</time>
      </trkpt>
      <trkpt lat="47.86797" lon="-3.53703">
        <ele>33.49</ele>
        <time>2020-07-08T11:00:03Z</time>
      </trkpt>
      <trkpt lat="47.868" lon="-3.53714">
        <ele>33.03</ele>
        <time>2020-07-08T11:00:04Z</time>
      </trkpt>
      <trkpt lat="47.86802" lon="-3.53724">
        <ele>32.55</ele>
        <time>2020-07-08T11:00:05Z</time>
      </trkpt>
      <trkpt lat="47.86805" lon="-3.53733">
        <ele>32.23</ele>
        <time>2020-07-08T11:00:06Z</time>
      </trkpt>
      <trkpt lat="47.86807" lon="-3.53742">
        <ele>32.03</ele>
        <time>2020-07-08T11:00:07Z</time>
      </trkpt>
      <trkpt lat="47.86809" lon="-3.53749">
        <ele>31.92</ele>
        <time>2020-07-08T11:00:08Z</time>
      </trkpt>
      <trkpt lat="47.8681" lon="-3.53758">
        <ele>31.82</ele>
        <time>2020-07-08T11:00:09Z</time>
      </trkpt>
      <trkpt lat="47.86811" lon="-3.53768">
        <ele>31.72</ele>
        <time>2020-07-08T11:00:10Z</time>
      </trkpt>
      <trkpt lat="47.86812" lon="-3.53776">
        <ele>31.61</ele>
        <time>2020-07-08T11:00:11Z</time>
      </trkpt>
      <trkpt lat="47.86812" lon="-3.53786">
        <ele>31.35</ele>
        <time>2020-07-08T11:00:12Z</time>
      </trkpt>
      <trkpt lat="47.86814" lon="-3.53795">
        <ele>30.97</ele>
        <time>2020-07-08T11:00:13Z</time>
      </trkpt>
      <trkpt lat="47.86815" lon="-3.53804">
        <ele>30.57</ele>
        <time>2020-07-08T11:00:14Z</time>
      </trkpt>
      <trkpt lat="47.86816" lon="-3.53814">
        <ele>30.23</ele>
        <time>2020-07-08T11:00:15Z</time>
      </trkpt>
      <trkpt lat="47.86818" lon="-3.53824">
        <ele>29.94</ele>
        <time>2020-07-08T11:00:16Z</time>
      </trkpt>
      <trkpt lat="47.86819" lon="-3.53834">
        <ele>29.63</ele>
        <time>2020-07-08T11:00:17Z</time>
      </trkpt>
      <trkpt lat="47.86821" lon="-3.53844">
        <ele>29.15</ele>
        <time>2020-07-08T11:00:18Z</time>
      </trkpt>
      <trkpt lat="47.86822" lon="-3.53855">
        <ele>28.68</ele>
        <time>2020-07-08T11:00:19Z</time>
      </trkpt>
      <trkpt lat="47.86823" lon="-3.53866">
        <ele>28.13</ele>
        <time>2020-07-08T11:00:20Z</time>
      </trkpt>
      <trkpt lat="47.86824" lon="-3.53876">
        <ele>27.53</ele>
        <time>2020-07-08T11:00:21Z</time>
      </trkpt>
      <trkpt lat="47.86825" lon="-3.53887">
        <ele>26.93</ele>
        <time>2020-07-08T11:00:22Z</time>
      </trkpt>
      <trkpt lat="47.86827" lon="-3.53899">
        <ele>26.37</ele>
        <time>2020-07-08T11:00:23Z</time>
      </trkpt>
      <trkpt lat="47.86828" lon="-3.5391">
        <ele>25.97</ele>
        <time>2020-07-08T11:00:24Z</time>
      </trkpt>
      <trkpt lat="47.86829" lon="-3.53921">
        <ele>25.66</ele>
        <time>2020-07-08T11:00:25Z</time>
      </trkpt>
      <trkpt lat="47.86831" lon="-3.53932">
        <ele>25.33</ele>
        <time>2020-07-08T11:00:26Z</time>
      </trkpt>
      <trkpt lat="47.86833" lon="-3.53943">
        <ele>25.1</ele>
        <time>2020-07-08T11:00:27Z</time>
      </trkpt>
      <trkpt lat="47.86835" lon="-3.53954">
        <ele>24.78</ele>
        <time>2020-07-08T11:00:28Z</time>
      </trkpt>
      <trkpt lat="47.86836" lon="-3.53965">
        <ele>24.45</ele>
        <time>2020-07-08T11:00:29Z</time>
      </trkpt>
      <trkpt lat="47.86838" lon="-3.53976">
        <ele>24.17</ele>
        <time>2020-07-08T11:00:30Z</time>
      </trkpt>
      <trkpt lat="47.86839" lon="-3.53987">
        <ele>23.9</ele>
        <time>2020-07-08T11:00:31Z</time>
      </trkpt>
      <trkpt lat="47.86841" lon="-3.53997">
        <ele>23.71</ele>
        <time>2020-07-08T11:00:32Z</time>
      </trkpt>
      <trkpt lat="47.86843" lon="-3.54007">
        <ele>23.69</ele>
        <time>2020-07-08T11:00:33Z</time>
      </trkpt>
      <trkpt lat="47.86845" lon="-3.54017">
        <ele>23.81</ele>
        <time>2020-07-08T11:00:34Z</time>
      </trkpt>
      <trkpt lat="47.86847" lon="-3.54028">
        <ele>23.92</ele>
        <time>2020-07-08T11:00:35Z</time>
      </trkpt>
      <trkpt lat="47.86849" lon="-3.54038">
        <ele>23.78</ele>
        <time>2020-07-08T11:00:36Z</time>
      </trkpt>
      <trkpt lat="47.86851" lon="-3.54049">
        <ele>23.56</ele>
        <time>2020-07-08T11:00:37Z</time>
      </trkpt>
      <trkpt lat="47.86853" lon="-3.5406">
        <ele>23.25</ele>
        <time>2020-07-08T11:00:38Z</time>
      </trkpt>
      <trkpt lat="47.86855" lon="-3.54071">
        <ele>22.77</ele>
        <time>2020-07-08T11:00:39Z</time>
      </trkpt>
      <trkpt lat="47.86857" lon="-3.54082">
        <ele>22.2</ele>
        <time>2020-07-08T11:00:40Z</time>
      </trkpt>
      <trkpt lat="47.86859" lon="-3.54093">
        <ele>21.57</ele>
        <time>2020-07-08T11:00:41Z</time>
      </trkpt>
      <trkpt lat="47.86862" lon="-3.54103">
        <ele>20.97</ele>
        <time>2020-07-08T11:00:42Z</time>
      </trkpt>
      <trkpt lat="47.86864" lon="-3.54114">
        <ele>20.62</ele>
        <time>2020-07-08T11:00:43Z</time>
      </trkpt>
      <trkpt lat="47.86867" lon="-3.54124">
        <ele>20.53</ele>
        <time>2020-07-08T11:00:44Z</time>
      </trkpt>
      <trkpt lat="47.86871" lon="-3.54135">
        <ele>20.55</ele>
        <time>2020-07-08T11:00:45Z</time>
      </trkpt>
      <trkpt lat="47.86874" lon="-3.54145">
        <ele>20.4</ele>
        <time>2020-07-08T11:00:46Z</time>
      </trkpt>
      <trkpt lat="47.86878" lon="-3.54156">
        <ele>19.91</ele>
        <time>2020-07-08T11:00:47Z</time>
      </trkpt>
      <trkpt lat="47.86881" lon="-3.54166">
        <ele>19.15</ele>
        <time>2020-07-08T11:00:48Z</time>
      </trkpt>
      <trkpt lat="47.86885" lon="-3.54176">
        <ele>18.24</ele>
        <time>2020-07-08T11:00:49Z</time>
      </trkpt>
      <trkpt lat="47.86891" lon="-3.54185">
        <ele>17.51</ele>
        <time>2020-07-08T11:00:50Z</time>
      </trkpt>
      <trkpt lat="47.86898" lon="-3.54194">
        <ele>16.99</ele>
        <time>2020-07-08T11:00:51Z</time>
      </trkpt>
      <trkpt lat="47.86905" lon="-3.54202">
        <ele>16.66</ele>
        <time>2020-07-08T11:00:52Z</time>
      </trkpt>
      <trkpt lat="47.86911" lon="-3.54209">
        <ele>16.54</ele>
        <time>2020-07-08T11:00:53Z</time>
      </trkpt>
      <trkpt lat="47.86918" lon="-3.54216">
        <ele>16.53</ele>
        <time>2020-07-08T11:00:54Z</time>
      </trkpt>
      <trkpt lat="47.86924" lon="-3.54222">
        <ele>16.34</ele>
        <time>2020-07-08T11:00:55Z</time>
      </trkpt>
      <trkpt lat="47.86931" lon="-3.54229">
        <ele>15.91</ele>
        <time>2020-07-08T11:00:56Z</time>
      </trkpt>
      <trkpt lat="47.86937" lon="-3.54237">
        <ele>15.39</ele>
        <time>2020-07-08T11:00:57Z</time>
      </trkpt>
      <trkpt lat="47.86944" lon="-3.54245">
        <ele>14.78</ele>
        <time>2020-07-08T11:00:58Z</time>
      </trkpt>
      <trkpt lat="47.8695" lon="-3.54254">
        <ele>14.45</ele>
        <time>2020-07-08T11:00:59Z</time>
      </trkpt>
      <trkpt lat="47.86955" lon="-3.54263">
        <ele>14.17</ele>
        <time>2020-07-08T11:01:00Z</time>
      </trkpt>
      <trkpt lat="47.8696" lon="-3.54273">
        <ele>13.76</ele>
        <time>2020-07-08T11:01:01Z</time>
      </trkpt>
      <trkpt lat="47.86964" lon="-3.54283">
        <ele>13.29</ele>
        <time>2020-07-08T11:01:02Z</time>
      </trkpt>
      <trkpt lat="47.86968" lon="-3.54295">
        <ele>12.78</ele>
        <time>2020-07-08T11:01:03Z</time>
      </trkpt>
      <trkpt lat="47.86971" lon="-3.54306">
        <ele>12.17</ele>
        <time>2020-07-08T11:01:04Z</time>
      </trkpt>
      <trkpt lat="47.86973" lon="-3.54319">
        <ele>11.5</ele>
        <time>2020-07-08T11:01:05Z</time>
      </trkpt>
      <trkpt lat="47.86976" lon="-3.54331">
        <ele>10.84</ele>
        <time>2020-07-08T11:01:06Z</time>
      </trkpt>
      <trkpt lat="47.86977" lon="-3.54343">
        <ele>10.33</ele>
        <time>2020-07-08T11:01:07Z</time>
      </trkpt>
      <trkpt lat="47.86979" lon="-3.54355">
        <ele>9.93</ele>
        <time>2020-07-08T11:01:08Z</time>
      </trkpt>
      <trkpt lat="47.86982" lon="-3.54367">
        <ele>9.52</ele>
        <time>2020-07-08T11:01:09Z</time>
      </trkpt>
      <trkpt lat="47.86987" lon="-3.54378">
        <ele>9.04</ele>
        <time>2020-07-08T11:01:10Z</time>
      </trkpt>
      <trkpt lat="47.86993" lon="-3.54387">
        <ele>8.44</ele>
        <time>2020-07-08T11:01:11Z</time>
      </trkpt>
      <trkpt lat="47.86999" lon="-3.54395">
        <ele>7.98</ele>
        <time>2020-07-08T11:01:12Z</time>
      </trkpt>
      <trkpt lat="47.87007" lon="-3.54401">
        <ele>7.69</ele>
        <time>2020-07-08T11:01:13Z</time>
      </trkpt>
      <trkpt lat="47.87014" lon="-3.54406">
        <ele>7.47</ele>
        <time>2020-07-08T11:01:14Z</time>
      </trkpt>
      <trkpt lat="47.87021" lon="-3.54411">
        <ele>7.27</ele>
        <time>2020-07-08T11:01:15Z</time>
      </trkpt>
      <trkpt lat="47.87029" lon="-3.54416">
        <ele>7.11</ele>
        <time>2020-07-08T11:01:16Z</time>
      </trkpt>
      <trkpt lat="47.87036" lon="-3.5442">
        <ele>6.95</ele>
        <time>2020-07-08T11:01:17Z</time>
      </trkpt>
      <trkpt lat="47.87044" lon="-3.54424">
        <ele>6.81</ele>
        <time>2020-07-08T11:01:18Z</time>
      </trkpt>
      <trkpt lat="47.87051" lon="-3.54427">
        <ele>6.68</ele>
        <time>2020-07-08T11:01:19Z</time>
      </trkpt>
      <trkpt lat="47.87058" lon="-3.5443">
        <ele>6.67</ele>
        <time>2020-07-08T11:01:20Z</time>
      </trkpt>
      <trkpt lat="47.87065" lon="-3.54434">
        <ele>6.77</ele>
        <time>2020-07-08T11:01:21Z</time>
      </trkpt>
      <trkpt lat="47.87072" lon="-3.54437">
        <ele>6.77</ele>
        <time>2020-07-08T11:01:22Z</time>
      </trkpt>
      <trkpt lat="47.87078" lon="-3.5444">
        <ele>6.62</ele>
        <time>2020-07-08T11:01:23Z</time>
      </trkpt>
      <trkpt lat="47.87085" lon="-3.54443">
        <ele>6.2</ele>
        <time>2020-07-08T11:01:24Z</time>
      </trkpt>
      <trkpt lat="47.87091" lon="-3.54446">
        <ele>5.43</ele>
        <time>2020-07-08T11:01:25Z</time>
      </trkpt>
      <trkpt lat="47.87097" lon="-3.54449">
        <ele>4.74</ele>
        <time>2020-07-08T11:01:26Z</time>
      </trkpt>
      <trkpt lat="47.87102" lon="-3.54452">
        <ele>4.19</ele>
        <time>2020-07-08T11:01:27Z</time>
      </trkpt>
      <trkpt lat="47.87108" lon="-3.54454">
        <ele>3.75</ele>
        <time>2020-07-08T11:01:28Z</time>
      </trkpt>
      <trkpt lat="47.87114" lon="-3.54456">
        <ele>3.63</ele>
        <time>2020-07-08T11:01:29Z</time>
      </trkpt>
      <trkpt lat="47.87119" lon="-3.54458">
        <ele>3.84</ele>
        <time>2020-07-08T11:01:30Z</time>
      </trkpt>
      <trkpt lat="47.87124" lon="-3.5446">
        <ele>4.12</ele>
        <time>2020-07-08T11:01:31Z</time>
      </trkpt>
      <trkpt lat="47.87129" lon="-3.54463">
        <ele>4.41</ele>
        <time>2020-07-08T11:01:32Z</time>
      </trkpt>
      <trkpt lat="47.87134" lon="-3.54465">
        <ele>4.69</ele>
        <time>2020-07-08T11:01:33Z</time>
      </trkpt>
      <trkpt lat="47.8714" lon="-3.54468">
        <ele>4.91</ele>
        <time>2020-07-08T11:01:34Z</time>
      </trkpt>
      <trkpt lat="47.87145" lon="-3.5447">
        <ele>4.97</ele>
        <time>2020-07-08T11:01:35Z</time>
      </trkpt>
      <trkpt lat="47.8715" lon="-3.54471">
        <ele>4.99</ele>
        <time>2020-07-08T11:01:36Z</time>
      </trkpt>
      <trkpt lat="47.87156" lon="-3.54473">
        <ele>5</ele>
        <time>2020-07-08T11:01:37Z</time>
      </trkpt>
      <trkpt lat="47.8716" lon="-3.54475">
        <ele>5</ele>
        <time>2020-07-08T11:01:38Z</time>
      </trkpt>
      <trkpt lat="47.87164" lon="-3.5448">
        <ele>5</ele>
        <time>2020-07-08T11:01:39Z</time>
      </trkpt>
      <trkpt lat="47.87166" lon="-3.54486">
        <ele>5</ele>
        <time>2020-07-08T11:01:40Z</time>
      </trkpt>
      <trkpt lat="47.87167" lon="-3.54492">
        <ele>5</ele>
        <time>2020-07-08T11:01:41Z</time>
      </trkpt>
      <trkpt lat="47.87164" lon="-3.54497">
        <ele>5</ele>
        <time>2020-07-08T11:01:42Z</time>
      </trkpt>
      <trkpt lat="47.87162" lon="-3.54503">
        <ele>4.93</ele>
        <time>2020-07-08T11:01:43Z</time>
      </trkpt>
      <trkpt lat="47.8716" lon="-3.54508">
        <ele>4.77</ele>
        <time>2020-07-08T11:01:44Z</time>
      </trkpt>
      <trkpt lat="47.87159" lon="-3.54514">
        <ele>4.57</ele>
        <time>2020-07-08T11:01:45Z</time>
      </trkpt>
      <trkpt lat="47.87157" lon="-3.54521">
        <ele>4.35</ele>
        <time>2020-07-08T11:01:46Z</time>
      </trkpt>
      <trkpt lat="47.87155" lon="-3.54528">
        <ele>4.11</ele>
        <time>2020-07-08T11:01:47Z</time>
      </trkpt>
      <trkpt lat="47.87154" lon="-3.54534">
        <ele>3.95</ele>
        <time>2020-07-08T11:01:48Z</time>
      </trkpt>
      <trkpt lat="47.87153" lon="-3.54541">
        <ele>3.83</ele>
        <time>2020-07-08T11:01:49Z</time>
      </trkpt>
      <trkpt lat="47.87151" lon="-3.54547">
        <ele>3.73</ele>
        <time>2020-07-08T11:01:50Z</time>
      </trkpt>
      <trkpt lat="47.8715" lon="-3.54553">
        <ele>3.66</ele>
        <time>2020-07-08T11:01:51Z</time>
      </trkpt>
      <trkpt lat="47.87149" lon="-3.54557">
        <ele>3.83</ele>
        <time>2020-07-08T11:01:52Z</time>
      </trkpt>
      <trkpt lat="47.87146" lon="-3.54562">
        <ele>4.35</ele>
        <time>2020-07-08T11:01:53Z</time>
      </trkpt>
      <trkpt lat="47.87143" lon="-3.54564">
        <ele>4.81</ele>
        <time>2020-07-08T11:01:54Z</time>
      </trkpt>
      <trkpt lat="47.87137" lon="-3.54563">
        <ele>4.92</ele>
        <time>2020-07-08T11:01:55Z</time>
      </trkpt>
      <trkpt lat="47.87132" lon="-3.54561">
        <ele>4.74</ele>
        <time>2020-07-08T11:01:56Z</time>
      </trkpt>
      <trkpt lat="47.87127" lon="-3.54559">
        <ele>4.52</ele>
        <time>2020-07-08T11:01:57Z</time>
      </trkpt>
      <trkpt lat="47.87121" lon="-3.54558">
        <ele>4.33</ele>
        <time>2020-07-08T11:01:58Z</time>
      </trkpt>
      <trkpt lat="47.87114" lon="-3.54557">
        <ele>4.16</ele>
        <time>2020-07-08T11:01:59Z</time>
      </trkpt>
      <trkpt lat="47.87108" lon="-3.54556">
        <ele>3.99</ele>
        <time>2020-07-08T11:02:00Z</time>
      </trkpt>
      <trkpt lat="47.87102" lon="-3.54556">
        <ele>3.77</ele>
        <time>2020-07-08T11:02:01Z</time>
      </trkpt>
      <trkpt lat="47.87096" lon="-3.54557">
        <ele>3.64</ele>
        <time>2020-07-08T11:02:02Z</time>
      </trkpt>
      <trkpt lat="47.8709" lon="-3.54558">
        <ele>3.54</ele>
        <time>2020-07-08T11:02:03Z</time>
      </trkpt>
      <trkpt lat="47.87084" lon="-3.54559">
        <ele>3.43</ele>
        <time>2020-07-08T11:02:04Z</time>
      </trkpt>
      <trkpt lat="47.87078" lon="-3.5456">
        <ele>3.3</ele>
        <time>2020-07-08T11:02:05Z</time>
      </trkpt>
      <trkpt lat="47.87072" lon="-3.5456">
        <ele>3.16</ele>
        <time>2020-07-08T11:02:06Z</time>
      </trkpt>
      <trkpt lat="47.87066" lon="-3.5456">
        <ele>2.97</ele>
        <time>2020-07-08T11:02:07Z</time>
      </trkpt>
      <trkpt lat="47.87061" lon="-3.5456">
        <ele>2.79</ele>
        <time>2020-07-08T11:02:08Z</time>
      </trkpt>
      <trkpt lat="47.87055" lon="-3.54561">
        <ele>2.67</ele>
        <time>2020-07-08T11:02:09Z</time>
      </trkpt>
      <trkpt lat="47.87049" lon="-3.54561">
        <ele>2.8</ele>
        <time>2020-07-08T11:02:10Z</time>
      </trkpt>
      <trkpt lat="47.87044" lon="-3.54561">
        <ele>2.99</ele>
        <time>2020-07-08T11:02:11Z</time>
      </trkpt>
      <trkpt lat="47.87039" lon="-3.54561">
        <ele>3.19</ele>
        <time>2020-07-08T11:02:12Z</time>
      </trkpt>
      <trkpt lat="47.87033" lon="-3.5456">
        <ele>3.4</ele>
        <time>2020-07-08T11:02:13Z</time>
      </trkpt>
      <trkpt lat="47.87027" lon="-3.5456">
        <ele>3.59</ele>
        <time>2020-07-08T11:02:14Z</time>
      </trkpt>
      <trkpt lat="47.87022" lon="-3.5456">
        <ele>3.61</ele>
        <time>2020-07-08T11:02:15Z</time>
      </trkpt>
      <trkpt lat="47.87016" lon="-3.54558">
        <ele>3.48</ele>
        <time>2020-07-08T11:02:16Z</time>
      </trkpt>
      <trkpt lat="47.8701" lon="-3.54557">
        <ele>3.37</ele>
        <time>2020-07-08T11:02:17Z</time>
      </trkpt>
      <trkpt lat="47.87004" lon="-3.54557">
        <ele>3.29</ele>
        <time>2020-07-08T11:02:18Z</time>
      </trkpt>
      <trkpt lat="47.86999" lon="-3.54556">
        <ele>3.27</ele>
        <time>2020-07-08T11:02:19Z</time>
      </trkpt>
      <trkpt lat="47.86993" lon="-3.54553">
        <ele>3.77</ele>
        <time>2020-07-08T11:02:20Z</time>
      </trkpt>
      <trkpt lat="47.86989" lon="-3.5455">
        <ele>4.24</ele>
        <time>2020-07-08T11:02:21Z</time>
      </trkpt>
      <trkpt lat="47.86983" lon="-3.54546">
        <ele>4.59</ele>
        <time>2020-07-08T11:02:22Z</time>
      </trkpt>
      <trkpt lat="47.86979" lon="-3.54543">
        <ele>4.74</ele>
        <time>2020-07-08T11:02:23Z</time>
      </trkpt>
      <trkpt lat="47.86974" lon="-3.54539">
        <ele>4.74</ele>
        <time>2020-07-08T11:02:24Z</time>
      </trkpt>
      <trkpt lat="47.86969" lon="-3.54536">
        <ele>4.95</ele>
        <time>2020-07-08T11:02:25Z</time>
      </trkpt>
      <trkpt lat="47.86964" lon="-3.54532">
        <ele>5.15</ele>
        <time>2020-07-08T11:02:26Z</time>
      </trkpt>
      <trkpt lat="47.86959" lon="-3.54529">
        <ele>5.18</ele>
        <time>2020-07-08T11:02:27Z</time>
      </trkpt>
      <trkpt lat="47.86954" lon="-3.54526">
        <ele>5.25</ele>
        <time>2020-07-08T11:02:28Z</time>
      </trkpt>
      <trkpt lat="47.86949" lon="-3.54522">
        <ele>5.37</ele>
        <time>2020-07-08T11:02:29Z</time>
      </trkpt>
      <trkpt lat="47.86944" lon="-3.54519">
        <ele>5.42</ele>
        <time>2020-07-08T11:02:30Z</time>
      </trkpt>
      <trkpt lat="47.86939" lon="-3.54516">
        <ele>5.85</ele>
        <time>2020-07-08T11:02:31Z</time>
      </trkpt>
      <trkpt lat="47.86934" lon="-3.54512">
        <ele>6.14</ele>
        <time>2020-07-08T11:02:32Z</time>
      </trkpt>
      <trkpt lat="47.86929" lon="-3.54509">
        <ele>6.09</ele>
        <time>2020-07-08T11:02:33Z</time>
      </trkpt>
      <trkpt lat="47.86924" lon="-3.54506">
        <ele>5.7</ele>
        <time>2020-07-08T11:02:34Z</time>
      </trkpt>
      <trkpt lat="47.86918" lon="-3.54503">
        <ele>4.88</ele>
        <time>2020-07-08T11:02:35Z</time>
      </trkpt>
      <trkpt lat="47.86913" lon="-3.545">
        <ele>3.84</ele>
        <time>2020-07-08T11:02:36Z</time>
      </trkpt>
      <trkpt lat="47.86908" lon="-3.54497">
        <ele>3.79</ele>
        <time>2020-07-08T11:02:37Z</time>
      </trkpt>
      <trkpt lat="47.86903" lon="-3.54494">
        <ele>3.98</ele>
        <time>2020-07-08T11:02:38Z</time>
      </trkpt>
      <trkpt lat="47.86897" lon="-3.54491">
        <ele>4.19</ele>
        <time>2020-07-08T11:02:39Z</time>
      </trkpt>
      <trkpt lat="47.86892" lon="-3.54488">
        <ele>4.35</ele>
        <time>2020-07-08T11:02:40Z</time>
      </trkpt>
      <trkpt lat="47.86887" lon="-3.54484">
        <ele>4.56</ele>
        <time>2020-07-08T11:02:41Z</time>
      </trkpt>
      <trkpt lat="47.86882" lon="-3.54481">
        <ele>4.75</ele>
        <time>2020-07-08T11:02:42Z</time>
      </trkpt>
      <trkpt lat="47.86877" lon="-3.54477">
        <ele>4.75</ele>
        <time>2020-07-08T11:02:43Z</time>
      </trkpt>
      <trkpt lat="47.86872" lon="-3.54473">
        <ele>4.48</ele>
        <time>2020-07-08T11:02:44Z</time>
      </trkpt>
      <trkpt lat="47.86867" lon="-3.54468">
        <ele>4.27</ele>
        <time>2020-07-08T11:02:45Z</time>
      </trkpt>
      <trkpt lat="47.86862" lon="-3.54464">
        <ele>4.1</ele>
        <time>2020-07-08T11:02:46Z</time>
      </trkpt>
      <trkpt lat="47.86858" lon="-3.5446">
        <ele>4.4</ele>
        <time>2020-07-08T11:02:47Z</time>
      </trkpt>
      <trkpt lat="47.86855" lon="-3.54455">
        <ele>4.68</ele>
        <time>2020-07-08T11:02:48Z</time>
      </trkpt>
      <trkpt lat="47.86851" lon="-3.54451">
        <ele>4.92</ele>
        <time>2020-07-08T11:02:49Z</time>
      </trkpt>
      <trkpt lat="47.86847" lon="-3.54446">
        <ele>4.84</ele>
        <time>2020-07-08T11:02:50Z</time>
      </trkpt>
      <trkpt lat="47.86844" lon="-3.54441">
        <ele>4.82</ele>
        <time>2020-07-08T11:02:51Z</time>
      </trkpt>
      <trkpt lat="47.86841" lon="-3.54437">
        <ele>4.89</ele>
        <time>2020-07-08T11:02:52Z</time>
      </trkpt>
      <trkpt lat="47.86838" lon="-3.54432">
        <ele>4.96</ele>
        <time>2020-07-08T11:02:53Z</time>
      </trkpt>
      <trkpt lat="47.86834" lon="-3.54427">
        <ele>5</ele>
        <time>2020-07-08T11:02:54Z</time>
      </trkpt>
      <trkpt lat="47.86831" lon="-3.54423">
        <ele>5.37</ele>
        <time>2020-07-08T11:02:55Z</time>
      </trkpt>
      <trkpt lat="47.86828" lon="-3.5442">
        <ele>5.77</ele>
        <time>2020-07-08T11:02:56Z</time>
      </trkpt>
      <trkpt lat="47.86827" lon="-3.54418">
        <ele>5.78</ele>
        <time>2020-07-08T11:02:57Z</time>
      </trkpt>
      <trkpt lat="47.86825" lon="-3.54415">
        <ele>5.83</ele>
        <time>2020-07-08T11:02:58Z</time>
      </trkpt>
      <trkpt lat="47.86825" lon="-3.54411">
        <ele>5.63</ele>
        <time>2020-07-08T11:02:59Z</time>
      </trkpt>
      <trkpt lat="47.86823" lon="-3.54406">
        <ele>5.4</ele>
        <time>2020-07-08T11:03:00Z</time>
      </trkpt>
      <trkpt lat="47.86821" lon="-3.54402">
        <ele>5.21</ele>
        <time>2020-07-08T11:03:01Z</time>
      </trkpt>
      <trkpt lat="47.86817" lon="-3.54397">
        <ele>5.09</ele>
        <time>2020-07-08T11:03:02Z</time>
      </trkpt>
      <trkpt lat="47.86813" lon="-3.54393">
        <ele>4.94</ele>
        <time>2020-07-08T11:03:03Z</time>
      </trkpt>
      <trkpt lat="47.86809" lon="-3.54389">
        <ele>4.67</ele>
        <time>2020-07-08T11:03:04Z</time>
      </trkpt>
      <trkpt lat="47.86805" lon="-3.54384">
        <ele>4.54</ele>
        <time>2020-07-08T11:03:05Z</time>
      </trkpt>
      <trkpt lat="47.86801" lon="-3.54379">
        <ele>4.59</ele>
        <time>2020-07-08T11:03:06Z</time>
      </trkpt>
      <trkpt lat="47.86797" lon="-3.54374">
        <ele>4.63</ele>
        <time>2020-07-08T11:03:07Z</time>
      </trkpt>
      <trkpt lat="47.86792" lon="-3.54371">
        <ele>4.67</ele>
        <time>2020-07-08T11:03:08Z</time>
      </trkpt>
      <trkpt lat="47.86787" lon="-3.54368">
        <ele>4.65</ele>
        <time>2020-07-08T11:03:09Z</time>
      </trkpt>
      <trkpt lat="47.86782" lon="-3.54365">
        <ele>4.54</ele>
        <time>2020-07-08T11:03:10Z</time>
      </trkpt>
      <trkpt lat="47.86777" lon="-3.54362">
        <ele>4.34</ele>
        <time>2020-07-08T11:03:11Z</time>
      </trkpt>
      <trkpt lat="47.86772" lon="-3.54359">
        <ele>4.39</ele>
        <time>2020-07-08T11:03:12Z</time>
      </trkpt>
      <trkpt lat="47.86767" lon="-3.54357">
        <ele>4.65</ele>
        <time>2020-07-08T11:03:13Z</time>
      </trkpt>
      <trkpt lat="47.86762" lon="-3.54355">
        <ele>4.94</ele>
        <time>2020-07-08T11:03:14Z</time>
      </trkpt>
      <trkpt lat="47.86756" lon="-3.54353">
        <ele>5.18</ele>
        <time>2020-07-08T11:03:15Z</time>
      </trkpt>
      <trkpt lat="47.86751" lon="-3.54351">
        <ele>5.37</ele>
        <time>2020-07-08T11:03:16Z</time>
      </trkpt>
      <trkpt lat="47.86746" lon="-3.54349">
        <ele>5.38</ele>
        <time>2020-07-08T11:03:17Z</time>
      </trkpt>
      <trkpt lat="47.86741" lon="-3.54348">
        <ele>5.28</ele>
        <time>2020-07-08T11:03:18Z</time>
      </trkpt>
      <trkpt lat="47.86736" lon="-3.54346">
        <ele>5.18</ele>
        <time>2020-07-08T11:03:19Z</time>
      </trkpt>
      <trkpt lat="47.86731" lon="-3.54345">
        <ele>5.09</ele>
        <time>2020-07-08T11:03:20Z</time>
      </trkpt>
      <trkpt lat="47.86726" lon="-3.54343">
        <ele>4.98</ele>
        <time>2020-07-08T11:03:21Z</time>
      </trkpt>
      <trkpt lat="47.8672" lon="-3.54342">
        <ele>4.95</ele>
        <time>2020-07-08T11:03:22Z</time>
      </trkpt>
      <trkpt lat="47.86715" lon="-3.54341">
        <ele>4.79</ele>
        <time>2020-07-08T11:03:23Z</time>
      </trkpt>
      <trkpt lat="47.86709" lon="-3.54339">
        <ele>4.59</ele>
        <time>2020-07-08T11:03:24Z</time>
      </trkpt>
      <trkpt lat="47.86703" lon="-3.54337">
        <ele>4.37</ele>
        <time>2020-07-08T11:03:25Z</time>
      </trkpt>
      <trkpt lat="47.86698" lon="-3.54335">
        <ele>4.18</ele>
        <time>2020-07-08T11:03:26Z</time>
      </trkpt>
      <trkpt lat="47.86692" lon="-3.54332">
        <ele>4.11</ele>
        <time>2020-07-08T11:03:27Z</time>
      </trkpt>
      <trkpt lat="47.86687" lon="-3.5433">
        <ele>4.21</ele>
        <time>2020-07-08T11:03:28Z</time>
      </trkpt>
      <trkpt lat="47.86682" lon="-3.54328">
        <ele>4.32</ele>
        <time>2020-07-08T11:03:29Z</time>
      </trkpt>
      <trkpt lat="47.86677" lon="-3.54326">
        <ele>4.43</ele>
        <time>2020-07-08T11:03:30Z</time>
      </trkpt>
      <trkpt lat="47.86672" lon="-3.54325">
        <ele>4.52</ele>
        <time>2020-07-08T11:03:31Z</time>
      </trkpt>
      <trkpt lat="47.86667" lon="-3.54324">
        <ele>4.61</ele>
        <time>2020-07-08T11:03:32Z</time>
      </trkpt>
      <trkpt lat="47.86662" lon="-3.54322">
        <ele>4.64</ele>
        <time>2020-07-08T11:03:33Z</time>
      </trkpt>
      <trkpt lat="47.86658" lon="-3.54321">
        <ele>4.68</ele>
        <time>2020-07-08T11:03:34Z</time>
      </trkpt>
      <trkpt lat="47.86655" lon="-3.5432">
        <ele>4.72</ele>
        <time>2020-07-08T11:03:35Z</time>
      </trkpt>
      <trkpt lat="47.86651" lon="-3.54319">
        <ele>4.76</ele>
        <time>2020-07-08T11:03:36Z</time>
      </trkpt>
      <trkpt lat="47.86648" lon="-3.54319">
        <ele>4.81</ele>
        <time>2020-07-08T11:03:37Z</time>
      </trkpt>
      <trkpt lat="47.86644" lon="-3.54318">
        <ele>4.88</ele>
        <time>2020-07-08T11:03:38Z</time>
      </trkpt>
      <trkpt lat="47.8664" lon="-3.54317">
        <ele>4.95</ele>
        <time>2020-07-08T11:03:39Z</time>
      </trkpt>
      <trkpt lat="47.86636" lon="-3.54316">
        <ele>5.12</ele>
        <time>2020-07-08T11:03:40Z</time>
      </trkpt>
      <trkpt lat="47.86633" lon="-3.54314">
        <ele>5.35</ele>
        <time>2020-07-08T11:03:41Z</time>
      </trkpt>
      <trkpt lat="47.86629" lon="-3.54313">
        <ele>5.6</ele>
        <time>2020-07-08T11:03:42Z</time>
      </trkpt>
      <trkpt lat="47.86627" lon="-3.54311">
        <ele>5.79</ele>
        <time>2020-07-08T11:03:43Z</time>
      </trkpt>
      <trkpt lat="47.86626" lon="-3.54307">
        <ele>5.86</ele>
        <time>2020-07-08T11:03:44Z</time>
      </trkpt>
      <trkpt lat="47.86625" lon="-3.54303">
        <ele>5.86</ele>
        <time>2020-07-08T11:03:45Z</time>
      </trkpt>
      <trkpt lat="47.86624" lon="-3.543">
        <ele>5.79</ele>
        <time>2020-07-08T11:03:46Z</time>
      </trkpt>
      <trkpt lat="47.86622" lon="-3.54296">
        <ele>5.71</ele>
        <time>2020-07-08T11:03:47Z</time>
      </trkpt>
      <trkpt lat="47.86619" lon="-3.54292">
        <ele>5.6</ele>
        <time>2020-07-08T11:03:48Z</time>
      </trkpt>
      <trkpt lat="47.86616" lon="-3.54288">
        <ele>5.5</ele>
        <time>2020-07-08T11:03:49Z</time>
      </trkpt>
      <trkpt lat="47.86614" lon="-3.54283">
        <ele>5.31</ele>
        <time>2020-07-08T11:03:50Z</time>
      </trkpt>
      <trkpt lat="47.86612" lon="-3.54279">
        <ele>5.16</ele>
        <time>2020-07-08T11:03:51Z</time>
      </trkpt>
      <trkpt lat="47.86609" lon="-3.54277">
        <ele>5.06</ele>
        <time>2020-07-08T11:03:52Z</time>
      </trkpt>
      <trkpt lat="47.86608" lon="-3.54274">
        <ele>5.01</ele>
        <time>2020-07-08T11:03:53Z</time>
      </trkpt>
      <trkpt lat="47.86605" lon="-3.54271">
        <ele>4.96</ele>
        <time>2020-07-08T11:03:54Z</time>
      </trkpt>
      <trkpt lat="47.86603" lon="-3.5427">
        <ele>4.94</ele>
        <time>2020-07-08T11:03:55Z</time>
      </trkpt>
      <trkpt lat="47.866" lon="-3.5427">
        <ele>4.99</ele>
        <time>2020-07-08T11:03:56Z</time>
      </trkpt>
      <trkpt lat="47.86599" lon="-3.54271">
        <ele>5.07</ele>
        <time>2020-07-08T11:03:57Z</time>
      </trkpt>
      <trkpt lat="47.86596" lon="-3.54271">
        <ele>5.17</ele>
        <time>2020-07-08T11:03:58Z</time>
      </trkpt>
      <trkpt lat="47.86592" lon="-3.54271">
        <ele>5.24</ele>
        <time>2020-07-08T11:03:59Z</time>
      </trkpt>
      <trkpt lat="47.86589" lon="-3.5427">
        <ele>5.3</ele>
        <time>2020-07-08T11:04:00Z</time>
      </trkpt>
      <trkpt lat="47.86585" lon="-3.54269">
        <ele>5.32</ele>
        <time>2020-07-08T11:04:01Z</time>
      </trkpt>
      <trkpt lat="47.8658" lon="-3.54267">
        <ele>5.5</ele>
        <time>2020-07-08T11:04:02Z</time>
      </trkpt>
      <trkpt lat="47.86576" lon="-3.54265">
        <ele>5.76</ele>
        <time>2020-07-08T11:04:03Z</time>
      </trkpt>
      <trkpt lat="47.86572" lon="-3.54262">
        <ele>6.01</ele>
        <time>2020-07-08T11:04:04Z</time>
      </trkpt>
      <trkpt lat="47.86567" lon="-3.5426">
        <ele>6.2</ele>
        <time>2020-07-08T11:04:05Z</time>
      </trkpt>
      <trkpt lat="47.86563" lon="-3.54257">
        <ele>6.28</ele>
        <time>2020-07-08T11:04:06Z</time>
      </trkpt>
      <trkpt lat="47.86558" lon="-3.54254">
        <ele>6.29</ele>
        <time>2020-07-08T11:04:07Z</time>
      </trkpt>
      <trkpt lat="47.86554" lon="-3.5425">
        <ele>6.2</ele>
        <time>2020-07-08T11:04:08Z</time>
      </trkpt>
      <trkpt lat="47.86549" lon="-3.54247">
        <ele>6.22</ele>
        <time>2020-07-08T11:04:09Z</time>
      </trkpt>
      <trkpt lat="47.86545" lon="-3.54244">
        <ele>6.27</ele>
        <time>2020-07-08T11:04:10Z</time>
      </trkpt>
      <trkpt lat="47.86541" lon="-3.54241">
        <ele>6.27</ele>
        <time>2020-07-08T11:04:11Z</time>
      </trkpt>
      <trkpt lat="47.86536" lon="-3.54238">
        <ele>6.26</ele>
        <time>2020-07-08T11:04:12Z</time>
      </trkpt>
      <trkpt lat="47.86532" lon="-3.54236">
        <ele>6.25</ele>
        <time>2020-07-08T11:04:13Z</time>
      </trkpt>
      <trkpt lat="47.86528" lon="-3.54233">
        <ele>6.2</ele>
        <time>2020-07-08T11:04:14Z</time>
      </trkpt>
      <trkpt lat="47.86524" lon="-3.54231">
        <ele>6.34</ele>
        <time>2020-07-08T11:04:15Z</time>
      </trkpt>
      <trkpt lat="47.86519" lon="-3.54228">
        <ele>6.55</ele>
        <time>2020-07-08T11:04:16Z</time>
      </trkpt>
      <trkpt lat="47.86514" lon="-3.54225">
        <ele>6.71</ele>
        <time>2020-07-08T11:04:17Z</time>
      </trkpt>
      <trkpt lat="47.86509" lon="-3.54221">
        <ele>6.86</ele>
        <time>2020-07-08T11:04:18Z</time>
      </trkpt>
      <trkpt lat="47.86504" lon="-3.54218">
        <ele>6.97</ele>
        <time>2020-07-08T11:04:19Z</time>
      </trkpt>
      <trkpt lat="47.86498" lon="-3.54214">
        <ele>7.05</ele>
        <time>2020-07-08T11:04:20Z</time>
      </trkpt>
      <trkpt lat="47.86493" lon="-3.54209">
        <ele>7.12</ele>
        <time>2020-07-08T11:04:21Z</time>
      </trkpt>
      <trkpt lat="47.86488" lon="-3.54205">
        <ele>7</ele>
        <time>2020-07-08T11:04:22Z</time>
      </trkpt>
      <trkpt lat="47.86483" lon="-3.54201">
        <ele>6.67</ele>
        <time>2020-07-08T11:04:23Z</time>
      </trkpt>
      <trkpt lat="47.86478" lon="-3.54196">
        <ele>6.22</ele>
        <time>2020-07-08T11:04:24Z</time>
      </trkpt>
      <trkpt lat="47.86474" lon="-3.54192">
        <ele>5.83</ele>
        <time>2020-07-08T11:04:25Z</time>
      </trkpt>
      <trkpt lat="47.86469" lon="-3.54188">
        <ele>5.63</ele>
        <time>2020-07-08T11:04:26Z</time>
      </trkpt>
      <trkpt lat="47.86464" lon="-3.54185">
        <ele>5.51</ele>
        <time>2020-07-08T11:04:27Z</time>
      </trkpt>
      <trkpt lat="47.86459" lon="-3.54182">
        <ele>5.42</ele>
        <time>2020-07-08T11:04:28Z</time>
      </trkpt>
      <trkpt lat="47.86454" lon="-3.5418">
        <ele>5.38</ele>
        <time>2020-07-08T11:04:29Z</time>
      </trkpt>
      <trkpt lat="47.86449" lon="-3.54178">
        <ele>5.43</ele>
        <time>2020-07-08T11:04:30Z</time>
      </trkpt>
      <trkpt lat="47.86444" lon="-3.54177">
        <ele>5.44</ele>
        <time>2020-07-08T11:04:31Z</time>
      </trkpt>
      <trkpt lat="47.86438" lon="-3.54175">
        <ele>5.29</ele>
        <time>2020-07-08T11:04:32Z</time>
      </trkpt>
      <trkpt lat="47.86433" lon="-3.54174">
        <ele>5.11</ele>
        <time>2020-07-08T11:04:33Z</time>
      </trkpt>
      <trkpt lat="47.86427" lon="-3.54173">
        <ele>5.02</ele>
        <time>2020-07-08T11:04:34Z</time>
      </trkpt>
      <trkpt lat="47.86422" lon="-3.54173">
        <ele>4.93</ele>
        <time>2020-07-08T11:04:35Z</time>
      </trkpt>
      <trkpt lat="47.86416" lon="-3.54172">
        <ele>4.77</ele>
        <time>2020-07-08T11:04:36Z</time>
      </trkpt>
      <trkpt lat="47.86411" lon="-3.54171">
        <ele>4.55</ele>
        <time>2020-07-08T11:04:37Z</time>
      </trkpt>
      <trkpt lat="47.86405" lon="-3.54171">
        <ele>4.37</ele>
        <time>2020-07-08T11:04:38Z</time>
      </trkpt>
      <trkpt lat="47.86399" lon="-3.54171">
        <ele>4.18</ele>
        <time>2020-07-08T11:04:39Z</time>
      </trkpt>
      <trkpt lat="47.86393" lon="-3.54172">
        <ele>4.08</ele>
        <time>2020-07-08T11:04:40Z</time>
      </trkpt>
      <trkpt lat="47.86388" lon="-3.54173">
        <ele>4.14</ele>
        <time>2020-07-08T11:04:41Z</time>
      </trkpt>
      <trkpt lat="47.86382" lon="-3.54176">
        <ele>4.26</ele>
        <time>2020-07-08T11:04:42Z</time>
      </trkpt>
      <trkpt lat="47.86377" lon="-3.54178">
        <ele>4.33</ele>
        <time>2020-07-08T11:04:43Z</time>
      </trkpt>
      <trkpt lat="47.86372" lon="-3.54181">
        <ele>4.34</ele>
        <time>2020-07-08T11:04:44Z</time>
      </trkpt>
      <trkpt lat="47.86367" lon="-3.54185">
        <ele>4.25</ele>
        <time>2020-07-08T11:04:45Z</time>
      </trkpt>
      <trkpt lat="47.86364" lon="-3.54187">
        <ele>4.09</ele>
        <time>2020-07-08T11:04:46Z</time>
      </trkpt>
      <trkpt lat="47.86361" lon="-3.54189">
        <ele>3.89</ele>
        <time>2020-07-08T11:04:47Z</time>
      </trkpt>
      <trkpt lat="47.86359" lon="-3.54191">
        <ele>3.86</ele>
        <time>2020-07-08T11:04:48Z</time>
      </trkpt>
      <trkpt lat="47.86358" lon="-3.5419">
        <ele>3.83</ele>
        <time>2020-07-08T11:04:49Z</time>
      </trkpt>
      <trkpt lat="47.86359" lon="-3.5419">
        <ele>3.82</ele>
        <time>2020-07-08T11:04:50Z</time>
      </trkpt>
      <trkpt lat="47.86359" lon="-3.5419">
        <ele>3.81</ele>
        <time>2020-07-08T11:04:51Z</time>
      </trkpt>
      <trkpt lat="47.86359" lon="-3.5419">
        <ele>3.8</ele>
        <time>2020-07-08T11:04:52Z</time>
      </trkpt>
      <trkpt lat="47.86359" lon="-3.5419">
        <ele>3.8</ele>
        <time>2020-07-08T11:04:53Z</time>
      </trkpt>
      <trkpt lat="47.86359" lon="-3.5419">
        <ele>3.8</ele>
        <time>2020-07-08T11:04:54Z</time>
      </trkpt>
      <trkpt lat="47.86359" lon="-3.5419">
        <ele>3.8</ele>
        <time>2020-07-08T11:04:55Z</time>
      </trkpt>
      <trkpt lat="47.86359" lon="-3.5419">
        <ele>3.8</ele>
        <time>2020-07-08T11:04:56Z</time>
      </trkpt>
      <trkpt lat="47.86359" lon="-3.5419">
        <ele>3.8</ele>
        <time>2020-07-08T11:04:57Z</time>
      </trkpt>
      <trkpt lat="47.86359" lon="-3.5419">
        <ele>3.8</ele>
        <time>2020-07-08T11:04:58Z</time>
      </trkpt>
      <trkpt lat="47.86359" lon="-3.5419">
        <ele>3.8</ele>
        <time>2020-07-08T11:04:59Z</time>
      </trkpt>
      <trkpt lat="47.86359" lon="-3.5419">
        <ele>3.8</ele>
        <time>2020-07-08T11:05:00Z</time>
      </trkpt>
      <trkpt lat="47.86359" lon="-3.5419">
        <ele>3.8</ele>
        <time>2020-07-08T11:05:01Z</time>
      </trkpt>
      <trkpt lat="47.86359" lon="-3.5419">
        <ele>3.8</ele>
        <time>2020-07-08T11:05:02Z</time>
      </trkpt>
      <trkpt lat="47.86359" lon="-3.5419">
        <ele>3.8</ele>
        <time>2020-07-08T11:05:03Z</time>
      </trkpt>
      <trkpt lat="47.86359" lon="-3.5419">
        <ele>3.8</ele>
        <time>2020-07-08T11:05:04Z</time>
      </trkpt>
      <trkpt lat="47.86359" lon="-3.5419">
        <ele>3.8</ele>
        <time>2020-07-08T11:05:05Z</time>
      </trkpt>
      <trkpt lat="47.86359" lon="-3.5419">
        <ele>3.8</ele>
        <time>2020-07-08T11:05:06Z</time>
      </trkpt>
      <trkpt lat="47.86359" lon="-3.5419">
        <ele>3.8</ele>
        <time>2020-07-08T11:05:07Z</time>
      </trkpt>
      <trkpt lat="47.86359" lon="-3.5419">
        <ele>3.8</ele>
        <time>2020-07-08T11:05:08Z</time>
      </trkpt>
      <trkpt lat="47.86359" lon="-3.5419">
        <ele>3.8</ele>
        <time>2020-07-08T11:05:09Z</time>
      </trkpt>
      <trkpt lat="47.86359" lon="-3.5419">
        <ele>3.8</ele>
        <time>2020-07-08T11:05:10Z</time>
      </trkpt>
      <trkpt lat="47.86359" lon="-3.5419">
        <ele>3.8</ele>
        <time>2020-07-08T11:05:11Z</time>
      </trkpt>
      <trkpt lat="47.86359" lon="-3.5419">
        <ele>3.8</ele>
        <time>2020-07-08T11:05:12Z</time>
      </trkpt>
      <trkpt lat="47.86359" lon="-3.5419">
        <ele>3.8</ele>
        <time>2020-07-08T11:05:13Z</time>
      </trkpt>
      <trkpt lat="47.86359" lon="-3.5419">
        <ele>3.8</ele>
        <time>2020-07-08T11:05:14Z</time>
      </trkpt>
      <trkpt lat="47.86359" lon="-3.5419">
        <ele>3.8</ele>
        <time>2020-07-08T11:05:15Z</time>
      </trkpt>
      <trkpt lat="47.86359" lon="-3.5419">
        <ele>3.8</ele>
        <time>2020-07-08T11:05:16Z</time>
      </trkpt>
      <trkpt lat="47.86359" lon="-3.5419">
        <ele>3.8</ele>
        <time>2020-07-08T11:05:17Z</time>
      </trkpt>
      <trkpt lat="47.86359" lon="-3.5419">
        <ele>3.8</ele>
        <time>2020-07-08T11:05:18Z</time>
      </trkpt>
      <trkpt lat="47.86359" lon="-3.5419">
        <ele>3.8</ele>
        <time>2020-07-08T11:05:19Z</time>
      </trkpt>
      <trkpt lat="47.86359" lon="-3.5419">
        <ele>3.8</ele>
        <time>2020-07-08T11:05:20Z</time>
      </trkpt>
      <trkpt lat="47.86359" lon="-3.5419">
        <ele>3.8</ele>
        <time>2020-07-08T11:05:21Z</time>
      </trkpt>
      <trkpt lat="47.86359" lon="-3.5419">
        <ele>3.8</ele>
        <time>2020-07-08T11:05:22Z</time>
      </trkpt>
      <trkpt lat="47.86359" lon="-3.5419">
        <ele>3.8</ele>
        <time>2020-07-08T11:05:23Z</time>
      </trkpt>
      <trkpt lat="47.86359" lon="-3.5419">
        <ele>3.8</ele>
        <time>2020-07-08T11:05:24Z</time>
      </trkpt>
      <trkpt lat="47.86359" lon="-3.5419">
        <ele>3.8</ele>
        <time>2020-07-08T11:05:25Z</time>
      </trkpt>
      <trkpt lat="47.86359" lon="-3.5419">
        <ele>3.8</ele>
        <time>2020-07-08T11:05:26Z</time>
      </trkpt>
      <trkpt lat="47.86359" lon="-3.5419">
        <ele>3.8</ele>
        <time>2020-07-08T11:05:27Z</time>
      </trkpt>
      <trkpt lat="47.86359" lon="-3.5419">
        <ele>3.8</ele>
        <time>2020-07-08T11:05:28Z</time>
      </trkpt>
      <trkpt lat="47.86359" lon="-3.5419">
        <ele>3.8</ele>
        <time>2020-07-08T11:05:29Z</time>
      </trkpt>
      <trkpt lat="47.86359" lon="-3.5419">
        <ele>3.8</ele>
        <time>2020-07-08T11:05:30Z</time>
      </trkpt>
      <trkpt lat="47.86359" lon="-3.5419">
        <ele>3.8</ele>
        <time>2020-07-08T11:05:31Z</time>
      </trkpt>
      <trkpt lat="47.86359" lon="-3.5419">
        <ele>3.8</ele>
        <time>2020-07-08T11:05:32Z</time>
      </trkpt>
      <trkpt lat="47.86359" lon="-3.5419">
        <ele>3.8</ele>
        <time>2020-07-08T11:05:33Z</time>
      </trkpt>
      <trkpt lat="47.86359" lon="-3.5419">
        <ele>3.8</ele>
        <time>2020-07-08T11:05:34Z</time>
      </trkpt>
      <trkpt lat="47.86359" lon="-3.5419">
        <ele>3.8</ele>
        <time>2020-07-08T11:05:35Z</time>
      </trkpt>
      <trkpt lat="47.86359" lon="-3.5419">
        <ele>3.8</ele>
        <time>2020-07-08T11:05:36Z</time>
      </trkpt>
      <trkpt lat="47.86359" lon="-3.5419">
        <ele>3.8</ele>
        <time>2020-07-08T11:05:37Z</time>
      </trkpt>
      <trkpt lat="47.86359" lon="-3.5419">
        <ele>3.8</ele>
        <time>2020-07-08T11:05:38Z</time>
      </trkpt>
      <trkpt lat="47.86359" lon="-3.5419">
        <ele>3.8</ele>
        <time>2020-07-08T11:05:39Z</time>
      </trkpt>
      <trkpt lat="47.86359" lon="-3.5419">
        <ele>3.8</ele>
        <time>2020-07-08T11:05:40Z</time>
      </trkpt>
      <trkpt lat="47.86359" lon="-3.5419">
        <ele>3.8</ele>
        <time>2020-07-08T11:05:41Z</time>
      </trkpt>
      <trkpt lat="47.86359" lon="-3.5419">
        <ele>3.8</ele>
        <time>2020-07-08T11:05:42Z</time>
      </trkpt>
      <trkpt lat="47.86359" lon="-3.5419">
        <ele>3.8</ele>
        <time>2020-07-08T11:05:43Z</time>
      </trkpt>
      <trkpt lat="47.86359" lon="-3.5419">
        <ele>3.8</ele>
        <time>2020-07-08T11:05:44Z</time>
      </trkpt>
      <trkpt lat="47.86359" lon="-3.5419">
        <ele>3.8</ele>
        <time>2020-07-08T11:05:45Z</time>
      </trkpt>
      <trkpt lat="47.86359" lon="-3.5419">
        <ele>3.8</ele>
        <time>2020-07-08T11:05:46Z</time>
      </trkpt>
      <trkpt lat="47.86359" lon="-3.5419">
        <ele>3.8</ele>
        <time>2020-07-08T11:05:47Z</time>
      </trkpt>
      <trkpt lat="47.86359" lon="-3.5419">
        <ele>3.8</ele>
        <time>2020-07-08T11:05:48Z</time>
      </trkpt>
      <trkpt lat="47.86359" lon="-3.5419">
        <ele>3.8</ele>
        <time>2020-07-08T11:05:49Z</time>
      </trkpt>
      <trkpt lat="47.86359" lon="-3.5419">
        <ele>3.8</ele>
        <time>2020-07-08T11:05:50Z</time>
      </trkpt>
      <trkpt lat="47.86359" lon="-3.5419">
        <ele>3.8</ele>
        <time>2020-07-08T11:05:51Z</time>
      </trkpt>
      <trkpt lat="47.86359" lon="-3.5419">
        <ele>3.8</ele>
        <time>2020-07-08T11:05:52Z</time>
      </trkpt>
      <trkpt lat="47.86359" lon="-3.5419">
        <ele>3.8</ele>
        <time>2020-07-08T11:05:53Z</time>
      </trkpt>
      <trkpt lat="47.86359" lon="-3.5419">
        <ele>3.8</ele>
        <time>2020-07-08T11:05:54Z</time>
      </trkpt>
      <trkpt lat="47.86359" lon="-3.5419">
        <ele>3.8</ele>
        <time>2020-07-08T11:05:55Z</time>
      </trkpt>
      <trkpt lat="47.86359" lon="-3.5419">
        <ele>3.8</ele>
        <time>2020-07-08T11:05:56Z</time>
      </trkpt>
      <trkpt lat="47.86359" lon="-3.5419">
        <ele>3.8</ele>
        <time>2020-07-08T11:05:57Z</time>
      </trkpt>
      <trkpt lat="47.86359" lon="-3.5419">
        <ele>3.8</ele>
        <time>2020-07-08T11:05:58Z</time>
      </trkpt>
      <trkpt lat="47.86359" lon="-3.5419">
        <ele>3.8</ele>
        <time>2020-07-08T11:05:59Z</time>
      </trkpt>
      <trkpt lat="47.86359" lon="-3.5419">
        <ele>3.8</ele>
        <time>2020-07-08T11:06:00Z</time>
      </trkpt>
      <trkpt lat="47.86359" lon="-3.5419">
        <ele>3.8</ele>
        <time>2020-07-08T11:06:01Z</time>
      </trkpt>
      <trkpt lat="47.86359" lon="-3.5419">
        <ele>3.8</ele>
        <time>2020-07-08T11:06:02Z</time>
      </trkpt>
      <trkpt lat="47.86359" lon="-3.5419">
        <ele>3.8</ele>
        <time>2020-07-08T11:06:03Z</time>
      </trkpt>
      <trkpt lat="47.86359" lon="-3.5419">
        <ele>3.8</ele>
        <time>2020-07-08T11:06:04Z</time>
      </trkpt>
      <trkpt lat="47.86359" lon="-3.5419">
        <ele>3.8</ele>
        <time>2020-07-08T11:06:05Z</time>
      </trkpt>
      <trkpt lat="47.86359" lon="-3.5419">
        <ele>3.8</ele>
        <time>2020-07-08T11:06:06Z</time>
      </trkpt>
      <trkpt lat="47.86359" lon="-3.5419">
        <ele>3.8</ele>
        <time>2020-07-08T11:06:07Z</time>
      </trkpt>
      <trkpt lat="47.86359" lon="-3.5419">
        <ele>3.8</ele>
        <time>2020-07-08T11:06:08Z</time>
      </trkpt>
      <trkpt lat="47.86359" lon="-3.5419">
        <ele>3.8</ele>
        <time>2020-07-08T11:06:09Z</time>
      </trkpt>
      <trkpt lat="47.86359" lon="-3.5419">
        <ele>3.8</ele>
        <time>2020-07-08T11:06:10Z</time>
      </trkpt>
      <trkpt lat="47.86359" lon="-3.5419">
        <ele>3.8</ele>
        <time>2020-07-08T11:06:11Z</time>
      </trkpt>
      <trkpt lat="47.86359" lon="-3.5419">
        <ele>3.8</ele>
        <time>2020-07-08T11:06:12Z</time>
      </trkpt>
      <trkpt lat="47.86359" lon="-3.5419">
        <ele>3.8</ele>
        <time>2020-07-08T11:06:13Z</time>
      </trkpt>
      <trkpt lat="47.86359" lon="-3.5419">
        <ele>3.8</ele>
        <time>2020-07-08T11:06:14Z</time>
      </trkpt>
      <trkpt lat="47.86359" lon="-3.5419">
        <ele>3.8</ele>
        <time>2020-07-08T11:06:15Z</time>
      </trkpt>
      <trkpt lat="47.86359" lon="-3.5419">
        <ele>3.8</ele>
        <time>2020-07-08T11:06:16Z</time>
      </trkpt>
      <trkpt lat="47.86359" lon="-3.5419">
        <ele>3.8</ele>
        <time>2020-07-08T11:06:17Z</time>
      </trkpt>
      <trkpt lat="47.86359" lon="-3.5419">
        <ele>3.8</ele>
        <time>2020-07-08T11:06:18Z</time>
      </trkpt>
      <trkpt lat="47.86359" lon="-3.5419">
        <ele>3.8</ele>
        <time>2020-07-08T11:06:19Z</time>
      </trkpt>
      <trkpt lat="47.86359" lon="-3.5419">
        <ele>3.8</ele>
        <time>2020-07-08T11:06:20Z</time>
      </trkpt>
      <trkpt lat="47.86359" lon="-3.5419">
        <ele>3.8</ele>
        <time>2020-07-08T11:06:21Z</time>
      </trkpt>
      <trkpt lat="47.86359" lon="-3.5419">
        <ele>3.8</ele>
        <time>2020-07-08T11:06:22Z</time>
      </trkpt>
      <trkpt lat="47.86359" lon="-3.5419">
        <ele>3.8</ele>
        <time>2020-07-08T11:06:23Z</time>
      </trkpt>
      <trkpt lat="47.86359" lon="-3.5419">
        <ele>3.8</ele>
        <time>2020-07-08T11:06:24Z</time>
      </trkpt>
      <trkpt lat="47.86359" lon="-3.5419">
        <ele>3.8</ele>
        <time>2020-07-08T11:06:25Z</time>
      </trkpt>
      <trkpt lat="47.86359" lon="-3.5419">
        <ele>3.8</ele>
        <time>2020-07-08T11:06:26Z</time>
      </trkpt>
      <trkpt lat="47.86359" lon="-3.5419">
        <ele>3.8</ele>
        <time>2020-07-08T11:06:27Z</time>
      </trkpt>
      <trkpt lat="47.86359" lon="-3.5419">
        <ele>3.8</ele>
        <time>2020-07-08T11:06:28Z</time>
      </trkpt>
      <trkpt lat="47.86359" lon="-3.5419">
        <ele>3.8</ele>
        <time>2020-07-08T11:06:29Z</time>
      </trkpt>
      <trkpt lat="47.86359" lon="-3.5419">
        <ele>3.8</ele>
        <time>2020-07-08T11:06:30Z</time>
      </trkpt>
      <trkpt lat="47.86359" lon="-3.5419">
        <ele>3.8</ele>
        <time>2020-07-08T11:06:31Z</time>
      </trkpt>
      <trkpt lat="47.86359" lon="-3.5419">
        <ele>3.8</ele>
        <time>2020-07-08T11:06:32Z</time>
      </trkpt>
      <trkpt lat="47.86359" lon="-3.5419">
        <ele>3.8</ele>
        <time>2020-07-08T11:06:33Z</time>
      </trkpt>
      <trkpt lat="47.86359" lon="-3.5419">
        <ele>3.8</ele>
        <time>2020-07-08T11:06:34Z</time>
      </trkpt>
      <trkpt lat="47.86359" lon="-3.5419">
        <ele>3.8</ele>
        <time>2020-07-08T11:06:35Z</time>
      </trkpt>
      <trkpt lat="47.86359" lon="-3.5419">
        <ele>3.8</ele>
        <time>2020-07-08T11:06:36Z</time>
      </trkpt>
      <trkpt lat="47.86359" lon="-3.5419">
        <ele>3.8</ele>
        <time>2020-07-08T11:06:37Z</time>
      </trkpt>
      <trkpt lat="47.86359" lon="-3.5419">
        <ele>3.8</ele>
        <time>2020-07-08T11:06:38Z</time>
      </trkpt>
      <trkpt lat="47.86359" lon="-3.5419">
        <ele>3.8</ele>
        <time>2020-07-08T11:06:39Z</time>
      </trkpt>
      <trkpt lat="47.86359" lon="-3.5419">
        <ele>3.8</ele>
        <time>2020-07-08T11:06:40Z</time>
      </trkpt>
      <trkpt lat="47.86359" lon="-3.5419">
        <ele>3.8</ele>
        <time>2020-07-08T11:06:41Z</time>
      </trkpt>
      <trkpt lat="47.86359" lon="-3.5419">
        <ele>3.8</ele>
        <time>2020-07-08T11:06:42Z</time>
      </trkpt>
      <trkpt lat="47.86359" lon="-3.5419">
        <ele>3.8</ele>
        <time>2020-07-08T11:06:43Z</time>
      </trkpt>
      <trkpt lat="47.86359" lon="-3.5419">
        <ele>3.8</ele>
        <time>2020-07-08T11:06:44Z</time>
      </trkpt>
      <trkpt lat="47.86359" lon="-3.5419">
        <ele>3.8</ele>
        <time>2020-07-08T11:06:45Z</time>
      </trkpt>
      <trkpt lat="47.86359" lon="-3.5419">
        <ele>3.8</ele>
        <time>2020-07-08T11:06:46Z</time>
      </trkpt>
      <trkpt lat="47.86359" lon="-3.5419">
        <ele>3.8</ele>
        <time>2020-07-08T11:06:47Z</time>
      </trkpt>
      <trkpt lat="47.86359" lon="-3.5419">
        <ele>3.8</ele>
        <time>2020-07-08T11:06:48Z</time>
      </trkpt>
      <trkpt lat="47.86359" lon="-3.5419">
        <ele>3.8</ele>
        <time>2020-07-08T11:06:49Z</time>
      </trkpt>
      <trkpt lat="47.86359" lon="-3.5419">
        <ele>3.8</ele>
        <time>2020-07-08T11:06:50Z</time>
      </trkpt>
      <trkpt lat="47.86359" lon="-3.5419">
        <ele>3.8</ele>
        <time>2020-07-08T11:06:51Z</time>
      </trkpt>
      <trkpt lat="47.86359" lon="-3.5419">
        <ele>3.8</ele>
        <time>2020-07-08T11:06:52Z</time>
      </trkpt>
      <trkpt lat="47.86359" lon="-3.5419">
        <ele>3.8</ele>
        <time>2020-07-08T11:06:53Z</time>
      </trkpt>
      <trkpt lat="47.86359" lon="-3.5419">
        <ele>3.8</ele>
        <time>2020-07-08T11:06:54Z</time>
      </trkpt>
      <trkpt lat="47.86359" lon="-3.5419">
        <ele>3.8</ele>
        <time>2020-07-08T11:06:55Z</time>
      </trkpt>
      <trkpt lat="47.86359" lon="-3.5419">
        <ele>3.8</ele>
        <time>2020-07-08T11:06:56Z</time>
      </trkpt>
      <trkpt lat="47.86359" lon="-3.5419">
        <ele>3.8</ele>
        <time>2020-07-08T11:06:57Z</time>
      </trkpt>
      <trkpt lat="47.86359" lon="-3.5419">
        <ele>3.8</ele>
        <time>2020-07-08T11:06:58Z</time>
      </trkpt>
      <trkpt lat="47.86359" lon="-3.5419">
        <ele>3.8</ele>
        <time>2020-07-08T11:06:59Z</time>
      </trkpt>
      <trkpt lat="47.86359" lon="-3.5419">
        <ele>3.8</ele>
        <time>2020-07-08T11:07:00Z</time>
      </trkpt>
      <trkpt lat="47.86359" lon="-3.5419">
        <ele>3.8</ele>
        <time>2020-07-08T11:07:01Z</time>
      </trkpt>
      <trkpt lat="47.86359" lon="-3.5419">
        <ele>3.8</ele>
        <time>2020-07-08T11:07:02Z</time>
      </trkpt>
      <trkpt lat="47.86359" lon="-3.5419">
        <ele>3.8</ele>
        <time>2020-07-08T11:07:03Z</time>
      </trkpt>
      <trkpt lat="47.86359" lon="-3.5419">
        <ele>3.8</ele>
        <time>2020-07-08T11:07:04Z</time>
      </trkpt>
      <trkpt lat="47.86359" lon="-3.5419">
        <ele>3.8</ele>
        <time>2020-07-08T11:07:05Z</time>
      </trkpt>
      <trkpt lat="47.86359" lon="-3.5419">
        <ele>3.8</ele>
        <time>2020-07-08T11:07:06Z</time>
      </trkpt>
      <trkpt lat="47.86359" lon="-3.5419">
        <ele>3.8</ele>
        <time>2020-07-08T11:07:07Z</time>
      </trkpt>
      <trkpt lat="47.86359" lon="-3.5419">
        <ele>3.8</ele>
        <time>2020-07-08T11:07:08Z</time>
      </trkpt>
      <trkpt lat="47.86359" lon="-3.5419">
        <ele>3.8</ele>
        <time>2020-07-08T11:07:09Z</time>
      </trkpt>
      <trkpt lat="47.86359" lon="-3.5419">
        <ele>3.8</ele>
        <time>2020-07-08T11:07:10Z</time>
      </trkpt>
      <trkpt lat="47.86359" lon="-3.5419">
        <ele>3.8</ele>
        <time>2020-07-08T11:07:11Z</time>
      </trkpt>
      <trkpt lat="47.86359" lon="-3.5419">
        <ele>3.8</ele>
        <time>2020-07-08T11:07:12Z</time>
      </trkpt>
      <trkpt lat="47.86359" lon="-3.5419">
        <ele>3.8</ele>
        <time>2020-07-08T11:07:13Z</time>
      </trkpt>
      <trkpt lat="47.86359" lon="-3.5419">
        <ele>3.8</ele>
        <time>2020-07-08T11:07:14Z</time>
      </trkpt>
      <trkpt lat="47.86359" lon="-3.5419">
        <ele>3.8</ele>
        <time>2020-07-08T11:07:15Z</time>
      </trkpt>
      <trkpt lat="47.86359" lon="-3.5419">
        <ele>3.8</ele>
        <time>2020-07-08T11:07:16Z</time>
      </trkpt>
      <trkpt lat="47.86359" lon="-3.5419">
        <ele>3.8</ele>
        <time>2020-07-08T11:07:17Z</time>
      </trkpt>
      <trkpt lat="47.86359" lon="-3.5419">
        <ele>3.8</ele>
        <time>2020-07-08T11:07:18Z</time>
      </trkpt>
      <trkpt lat="47.86359" lon="-3.5419">
        <ele>3.8</ele>
        <time>2020-07-08T11:07:19Z</time>
      </trkpt>
      <trkpt lat="47.86359" lon="-3.5419">
        <ele>3.8</ele>
        <time>2020-07-08T11:07:20Z</time>
      </trkpt>
      <trkpt lat="47.86359" lon="-3.5419">
        <ele>3.8</ele>
        <time>2020-07-08T11:07:21Z</time>
      </trkpt>
      <trkpt lat="47.86359" lon="-3.5419">
        <ele>3.8</ele>
        <time>2020-07-08T11:07:22Z</time>
      </trkpt>
      <trkpt lat="47.86359" lon="-3.5419">
        <ele>3.8</ele>
        <time>2020-07-08T11:07:23Z</time>
      </trkpt>
      <trkpt lat="47.86359" lon="-3.5419">
        <ele>3.8</ele>
        <time>2020-07-08T11:07:24Z</time>
      </trkpt>
      <trkpt lat="47.86359" lon="-3.5419">
        <ele>3.8</ele>
        <time>2020-07-08T11:07:25Z</time>
      </trkpt>
      <trkpt lat="47.86359" lon="-3.5419">
        <ele>3.8</ele>
        <time>2020-07-08T11:07:26Z</time>
      </trkpt>
      <trkpt lat="47.86359" lon="-3.5419">
        <ele>3.8</ele>
        <time>2020-07-08T11:07:27Z</time>
      </trkpt>
      <trkpt lat="47.86359" lon="-3.5419">
        <ele>3.8</ele>
        <time>2020-07-08T11:07:28Z</time>
      </trkpt>
      <trkpt lat="47.86359" lon="-3.5419">
        <ele>3.8</ele>
        <time>2020-07-08T11:07:29Z</time>
      </trkpt>
      <trkpt lat="47.86359" lon="-3.5419">
        <ele>3.8</ele>
        <time>2020-07-08T11:07:30Z</time>
      </trkpt>
      <trkpt lat="47.86359" lon="-3.5419">
        <ele>3.8</ele>
        <time>2020-07-08T11:07:31Z</time>
      </trkpt>
      <trkpt lat="47.86359" lon="-3.5419">
        <ele>3.8</ele>
        <time>2020-07-08T11:07:32Z</time>
      </trkpt>
      <trkpt lat="47.86359" lon="-3.5419">
        <ele>3.8</ele>
        <time>2020-07-08T11:07:33Z</time>
      </trkpt>
      <trkpt lat="47.86359" lon="-3.5419">
        <ele>3.8</ele>
        <time>2020-07-08T11:07:34Z</time>
      </trkpt>
      <trkpt lat="47.86359" lon="-3.5419">
        <ele>3.8</ele>
        <time>2020-07-08T11:07:35Z</time>
      </trkpt>
      <trkpt lat="47.86359" lon="-3.5419">
        <ele>3.8</ele>
        <time>2020-07-08T11:07:36Z</time>
      </trkpt>
      <trkpt lat="47.86359" lon="-3.5419">
        <ele>3.8</ele>
        <time>2020-07-08T11:07:37Z</time>
      </trkpt>
      <trkpt lat="47.86359" lon="-3.5419">
        <ele>3.8</ele>
        <time>2020-07-08T11:07:38Z</time>
      </trkpt>
      <trkpt lat="47.86359" lon="-3.5419">
        <ele>3.8</ele>
        <time>2020-07-08T11:07:39Z</time>
      </trkpt>
      <trkpt lat="47.86359" lon="-3.5419">
        <ele>3.8</ele>
        <time>2020-07-08T11:07:40Z</time>
      </trkpt>
      <trkpt lat="47.86359" lon="-3.5419">
        <ele>3.8</ele>
        <time>2020-07-08T11:07:41Z</time>
      </trkpt>
      <trkpt lat="47.86359" lon="-3.5419">
        <ele>3.8</ele>
        <time>2020-07-08T11:07:42Z</time>
      </trkpt>
      <trkpt lat="47.86359" lon="-3.5419">
        <ele>3.8</ele>
        <time>2020-07-08T11:07:43Z</time>
      </trkpt>
      <trkpt lat="47.86359" lon="-3.5419">
        <ele>3.8</ele>
        <time>2020-07-08T11:07:44Z</time>
      </trkpt>
      <trkpt lat="47.86359" lon="-3.5419">
        <ele>3.8</ele>
        <time>2020-07-08T11:07:45Z</time>
      </trkpt>
      <trkpt lat="47.86359" lon="-3.5419">
        <ele>3.8</ele>
        <time>2020-07-08T11:07:46Z</time>
      </trkpt>
      <trkpt lat="47.86359" lon="-3.5419">
        <ele>3.8</ele>
        <time>2020-07-08T11:07:47Z</time>
      </trkpt>
      <trkpt lat="47.86359" lon="-3.5419">
        <ele>3.8</ele>
        <time>2020-07-08T11:07:48Z</time>
      </trkpt>
      <trkpt lat="47.86359" lon="-3.5419">
        <ele>3.8</ele>
        <time>2020-07-08T11:07:49Z</time>
      </trkpt>
      <trkpt lat="47.86359" lon="-3.5419">
        <ele>3.8</ele>
        <time>2020-07-08T11:07:50Z</time>
      </trkpt>
      <trkpt lat="47.86359" lon="-3.5419">
        <ele>3.8</ele>
        <time>2020-07-08T11:07:51Z</time>
      </trkpt>
      <trkpt lat="47.86359" lon="-3.5419">
        <ele>3.8</ele>
        <time>2020-07-08T11:07:52Z</time>
      </trkpt>
      <trkpt lat="47.86359" lon="-3.5419">
        <ele>3.8</ele>
        <time>2020-07-08T11:07:53Z</time>
      </trkpt>
      <trkpt lat="47.86359" lon="-3.5419">
        <ele>3.8</ele>
        <time>2020-07-08T11:07:54Z</time>
      </trkpt>
      <trkpt lat="47.86359" lon="-3.5419">
        <ele>3.8</ele>
        <time>2020-07-08T11:07:55Z</time>
      </trkpt>
      <trkpt lat="47.86359" lon="-3.5419">
        <ele>3.8</ele>
        <time>2020-07-08T11:07:56Z</time>
      </trkpt>
      <trkpt lat="47.86359" lon="-3.5419">
        <ele>3.8</ele>
        <time>2020-07-08T11:07:57Z</time>
      </trkpt>
      <trkpt lat="47.86359" lon="-3.5419">
        <ele>3.8</ele>
        <time>2020-07-08T11:07:58Z</time>
      </trkpt>
      <trkpt lat="47.86359" lon="-3.5419">
        <ele>3.8</ele>
        <time>2020-07-08T11:07:59Z</time>
      </trkpt>
      <trkpt lat="47.86359" lon="-3.5419">
        <ele>3.8</ele>
        <time>2020-07-08T11:08:00Z</time>
      </trkpt>
      <trkpt lat="47.86359" lon="-3.5419">
        <ele>3.8</ele>
        <time>2020-07-08T11:08:01Z</time>
      </trkpt>
      <trkpt lat="47.86359" lon="-3.5419">
        <ele>3.8</ele>
        <time>2020-07-08T11:08:02Z</time>
      </trkpt>
      <trkpt lat="47.86359" lon="-3.5419">
        <ele>3.8</ele>
        <time>2020-07-08T11:08:03Z</time>
      </trkpt>
      <trkpt lat="47.86359" lon="-3.5419">
        <ele>3.8</ele>
        <time>2020-07-08T11:08:04Z</time>
      </trkpt>
      <trkpt lat="47.86359" lon="-3.5419">
        <ele>3.8</ele>
        <time>2020-07-08T11:08:05Z</time>
      </trkpt>
      <trkpt lat="47.86359" lon="-3.5419">
        <ele>3.8</ele>
        <time>2020-07-08T11:08:06Z</time>
      </trkpt>
      <trkpt lat="47.86359" lon="-3.5419">
        <ele>3.8</ele>
        <time>2020-07-08T11:08:07Z</time>
      </trkpt>
      <trkpt lat="47.86359" lon="-3.5419">
        <ele>3.8</ele>
        <time>2020-07-08T11:08:08Z</time>
      </trkpt>
      <trkpt lat="47.86359" lon="-3.5419">
        <ele>3.8</ele>
        <time>2020-07-08T11:08:09Z</time>
      </trkpt>
      <trkpt lat="47.86359" lon="-3.5419">
        <ele>3.8</ele>
        <time>2020-07-08T11:08:10Z</time>
      </trkpt>
      <trkpt lat="47.86359" lon="-3.5419">
        <ele>3.8</ele>
        <time>2020-07-08T11:08:11Z</time>
      </trkpt>
      <trkpt lat="47.86359" lon="-3.5419">
        <ele>3.8</ele>
        <time>2020-07-08T11:08:12Z</time>
      </trkpt>
      <trkpt lat="47.86359" lon="-3.5419">
        <ele>3.8</ele>
        <time>2020-07-08T11:08:13Z</time>
      </trkpt>
      <trkpt lat="47.86359" lon="-3.5419">
        <ele>3.8</ele>
        <time>2020-07-08T11:08:14Z</time>
      </trkpt>
      <trkpt lat="47.86359" lon="-3.5419">
        <ele>3.8</ele>
        <time>2020-07-08T11:08:15Z</time>
      </trkpt>
      <trkpt lat="47.86359" lon="-3.5419">
        <ele>3.8</ele>
        <time>2020-07-08T11:08:16Z</time>
      </trkpt>
      <trkpt lat="47.86359" lon="-3.5419">
        <ele>3.8</ele>
        <time>2020-07-08T11:08:17Z</time>
      </trkpt>
      <trkpt lat="47.86359" lon="-3.5419">
        <ele>3.8</ele>
        <time>2020-07-08T11:08:18Z</time>
      </trkpt>
      <trkpt lat="47.86359" lon="-3.5419">
        <ele>3.8</ele>
        <time>2020-07-08T11:08:19Z</time>
      </trkpt>
      <trkpt lat="47.86359" lon="-3.5419">
        <ele>3.8</ele>
        <time>2020-07-08T11:08:20Z</time>
      </trkpt>
      <trkpt lat="47.86359" lon="-3.5419">
        <ele>3.8</ele>
        <time>2020-07-08T11:08:21Z</time>
      </trkpt>
      <trkpt lat="47.86359" lon="-3.5419">
        <ele>3.8</ele>
        <time>2020-07-08T11:08:22Z</time>
      </trkpt>
      <trkpt lat="47.86359" lon="-3.5419">
        <ele>3.8</ele>
        <time>2020-07-08T11:08:23Z</time>
      </trkpt>
      <trkpt lat="47.86359" lon="-3.5419">
        <ele>3.8</ele>
        <time>2020-07-08T11:08:24Z</time>
      </trkpt>
      <trkpt lat="47.86359" lon="-3.5419">
        <ele>3.8</ele>
        <time>2020-07-08T11:08:25Z</time>
      </trkpt>
      <trkpt lat="47.86359" lon="-3.5419">
        <ele>3.8</ele>
        <time>2020-07-08T11:08:26Z</time>
      </trkpt>
      <trkpt lat="47.86359" lon="-3.5419">
        <ele>3.8</ele>
        <time>2020-07-08T11:08:27Z</time>
      </trkpt>
      <trkpt lat="47.86359" lon="-3.5419">
        <ele>3.8</ele>
        <time>2020-07-08T11:08:28Z</time>
      </trkpt>
      <trkpt lat="47.86359" lon="-3.5419">
        <ele>3.8</ele>
        <time>2020-07-08T11:08:29Z</time>
      </trkpt>
      <trkpt lat="47.86359" lon="-3.5419">
        <ele>3.8</ele>
        <time>2020-07-08T11:08:30Z</time>
      </trkpt>
      <trkpt lat="47.86359" lon="-3.5419">
        <ele>3.8</ele>
        <time>2020-07-08T11:08:31Z</time>
      </trkpt>
      <trkpt lat="47.86359" lon="-3.5419">
        <ele>3.8</ele>
        <time>2020-07-08T11:08:32Z</time>
      </trkpt>
      <trkpt lat="47.86359" lon="-3.5419">
        <ele>3.8</ele>
        <time>2020-07-08T11:08:33Z</time>
      </trkpt>
      <trkpt lat="47.86359" lon="-3.5419">
        <ele>3.8</ele>
        <time>2020-07-08T11:08:34Z</time>
      </trkpt>
      <trkpt lat="47.86359" lon="-3.5419">
        <ele>3.8</ele>
        <time>2020-07-08T11:08:35Z</time>
      </trkpt>
      <trkpt lat="47.86359" lon="-3.5419">
        <ele>3.8</ele>
        <time>2020-07-08T11:08:36Z</time>
      </trkpt>
      <trkpt lat="47.86359" lon="-3.5419">
        <ele>3.8</ele>
        <time>2020-07-08T11:08:37Z</time>
      </trkpt>
      <trkpt lat="47.86359" lon="-3.5419">
        <ele>3.8</ele>
        <time>2020-07-08T11:08:38Z</time>
      </trkpt>
      <trkpt lat="47.86359" lon="-3.5419">
        <ele>3.8</ele>
        <time>2020-07-08T11:08:39Z</time>
      </trkpt>
      <trkpt lat="47.86359" lon="-3.5419">
        <ele>3.8</ele>
        <time>2020-07-08T11:08:40Z</time>
      </trkpt>
      <trkpt lat="47.86359" lon="-3.5419">
        <ele>3.8</ele>
        <time>2020-07-08T11:08:41Z</time>
      </trkpt>
      <trkpt lat="47.86359" lon="-3.5419">
        <ele>3.8</ele>
        <time>2020-07-08T11:08:42Z</time>
      </trkpt>
      <trkpt lat="47.86359" lon="-3.5419">
        <ele>3.8</ele>
        <time>2020-07-08T11:08:43Z</time>
      </trkpt>
      <trkpt lat="47.86359" lon="-3.5419">
        <ele>3.8</ele>
        <time>2020-07-08T11:08:44Z</time>
      </trkpt>
      <trkpt lat="47.86359" lon="-3.5419">
        <ele>3.8</ele>
        <time>2020-07-08T11:08:45Z</time>
      </trkpt>
      <trkpt lat="47.86359" lon="-3.5419">
        <ele>3.8</ele>
        <time>2020-07-08T11:08:46Z</time>
      </trkpt>
      <trkpt lat="47.86359" lon="-3.5419">
        <ele>3.8</ele>
        <time>2020-07-08T11:08:47Z</time>
      </trkpt>
      <trkpt lat="47.86359" lon="-3.5419">
        <ele>3.8</ele>
        <time>2020-07-08T11:08:48Z</time>
      </trkpt>
      <trkpt lat="47.86359" lon="-3.5419">
        <ele>3.8</ele>
        <time>2020-07-08T11:08:49Z</time>
      </trkpt>
      <trkpt lat="47.86359" lon="-3.5419">
        <ele>3.8</ele>
        <time>2020-07-08T11:08:50Z</time>
      </trkpt>
      <trkpt lat="47.86359" lon="-3.5419">
        <ele>3.8</ele>
        <time>2020-07-08T11:08:51Z</time>
      </trkpt>
      <trkpt lat="47.86359" lon="-3.5419">
        <ele>3.8</ele>
        <time>2020-07-08T11:08:52Z</time>
      </trkpt>
      <trkpt lat="47.86359" lon="-3.5419">
        <ele>3.8</ele>
        <time>2020-07-08T11:08:53Z</time>
      </trkpt>
      <trkpt lat="47.86359" lon="-3.5419">
        <ele>3.8</ele>
        <time>2020-07-08T11:08:54Z</time>
      </trkpt>
      <trkpt lat="47.86359" lon="-3.5419">
        <ele>3.8</ele>
        <time>2020-07-08T11:08:55Z</time>
      </trkpt>
      <trkpt lat="47.86359" lon="-3.5419">
        <ele>3.8</ele>
        <time>2020-07-08T11:08:56Z</time>
      </trkpt>
      <trkpt lat="47.86359" lon="-3.5419">
        <ele>3.8</ele>
        <time>2020-07-08T11:08:57Z</time>
      </trkpt>
      <trkpt lat="47.86359" lon="-3.5419">
        <ele>3.8</ele>
        <time>2020-07-08T11:08:58Z</time>
      </trkpt>
      <trkpt lat="47.86359" lon="-3.5419">
        <ele>3.8</ele>
        <time>2020-07-08T11:08:59Z</time>
      </trkpt>
      <trkpt lat="47.86359" lon="-3.5419">
        <ele>3.8</ele>
        <time>2020-07-08T11:09:00Z</time>
      </trkpt>
      <trkpt lat="47.86359" lon="-3.5419">
        <ele>3.8</ele>
        <time>2020-07-08T11:09:01Z</time>
      </trkpt>
      <trkpt lat="47.86359" lon="-3.5419">
        <ele>3.8</ele>
        <time>2020-07-08T11:09:02Z</time>
      </trkpt>
      <trkpt lat="47.86359" lon="-3.5419">
        <ele>3.8</ele>
        <time>2020-07-08T11:09:03Z</time>
      </trkpt>
      <trkpt lat="47.86359" lon="-3.5419">
        <ele>3.8</ele>
        <time>2020-07-08T11:09:04Z</time>
      </trkpt>
      <trkpt lat="47.86359" lon="-3.5419">
        <ele>3.8</ele>
        <time>2020-07-08T11:09:05Z</time>
      </trkpt>
      <trkpt lat="47.86359" lon="-3.5419">
        <ele>3.8</ele>
        <time>2020-07-08T11:09:06Z</time>
      </trkpt>
      <trkpt lat="47.86359" lon="-3.5419">
        <ele>3.8</ele>
        <time>2020-07-08T11:09:07Z</time>
      </trkpt>
      <trkpt lat="47.86359" lon="-3.5419">
        <ele>3.8</ele>
        <time>2020-07-08T11:09:08Z</time>
      </trkpt>
      <trkpt lat="47.86359" lon="-3.5419">
        <ele>3.8</ele>
        <time>2020-07-08T11:09:09Z</time>
      </trkpt>
      <trkpt lat="47.86359" lon="-3.5419">
        <ele>3.8</ele>
        <time>2020-07-08T11:09:10Z</time>
      </trkpt>
      <trkpt lat="47.86359" lon="-3.5419">
        <ele>3.8</ele>
        <time>2020-07-08T11:09:11Z</time>
      </trkpt>
      <trkpt lat="47.86359" lon="-3.5419">
        <ele>3.8</ele>
        <time>2020-07-08T11:09:12Z</time>
      </trkpt>
      <trkpt lat="47.86359" lon="-3.5419">
        <ele>3.8</ele>
        <time>2020-07-08T11:09:13Z</time>
      </trkpt>
      <trkpt lat="47.86359" lon="-3.5419">
        <ele>3.8</ele>
        <time>2020-07-08T11:09:14Z</time>
      </trkpt>
      <trkpt lat="47.86359" lon="-3.5419">
        <ele>3.8</ele>
        <time>2020-07-08T11:09:15Z</time>
      </trkpt>
      <trkpt lat="47.86359" lon="-3.5419">
        <ele>3.8</ele>
        <time>2020-07-08T11:09:16Z</time>
      </trkpt>
      <trkpt lat="47.86359" lon="-3.5419">
        <ele>3.8</ele>
        <time>2020-07-08T11:09:17Z</time>
      </trkpt>
      <trkpt lat="47.86359" lon="-3.5419">
        <ele>3.8</ele>
        <time>2020-07-08T11:09:18Z</time>
      </trkpt>
      <trkpt lat="47.86359" lon="-3.5419">
        <ele>3.8</ele>
        <time>2020-07-08T11:09:19Z</time>
      </trkpt>
      <trkpt lat="47.86359" lon="-3.5419">
        <ele>3.8</ele>
        <time>2020-07-08T11:09:20Z</time>
      </trkpt>
      <trkpt lat="47.86359" lon="-3.5419">
        <ele>3.8</ele>
        <time>2020-07-08T11:09:21Z</time>
      </trkpt>
      <trkpt lat="47.86359" lon="-3.5419">
        <ele>3.8</ele>
        <time>2020-07-08T11:09:22Z</time>
      </trkpt>
      <trkpt lat="47.86359" lon="-3.5419">
        <ele>3.8</ele>
        <time>2020-07-08T11:09:23Z</time>
      </trkpt>
      <trkpt lat="47.86359" lon="-3.5419">
        <ele>3.8</ele>
        <time>2020-07-08T11:09:24Z</time>
      </trkpt>
      <trkpt lat="47.86359" lon="-3.5419">
        <ele>3.8</ele>
        <time>2020-07-08T11:09:25Z</time>
      </trkpt>
      <trkpt lat="47.86358" lon="-3.5419">
        <ele>3.79</ele>
        <time>2020-07-08T11:09:26Z</time>
      </trkpt>
      <trkpt lat="47.86356" lon="-3.5419">
        <ele>3.79</ele>
        <time>2020-07-08T11:09:27Z</time>
      </trkpt>
      <trkpt lat="47.86354" lon="-3.54191">
        <ele>3.81</ele>
        <time>2020-07-08T11:09:28Z</time>
      </trkpt>
      <trkpt lat="47.86352" lon="-3.54192">
        <ele>3.82</ele>
        <time>2020-07-08T11:09:29Z</time>
      </trkpt>
      <trkpt lat="47.86349" lon="-3.54192">
        <ele>3.86</ele>
        <time>2020-07-08T11:09:30Z</time>
      </trkpt>
      <trkpt lat="47.86346" lon="-3.54194">
        <ele>3.93</ele>
        <time>2020-07-08T11:09:31Z</time>
      </trkpt>
      <trkpt lat="47.86343" lon="-3.54195">
        <ele>4.03</ele>
        <time>2020-07-08T11:09:32Z</time>
      </trkpt>
      <trkpt lat="47.8634" lon="-3.54195">
        <ele>4.11</ele>
        <time>2020-07-08T11:09:33Z</time>
      </trkpt>
      <trkpt lat="47.86336" lon="-3.54195">
        <ele>4.13</ele>
        <time>2020-07-08T11:09:34Z</time>
      </trkpt>
      <trkpt lat="47.86333" lon="-3.54194">
        <ele>4.07</ele>
        <time>2020-07-08T11:09:35Z</time>
      </trkpt>
      <trkpt lat="47.86329" lon="-3.54194">
        <ele>4.31</ele>
        <time>2020-07-08T11:09:36Z</time>
      </trkpt>
      <trkpt lat="47.86326" lon="-3.54195">
        <ele>4.76</ele>
        <time>2020-07-08T11:09:37Z</time>
      </trkpt>
      <trkpt lat="47.86323" lon="-3.54197">
        <ele>5.35</ele>
        <time>2020-07-08T11:09:38Z</time>
      </trkpt>
      <trkpt lat="47.8632" lon="-3.54198">
        <ele>6.03</ele>
        <time>2020-07-08T11:09:39Z</time>
      </trkpt>
      <trkpt lat="47.86315" lon="-3.54198">
        <ele>6.57</ele>
        <time>2020-07-08T11:09:40Z</time>
      </trkpt>
      <trkpt lat="47.8631" lon="-3.54199">
        <ele>7.56</ele>
        <time>2020-07-08T11:09:41Z</time>
      </trkpt>
      <trkpt lat="47.86306" lon="-3.54202">
        <ele>8.83</ele>
        <time>2020-07-08T11:09:42Z</time>
      </trkpt>
      <trkpt lat="47.86301" lon="-3.54204">
        <ele>8.89</ele>
        <time>2020-07-08T11:09:43Z</time>
      </trkpt>
      <trkpt lat="47.86297" lon="-3.54207">
        <ele>8.51</ele>
        <time>2020-07-08T11:09:44Z</time>
      </trkpt>
      <trkpt lat="47.86293" lon="-3.54209">
        <ele>7.89</ele>
        <time>2020-07-08T11:09:45Z</time>
      </trkpt>
      <trkpt lat="47.86289" lon="-3.54211">
        <ele>7.05</ele>
        <time>2020-07-08T11:09:46Z</time>
      </trkpt>
      <trkpt lat="47.86285" lon="-3.54214">
        <ele>6.05</ele>
        <time>2020-07-08T11:09:47Z</time>
      </trkpt>
      <trkpt lat="47.8628" lon="-3.54216">
        <ele>4.88</ele>
        <time>2020-07-08T11:09:48Z</time>
      </trkpt>
      <trkpt lat="47.86276" lon="-3.54219">
        <ele>4.01</ele>
        <time>2020-07-08T11:09:49Z</time>
      </trkpt>
      <trkpt lat="47.86271" lon="-3.54223">
        <ele>3.87</ele>
        <time>2020-07-08T11:09:50Z</time>
      </trkpt>
      <trkpt lat="47.86267" lon="-3.54226">
        <ele>3.77</ele>
        <time>2020-07-08T11:09:51Z</time>
      </trkpt>
      <trkpt lat="47.86262" lon="-3.54229">
        <ele>3.7</ele>
        <time>2020-07-08T11:09:52Z</time>
      </trkpt>
      <trkpt lat="47.86257" lon="-3.54232">
        <ele>3.63</ele>
        <time>2020-07-08T11:09:53Z</time>
      </trkpt>
      <trkpt lat="47.86253" lon="-3.54235">
        <ele>3.58</ele>
        <time>2020-07-08T11:09:54Z</time>
      </trkpt>
      <trkpt lat="47.86248" lon="-3.54238">
        <ele>3.52</ele>
        <time>2020-07-08T11:09:55Z</time>
      </trkpt>
      <trkpt lat="47.86243" lon="-3.54241">
        <ele>3.46</ele>
        <time>2020-07-08T11:09:56Z</time>
      </trkpt>
      <trkpt lat="47.86238" lon="-3.54244">
        <ele>3.39</ele>
        <time>2020-07-08T11:09:57Z</time>
      </trkpt>
      <trkpt lat="47.86234" lon="-3.54246">
        <ele>3.32</ele>
        <time>2020-07-08T11:09:58Z</time>
      </trkpt>
      <trkpt lat="47.8623" lon="-3.54248">
        <ele>3.26</ele>
        <time>2020-07-08T11:09:59Z</time>
      </trkpt>
      <trkpt lat="47.86227" lon="-3.5425">
        <ele>3.19</ele>
        <time>2020-07-08T11:10:00Z</time>
      </trkpt>
      <trkpt lat="47.86223" lon="-3.54252">
        <ele>3.18</ele>
        <time>2020-07-08T11:10:01Z</time>
      </trkpt>
      <trkpt lat="47.86219" lon="-3.54254">
        <ele>3.26</ele>
        <time>2020-07-08T11:10:02Z</time>
      </trkpt>
      <trkpt lat="47.86216" lon="-3.54256">
        <ele>3.33</ele>
        <time>2020-07-08T11:10:03Z</time>
      </trkpt>
      <trkpt lat="47.86212" lon="-3.54257">
        <ele>3.4</ele>
        <time>2020-07-08T11:10:04Z</time>
      </trkpt>
      <trkpt lat="47.86209" lon="-3.54259">
        <ele>3.46</ele>
        <time>2020-07-08T11:10:05Z</time>
      </trkpt>
      <trkpt lat="47.86205" lon="-3.54261">
        <ele>3.52</ele>
        <time>2020-07-08T11:10:06Z</time>
      </trkpt>
      <trkpt lat="47.86202" lon="-3.54263">
        <ele>3.58</ele>
        <time>2020-07-08T11:10:07Z</time>
      </trkpt>
      <trkpt lat="47.86199" lon="-3.54264">
        <ele>3.58</ele>
        <time>2020-07-08T11:10:08Z</time>
      </trkpt>
      <trkpt lat="47.86195" lon="-3.54266">
        <ele>3.58</ele>
        <time>2020-07-08T11:10:09Z</time>
      </trkpt>
      <trkpt lat="47.86191" lon="-3.54267">
        <ele>3.62</ele>
        <time>2020-07-08T11:10:10Z</time>
      </trkpt>
      <trkpt lat="47.86187" lon="-3.54269">
        <ele>3.66</ele>
        <time>2020-07-08T11:10:11Z</time>
      </trkpt>
      <trkpt lat="47.86183" lon="-3.5427">
        <ele>3.71</ele>
        <time>2020-07-08T11:10:12Z</time>
      </trkpt>
      <trkpt lat="47.86179" lon="-3.54271">
        <ele>3.75</ele>
        <time>2020-07-08T11:10:13Z</time>
      </trkpt>
      <trkpt lat="47.86174" lon="-3.54274">
        <ele>3.82</ele>
        <time>2020-07-08T11:10:14Z</time>
      </trkpt>
      <trkpt lat="47.86169" lon="-3.54275">
        <ele>3.88</ele>
        <time>2020-07-08T11:10:15Z</time>
      </trkpt>
      <trkpt lat="47.86165" lon="-3.54278">
        <ele>4.13</ele>
        <time>2020-07-08T11:10:16Z</time>
      </trkpt>
      <trkpt lat="47.86162" lon="-3.5428">
        <ele>4.81</ele>
        <time>2020-07-08T11:10:17Z</time>
      </trkpt>
      <trkpt lat="47.86158" lon="-3.54283">
        <ele>5.76</ele>
        <time>2020-07-08T11:10:18Z</time>
      </trkpt>
      <trkpt lat="47.86154" lon="-3.54285">
        <ele>6.84</ele>
        <time>2020-07-08T11:10:19Z</time>
      </trkpt>
      <trkpt lat="47.86151" lon="-3.54287">
        <ele>7.81</ele>
        <time>2020-07-08T11:10:20Z</time>
      </trkpt>
      <trkpt lat="47.86144" lon="-3.5429">
        <ele>9.9</ele>
        <time>2020-07-08T11:10:21Z</time>
      </trkpt>
      <trkpt lat="47.86138" lon="-3.54293">
        <ele>11.82</ele>
        <time>2020-07-08T11:10:22Z</time>
      </trkpt>
      <trkpt lat="47.86133" lon="-3.54296">
        <ele>12.14</ele>
        <time>2020-07-08T11:10:23Z</time>
      </trkpt>
      <trkpt lat="47.86127" lon="-3.54298">
        <ele>11.49</ele>
        <time>2020-07-08T11:10:24Z</time>
      </trkpt>
      <trkpt lat="47.86122" lon="-3.54301">
        <ele>10.12</ele>
        <time>2020-07-08T11:10:25Z</time>
      </trkpt>
      <trkpt lat="47.86116" lon="-3.54304">
        <ele>8.23</ele>
        <time>2020-07-08T11:10:26Z</time>
      </trkpt>
      <trkpt lat="47.86112" lon="-3.54306">
        <ele>6.27</ele>
        <time>2020-07-08T11:10:27Z</time>
      </trkpt>
      <trkpt lat="47.86107" lon="-3.54308">
        <ele>5.24</ele>
        <time>2020-07-08T11:10:28Z</time>
      </trkpt>
      <trkpt lat="47.86103" lon="-3.54312">
        <ele>4.8</ele>
        <time>2020-07-08T11:10:29Z</time>
      </trkpt>
      <trkpt lat="47.86098" lon="-3.54315">
        <ele>4.53</ele>
        <time>2020-07-08T11:10:30Z</time>
      </trkpt>
      <trkpt lat="47.86095" lon="-3.54318">
        <ele>4.36</ele>
        <time>2020-07-08T11:10:31Z</time>
      </trkpt>
      <trkpt lat="47.86091" lon="-3.54321">
        <ele>4.18</ele>
        <time>2020-07-08T11:10:32Z</time>
      </trkpt>
      <trkpt lat="47.86087" lon="-3.54324">
        <ele>4</ele>
        <time>2020-07-08T11:10:33Z</time>
      </trkpt>
      <trkpt lat="47.86083" lon="-3.54326">
        <ele>3.83</ele>
        <time>2020-07-08T11:10:34Z</time>
      </trkpt>
      <trkpt lat="47.86079" lon="-3.5433">
        <ele>3.86</ele>
        <time>2020-07-08T11:10:35Z</time>
      </trkpt>
      <trkpt lat="47.86075" lon="-3.54334">
        <ele>3.97</ele>
        <time>2020-07-08T11:10:36Z</time>
      </trkpt>
      <trkpt lat="47.86071" lon="-3.54338">
        <ele>4.1</ele>
        <time>2020-07-08T11:10:37Z</time>
      </trkpt>
      <trkpt lat="47.86068" lon="-3.54342">
        <ele>4.25</ele>
        <time>2020-07-08T11:10:38Z</time>
      </trkpt>
      <trkpt lat="47.86065" lon="-3.54346">
        <ele>4.39</ele>
        <time>2020-07-08T11:10:39Z</time>
      </trkpt>
      <trkpt lat="47.86061" lon="-3.54349">
        <ele>4.5</ele>
        <time>2020-07-08T11:10:40Z</time>
      </trkpt>
      <trkpt lat="47.86058" lon="-3.54351">
        <ele>4.6</ele>
        <time>2020-07-08T11:10:41Z</time>
      </trkpt>
      <trkpt lat="47.86055" lon="-3.54353">
        <ele>4.69</ele>
        <time>2020-07-08T11:10:42Z</time>
      </trkpt>
      <trkpt lat="47.86051" lon="-3.54356">
        <ele>4.79</ele>
        <time>2020-07-08T11:10:43Z</time>
      </trkpt>
      <trkpt lat="47.86046" lon="-3.5436">
        <ele>4.9</ele>
        <time>2020-07-08T11:10:44Z</time>
      </trkpt>
      <trkpt lat="47.86042" lon="-3.54361">
        <ele>4.97</ele>
        <time>2020-07-08T11:10:45Z</time>
      </trkpt>
      <trkpt lat="47.86037" lon="-3.54362">
        <ele>5</ele>
        <time>2020-07-08T11:10:46Z</time>
      </trkpt>
      <trkpt lat="47.86032" lon="-3.54362">
        <ele>5</ele>
        <time>2020-07-08T11:10:47Z</time>
      </trkpt>
      <trkpt lat="47.86028" lon="-3.54361">
        <ele>4.99</ele>
        <time>2020-07-08T11:10:48Z</time>
      </trkpt>
      <trkpt lat="47.86023" lon="-3.54362">
        <ele>4.88</ele>
        <time>2020-07-08T11:10:49Z</time>
      </trkpt>
      <trkpt lat="47.86018" lon="-3.54364">
        <ele>4.73</ele>
        <time>2020-07-08T11:10:50Z</time>
      </trkpt>
      <trkpt lat="47.86014" lon="-3.54368">
        <ele>4.58</ele>
        <time>2020-07-08T11:10:51Z</time>
      </trkpt>
      <trkpt lat="47.8601" lon="-3.54372">
        <ele>4.42</ele>
        <time>2020-07-08T11:10:52Z</time>
      </trkpt>
      <trkpt lat="47.86006" lon="-3.54377">
        <ele>4.27</ele>
        <time>2020-07-08T11:10:53Z</time>
      </trkpt>
      <trkpt lat="47.86002" lon="-3.54382">
        <ele>4.13</ele>
        <time>2020-07-08T11:10:54Z</time>
      </trkpt>
      <trkpt lat="47.85998" lon="-3.54385">
        <ele>4.1</ele>
        <time>2020-07-08T11:10:55Z</time>
      </trkpt>
      <trkpt lat="47.85994" lon="-3.54388">
        <ele>4.19</ele>
        <time>2020-07-08T11:10:56Z</time>
      </trkpt>
      <trkpt lat="47.85989" lon="-3.5439">
        <ele>4.36</ele>
        <time>2020-07-08T11:10:57Z</time>
      </trkpt>
      <trkpt lat="47.85985" lon="-3.54392">
        <ele>4.56</ele>
        <time>2020-07-08T11:10:58Z</time>
      </trkpt>
      <trkpt lat="47.85982" lon="-3.54395">
        <ele>4.72</ele>
        <time>2020-07-08T11:10:59Z</time>
      </trkpt>
      <trkpt lat="47.85979" lon="-3.54398">
        <ele>4.86</ele>
        <time>2020-07-08T11:11:00Z</time>
      </trkpt>
      <trkpt lat="47.85976" lon="-3.54401">
        <ele>4.94</ele>
        <time>2020-07-08T11:11:01Z</time>
      </trkpt>
      <trkpt lat="47.85972" lon="-3.54402">
        <ele>4.98</ele>
        <time>2020-07-08T11:11:02Z</time>
      </trkpt>
      <trkpt lat="47.85969" lon="-3.54404">
        <ele>4.99</ele>
        <time>2020-07-08T11:11:03Z</time>
      </trkpt>
      <trkpt lat="47.85964" lon="-3.54406">
        <ele>5</ele>
        <time>2020-07-08T11:11:04Z</time>
      </trkpt>
      <trkpt lat="47.85961" lon="-3.54409">
        <ele>5</ele>
        <time>2020-07-08T11:11:05Z</time>
      </trkpt>
      <trkpt lat="47.85957" lon="-3.54413">
        <ele>5</ele>
        <time>2020-07-08T11:11:06Z</time>
      </trkpt>
      <trkpt lat="47.85953" lon="-3.54417">
        <ele>5.02</ele>
        <time>2020-07-08T11:11:07Z</time>
      </trkpt>
      <trkpt lat="47.8595" lon="-3.54421">
        <ele>5.11</ele>
        <time>2020-07-08T11:11:08Z</time>
      </trkpt>
      <trkpt lat="47.85946" lon="-3.54424">
        <ele>5.21</ele>
        <time>2020-07-08T11:11:09Z</time>
      </trkpt>
      <trkpt lat="47.85941" lon="-3.54426">
        <ele>5.3</ele>
        <time>2020-07-08T11:11:10Z</time>
      </trkpt>
      <trkpt lat="47.85936" lon="-3.54428">
        <ele>5.37</ele>
        <time>2020-07-08T11:11:11Z</time>
      </trkpt>
      <trkpt lat="47.85931" lon="-3.54429">
        <ele>5.43</ele>
        <time>2020-07-08T11:11:12Z</time>
      </trkpt>
      <trkpt lat="47.85926" lon="-3.54431">
        <ele>5.49</ele>
        <time>2020-07-08T11:11:13Z</time>
      </trkpt>
      <trkpt lat="47.85921" lon="-3.54433">
        <ele>5.55</ele>
        <time>2020-07-08T11:11:14Z</time>
      </trkpt>
      <trkpt lat="47.85916" lon="-3.54434">
        <ele>5.61</ele>
        <time>2020-07-08T11:11:15Z</time>
      </trkpt>
      <trkpt lat="47.85911" lon="-3.54436">
        <ele>5.67</ele>
        <time>2020-07-08T11:11:16Z</time>
      </trkpt>
      <trkpt lat="47.85906" lon="-3.54438">
        <ele>5.74</ele>
        <time>2020-07-08T11:11:17Z</time>
      </trkpt>
      <trkpt lat="47.859" lon="-3.5444">
        <ele>5.82</ele>
        <time>2020-07-08T11:11:18Z</time>
      </trkpt>
      <trkpt lat="47.85895" lon="-3.54442">
        <ele>5.89</ele>
        <time>2020-07-08T11:11:19Z</time>
      </trkpt>
      <trkpt lat="47.8589" lon="-3.54445">
        <ele>5.97</ele>
        <time>2020-07-08T11:11:20Z</time>
      </trkpt>
      <trkpt lat="47.85885" lon="-3.54447">
        <ele>5.97</ele>
        <time>2020-07-08T11:11:21Z</time>
      </trkpt>
      <trkpt lat="47.8588" lon="-3.54449">
        <ele>5.97</ele>
        <time>2020-07-08T11:11:22Z</time>
      </trkpt>
      <trkpt lat="47.85875" lon="-3.54452">
        <ele>6.02</ele>
        <time>2020-07-08T11:11:23Z</time>
      </trkpt>
      <trkpt lat="47.8587" lon="-3.54455">
        <ele>6.14</ele>
        <time>2020-07-08T11:11:24Z</time>
      </trkpt>
      <trkpt lat="47.85865" lon="-3.54457">
        <ele>6.31</ele>
        <time>2020-07-08T11:11:25Z</time>
      </trkpt>
      <trkpt lat="47.8586" lon="-3.5446">
        <ele>6.52</ele>
        <time>2020-07-08T11:11:26Z</time>
      </trkpt>
      <trkpt lat="47.85855" lon="-3.54463">
        <ele>6.62</ele>
        <time>2020-07-08T11:11:27Z</time>
      </trkpt>
      <trkpt lat="47.8585" lon="-3.54465">
        <ele>6.65</ele>
        <time>2020-07-08T11:11:28Z</time>
      </trkpt>
      <trkpt lat="47.85845" lon="-3.54469">
        <ele>6.63</ele>
        <time>2020-07-08T11:11:29Z</time>
      </trkpt>
      <trkpt lat="47.8584" lon="-3.54472">
        <ele>6.52</ele>
        <time>2020-07-08T11:11:30Z</time>
      </trkpt>
      <trkpt lat="47.85835" lon="-3.54475">
        <ele>6.51</ele>
        <time>2020-07-08T11:11:31Z</time>
      </trkpt>
      <trkpt lat="47.85831" lon="-3.54478">
        <ele>6.62</ele>
        <time>2020-07-08T11:11:32Z</time>
      </trkpt>
      <trkpt lat="47.85826" lon="-3.54481">
        <ele>6.75</ele>
        <time>2020-07-08T11:11:33Z</time>
      </trkpt>
      <trkpt lat="47.85821" lon="-3.54484">
        <ele>6.77</ele>
        <time>2020-07-08T11:11:34Z</time>
      </trkpt>
      <trkpt lat="47.85817" lon="-3.54488">
        <ele>6.7</ele>
        <time>2020-07-08T11:11:35Z</time>
      </trkpt>
      <trkpt lat="47.85812" lon="-3.54491">
        <ele>6.51</ele>
        <time>2020-07-08T11:11:36Z</time>
      </trkpt>
      <trkpt lat="47.85808" lon="-3.54495">
        <ele>6.23</ele>
        <time>2020-07-08T11:11:37Z</time>
      </trkpt>
      <trkpt lat="47.85803" lon="-3.54499">
        <ele>6.29</ele>
        <time>2020-07-08T11:11:38Z</time>
      </trkpt>
      <trkpt lat="47.85799" lon="-3.54503">
        <ele>6.75</ele>
        <time>2020-07-08T11:11:39Z</time>
      </trkpt>
      <trkpt lat="47.85795" lon="-3.54507">
        <ele>7.17</ele>
        <time>2020-07-08T11:11:40Z</time>
      </trkpt>
      <trkpt lat="47.85791" lon="-3.5451">
        <ele>7.53</ele>
        <time>2020-07-08T11:11:41Z</time>
      </trkpt>
      <trkpt lat="47.85787" lon="-3.54514">
        <ele>7.73</ele>
        <time>2020-07-08T11:11:42Z</time>
      </trkpt>
      <trkpt lat="47.85783" lon="-3.54517">
        <ele>7.8</ele>
        <time>2020-07-08T11:11:43Z</time>
      </trkpt>
      <trkpt lat="47.8578" lon="-3.54518">
        <ele>7.9</ele>
        <time>2020-07-08T11:11:44Z</time>
      </trkpt>
      <trkpt lat="47.85776" lon="-3.54518">
        <ele>8.21</ele>
        <time>2020-07-08T11:11:45Z</time>
      </trkpt>
      <trkpt lat="47.85773" lon="-3.54518">
        <ele>8.75</ele>
        <time>2020-07-08T11:11:46Z</time>
      </trkpt>
      <trkpt lat="47.8577" lon="-3.54518">
        <ele>9.29</ele>
        <time>2020-07-08T11:11:47Z</time>
      </trkpt>
      <trkpt lat="47.85767" lon="-3.54519">
        <ele>9.67</ele>
        <time>2020-07-08T11:11:48Z</time>
      </trkpt>
      <trkpt lat="47.85765" lon="-3.54521">
        <ele>9.89</ele>
        <time>2020-07-08T11:11:49Z</time>
      </trkpt>
      <trkpt lat="47.85762" lon="-3.54522">
        <ele>10.12</ele>
        <time>2020-07-08T11:11:50Z</time>
      </trkpt>
      <trkpt lat="47.8576" lon="-3.54524">
        <ele>10.23</ele>
        <time>2020-07-08T11:11:51Z</time>
      </trkpt>
      <trkpt lat="47.85756" lon="-3.54526">
        <ele>10.33</ele>
        <time>2020-07-08T11:11:52Z</time>
      </trkpt>
      <trkpt lat="47.85754" lon="-3.54529">
        <ele>10.37</ele>
        <time>2020-07-08T11:11:53Z</time>
      </trkpt>
      <trkpt lat="47.85751" lon="-3.5453">
        <ele>10.57</ele>
        <time>2020-07-08T11:11:54Z</time>
      </trkpt>
      <trkpt lat="47.85749" lon="-3.54533">
        <ele>10.82</ele>
        <time>2020-07-08T11:11:55Z</time>
      </trkpt>
      <trkpt lat="47.85745" lon="-3.54536">
        <ele>11.21</ele>
        <time>2020-07-08T11:11:56Z</time>
      </trkpt>
      <trkpt lat="47.85742" lon="-3.54538">
        <ele>11.54</ele>
        <time>2020-07-08T11:11:57Z</time>
      </trkpt>
      <trkpt lat="47.85739" lon="-3.5454">
        <ele>11.83</ele>
        <time>2020-07-08T11:11:58Z</time>
      </trkpt>
      <trkpt lat="47.85736" lon="-3.54543">
        <ele>12.09</ele>
        <time>2020-07-08T11:11:59Z</time>
      </trkpt>
      <trkpt lat="47.85732" lon="-3.54545">
        <ele>12.42</ele>
        <time>2020-07-08T11:12:00Z</time>
      </trkpt>
      <trkpt lat="47.85728" lon="-3.54547">
        <ele>12.7</ele>
        <time>2020-07-08T11:12:01Z</time>
      </trkpt>
      <trkpt lat="47.85725" lon="-3.54548">
        <ele>12.9</ele>
        <time>2020-07-08T11:12:02Z</time>
      </trkpt>
      <trkpt lat="47.85721" lon="-3.5455">
        <ele>13.09</ele>
        <time>2020-07-08T11:12:03Z</time>
      </trkpt>
      <trkpt lat="47.85718" lon="-3.54553">
        <ele>13.3</ele>
        <time>2020-07-08T11:12:04Z</time>
      </trkpt>
      <trkpt lat="47.85715" lon="-3.54557">
        <ele>13.71</ele>
        <time>2020-07-08T11:12:05Z</time>
      </trkpt>
      <trkpt lat="47.85711" lon="-3.5456">
        <ele>14.33</ele>
        <time>2020-07-08T11:12:06Z</time>
      </trkpt>
      <trkpt lat="47.85708" lon="-3.54564">
        <ele>14.74</ele>
        <time>2020-07-08T11:12:07Z</time>
      </trkpt>
      <trkpt lat="47.85706" lon="-3.54568">
        <ele>15</ele>
        <time>2020-07-08T11:12:08Z</time>
      </trkpt>
      <trkpt lat="47.85703" lon="-3.5457">
        <ele>15.23</ele>
        <time>2020-07-08T11:12:09Z</time>
      </trkpt>
      <trkpt lat="47.85702" lon="-3.54573">
        <ele>15.35</ele>
        <time>2020-07-08T11:12:10Z</time>
      </trkpt>
      <trkpt lat="47.857" lon="-3.54575">
        <ele>15.35</ele>
        <time>2020-07-08T11:12:11Z</time>
      </trkpt>
      <trkpt lat="47.85698" lon="-3.54578">
        <ele>15.32</ele>
        <time>2020-07-08T11:12:12Z</time>
      </trkpt>
      <trkpt lat="47.85696" lon="-3.5458">
        <ele>15.31</ele>
        <time>2020-07-08T11:12:13Z</time>
      </trkpt>
      <trkpt lat="47.85694" lon="-3.54582">
        <ele>15.37</ele>
        <time>2020-07-08T11:12:14Z</time>
      </trkpt>
      <trkpt lat="47.85692" lon="-3.54585">
        <ele>15.64</ele>
        <time>2020-07-08T11:12:15Z</time>
      </trkpt>
      <trkpt lat="47.8569" lon="-3.54588">
        <ele>16.06</ele>
        <time>2020-07-08T11:12:16Z</time>
      </trkpt>
      <trkpt lat="47.85687" lon="-3.5459">
        <ele>16.61</ele>
        <time>2020-07-08T11:12:17Z</time>
      </trkpt>
      <trkpt lat="47.85684" lon="-3.54592">
        <ele>17.23</ele>
        <time>2020-07-08T11:12:18Z</time>
      </trkpt>
      <trkpt lat="47.85682" lon="-3.54595">
        <ele>17.74</ele>
        <time>2020-07-08T11:12:19Z</time>
      </trkpt>
      <trkpt lat="47.85679" lon="-3.54597">
        <ele>18.21</ele>
        <time>2020-07-08T11:12:20Z</time>
      </trkpt>
      <trkpt lat="47.85676" lon="-3.54599">
        <ele>18.72</ele>
        <time>2020-07-08T11:12:21Z</time>
      </trkpt>
      <trkpt lat="47.85673" lon="-3.54601">
        <ele>19.11</ele>
        <time>2020-07-08T11:12:22Z</time>
      </trkpt>
      <trkpt lat="47.85672" lon="-3.54603">
        <ele>19.24</ele>
        <time>2020-07-08T11:12:23Z</time>
      </trkpt>
      <trkpt lat="47.85669" lon="-3.54605">
        <ele>19.41</ele>
        <time>2020-07-08T11:12:24Z</time>
      </trkpt>
      <trkpt lat="47.85667" lon="-3.54608">
        <ele>19.51</ele>
        <time>2020-07-08T11:12:25Z</time>
      </trkpt>
      <trkpt lat="47.85664" lon="-3.5461">
        <ele>19.63</ele>
        <time>2020-07-08T11:12:26Z</time>
      </trkpt>
      <trkpt lat="47.85662" lon="-3.54612">
        <ele>19.72</ele>
        <time>2020-07-08T11:12:27Z</time>
      </trkpt>
      <trkpt lat="47.8566" lon="-3.54613">
        <ele>19.89</ele>
        <time>2020-07-08T11:12:28Z</time>
      </trkpt>
      <trkpt lat="47.85659" lon="-3.54614">
        <ele>20.03</ele>
        <time>2020-07-08T11:12:29Z</time>
      </trkpt>
      <trkpt lat="47.85657" lon="-3.54616">
        <ele>20.08</ele>
        <time>2020-07-08T11:12:30Z</time>
      </trkpt>
      <trkpt lat="47.85654" lon="-3.54619">
        <ele>20.12</ele>
        <time>2020-07-08T11:12:31Z</time>
      </trkpt>
      <trkpt lat="47.85652" lon="-3.54622">
        <ele>20.05</ele>
        <time>2020-07-08T11:12:32Z</time>
      </trkpt>
      <trkpt lat="47.8565" lon="-3.54625">
        <ele>19.93</ele>
        <time>2020-07-08T11:12:33Z</time>
      </trkpt>
      <trkpt lat="47.85647" lon="-3.54628">
        <ele>19.89</ele>
        <time>2020-07-08T11:12:34Z</time>
      </trkpt>
      <trkpt lat="47.85644" lon="-3.54631">
        <ele>19.85</ele>
        <time>2020-07-08T11:12:35Z</time>
      </trkpt>
      <trkpt lat="47.8564" lon="-3.54633">
        <ele>19.86</ele>
        <time>2020-07-08T11:12:36Z</time>
      </trkpt>
      <trkpt lat="47.85638" lon="-3.54635">
        <ele>19.79</ele>
        <time>2020-07-08T11:12:37Z</time>
      </trkpt>
      <trkpt lat="47.85637" lon="-3.54638">
        <ele>19.75</ele>
        <time>2020-07-08T11:12:38Z</time>
      </trkpt>
      <trkpt lat="47.85634" lon="-3.5464">
        <ele>19.84</ele>
        <time>2020-07-08T11:12:39Z</time>
      </trkpt>
      <trkpt lat="47.85632" lon="-3.54643">
        <ele>20.12</ele>
        <time>2020-07-08T11:12:40Z</time>
      </trkpt>
      <trkpt lat="47.8563" lon="-3.54646">
        <ele>20.35</ele>
        <time>2020-07-08T11:12:41Z</time>
      </trkpt>
      <trkpt lat="47.85628" lon="-3.54649">
        <ele>20.62</ele>
        <time>2020-07-08T11:12:42Z</time>
      </trkpt>
      <trkpt lat="47.85626" lon="-3.54651">
        <ele>20.86</ele>
        <time>2020-07-08T11:12:43Z</time>
      </trkpt>
      <trkpt lat="47.85624" lon="-3.54653">
        <ele>21.13</ele>
        <time>2020-07-08T11:12:44Z</time>
      </trkpt>
      <trkpt lat="47.85621" lon="-3.54654">
        <ele>21.42</ele>
        <time>2020-07-08T11:12:45Z</time>
      </trkpt>
      <trkpt lat="47.85619" lon="-3.54654">
        <ele>21.86</ele>
        <time>2020-07-08T11:12:46Z</time>
      </trkpt>
      <trkpt lat="47.85615" lon="-3.54654">
        <ele>22.44</ele>
        <time>2020-07-08T11:12:47Z</time>
      </trkpt>
      <trkpt lat="47.85612" lon="-3.54654">
        <ele>22.97</ele>
        <time>2020-07-08T11:12:48Z</time>
      </trkpt>
      <trkpt lat="47.85608" lon="-3.54655">
        <ele>23.43</ele>
        <time>2020-07-08T11:12:49Z</time>
      </trkpt>
      <trkpt lat="47.85605" lon="-3.54657">
        <ele>23.8</ele>
        <time>2020-07-08T11:12:50Z</time>
      </trkpt>
      <trkpt lat="47.85602" lon="-3.54658">
        <ele>24.18</ele>
        <time>2020-07-08T11:12:51Z</time>
      </trkpt>
      <trkpt lat="47.85598" lon="-3.54659">
        <ele>24.55</ele>
        <time>2020-07-08T11:12:52Z</time>
      </trkpt>
      <trkpt lat="47.85595" lon="-3.5466">
        <ele>24.94</ele>
        <time>2020-07-08T11:12:53Z</time>
      </trkpt>
      <trkpt lat="47.85591" lon="-3.54661">
        <ele>25.38</ele>
        <time>2020-07-08T11:12:54Z</time>
      </trkpt>
      <trkpt lat="47.85587" lon="-3.54663">
        <ele>25.76</ele>
        <time>2020-07-08T11:12:55Z</time>
      </trkpt>
      <trkpt lat="47.85582" lon="-3.54665">
        <ele>26.15</ele>
        <time>2020-07-08T11:12:56Z</time>
      </trkpt>
      <trkpt lat="47.85578" lon="-3.54667">
        <ele>26.53</ele>
        <time>2020-07-08T11:12:57Z</time>
      </trkpt>
      <trkpt lat="47.85575" lon="-3.54669">
        <ele>26.82</ele>
        <time>2020-07-08T11:12:58Z</time>
      </trkpt>
      <trkpt lat="47.85571" lon="-3.54671">
        <ele>27.12</ele>
        <time>2020-07-08T11:12:59Z</time>
      </trkpt>
      <trkpt lat="47.85567" lon="-3.54672">
        <ele>27.44</ele>
        <time>2020-07-08T11:13:00Z</time>
      </trkpt>
      <trkpt lat="47.85563" lon="-3.54674">
        <ele>27.69</ele>
        <time>2020-07-08T11:13:01Z</time>
      </trkpt>
      <trkpt lat="47.8556" lon="-3.54676">
        <ele>27.9</ele>
        <time>2020-07-08T11:13:02Z</time>
      </trkpt>
      <trkpt lat="47.85558" lon="-3.54678">
        <ele>28.03</ele>
        <time>2020-07-08T11:13:03Z</time>
      </trkpt>
      <trkpt lat="47.85555" lon="-3.5468">
        <ele>28.09</ele>
        <time>2020-07-08T11:13:04Z</time>
      </trkpt>
      <trkpt lat="47.85553" lon="-3.54681">
        <ele>28.13</ele>
        <time>2020-07-08T11:13:05Z</time>
      </trkpt>
      <trkpt lat="47.85551" lon="-3.54683">
        <ele>28.16</ele>
        <time>2020-07-08T11:13:06Z</time>
      </trkpt>
      <trkpt lat="47.85548" lon="-3.54685">
        <ele>28.22</ele>
        <time>2020-07-08T11:13:07Z</time>
      </trkpt>
      <trkpt lat="47.85545" lon="-3.54687">
        <ele>28.27</ele>
        <time>2020-07-08T11:13:08Z</time>
      </trkpt>
      <trkpt lat="47.85543" lon="-3.5469">
        <ele>28.27</ele>
        <time>2020-07-08T11:13:09Z</time>
      </trkpt>
      <trkpt lat="47.85541" lon="-3.54694">
        <ele>28.24</ele>
        <time>2020-07-08T11:13:10Z</time>
      </trkpt>
      <trkpt lat="47.85538" lon="-3.54697">
        <ele>28.22</ele>
        <time>2020-07-08T11:13:11Z</time>
      </trkpt>
      <trkpt lat="47.85535" lon="-3.54701">
        <ele>28.07</ele>
        <time>2020-07-08T11:13:12Z</time>
      </trkpt>
      <trkpt lat="47.85533" lon="-3.54705">
        <ele>27.93</ele>
        <time>2020-07-08T11:13:13Z</time>
      </trkpt>
      <trkpt lat="47.85529" lon="-3.54709">
        <ele>27.84</ele>
        <time>2020-07-08T11:13:14Z</time>
      </trkpt>
      <trkpt lat="47.85525" lon="-3.54713">
        <ele>27.63</ele>
        <time>2020-07-08T11:13:15Z</time>
      </trkpt>
      <trkpt lat="47.85522" lon="-3.54717">
        <ele>27.36</ele>
        <time>2020-07-08T11:13:16Z</time>
      </trkpt>
      <trkpt lat="47.85519" lon="-3.54721">
        <ele>27.23</ele>
        <time>2020-07-08T11:13:17Z</time>
      </trkpt>
      <trkpt lat="47.85515" lon="-3.54724">
        <ele>27.07</ele>
        <time>2020-07-08T11:13:18Z</time>
      </trkpt>
      <trkpt lat="47.85513" lon="-3.54729">
        <ele>26.75</ele>
        <time>2020-07-08T11:13:19Z</time>
      </trkpt>
      <trkpt lat="47.85509" lon="-3.54732">
        <ele>26.52</ele>
        <time>2020-07-08T11:13:20Z</time>
      </trkpt>
      <trkpt lat="47.85506" lon="-3.54734">
        <ele>26.43</ele>
        <time>2020-07-08T11:13:21Z</time>
      </trkpt>
      <trkpt lat="47.85502" lon="-3.54736">
        <ele>26.41</ele>
        <time>2020-07-08T11:13:22Z</time>
      </trkpt>
      <trkpt lat="47.85498" lon="-3.54737">
        <ele>26.43</ele>
        <time>2020-07-08T11:13:23Z</time>
      </trkpt>
      <trkpt lat="47.85495" lon="-3.54738">
        <ele>26.33</ele>
        <time>2020-07-08T11:13:24Z</time>
      </trkpt>
      <trkpt lat="47.85492" lon="-3.54739">
        <ele>26.25</ele>
        <time>2020-07-08T11:13:25Z</time>
      </trkpt>
      <trkpt lat="47.85488" lon="-3.54739">
        <ele>26.21</ele>
        <time>2020-07-08T11:13:26Z</time>
      </trkpt>
      <trkpt lat="47.85484" lon="-3.54739">
        <ele>26.29</ele>
        <time>2020-07-08T11:13:27Z</time>
      </trkpt>
      <trkpt lat="47.85481" lon="-3.54738">
        <ele>26.43</ele>
        <time>2020-07-08T11:13:28Z</time>
      </trkpt>
      <trkpt lat="47.85478" lon="-3.54737">
        <ele>26.63</ele>
        <time>2020-07-08T11:13:29Z</time>
      </trkpt>
      <trkpt lat="47.85475" lon="-3.54736">
        <ele>26.91</ele>
        <time>2020-07-08T11:13:30Z</time>
      </trkpt>
      <trkpt lat="47.85473" lon="-3.54733">
        <ele>27.23</ele>
        <time>2020-07-08T11:13:31Z</time>
      </trkpt>
      <trkpt lat="47.8547" lon="-3.54731">
        <ele>27.65</ele>
        <time>2020-07-08T11:13:32Z</time>
      </trkpt>
      <trkpt lat="47.85467" lon="-3.54729">
        <ele>28.09</ele>
        <time>2020-07-08T11:13:33Z</time>
      </trkpt>
      <trkpt lat="47.85464" lon="-3.54726">
        <ele>28.61</ele>
        <time>2020-07-08T11:13:34Z</time>
      </trkpt>
      <trkpt lat="47.85461" lon="-3.54723">
        <ele>29.1</ele>
        <time>2020-07-08T11:13:35Z</time>
      </trkpt>
      <trkpt lat="47.85459" lon="-3.54719">
        <ele>29.56</ele>
        <time>2020-07-08T11:13:36Z</time>
      </trkpt>
      <trkpt lat="47.85457" lon="-3.54715">
        <ele>29.98</ele>
        <time>2020-07-08T11:13:37Z</time>
      </trkpt>
      <trkpt lat="47.85455" lon="-3.54712">
        <ele>30.35</ele>
        <time>2020-07-08T11:13:38Z</time>
      </trkpt>
      <trkpt lat="47.85453" lon="-3.54707">
        <ele>30.77</ele>
        <time>2020-07-08T11:13:39Z</time>
      </trkpt>
      <trkpt lat="47.85452" lon="-3.54703">
        <ele>31.12</ele>
        <time>2020-07-08T11:13:40Z</time>
      </trkpt>
      <trkpt lat="47.85451" lon="-3.547">
        <ele>31.45</ele>
        <time>2020-07-08T11:13:41Z</time>
      </trkpt>
      <trkpt lat="47.8545" lon="-3.54695">
        <ele>31.79</ele>
        <time>2020-07-08T11:13:42Z</time>
      </trkpt>
      <trkpt lat="47.85449" lon="-3.54691">
        <ele>32.02</ele>
        <time>2020-07-08T11:13:43Z</time>
      </trkpt>
      <trkpt lat="47.85449" lon="-3.54687">
        <ele>32.2</ele>
        <time>2020-07-08T11:13:44Z</time>
      </trkpt>
      <trkpt lat="47.85448" lon="-3.54682">
        <ele>32.37</ele>
        <time>2020-07-08T11:13:45Z</time>
      </trkpt>
      <trkpt lat="47.85447" lon="-3.54677">
        <ele>32.54</ele>
        <time>2020-07-08T11:13:46Z</time>
      </trkpt>
      <trkpt lat="47.85447" lon="-3.54673">
        <ele>32.69</ele>
        <time>2020-07-08T11:13:47Z</time>
      </trkpt>
      <trkpt lat="47.85446" lon="-3.54669">
        <ele>32.84</ele>
        <time>2020-07-08T11:13:48Z</time>
      </trkpt>
      <trkpt lat="47.85445" lon="-3.54664">
        <ele>32.95</ele>
        <time>2020-07-08T11:13:49Z</time>
      </trkpt>
      <trkpt lat="47.85444" lon="-3.5466">
        <ele>32.99</ele>
        <time>2020-07-08T11:13:50Z</time>
      </trkpt>
      <trkpt lat="47.85444" lon="-3.54655">
        <ele>33.01</ele>
        <time>2020-07-08T11:13:51Z</time>
      </trkpt>
      <trkpt lat="47.85444" lon="-3.54652">
        <ele>33.02</ele>
        <time>2020-07-08T11:13:52Z</time>
      </trkpt>
      <trkpt lat="47.85443" lon="-3.54648">
        <ele>33.06</ele>
        <time>2020-07-08T11:13:53Z</time>
      </trkpt>
      <trkpt lat="47.85443" lon="-3.54643">
        <ele>33.11</ele>
        <time>2020-07-08T11:13:54Z</time>
      </trkpt>
      <trkpt lat="47.85442" lon="-3.54638">
        <ele>33.19</ele>
        <time>2020-07-08T11:13:55Z</time>
      </trkpt>
      <trkpt lat="47.85441" lon="-3.54633">
        <ele>33.38</ele>
        <time>2020-07-08T11:13:56Z</time>
      </trkpt>
      <trkpt lat="47.8544" lon="-3.54628">
        <ele>33.57</ele>
        <time>2020-07-08T11:13:57Z</time>
      </trkpt>
      <trkpt lat="47.8544" lon="-3.54624">
        <ele>33.79</ele>
        <time>2020-07-08T11:13:58Z</time>
      </trkpt>
      <trkpt lat="47.8544" lon="-3.54619">
        <ele>33.98</ele>
        <time>2020-07-08T11:13:59Z</time>
      </trkpt>
      <trkpt lat="47.85439" lon="-3.54615">
        <ele>34.16</ele>
        <time>2020-07-08T11:14:00Z</time>
      </trkpt>
      <trkpt lat="47.85439" lon="-3.5461">
        <ele>34.37</ele>
        <time>2020-07-08T11:14:01Z</time>
      </trkpt>
      <trkpt lat="47.85439" lon="-3.54606">
        <ele>34.67</ele>
        <time>2020-07-08T11:14:02Z</time>
      </trkpt>
      <trkpt lat="47.85439" lon="-3.54601">
        <ele>34.98</ele>
        <time>2020-07-08T11:14:03Z</time>
      </trkpt>
      <trkpt lat="47.85439" lon="-3.54597">
        <ele>35.3</ele>
        <time>2020-07-08T11:14:04Z</time>
      </trkpt>
      <trkpt lat="47.85439" lon="-3.54593">
        <ele>35.62</ele>
        <time>2020-07-08T11:14:05Z</time>
      </trkpt>
      <trkpt lat="47.85438" lon="-3.54588">
        <ele>35.95</ele>
        <time>2020-07-08T11:14:06Z</time>
      </trkpt>
      <trkpt lat="47.85438" lon="-3.54584">
        <ele>36.28</ele>
        <time>2020-07-08T11:14:07Z</time>
      </trkpt>
      <trkpt lat="47.85437" lon="-3.5458">
        <ele>36.69</ele>
        <time>2020-07-08T11:14:08Z</time>
      </trkpt>
      <trkpt lat="47.85436" lon="-3.54576">
        <ele>37.13</ele>
        <time>2020-07-08T11:14:09Z</time>
      </trkpt>
      <trkpt lat="47.85436" lon="-3.54572">
        <ele>37.53</ele>
        <time>2020-07-08T11:14:10Z</time>
      </trkpt>
      <trkpt lat="47.85435" lon="-3.54568">
        <ele>37.95</ele>
        <time>2020-07-08T11:14:11Z</time>
      </trkpt>
      <trkpt lat="47.85434" lon="-3.54564">
        <ele>38.37</ele>
        <time>2020-07-08T11:14:12Z</time>
      </trkpt>
      <trkpt lat="47.85433" lon="-3.5456">
        <ele>38.8</ele>
        <time>2020-07-08T11:14:13Z</time>
      </trkpt>
      <trkpt lat="47.85432" lon="-3.54556">
        <ele>39.23</ele>
        <time>2020-07-08T11:14:14Z</time>
      </trkpt>
      <trkpt lat="47.85432" lon="-3.54552">
        <ele>39.64</ele>
        <time>2020-07-08T11:14:15Z</time>
      </trkpt>
      <trkpt lat="47.85431" lon="-3.54548">
        <ele>40.02</ele>
        <time>2020-07-08T11:14:16Z</time>
      </trkpt>
      <trkpt lat="47.85431" lon="-3.54544">
        <ele>40.4</ele>
        <time>2020-07-08T11:14:17Z</time>
      </trkpt>
      <trkpt lat="47.8543" lon="-3.5454">
        <ele>40.79</ele>
        <time>2020-07-08T11:14:18Z</time>
      </trkpt>
      <trkpt lat="47.85429" lon="-3.54536">
        <ele>41.12</ele>
        <time>2020-07-08T11:14:19Z</time>
      </trkpt>
      <trkpt lat="47.85428" lon="-3.54533">
        <ele>41.45</ele>
        <time>2020-07-08T11:14:20Z</time>
      </trkpt>
      <trkpt lat="47.85427" lon="-3.54529">
        <ele>41.78</ele>
        <time>2020-07-08T11:14:21Z</time>
      </trkpt>
      <trkpt lat="47.85426" lon="-3.54526">
        <ele>42.02</ele>
        <time>2020-07-08T11:14:22Z</time>
      </trkpt>
      <trkpt lat="47.85424" lon="-3.54523">
        <ele>42.22</ele>
        <time>2020-07-08T11:14:23Z</time>
      </trkpt>
      <trkpt lat="47.85422" lon="-3.54521">
        <ele>42.4</ele>
        <time>2020-07-08T11:14:24Z</time>
      </trkpt>
      <trkpt lat="47.8542" lon="-3.54519">
        <ele>42.58</ele>
        <time>2020-07-08T11:14:25Z</time>
      </trkpt>
      <trkpt lat="47.85417" lon="-3.54517">
        <ele>42.73</ele>
        <time>2020-07-08T11:14:26Z</time>
      </trkpt>
      <trkpt lat="47.85414" lon="-3.54515">
        <ele>42.91</ele>
        <time>2020-07-08T11:14:27Z</time>
      </trkpt>
      <trkpt lat="47.85412" lon="-3.54513">
        <ele>43.11</ele>
        <time>2020-07-08T11:14:28Z</time>
      </trkpt>
      <trkpt lat="47.85409" lon="-3.54512">
        <ele>43.31</ele>
        <time>2020-07-08T11:14:29Z</time>
      </trkpt>
      <trkpt lat="47.85405" lon="-3.54511">
        <ele>43.5</ele>
        <time>2020-07-08T11:14:30Z</time>
      </trkpt>
      <trkpt lat="47.85402" lon="-3.5451">
        <ele>43.71</ele>
        <time>2020-07-08T11:14:31Z</time>
      </trkpt>
      <trkpt lat="47.85399" lon="-3.54509">
        <ele>43.93</ele>
        <time>2020-07-08T11:14:32Z</time>
      </trkpt>
      <trkpt lat="47.85396" lon="-3.54507">
        <ele>44.15</ele>
        <time>2020-07-08T11:14:33Z</time>
      </trkpt>
      <trkpt lat="47.85392" lon="-3.54506">
        <ele>44.36</ele>
        <time>2020-07-08T11:14:34Z</time>
      </trkpt>
      <trkpt lat="47.85389" lon="-3.54504">
        <ele>44.59</ele>
        <time>2020-07-08T11:14:35Z</time>
      </trkpt>
      <trkpt lat="47.85387" lon="-3.54503">
        <ele>44.84</ele>
        <time>2020-07-08T11:14:36Z</time>
      </trkpt>
      <trkpt lat="47.85384" lon="-3.54501">
        <ele>45.13</ele>
        <time>2020-07-08T11:14:37Z</time>
      </trkpt>
      <trkpt lat="47.85381" lon="-3.545">
        <ele>45.41</ele>
        <time>2020-07-08T11:14:38Z</time>
      </trkpt>
      <trkpt lat="47.85379" lon="-3.54498">
        <ele>45.62</ele>
        <time>2020-07-08T11:14:39Z</time>
      </trkpt>
      <trkpt lat="47.85377" lon="-3.54497">
        <ele>45.81</ele>
        <time>2020-07-08T11:14:40Z</time>
      </trkpt>
      <trkpt lat="47.85375" lon="-3.54496">
        <ele>45.99</ele>
        <time>2020-07-08T11:14:41Z</time>
      </trkpt>
      <trkpt lat="47.85373" lon="-3.54496">
        <ele>46.17</ele>
        <time>2020-07-08T11:14:42Z</time>
      </trkpt>
      <trkpt lat="47.85371" lon="-3.54496">
        <ele>46.35</ele>
        <time>2020-07-08T11:14:43Z</time>
      </trkpt>
      <trkpt lat="47.85368" lon="-3.54495">
        <ele>46.54</ele>
        <time>2020-07-08T11:14:44Z</time>
      </trkpt>
      <trkpt lat="47.85366" lon="-3.54494">
        <ele>46.73</ele>
        <time>2020-07-08T11:14:45Z</time>
      </trkpt>
      <trkpt lat="47.85364" lon="-3.54493">
        <ele>46.92</ele>
        <time>2020-07-08T11:14:46Z</time>
      </trkpt>
      <trkpt lat="47.85362" lon="-3.54491">
        <ele>47.11</ele>
        <time>2020-07-08T11:14:47Z</time>
      </trkpt>
      <trkpt lat="47.85361" lon="-3.5449">
        <ele>47.31</ele>
        <time>2020-07-08T11:14:48Z</time>
      </trkpt>
      <trkpt lat="47.85358" lon="-3.54488">
        <ele>47.55</ele>
        <time>2020-07-08T11:14:49Z</time>
      </trkpt>
      <trkpt lat="47.85355" lon="-3.54487">
        <ele>47.81</ele>
        <time>2020-07-08T11:14:50Z</time>
      </trkpt>
      <trkpt lat="47.85352" lon="-3.54486">
        <ele>48.04</ele>
        <time>2020-07-08T11:14:51Z</time>
      </trkpt>
      <trkpt lat="47.8535" lon="-3.54484">
        <ele>48.27</ele>
        <time>2020-07-08T11:14:52Z</time>
      </trkpt>
      <trkpt lat="47.85347" lon="-3.54483">
        <ele>48.52</ele>
        <time>2020-07-08T11:14:53Z</time>
      </trkpt>
      <trkpt lat="47.85344" lon="-3.54482">
        <ele>48.78</ele>
        <time>2020-07-08T11:14:54Z</time>
      </trkpt>
      <trkpt lat="47.85341" lon="-3.5448">
        <ele>49.06</ele>
        <time>2020-07-08T11:14:55Z</time>
      </trkpt>
      <trkpt lat="47.85338" lon="-3.54478">
        <ele>49.32</ele>
        <time>2020-07-08T11:14:56Z</time>
      </trkpt>
      <trkpt lat="47.85335" lon="-3.54476">
        <ele>49.6</ele>
        <time>2020-07-08T11:14:57Z</time>
      </trkpt>
      <trkpt lat="47.85334" lon="-3.54473">
        <ele>49.81</ele>
        <time>2020-07-08T11:14:58Z</time>
      </trkpt>
      <trkpt lat="47.85333" lon="-3.54471">
        <ele>49.94</ele>
        <time>2020-07-08T11:14:59Z</time>
      </trkpt>
      <trkpt lat="47.85332" lon="-3.54468">
        <ele>50.07</ele>
        <time>2020-07-08T11:15:00Z</time>
      </trkpt>
      <trkpt lat="47.8533" lon="-3.54464">
        <ele>50.2</ele>
        <time>2020-07-08T11:15:01Z</time>
      </trkpt>
      <trkpt lat="47.85328" lon="-3.54462">
        <ele>50.34</ele>
        <time>2020-07-08T11:15:02Z</time>
      </trkpt>
      <trkpt lat="47.85326" lon="-3.54459">
        <ele>50.49</ele>
        <time>2020-07-08T11:15:03Z</time>
      </trkpt>
      <trkpt lat="47.85323" lon="-3.54457">
        <ele>50.64</ele>
        <time>2020-07-08T11:15:04Z</time>
      </trkpt>
      <trkpt lat="47.85322" lon="-3.54454">
        <ele>50.78</ele>
        <time>2020-07-08T11:15:05Z</time>
      </trkpt>
      <trkpt lat="47.85319" lon="-3.5445">
        <ele>50.96</ele>
        <time>2020-07-08T11:15:06Z</time>
      </trkpt>
      <trkpt lat="47.85317" lon="-3.54446">
        <ele>51.12</ele>
        <time>2020-07-08T11:15:07Z</time>
      </trkpt>
      <trkpt lat="47.85315" lon="-3.54443">
        <ele>51.24</ele>
        <time>2020-07-08T11:15:08Z</time>
      </trkpt>
      <trkpt lat="47.85313" lon="-3.54439">
        <ele>51.29</ele>
        <time>2020-07-08T11:15:09Z</time>
      </trkpt>
      <trkpt lat="47.85311" lon="-3.54435">
        <ele>51.32</ele>
        <time>2020-07-08T11:15:10Z</time>
      </trkpt>
      <trkpt lat="47.85309" lon="-3.54431">
        <ele>51.32</ele>
        <time>2020-07-08T11:15:11Z</time>
      </trkpt>
      <trkpt lat="47.85307" lon="-3.54427">
        <ele>51.29</ele>
        <time>2020-07-08T11:15:12Z</time>
      </trkpt>
      <trkpt lat="47.85305" lon="-3.54422">
        <ele>51.25</ele>
        <time>2020-07-08T11:15:13Z</time>
      </trkpt>
      <trkpt lat="47.85302" lon="-3.54419">
        <ele>51.21</ele>
        <time>2020-07-08T11:15:14Z</time>
      </trkpt>
      <trkpt lat="47.853" lon="-3.54415">
        <ele>51.2</ele>
        <time>2020-07-08T11:15:15Z</time>
      </trkpt>
      <trkpt lat="47.85298" lon="-3.54411">
        <ele>51.25</ele>
        <time>2020-07-08T11:15:16Z</time>
      </trkpt>
      <trkpt lat="47.85296" lon="-3.54407">
        <ele>51.32</ele>
        <time>2020-07-08T11:15:17Z</time>
      </trkpt>
      <trkpt lat="47.85293" lon="-3.54402">
        <ele>51.41</ele>
        <time>2020-07-08T11:15:18Z</time>
      </trkpt>
      <trkpt lat="47.85291" lon="-3.54398">
        <ele>51.5</ele>
        <time>2020-07-08T11:15:19Z</time>
      </trkpt>
      <trkpt lat="47.85289" lon="-3.54394">
        <ele>51.58</ele>
        <time>2020-07-08T11:15:20Z</time>
      </trkpt>
      <trkpt lat="47.85287" lon="-3.54391">
        <ele>51.64</ele>
        <time>2020-07-08T11:15:21Z</time>
      </trkpt>
      <trkpt lat="47.85286" lon="-3.54387">
        <ele>51.66</ele>
        <time>2020-07-08T11:15:22Z</time>
      </trkpt>
      <trkpt lat="47.85286" lon="-3.54384">
        <ele>51.58</ele>
        <time>2020-07-08T11:15:23Z</time>
      </trkpt>
      <trkpt lat="47.85286" lon="-3.5438">
        <ele>51.45</ele>
        <time>2020-07-08T11:15:24Z</time>
      </trkpt>
      <trkpt lat="47.85287" lon="-3.54376">
        <ele>51.29</ele>
        <time>2020-07-08T11:15:25Z</time>
      </trkpt>
      <trkpt lat="47.85288" lon="-3.54372">
        <ele>51.11</ele>
        <time>2020-07-08T11:15:26Z</time>
      </trkpt>
      <trkpt lat="47.85289" lon="-3.54368">
        <ele>50.92</ele>
        <time>2020-07-08T11:15:27Z</time>
      </trkpt>
      <trkpt lat="47.8529" lon="-3.54363">
        <ele>50.71</ele>
        <time>2020-07-08T11:15:28Z</time>
      </trkpt>
      <trkpt lat="47.85292" lon="-3.54358">
        <ele>50.55</ele>
        <time>2020-07-08T11:15:29Z</time>
      </trkpt>
      <trkpt lat="47.85293" lon="-3.54352">
        <ele>50.47</ele>
        <time>2020-07-08T11:15:30Z</time>
      </trkpt>
      <trkpt lat="47.85295" lon="-3.54346">
        <ele>50.41</ele>
        <time>2020-07-08T11:15:31Z</time>
      </trkpt>
      <trkpt lat="47.85296" lon="-3.5434">
        <ele>50.36</ele>
        <time>2020-07-08T11:15:32Z</time>
      </trkpt>
      <trkpt lat="47.85298" lon="-3.54333">
        <ele>50.29</ele>
        <time>2020-07-08T11:15:33Z</time>
      </trkpt>
      <trkpt lat="47.853" lon="-3.54327">
        <ele>50.22</ele>
        <time>2020-07-08T11:15:34Z</time>
      </trkpt>
      <trkpt lat="47.85302" lon="-3.54319">
        <ele>50.15</ele>
        <time>2020-07-08T11:15:35Z</time>
      </trkpt>
      <trkpt lat="47.85304" lon="-3.54313">
        <ele>50.08</ele>
        <time>2020-07-08T11:15:36Z</time>
      </trkpt>
      <trkpt lat="47.85306" lon="-3.54306">
        <ele>49.98</ele>
        <time>2020-07-08T11:15:37Z</time>
      </trkpt>
      <trkpt lat="47.85309" lon="-3.54299">
        <ele>49.67</ele>
        <time>2020-07-08T11:15:38Z</time>
      </trkpt>
      <trkpt lat="47.85311" lon="-3.54291">
        <ele>49.33</ele>
        <time>2020-07-08T11:15:39Z</time>
      </trkpt>
      <trkpt lat="47.85314" lon="-3.54284">
        <ele>49.01</ele>
        <time>2020-07-08T11:15:40Z</time>
      </trkpt>
      <trkpt lat="47.85316" lon="-3.54277">
        <ele>48.73</ele>
        <time>2020-07-08T11:15:41Z</time>
      </trkpt>
      <trkpt lat="47.85318" lon="-3.5427">
        <ele>48.52</ele>
        <time>2020-07-08T11:15:42Z</time>
      </trkpt>
      <trkpt lat="47.85321" lon="-3.54263">
        <ele>48.27</ele>
        <time>2020-07-08T11:15:43Z</time>
      </trkpt>
      <trkpt lat="47.85323" lon="-3.54257">
        <ele>48</ele>
        <time>2020-07-08T11:15:44Z</time>
      </trkpt>
      <trkpt lat="47.85325" lon="-3.5425">
        <ele>47.71</ele>
        <time>2020-07-08T11:15:45Z</time>
      </trkpt>
      <trkpt lat="47.85327" lon="-3.54244">
        <ele>47.48</ele>
        <time>2020-07-08T11:15:46Z</time>
      </trkpt>
      <trkpt lat="47.85329" lon="-3.54237">
        <ele>47.3</ele>
        <time>2020-07-08T11:15:47Z</time>
      </trkpt>
      <trkpt lat="47.85331" lon="-3.54231">
        <ele>47.17</ele>
        <time>2020-07-08T11:15:48Z</time>
      </trkpt>
      <trkpt lat="47.85333" lon="-3.54224">
        <ele>47.06</ele>
        <time>2020-07-08T11:15:49Z</time>
      </trkpt>
      <trkpt lat="47.85335" lon="-3.54217">
        <ele>46.7</ele>
        <time>2020-07-08T11:15:50Z</time>
      </trkpt>
      <trkpt lat="47.85336" lon="-3.5421">
        <ele>46.18</ele>
        <time>2020-07-08T11:15:51Z</time>
      </trkpt>
      <trkpt lat="47.85338" lon="-3.54202">
        <ele>45.6</ele>
        <time>2020-07-08T11:15:52Z</time>
      </trkpt>
      <trkpt lat="47.8534" lon="-3.54195">
        <ele>45.01</ele>
        <time>2020-07-08T11:15:53Z</time>
      </trkpt>
      <trkpt lat="47.85342" lon="-3.54186">
        <ele>44.58</ele>
        <time>2020-07-08T11:15:54Z</time>
      </trkpt>
      <trkpt lat="47.85343" lon="-3.54177">
        <ele>44.19</ele>
        <time>2020-07-08T11:15:55Z</time>
      </trkpt>
      <trkpt lat="47.85344" lon="-3.54168">
        <ele>43.82</ele>
        <time>2020-07-08T11:15:56Z</time>
      </trkpt>
      <trkpt lat="47.85344" lon="-3.54158">
        <ele>43.53</ele>
        <time>2020-07-08T11:15:57Z</time>
      </trkpt>
      <trkpt lat="47.85345" lon="-3.54149">
        <ele>43.3</ele>
        <time>2020-07-08T11:15:58Z</time>
      </trkpt>
      <trkpt lat="47.85345" lon="-3.54139">
        <ele>43.1</ele>
        <time>2020-07-08T11:15:59Z</time>
      </trkpt>
      <trkpt lat="47.85347" lon="-3.5413">
        <ele>43.14</ele>
        <time>2020-07-08T11:16:00Z</time>
      </trkpt>
      <trkpt lat="47.85348" lon="-3.54121">
        <ele>43.25</ele>
        <time>2020-07-08T11:16:01Z</time>
      </trkpt>
      <trkpt lat="47.85349" lon="-3.54113">
        <ele>43.36</ele>
        <time>2020-07-08T11:16:02Z</time>
      </trkpt>
      <trkpt lat="47.8535" lon="-3.54104">
        <ele>43.74</ele>
        <time>2020-07-08T11:16:03Z</time>
      </trkpt>
      <trkpt lat="47.8535" lon="-3.54097">
        <ele>44.21</ele>
        <time>2020-07-08T11:16:04Z</time>
      </trkpt>
      <trkpt lat="47.85351" lon="-3.5409">
        <ele>44.71</ele>
        <time>2020-07-08T11:16:05Z</time>
      </trkpt>
      <trkpt lat="47.85351" lon="-3.54083">
        <ele>45.19</ele>
        <time>2020-07-08T11:16:06Z</time>
      </trkpt>
      <trkpt lat="47.85351" lon="-3.54077">
        <ele>45.79</ele>
        <time>2020-07-08T11:16:07Z</time>
      </trkpt>
      <trkpt lat="47.85351" lon="-3.54072">
        <ele>46.34</ele>
        <time>2020-07-08T11:16:08Z</time>
      </trkpt>
      <trkpt lat="47.8535" lon="-3.54068">
        <ele>46.85</ele>
        <time>2020-07-08T11:16:09Z</time>
      </trkpt>
      <trkpt lat="47.85348" lon="-3.54064">
        <ele>47.33</ele>
        <time>2020-07-08T11:16:10Z</time>
      </trkpt>
      <trkpt lat="47.85347" lon="-3.54061">
        <ele>47.78</ele>
        <time>2020-07-08T11:16:11Z</time>
      </trkpt>
      <trkpt lat="47.85344" lon="-3.54058">
        <ele>48.2</ele>
        <time>2020-07-08T11:16:12Z</time>
      </trkpt>
      <trkpt lat="47.85343" lon="-3.54055">
        <ele>48.58</ele>
        <time>2020-07-08T11:16:13Z</time>
      </trkpt>
      <trkpt lat="47.85342" lon="-3.54053">
        <ele>48.85</ele>
        <time>2020-07-08T11:16:14Z</time>
      </trkpt>
      <trkpt lat="47.85341" lon="-3.54051">
        <ele>49.09</ele>
        <time>2020-07-08T11:16:15Z</time>
      </trkpt>
      <trkpt lat="47.85339" lon="-3.54049">
        <ele>49.35</ele>
        <time>2020-07-08T11:16:16Z</time>
      </trkpt>
      <trkpt lat="47.85337" lon="-3.54047">
        <ele>49.6</ele>
        <time>2020-07-08T11:16:17Z</time>
      </trkpt>
      <trkpt lat="47.85336" lon="-3.54046">
        <ele>49.84</ele>
        <time>2020-07-08T11:16:18Z</time>
      </trkpt>
      <trkpt lat="47.85333" lon="-3.54044">
        <ele>50.11</ele>
        <time>2020-07-08T11:16:19Z</time>
      </trkpt>
      <trkpt lat="47.85331" lon="-3.54043">
        <ele>50.24</ele>
        <time>2020-07-08T11:16:20Z</time>
      </trkpt>
      <trkpt lat="47.85328" lon="-3.54041">
        <ele>50.37</ele>
        <time>2020-07-08T11:16:21Z</time>
      </trkpt>
      <trkpt lat="47.85326" lon="-3.5404">
        <ele>50.5</ele>
        <time>2020-07-08T11:16:22Z</time>
      </trkpt>
      <trkpt lat="47.85323" lon="-3.54038">
        <ele>50.61</ele>
        <time>2020-07-08T11:16:23Z</time>
      </trkpt>
      <trkpt lat="47.8532" lon="-3.54036">
        <ele>50.74</ele>
        <time>2020-07-08T11:16:24Z</time>
      </trkpt>
      <trkpt lat="47.85318" lon="-3.54034">
        <ele>50.87</ele>
        <time>2020-07-08T11:16:25Z</time>
      </trkpt>
      <trkpt lat="47.85315" lon="-3.54031">
        <ele>50.98</ele>
        <time>2020-07-08T11:16:26Z</time>
      </trkpt>
      <trkpt lat="47.85312" lon="-3.5403">
        <ele>51.04</ele>
        <time>2020-07-08T11:16:27Z</time>
      </trkpt>
      <trkpt lat="47.85308" lon="-3.54028">
        <ele>51.08</ele>
        <time>2020-07-08T11:16:28Z</time>
      </trkpt>
      <trkpt lat="47.85305" lon="-3.54026">
        <ele>51.16</ele>
        <time>2020-07-08T11:16:29Z</time>
      </trkpt>
      <trkpt lat="47.85302" lon="-3.54024">
        <ele>51.37</ele>
        <time>2020-07-08T11:16:30Z</time>
      </trkpt>
      <trkpt lat="47.85299" lon="-3.54021">
        <ele>51.62</ele>
        <time>2020-07-08T11:16:31Z</time>
      </trkpt>
      <trkpt lat="47.85296" lon="-3.54018">
        <ele>51.91</ele>
        <time>2020-07-08T11:16:32Z</time>
      </trkpt>
      <trkpt lat="47.85293" lon="-3.54015">
        <ele>52.23</ele>
        <time>2020-07-08T11:16:33Z</time>
      </trkpt>
      <trkpt lat="47.85291" lon="-3.54013">
        <ele>52.5</ele>
        <time>2020-07-08T11:16:34Z</time>
      </trkpt>
      <trkpt lat="47.85288" lon="-3.54011">
        <ele>52.76</ele>
        <time>2020-07-08T11:16:35Z</time>
      </trkpt>
      <trkpt lat="47.85285" lon="-3.54008">
        <ele>53</ele>
        <time>2020-07-08T11:16:36Z</time>
      </trkpt>
      <trkpt lat="47.8528" lon="-3.54007">
        <ele>53.21</ele>
        <time>2020-07-08T11:16:37Z</time>
      </trkpt>
      <trkpt lat="47.85276" lon="-3.54005">
        <ele>53.36</ele>
        <time>2020-07-08T11:16:38Z</time>
      </trkpt>
      <trkpt lat="47.85272" lon="-3.54002">
        <ele>53.39</ele>
        <time>2020-07-08T11:16:39Z</time>
      </trkpt>
      <trkpt lat="47.85269" lon="-3.53999">
        <ele>53.39</ele>
        <time>2020-07-08T11:16:40Z</time>
      </trkpt>
      <trkpt lat="47.85265" lon="-3.53996">
        <ele>53.34</ele>
        <time>2020-07-08T11:16:41Z</time>
      </trkpt>
      <trkpt lat="47.85262" lon="-3.53992">
        <ele>53.32</ele>
        <time>2020-07-08T11:16:42Z</time>
      </trkpt>
      <trkpt lat="47.85259" lon="-3.53989">
        <ele>53.31</ele>
        <time>2020-07-08T11:16:43Z</time>
      </trkpt>
      <trkpt lat="47.85256" lon="-3.53985">
        <ele>53.33</ele>
        <time>2020-07-08T11:16:44Z</time>
      </trkpt>
      <trkpt lat="47.85252" lon="-3.53983">
        <ele>53.33</ele>
        <time>2020-07-08T11:16:45Z</time>
      </trkpt>
      <trkpt lat="47.85249" lon="-3.53981">
        <ele>53.32</ele>
        <time>2020-07-08T11:16:46Z</time>
      </trkpt>
      <trkpt lat="47.85246" lon="-3.53978">
        <ele>53.31</ele>
        <time>2020-07-08T11:16:47Z</time>
      </trkpt>
      <trkpt lat="47.85243" lon="-3.53976">
        <ele>53.29</ele>
        <time>2020-07-08T11:16:48Z</time>
      </trkpt>
      <trkpt lat="47.8524" lon="-3.53973">
        <ele>53.26</ele>
        <time>2020-07-08T11:16:49Z</time>
      </trkpt>
      <trkpt lat="47.85237" lon="-3.53971">
        <ele>53.11</ele>
        <time>2020-07-08T11:16:50Z</time>
      </trkpt>
      <trkpt lat="47.85233" lon="-3.53968">
        <ele>52.89</ele>
        <time>2020-07-08T11:16:51Z</time>
      </trkpt>
      <trkpt lat="47.8523" lon="-3.53966">
        <ele>52.64</ele>
        <time>2020-07-08T11:16:52Z</time>
      </trkpt>
      <trkpt lat="47.85226" lon="-3.53963">
        <ele>52.4</ele>
        <time>2020-07-08T11:16:53Z</time>
      </trkpt>
      <trkpt lat="47.85223" lon="-3.5396">
        <ele>52.16</ele>
        <time>2020-07-08T11:16:54Z</time>
      </trkpt>
      <trkpt lat="47.8522" lon="-3.53956">
        <ele>52.02</ele>
        <time>2020-07-08T11:16:55Z</time>
      </trkpt>
      <trkpt lat="47.85216" lon="-3.53953">
        <ele>51.96</ele>
        <time>2020-07-08T11:16:56Z</time>
      </trkpt>
      <trkpt lat="47.85212" lon="-3.53949">
        <ele>51.95</ele>
        <time>2020-07-08T11:16:57Z</time>
      </trkpt>
      <trkpt lat="47.85208" lon="-3.53945">
        <ele>51.97</ele>
        <time>2020-07-08T11:16:58Z</time>
      </trkpt>
      <trkpt lat="47.85205" lon="-3.53942">
        <ele>52.01</ele>
        <time>2020-07-08T11:16:59Z</time>
      </trkpt>
      <trkpt lat="47.852" lon="-3.53938">
        <ele>52.04</ele>
        <time>2020-07-08T11:17:00Z</time>
      </trkpt>
      <trkpt lat="47.85197" lon="-3.53935">
        <ele>52.03</ele>
        <time>2020-07-08T11:17:01Z</time>
      </trkpt>
      <trkpt lat="47.85193" lon="-3.53932">
        <ele>51.98</ele>
        <time>2020-07-08T11:17:02Z</time>
      </trkpt>
      <trkpt lat="47.8519" lon="-3.53929">
        <ele>51.88</ele>
        <time>2020-07-08T11:17:03Z</time>
      </trkpt>
      <trkpt lat="47.85186" lon="-3.53924">
        <ele>51.76</ele>
        <time>2020-07-08T11:17:04Z</time>
      </trkpt>
      <trkpt lat="47.85184" lon="-3.53919">
        <ele>51.66</ele>
        <time>2020-07-08T11:17:05Z</time>
      </trkpt>
      <trkpt lat="47.85183" lon="-3.53914">
        <ele>51.64</ele>
        <time>2020-07-08T11:17:06Z</time>
      </trkpt>
      <trkpt lat="47.85183" lon="-3.53909">
        <ele>51.7</ele>
        <time>2020-07-08T11:17:07Z</time>
      </trkpt>
      <trkpt lat="47.85183" lon="-3.53903">
        <ele>51.82</ele>
        <time>2020-07-08T11:17:08Z</time>
      </trkpt>
      <trkpt lat="47.85184" lon="-3.53897">
        <ele>51.98</ele>
        <time>2020-07-08T11:17:09Z</time>
      </trkpt>
      <trkpt lat="47.85184" lon="-3.53892">
        <ele>52.1</ele>
        <time>2020-07-08T11:17:10Z</time>
      </trkpt>
      <trkpt lat="47.85184" lon="-3.53889">
        <ele>52.21</ele>
        <time>2020-07-08T11:17:11Z</time>
      </trkpt>
      <trkpt lat="47.85184" lon="-3.53885">
        <ele>52.24</ele>
        <time>2020-07-08T11:17:12Z</time>
      </trkpt>
      <trkpt lat="47.85184" lon="-3.53883">
        <ele>52.25</ele>
        <time>2020-07-08T11:17:13Z</time>
      </trkpt>
      <trkpt lat="47.85184" lon="-3.53882">
        <ele>52.27</ele>
        <time>2020-07-08T11:17:14Z</time>
      </trkpt>
      <trkpt lat="47.85184" lon="-3.53882">
        <ele>52.28</ele>
        <time>2020-07-08T11:17:15Z</time>
      </trkpt>
      <trkpt lat="47.85184" lon="-3.53882">
        <ele>52.28</ele>
        <time>2020-07-08T11:17:16Z</time>
      </trkpt>
      <trkpt lat="47.85184" lon="-3.53882">
        <ele>52.28</ele>
        <time>2020-07-08T11:17:17Z</time>
      </trkpt>
      <trkpt lat="47.85184" lon="-3.53882">
        <ele>52.28</ele>
        <time>2020-07-08T11:17:18Z</time>
      </trkpt>
      <trkpt lat="47.85184" lon="-3.53882">
        <ele>52.28</ele>
        <time>2020-07-08T11:17:19Z</time>
      </trkpt>
      <trkpt lat="47.85184" lon="-3.53882">
        <ele>52.28</ele>
        <time>2020-07-08T11:17:20Z</time>
      </trkpt>
      <trkpt lat="47.85184" lon="-3.53882">
        <ele>52.28</ele>
        <time>2020-07-08T11:17:21Z</time>
      </trkpt>
      <trkpt lat="47.85184" lon="-3.53882">
        <ele>52.28</ele>
        <time>2020-07-08T11:17:22Z</time>
      </trkpt>
      <trkpt lat="47.85184" lon="-3.53882">
        <ele>52.28</ele>
        <time>2020-07-08T11:17:23Z</time>
      </trkpt>
      <trkpt lat="47.85184" lon="-3.53882">
        <ele>52.28</ele>
        <time>2020-07-08T11:17:24Z</time>
      </trkpt>
      <trkpt lat="47.85184" lon="-3.53882">
        <ele>52.28</ele>
        <time>2020-07-08T11:17:25Z</time>
      </trkpt>
      <trkpt lat="47.85184" lon="-3.53882">
        <ele>52.28</ele>
        <time>2020-07-08T11:17:26Z</time>
      </trkpt>
      <trkpt lat="47.85184" lon="-3.53882">
        <ele>52.28</ele>
        <time>2020-07-08T11:17:27Z</time>
      </trkpt>
      <trkpt lat="47.85184" lon="-3.53882">
        <ele>52.28</ele>
        <time>2020-07-08T11:17:28Z</time>
      </trkpt>
      <trkpt lat="47.85184" lon="-3.53876">
        <ele>52.27</ele>
        <time>2020-07-08T11:17:29Z</time>
      </trkpt>
      <trkpt lat="47.85184" lon="-3.53873">
        <ele>52.24</ele>
        <time>2020-07-08T11:17:30Z</time>
      </trkpt>
      <trkpt lat="47.85183" lon="-3.5387">
        <ele>52.19</ele>
        <time>2020-07-08T11:17:31Z</time>
      </trkpt>
      <trkpt lat="47.85183" lon="-3.53867">
        <ele>52.17</ele>
        <time>2020-07-08T11:17:32Z</time>
      </trkpt>
      <trkpt lat="47.85183" lon="-3.53863">
        <ele>52.16</ele>
        <time>2020-07-08T11:17:33Z</time>
      </trkpt>
      <trkpt lat="47.85183" lon="-3.53859">
        <ele>52.17</ele>
        <time>2020-07-08T11:17:34Z</time>
      </trkpt>
      <trkpt lat="47.85183" lon="-3.53855">
        <ele>52.22</ele>
        <time>2020-07-08T11:17:35Z</time>
      </trkpt>
      <trkpt lat="47.85183" lon="-3.5385">
        <ele>52.31</ele>
        <time>2020-07-08T11:17:36Z</time>
      </trkpt>
      <trkpt lat="47.85184" lon="-3.53845">
        <ele>52.41</ele>
        <time>2020-07-08T11:17:37Z</time>
      </trkpt>
      <trkpt lat="47.85184" lon="-3.5384">
        <ele>52.49</ele>
        <time>2020-07-08T11:17:38Z</time>
      </trkpt>
      <trkpt lat="47.85184" lon="-3.53833">
        <ele>52.6</ele>
        <time>2020-07-08T11:17:39Z</time>
      </trkpt>
      <trkpt lat="47.85185" lon="-3.53828">
        <ele>52.78</ele>
        <time>2020-07-08T11:17:40Z</time>
      </trkpt>
      <trkpt lat="47.85185" lon="-3.53823">
        <ele>52.96</ele>
        <time>2020-07-08T11:17:41Z</time>
      </trkpt>
      <trkpt lat="47.85185" lon="-3.53818">
        <ele>53.14</ele>
        <time>2020-07-08T11:17:42Z</time>
      </trkpt>
      <trkpt lat="47.85186" lon="-3.53813">
        <ele>53.33</ele>
        <time>2020-07-08T11:17:43Z</time>
      </trkpt>
      <trkpt lat="47.85187" lon="-3.53809">
        <ele>53.51</ele>
        <time>2020-07-08T11:17:44Z</time>
      </trkpt>
      <trkpt lat="47.85187" lon="-3.53804">
        <ele>53.71</ele>
        <time>2020-07-08T11:17:45Z</time>
      </trkpt>
      <trkpt lat="47.85187" lon="-3.53801">
        <ele>53.88</ele>
        <time>2020-07-08T11:17:46Z</time>
      </trkpt>
      <trkpt lat="47.85187" lon="-3.53797">
        <ele>54.05</ele>
        <time>2020-07-08T11:17:47Z</time>
      </trkpt>
      <trkpt lat="47.85187" lon="-3.53794">
        <ele>54.21</ele>
        <time>2020-07-08T11:17:48Z</time>
      </trkpt>
      <trkpt lat="47.85189" lon="-3.53789">
        <ele>54.43</ele>
        <time>2020-07-08T11:17:49Z</time>
      </trkpt>
      <trkpt lat="47.8519" lon="-3.53784">
        <ele>54.66</ele>
        <time>2020-07-08T11:17:50Z</time>
      </trkpt>
      <trkpt lat="47.85192" lon="-3.53778">
        <ele>54.9</ele>
        <time>2020-07-08T11:17:51Z</time>
      </trkpt>
      <trkpt lat="47.85193" lon="-3.53772">
        <ele>54.97</ele>
        <time>2020-07-08T11:17:52Z</time>
      </trkpt>
      <trkpt lat="47.85194" lon="-3.53767">
        <ele>55</ele>
        <time>2020-07-08T11:17:53Z</time>
      </trkpt>
      <trkpt lat="47.85195" lon="-3.53762">
        <ele>55</ele>
        <time>2020-07-08T11:17:54Z</time>
      </trkpt>
      <trkpt lat="47.85196" lon="-3.53759">
        <ele>55</ele>
        <time>2020-07-08T11:17:55Z</time>
      </trkpt>
      <trkpt lat="47.85197" lon="-3.53755">
        <ele>55</ele>
        <time>2020-07-08T11:17:56Z</time>
      </trkpt>
      <trkpt lat="47.85197" lon="-3.53752">
        <ele>55</ele>
        <time>2020-07-08T11:17:57Z</time>
      </trkpt>
      <trkpt lat="47.85198" lon="-3.53749">
        <ele>54.96</ele>
        <time>2020-07-08T11:17:58Z</time>
      </trkpt>
      <trkpt lat="47.85198" lon="-3.53745">
        <ele>54.85</ele>
        <time>2020-07-08T11:17:59Z</time>
      </trkpt>
      <trkpt lat="47.85199" lon="-3.5374">
        <ele>54.7</ele>
        <time>2020-07-08T11:18:00Z</time>
      </trkpt>
      <trkpt lat="47.852" lon="-3.53735">
        <ele>54.52</ele>
        <time>2020-07-08T11:18:01Z</time>
      </trkpt>
      <trkpt lat="47.85201" lon="-3.5373">
        <ele>54.36</ele>
        <time>2020-07-08T11:18:02Z</time>
      </trkpt>
      <trkpt lat="47.85202" lon="-3.53726">
        <ele>54.19</ele>
        <time>2020-07-08T11:18:03Z</time>
      </trkpt>
      <trkpt lat="47.85204" lon="-3.53721">
        <ele>54.04</ele>
        <time>2020-07-08T11:18:04Z</time>
      </trkpt>
      <trkpt lat="47.85205" lon="-3.53717">
        <ele>53.87</ele>
        <time>2020-07-08T11:18:05Z</time>
      </trkpt>
      <trkpt lat="47.85206" lon="-3.53713">
        <ele>53.72</ele>
        <time>2020-07-08T11:18:06Z</time>
      </trkpt>
      <trkpt lat="47.85207" lon="-3.53708">
        <ele>53.56</ele>
        <time>2020-07-08T11:18:07Z</time>
      </trkpt>
      <trkpt lat="47.85208" lon="-3.53704">
        <ele>53.4</ele>
        <time>2020-07-08T11:18:08Z</time>
      </trkpt>
      <trkpt lat="47.85209" lon="-3.53699">
        <ele>53.25</ele>
        <time>2020-07-08T11:18:09Z</time>
      </trkpt>
      <trkpt lat="47.8521" lon="-3.53695">
        <ele>53.08</ele>
        <time>2020-07-08T11:18:10Z</time>
      </trkpt>
      <trkpt lat="47.85213" lon="-3.53689">
        <ele>52.81</ele>
        <time>2020-07-08T11:18:11Z</time>
      </trkpt>
      <trkpt lat="47.85214" lon="-3.53684">
        <ele>52.49</ele>
        <time>2020-07-08T11:18:12Z</time>
      </trkpt>
      <trkpt lat="47.85214" lon="-3.5368">
        <ele>52.2</ele>
        <time>2020-07-08T11:18:13Z</time>
      </trkpt>
      <trkpt lat="47.85215" lon="-3.53675">
        <ele>51.91</ele>
        <time>2020-07-08T11:18:14Z</time>
      </trkpt>
      <trkpt lat="47.85216" lon="-3.5367">
        <ele>51.57</ele>
        <time>2020-07-08T11:18:15Z</time>
      </trkpt>
      <trkpt lat="47.85217" lon="-3.53664">
        <ele>51.04</ele>
        <time>2020-07-08T11:18:16Z</time>
      </trkpt>
      <trkpt lat="47.85218" lon="-3.5366">
        <ele>50.41</ele>
        <time>2020-07-08T11:18:17Z</time>
      </trkpt>
      <trkpt lat="47.8522" lon="-3.53654">
        <ele>49.63</ele>
        <time>2020-07-08T11:18:18Z</time>
      </trkpt>
      <trkpt lat="47.85223" lon="-3.53648">
        <ele>48.67</ele>
        <time>2020-07-08T11:18:19Z</time>
      </trkpt>
      <trkpt lat="47.85224" lon="-3.53641">
        <ele>47.54</ele>
        <time>2020-07-08T11:18:20Z</time>
      </trkpt>
      <trkpt lat="47.85226" lon="-3.53634">
        <ele>46.54</ele>
        <time>2020-07-08T11:18:21Z</time>
      </trkpt>
      <trkpt lat="47.85228" lon="-3.53629">
        <ele>45.63</ele>
        <time>2020-07-08T11:18:22Z</time>
      </trkpt>
      <trkpt lat="47.85231" lon="-3.53623">
        <ele>44.6</ele>
        <time>2020-07-08T11:18:23Z</time>
      </trkpt>
      <trkpt lat="47.85233" lon="-3.53618">
        <ele>43.7</ele>
        <time>2020-07-08T11:18:24Z</time>
      </trkpt>
      <trkpt lat="47.85235" lon="-3.53613">
        <ele>42.82</ele>
        <time>2020-07-08T11:18:25Z</time>
      </trkpt>
      <trkpt lat="47.85237" lon="-3.53608">
        <ele>41.78</ele>
        <time>2020-07-08T11:18:26Z</time>
      </trkpt>
      <trkpt lat="47.85239" lon="-3.53603">
        <ele>40.64</ele>
        <time>2020-07-08T11:18:27Z</time>
      </trkpt>
      <trkpt lat="47.8524" lon="-3.53597">
        <ele>39.34</ele>
        <time>2020-07-08T11:18:28Z</time>
      </trkpt>
      <trkpt lat="47.85242" lon="-3.53592">
        <ele>38.07</ele>
        <time>2020-07-08T11:18:29Z</time>
      </trkpt>
      <trkpt lat="47.85244" lon="-3.53587">
        <ele>36.71</ele>
        <time>2020-07-08T11:18:30Z</time>
      </trkpt>
      <trkpt lat="47.85245" lon="-3.53585">
        <ele>35.76</ele>
        <time>2020-07-08T11:18:31Z</time>
      </trkpt>
      <trkpt lat="47.85247" lon="-3.53583">
        <ele>34.97</ele>
        <time>2020-07-08T11:18:32Z</time>
      </trkpt>
      <trkpt lat="47.85247" lon="-3.53582">
        <ele>34.6</ele>
        <time>2020-07-08T11:18:33Z</time>
      </trkpt>
      <trkpt lat="47.85247" lon="-3.53583">
        <ele>34.47</ele>
        <time>2020-07-08T11:18:34Z</time>
      </trkpt>
      <trkpt lat="47.85247" lon="-3.53583">
        <ele>34.43</ele>
        <time>2020-07-08T11:18:35Z</time>
      </trkpt>
      <trkpt lat="47.85247" lon="-3.53583">
        <ele>34.42</ele>
        <time>2020-07-08T11:18:36Z</time>
      </trkpt>
      <trkpt lat="47.85247" lon="-3.53583">
        <ele>34.42</ele>
        <time>2020-07-08T11:18:37Z</time>
      </trkpt>
      <trkpt lat="47.85247" lon="-3.53583">
        <ele>34.42</ele>
        <time>2020-07-08T11:18:38Z</time>
      </trkpt>
      <trkpt lat="47.85247" lon="-3.53583">
        <ele>34.42</ele>
        <time>2020-07-08T11:18:39Z</time>
      </trkpt>
      <trkpt lat="47.85247" lon="-3.53583">
        <ele>34.42</ele>
        <time>2020-07-08T11:18:40Z</time>
      </trkpt>
      <trkpt lat="47.85247" lon="-3.53583">
        <ele>34.42</ele>
        <time>2020-07-08T11:18:41Z</time>
      </trkpt>
      <trkpt lat="47.85247" lon="-3.53583">
        <ele>34.42</ele>
        <time>2020-07-08T11:18:42Z</time>
      </trkpt>
      <trkpt lat="47.85247" lon="-3.53583">
        <ele>34.42</ele>
        <time>2020-07-08T11:18:43Z</time>
      </trkpt>
      <trkpt lat="47.85247" lon="-3.53583">
        <ele>34.42</ele>
        <time>2020-07-08T11:18:44Z</time>
      </trkpt>
      <trkpt lat="47.85247" lon="-3.53583">
        <ele>34.42</ele>
        <time>2020-07-08T11:18:45Z</time>
      </trkpt>
      <trkpt lat="47.85247" lon="-3.53583">
        <ele>34.42</ele>
        <time>2020-07-08T11:18:46Z</time>
      </trkpt>
      <trkpt lat="47.85247" lon="-3.53583">
        <ele>34.42</ele>
        <time>2020-07-08T11:18:47Z</time>
      </trkpt>
      <trkpt lat="47.85247" lon="-3.53583">
        <ele>34.42</ele>
        <time>2020-07-08T11:18:48Z</time>
      </trkpt>
      <trkpt lat="47.85247" lon="-3.53583">
        <ele>34.42</ele>
        <time>2020-07-08T11:18:49Z</time>
      </trkpt>
      <trkpt lat="47.85247" lon="-3.53583">
        <ele>34.42</ele>
        <time>2020-07-08T11:18:50Z</time>
      </trkpt>
      <trkpt lat="47.85247" lon="-3.53583">
        <ele>34.42</ele>
        <time>2020-07-08T11:18:51Z</time>
      </trkpt>
      <trkpt lat="47.85247" lon="-3.53583">
        <ele>34.42</ele>
        <time>2020-07-08T11:18:52Z</time>
      </trkpt>
      <trkpt lat="47.85247" lon="-3.53583">
        <ele>34.42</ele>
        <time>2020-07-08T11:18:53Z</time>
      </trkpt>
      <trkpt lat="47.85247" lon="-3.53583">
        <ele>34.42</ele>
        <time>2020-07-08T11:18:54Z</time>
      </trkpt>
      <trkpt lat="47.85247" lon="-3.53583">
        <ele>34.42</ele>
        <time>2020-07-08T11:18:55Z</time>
      </trkpt>
      <trkpt lat="47.85247" lon="-3.53583">
        <ele>34.42</ele>
        <time>2020-07-08T11:18:56Z</time>
      </trkpt>
      <trkpt lat="47.85253" lon="-3.53571">
        <ele>31.77</ele>
        <time>2020-07-08T11:18:57Z</time>
      </trkpt>
      <trkpt lat="47.85253" lon="-3.5357">
        <ele>30.64</ele>
        <time>2020-07-08T11:18:58Z</time>
      </trkpt>
      <trkpt lat="47.85254" lon="-3.53568">
        <ele>29.98</ele>
        <time>2020-07-08T11:18:59Z</time>
      </trkpt>
      <trkpt lat="47.85254" lon="-3.53567">
        <ele>29.47</ele>
        <time>2020-07-08T11:19:00Z</time>
      </trkpt>
      <trkpt lat="47.85254" lon="-3.53567">
        <ele>29.32</ele>
        <time>2020-07-08T11:19:01Z</time>
      </trkpt>
      <trkpt lat="47.85254" lon="-3.53567">
        <ele>29.27</ele>
        <time>2020-07-08T11:19:02Z</time>
      </trkpt>
      <trkpt lat="47.85254" lon="-3.53567">
        <ele>29.26</ele>
        <time>2020-07-08T11:19:03Z</time>
      </trkpt>
      <trkpt lat="47.85254" lon="-3.53567">
        <ele>29.25</ele>
        <time>2020-07-08T11:19:04Z</time>
      </trkpt>
      <trkpt lat="47.85254" lon="-3.53567">
        <ele>29.25</ele>
        <time>2020-07-08T11:19:05Z</time>
      </trkpt>
      <trkpt lat="47.85254" lon="-3.53567">
        <ele>29.25</ele>
        <time>2020-07-08T11:19:06Z</time>
      </trkpt>
      <trkpt lat="47.85254" lon="-3.53567">
        <ele>29.25</ele>
        <time>2020-07-08T11:19:07Z</time>
      </trkpt>
      <trkpt lat="47.85254" lon="-3.53567">
        <ele>29.25</ele>
        <time>2020-07-08T11:19:08Z</time>
      </trkpt>
      <trkpt lat="47.85254" lon="-3.53567">
        <ele>29.25</ele>
        <time>2020-07-08T11:19:09Z</time>
      </trkpt>
      <trkpt lat="47.85254" lon="-3.53567">
        <ele>29.25</ele>
        <time>2020-07-08T11:19:10Z</time>
      </trkpt>
      <trkpt lat="47.85256" lon="-3.53553">
        <ele>27.02</ele>
        <time>2020-07-08T11:19:11Z</time>
      </trkpt>
      <trkpt lat="47.85256" lon="-3.53552">
        <ele>26.25</ele>
        <time>2020-07-08T11:19:12Z</time>
      </trkpt>
      <trkpt lat="47.85256" lon="-3.53552">
        <ele>25.97</ele>
        <time>2020-07-08T11:19:13Z</time>
      </trkpt>
      <trkpt lat="47.85256" lon="-3.53551">
        <ele>25.76</ele>
        <time>2020-07-08T11:19:14Z</time>
      </trkpt>
      <trkpt lat="47.85256" lon="-3.53551">
        <ele>25.7</ele>
        <time>2020-07-08T11:19:15Z</time>
      </trkpt>
      <trkpt lat="47.85256" lon="-3.53551">
        <ele>25.68</ele>
        <time>2020-07-08T11:19:16Z</time>
      </trkpt>
      <trkpt lat="47.85256" lon="-3.53551">
        <ele>25.67</ele>
        <time>2020-07-08T11:19:17Z</time>
      </trkpt>
      <trkpt lat="47.85256" lon="-3.53551">
        <ele>25.67</ele>
        <time>2020-07-08T11:19:18Z</time>
      </trkpt>
      <trkpt lat="47.8526" lon="-3.53538">
        <ele>24.22</ele>
        <time>2020-07-08T11:19:19Z</time>
      </trkpt>
      <trkpt lat="47.85261" lon="-3.53534">
        <ele>23.33</ele>
        <time>2020-07-08T11:19:20Z</time>
      </trkpt>
      <trkpt lat="47.85262" lon="-3.5353">
        <ele>22.7</ele>
        <time>2020-07-08T11:19:21Z</time>
      </trkpt>
      <trkpt lat="47.85263" lon="-3.53527">
        <ele>22.18</ele>
        <time>2020-07-08T11:19:22Z</time>
      </trkpt>
      <trkpt lat="47.85265" lon="-3.53522">
        <ele>21.61</ele>
        <time>2020-07-08T11:19:23Z</time>
      </trkpt>
      <trkpt lat="47.85266" lon="-3.53519">
        <ele>21.17</ele>
        <time>2020-07-08T11:19:24Z</time>
      </trkpt>
      <trkpt lat="47.85267" lon="-3.53515">
        <ele>20.7</ele>
        <time>2020-07-08T11:19:25Z</time>
      </trkpt>
      <trkpt lat="47.85268" lon="-3.53512">
        <ele>20.27</ele>
        <time>2020-07-08T11:19:26Z</time>
      </trkpt>
      <trkpt lat="47.85269" lon="-3.5351">
        <ele>19.85</ele>
        <time>2020-07-08T11:19:27Z</time>
      </trkpt>
      <trkpt lat="47.85271" lon="-3.53509">
        <ele>19.44</ele>
        <time>2020-07-08T11:19:28Z</time>
      </trkpt>
      <trkpt lat="47.85272" lon="-3.53507">
        <ele>19.02</ele>
        <time>2020-07-08T11:19:29Z</time>
      </trkpt>
      <trkpt lat="47.85275" lon="-3.53504">
        <ele>18.4</ele>
        <time>2020-07-08T11:19:30Z</time>
      </trkpt>
      <trkpt lat="47.85276" lon="-3.53502">
        <ele>17.75</ele>
        <time>2020-07-08T11:19:31Z</time>
      </trkpt>
      <trkpt lat="47.85278" lon="-3.53498">
        <ele>16.9</ele>
        <time>2020-07-08T11:19:32Z</time>
      </trkpt>
      <trkpt lat="47.85279" lon="-3.53495">
        <ele>16.18</ele>
        <time>2020-07-08T11:19:33Z</time>
      </trkpt>
      <trkpt lat="47.8528" lon="-3.53491">
        <ele>15.41</ele>
        <time>2020-07-08T11:19:34Z</time>
      </trkpt>
      <trkpt lat="47.85281" lon="-3.53488">
        <ele>14.65</ele>
        <time>2020-07-08T11:19:35Z</time>
      </trkpt>
      <trkpt lat="47.85282" lon="-3.53485">
        <ele>13.97</ele>
        <time>2020-07-08T11:19:36Z</time>
      </trkpt>
      <trkpt lat="47.85283" lon="-3.53483">
        <ele>13.44</ele>
        <time>2020-07-08T11:19:37Z</time>
      </trkpt>
      <trkpt lat="47.85283" lon="-3.53481">
        <ele>13.07</ele>
        <time>2020-07-08T11:19:38Z</time>
      </trkpt>
      <trkpt lat="47.85285" lon="-3.53477">
        <ele>12.49</ele>
        <time>2020-07-08T11:19:39Z</time>
      </trkpt>
      <trkpt lat="47.85286" lon="-3.53475">
        <ele>11.96</ele>
        <time>2020-07-08T11:19:40Z</time>
      </trkpt>
      <trkpt lat="47.85287" lon="-3.53473">
        <ele>11.55</ele>
        <time>2020-07-08T11:19:41Z</time>
      </trkpt>
      <trkpt lat="47.85289" lon="-3.5347">
        <ele>11.17</ele>
        <time>2020-07-08T11:19:42Z</time>
      </trkpt>
      <trkpt lat="47.8529" lon="-3.53467">
        <ele>10.83</ele>
        <time>2020-07-08T11:19:43Z</time>
      </trkpt>
      <trkpt lat="47.85291" lon="-3.53465">
        <ele>10.51</ele>
        <time>2020-07-08T11:19:44Z</time>
      </trkpt>
      <trkpt lat="47.85292" lon="-3.53462">
        <ele>10.21</ele>
        <time>2020-07-08T11:19:45Z</time>
      </trkpt>
      <trkpt lat="47.85292" lon="-3.53458">
        <ele>9.88</ele>
        <time>2020-07-08T11:19:46Z</time>
      </trkpt>
      <trkpt lat="47.85293" lon="-3.53454">
        <ele>9.46</ele>
        <time>2020-07-08T11:19:47Z</time>
      </trkpt>
      <trkpt lat="47.85294" lon="-3.53449">
        <ele>9.01</ele>
        <time>2020-07-08T11:19:48Z</time>
      </trkpt>
      <trkpt lat="47.85295" lon="-3.53445">
        <ele>8.57</ele>
        <time>2020-07-08T11:19:49Z</time>
      </trkpt>
      <trkpt lat="47.85296" lon="-3.53441">
        <ele>8.32</ele>
        <time>2020-07-08T11:19:50Z</time>
      </trkpt>
      <trkpt lat="47.85297" lon="-3.53437">
        <ele>8.11</ele>
        <time>2020-07-08T11:19:51Z</time>
      </trkpt>
      <trkpt lat="47.85298" lon="-3.53434">
        <ele>7.96</ele>
        <time>2020-07-08T11:19:52Z</time>
      </trkpt>
      <trkpt lat="47.853" lon="-3.5343">
        <ele>7.78</ele>
        <time>2020-07-08T11:19:53Z</time>
      </trkpt>
      <trkpt lat="47.85301" lon="-3.53428">
        <ele>7.63</ele>
        <time>2020-07-08T11:19:54Z</time>
      </trkpt>
      <trkpt lat="47.85302" lon="-3.53425">
        <ele>7.48</ele>
        <time>2020-07-08T11:19:55Z</time>
      </trkpt>
      <trkpt lat="47.85303" lon="-3.53424">
        <ele>7.37</ele>
        <time>2020-07-08T11:19:56Z</time>
      </trkpt>
      <trkpt lat="47.85304" lon="-3.53423">
        <ele>7.31</ele>
        <time>2020-07-08T11:19:57Z</time>
      </trkpt>
      <trkpt lat="47.85304" lon="-3.53423">
        <ele>7.29</ele>
        <time>2020-07-08T11:19:58Z</time>
      </trkpt>
      <trkpt lat="47.85305" lon="-3.53423">
        <ele>7.27</ele>
        <time>2020-07-08T11:19:59Z</time>
      </trkpt>
      <trkpt lat="47.85305" lon="-3.53423">
        <ele>7.26</ele>
        <time>2020-07-08T11:20:00Z</time>
      </trkpt>
      <trkpt lat="47.85305" lon="-3.53423">
        <ele>7.26</ele>
        <time>2020-07-08T11:20:01Z</time>
      </trkpt>
      <trkpt lat="47.85305" lon="-3.53423">
        <ele>7.26</ele>
        <time>2020-07-08T11:20:02Z</time>
      </trkpt>
      <trkpt lat="47.85306" lon="-3.53416">
        <ele>7.08</ele>
        <time>2020-07-08T11:20:03Z</time>
      </trkpt>
      <trkpt lat="47.85306" lon="-3.53413">
        <ele>7.02</ele>
        <time>2020-07-08T11:20:04Z</time>
      </trkpt>
      <trkpt lat="47.85307" lon="-3.53409">
        <ele>7.02</ele>
        <time>2020-07-08T11:20:05Z</time>
      </trkpt>
      <trkpt lat="47.85308" lon="-3.53404">
        <ele>7.03</ele>
        <time>2020-07-08T11:20:06Z</time>
      </trkpt>
      <trkpt lat="47.85308" lon="-3.534">
        <ele>7.04</ele>
        <time>2020-07-08T11:20:07Z</time>
      </trkpt>
      <trkpt lat="47.85308" lon="-3.53395">
        <ele>7.05</ele>
        <time>2020-07-08T11:20:08Z</time>
      </trkpt>
      <trkpt lat="47.85308" lon="-3.53391">
        <ele>7.06</ele>
        <time>2020-07-08T11:20:09Z</time>
      </trkpt>
      <trkpt lat="47.85307" lon="-3.53387">
        <ele>7.11</ele>
        <time>2020-07-08T11:20:10Z</time>
      </trkpt>
      <trkpt lat="47.85306" lon="-3.53382">
        <ele>7.24</ele>
        <time>2020-07-08T11:20:11Z</time>
      </trkpt>
      <trkpt lat="47.85306" lon="-3.53376">
        <ele>7.42</ele>
        <time>2020-07-08T11:20:12Z</time>
      </trkpt>
      <trkpt lat="47.85306" lon="-3.5337">
        <ele>7.61</ele>
        <time>2020-07-08T11:20:13Z</time>
      </trkpt>
      <trkpt lat="47.85305" lon="-3.53363">
        <ele>7.82</ele>
        <time>2020-07-08T11:20:14Z</time>
      </trkpt>
      <trkpt lat="47.85304" lon="-3.53357">
        <ele>8</ele>
        <time>2020-07-08T11:20:15Z</time>
      </trkpt>
      <trkpt lat="47.85303" lon="-3.53351">
        <ele>8.2</ele>
        <time>2020-07-08T11:20:16Z</time>
      </trkpt>
      <trkpt lat="47.85303" lon="-3.53345">
        <ele>8.41</ele>
        <time>2020-07-08T11:20:17Z</time>
      </trkpt>
      <trkpt lat="47.85304" lon="-3.53341">
        <ele>8.59</ele>
        <time>2020-07-08T11:20:18Z</time>
      </trkpt>
      <trkpt lat="47.85303" lon="-3.53336">
        <ele>8.75</ele>
        <time>2020-07-08T11:20:19Z</time>
      </trkpt>
      <trkpt lat="47.85303" lon="-3.53331">
        <ele>8.81</ele>
        <time>2020-07-08T11:20:20Z</time>
      </trkpt>
      <trkpt lat="47.85303" lon="-3.53326">
        <ele>8.73</ele>
        <time>2020-07-08T11:20:21Z</time>
      </trkpt>
      <trkpt lat="47.85303" lon="-3.5332">
        <ele>8.59</ele>
        <time>2020-07-08T11:20:22Z</time>
      </trkpt>
      <trkpt lat="47.85302" lon="-3.53315">
        <ele>8.45</ele>
        <time>2020-07-08T11:20:23Z</time>
      </trkpt>
      <trkpt lat="47.85302" lon="-3.53309">
        <ele>8.3</ele>
        <time>2020-07-08T11:20:24Z</time>
      </trkpt>
      <trkpt lat="47.85301" lon="-3.53304">
        <ele>8.12</ele>
        <time>2020-07-08T11:20:25Z</time>
      </trkpt>
      <trkpt lat="47.853" lon="-3.53299">
        <ele>7.83</ele>
        <time>2020-07-08T11:20:26Z</time>
      </trkpt>
      <trkpt lat="47.85299" lon="-3.53294">
        <ele>7.52</ele>
        <time>2020-07-08T11:20:27Z</time>
      </trkpt>
      <trkpt lat="47.85298" lon="-3.53288">
        <ele>7.18</ele>
        <time>2020-07-08T11:20:28Z</time>
      </trkpt>
      <trkpt lat="47.85295" lon="-3.53282">
        <ele>6.83</ele>
        <time>2020-07-08T11:20:29Z</time>
      </trkpt>
      <trkpt lat="47.85293" lon="-3.53278">
        <ele>6.58</ele>
        <time>2020-07-08T11:20:30Z</time>
      </trkpt>
      <trkpt lat="47.85289" lon="-3.53275">
        <ele>6.48</ele>
        <time>2020-07-08T11:20:31Z</time>
      </trkpt>
      <trkpt lat="47.85287" lon="-3.53272">
        <ele>6.42</ele>
        <time>2020-07-08T11:20:32Z</time>
      </trkpt>
      <trkpt lat="47.85285" lon="-3.5327">
        <ele>6.4</ele>
        <time>2020-07-08T11:20:33Z</time>
      </trkpt>
      <trkpt lat="47.85281" lon="-3.53266">
        <ele>6.41</ele>
        <time>2020-07-08T11:20:34Z</time>
      </trkpt>
      <trkpt lat="47.85278" lon="-3.53263">
        <ele>6.44</ele>
        <time>2020-07-08T11:20:35Z</time>
      </trkpt>
      <trkpt lat="47.85274" lon="-3.53259">
        <ele>6.49</ele>
        <time>2020-07-08T11:20:36Z</time>
      </trkpt>
      <trkpt lat="47.8527" lon="-3.53256">
        <ele>6.55</ele>
        <time>2020-07-08T11:20:37Z</time>
      </trkpt>
      <trkpt lat="47.85266" lon="-3.53254">
        <ele>6.58</ele>
        <time>2020-07-08T11:20:38Z</time>
      </trkpt>
      <trkpt lat="47.85263" lon="-3.53251">
        <ele>6.59</ele>
        <time>2020-07-08T11:20:39Z</time>
      </trkpt>
      <trkpt lat="47.85259" lon="-3.53247">
        <ele>6.58</ele>
        <time>2020-07-08T11:20:40Z</time>
      </trkpt>
      <trkpt lat="47.85256" lon="-3.53243">
        <ele>6.56</ele>
        <time>2020-07-08T11:20:41Z</time>
      </trkpt>
      <trkpt lat="47.85252" lon="-3.53239">
        <ele>6.55</ele>
        <time>2020-07-08T11:20:42Z</time>
      </trkpt>
      <trkpt lat="47.85249" lon="-3.53236">
        <ele>6.47</ele>
        <time>2020-07-08T11:20:43Z</time>
      </trkpt>
      <trkpt lat="47.85246" lon="-3.53232">
        <ele>6.29</ele>
        <time>2020-07-08T11:20:44Z</time>
      </trkpt>
      <trkpt lat="47.85242" lon="-3.53229">
        <ele>6.06</ele>
        <time>2020-07-08T11:20:45Z</time>
      </trkpt>
      <trkpt lat="47.85238" lon="-3.53225">
        <ele>5.79</ele>
        <time>2020-07-08T11:20:46Z</time>
      </trkpt>
      <trkpt lat="47.85234" lon="-3.53221">
        <ele>5.52</ele>
        <time>2020-07-08T11:20:47Z</time>
      </trkpt>
      <trkpt lat="47.8523" lon="-3.53216">
        <ele>5.38</ele>
        <time>2020-07-08T11:20:48Z</time>
      </trkpt>
      <trkpt lat="47.85225" lon="-3.53212">
        <ele>5.37</ele>
        <time>2020-07-08T11:20:49Z</time>
      </trkpt>
      <trkpt lat="47.8522" lon="-3.53206">
        <ele>5.45</ele>
        <time>2020-07-08T11:20:50Z</time>
      </trkpt>
      <trkpt lat="47.85216" lon="-3.53202">
        <ele>5.39</ele>
        <time>2020-07-08T11:20:51Z</time>
      </trkpt>
      <trkpt lat="47.85212" lon="-3.53198">
        <ele>5.26</ele>
        <time>2020-07-08T11:20:52Z</time>
      </trkpt>
      <trkpt lat="47.85208" lon="-3.53194">
        <ele>5.07</ele>
        <time>2020-07-08T11:20:53Z</time>
      </trkpt>
      <trkpt lat="47.85204" lon="-3.53191">
        <ele>4.82</ele>
        <time>2020-07-08T11:20:54Z</time>
      </trkpt>
      <trkpt lat="47.85201" lon="-3.53188">
        <ele>4.64</ele>
        <time>2020-07-08T11:20:55Z</time>
      </trkpt>
      <trkpt lat="47.85199" lon="-3.53186">
        <ele>4.53</ele>
        <time>2020-07-08T11:20:56Z</time>
      </trkpt>
      <trkpt lat="47.85197" lon="-3.53184">
        <ele>4.48</ele>
        <time>2020-07-08T11:20:57Z</time>
      </trkpt>
      <trkpt lat="47.85195" lon="-3.53181">
        <ele>4.48</ele>
        <time>2020-07-08T11:20:58Z</time>
      </trkpt>
      <trkpt lat="47.85193" lon="-3.53181">
        <ele>4.49</ele>
        <time>2020-07-08T11:20:59Z</time>
      </trkpt>
      <trkpt lat="47.85191" lon="-3.53179">
        <ele>4.52</ele>
        <time>2020-07-08T11:21:00Z</time>
      </trkpt>
      <trkpt lat="47.85189" lon="-3.53177">
        <ele>4.55</ele>
        <time>2020-07-08T11:21:01Z</time>
      </trkpt>
      <trkpt lat="47.85188" lon="-3.53176">
        <ele>4.58</ele>
        <time>2020-07-08T11:21:02Z</time>
      </trkpt>
      <trkpt lat="47.85186" lon="-3.53173">
        <ele>4.6</ele>
        <time>2020-07-08T11:21:03Z</time>
      </trkpt>
      <trkpt lat="47.85184" lon="-3.53171">
        <ele>4.59</ele>
        <time>2020-07-08T11:21:04Z</time>
      </trkpt>
      <trkpt lat="47.85182" lon="-3.53169">
        <ele>4.55</ele>
        <time>2020-07-08T11:21:05Z</time>
      </trkpt>
      <trkpt lat="47.85179" lon="-3.53166">
        <ele>4.46</ele>
        <time>2020-07-08T11:21:06Z</time>
      </trkpt>
      <trkpt lat="47.85177" lon="-3.53163">
        <ele>4.36</ele>
        <time>2020-07-08T11:21:07Z</time>
      </trkpt>
      <trkpt lat="47.85174" lon="-3.53161">
        <ele>4.27</ele>
        <time>2020-07-08T11:21:08Z</time>
      </trkpt>
      <trkpt lat="47.85173" lon="-3.53159">
        <ele>4.2</ele>
        <time>2020-07-08T11:21:09Z</time>
      </trkpt>
      <trkpt lat="47.85171" lon="-3.53157">
        <ele>4.14</ele>
        <time>2020-07-08T11:21:10Z</time>
      </trkpt>
      <trkpt lat="47.85168" lon="-3.53154">
        <ele>4.07</ele>
        <time>2020-07-08T11:21:11Z</time>
      </trkpt>
      <trkpt lat="47.85165" lon="-3.53152">
        <ele>4</ele>
        <time>2020-07-08T11:21:12Z</time>
      </trkpt>
      <trkpt lat="47.85162" lon="-3.53149">
        <ele>3.92</ele>
        <time>2020-07-08T11:21:13Z</time>
      </trkpt>
      <trkpt lat="47.85158" lon="-3.53147">
        <ele>3.82</ele>
        <time>2020-07-08T11:21:14Z</time>
      </trkpt>
      <trkpt lat="47.85154" lon="-3.53146">
        <ele>3.71</ele>
        <time>2020-07-08T11:21:15Z</time>
      </trkpt>
      <trkpt lat="47.85151" lon="-3.53145">
        <ele>3.6</ele>
        <time>2020-07-08T11:21:16Z</time>
      </trkpt>
      <trkpt lat="47.85148" lon="-3.53144">
        <ele>3.49</ele>
        <time>2020-07-08T11:21:17Z</time>
      </trkpt>
      <trkpt lat="47.85143" lon="-3.53142">
        <ele>3.33</ele>
        <time>2020-07-08T11:21:18Z</time>
      </trkpt>
      <trkpt lat="47.85139" lon="-3.5314">
        <ele>3.12</ele>
        <time>2020-07-08T11:21:19Z</time>
      </trkpt>
      <trkpt lat="47.85135" lon="-3.53136">
        <ele>3.1</ele>
        <time>2020-07-08T11:21:20Z</time>
      </trkpt>
      <trkpt lat="47.8513" lon="-3.53132">
        <ele>3.15</ele>
        <time>2020-07-08T11:21:21Z</time>
      </trkpt>
      <trkpt lat="47.85127" lon="-3.53131">
        <ele>3.16</ele>
        <time>2020-07-08T11:21:22Z</time>
      </trkpt>
      <trkpt lat="47.85123" lon="-3.53129">
        <ele>3.16</ele>
        <time>2020-07-08T11:21:23Z</time>
      </trkpt>
      <trkpt lat="47.85119" lon="-3.53127">
        <ele>3.14</ele>
        <time>2020-07-08T11:21:24Z</time>
      </trkpt>
      <trkpt lat="47.85116" lon="-3.53126">
        <ele>3.1</ele>
        <time>2020-07-08T11:21:25Z</time>
      </trkpt>
      <trkpt lat="47.85112" lon="-3.53125">
        <ele>3.04</ele>
        <time>2020-07-08T11:21:26Z</time>
      </trkpt>
      <trkpt lat="47.85109" lon="-3.53123">
        <ele>3.07</ele>
        <time>2020-07-08T11:21:27Z</time>
      </trkpt>
      <trkpt lat="47.85107" lon="-3.53121">
        <ele>3.13</ele>
        <time>2020-07-08T11:21:28Z</time>
      </trkpt>
      <trkpt lat="47.85105" lon="-3.53119">
        <ele>3.2</ele>
        <time>2020-07-08T11:21:29Z</time>
      </trkpt>
      <trkpt lat="47.85103" lon="-3.53117">
        <ele>3.26</ele>
        <time>2020-07-08T11:21:30Z</time>
      </trkpt>
      <trkpt lat="47.85102" lon="-3.53115">
        <ele>3.31</ele>
        <time>2020-07-08T11:21:31Z</time>
      </trkpt>
      <trkpt lat="47.851" lon="-3.53115">
        <ele>3.38</ele>
        <time>2020-07-08T11:21:32Z</time>
      </trkpt>
      <trkpt lat="47.85097" lon="-3.53114">
        <ele>3.46</ele>
        <time>2020-07-08T11:21:33Z</time>
      </trkpt>
      <trkpt lat="47.85094" lon="-3.53113">
        <ele>3.57</ele>
        <time>2020-07-08T11:21:34Z</time>
      </trkpt>
      <trkpt lat="47.85091" lon="-3.53114">
        <ele>3.69</ele>
        <time>2020-07-08T11:21:35Z</time>
      </trkpt>
      <trkpt lat="47.85088" lon="-3.53113">
        <ele>3.8</ele>
        <time>2020-07-08T11:21:36Z</time>
      </trkpt>
      <trkpt lat="47.85085" lon="-3.53112">
        <ele>3.91</ele>
        <time>2020-07-08T11:21:37Z</time>
      </trkpt>
      <trkpt lat="47.85081" lon="-3.53113">
        <ele>3.98</ele>
        <time>2020-07-08T11:21:38Z</time>
      </trkpt>
      <trkpt lat="47.85078" lon="-3.53112">
        <ele>4</ele>
        <time>2020-07-08T11:21:39Z</time>
      </trkpt>
      <trkpt lat="47.85075" lon="-3.53112">
        <ele>4</ele>
        <time>2020-07-08T11:21:40Z</time>
      </trkpt>
      <trkpt lat="47.85071" lon="-3.53112">
        <ele>4.01</ele>
        <time>2020-07-08T11:21:41Z</time>
      </trkpt>
      <trkpt lat="47.85067" lon="-3.5311">
        <ele>4</ele>
        <time>2020-07-08T11:21:42Z</time>
      </trkpt>
      <trkpt lat="47.85063" lon="-3.5311">
        <ele>4</ele>
        <time>2020-07-08T11:21:43Z</time>
      </trkpt>
      <trkpt lat="47.85059" lon="-3.53111">
        <ele>4</ele>
        <time>2020-07-08T11:21:44Z</time>
      </trkpt>
      <trkpt lat="47.85056" lon="-3.53112">
        <ele>4.01</ele>
        <time>2020-07-08T11:21:45Z</time>
      </trkpt>
      <trkpt lat="47.85055" lon="-3.53113">
        <ele>4.06</ele>
        <time>2020-07-08T11:21:46Z</time>
      </trkpt>
      <trkpt lat="47.85053" lon="-3.53116">
        <ele>4.15</ele>
        <time>2020-07-08T11:21:47Z</time>
      </trkpt>
      <trkpt lat="47.85051" lon="-3.5312">
        <ele>4.27</ele>
        <time>2020-07-08T11:21:48Z</time>
      </trkpt>
      <trkpt lat="47.85049" lon="-3.53123">
        <ele>4.37</ele>
        <time>2020-07-08T11:21:49Z</time>
      </trkpt>
      <trkpt lat="47.85046" lon="-3.53124">
        <ele>4.44</ele>
        <time>2020-07-08T11:21:50Z</time>
      </trkpt>
      <trkpt lat="47.85043" lon="-3.53125">
        <ele>4.49</ele>
        <time>2020-07-08T11:21:51Z</time>
      </trkpt>
      <trkpt lat="47.8504" lon="-3.53126">
        <ele>4.52</ele>
        <time>2020-07-08T11:21:52Z</time>
      </trkpt>
      <trkpt lat="47.85036" lon="-3.53126">
        <ele>4.53</ele>
        <time>2020-07-08T11:21:53Z</time>
      </trkpt>
      <trkpt lat="47.85031" lon="-3.53126">
        <ele>4.53</ele>
        <time>2020-07-08T11:21:54Z</time>
      </trkpt>
      <trkpt lat="47.85027" lon="-3.53125">
        <ele>4.51</ele>
        <time>2020-07-08T11:21:55Z</time>
      </trkpt>
      <trkpt lat="47.85023" lon="-3.53125">
        <ele>4.51</ele>
        <time>2020-07-08T11:21:56Z</time>
      </trkpt>
      <trkpt lat="47.8502" lon="-3.53126">
        <ele>4.53</ele>
        <time>2020-07-08T11:21:57Z</time>
      </trkpt>
      <trkpt lat="47.85017" lon="-3.53126">
        <ele>4.54</ele>
        <time>2020-07-08T11:21:58Z</time>
      </trkpt>
      <trkpt lat="47.85013" lon="-3.53127">
        <ele>4.55</ele>
        <time>2020-07-08T11:21:59Z</time>
      </trkpt>
      <trkpt lat="47.85009" lon="-3.53128">
        <ele>4.58</ele>
        <time>2020-07-08T11:22:00Z</time>
      </trkpt>
      <trkpt lat="47.85006" lon="-3.53126">
        <ele>4.55</ele>
        <time>2020-07-08T11:22:01Z</time>
      </trkpt>
      <trkpt lat="47.85003" lon="-3.53123">
        <ele>4.47</ele>
        <time>2020-07-08T11:22:02Z</time>
      </trkpt>
      <trkpt lat="47.85" lon="-3.5312">
        <ele>4.37</ele>
        <time>2020-07-08T11:22:03Z</time>
      </trkpt>
      <trkpt lat="47.84996" lon="-3.53118">
        <ele>4.28</ele>
        <time>2020-07-08T11:22:04Z</time>
      </trkpt>
      <trkpt lat="47.84993" lon="-3.53115">
        <ele>4.17</ele>
        <time>2020-07-08T11:22:05Z</time>
      </trkpt>
      <trkpt lat="47.84988" lon="-3.53113">
        <ele>4.1</ele>
        <time>2020-07-08T11:22:06Z</time>
      </trkpt>
      <trkpt lat="47.84984" lon="-3.53111">
        <ele>4.03</ele>
        <time>2020-07-08T11:22:07Z</time>
      </trkpt>
      <trkpt lat="47.8498" lon="-3.53108">
        <ele>4.01</ele>
        <time>2020-07-08T11:22:08Z</time>
      </trkpt>
      <trkpt lat="47.84976" lon="-3.53106">
        <ele>4</ele>
        <time>2020-07-08T11:22:09Z</time>
      </trkpt>
      <trkpt lat="47.84971" lon="-3.53104">
        <ele>4.02</ele>
        <time>2020-07-08T11:22:10Z</time>
      </trkpt>
      <trkpt lat="47.84967" lon="-3.53102">
        <ele>4.09</ele>
        <time>2020-07-08T11:22:11Z</time>
      </trkpt>
      <trkpt lat="47.84963" lon="-3.53101">
        <ele>4.18</ele>
        <time>2020-07-08T11:22:12Z</time>
      </trkpt>
      <trkpt lat="47.84958" lon="-3.53101">
        <ele>4.28</ele>
        <time>2020-07-08T11:22:13Z</time>
      </trkpt>
      <trkpt lat="47.84954" lon="-3.53099">
        <ele>4.35</ele>
        <time>2020-07-08T11:22:14Z</time>
      </trkpt>
      <trkpt lat="47.8495" lon="-3.53099">
        <ele>4.41</ele>
        <time>2020-07-08T11:22:15Z</time>
      </trkpt>
      <trkpt lat="47.84946" lon="-3.53096">
        <ele>4.44</ele>
        <time>2020-07-08T11:22:16Z</time>
      </trkpt>
      <trkpt lat="47.84941" lon="-3.53095">
        <ele>4.44</ele>
        <time>2020-07-08T11:22:17Z</time>
      </trkpt>
      <trkpt lat="47.84936" lon="-3.53094">
        <ele>4.41</ele>
        <time>2020-07-08T11:22:18Z</time>
      </trkpt>
      <trkpt lat="47.84932" lon="-3.53093">
        <ele>4.37</ele>
        <time>2020-07-08T11:22:19Z</time>
      </trkpt>
      <trkpt lat="47.84928" lon="-3.53091">
        <ele>4.31</ele>
        <time>2020-07-08T11:22:20Z</time>
      </trkpt>
      <trkpt lat="47.84923" lon="-3.53091">
        <ele>4.27</ele>
        <time>2020-07-08T11:22:21Z</time>
      </trkpt>
      <trkpt lat="47.84918" lon="-3.53089">
        <ele>4.23</ele>
        <time>2020-07-08T11:22:22Z</time>
      </trkpt>
      <trkpt lat="47.84914" lon="-3.53088">
        <ele>4.27</ele>
        <time>2020-07-08T11:22:23Z</time>
      </trkpt>
      <trkpt lat="47.8491" lon="-3.53088">
        <ele>4.36</ele>
        <time>2020-07-08T11:22:24Z</time>
      </trkpt>
      <trkpt lat="47.84905" lon="-3.53086">
        <ele>4.47</ele>
        <time>2020-07-08T11:22:25Z</time>
      </trkpt>
      <trkpt lat="47.84901" lon="-3.53086">
        <ele>4.58</ele>
        <time>2020-07-08T11:22:26Z</time>
      </trkpt>
      <trkpt lat="47.84896" lon="-3.53085">
        <ele>4.71</ele>
        <time>2020-07-08T11:22:27Z</time>
      </trkpt>
      <trkpt lat="47.84892" lon="-3.53083">
        <ele>4.84</ele>
        <time>2020-07-08T11:22:28Z</time>
      </trkpt>
      <trkpt lat="47.84887" lon="-3.53081">
        <ele>4.95</ele>
        <time>2020-07-08T11:22:29Z</time>
      </trkpt>
      <trkpt lat="47.84883" lon="-3.5308">
        <ele>4.99</ele>
        <time>2020-07-08T11:22:30Z</time>
      </trkpt>
      <trkpt lat="47.84878" lon="-3.53079">
        <ele>5</ele>
        <time>2020-07-08T11:22:31Z</time>
      </trkpt>
      <trkpt lat="47.84872" lon="-3.53078">
        <ele>5</ele>
        <time>2020-07-08T11:22:32Z</time>
      </trkpt>
      <trkpt lat="47.84867" lon="-3.53078">
        <ele>5</ele>
        <time>2020-07-08T11:22:33Z</time>
      </trkpt>
      <trkpt lat="47.84863" lon="-3.53077">
        <ele>5</ele>
        <time>2020-07-08T11:22:34Z</time>
      </trkpt>
      <trkpt lat="47.84858" lon="-3.53077">
        <ele>4.84</ele>
        <time>2020-07-08T11:22:35Z</time>
      </trkpt>
      <trkpt lat="47.84852" lon="-3.53077">
        <ele>4.55</ele>
        <time>2020-07-08T11:22:36Z</time>
      </trkpt>
      <trkpt lat="47.84847" lon="-3.53076">
        <ele>4.27</ele>
        <time>2020-07-08T11:22:37Z</time>
      </trkpt>
      <trkpt lat="47.84843" lon="-3.53076">
        <ele>4</ele>
        <time>2020-07-08T11:22:38Z</time>
      </trkpt>
      <trkpt lat="47.84838" lon="-3.53075">
        <ele>3.72</ele>
        <time>2020-07-08T11:22:39Z</time>
      </trkpt>
      <trkpt lat="47.84833" lon="-3.53076">
        <ele>3.39</ele>
        <time>2020-07-08T11:22:40Z</time>
      </trkpt>
      <trkpt lat="47.84828" lon="-3.53077">
        <ele>2.98</ele>
        <time>2020-07-08T11:22:41Z</time>
      </trkpt>
      <trkpt lat="47.84823" lon="-3.53078">
        <ele>2.55</ele>
        <time>2020-07-08T11:22:42Z</time>
      </trkpt>
      <trkpt lat="47.84818" lon="-3.53079">
        <ele>2.15</ele>
        <time>2020-07-08T11:22:43Z</time>
      </trkpt>
      <trkpt lat="47.84814" lon="-3.53079">
        <ele>1.79</ele>
        <time>2020-07-08T11:22:44Z</time>
      </trkpt>
      <trkpt lat="47.84809" lon="-3.53079">
        <ele>1.44</ele>
        <time>2020-07-08T11:22:45Z</time>
      </trkpt>
      <trkpt lat="47.84805" lon="-3.53079">
        <ele>1.13</ele>
        <time>2020-07-08T11:22:46Z</time>
      </trkpt>
      <trkpt lat="47.848" lon="-3.5308">
        <ele>1.03</ele>
        <time>2020-07-08T11:22:47Z</time>
      </trkpt>
      <trkpt lat="47.84796" lon="-3.53081">
        <ele>0.99</ele>
        <time>2020-07-08T11:22:48Z</time>
      </trkpt>
      <trkpt lat="47.84791" lon="-3.53082">
        <ele>0.98</ele>
        <time>2020-07-08T11:22:49Z</time>
      </trkpt>
      <trkpt lat="47.84787" lon="-3.53084">
        <ele>1.03</ele>
        <time>2020-07-08T11:22:50Z</time>
      </trkpt>
      <trkpt lat="47.84781" lon="-3.53085">
        <ele>1.1</ele>
        <time>2020-07-08T11:22:51Z</time>
      </trkpt>
      <trkpt lat="47.84776" lon="-3.53086">
        <ele>1.18</ele>
        <time>2020-07-08T11:22:52Z</time>
      </trkpt>
      <trkpt lat="47.84771" lon="-3.53088">
        <ele>1.26</ele>
        <time>2020-07-08T11:22:53Z</time>
      </trkpt>
      <trkpt lat="47.84767" lon="-3.53088">
        <ele>1.29</ele>
        <time>2020-07-08T11:22:54Z</time>
      </trkpt>
      <trkpt lat="47.84762" lon="-3.53087">
        <ele>1.25</ele>
        <time>2020-07-08T11:22:55Z</time>
      </trkpt>
      <trkpt lat="47.84756" lon="-3.53085">
        <ele>1.14</ele>
        <time>2020-07-08T11:22:56Z</time>
      </trkpt>
      <trkpt lat="47.84751" lon="-3.53081">
        <ele>0.99</ele>
        <time>2020-07-08T11:22:57Z</time>
      </trkpt>
      <trkpt lat="47.84747" lon="-3.53078">
        <ele>1.01</ele>
        <time>2020-07-08T11:22:58Z</time>
      </trkpt>
      <trkpt lat="47.84743" lon="-3.53073">
        <ele>1.11</ele>
        <time>2020-07-08T11:22:59Z</time>
      </trkpt>
      <trkpt lat="47.8474" lon="-3.53069">
        <ele>1.2</ele>
        <time>2020-07-08T11:23:00Z</time>
      </trkpt>
      <trkpt lat="47.84736" lon="-3.53064">
        <ele>1.28</ele>
        <time>2020-07-08T11:23:01Z</time>
      </trkpt>
      <trkpt lat="47.84733" lon="-3.5306">
        <ele>1.36</ele>
        <time>2020-07-08T11:23:02Z</time>
      </trkpt>
      <trkpt lat="47.84729" lon="-3.53053">
        <ele>1.4</ele>
        <time>2020-07-08T11:23:03Z</time>
      </trkpt>
      <trkpt lat="47.84726" lon="-3.53047">
        <ele>1.34</ele>
        <time>2020-07-08T11:23:04Z</time>
      </trkpt>
      <trkpt lat="47.84724" lon="-3.53042">
        <ele>1.13</ele>
        <time>2020-07-08T11:23:05Z</time>
      </trkpt>
      <trkpt lat="47.84721" lon="-3.53037">
        <ele>0.89</ele>
        <time>2020-07-08T11:23:06Z</time>
      </trkpt>
      <trkpt lat="47.84719" lon="-3.5303">
        <ele>0.84</ele>
        <time>2020-07-08T11:23:07Z</time>
      </trkpt>
      <trkpt lat="47.84717" lon="-3.53024">
        <ele>1.17</ele>
        <time>2020-07-08T11:23:08Z</time>
      </trkpt>
      <trkpt lat="47.84715" lon="-3.53017">
        <ele>1.73</ele>
        <time>2020-07-08T11:23:09Z</time>
      </trkpt>
      <trkpt lat="47.84713" lon="-3.53011">
        <ele>2.25</ele>
        <time>2020-07-08T11:23:10Z</time>
      </trkpt>
      <trkpt lat="47.84711" lon="-3.53004">
        <ele>2.66</ele>
        <time>2020-07-08T11:23:11Z</time>
      </trkpt>
      <trkpt lat="47.8471" lon="-3.52998">
        <ele>2.94</ele>
        <time>2020-07-08T11:23:12Z</time>
      </trkpt>
      <trkpt lat="47.84709" lon="-3.52992">
        <ele>3.18</ele>
        <time>2020-07-08T11:23:13Z</time>
      </trkpt>
      <trkpt lat="47.84707" lon="-3.52986">
        <ele>3.41</ele>
        <time>2020-07-08T11:23:14Z</time>
      </trkpt>
      <trkpt lat="47.84705" lon="-3.52979">
        <ele>3.65</ele>
        <time>2020-07-08T11:23:15Z</time>
      </trkpt>
      <trkpt lat="47.84703" lon="-3.52973">
        <ele>3.87</ele>
        <time>2020-07-08T11:23:16Z</time>
      </trkpt>
      <trkpt lat="47.84702" lon="-3.52967">
        <ele>3.96</ele>
        <time>2020-07-08T11:23:17Z</time>
      </trkpt>
      <trkpt lat="47.84701" lon="-3.5296">
        <ele>3.99</ele>
        <time>2020-07-08T11:23:18Z</time>
      </trkpt>
      <trkpt lat="47.84699" lon="-3.52954">
        <ele>4</ele>
        <time>2020-07-08T11:23:19Z</time>
      </trkpt>
      <trkpt lat="47.84698" lon="-3.52949">
        <ele>4</ele>
        <time>2020-07-08T11:23:20Z</time>
      </trkpt>
      <trkpt lat="47.84696" lon="-3.52944">
        <ele>4</ele>
        <time>2020-07-08T11:23:21Z</time>
      </trkpt>
      <trkpt lat="47.84693" lon="-3.52939">
        <ele>4.03</ele>
        <time>2020-07-08T11:23:22Z</time>
      </trkpt>
      <trkpt lat="47.84689" lon="-3.52935">
        <ele>4.1</ele>
        <time>2020-07-08T11:23:23Z</time>
      </trkpt>
      <trkpt lat="47.84685" lon="-3.52932">
        <ele>4.17</ele>
        <time>2020-07-08T11:23:24Z</time>
      </trkpt>
      <trkpt lat="47.8468" lon="-3.52929">
        <ele>4.21</ele>
        <time>2020-07-08T11:23:25Z</time>
      </trkpt>
      <trkpt lat="47.84675" lon="-3.52925">
        <ele>4.21</ele>
        <time>2020-07-08T11:23:26Z</time>
      </trkpt>
      <trkpt lat="47.84671" lon="-3.52921">
        <ele>4.17</ele>
        <time>2020-07-08T11:23:27Z</time>
      </trkpt>
      <trkpt lat="47.84667" lon="-3.52918">
        <ele>4.09</ele>
        <time>2020-07-08T11:23:28Z</time>
      </trkpt>
      <trkpt lat="47.84663" lon="-3.52915">
        <ele>4.3</ele>
        <time>2020-07-08T11:23:29Z</time>
      </trkpt>
      <trkpt lat="47.84658" lon="-3.52912">
        <ele>4.62</ele>
        <time>2020-07-08T11:23:30Z</time>
      </trkpt>
      <trkpt lat="47.84654" lon="-3.52909">
        <ele>4.88</ele>
        <time>2020-07-08T11:23:31Z</time>
      </trkpt>
      <trkpt lat="47.8465" lon="-3.52905">
        <ele>5.03</ele>
        <time>2020-07-08T11:23:32Z</time>
      </trkpt>
      <trkpt lat="47.84646" lon="-3.52902">
        <ele>5.09</ele>
        <time>2020-07-08T11:23:33Z</time>
      </trkpt>
      <trkpt lat="47.84642" lon="-3.529">
        <ele>5.05</ele>
        <time>2020-07-08T11:23:34Z</time>
      </trkpt>
      <trkpt lat="47.84638" lon="-3.52897">
        <ele>4.93</ele>
        <time>2020-07-08T11:23:35Z</time>
      </trkpt>
      <trkpt lat="47.84634" lon="-3.52896">
        <ele>4.72</ele>
        <time>2020-07-08T11:23:36Z</time>
      </trkpt>
      <trkpt lat="47.84629" lon="-3.52895">
        <ele>4.5</ele>
        <time>2020-07-08T11:23:37Z</time>
      </trkpt>
      <trkpt lat="47.84625" lon="-3.52894">
        <ele>4.33</ele>
        <time>2020-07-08T11:23:38Z</time>
      </trkpt>
      <trkpt lat="47.8462" lon="-3.52895">
        <ele>4.24</ele>
        <time>2020-07-08T11:23:39Z</time>
      </trkpt>
      <trkpt lat="47.84614" lon="-3.52895">
        <ele>4.23</ele>
        <time>2020-07-08T11:23:40Z</time>
      </trkpt>
      <trkpt lat="47.84609" lon="-3.52897">
        <ele>4.27</ele>
        <time>2020-07-08T11:23:41Z</time>
      </trkpt>
      <trkpt lat="47.84605" lon="-3.52899">
        <ele>4.4</ele>
        <time>2020-07-08T11:23:42Z</time>
      </trkpt>
      <trkpt lat="47.846" lon="-3.52901">
        <ele>4.45</ele>
        <time>2020-07-08T11:23:43Z</time>
      </trkpt>
      <trkpt lat="47.84596" lon="-3.52902">
        <ele>4.57</ele>
        <time>2020-07-08T11:23:44Z</time>
      </trkpt>
      <trkpt lat="47.84592" lon="-3.52904">
        <ele>4.61</ele>
        <time>2020-07-08T11:23:45Z</time>
      </trkpt>
      <trkpt lat="47.84589" lon="-3.52904">
        <ele>4.61</ele>
        <time>2020-07-08T11:23:46Z</time>
      </trkpt>
      <trkpt lat="47.84585" lon="-3.52905">
        <ele>4.66</ele>
        <time>2020-07-08T11:23:47Z</time>
      </trkpt>
      <trkpt lat="47.84581" lon="-3.52908">
        <ele>4.82</ele>
        <time>2020-07-08T11:23:48Z</time>
      </trkpt>
      <trkpt lat="47.84577" lon="-3.5291">
        <ele>4.91</ele>
        <time>2020-07-08T11:23:49Z</time>
      </trkpt>
      <trkpt lat="47.84572" lon="-3.52912">
        <ele>4.91</ele>
        <time>2020-07-08T11:23:50Z</time>
      </trkpt>
      <trkpt lat="47.84568" lon="-3.52912">
        <ele>4.5</ele>
        <time>2020-07-08T11:23:51Z</time>
      </trkpt>
      <trkpt lat="47.84564" lon="-3.52912">
        <ele>4.12</ele>
        <time>2020-07-08T11:23:52Z</time>
      </trkpt>
      <trkpt lat="47.8456" lon="-3.52912">
        <ele>3.72</ele>
        <time>2020-07-08T11:23:53Z</time>
      </trkpt>
      <trkpt lat="47.84555" lon="-3.52911">
        <ele>3.25</ele>
        <time>2020-07-08T11:23:54Z</time>
      </trkpt>
      <trkpt lat="47.84551" lon="-3.52912">
        <ele>3.27</ele>
        <time>2020-07-08T11:23:55Z</time>
      </trkpt>
      <trkpt lat="47.84547" lon="-3.52912">
        <ele>3.33</ele>
        <time>2020-07-08T11:23:56Z</time>
      </trkpt>
      <trkpt lat="47.84543" lon="-3.52911">
        <ele>3.3</ele>
        <time>2020-07-08T11:23:57Z</time>
      </trkpt>
      <trkpt lat="47.84538" lon="-3.5291">
        <ele>3.28</ele>
        <time>2020-07-08T11:23:58Z</time>
      </trkpt>
      <trkpt lat="47.84535" lon="-3.52909">
        <ele>3.2</ele>
        <time>2020-07-08T11:23:59Z</time>
      </trkpt>
      <trkpt lat="47.84531" lon="-3.52908">
        <ele>3.09</ele>
        <time>2020-07-08T11:24:00Z</time>
      </trkpt>
      <trkpt lat="47.84527" lon="-3.52908">
        <ele>3.08</ele>
        <time>2020-07-08T11:24:01Z</time>
      </trkpt>
      <trkpt lat="47.84523" lon="-3.52907">
        <ele>3.22</ele>
        <time>2020-07-08T11:24:02Z</time>
      </trkpt>
      <trkpt lat="47.84519" lon="-3.52908">
        <ele>3.69</ele>
        <time>2020-07-08T11:24:03Z</time>
      </trkpt>
      <trkpt lat="47.84514" lon="-3.52908">
        <ele>4.11</ele>
        <time>2020-07-08T11:24:04Z</time>
      </trkpt>
      <trkpt lat="47.84509" lon="-3.52907">
        <ele>4.3</ele>
        <time>2020-07-08T11:24:05Z</time>
      </trkpt>
      <trkpt lat="47.84505" lon="-3.52905">
        <ele>4.27</ele>
        <time>2020-07-08T11:24:06Z</time>
      </trkpt>
      <trkpt lat="47.84501" lon="-3.52903">
        <ele>4.15</ele>
        <time>2020-07-08T11:24:07Z</time>
      </trkpt>
      <trkpt lat="47.84497" lon="-3.52902">
        <ele>4.31</ele>
        <time>2020-07-08T11:24:08Z</time>
      </trkpt>
      <trkpt lat="47.84494" lon="-3.52899">
        <ele>4.41</ele>
        <time>2020-07-08T11:24:09Z</time>
      </trkpt>
      <trkpt lat="47.8449" lon="-3.52896">
        <ele>4.32</ele>
        <time>2020-07-08T11:24:10Z</time>
      </trkpt>
      <trkpt lat="47.84486" lon="-3.52892">
        <ele>4.17</ele>
        <time>2020-07-08T11:24:11Z</time>
      </trkpt>
      <trkpt lat="47.84482" lon="-3.5289">
        <ele>4.05</ele>
        <time>2020-07-08T11:24:12Z</time>
      </trkpt>
      <trkpt lat="47.84479" lon="-3.52887">
        <ele>4.09</ele>
        <time>2020-07-08T11:24:13Z</time>
      </trkpt>
      <trkpt lat="47.84475" lon="-3.52884">
        <ele>4.28</ele>
        <time>2020-07-08T11:24:14Z</time>
      </trkpt>
      <trkpt lat="47.84472" lon="-3.52881">
        <ele>4.34</ele>
        <time>2020-07-08T11:24:15Z</time>
      </trkpt>
      <trkpt lat="47.84468" lon="-3.52879">
        <ele>4.4</ele>
        <time>2020-07-08T11:24:16Z</time>
      </trkpt>
      <trkpt lat="47.84465" lon="-3.52876">
        <ele>4.5</ele>
        <time>2020-07-08T11:24:17Z</time>
      </trkpt>
      <trkpt lat="47.84462" lon="-3.52873">
        <ele>4.55</ele>
        <time>2020-07-08T11:24:18Z</time>
      </trkpt>
      <trkpt lat="47.84458" lon="-3.52871">
        <ele>4.6</ele>
        <time>2020-07-08T11:24:19Z</time>
      </trkpt>
      <trkpt lat="47.84455" lon="-3.52869">
        <ele>4.74</ele>
        <time>2020-07-08T11:24:20Z</time>
      </trkpt>
      <trkpt lat="47.84452" lon="-3.52866">
        <ele>4.72</ele>
        <time>2020-07-08T11:24:21Z</time>
      </trkpt>
      <trkpt lat="47.84448" lon="-3.52863">
        <ele>4.84</ele>
        <time>2020-07-08T11:24:22Z</time>
      </trkpt>
      <trkpt lat="47.84443" lon="-3.5286">
        <ele>4.86</ele>
        <time>2020-07-08T11:24:23Z</time>
      </trkpt>
      <trkpt lat="47.8444" lon="-3.52856">
        <ele>4.55</ele>
        <time>2020-07-08T11:24:24Z</time>
      </trkpt>
      <trkpt lat="47.84436" lon="-3.52852">
        <ele>4.13</ele>
        <time>2020-07-08T11:24:25Z</time>
      </trkpt>
      <trkpt lat="47.84431" lon="-3.52848">
        <ele>3.82</ele>
        <time>2020-07-08T11:24:26Z</time>
      </trkpt>
      <trkpt lat="47.84426" lon="-3.52846">
        <ele>3.67</ele>
        <time>2020-07-08T11:24:27Z</time>
      </trkpt>
      <trkpt lat="47.84421" lon="-3.52846">
        <ele>3.87</ele>
        <time>2020-07-08T11:24:28Z</time>
      </trkpt>
      <trkpt lat="47.84416" lon="-3.52847">
        <ele>4.3</ele>
        <time>2020-07-08T11:24:29Z</time>
      </trkpt>
      <trkpt lat="47.84411" lon="-3.5285">
        <ele>4.56</ele>
        <time>2020-07-08T11:24:30Z</time>
      </trkpt>
      <trkpt lat="47.84406" lon="-3.52853">
        <ele>4.63</ele>
        <time>2020-07-08T11:24:31Z</time>
      </trkpt>
      <trkpt lat="47.84402" lon="-3.52856">
        <ele>4.46</ele>
        <time>2020-07-08T11:24:32Z</time>
      </trkpt>
      <trkpt lat="47.84397" lon="-3.52859">
        <ele>4.15</ele>
        <time>2020-07-08T11:24:33Z</time>
      </trkpt>
      <trkpt lat="47.84392" lon="-3.52863">
        <ele>3.85</ele>
        <time>2020-07-08T11:24:34Z</time>
      </trkpt>
      <trkpt lat="47.84388" lon="-3.52868">
        <ele>3.76</ele>
        <time>2020-07-08T11:24:35Z</time>
      </trkpt>
      <trkpt lat="47.84383" lon="-3.52874">
        <ele>3.99</ele>
        <time>2020-07-08T11:24:36Z</time>
      </trkpt>
      <trkpt lat="47.84379" lon="-3.52879">
        <ele>4.18</ele>
        <time>2020-07-08T11:24:37Z</time>
      </trkpt>
      <trkpt lat="47.84374" lon="-3.52886">
        <ele>4.21</ele>
        <time>2020-07-08T11:24:38Z</time>
      </trkpt>
      <trkpt lat="47.84369" lon="-3.52892">
        <ele>4.09</ele>
        <time>2020-07-08T11:24:39Z</time>
      </trkpt>
      <trkpt lat="47.84364" lon="-3.52898">
        <ele>3.8</ele>
        <time>2020-07-08T11:24:40Z</time>
      </trkpt>
      <trkpt lat="47.84359" lon="-3.52903">
        <ele>3.44</ele>
        <time>2020-07-08T11:24:41Z</time>
      </trkpt>
      <trkpt lat="47.84354" lon="-3.5291">
        <ele>3.18</ele>
        <time>2020-07-08T11:24:42Z</time>
      </trkpt>
      <trkpt lat="47.8435" lon="-3.52918">
        <ele>2.95</ele>
        <time>2020-07-08T11:24:43Z</time>
      </trkpt>
      <trkpt lat="47.84348" lon="-3.52929">
        <ele>2.68</ele>
        <time>2020-07-08T11:24:44Z</time>
      </trkpt>
      <trkpt lat="47.84345" lon="-3.52939">
        <ele>2.32</ele>
        <time>2020-07-08T11:24:45Z</time>
      </trkpt>
      <trkpt lat="47.84344" lon="-3.52948">
        <ele>2.05</ele>
        <time>2020-07-08T11:24:46Z</time>
      </trkpt>
      <trkpt lat="47.84342" lon="-3.52955">
        <ele>1.92</ele>
        <time>2020-07-08T11:24:47Z</time>
      </trkpt>
      <trkpt lat="47.84341" lon="-3.52963">
        <ele>1.89</ele>
        <time>2020-07-08T11:24:48Z</time>
      </trkpt>
      <trkpt lat="47.84341" lon="-3.52969">
        <ele>1.95</ele>
        <time>2020-07-08T11:24:49Z</time>
      </trkpt>
      <trkpt lat="47.84341" lon="-3.52975">
        <ele>2.06</ele>
        <time>2020-07-08T11:24:50Z</time>
      </trkpt>
      <trkpt lat="47.84343" lon="-3.52981">
        <ele>2.24</ele>
        <time>2020-07-08T11:24:51Z</time>
      </trkpt>
      <trkpt lat="47.84344" lon="-3.52987">
        <ele>2.41</ele>
        <time>2020-07-08T11:24:52Z</time>
      </trkpt>
      <trkpt lat="47.84345" lon="-3.52991">
        <ele>2.57</ele>
        <time>2020-07-08T11:24:53Z</time>
      </trkpt>
      <trkpt lat="47.84346" lon="-3.52995">
        <ele>2.73</ele>
        <time>2020-07-08T11:24:54Z</time>
      </trkpt>
      <trkpt lat="47.84347" lon="-3.53">
        <ele>2.9</ele>
        <time>2020-07-08T11:24:55Z</time>
      </trkpt>
      <trkpt lat="47.84348" lon="-3.53005">
        <ele>3.1</ele>
        <time>2020-07-08T11:24:56Z</time>
      </trkpt>
      <trkpt lat="47.8435" lon="-3.53009">
        <ele>3.34</ele>
        <time>2020-07-08T11:24:57Z</time>
      </trkpt>
      <trkpt lat="47.84353" lon="-3.53013">
        <ele>3.63</ele>
        <time>2020-07-08T11:24:58Z</time>
      </trkpt>
      <trkpt lat="47.84356" lon="-3.53017">
        <ele>4.02</ele>
        <time>2020-07-08T11:24:59Z</time>
      </trkpt>
      <trkpt lat="47.84358" lon="-3.53022">
        <ele>4.43</ele>
        <time>2020-07-08T11:25:00Z</time>
      </trkpt>
      <trkpt lat="47.84361" lon="-3.53027">
        <ele>4.86</ele>
        <time>2020-07-08T11:25:01Z</time>
      </trkpt>
      <trkpt lat="47.84366" lon="-3.53033">
        <ele>5.34</ele>
        <time>2020-07-08T11:25:02Z</time>
      </trkpt>
      <trkpt lat="47.84369" lon="-3.53038">
        <ele>5.63</ele>
        <time>2020-07-08T11:25:03Z</time>
      </trkpt>
      <trkpt lat="47.84371" lon="-3.53043">
        <ele>5.84</ele>
        <time>2020-07-08T11:25:04Z</time>
      </trkpt>
      <trkpt lat="47.84374" lon="-3.53048">
        <ele>5.92</ele>
        <time>2020-07-08T11:25:05Z</time>
      </trkpt>
      <trkpt lat="47.84377" lon="-3.53053">
        <ele>5.92</ele>
        <time>2020-07-08T11:25:06Z</time>
      </trkpt>
      <trkpt lat="47.84381" lon="-3.53058">
        <ele>5.97</ele>
        <time>2020-07-08T11:25:07Z</time>
      </trkpt>
      <trkpt lat="47.84384" lon="-3.53064">
        <ele>5.98</ele>
        <time>2020-07-08T11:25:08Z</time>
      </trkpt>
      <trkpt lat="47.84388" lon="-3.5307">
        <ele>5.91</ele>
        <time>2020-07-08T11:25:09Z</time>
      </trkpt>
      <trkpt lat="47.84392" lon="-3.53077">
        <ele>5.91</ele>
        <time>2020-07-08T11:25:10Z</time>
      </trkpt>
      <trkpt lat="47.84395" lon="-3.53083">
        <ele>5.95</ele>
        <time>2020-07-08T11:25:11Z</time>
      </trkpt>
      <trkpt lat="47.84399" lon="-3.53088">
        <ele>6.27</ele>
        <time>2020-07-08T11:25:12Z</time>
      </trkpt>
      <trkpt lat="47.84402" lon="-3.53092">
        <ele>6.69</ele>
        <time>2020-07-08T11:25:13Z</time>
      </trkpt>
      <trkpt lat="47.84405" lon="-3.53097">
        <ele>7.16</ele>
        <time>2020-07-08T11:25:14Z</time>
      </trkpt>
      <trkpt lat="47.84409" lon="-3.531">
        <ele>7.64</ele>
        <time>2020-07-08T11:25:15Z</time>
      </trkpt>
      <trkpt lat="47.84412" lon="-3.53105">
        <ele>8.11</ele>
        <time>2020-07-08T11:25:16Z</time>
      </trkpt>
      <trkpt lat="47.84415" lon="-3.53109">
        <ele>8.58</ele>
        <time>2020-07-08T11:25:17Z</time>
      </trkpt>
      <trkpt lat="47.84418" lon="-3.53113">
        <ele>8.87</ele>
        <time>2020-07-08T11:25:18Z</time>
      </trkpt>
      <trkpt lat="47.8442" lon="-3.53116">
        <ele>8.89</ele>
        <time>2020-07-08T11:25:19Z</time>
      </trkpt>
      <trkpt lat="47.84423" lon="-3.53119">
        <ele>8.86</ele>
        <time>2020-07-08T11:25:20Z</time>
      </trkpt>
      <trkpt lat="47.84425" lon="-3.53122">
        <ele>8.83</ele>
        <time>2020-07-08T11:25:21Z</time>
      </trkpt>
      <trkpt lat="47.84428" lon="-3.53125">
        <ele>8.8</ele>
        <time>2020-07-08T11:25:22Z</time>
      </trkpt>
      <trkpt lat="47.84432" lon="-3.53129">
        <ele>8.8</ele>
        <time>2020-07-08T11:25:23Z</time>
      </trkpt>
      <trkpt lat="47.84435" lon="-3.53132">
        <ele>8.85</ele>
        <time>2020-07-08T11:25:24Z</time>
      </trkpt>
      <trkpt lat="47.84439" lon="-3.53135">
        <ele>8.87</ele>
        <time>2020-07-08T11:25:25Z</time>
      </trkpt>
      <trkpt lat="47.84441" lon="-3.53139">
        <ele>8.75</ele>
        <time>2020-07-08T11:25:26Z</time>
      </trkpt>
      <trkpt lat="47.84443" lon="-3.53143">
        <ele>8.53</ele>
        <time>2020-07-08T11:25:27Z</time>
      </trkpt>
      <trkpt lat="47.84445" lon="-3.53148">
        <ele>8.22</ele>
        <time>2020-07-08T11:25:28Z</time>
      </trkpt>
      <trkpt lat="47.84446" lon="-3.53154">
        <ele>7.76</ele>
        <time>2020-07-08T11:25:29Z</time>
      </trkpt>
      <trkpt lat="47.84446" lon="-3.5316">
        <ele>7.15</ele>
        <time>2020-07-08T11:25:30Z</time>
      </trkpt>
      <trkpt lat="47.84446" lon="-3.53166">
        <ele>6.46</ele>
        <time>2020-07-08T11:25:31Z</time>
      </trkpt>
      <trkpt lat="47.84445" lon="-3.53172">
        <ele>6.14</ele>
        <time>2020-07-08T11:25:32Z</time>
      </trkpt>
      <trkpt lat="47.84443" lon="-3.53177">
        <ele>6.02</ele>
        <time>2020-07-08T11:25:33Z</time>
      </trkpt>
      <trkpt lat="47.84442" lon="-3.53181">
        <ele>5.94</ele>
        <time>2020-07-08T11:25:34Z</time>
      </trkpt>
      <trkpt lat="47.8444" lon="-3.53185">
        <ele>5.88</ele>
        <time>2020-07-08T11:25:35Z</time>
      </trkpt>
      <trkpt lat="47.84438" lon="-3.5319">
        <ele>5.8</ele>
        <time>2020-07-08T11:25:36Z</time>
      </trkpt>
      <trkpt lat="47.84436" lon="-3.53195">
        <ele>5.75</ele>
        <time>2020-07-08T11:25:37Z</time>
      </trkpt>
      <trkpt lat="47.84433" lon="-3.53201">
        <ele>5.83</ele>
        <time>2020-07-08T11:25:38Z</time>
      </trkpt>
      <trkpt lat="47.8443" lon="-3.53206">
        <ele>5.88</ele>
        <time>2020-07-08T11:25:39Z</time>
      </trkpt>
      <trkpt lat="47.84427" lon="-3.53211">
        <ele>5.86</ele>
        <time>2020-07-08T11:25:40Z</time>
      </trkpt>
      <trkpt lat="47.84424" lon="-3.53216">
        <ele>5.73</ele>
        <time>2020-07-08T11:25:41Z</time>
      </trkpt>
      <trkpt lat="47.84421" lon="-3.5322">
        <ele>5.52</ele>
        <time>2020-07-08T11:25:42Z</time>
      </trkpt>
      <trkpt lat="47.84418" lon="-3.53224">
        <ele>5.32</ele>
        <time>2020-07-08T11:25:43Z</time>
      </trkpt>
      <trkpt lat="47.84415" lon="-3.53229">
        <ele>5.22</ele>
        <time>2020-07-08T11:25:44Z</time>
      </trkpt>
      <trkpt lat="47.84411" lon="-3.53233">
        <ele>5.2</ele>
        <time>2020-07-08T11:25:45Z</time>
      </trkpt>
      <trkpt lat="47.84407" lon="-3.53237">
        <ele>5.19</ele>
        <time>2020-07-08T11:25:46Z</time>
      </trkpt>
      <trkpt lat="47.84403" lon="-3.5324">
        <ele>5.18</ele>
        <time>2020-07-08T11:25:47Z</time>
      </trkpt>
      <trkpt lat="47.84399" lon="-3.53243">
        <ele>5.14</ele>
        <time>2020-07-08T11:25:48Z</time>
      </trkpt>
      <trkpt lat="47.84395" lon="-3.53245">
        <ele>5.06</ele>
        <time>2020-07-08T11:25:49Z</time>
      </trkpt>
      <trkpt lat="47.84391" lon="-3.53246">
        <ele>4.99</ele>
        <time>2020-07-08T11:25:50Z</time>
      </trkpt>
      <trkpt lat="47.84387" lon="-3.53247">
        <ele>4.98</ele>
        <time>2020-07-08T11:25:51Z</time>
      </trkpt>
      <trkpt lat="47.84383" lon="-3.53249">
        <ele>5.11</ele>
        <time>2020-07-08T11:25:52Z</time>
      </trkpt>
      <trkpt lat="47.84378" lon="-3.5325">
        <ele>5.3</ele>
        <time>2020-07-08T11:25:53Z</time>
      </trkpt>
      <trkpt lat="47.84374" lon="-3.53251">
        <ele>5.56</ele>
        <time>2020-07-08T11:25:54Z</time>
      </trkpt>
      <trkpt lat="47.8437" lon="-3.53252">
        <ele>5.85</ele>
        <time>2020-07-08T11:25:55Z</time>
      </trkpt>
      <trkpt lat="47.84366" lon="-3.53253">
        <ele>6.09</ele>
        <time>2020-07-08T11:25:56Z</time>
      </trkpt>
      <trkpt lat="47.84363" lon="-3.53253">
        <ele>6.3</ele>
        <time>2020-07-08T11:25:57Z</time>
      </trkpt>
      <trkpt lat="47.8436" lon="-3.53254">
        <ele>6.53</ele>
        <time>2020-07-08T11:25:58Z</time>
      </trkpt>
      <trkpt lat="47.84356" lon="-3.53255">
        <ele>6.82</ele>
        <time>2020-07-08T11:25:59Z</time>
      </trkpt>
      <trkpt lat="47.84352" lon="-3.53256">
        <ele>7.11</ele>
        <time>2020-07-08T11:26:00Z</time>
      </trkpt>
      <trkpt lat="47.84348" lon="-3.53258">
        <ele>7.46</ele>
        <time>2020-07-08T11:26:01Z</time>
      </trkpt>
      <trkpt lat="47.84344" lon="-3.5326">
        <ele>7.85</ele>
        <time>2020-07-08T11:26:02Z</time>
      </trkpt>
      <trkpt lat="47.84341" lon="-3.53262">
        <ele>8.21</ele>
        <time>2020-07-08T11:26:03Z</time>
      </trkpt>
      <trkpt lat="47.84338" lon="-3.53263">
        <ele>8.5</ele>
        <time>2020-07-08T11:26:04Z</time>
      </trkpt>
      <trkpt lat="47.84336" lon="-3.53264">
        <ele>8.77</ele>
        <time>2020-07-08T11:26:05Z</time>
      </trkpt>
      <trkpt lat="47.84333" lon="-3.53265">
        <ele>9.02</ele>
        <time>2020-07-08T11:26:06Z</time>
      </trkpt>
      <trkpt lat="47.8433" lon="-3.53266">
        <ele>9.07</ele>
        <time>2020-07-08T11:26:07Z</time>
      </trkpt>
      <trkpt lat="47.84327" lon="-3.53268">
        <ele>9.13</ele>
        <time>2020-07-08T11:26:08Z</time>
      </trkpt>
      <trkpt lat="47.84324" lon="-3.5327">
        <ele>9.11</ele>
        <time>2020-07-08T11:26:09Z</time>
      </trkpt>
      <trkpt lat="47.84321" lon="-3.53272">
        <ele>9</ele>
        <time>2020-07-08T11:26:10Z</time>
      </trkpt>
      <trkpt lat="47.84318" lon="-3.53273">
        <ele>8.92</ele>
        <time>2020-07-08T11:26:11Z</time>
      </trkpt>
      <trkpt lat="47.84315" lon="-3.53276">
        <ele>8.86</ele>
        <time>2020-07-08T11:26:12Z</time>
      </trkpt>
      <trkpt lat="47.84312" lon="-3.53279">
        <ele>8.95</ele>
        <time>2020-07-08T11:26:13Z</time>
      </trkpt>
      <trkpt lat="47.8431" lon="-3.53283">
        <ele>9.1</ele>
        <time>2020-07-08T11:26:14Z</time>
      </trkpt>
      <trkpt lat="47.84308" lon="-3.53286">
        <ele>9.29</ele>
        <time>2020-07-08T11:26:15Z</time>
      </trkpt>
      <trkpt lat="47.84306" lon="-3.53289">
        <ele>9.49</ele>
        <time>2020-07-08T11:26:16Z</time>
      </trkpt>
      <trkpt lat="47.84304" lon="-3.53291">
        <ele>9.6</ele>
        <time>2020-07-08T11:26:17Z</time>
      </trkpt>
      <trkpt lat="47.84302" lon="-3.53295">
        <ele>9.66</ele>
        <time>2020-07-08T11:26:18Z</time>
      </trkpt>
      <trkpt lat="47.84299" lon="-3.53298">
        <ele>9.65</ele>
        <time>2020-07-08T11:26:19Z</time>
      </trkpt>
      <trkpt lat="47.84297" lon="-3.53302">
        <ele>9.6</ele>
        <time>2020-07-08T11:26:20Z</time>
      </trkpt>
      <trkpt lat="47.84294" lon="-3.53305">
        <ele>9.39</ele>
        <time>2020-07-08T11:26:21Z</time>
      </trkpt>
      <trkpt lat="47.84291" lon="-3.53308">
        <ele>9.33</ele>
        <time>2020-07-08T11:26:22Z</time>
      </trkpt>
      <trkpt lat="47.84289" lon="-3.53312">
        <ele>9.57</ele>
        <time>2020-07-08T11:26:23Z</time>
      </trkpt>
      <trkpt lat="47.84286" lon="-3.53315">
        <ele>9.77</ele>
        <time>2020-07-08T11:26:24Z</time>
      </trkpt>
      <trkpt lat="47.84284" lon="-3.53319">
        <ele>9.98</ele>
        <time>2020-07-08T11:26:25Z</time>
      </trkpt>
      <trkpt lat="47.84281" lon="-3.53323">
        <ele>10.29</ele>
        <time>2020-07-08T11:26:26Z</time>
      </trkpt>
      <trkpt lat="47.84278" lon="-3.53326">
        <ele>10.46</ele>
        <time>2020-07-08T11:26:27Z</time>
      </trkpt>
      <trkpt lat="47.84276" lon="-3.53329">
        <ele>10.57</ele>
        <time>2020-07-08T11:26:28Z</time>
      </trkpt>
      <trkpt lat="47.84274" lon="-3.53332">
        <ele>10.62</ele>
        <time>2020-07-08T11:26:29Z</time>
      </trkpt>
      <trkpt lat="47.84272" lon="-3.53334">
        <ele>10.49</ele>
        <time>2020-07-08T11:26:30Z</time>
      </trkpt>
      <trkpt lat="47.84269" lon="-3.53336">
        <ele>10.33</ele>
        <time>2020-07-08T11:26:31Z</time>
      </trkpt>
      <trkpt lat="47.84267" lon="-3.53339">
        <ele>10.46</ele>
        <time>2020-07-08T11:26:32Z</time>
      </trkpt>
      <trkpt lat="47.84266" lon="-3.53342">
        <ele>10.69</ele>
        <time>2020-07-08T11:26:33Z</time>
      </trkpt>
      <trkpt lat="47.84264" lon="-3.53345">
        <ele>11.05</ele>
        <time>2020-07-08T11:26:34Z</time>
      </trkpt>
      <trkpt lat="47.84262" lon="-3.53348">
        <ele>11.59</ele>
        <time>2020-07-08T11:26:35Z</time>
      </trkpt>
      <trkpt lat="47.84259" lon="-3.53353">
        <ele>12.57</ele>
        <time>2020-07-08T11:26:36Z</time>
      </trkpt>
      <trkpt lat="47.84258" lon="-3.53356">
        <ele>13.53</ele>
        <time>2020-07-08T11:26:37Z</time>
      </trkpt>
      <trkpt lat="47.84256" lon="-3.5336">
        <ele>14.59</ele>
        <time>2020-07-08T11:26:38Z</time>
      </trkpt>
      <trkpt lat="47.84254" lon="-3.53364">
        <ele>15.51</ele>
        <time>2020-07-08T11:26:39Z</time>
      </trkpt>
      <trkpt lat="47.84253" lon="-3.53367">
        <ele>16.38</ele>
        <time>2020-07-08T11:26:40Z</time>
      </trkpt>
      <trkpt lat="47.84251" lon="-3.53371">
        <ele>17.24</ele>
        <time>2020-07-08T11:26:41Z</time>
      </trkpt>
      <trkpt lat="47.84249" lon="-3.53374">
        <ele>17.89</ele>
        <time>2020-07-08T11:26:42Z</time>
      </trkpt>
      <trkpt lat="47.84247" lon="-3.53377">
        <ele>18.3</ele>
        <time>2020-07-08T11:26:43Z</time>
      </trkpt>
      <trkpt lat="47.84245" lon="-3.5338">
        <ele>18.6</ele>
        <time>2020-07-08T11:26:44Z</time>
      </trkpt>
      <trkpt lat="47.84244" lon="-3.53383">
        <ele>19.06</ele>
        <time>2020-07-08T11:26:45Z</time>
      </trkpt>
      <trkpt lat="47.84242" lon="-3.53386">
        <ele>19.61</ele>
        <time>2020-07-08T11:26:46Z</time>
      </trkpt>
      <trkpt lat="47.8424" lon="-3.53388">
        <ele>20.19</ele>
        <time>2020-07-08T11:26:47Z</time>
      </trkpt>
      <trkpt lat="47.84239" lon="-3.53391">
        <ele>20.6</ele>
        <time>2020-07-08T11:26:48Z</time>
      </trkpt>
      <trkpt lat="47.84236" lon="-3.53395">
        <ele>20.88</ele>
        <time>2020-07-08T11:26:49Z</time>
      </trkpt>
      <trkpt lat="47.84234" lon="-3.53398">
        <ele>21.23</ele>
        <time>2020-07-08T11:26:50Z</time>
      </trkpt>
      <trkpt lat="47.84231" lon="-3.53402">
        <ele>21.54</ele>
        <time>2020-07-08T11:26:51Z</time>
      </trkpt>
      <trkpt lat="47.84229" lon="-3.53405">
        <ele>21.72</ele>
        <time>2020-07-08T11:26:52Z</time>
      </trkpt>
      <trkpt lat="47.84226" lon="-3.53408">
        <ele>21.88</ele>
        <time>2020-07-08T11:26:53Z</time>
      </trkpt>
      <trkpt lat="47.84224" lon="-3.5341">
        <ele>21.92</ele>
        <time>2020-07-08T11:26:54Z</time>
      </trkpt>
      <trkpt lat="47.84222" lon="-3.53412">
        <ele>22.08</ele>
        <time>2020-07-08T11:26:55Z</time>
      </trkpt>
      <trkpt lat="47.8422" lon="-3.53414">
        <ele>22.13</ele>
        <time>2020-07-08T11:26:56Z</time>
      </trkpt>
      <trkpt lat="47.84218" lon="-3.53417">
        <ele>22.18</ele>
        <time>2020-07-08T11:26:57Z</time>
      </trkpt>
      <trkpt lat="47.84215" lon="-3.53419">
        <ele>22.09</ele>
        <time>2020-07-08T11:26:58Z</time>
      </trkpt>
      <trkpt lat="47.84213" lon="-3.53424">
        <ele>22.22</ele>
        <time>2020-07-08T11:26:59Z</time>
      </trkpt>
      <trkpt lat="47.8421" lon="-3.53427">
        <ele>22.22</ele>
        <time>2020-07-08T11:27:00Z</time>
      </trkpt>
      <trkpt lat="47.84207" lon="-3.53429">
        <ele>22.17</ele>
        <time>2020-07-08T11:27:01Z</time>
      </trkpt>
      <trkpt lat="47.84204" lon="-3.53432">
        <ele>22.09</ele>
        <time>2020-07-08T11:27:02Z</time>
      </trkpt>
      <trkpt lat="47.84201" lon="-3.53434">
        <ele>22.05</ele>
        <time>2020-07-08T11:27:03Z</time>
      </trkpt>
      <trkpt lat="47.84199" lon="-3.53438">
        <ele>22.26</ele>
        <time>2020-07-08T11:27:04Z</time>
      </trkpt>
      <trkpt lat="47.84197" lon="-3.5344">
        <ele>22.38</ele>
        <time>2020-07-08T11:27:05Z</time>
      </trkpt>
      <trkpt lat="47.84195" lon="-3.53441">
        <ele>22.43</ele>
        <time>2020-07-08T11:27:06Z</time>
      </trkpt>
      <trkpt lat="47.84192" lon="-3.53443">
        <ele>22.53</ele>
        <time>2020-07-08T11:27:07Z</time>
      </trkpt>
      <trkpt lat="47.84189" lon="-3.53445">
        <ele>22.72</ele>
        <time>2020-07-08T11:27:08Z</time>
      </trkpt>
      <trkpt lat="47.84186" lon="-3.53448">
        <ele>23.03</ele>
        <time>2020-07-08T11:27:09Z</time>
      </trkpt>
      <trkpt lat="47.84183" lon="-3.53449">
        <ele>23.17</ele>
        <time>2020-07-08T11:27:10Z</time>
      </trkpt>
      <trkpt lat="47.84179" lon="-3.5345">
        <ele>23.26</ele>
        <time>2020-07-08T11:27:11Z</time>
      </trkpt>
      <trkpt lat="47.84176" lon="-3.53451">
        <ele>23.17</ele>
        <time>2020-07-08T11:27:12Z</time>
      </trkpt>
      <trkpt lat="47.84172" lon="-3.53451">
        <ele>22.97</ele>
        <time>2020-07-08T11:27:13Z</time>
      </trkpt>
      <trkpt lat="47.84168" lon="-3.53451">
        <ele>22.79</ele>
        <time>2020-07-08T11:27:14Z</time>
      </trkpt>
      <trkpt lat="47.84165" lon="-3.53451">
        <ele>22.66</ele>
        <time>2020-07-08T11:27:15Z</time>
      </trkpt>
      <trkpt lat="47.84162" lon="-3.53451">
        <ele>22.77</ele>
        <time>2020-07-08T11:27:16Z</time>
      </trkpt>
      <trkpt lat="47.84159" lon="-3.53451">
        <ele>22.86</ele>
        <time>2020-07-08T11:27:17Z</time>
      </trkpt>
      <trkpt lat="47.84156" lon="-3.53451">
        <ele>23.01</ele>
        <time>2020-07-08T11:27:18Z</time>
      </trkpt>
      <trkpt lat="47.84152" lon="-3.53451">
        <ele>23.12</ele>
        <time>2020-07-08T11:27:19Z</time>
      </trkpt>
      <trkpt lat="47.84149" lon="-3.53451">
        <ele>23.2</ele>
        <time>2020-07-08T11:27:20Z</time>
      </trkpt>
      <trkpt lat="47.84146" lon="-3.53451">
        <ele>23.25</ele>
        <time>2020-07-08T11:27:21Z</time>
      </trkpt>
      <trkpt lat="47.84143" lon="-3.53451">
        <ele>23.27</ele>
        <time>2020-07-08T11:27:22Z</time>
      </trkpt>
      <trkpt lat="47.84139" lon="-3.53451">
        <ele>23.37</ele>
        <time>2020-07-08T11:27:23Z</time>
      </trkpt>
      <trkpt lat="47.84136" lon="-3.53451">
        <ele>22.83</ele>
        <time>2020-07-08T11:27:24Z</time>
      </trkpt>
      <trkpt lat="47.84132" lon="-3.53451">
        <ele>22.03</ele>
        <time>2020-07-08T11:27:25Z</time>
      </trkpt>
      <trkpt lat="47.84128" lon="-3.53452">
        <ele>21.24</ele>
        <time>2020-07-08T11:27:26Z</time>
      </trkpt>
      <trkpt lat="47.84125" lon="-3.53452">
        <ele>20.37</ele>
        <time>2020-07-08T11:27:27Z</time>
      </trkpt>
      <trkpt lat="47.84122" lon="-3.53452">
        <ele>19.47</ele>
        <time>2020-07-08T11:27:28Z</time>
      </trkpt>
      <trkpt lat="47.84118" lon="-3.53451">
        <ele>18.32</ele>
        <time>2020-07-08T11:27:29Z</time>
      </trkpt>
      <trkpt lat="47.84114" lon="-3.5345">
        <ele>16.92</ele>
        <time>2020-07-08T11:27:30Z</time>
      </trkpt>
      <trkpt lat="47.8411" lon="-3.53449">
        <ele>15.79</ele>
        <time>2020-07-08T11:27:31Z</time>
      </trkpt>
      <trkpt lat="47.84106" lon="-3.53451">
        <ele>15.3</ele>
        <time>2020-07-08T11:27:32Z</time>
      </trkpt>
      <trkpt lat="47.84102" lon="-3.53455">
        <ele>15.25</ele>
        <time>2020-07-08T11:27:33Z</time>
      </trkpt>
      <trkpt lat="47.84098" lon="-3.5346">
        <ele>15.86</ele>
        <time>2020-07-08T11:27:34Z</time>
      </trkpt>
      <trkpt lat="47.84095" lon="-3.53467">
        <ele>17.12</ele>
        <time>2020-07-08T11:27:35Z</time>
      </trkpt>
      <trkpt lat="47.84092" lon="-3.53474">
        <ele>18.49</ele>
        <time>2020-07-08T11:27:36Z</time>
      </trkpt>
      <trkpt lat="47.84088" lon="-3.53482">
        <ele>19.24</ele>
        <time>2020-07-08T11:27:37Z</time>
      </trkpt>
      <trkpt lat="47.84083" lon="-3.53489">
        <ele>19.85</ele>
        <time>2020-07-08T11:27:38Z</time>
      </trkpt>
      <trkpt lat="47.84079" lon="-3.53497">
        <ele>19.81</ele>
        <time>2020-07-08T11:27:39Z</time>
      </trkpt>
      <trkpt lat="47.84074" lon="-3.53505">
        <ele>19.35</ele>
        <time>2020-07-08T11:27:40Z</time>
      </trkpt>
      <trkpt lat="47.84069" lon="-3.53512">
        <ele>18.69</ele>
        <time>2020-07-08T11:27:41Z</time>
      </trkpt>
      <trkpt lat="47.84063" lon="-3.53518">
        <ele>18.02</ele>
        <time>2020-07-08T11:27:42Z</time>
      </trkpt>
      <trkpt lat="47.84058" lon="-3.53522">
        <ele>17.52</ele>
        <time>2020-07-08T11:27:43Z</time>
      </trkpt>
      <trkpt lat="47.84051" lon="-3.53527">
        <ele>17.22</ele>
        <time>2020-07-08T11:27:44Z</time>
      </trkpt>
      <trkpt lat="47.84044" lon="-3.53531">
        <ele>16.55</ele>
        <time>2020-07-08T11:27:45Z</time>
      </trkpt>
      <trkpt lat="47.84036" lon="-3.53535">
        <ele>15.69</ele>
        <time>2020-07-08T11:27:46Z</time>
      </trkpt>
      <trkpt lat="47.84027" lon="-3.53539">
        <ele>14.85</ele>
        <time>2020-07-08T11:27:47Z</time>
      </trkpt>
      <trkpt lat="47.84019" lon="-3.53543">
        <ele>13.2</ele>
        <time>2020-07-08T11:27:48Z</time>
      </trkpt>
      <trkpt lat="47.84011" lon="-3.53548">
        <ele>11.75</ele>
        <time>2020-07-08T11:27:49Z</time>
      </trkpt>
      <trkpt lat="47.84005" lon="-3.53553">
        <ele>10.78</ele>
        <time>2020-07-08T11:27:50Z</time>
      </trkpt>
      <trkpt lat="47.83999" lon="-3.53558">
        <ele>10.32</ele>
        <time>2020-07-08T11:27:51Z</time>
      </trkpt>
      <trkpt lat="47.83993" lon="-3.53565">
        <ele>10.04</ele>
        <time>2020-07-08T11:27:52Z</time>
      </trkpt>
      <trkpt lat="47.83989" lon="-3.53573">
        <ele>10.18</ele>
        <time>2020-07-08T11:27:53Z</time>
      </trkpt>
      <trkpt lat="47.83984" lon="-3.53581">
        <ele>10.29</ele>
        <time>2020-07-08T11:27:54Z</time>
      </trkpt>
      <trkpt lat="47.8398" lon="-3.5359">
        <ele>9.87</ele>
        <time>2020-07-08T11:27:55Z</time>
      </trkpt>
      <trkpt lat="47.83976" lon="-3.53599">
        <ele>9.33</ele>
        <time>2020-07-08T11:27:56Z</time>
      </trkpt>
      <trkpt lat="47.83973" lon="-3.53607">
        <ele>8.88</ele>
        <time>2020-07-08T11:27:57Z</time>
      </trkpt>
      <trkpt lat="47.8397" lon="-3.53617">
        <ele>8.63</ele>
        <time>2020-07-08T11:27:58Z</time>
      </trkpt>
      <trkpt lat="47.83968" lon="-3.53626">
        <ele>8.5</ele>
        <time>2020-07-08T11:27:59Z</time>
      </trkpt>
      <trkpt lat="47.83968" lon="-3.53636">
        <ele>8.66</ele>
        <time>2020-07-08T11:28:00Z</time>
      </trkpt>
      <trkpt lat="47.83968" lon="-3.53645">
        <ele>8.68</ele>
        <time>2020-07-08T11:28:01Z</time>
      </trkpt>
      <trkpt lat="47.83968" lon="-3.53653">
        <ele>8.5</ele>
        <time>2020-07-08T11:28:02Z</time>
      </trkpt>
      <trkpt lat="47.83968" lon="-3.53662">
        <ele>8.21</ele>
        <time>2020-07-08T11:28:03Z</time>
      </trkpt>
      <trkpt lat="47.83966" lon="-3.53669">
        <ele>7.61</ele>
        <time>2020-07-08T11:28:04Z</time>
      </trkpt>
      <trkpt lat="47.83962" lon="-3.53672">
        <ele>6.94</ele>
        <time>2020-07-08T11:28:05Z</time>
      </trkpt>
      <trkpt lat="47.83958" lon="-3.53676">
        <ele>6.26</ele>
        <time>2020-07-08T11:28:06Z</time>
      </trkpt>
      <trkpt lat="47.83953" lon="-3.53678">
        <ele>5.44</ele>
        <time>2020-07-08T11:28:07Z</time>
      </trkpt>
      <trkpt lat="47.83949" lon="-3.53681">
        <ele>4.72</ele>
        <time>2020-07-08T11:28:08Z</time>
      </trkpt>
      <trkpt lat="47.83943" lon="-3.53684">
        <ele>4.05</ele>
        <time>2020-07-08T11:28:09Z</time>
      </trkpt>
      <trkpt lat="47.83938" lon="-3.53687">
        <ele>3.84</ele>
        <time>2020-07-08T11:28:10Z</time>
      </trkpt>
      <trkpt lat="47.83933" lon="-3.53689">
        <ele>3.73</ele>
        <time>2020-07-08T11:28:11Z</time>
      </trkpt>
      <trkpt lat="47.83927" lon="-3.53693">
        <ele>3.64</ele>
        <time>2020-07-08T11:28:12Z</time>
      </trkpt>
      <trkpt lat="47.83922" lon="-3.53696">
        <ele>3.63</ele>
        <time>2020-07-08T11:28:13Z</time>
      </trkpt>
      <trkpt lat="47.83917" lon="-3.537">
        <ele>3.64</ele>
        <time>2020-07-08T11:28:14Z</time>
      </trkpt>
      <trkpt lat="47.83912" lon="-3.53705">
        <ele>3.74</ele>
        <time>2020-07-08T11:28:15Z</time>
      </trkpt>
      <trkpt lat="47.83907" lon="-3.53709">
        <ele>3.83</ele>
        <time>2020-07-08T11:28:16Z</time>
      </trkpt>
      <trkpt lat="47.83902" lon="-3.53713">
        <ele>3.81</ele>
        <time>2020-07-08T11:28:17Z</time>
      </trkpt>
      <trkpt lat="47.83896" lon="-3.53721">
        <ele>3.7</ele>
        <time>2020-07-08T11:28:18Z</time>
      </trkpt>
      <trkpt lat="47.8389" lon="-3.53727">
        <ele>3.56</ele>
        <time>2020-07-08T11:28:19Z</time>
      </trkpt>
      <trkpt lat="47.83886" lon="-3.53733">
        <ele>3.61</ele>
        <time>2020-07-08T11:28:20Z</time>
      </trkpt>
      <trkpt lat="47.83881" lon="-3.53738">
        <ele>3.67</ele>
        <time>2020-07-08T11:28:21Z</time>
      </trkpt>
      <trkpt lat="47.83877" lon="-3.53743">
        <ele>3.72</ele>
        <time>2020-07-08T11:28:22Z</time>
      </trkpt>
      <trkpt lat="47.83873" lon="-3.53747">
        <ele>3.73</ele>
        <time>2020-07-08T11:28:23Z</time>
      </trkpt>
      <trkpt lat="47.83869" lon="-3.53753">
        <ele>3.78</ele>
        <time>2020-07-08T11:28:24Z</time>
      </trkpt>
      <trkpt lat="47.83864" lon="-3.53759">
        <ele>3.89</ele>
        <time>2020-07-08T11:28:25Z</time>
      </trkpt>
      <trkpt lat="47.8386" lon="-3.53765">
        <ele>4</ele>
        <time>2020-07-08T11:28:26Z</time>
      </trkpt>
      <trkpt lat="47.83857" lon="-3.53771">
        <ele>4.17</ele>
        <time>2020-07-08T11:28:27Z</time>
      </trkpt>
      <trkpt lat="47.83854" lon="-3.53776">
        <ele>4.31</ele>
        <time>2020-07-08T11:28:28Z</time>
      </trkpt>
      <trkpt lat="47.8385" lon="-3.53783">
        <ele>4.64</ele>
        <time>2020-07-08T11:28:29Z</time>
      </trkpt>
      <trkpt lat="47.83846" lon="-3.5379">
        <ele>4.86</ele>
        <time>2020-07-08T11:28:30Z</time>
      </trkpt>
      <trkpt lat="47.83842" lon="-3.53798">
        <ele>4.79</ele>
        <time>2020-07-08T11:28:31Z</time>
      </trkpt>
      <trkpt lat="47.83839" lon="-3.53805">
        <ele>4.51</ele>
        <time>2020-07-08T11:28:32Z</time>
      </trkpt>
      <trkpt lat="47.83837" lon="-3.53812">
        <ele>4.18</ele>
        <time>2020-07-08T11:28:33Z</time>
      </trkpt>
      <trkpt lat="47.83835" lon="-3.5382">
        <ele>3.8</ele>
        <time>2020-07-08T11:28:34Z</time>
      </trkpt>
      <trkpt lat="47.83833" lon="-3.53827">
        <ele>3.24</ele>
        <time>2020-07-08T11:28:35Z</time>
      </trkpt>
      <trkpt lat="47.83831" lon="-3.53835">
        <ele>3.11</ele>
        <time>2020-07-08T11:28:36Z</time>
      </trkpt>
      <trkpt lat="47.8383" lon="-3.53842">
        <ele>3.24</ele>
        <time>2020-07-08T11:28:37Z</time>
      </trkpt>
      <trkpt lat="47.83828" lon="-3.53847">
        <ele>3.43</ele>
        <time>2020-07-08T11:28:38Z</time>
      </trkpt>
      <trkpt lat="47.83827" lon="-3.53854">
        <ele>3.65</ele>
        <time>2020-07-08T11:28:39Z</time>
      </trkpt>
      <trkpt lat="47.83825" lon="-3.53861">
        <ele>3.89</ele>
        <time>2020-07-08T11:28:40Z</time>
      </trkpt>
      <trkpt lat="47.83824" lon="-3.53866">
        <ele>4.05</ele>
        <time>2020-07-08T11:28:41Z</time>
      </trkpt>
      <trkpt lat="47.83823" lon="-3.53872">
        <ele>4.18</ele>
        <time>2020-07-08T11:28:42Z</time>
      </trkpt>
      <trkpt lat="47.83822" lon="-3.53876">
        <ele>4.28</ele>
        <time>2020-07-08T11:28:43Z</time>
      </trkpt>
      <trkpt lat="47.83821" lon="-3.53881">
        <ele>4.36</ele>
        <time>2020-07-08T11:28:44Z</time>
      </trkpt>
      <trkpt lat="47.83821" lon="-3.53886">
        <ele>4.44</ele>
        <time>2020-07-08T11:28:45Z</time>
      </trkpt>
      <trkpt lat="47.83819" lon="-3.53891">
        <ele>4.56</ele>
        <time>2020-07-08T11:28:46Z</time>
      </trkpt>
      <trkpt lat="47.83819" lon="-3.53897">
        <ele>4.83</ele>
        <time>2020-07-08T11:28:47Z</time>
      </trkpt>
      <trkpt lat="47.83819" lon="-3.53904">
        <ele>5.16</ele>
        <time>2020-07-08T11:28:48Z</time>
      </trkpt>
      <trkpt lat="47.83818" lon="-3.5391">
        <ele>5.38</ele>
        <time>2020-07-08T11:28:49Z</time>
      </trkpt>
      <trkpt lat="47.83816" lon="-3.53916">
        <ele>5.49</ele>
        <time>2020-07-08T11:28:50Z</time>
      </trkpt>
      <trkpt lat="47.83814" lon="-3.53919">
        <ele>5.41</ele>
        <time>2020-07-08T11:28:51Z</time>
      </trkpt>
      <trkpt lat="47.83811" lon="-3.53919">
        <ele>5.09</ele>
        <time>2020-07-08T11:28:52Z</time>
      </trkpt>
      <trkpt lat="47.83808" lon="-3.53917">
        <ele>4.59</ele>
        <time>2020-07-08T11:28:53Z</time>
      </trkpt>
      <trkpt lat="47.83805" lon="-3.53914">
        <ele>4.15</ele>
        <time>2020-07-08T11:28:54Z</time>
      </trkpt>
      <trkpt lat="47.83801" lon="-3.53911">
        <ele>3.89</ele>
        <time>2020-07-08T11:28:55Z</time>
      </trkpt>
      <trkpt lat="47.83796" lon="-3.5391">
        <ele>3.68</ele>
        <time>2020-07-08T11:28:56Z</time>
      </trkpt>
      <trkpt lat="47.83791" lon="-3.53909">
        <ele>3.44</ele>
        <time>2020-07-08T11:28:57Z</time>
      </trkpt>
      <trkpt lat="47.83786" lon="-3.53909">
        <ele>3.2</ele>
        <time>2020-07-08T11:28:58Z</time>
      </trkpt>
      <trkpt lat="47.83781" lon="-3.5391">
        <ele>2.98</ele>
        <time>2020-07-08T11:28:59Z</time>
      </trkpt>
      <trkpt lat="47.83776" lon="-3.53911">
        <ele>2.86</ele>
        <time>2020-07-08T11:29:00Z</time>
      </trkpt>
      <trkpt lat="47.83771" lon="-3.53914">
        <ele>2.9</ele>
        <time>2020-07-08T11:29:01Z</time>
      </trkpt>
      <trkpt lat="47.83767" lon="-3.53918">
        <ele>2.99</ele>
        <time>2020-07-08T11:29:02Z</time>
      </trkpt>
      <trkpt lat="47.83763" lon="-3.53921">
        <ele>3.1</ele>
        <time>2020-07-08T11:29:03Z</time>
      </trkpt>
      <trkpt lat="47.83759" lon="-3.53924">
        <ele>3.21</ele>
        <time>2020-07-08T11:29:04Z</time>
      </trkpt>
      <trkpt lat="47.83755" lon="-3.53929">
        <ele>3.38</ele>
        <time>2020-07-08T11:29:05Z</time>
      </trkpt>
      <trkpt lat="47.83752" lon="-3.53935">
        <ele>3.57</ele>
        <time>2020-07-08T11:29:06Z</time>
      </trkpt>
      <trkpt lat="47.8375" lon="-3.53941">
        <ele>3.75</ele>
        <time>2020-07-08T11:29:07Z</time>
      </trkpt>
      <trkpt lat="47.83747" lon="-3.53946">
        <ele>3.85</ele>
        <time>2020-07-08T11:29:08Z</time>
      </trkpt>
      <trkpt lat="47.83746" lon="-3.53951">
        <ele>3.95</ele>
        <time>2020-07-08T11:29:09Z</time>
      </trkpt>
      <trkpt lat="47.83744" lon="-3.53956">
        <ele>4.11</ele>
        <time>2020-07-08T11:29:10Z</time>
      </trkpt>
      <trkpt lat="47.83743" lon="-3.53961">
        <ele>4.28</ele>
        <time>2020-07-08T11:29:11Z</time>
      </trkpt>
      <trkpt lat="47.83742" lon="-3.53964">
        <ele>4.46</ele>
        <time>2020-07-08T11:29:12Z</time>
      </trkpt>
      <trkpt lat="47.8374" lon="-3.53969">
        <ele>4.68</ele>
        <time>2020-07-08T11:29:13Z</time>
      </trkpt>
      <trkpt lat="47.83739" lon="-3.53972">
        <ele>4.88</ele>
        <time>2020-07-08T11:29:14Z</time>
      </trkpt>
      <trkpt lat="47.83737" lon="-3.53975">
        <ele>5.08</ele>
        <time>2020-07-08T11:29:15Z</time>
      </trkpt>
      <trkpt lat="47.83734" lon="-3.53977">
        <ele>5.27</ele>
        <time>2020-07-08T11:29:16Z</time>
      </trkpt>
      <trkpt lat="47.83733" lon="-3.53979">
        <ele>5.44</ele>
        <time>2020-07-08T11:29:17Z</time>
      </trkpt>
      <trkpt lat="47.8373" lon="-3.53979">
        <ele>5.55</ele>
        <time>2020-07-08T11:29:18Z</time>
      </trkpt>
      <trkpt lat="47.83727" lon="-3.5398">
        <ele>5.66</ele>
        <time>2020-07-08T11:29:19Z</time>
      </trkpt>
      <trkpt lat="47.83725" lon="-3.53982">
        <ele>5.85</ele>
        <time>2020-07-08T11:29:20Z</time>
      </trkpt>
      <trkpt lat="47.83722" lon="-3.53984">
        <ele>6.16</ele>
        <time>2020-07-08T11:29:21Z</time>
      </trkpt>
      <trkpt lat="47.83718" lon="-3.53986">
        <ele>6.28</ele>
        <time>2020-07-08T11:29:22Z</time>
      </trkpt>
      <trkpt lat="47.83715" lon="-3.53987">
        <ele>6.27</ele>
        <time>2020-07-08T11:29:23Z</time>
      </trkpt>
      <trkpt lat="47.83712" lon="-3.53988">
        <ele>6.21</ele>
        <time>2020-07-08T11:29:24Z</time>
      </trkpt>
      <trkpt lat="47.83709" lon="-3.53989">
        <ele>6.19</ele>
        <time>2020-07-08T11:29:25Z</time>
      </trkpt>
      <trkpt lat="47.83705" lon="-3.53989">
        <ele>6.13</ele>
        <time>2020-07-08T11:29:26Z</time>
      </trkpt>
      <trkpt lat="47.83701" lon="-3.53989">
        <ele>6.03</ele>
        <time>2020-07-08T11:29:27Z</time>
      </trkpt>
      <trkpt lat="47.83698" lon="-3.53989">
        <ele>5.9</ele>
        <time>2020-07-08T11:29:28Z</time>
      </trkpt>
      <trkpt lat="47.83694" lon="-3.5399">
        <ele>5.83</ele>
        <time>2020-07-08T11:29:29Z</time>
      </trkpt>
      <trkpt lat="47.8369" lon="-3.53992">
        <ele>5.82</ele>
        <time>2020-07-08T11:29:30Z</time>
      </trkpt>
      <trkpt lat="47.83687" lon="-3.53996">
        <ele>6.01</ele>
        <time>2020-07-08T11:29:31Z</time>
      </trkpt>
      <trkpt lat="47.83683" lon="-3.54">
        <ele>6.28</ele>
        <time>2020-07-08T11:29:32Z</time>
      </trkpt>
      <trkpt lat="47.8368" lon="-3.54003">
        <ele>6.2</ele>
        <time>2020-07-08T11:29:33Z</time>
      </trkpt>
      <trkpt lat="47.83676" lon="-3.54004">
        <ele>5.91</ele>
        <time>2020-07-08T11:29:34Z</time>
      </trkpt>
      <trkpt lat="47.83672" lon="-3.54005">
        <ele>5.66</ele>
        <time>2020-07-08T11:29:35Z</time>
      </trkpt>
      <trkpt lat="47.83668" lon="-3.54007">
        <ele>5.45</ele>
        <time>2020-07-08T11:29:36Z</time>
      </trkpt>
      <trkpt lat="47.83664" lon="-3.54008">
        <ele>5.15</ele>
        <time>2020-07-08T11:29:37Z</time>
      </trkpt>
      <trkpt lat="47.8366" lon="-3.54009">
        <ele>4.75</ele>
        <time>2020-07-08T11:29:38Z</time>
      </trkpt>
      <trkpt lat="47.83657" lon="-3.54009">
        <ele>4.27</ele>
        <time>2020-07-08T11:29:39Z</time>
      </trkpt>
      <trkpt lat="47.83652" lon="-3.5401">
        <ele>3.77</ele>
        <time>2020-07-08T11:29:40Z</time>
      </trkpt>
      <trkpt lat="47.83649" lon="-3.54011">
        <ele>3.27</ele>
        <time>2020-07-08T11:29:41Z</time>
      </trkpt>
      <trkpt lat="47.83644" lon="-3.54011">
        <ele>2.69</ele>
        <time>2020-07-08T11:29:42Z</time>
      </trkpt>
      <trkpt lat="47.83641" lon="-3.54012">
        <ele>2.25</ele>
        <time>2020-07-08T11:29:43Z</time>
      </trkpt>
      <trkpt lat="47.83636" lon="-3.54014">
        <ele>1.94</ele>
        <time>2020-07-08T11:29:44Z</time>
      </trkpt>
      <trkpt lat="47.83632" lon="-3.54016">
        <ele>1.86</ele>
        <time>2020-07-08T11:29:45Z</time>
      </trkpt>
      <trkpt lat="47.83627" lon="-3.54018">
        <ele>1.78</ele>
        <time>2020-07-08T11:29:46Z</time>
      </trkpt>
      <trkpt lat="47.83623" lon="-3.5402">
        <ele>1.69</ele>
        <time>2020-07-08T11:29:47Z</time>
      </trkpt>
      <trkpt lat="47.83618" lon="-3.54023">
        <ele>1.54</ele>
        <time>2020-07-08T11:29:48Z</time>
      </trkpt>
      <trkpt lat="47.83614" lon="-3.54025">
        <ele>1.28</ele>
        <time>2020-07-08T11:29:49Z</time>
      </trkpt>
      <trkpt lat="47.83609" lon="-3.54028">
        <ele>1.07</ele>
        <time>2020-07-08T11:29:50Z</time>
      </trkpt>
      <trkpt lat="47.83605" lon="-3.54031">
        <ele>1.21</ele>
        <time>2020-07-08T11:29:51Z</time>
      </trkpt>
      <trkpt lat="47.83601" lon="-3.54033">
        <ele>1.35</ele>
        <time>2020-07-08T11:29:52Z</time>
      </trkpt>
      <trkpt lat="47.83598" lon="-3.54035">
        <ele>1.47</ele>
        <time>2020-07-08T11:29:53Z</time>
      </trkpt>
      <trkpt lat="47.83594" lon="-3.54037">
        <ele>1.5</ele>
        <time>2020-07-08T11:29:54Z</time>
      </trkpt>
      <trkpt lat="47.8359" lon="-3.5404">
        <ele>1.47</ele>
        <time>2020-07-08T11:29:55Z</time>
      </trkpt>
      <trkpt lat="47.83585" lon="-3.54043">
        <ele>1.35</ele>
        <time>2020-07-08T11:29:56Z</time>
      </trkpt>
      <trkpt lat="47.83581" lon="-3.54045">
        <ele>1.21</ele>
        <time>2020-07-08T11:29:57Z</time>
      </trkpt>
      <trkpt lat="47.83577" lon="-3.54047">
        <ele>1.12</ele>
        <time>2020-07-08T11:29:58Z</time>
      </trkpt>
      <trkpt lat="47.83573" lon="-3.54048">
        <ele>0.97</ele>
        <time>2020-07-08T11:29:59Z</time>
      </trkpt>
      <trkpt lat="47.83568" lon="-3.5405">
        <ele>0.78</ele>
        <time>2020-07-08T11:30:00Z</time>
      </trkpt>
      <trkpt lat="47.83562" lon="-3.54053">
        <ele>0.51</ele>
        <time>2020-07-08T11:30:01Z</time>
      </trkpt>
      <trkpt lat="47.83556" lon="-3.54055">
        <ele>0.18</ele>
        <time>2020-07-08T11:30:02Z</time>
      </trkpt>
      <trkpt lat="47.83551" lon="-3.54057">
        <ele>0.44</ele>
        <time>2020-07-08T11:30:03Z</time>
      </trkpt>
      <trkpt lat="47.83546" lon="-3.54059">
        <ele>0.76</ele>
        <time>2020-07-08T11:30:04Z</time>
      </trkpt>
      <trkpt lat="47.8354" lon="-3.5406">
        <ele>1.19</ele>
        <time>2020-07-08T11:30:05Z</time>
      </trkpt>
      <trkpt lat="47.83536" lon="-3.54062">
        <ele>1.62</ele>
        <time>2020-07-08T11:30:06Z</time>
      </trkpt>
      <trkpt lat="47.83532" lon="-3.54063">
        <ele>1.99</ele>
        <time>2020-07-08T11:30:07Z</time>
      </trkpt>
      <trkpt lat="47.83528" lon="-3.54063">
        <ele>2.16</ele>
        <time>2020-07-08T11:30:08Z</time>
      </trkpt>
      <trkpt lat="47.83524" lon="-3.54064">
        <ele>2.39</ele>
        <time>2020-07-08T11:30:09Z</time>
      </trkpt>
      <trkpt lat="47.8352" lon="-3.54065">
        <ele>2.46</ele>
        <time>2020-07-08T11:30:10Z</time>
      </trkpt>
      <trkpt lat="47.83516" lon="-3.54065">
        <ele>2.47</ele>
        <time>2020-07-08T11:30:11Z</time>
      </trkpt>
      <trkpt lat="47.83512" lon="-3.54066">
        <ele>2.49</ele>
        <time>2020-07-08T11:30:12Z</time>
      </trkpt>
      <trkpt lat="47.83508" lon="-3.54066">
        <ele>2.53</ele>
        <time>2020-07-08T11:30:13Z</time>
      </trkpt>
      <trkpt lat="47.83503" lon="-3.54067">
        <ele>2.48</ele>
        <time>2020-07-08T11:30:14Z</time>
      </trkpt>
      <trkpt lat="47.835" lon="-3.54067">
        <ele>2.4</ele>
        <time>2020-07-08T11:30:15Z</time>
      </trkpt>
      <trkpt lat="47.83496" lon="-3.54066">
        <ele>2.26</ele>
        <time>2020-07-08T11:30:16Z</time>
      </trkpt>
      <trkpt lat="47.83492" lon="-3.54066">
        <ele>2.23</ele>
        <time>2020-07-08T11:30:17Z</time>
      </trkpt>
      <trkpt lat="47.83487" lon="-3.54066">
        <ele>2.17</ele>
        <time>2020-07-08T11:30:18Z</time>
      </trkpt>
      <trkpt lat="47.8348" lon="-3.54065">
        <ele>1.91</ele>
        <time>2020-07-08T11:30:19Z</time>
      </trkpt>
      <trkpt lat="47.83474" lon="-3.54064">
        <ele>1.6</ele>
        <time>2020-07-08T11:30:20Z</time>
      </trkpt>
      <trkpt lat="47.83468" lon="-3.54063">
        <ele>1.41</ele>
        <time>2020-07-08T11:30:21Z</time>
      </trkpt>
      <trkpt lat="47.83462" lon="-3.54063">
        <ele>1.25</ele>
        <time>2020-07-08T11:30:22Z</time>
      </trkpt>
      <trkpt lat="47.83457" lon="-3.54063">
        <ele>1.15</ele>
        <time>2020-07-08T11:30:23Z</time>
      </trkpt>
      <trkpt lat="47.83451" lon="-3.54062">
        <ele>1.07</ele>
        <time>2020-07-08T11:30:24Z</time>
      </trkpt>
      <trkpt lat="47.83447" lon="-3.54063">
        <ele>1.11</ele>
        <time>2020-07-08T11:30:25Z</time>
      </trkpt>
      <trkpt lat="47.83442" lon="-3.54065">
        <ele>1.28</ele>
        <time>2020-07-08T11:30:26Z</time>
      </trkpt>
      <trkpt lat="47.83438" lon="-3.54067">
        <ele>1.57</ele>
        <time>2020-07-08T11:30:27Z</time>
      </trkpt>
      <trkpt lat="47.83432" lon="-3.5407">
        <ele>1.89</ele>
        <time>2020-07-08T11:30:28Z</time>
      </trkpt>
      <trkpt lat="47.83427" lon="-3.54072">
        <ele>2.19</ele>
        <time>2020-07-08T11:30:29Z</time>
      </trkpt>
      <trkpt lat="47.83421" lon="-3.54074">
        <ele>2.48</ele>
        <time>2020-07-08T11:30:30Z</time>
      </trkpt>
      <trkpt lat="47.83416" lon="-3.54074">
        <ele>2.59</ele>
        <time>2020-07-08T11:30:31Z</time>
      </trkpt>
      <trkpt lat="47.83411" lon="-3.54076">
        <ele>2.73</ele>
        <time>2020-07-08T11:30:32Z</time>
      </trkpt>
      <trkpt lat="47.83405" lon="-3.54078">
        <ele>2.85</ele>
        <time>2020-07-08T11:30:33Z</time>
      </trkpt>
      <trkpt lat="47.83401" lon="-3.54079">
        <ele>2.85</ele>
        <time>2020-07-08T11:30:34Z</time>
      </trkpt>
      <trkpt lat="47.83396" lon="-3.54081">
        <ele>2.98</ele>
        <time>2020-07-08T11:30:35Z</time>
      </trkpt>
      <trkpt lat="47.83392" lon="-3.54084">
        <ele>3.12</ele>
        <time>2020-07-08T11:30:36Z</time>
      </trkpt>
      <trkpt lat="47.83387" lon="-3.54086">
        <ele>3.45</ele>
        <time>2020-07-08T11:30:37Z</time>
      </trkpt>
      <trkpt lat="47.83381" lon="-3.54088">
        <ele>3.51</ele>
        <time>2020-07-08T11:30:38Z</time>
      </trkpt>
      <trkpt lat="47.83376" lon="-3.54091">
        <ele>3.59</ele>
        <time>2020-07-08T11:30:39Z</time>
      </trkpt>
      <trkpt lat="47.83372" lon="-3.54093">
        <ele>3.59</ele>
        <time>2020-07-08T11:30:40Z</time>
      </trkpt>
      <trkpt lat="47.83366" lon="-3.54096">
        <ele>3.52</ele>
        <time>2020-07-08T11:30:41Z</time>
      </trkpt>
      <trkpt lat="47.83361" lon="-3.541">
        <ele>3.4</ele>
        <time>2020-07-08T11:30:42Z</time>
      </trkpt>
      <trkpt lat="47.83356" lon="-3.54102">
        <ele>3.49</ele>
        <time>2020-07-08T11:30:43Z</time>
      </trkpt>
      <trkpt lat="47.83351" lon="-3.54104">
        <ele>3.68</ele>
        <time>2020-07-08T11:30:44Z</time>
      </trkpt>
      <trkpt lat="47.83345" lon="-3.54108">
        <ele>3.91</ele>
        <time>2020-07-08T11:30:45Z</time>
      </trkpt>
      <trkpt lat="47.8334" lon="-3.5411">
        <ele>4.03</ele>
        <time>2020-07-08T11:30:46Z</time>
      </trkpt>
      <trkpt lat="47.83336" lon="-3.54111">
        <ele>4.07</ele>
        <time>2020-07-08T11:30:47Z</time>
      </trkpt>
      <trkpt lat="47.8333" lon="-3.54113">
        <ele>4.36</ele>
        <time>2020-07-08T11:30:48Z</time>
      </trkpt>
      <trkpt lat="47.83325" lon="-3.54115">
        <ele>4.53</ele>
        <time>2020-07-08T11:30:49Z</time>
      </trkpt>
      <trkpt lat="47.8332" lon="-3.54117">
        <ele>4.75</ele>
        <time>2020-07-08T11:30:50Z</time>
      </trkpt>
      <trkpt lat="47.83314" lon="-3.54118">
        <ele>4.89</ele>
        <time>2020-07-08T11:30:51Z</time>
      </trkpt>
      <trkpt lat="47.83309" lon="-3.5412">
        <ele>4.96</ele>
        <time>2020-07-08T11:30:52Z</time>
      </trkpt>
      <trkpt lat="47.83303" lon="-3.5412">
        <ele>4.91</ele>
        <time>2020-07-08T11:30:53Z</time>
      </trkpt>
      <trkpt lat="47.83298" lon="-3.54122">
        <ele>4.84</ele>
        <time>2020-07-08T11:30:54Z</time>
      </trkpt>
      <trkpt lat="47.83293" lon="-3.54123">
        <ele>4.79</ele>
        <time>2020-07-08T11:30:55Z</time>
      </trkpt>
      <trkpt lat="47.83287" lon="-3.54126">
        <ele>4.79</ele>
        <time>2020-07-08T11:30:56Z</time>
      </trkpt>
      <trkpt lat="47.83281" lon="-3.54128">
        <ele>4.75</ele>
        <time>2020-07-08T11:30:57Z</time>
      </trkpt>
      <trkpt lat="47.83276" lon="-3.5413">
        <ele>4.66</ele>
        <time>2020-07-08T11:30:58Z</time>
      </trkpt>
      <trkpt lat="47.83271" lon="-3.54133">
        <ele>4.54</ele>
        <time>2020-07-08T11:30:59Z</time>
      </trkpt>
      <trkpt lat="47.83266" lon="-3.54135">
        <ele>4.37</ele>
        <time>2020-07-08T11:31:00Z</time>
      </trkpt>
      <trkpt lat="47.83261" lon="-3.54137">
        <ele>4.14</ele>
        <time>2020-07-08T11:31:01Z</time>
      </trkpt>
      <trkpt lat="47.83256" lon="-3.54139">
        <ele>3.82</ele>
        <time>2020-07-08T11:31:02Z</time>
      </trkpt>
      <trkpt lat="47.83252" lon="-3.54141">
        <ele>3.74</ele>
        <time>2020-07-08T11:31:03Z</time>
      </trkpt>
      <trkpt lat="47.83246" lon="-3.54144">
        <ele>3.82</ele>
        <time>2020-07-08T11:31:04Z</time>
      </trkpt>
      <trkpt lat="47.83241" lon="-3.54146">
        <ele>3.98</ele>
        <time>2020-07-08T11:31:05Z</time>
      </trkpt>
      <trkpt lat="47.83237" lon="-3.54149">
        <ele>4.14</ele>
        <time>2020-07-08T11:31:06Z</time>
      </trkpt>
      <trkpt lat="47.83232" lon="-3.54152">
        <ele>4.22</ele>
        <time>2020-07-08T11:31:07Z</time>
      </trkpt>
      <trkpt lat="47.83228" lon="-3.54154">
        <ele>4.18</ele>
        <time>2020-07-08T11:31:08Z</time>
      </trkpt>
      <trkpt lat="47.83223" lon="-3.54155">
        <ele>3.97</ele>
        <time>2020-07-08T11:31:09Z</time>
      </trkpt>
      <trkpt lat="47.83219" lon="-3.54157">
        <ele>3.88</ele>
        <time>2020-07-08T11:31:10Z</time>
      </trkpt>
      <trkpt lat="47.83214" lon="-3.54159">
        <ele>3.84</ele>
        <time>2020-07-08T11:31:11Z</time>
      </trkpt>
      <trkpt lat="47.83209" lon="-3.54159">
        <ele>3.72</ele>
        <time>2020-07-08T11:31:12Z</time>
      </trkpt>
      <trkpt lat="47.83204" lon="-3.54159">
        <ele>3.54</ele>
        <time>2020-07-08T11:31:13Z</time>
      </trkpt>
      <trkpt lat="47.83199" lon="-3.54159">
        <ele>3.36</ele>
        <time>2020-07-08T11:31:14Z</time>
      </trkpt>
      <trkpt lat="47.83193" lon="-3.54159">
        <ele>3.25</ele>
        <time>2020-07-08T11:31:15Z</time>
      </trkpt>
      <trkpt lat="47.83188" lon="-3.5416">
        <ele>3.4</ele>
        <time>2020-07-08T11:31:16Z</time>
      </trkpt>
      <trkpt lat="47.83182" lon="-3.54161">
        <ele>3.67</ele>
        <time>2020-07-08T11:31:17Z</time>
      </trkpt>
      <trkpt lat="47.83176" lon="-3.54162">
        <ele>3.95</ele>
        <time>2020-07-08T11:31:18Z</time>
      </trkpt>
      <trkpt lat="47.8317" lon="-3.54163">
        <ele>4.22</ele>
        <time>2020-07-08T11:31:19Z</time>
      </trkpt>
      <trkpt lat="47.83165" lon="-3.54163">
        <ele>4.39</ele>
        <time>2020-07-08T11:31:20Z</time>
      </trkpt>
      <trkpt lat="47.83161" lon="-3.54164">
        <ele>4.42</ele>
        <time>2020-07-08T11:31:21Z</time>
      </trkpt>
      <trkpt lat="47.83156" lon="-3.54165">
        <ele>4.38</ele>
        <time>2020-07-08T11:31:22Z</time>
      </trkpt>
      <trkpt lat="47.83151" lon="-3.54166">
        <ele>4.39</ele>
        <time>2020-07-08T11:31:23Z</time>
      </trkpt>
      <trkpt lat="47.83146" lon="-3.54168">
        <ele>4.48</ele>
        <time>2020-07-08T11:31:24Z</time>
      </trkpt>
      <trkpt lat="47.83141" lon="-3.54169">
        <ele>4.52</ele>
        <time>2020-07-08T11:31:25Z</time>
      </trkpt>
      <trkpt lat="47.83135" lon="-3.5417">
        <ele>4.62</ele>
        <time>2020-07-08T11:31:26Z</time>
      </trkpt>
      <trkpt lat="47.83129" lon="-3.54171">
        <ele>4.8</ele>
        <time>2020-07-08T11:31:27Z</time>
      </trkpt>
      <trkpt lat="47.83124" lon="-3.54171">
        <ele>5.01</ele>
        <time>2020-07-08T11:31:28Z</time>
      </trkpt>
      <trkpt lat="47.83119" lon="-3.54173">
        <ele>5.32</ele>
        <time>2020-07-08T11:31:29Z</time>
      </trkpt>
      <trkpt lat="47.83115" lon="-3.54174">
        <ele>5.64</ele>
        <time>2020-07-08T11:31:30Z</time>
      </trkpt>
      <trkpt lat="47.8311" lon="-3.54175">
        <ele>5.93</ele>
        <time>2020-07-08T11:31:31Z</time>
      </trkpt>
      <trkpt lat="47.83105" lon="-3.54175">
        <ele>6.11</ele>
        <time>2020-07-08T11:31:32Z</time>
      </trkpt>
      <trkpt lat="47.83099" lon="-3.54175">
        <ele>6.19</ele>
        <time>2020-07-08T11:31:33Z</time>
      </trkpt>
      <trkpt lat="47.83093" lon="-3.54176">
        <ele>6.27</ele>
        <time>2020-07-08T11:31:34Z</time>
      </trkpt>
      <trkpt lat="47.83088" lon="-3.54176">
        <ele>6.33</ele>
        <time>2020-07-08T11:31:35Z</time>
      </trkpt>
      <trkpt lat="47.83083" lon="-3.54176">
        <ele>6.38</ele>
        <time>2020-07-08T11:31:36Z</time>
      </trkpt>
      <trkpt lat="47.83078" lon="-3.54176">
        <ele>6.5</ele>
        <time>2020-07-08T11:31:37Z</time>
      </trkpt>
      <trkpt lat="47.83073" lon="-3.54177">
        <ele>6.61</ele>
        <time>2020-07-08T11:31:38Z</time>
      </trkpt>
      <trkpt lat="47.8307" lon="-3.54176">
        <ele>6.61</ele>
        <time>2020-07-08T11:31:39Z</time>
      </trkpt>
      <trkpt lat="47.83067" lon="-3.54176">
        <ele>6.63</ele>
        <time>2020-07-08T11:31:40Z</time>
      </trkpt>
      <trkpt lat="47.83064" lon="-3.54177">
        <ele>6.73</ele>
        <time>2020-07-08T11:31:41Z</time>
      </trkpt>
      <trkpt lat="47.8306" lon="-3.54178">
        <ele>7.09</ele>
        <time>2020-07-08T11:31:42Z</time>
      </trkpt>
      <trkpt lat="47.83055" lon="-3.54179">
        <ele>7.41</ele>
        <time>2020-07-08T11:31:43Z</time>
      </trkpt>
      <trkpt lat="47.83051" lon="-3.54181">
        <ele>7.75</ele>
        <time>2020-07-08T11:31:44Z</time>
      </trkpt>
      <trkpt lat="47.83047" lon="-3.54182">
        <ele>8.07</ele>
        <time>2020-07-08T11:31:45Z</time>
      </trkpt>
      <trkpt lat="47.83043" lon="-3.54182">
        <ele>8.07</ele>
        <time>2020-07-08T11:31:46Z</time>
      </trkpt>
      <trkpt lat="47.83039" lon="-3.54182">
        <ele>8.14</ele>
        <time>2020-07-08T11:31:47Z</time>
      </trkpt>
      <trkpt lat="47.83034" lon="-3.54183">
        <ele>8.22</ele>
        <time>2020-07-08T11:31:48Z</time>
      </trkpt>
      <trkpt lat="47.8303" lon="-3.54183">
        <ele>8.24</ele>
        <time>2020-07-08T11:31:49Z</time>
      </trkpt>
      <trkpt lat="47.83025" lon="-3.54184">
        <ele>8.31</ele>
        <time>2020-07-08T11:31:50Z</time>
      </trkpt>
      <trkpt lat="47.83021" lon="-3.54184">
        <ele>8.43</ele>
        <time>2020-07-08T11:31:51Z</time>
      </trkpt>
      <trkpt lat="47.83016" lon="-3.54184">
        <ele>8.54</ele>
        <time>2020-07-08T11:31:52Z</time>
      </trkpt>
      <trkpt lat="47.83012" lon="-3.54184">
        <ele>8.64</ele>
        <time>2020-07-08T11:31:53Z</time>
      </trkpt>
      <trkpt lat="47.83008" lon="-3.54184">
        <ele>8.74</ele>
        <time>2020-07-08T11:31:54Z</time>
      </trkpt>
      <trkpt lat="47.83003" lon="-3.54184">
        <ele>8.86</ele>
        <time>2020-07-08T11:31:55Z</time>
      </trkpt>
      <trkpt lat="47.82999" lon="-3.54183">
        <ele>8.89</ele>
        <time>2020-07-08T11:31:56Z</time>
      </trkpt>
      <trkpt lat="47.82995" lon="-3.54183">
        <ele>8.91</ele>
        <time>2020-07-08T11:31:57Z</time>
      </trkpt>
      <trkpt lat="47.8299" lon="-3.54182">
        <ele>8.89</ele>
        <time>2020-07-08T11:31:58Z</time>
      </trkpt>
      <trkpt lat="47.82986" lon="-3.5418">
        <ele>8.75</ele>
        <time>2020-07-08T11:31:59Z</time>
      </trkpt>
      <trkpt lat="47.82982" lon="-3.5418">
        <ele>8.7</ele>
        <time>2020-07-08T11:32:00Z</time>
      </trkpt>
      <trkpt lat="47.82978" lon="-3.54179">
        <ele>8.7</ele>
        <time>2020-07-08T11:32:01Z</time>
      </trkpt>
      <trkpt lat="47.82974" lon="-3.54178">
        <ele>8.64</ele>
        <time>2020-07-08T11:32:02Z</time>
      </trkpt>
      <trkpt lat="47.82969" lon="-3.54176">
        <ele>8.41</ele>
        <time>2020-07-08T11:32:03Z</time>
      </trkpt>
      <trkpt lat="47.82964" lon="-3.54176">
        <ele>8.39</ele>
        <time>2020-07-08T11:32:04Z</time>
      </trkpt>
      <trkpt lat="47.82959" lon="-3.54176">
        <ele>8.6</ele>
        <time>2020-07-08T11:32:05Z</time>
      </trkpt>
      <trkpt lat="47.82955" lon="-3.54176">
        <ele>8.59</ele>
        <time>2020-07-08T11:32:06Z</time>
      </trkpt>
      <trkpt lat="47.82951" lon="-3.54176">
        <ele>8.69</ele>
        <time>2020-07-08T11:32:07Z</time>
      </trkpt>
      <trkpt lat="47.82947" lon="-3.54175">
        <ele>8.63</ele>
        <time>2020-07-08T11:32:08Z</time>
      </trkpt>
      <trkpt lat="47.82942" lon="-3.54175">
        <ele>8.6</ele>
        <time>2020-07-08T11:32:09Z</time>
      </trkpt>
      <trkpt lat="47.82938" lon="-3.54175">
        <ele>8.73</ele>
        <time>2020-07-08T11:32:10Z</time>
      </trkpt>
      <trkpt lat="47.82934" lon="-3.54174">
        <ele>8.9</ele>
        <time>2020-07-08T11:32:11Z</time>
      </trkpt>
      <trkpt lat="47.82929" lon="-3.54174">
        <ele>9.04</ele>
        <time>2020-07-08T11:32:12Z</time>
      </trkpt>
      <trkpt lat="47.82926" lon="-3.54173">
        <ele>8.95</ele>
        <time>2020-07-08T11:32:13Z</time>
      </trkpt>
      <trkpt lat="47.82923" lon="-3.54172">
        <ele>8.78</ele>
        <time>2020-07-08T11:32:14Z</time>
      </trkpt>
      <trkpt lat="47.82919" lon="-3.54169">
        <ele>8.19</ele>
        <time>2020-07-08T11:32:15Z</time>
      </trkpt>
      <trkpt lat="47.82915" lon="-3.54168">
        <ele>7.64</ele>
        <time>2020-07-08T11:32:16Z</time>
      </trkpt>
      <trkpt lat="47.8291" lon="-3.54166">
        <ele>7.01</ele>
        <time>2020-07-08T11:32:17Z</time>
      </trkpt>
      <trkpt lat="47.82906" lon="-3.54164">
        <ele>6.48</ele>
        <time>2020-07-08T11:32:18Z</time>
      </trkpt>
      <trkpt lat="47.82902" lon="-3.54162">
        <ele>6.11</ele>
        <time>2020-07-08T11:32:19Z</time>
      </trkpt>
      <trkpt lat="47.82897" lon="-3.54162">
        <ele>5.82</ele>
        <time>2020-07-08T11:32:20Z</time>
      </trkpt>
      <trkpt lat="47.82893" lon="-3.5416">
        <ele>5.5</ele>
        <time>2020-07-08T11:32:21Z</time>
      </trkpt>
      <trkpt lat="47.82887" lon="-3.5416">
        <ele>5.5</ele>
        <time>2020-07-08T11:32:22Z</time>
      </trkpt>
      <trkpt lat="47.82881" lon="-3.54158">
        <ele>5.59</ele>
        <time>2020-07-08T11:32:23Z</time>
      </trkpt>
      <trkpt lat="47.82876" lon="-3.54156">
        <ele>5.75</ele>
        <time>2020-07-08T11:32:24Z</time>
      </trkpt>
      <trkpt lat="47.82869" lon="-3.54155">
        <ele>5.8</ele>
        <time>2020-07-08T11:32:25Z</time>
      </trkpt>
      <trkpt lat="47.82864" lon="-3.54154">
        <ele>6.07</ele>
        <time>2020-07-08T11:32:26Z</time>
      </trkpt>
      <trkpt lat="47.82859" lon="-3.54153">
        <ele>6.29</ele>
        <time>2020-07-08T11:32:27Z</time>
      </trkpt>
      <trkpt lat="47.82853" lon="-3.54152">
        <ele>6.15</ele>
        <time>2020-07-08T11:32:28Z</time>
      </trkpt>
      <trkpt lat="47.82847" lon="-3.5415">
        <ele>5.87</ele>
        <time>2020-07-08T11:32:29Z</time>
      </trkpt>
      <trkpt lat="47.82842" lon="-3.54148">
        <ele>5.54</ele>
        <time>2020-07-08T11:32:30Z</time>
      </trkpt>
      <trkpt lat="47.82838" lon="-3.54146">
        <ele>5.15</ele>
        <time>2020-07-08T11:32:31Z</time>
      </trkpt>
      <trkpt lat="47.82833" lon="-3.54145">
        <ele>4.73</ele>
        <time>2020-07-08T11:32:32Z</time>
      </trkpt>
      <trkpt lat="47.82829" lon="-3.54143">
        <ele>4.68</ele>
        <time>2020-07-08T11:32:33Z</time>
      </trkpt>
      <trkpt lat="47.82825" lon="-3.54143">
        <ele>4.8</ele>
        <time>2020-07-08T11:32:34Z</time>
      </trkpt>
      <trkpt lat="47.82821" lon="-3.54141">
        <ele>4.78</ele>
        <time>2020-07-08T11:32:35Z</time>
      </trkpt>
      <trkpt lat="47.82816" lon="-3.54139">
        <ele>4.58</ele>
        <time>2020-07-08T11:32:36Z</time>
      </trkpt>
      <trkpt lat="47.82811" lon="-3.54138">
        <ele>4.88</ele>
        <time>2020-07-08T11:32:37Z</time>
      </trkpt>
      <trkpt lat="47.82807" lon="-3.54138">
        <ele>5.37</ele>
        <time>2020-07-08T11:32:38Z</time>
      </trkpt>
      <trkpt lat="47.82801" lon="-3.54136">
        <ele>5.55</ele>
        <time>2020-07-08T11:32:39Z</time>
      </trkpt>
      <trkpt lat="47.82797" lon="-3.54137">
        <ele>5.76</ele>
        <time>2020-07-08T11:32:40Z</time>
      </trkpt>
      <trkpt lat="47.82791" lon="-3.54136">
        <ele>5.85</ele>
        <time>2020-07-08T11:32:41Z</time>
      </trkpt>
      <trkpt lat="47.82786" lon="-3.54136">
        <ele>5.96</ele>
        <time>2020-07-08T11:32:42Z</time>
      </trkpt>
      <trkpt lat="47.82781" lon="-3.54136">
        <ele>6.17</ele>
        <time>2020-07-08T11:32:43Z</time>
      </trkpt>
      <trkpt lat="47.82776" lon="-3.54137">
        <ele>6.4</ele>
        <time>2020-07-08T11:32:44Z</time>
      </trkpt>
      <trkpt lat="47.82771" lon="-3.54137">
        <ele>6.4</ele>
        <time>2020-07-08T11:32:45Z</time>
      </trkpt>
      <trkpt lat="47.82766" lon="-3.54137">
        <ele>6.33</ele>
        <time>2020-07-08T11:32:46Z</time>
      </trkpt>
      <trkpt lat="47.8276" lon="-3.54137">
        <ele>6.17</ele>
        <time>2020-07-08T11:32:47Z</time>
      </trkpt>
      <trkpt lat="47.82755" lon="-3.54136">
        <ele>5.85</ele>
        <time>2020-07-08T11:32:48Z</time>
      </trkpt>
      <trkpt lat="47.82749" lon="-3.54136">
        <ele>5.57</ele>
        <time>2020-07-08T11:32:49Z</time>
      </trkpt>
      <trkpt lat="47.82744" lon="-3.54137">
        <ele>5.65</ele>
        <time>2020-07-08T11:32:50Z</time>
      </trkpt>
      <trkpt lat="47.82739" lon="-3.54137">
        <ele>5.72</ele>
        <time>2020-07-08T11:32:51Z</time>
      </trkpt>
      <trkpt lat="47.82733" lon="-3.54137">
        <ele>5.7</ele>
        <time>2020-07-08T11:32:52Z</time>
      </trkpt>
      <trkpt lat="47.82729" lon="-3.54136">
        <ele>5.63</ele>
        <time>2020-07-08T11:32:53Z</time>
      </trkpt>
      <trkpt lat="47.82724" lon="-3.54135">
        <ele>5.57</ele>
        <time>2020-07-08T11:32:54Z</time>
      </trkpt>
      <trkpt lat="47.82719" lon="-3.54134">
        <ele>5.57</ele>
        <time>2020-07-08T11:32:55Z</time>
      </trkpt>
      <trkpt lat="47.82715" lon="-3.54133">
        <ele>5.59</ele>
        <time>2020-07-08T11:32:56Z</time>
      </trkpt>
      <trkpt lat="47.8271" lon="-3.54129">
        <ele>5.47</ele>
        <time>2020-07-08T11:32:57Z</time>
      </trkpt>
      <trkpt lat="47.82706" lon="-3.54127">
        <ele>5.38</ele>
        <time>2020-07-08T11:32:58Z</time>
      </trkpt>
      <trkpt lat="47.82701" lon="-3.54127">
        <ele>5.46</ele>
        <time>2020-07-08T11:32:59Z</time>
      </trkpt>
      <trkpt lat="47.82695" lon="-3.54126">
        <ele>5.55</ele>
        <time>2020-07-08T11:33:00Z</time>
      </trkpt>
      <trkpt lat="47.8269" lon="-3.54127">
        <ele>5.9</ele>
        <time>2020-07-08T11:33:01Z</time>
      </trkpt>
      <trkpt lat="47.82685" lon="-3.54128">
        <ele>6.26</ele>
        <time>2020-07-08T11:33:02Z</time>
      </trkpt>
      <trkpt lat="47.8268" lon="-3.54128">
        <ele>6.61</ele>
        <time>2020-07-08T11:33:03Z</time>
      </trkpt>
      <trkpt lat="47.82675" lon="-3.54128">
        <ele>6.89</ele>
        <time>2020-07-08T11:33:04Z</time>
      </trkpt>
      <trkpt lat="47.82671" lon="-3.54128">
        <ele>7.17</ele>
        <time>2020-07-08T11:33:05Z</time>
      </trkpt>
      <trkpt lat="47.82667" lon="-3.54127">
        <ele>7.35</ele>
        <time>2020-07-08T11:33:06Z</time>
      </trkpt>
      <trkpt lat="47.82661" lon="-3.54124">
        <ele>7.22</ele>
        <time>2020-07-08T11:33:07Z</time>
      </trkpt>
      <trkpt lat="47.82656" lon="-3.54123">
        <ele>7.08</ele>
        <time>2020-07-08T11:33:08Z</time>
      </trkpt>
      <trkpt lat="47.8265" lon="-3.54122">
        <ele>7.2</ele>
        <time>2020-07-08T11:33:09Z</time>
      </trkpt>
      <trkpt lat="47.82645" lon="-3.54121">
        <ele>7.21</ele>
        <time>2020-07-08T11:33:10Z</time>
      </trkpt>
      <trkpt lat="47.8264" lon="-3.5412">
        <ele>7.21</ele>
        <time>2020-07-08T11:33:11Z</time>
      </trkpt>
      <trkpt lat="47.82636" lon="-3.5412">
        <ele>7.18</ele>
        <time>2020-07-08T11:33:12Z</time>
      </trkpt>
      <trkpt lat="47.82631" lon="-3.5412">
        <ele>7.03</ele>
        <time>2020-07-08T11:33:13Z</time>
      </trkpt>
      <trkpt lat="47.82626" lon="-3.54119">
        <ele>6.87</ele>
        <time>2020-07-08T11:33:14Z</time>
      </trkpt>
      <trkpt lat="47.82621" lon="-3.54122">
        <ele>7.07</ele>
        <time>2020-07-08T11:33:15Z</time>
      </trkpt>
      <trkpt lat="47.82617" lon="-3.54124">
        <ele>7.37</ele>
        <time>2020-07-08T11:33:16Z</time>
      </trkpt>
      <trkpt lat="47.82613" lon="-3.54127">
        <ele>7.76</ele>
        <time>2020-07-08T11:33:17Z</time>
      </trkpt>
      <trkpt lat="47.82608" lon="-3.54131">
        <ele>8.22</ele>
        <time>2020-07-08T11:33:18Z</time>
      </trkpt>
      <trkpt lat="47.82606" lon="-3.54135">
        <ele>8.77</ele>
        <time>2020-07-08T11:33:19Z</time>
      </trkpt>
      <trkpt lat="47.82603" lon="-3.5414">
        <ele>9.32</ele>
        <time>2020-07-08T11:33:20Z</time>
      </trkpt>
      <trkpt lat="47.826" lon="-3.54143">
        <ele>9.84</ele>
        <time>2020-07-08T11:33:21Z</time>
      </trkpt>
      <trkpt lat="47.82596" lon="-3.54146">
        <ele>10.12</ele>
        <time>2020-07-08T11:33:22Z</time>
      </trkpt>
      <trkpt lat="47.82592" lon="-3.54146">
        <ele>10.07</ele>
        <time>2020-07-08T11:33:23Z</time>
      </trkpt>
      <trkpt lat="47.82588" lon="-3.54145">
        <ele>9.67</ele>
        <time>2020-07-08T11:33:24Z</time>
      </trkpt>
      <trkpt lat="47.82585" lon="-3.54143">
        <ele>9.08</ele>
        <time>2020-07-08T11:33:25Z</time>
      </trkpt>
      <trkpt lat="47.82581" lon="-3.54141">
        <ele>8.63</ele>
        <time>2020-07-08T11:33:26Z</time>
      </trkpt>
      <trkpt lat="47.82578" lon="-3.54139">
        <ele>8.3</ele>
        <time>2020-07-08T11:33:27Z</time>
      </trkpt>
      <trkpt lat="47.82575" lon="-3.54137">
        <ele>8.12</ele>
        <time>2020-07-08T11:33:28Z</time>
      </trkpt>
      <trkpt lat="47.8257" lon="-3.54136">
        <ele>8.11</ele>
        <time>2020-07-08T11:33:29Z</time>
      </trkpt>
      <trkpt lat="47.82567" lon="-3.54135">
        <ele>8.09</ele>
        <time>2020-07-08T11:33:30Z</time>
      </trkpt>
      <trkpt lat="47.82562" lon="-3.54134">
        <ele>8.09</ele>
        <time>2020-07-08T11:33:31Z</time>
      </trkpt>
      <trkpt lat="47.82559" lon="-3.54134">
        <ele>8.15</ele>
        <time>2020-07-08T11:33:32Z</time>
      </trkpt>
      <trkpt lat="47.82555" lon="-3.54135">
        <ele>8.34</ele>
        <time>2020-07-08T11:33:33Z</time>
      </trkpt>
      <trkpt lat="47.82549" lon="-3.54135">
        <ele>8.65</ele>
        <time>2020-07-08T11:33:34Z</time>
      </trkpt>
      <trkpt lat="47.82545" lon="-3.54136">
        <ele>9.11</ele>
        <time>2020-07-08T11:33:35Z</time>
      </trkpt>
      <trkpt lat="47.8254" lon="-3.54137">
        <ele>9.53</ele>
        <time>2020-07-08T11:33:36Z</time>
      </trkpt>
      <trkpt lat="47.82536" lon="-3.54139">
        <ele>10.1</ele>
        <time>2020-07-08T11:33:37Z</time>
      </trkpt>
      <trkpt lat="47.82532" lon="-3.54139">
        <ele>10.61</ele>
        <time>2020-07-08T11:33:38Z</time>
      </trkpt>
      <trkpt lat="47.82527" lon="-3.54141">
        <ele>11.22</ele>
        <time>2020-07-08T11:33:39Z</time>
      </trkpt>
      <trkpt lat="47.82523" lon="-3.54142">
        <ele>11.19</ele>
        <time>2020-07-08T11:33:40Z</time>
      </trkpt>
      <trkpt lat="47.82519" lon="-3.54143">
        <ele>11.01</ele>
        <time>2020-07-08T11:33:41Z</time>
      </trkpt>
      <trkpt lat="47.82515" lon="-3.54144">
        <ele>10.8</ele>
        <time>2020-07-08T11:33:42Z</time>
      </trkpt>
      <trkpt lat="47.82512" lon="-3.54145">
        <ele>10.55</ele>
        <time>2020-07-08T11:33:43Z</time>
      </trkpt>
      <trkpt lat="47.82507" lon="-3.54145">
        <ele>10.13</ele>
        <time>2020-07-08T11:33:44Z</time>
      </trkpt>
      <trkpt lat="47.82503" lon="-3.54146">
        <ele>9.73</ele>
        <time>2020-07-08T11:33:45Z</time>
      </trkpt>
      <trkpt lat="47.82498" lon="-3.54146">
        <ele>9.3</ele>
        <time>2020-07-08T11:33:46Z</time>
      </trkpt>
      <trkpt lat="47.82493" lon="-3.54145">
        <ele>8.83</ele>
        <time>2020-07-08T11:33:47Z</time>
      </trkpt>
      <trkpt lat="47.82489" lon="-3.54145">
        <ele>8.45</ele>
        <time>2020-07-08T11:33:48Z</time>
      </trkpt>
      <trkpt lat="47.82485" lon="-3.54146">
        <ele>8.25</ele>
        <time>2020-07-08T11:33:49Z</time>
      </trkpt>
      <trkpt lat="47.8248" lon="-3.54147">
        <ele>8.11</ele>
        <time>2020-07-08T11:33:50Z</time>
      </trkpt>
      <trkpt lat="47.82476" lon="-3.54148">
        <ele>7.96</ele>
        <time>2020-07-08T11:33:51Z</time>
      </trkpt>
      <trkpt lat="47.8247" lon="-3.54149">
        <ele>7.81</ele>
        <time>2020-07-08T11:33:52Z</time>
      </trkpt>
      <trkpt lat="47.82465" lon="-3.54149">
        <ele>7.68</ele>
        <time>2020-07-08T11:33:53Z</time>
      </trkpt>
      <trkpt lat="47.82461" lon="-3.5415">
        <ele>7.68</ele>
        <time>2020-07-08T11:33:54Z</time>
      </trkpt>
      <trkpt lat="47.82456" lon="-3.5415">
        <ele>7.66</ele>
        <time>2020-07-08T11:33:55Z</time>
      </trkpt>
      <trkpt lat="47.82451" lon="-3.5415">
        <ele>7.63</ele>
        <time>2020-07-08T11:33:56Z</time>
      </trkpt>
      <trkpt lat="47.82448" lon="-3.54152">
        <ele>7.84</ele>
        <time>2020-07-08T11:33:57Z</time>
      </trkpt>
      <trkpt lat="47.82445" lon="-3.54154">
        <ele>8.14</ele>
        <time>2020-07-08T11:33:58Z</time>
      </trkpt>
      <trkpt lat="47.82441" lon="-3.54157">
        <ele>8.47</ele>
        <time>2020-07-08T11:33:59Z</time>
      </trkpt>
      <trkpt lat="47.82437" lon="-3.5416">
        <ele>8.87</ele>
        <time>2020-07-08T11:34:00Z</time>
      </trkpt>
      <trkpt lat="47.82434" lon="-3.54164">
        <ele>9.26</ele>
        <time>2020-07-08T11:34:01Z</time>
      </trkpt>
      <trkpt lat="47.82432" lon="-3.54167">
        <ele>9.56</ele>
        <time>2020-07-08T11:34:02Z</time>
      </trkpt>
      <trkpt lat="47.82429" lon="-3.5417">
        <ele>9.91</ele>
        <time>2020-07-08T11:34:03Z</time>
      </trkpt>
      <trkpt lat="47.82426" lon="-3.54174">
        <ele>10.28</ele>
        <time>2020-07-08T11:34:04Z</time>
      </trkpt>
      <trkpt lat="47.82424" lon="-3.54177">
        <ele>10.62</ele>
        <time>2020-07-08T11:34:05Z</time>
      </trkpt>
      <trkpt lat="47.82421" lon="-3.5418">
        <ele>10.89</ele>
        <time>2020-07-08T11:34:06Z</time>
      </trkpt>
      <trkpt lat="47.82419" lon="-3.54183">
        <ele>11.19</ele>
        <time>2020-07-08T11:34:07Z</time>
      </trkpt>
      <trkpt lat="47.82416" lon="-3.54188">
        <ele>11.52</ele>
        <time>2020-07-08T11:34:08Z</time>
      </trkpt>
      <trkpt lat="47.82414" lon="-3.54191">
        <ele>11.86</ele>
        <time>2020-07-08T11:34:09Z</time>
      </trkpt>
      <trkpt lat="47.8241" lon="-3.54196">
        <ele>12.17</ele>
        <time>2020-07-08T11:34:10Z</time>
      </trkpt>
      <trkpt lat="47.82408" lon="-3.54201">
        <ele>12.65</ele>
        <time>2020-07-08T11:34:11Z</time>
      </trkpt>
      <trkpt lat="47.82405" lon="-3.54206">
        <ele>13.16</ele>
        <time>2020-07-08T11:34:12Z</time>
      </trkpt>
      <trkpt lat="47.82402" lon="-3.5421">
        <ele>13.55</ele>
        <time>2020-07-08T11:34:13Z</time>
      </trkpt>
      <trkpt lat="47.82399" lon="-3.54214">
        <ele>13.92</ele>
        <time>2020-07-08T11:34:14Z</time>
      </trkpt>
      <trkpt lat="47.82397" lon="-3.54218">
        <ele>14.28</ele>
        <time>2020-07-08T11:34:15Z</time>
      </trkpt>
      <trkpt lat="47.82393" lon="-3.54223">
        <ele>14.56</ele>
        <time>2020-07-08T11:34:16Z</time>
      </trkpt>
      <trkpt lat="47.8239" lon="-3.54227">
        <ele>14.74</ele>
        <time>2020-07-08T11:34:17Z</time>
      </trkpt>
      <trkpt lat="47.82388" lon="-3.54232">
        <ele>15.15</ele>
        <time>2020-07-08T11:34:18Z</time>
      </trkpt>
      <trkpt lat="47.82385" lon="-3.54236">
        <ele>15.57</ele>
        <time>2020-07-08T11:34:19Z</time>
      </trkpt>
      <trkpt lat="47.82383" lon="-3.54241">
        <ele>16.05</ele>
        <time>2020-07-08T11:34:20Z</time>
      </trkpt>
      <trkpt lat="47.82381" lon="-3.54245">
        <ele>16.5</ele>
        <time>2020-07-08T11:34:21Z</time>
      </trkpt>
      <trkpt lat="47.82379" lon="-3.54248">
        <ele>16.85</ele>
        <time>2020-07-08T11:34:22Z</time>
      </trkpt>
      <trkpt lat="47.82377" lon="-3.54252">
        <ele>17.1</ele>
        <time>2020-07-08T11:34:23Z</time>
      </trkpt>
      <trkpt lat="47.82374" lon="-3.54257">
        <ele>17.22</ele>
        <time>2020-07-08T11:34:24Z</time>
      </trkpt>
      <trkpt lat="47.82372" lon="-3.54261">
        <ele>17.33</ele>
        <time>2020-07-08T11:34:25Z</time>
      </trkpt>
      <trkpt lat="47.82371" lon="-3.54264">
        <ele>17.48</ele>
        <time>2020-07-08T11:34:26Z</time>
      </trkpt>
      <trkpt lat="47.8237" lon="-3.54269">
        <ele>17.69</ele>
        <time>2020-07-08T11:34:27Z</time>
      </trkpt>
      <trkpt lat="47.8237" lon="-3.54273">
        <ele>17.94</ele>
        <time>2020-07-08T11:34:28Z</time>
      </trkpt>
      <trkpt lat="47.82371" lon="-3.54276">
        <ele>18.16</ele>
        <time>2020-07-08T11:34:29Z</time>
      </trkpt>
      <trkpt lat="47.82371" lon="-3.54279">
        <ele>18.29</ele>
        <time>2020-07-08T11:34:30Z</time>
      </trkpt>
      <trkpt lat="47.82371" lon="-3.5428">
        <ele>18.34</ele>
        <time>2020-07-08T11:34:31Z</time>
      </trkpt>
      <trkpt lat="47.82371" lon="-3.54281">
        <ele>18.36</ele>
        <time>2020-07-08T11:34:32Z</time>
      </trkpt>
      <trkpt lat="47.82371" lon="-3.54281">
        <ele>18.36</ele>
        <time>2020-07-08T11:34:33Z</time>
      </trkpt>
      <trkpt lat="47.82371" lon="-3.54281">
        <ele>18.36</ele>
        <time>2020-07-08T11:34:34Z</time>
      </trkpt>
      <trkpt lat="47.82371" lon="-3.54281">
        <ele>18.36</ele>
        <time>2020-07-08T11:34:35Z</time>
      </trkpt>
      <trkpt lat="47.82371" lon="-3.54281">
        <ele>18.36</ele>
        <time>2020-07-08T11:34:36Z</time>
      </trkpt>
      <trkpt lat="47.82371" lon="-3.54281">
        <ele>18.36</ele>
        <time>2020-07-08T11:34:37Z</time>
      </trkpt>
      <trkpt lat="47.82371" lon="-3.54281">
        <ele>18.36</ele>
        <time>2020-07-08T11:34:38Z</time>
      </trkpt>
      <trkpt lat="47.82371" lon="-3.54281">
        <ele>18.36</ele>
        <time>2020-07-08T11:34:39Z</time>
      </trkpt>
      <trkpt lat="47.82371" lon="-3.54281">
        <ele>18.36</ele>
        <time>2020-07-08T11:34:40Z</time>
      </trkpt>
      <trkpt lat="47.82371" lon="-3.54281">
        <ele>18.36</ele>
        <time>2020-07-08T11:34:41Z</time>
      </trkpt>
      <trkpt lat="47.82371" lon="-3.54281">
        <ele>18.36</ele>
        <time>2020-07-08T11:34:42Z</time>
      </trkpt>
      <trkpt lat="47.82371" lon="-3.54281">
        <ele>18.36</ele>
        <time>2020-07-08T11:34:43Z</time>
      </trkpt>
      <trkpt lat="47.82371" lon="-3.54281">
        <ele>18.36</ele>
        <time>2020-07-08T11:34:44Z</time>
      </trkpt>
      <trkpt lat="47.82371" lon="-3.54281">
        <ele>18.36</ele>
        <time>2020-07-08T11:34:45Z</time>
      </trkpt>
      <trkpt lat="47.82371" lon="-3.54281">
        <ele>18.36</ele>
        <time>2020-07-08T11:34:46Z</time>
      </trkpt>
      <trkpt lat="47.82371" lon="-3.54281">
        <ele>18.36</ele>
        <time>2020-07-08T11:34:47Z</time>
      </trkpt>
      <trkpt lat="47.82371" lon="-3.54281">
        <ele>18.36</ele>
        <time>2020-07-08T11:34:48Z</time>
      </trkpt>
      <trkpt lat="47.82371" lon="-3.54281">
        <ele>18.36</ele>
        <time>2020-07-08T11:34:49Z</time>
      </trkpt>
      <trkpt lat="47.82371" lon="-3.54281">
        <ele>18.36</ele>
        <time>2020-07-08T11:34:50Z</time>
      </trkpt>
      <trkpt lat="47.82371" lon="-3.54281">
        <ele>18.36</ele>
        <time>2020-07-08T11:34:51Z</time>
      </trkpt>
      <trkpt lat="47.82371" lon="-3.54281">
        <ele>18.36</ele>
        <time>2020-07-08T11:34:52Z</time>
      </trkpt>
      <trkpt lat="47.82371" lon="-3.54281">
        <ele>18.36</ele>
        <time>2020-07-08T11:34:53Z</time>
      </trkpt>
      <trkpt lat="47.82371" lon="-3.54281">
        <ele>18.36</ele>
        <time>2020-07-08T11:34:54Z</time>
      </trkpt>
      <trkpt lat="47.82371" lon="-3.54281">
        <ele>18.36</ele>
        <time>2020-07-08T11:34:55Z</time>
      </trkpt>
      <trkpt lat="47.82371" lon="-3.54281">
        <ele>18.36</ele>
        <time>2020-07-08T11:34:56Z</time>
      </trkpt>
      <trkpt lat="47.82371" lon="-3.54281">
        <ele>18.36</ele>
        <time>2020-07-08T11:34:57Z</time>
      </trkpt>
      <trkpt lat="47.82371" lon="-3.54281">
        <ele>18.36</ele>
        <time>2020-07-08T11:34:58Z</time>
      </trkpt>
      <trkpt lat="47.82371" lon="-3.54281">
        <ele>18.36</ele>
        <time>2020-07-08T11:34:59Z</time>
      </trkpt>
      <trkpt lat="47.82371" lon="-3.54281">
        <ele>18.36</ele>
        <time>2020-07-08T11:35:00Z</time>
      </trkpt>
      <trkpt lat="47.82371" lon="-3.54281">
        <ele>18.36</ele>
        <time>2020-07-08T11:35:01Z</time>
      </trkpt>
      <trkpt lat="47.82371" lon="-3.54281">
        <ele>18.36</ele>
        <time>2020-07-08T11:35:02Z</time>
      </trkpt>
      <trkpt lat="47.82371" lon="-3.54281">
        <ele>18.36</ele>
        <time>2020-07-08T11:35:03Z</time>
      </trkpt>
      <trkpt lat="47.82371" lon="-3.54281">
        <ele>18.36</ele>
        <time>2020-07-08T11:35:04Z</time>
      </trkpt>
      <trkpt lat="47.82371" lon="-3.54281">
        <ele>18.36</ele>
        <time>2020-07-08T11:35:05Z</time>
      </trkpt>
      <trkpt lat="47.82371" lon="-3.54281">
        <ele>18.36</ele>
        <time>2020-07-08T11:35:06Z</time>
      </trkpt>
      <trkpt lat="47.82371" lon="-3.54281">
        <ele>18.36</ele>
        <time>2020-07-08T11:35:07Z</time>
      </trkpt>
      <trkpt lat="47.82371" lon="-3.54281">
        <ele>18.36</ele>
        <time>2020-07-08T11:35:08Z</time>
      </trkpt>
      <trkpt lat="47.82371" lon="-3.54281">
        <ele>18.36</ele>
        <time>2020-07-08T11:35:09Z</time>
      </trkpt>
      <trkpt lat="47.82371" lon="-3.54281">
        <ele>18.36</ele>
        <time>2020-07-08T11:35:10Z</time>
      </trkpt>
      <trkpt lat="47.82371" lon="-3.54281">
        <ele>18.36</ele>
        <time>2020-07-08T11:35:11Z</time>
      </trkpt>
      <trkpt lat="47.82371" lon="-3.54281">
        <ele>18.36</ele>
        <time>2020-07-08T11:35:12Z</time>
      </trkpt>
      <trkpt lat="47.82371" lon="-3.54281">
        <ele>18.36</ele>
        <time>2020-07-08T11:35:13Z</time>
      </trkpt>
      <trkpt lat="47.82371" lon="-3.54281">
        <ele>18.36</ele>
        <time>2020-07-08T11:35:14Z</time>
      </trkpt>
      <trkpt lat="47.82371" lon="-3.54281">
        <ele>18.36</ele>
        <time>2020-07-08T11:35:15Z</time>
      </trkpt>
      <trkpt lat="47.82371" lon="-3.54281">
        <ele>18.36</ele>
        <time>2020-07-08T11:35:16Z</time>
      </trkpt>
      <trkpt lat="47.82366" lon="-3.54291">
        <ele>18.23</ele>
        <time>2020-07-08T11:35:17Z</time>
      </trkpt>
      <trkpt lat="47.82364" lon="-3.54294">
        <ele>18.15</ele>
        <time>2020-07-08T11:35:18Z</time>
      </trkpt>
      <trkpt lat="47.82364" lon="-3.54297">
        <ele>18.13</ele>
        <time>2020-07-08T11:35:19Z</time>
      </trkpt>
      <trkpt lat="47.82364" lon="-3.543">
        <ele>18.11</ele>
        <time>2020-07-08T11:35:20Z</time>
      </trkpt>
      <trkpt lat="47.82365" lon="-3.54303">
        <ele>18.13</ele>
        <time>2020-07-08T11:35:21Z</time>
      </trkpt>
      <trkpt lat="47.82365" lon="-3.54307">
        <ele>18.03</ele>
        <time>2020-07-08T11:35:22Z</time>
      </trkpt>
      <trkpt lat="47.82367" lon="-3.5431">
        <ele>17.52</ele>
        <time>2020-07-08T11:35:23Z</time>
      </trkpt>
      <trkpt lat="47.82368" lon="-3.54315">
        <ele>16.89</ele>
        <time>2020-07-08T11:35:24Z</time>
      </trkpt>
      <trkpt lat="47.82371" lon="-3.54319">
        <ele>16.46</ele>
        <time>2020-07-08T11:35:25Z</time>
      </trkpt>
      <trkpt lat="47.82372" lon="-3.54323">
        <ele>16.04</ele>
        <time>2020-07-08T11:35:26Z</time>
      </trkpt>
      <trkpt lat="47.82374" lon="-3.54329">
        <ele>15.6</ele>
        <time>2020-07-08T11:35:27Z</time>
      </trkpt>
      <trkpt lat="47.82377" lon="-3.54334">
        <ele>15.26</ele>
        <time>2020-07-08T11:35:28Z</time>
      </trkpt>
      <trkpt lat="47.82379" lon="-3.5434">
        <ele>14.88</ele>
        <time>2020-07-08T11:35:29Z</time>
      </trkpt>
      <trkpt lat="47.82381" lon="-3.54345">
        <ele>14.49</ele>
        <time>2020-07-08T11:35:30Z</time>
      </trkpt>
      <trkpt lat="47.82382" lon="-3.54349">
        <ele>14.22</ele>
        <time>2020-07-08T11:35:31Z</time>
      </trkpt>
      <trkpt lat="47.82383" lon="-3.54352">
        <ele>13.94</ele>
        <time>2020-07-08T11:35:32Z</time>
      </trkpt>
      <trkpt lat="47.82384" lon="-3.54355">
        <ele>13.75</ele>
        <time>2020-07-08T11:35:33Z</time>
      </trkpt>
      <trkpt lat="47.82385" lon="-3.54358">
        <ele>13.53</ele>
        <time>2020-07-08T11:35:34Z</time>
      </trkpt>
      <trkpt lat="47.82386" lon="-3.54362">
        <ele>13.26</ele>
        <time>2020-07-08T11:35:35Z</time>
      </trkpt>
      <trkpt lat="47.82386" lon="-3.54366">
        <ele>12.9</ele>
        <time>2020-07-08T11:35:36Z</time>
      </trkpt>
      <trkpt lat="47.82387" lon="-3.54371">
        <ele>12.48</ele>
        <time>2020-07-08T11:35:37Z</time>
      </trkpt>
      <trkpt lat="47.82386" lon="-3.54376">
        <ele>11.86</ele>
        <time>2020-07-08T11:35:38Z</time>
      </trkpt>
      <trkpt lat="47.82386" lon="-3.54382">
        <ele>11.27</ele>
        <time>2020-07-08T11:35:39Z</time>
      </trkpt>
      <trkpt lat="47.82386" lon="-3.54388">
        <ele>10.52</ele>
        <time>2020-07-08T11:35:40Z</time>
      </trkpt>
      <trkpt lat="47.82385" lon="-3.54394">
        <ele>10.12</ele>
        <time>2020-07-08T11:35:41Z</time>
      </trkpt>
      <trkpt lat="47.82385" lon="-3.544">
        <ele>9.84</ele>
        <time>2020-07-08T11:35:42Z</time>
      </trkpt>
      <trkpt lat="47.82384" lon="-3.54407">
        <ele>9.55</ele>
        <time>2020-07-08T11:35:43Z</time>
      </trkpt>
      <trkpt lat="47.82383" lon="-3.54413">
        <ele>9.29</ele>
        <time>2020-07-08T11:35:44Z</time>
      </trkpt>
      <trkpt lat="47.82383" lon="-3.5442">
        <ele>9.04</ele>
        <time>2020-07-08T11:35:45Z</time>
      </trkpt>
      <trkpt lat="47.82382" lon="-3.54428">
        <ele>8.77</ele>
        <time>2020-07-08T11:35:46Z</time>
      </trkpt>
      <trkpt lat="47.8238" lon="-3.54435">
        <ele>8.32</ele>
        <time>2020-07-08T11:35:47Z</time>
      </trkpt>
      <trkpt lat="47.8238" lon="-3.54443">
        <ele>8.18</ele>
        <time>2020-07-08T11:35:48Z</time>
      </trkpt>
      <trkpt lat="47.8238" lon="-3.54448">
        <ele>7.99</ele>
        <time>2020-07-08T11:35:49Z</time>
      </trkpt>
      <trkpt lat="47.82379" lon="-3.54455">
        <ele>7.72</ele>
        <time>2020-07-08T11:35:50Z</time>
      </trkpt>
      <trkpt lat="47.82377" lon="-3.5446">
        <ele>7.15</ele>
        <time>2020-07-08T11:35:51Z</time>
      </trkpt>
      <trkpt lat="47.82375" lon="-3.54467">
        <ele>6.5</ele>
        <time>2020-07-08T11:35:52Z</time>
      </trkpt>
      <trkpt lat="47.82374" lon="-3.54474">
        <ele>5.94</ele>
        <time>2020-07-08T11:35:53Z</time>
      </trkpt>
      <trkpt lat="47.82375" lon="-3.5448">
        <ele>5.74</ele>
        <time>2020-07-08T11:35:54Z</time>
      </trkpt>
      <trkpt lat="47.82377" lon="-3.54486">
        <ele>5.96</ele>
        <time>2020-07-08T11:35:55Z</time>
      </trkpt>
      <trkpt lat="47.82379" lon="-3.5449">
        <ele>6.47</ele>
        <time>2020-07-08T11:35:56Z</time>
      </trkpt>
      <trkpt lat="47.8238" lon="-3.54493">
        <ele>6.88</ele>
        <time>2020-07-08T11:35:57Z</time>
      </trkpt>
      <trkpt lat="47.8238" lon="-3.54496">
        <ele>7.02</ele>
        <time>2020-07-08T11:35:58Z</time>
      </trkpt>
      <trkpt lat="47.82381" lon="-3.54497">
        <ele>7.14</ele>
        <time>2020-07-08T11:35:59Z</time>
      </trkpt>
      <trkpt lat="47.8238" lon="-3.545">
        <ele>6.95</ele>
        <time>2020-07-08T11:36:00Z</time>
      </trkpt>
      <trkpt lat="47.8238" lon="-3.54504">
        <ele>6.93</ele>
        <time>2020-07-08T11:36:01Z</time>
      </trkpt>
      <trkpt lat="47.82381" lon="-3.54507">
        <ele>7.24</ele>
        <time>2020-07-08T11:36:02Z</time>
      </trkpt>
      <trkpt lat="47.82381" lon="-3.54512">
        <ele>7.43</ele>
        <time>2020-07-08T11:36:03Z</time>
      </trkpt>
      <trkpt lat="47.82379" lon="-3.54518">
        <ele>7.29</ele>
        <time>2020-07-08T11:36:04Z</time>
      </trkpt>
      <trkpt lat="47.82379" lon="-3.54523">
        <ele>7.3</ele>
        <time>2020-07-08T11:36:05Z</time>
      </trkpt>
      <trkpt lat="47.82378" lon="-3.54529">
        <ele>7.3</ele>
        <time>2020-07-08T11:36:06Z</time>
      </trkpt>
      <trkpt lat="47.82377" lon="-3.54534">
        <ele>7.27</ele>
        <time>2020-07-08T11:36:07Z</time>
      </trkpt>
      <trkpt lat="47.82376" lon="-3.5454">
        <ele>7.33</ele>
        <time>2020-07-08T11:36:08Z</time>
      </trkpt>
      <trkpt lat="47.82375" lon="-3.54546">
        <ele>7.46</ele>
        <time>2020-07-08T11:36:09Z</time>
      </trkpt>
      <trkpt lat="47.82374" lon="-3.54553">
        <ele>7.65</ele>
        <time>2020-07-08T11:36:10Z</time>
      </trkpt>
      <trkpt lat="47.82371" lon="-3.54561">
        <ele>7.57</ele>
        <time>2020-07-08T11:36:11Z</time>
      </trkpt>
      <trkpt lat="47.82372" lon="-3.54571">
        <ele>7.83</ele>
        <time>2020-07-08T11:36:12Z</time>
      </trkpt>
      <trkpt lat="47.82371" lon="-3.54574">
        <ele>7.87</ele>
        <time>2020-07-08T11:36:13Z</time>
      </trkpt>
      <trkpt lat="47.8237" lon="-3.54576">
        <ele>7.82</ele>
        <time>2020-07-08T11:36:14Z</time>
      </trkpt>
      <trkpt lat="47.82368" lon="-3.54579">
        <ele>7.68</ele>
        <time>2020-07-08T11:36:15Z</time>
      </trkpt>
      <trkpt lat="47.82366" lon="-3.54581">
        <ele>7.55</ele>
        <time>2020-07-08T11:36:16Z</time>
      </trkpt>
      <trkpt lat="47.82365" lon="-3.54583">
        <ele>7.42</ele>
        <time>2020-07-08T11:36:17Z</time>
      </trkpt>
      <trkpt lat="47.82363" lon="-3.54585">
        <ele>7.24</ele>
        <time>2020-07-08T11:36:18Z</time>
      </trkpt>
      <trkpt lat="47.82361" lon="-3.54586">
        <ele>7.1</ele>
        <time>2020-07-08T11:36:19Z</time>
      </trkpt>
      <trkpt lat="47.82359" lon="-3.54588">
        <ele>7.25</ele>
        <time>2020-07-08T11:36:20Z</time>
      </trkpt>
      <trkpt lat="47.82358" lon="-3.54588">
        <ele>7.45</ele>
        <time>2020-07-08T11:36:21Z</time>
      </trkpt>
      <trkpt lat="47.82357" lon="-3.54586">
        <ele>7.56</ele>
        <time>2020-07-08T11:36:22Z</time>
      </trkpt>
      <trkpt lat="47.82356" lon="-3.54583">
        <ele>7.68</ele>
        <time>2020-07-08T11:36:23Z</time>
      </trkpt>
      <trkpt lat="47.82355" lon="-3.5458">
        <ele>7.73</ele>
        <time>2020-07-08T11:36:24Z</time>
      </trkpt>
      <trkpt lat="47.82354" lon="-3.54575">
        <ele>7.73</ele>
        <time>2020-07-08T11:36:25Z</time>
      </trkpt>
      <trkpt lat="47.82354" lon="-3.54573">
        <ele>7.72</ele>
        <time>2020-07-08T11:36:26Z</time>
      </trkpt>
      <trkpt lat="47.82353" lon="-3.54571">
        <ele>7.69</ele>
        <time>2020-07-08T11:36:27Z</time>
      </trkpt>
      <trkpt lat="47.82352" lon="-3.54569">
        <ele>7.72</ele>
        <time>2020-07-08T11:36:28Z</time>
      </trkpt>
      <trkpt lat="47.82351" lon="-3.54567">
        <ele>7.78</ele>
        <time>2020-07-08T11:36:29Z</time>
      </trkpt>
      <trkpt lat="47.82351" lon="-3.54564">
        <ele>7.78</ele>
        <time>2020-07-08T11:36:30Z</time>
      </trkpt>
      <trkpt lat="47.82351" lon="-3.54561">
        <ele>7.71</ele>
        <time>2020-07-08T11:36:31Z</time>
      </trkpt>
      <trkpt lat="47.8235" lon="-3.54558">
        <ele>7.68</ele>
        <time>2020-07-08T11:36:32Z</time>
      </trkpt>
      <trkpt lat="47.82349" lon="-3.54555">
        <ele>7.64</ele>
        <time>2020-07-08T11:36:33Z</time>
      </trkpt>
      <trkpt lat="47.82349" lon="-3.54551">
        <ele>7.41</ele>
        <time>2020-07-08T11:36:34Z</time>
      </trkpt>
      <trkpt lat="47.82349" lon="-3.54547">
        <ele>7.13</ele>
        <time>2020-07-08T11:36:35Z</time>
      </trkpt>
      <trkpt lat="47.82348" lon="-3.54542">
        <ele>6.8</ele>
        <time>2020-07-08T11:36:36Z</time>
      </trkpt>
      <trkpt lat="47.82347" lon="-3.54538">
        <ele>6.5</ele>
        <time>2020-07-08T11:36:37Z</time>
      </trkpt>
      <trkpt lat="47.82346" lon="-3.54533">
        <ele>6.24</ele>
        <time>2020-07-08T11:36:38Z</time>
      </trkpt>
      <trkpt lat="47.82346" lon="-3.54529">
        <ele>5.97</ele>
        <time>2020-07-08T11:36:39Z</time>
      </trkpt>
      <trkpt lat="47.82345" lon="-3.54524">
        <ele>5.67</ele>
        <time>2020-07-08T11:36:40Z</time>
      </trkpt>
      <trkpt lat="47.82345" lon="-3.54519">
        <ele>5.33</ele>
        <time>2020-07-08T11:36:41Z</time>
      </trkpt>
      <trkpt lat="47.82344" lon="-3.54513">
        <ele>5.01</ele>
        <time>2020-07-08T11:36:42Z</time>
      </trkpt>
      <trkpt lat="47.82343" lon="-3.54508">
        <ele>4.71</ele>
        <time>2020-07-08T11:36:43Z</time>
      </trkpt>
      <trkpt lat="47.82341" lon="-3.54503">
        <ele>4.53</ele>
        <time>2020-07-08T11:36:44Z</time>
      </trkpt>
      <trkpt lat="47.8234" lon="-3.54497">
        <ele>4.51</ele>
        <time>2020-07-08T11:36:45Z</time>
      </trkpt>
      <trkpt lat="47.82338" lon="-3.54492">
        <ele>4.51</ele>
        <time>2020-07-08T11:36:46Z</time>
      </trkpt>
      <trkpt lat="47.82338" lon="-3.54488">
        <ele>4.44</ele>
        <time>2020-07-08T11:36:47Z</time>
      </trkpt>
      <trkpt lat="47.82337" lon="-3.54482">
        <ele>4.3</ele>
        <time>2020-07-08T11:36:48Z</time>
      </trkpt>
      <trkpt lat="47.82337" lon="-3.54477">
        <ele>3.98</ele>
        <time>2020-07-08T11:36:49Z</time>
      </trkpt>
      <trkpt lat="47.82338" lon="-3.54472">
        <ele>3.68</ele>
        <time>2020-07-08T11:36:50Z</time>
      </trkpt>
      <trkpt lat="47.82338" lon="-3.54467">
        <ele>3.36</ele>
        <time>2020-07-08T11:36:51Z</time>
      </trkpt>
      <trkpt lat="47.82336" lon="-3.54462">
        <ele>3.16</ele>
        <time>2020-07-08T11:36:52Z</time>
      </trkpt>
      <trkpt lat="47.82334" lon="-3.54458">
        <ele>2.98</ele>
        <time>2020-07-08T11:36:53Z</time>
      </trkpt>
      <trkpt lat="47.82332" lon="-3.54453">
        <ele>3.05</ele>
        <time>2020-07-08T11:36:54Z</time>
      </trkpt>
      <trkpt lat="47.82329" lon="-3.5445">
        <ele>3.44</ele>
        <time>2020-07-08T11:36:55Z</time>
      </trkpt>
      <trkpt lat="47.82327" lon="-3.54445">
        <ele>3.85</ele>
        <time>2020-07-08T11:36:56Z</time>
      </trkpt>
      <trkpt lat="47.82324" lon="-3.54441">
        <ele>4.52</ele>
        <time>2020-07-08T11:36:57Z</time>
      </trkpt>
      <trkpt lat="47.82322" lon="-3.54438">
        <ele>5.16</ele>
        <time>2020-07-08T11:36:58Z</time>
      </trkpt>
      <trkpt lat="47.8232" lon="-3.54435">
        <ele>5.62</ele>
        <time>2020-07-08T11:36:59Z</time>
      </trkpt>
      <trkpt lat="47.82318" lon="-3.54431">
        <ele>5.96</ele>
        <time>2020-07-08T11:37:00Z</time>
      </trkpt>
      <trkpt lat="47.82317" lon="-3.54428">
        <ele>6.12</ele>
        <time>2020-07-08T11:37:01Z</time>
      </trkpt>
      <trkpt lat="47.82317" lon="-3.54425">
        <ele>6.13</ele>
        <time>2020-07-08T11:37:02Z</time>
      </trkpt>
      <trkpt lat="47.82316" lon="-3.54421">
        <ele>6.08</ele>
        <time>2020-07-08T11:37:03Z</time>
      </trkpt>
      <trkpt lat="47.82315" lon="-3.54418">
        <ele>6.04</ele>
        <time>2020-07-08T11:37:04Z</time>
      </trkpt>
      <trkpt lat="47.82314" lon="-3.54414">
        <ele>5.97</ele>
        <time>2020-07-08T11:37:05Z</time>
      </trkpt>
      <trkpt lat="47.82312" lon="-3.54412">
        <ele>6.01</ele>
        <time>2020-07-08T11:37:06Z</time>
      </trkpt>
      <trkpt lat="47.82311" lon="-3.54411">
        <ele>6.07</ele>
        <time>2020-07-08T11:37:07Z</time>
      </trkpt>
      <trkpt lat="47.82311" lon="-3.5441">
        <ele>6.11</ele>
        <time>2020-07-08T11:37:08Z</time>
      </trkpt>
      <trkpt lat="47.82311" lon="-3.54409">
        <ele>6.04</ele>
        <time>2020-07-08T11:37:09Z</time>
      </trkpt>
      <trkpt lat="47.82311" lon="-3.54409">
        <ele>6.01</ele>
        <time>2020-07-08T11:37:10Z</time>
      </trkpt>
      <trkpt lat="47.82311" lon="-3.54409">
        <ele>6.01</ele>
        <time>2020-07-08T11:37:11Z</time>
      </trkpt>
      <trkpt lat="47.82311" lon="-3.54409">
        <ele>6.01</ele>
        <time>2020-07-08T11:37:12Z</time>
      </trkpt>
      <trkpt lat="47.82311" lon="-3.54409">
        <ele>6</ele>
        <time>2020-07-08T11:37:13Z</time>
      </trkpt>
      <trkpt lat="47.82311" lon="-3.54409">
        <ele>6</ele>
        <time>2020-07-08T11:37:14Z</time>
      </trkpt>
      <trkpt lat="47.82311" lon="-3.54409">
        <ele>6</ele>
        <time>2020-07-08T11:37:15Z</time>
      </trkpt>
      <trkpt lat="47.82311" lon="-3.54409">
        <ele>6</ele>
        <time>2020-07-08T11:37:16Z</time>
      </trkpt>
      <trkpt lat="47.82311" lon="-3.54409">
        <ele>6</ele>
        <time>2020-07-08T11:37:17Z</time>
      </trkpt>
      <trkpt lat="47.82311" lon="-3.54409">
        <ele>6</ele>
        <time>2020-07-08T11:37:18Z</time>
      </trkpt>
      <trkpt lat="47.82311" lon="-3.54409">
        <ele>6</ele>
        <time>2020-07-08T11:37:19Z</time>
      </trkpt>
      <trkpt lat="47.82311" lon="-3.54409">
        <ele>6</ele>
        <time>2020-07-08T11:37:20Z</time>
      </trkpt>
      <trkpt lat="47.82311" lon="-3.54409">
        <ele>6</ele>
        <time>2020-07-08T11:37:21Z</time>
      </trkpt>
      <trkpt lat="47.82311" lon="-3.54409">
        <ele>6</ele>
        <time>2020-07-08T11:37:22Z</time>
      </trkpt>
      <trkpt lat="47.82311" lon="-3.54409">
        <ele>6</ele>
        <time>2020-07-08T11:37:23Z</time>
      </trkpt>
      <trkpt lat="47.82311" lon="-3.54409">
        <ele>6</ele>
        <time>2020-07-08T11:37:24Z</time>
      </trkpt>
      <trkpt lat="47.82311" lon="-3.54409">
        <ele>6</ele>
        <time>2020-07-08T11:37:25Z</time>
      </trkpt>
      <trkpt lat="47.82311" lon="-3.54409">
        <ele>6</ele>
        <time>2020-07-08T11:37:26Z</time>
      </trkpt>
      <trkpt lat="47.82311" lon="-3.54409">
        <ele>6</ele>
        <time>2020-07-08T11:37:27Z</time>
      </trkpt>
      <trkpt lat="47.82311" lon="-3.54409">
        <ele>6</ele>
        <time>2020-07-08T11:37:28Z</time>
      </trkpt>
      <trkpt lat="47.82311" lon="-3.54409">
        <ele>6</ele>
        <time>2020-07-08T11:37:29Z</time>
      </trkpt>
      <trkpt lat="47.82311" lon="-3.54409">
        <ele>6</ele>
        <time>2020-07-08T11:37:30Z</time>
      </trkpt>
      <trkpt lat="47.82311" lon="-3.54409">
        <ele>6</ele>
        <time>2020-07-08T11:37:31Z</time>
      </trkpt>
      <trkpt lat="47.82311" lon="-3.54409">
        <ele>6</ele>
        <time>2020-07-08T11:37:32Z</time>
      </trkpt>
      <trkpt lat="47.82311" lon="-3.54409">
        <ele>6</ele>
        <time>2020-07-08T11:37:33Z</time>
      </trkpt>
      <trkpt lat="47.82311" lon="-3.54409">
        <ele>6</ele>
        <time>2020-07-08T11:37:34Z</time>
      </trkpt>
      <trkpt lat="47.82311" lon="-3.54409">
        <ele>6</ele>
        <time>2020-07-08T11:37:35Z</time>
      </trkpt>
      <trkpt lat="47.82311" lon="-3.54409">
        <ele>6</ele>
        <time>2020-07-08T11:37:36Z</time>
      </trkpt>
      <trkpt lat="47.82311" lon="-3.54409">
        <ele>6</ele>
        <time>2020-07-08T11:37:37Z</time>
      </trkpt>
      <trkpt lat="47.82311" lon="-3.54409">
        <ele>6</ele>
        <time>2020-07-08T11:37:38Z</time>
      </trkpt>
      <trkpt lat="47.82311" lon="-3.54409">
        <ele>6</ele>
        <time>2020-07-08T11:37:39Z</time>
      </trkpt>
      <trkpt lat="47.82311" lon="-3.54409">
        <ele>6</ele>
        <time>2020-07-08T11:37:40Z</time>
      </trkpt>
      <trkpt lat="47.82311" lon="-3.54409">
        <ele>6</ele>
        <time>2020-07-08T11:37:41Z</time>
      </trkpt>
      <trkpt lat="47.82311" lon="-3.54409">
        <ele>6</ele>
        <time>2020-07-08T11:37:42Z</time>
      </trkpt>
      <trkpt lat="47.82311" lon="-3.54409">
        <ele>6</ele>
        <time>2020-07-08T11:37:43Z</time>
      </trkpt>
      <trkpt lat="47.82311" lon="-3.54409">
        <ele>6</ele>
        <time>2020-07-08T11:37:44Z</time>
      </trkpt>
      <trkpt lat="47.82311" lon="-3.54409">
        <ele>6</ele>
        <time>2020-07-08T11:37:45Z</time>
      </trkpt>
      <trkpt lat="47.82311" lon="-3.54409">
        <ele>6</ele>
        <time>2020-07-08T11:37:46Z</time>
      </trkpt>
      <trkpt lat="47.82311" lon="-3.54409">
        <ele>6</ele>
        <time>2020-07-08T11:37:47Z</time>
      </trkpt>
      <trkpt lat="47.82311" lon="-3.54409">
        <ele>6</ele>
        <time>2020-07-08T11:37:48Z</time>
      </trkpt>
      <trkpt lat="47.82311" lon="-3.54409">
        <ele>6</ele>
        <time>2020-07-08T11:37:49Z</time>
      </trkpt>
      <trkpt lat="47.82311" lon="-3.54409">
        <ele>6</ele>
        <time>2020-07-08T11:37:50Z</time>
      </trkpt>
      <trkpt lat="47.82311" lon="-3.54409">
        <ele>6</ele>
        <time>2020-07-08T11:37:51Z</time>
      </trkpt>
      <trkpt lat="47.82311" lon="-3.54409">
        <ele>6</ele>
        <time>2020-07-08T11:37:52Z</time>
      </trkpt>
      <trkpt lat="47.82311" lon="-3.54409">
        <ele>6</ele>
        <time>2020-07-08T11:37:53Z</time>
      </trkpt>
      <trkpt lat="47.82311" lon="-3.54409">
        <ele>6</ele>
        <time>2020-07-08T11:37:54Z</time>
      </trkpt>
      <trkpt lat="47.82311" lon="-3.54409">
        <ele>6</ele>
        <time>2020-07-08T11:37:55Z</time>
      </trkpt>
      <trkpt lat="47.82311" lon="-3.54409">
        <ele>6</ele>
        <time>2020-07-08T11:37:56Z</time>
      </trkpt>
      <trkpt lat="47.82311" lon="-3.54409">
        <ele>6</ele>
        <time>2020-07-08T11:37:57Z</time>
      </trkpt>
      <trkpt lat="47.82311" lon="-3.54409">
        <ele>6</ele>
        <time>2020-07-08T11:37:58Z</time>
      </trkpt>
      <trkpt lat="47.82311" lon="-3.54409">
        <ele>6</ele>
        <time>2020-07-08T11:37:59Z</time>
      </trkpt>
      <trkpt lat="47.82311" lon="-3.54409">
        <ele>6</ele>
        <time>2020-07-08T11:38:00Z</time>
      </trkpt>
      <trkpt lat="47.82311" lon="-3.54409">
        <ele>6</ele>
        <time>2020-07-08T11:38:01Z</time>
      </trkpt>
      <trkpt lat="47.82311" lon="-3.54409">
        <ele>6</ele>
        <time>2020-07-08T11:38:02Z</time>
      </trkpt>
      <trkpt lat="47.82311" lon="-3.54409">
        <ele>6</ele>
        <time>2020-07-08T11:38:03Z</time>
      </trkpt>
      <trkpt lat="47.82311" lon="-3.54409">
        <ele>6</ele>
        <time>2020-07-08T11:38:04Z</time>
      </trkpt>
      <trkpt lat="47.82311" lon="-3.54409">
        <ele>6</ele>
        <time>2020-07-08T11:38:05Z</time>
      </trkpt>
      <trkpt lat="47.82311" lon="-3.54409">
        <ele>6</ele>
        <time>2020-07-08T11:38:06Z</time>
      </trkpt>
      <trkpt lat="47.82311" lon="-3.54409">
        <ele>6</ele>
        <time>2020-07-08T11:38:07Z</time>
      </trkpt>
      <trkpt lat="47.82311" lon="-3.54409">
        <ele>6</ele>
        <time>2020-07-08T11:38:08Z</time>
      </trkpt>
      <trkpt lat="47.82306" lon="-3.54397">
        <ele>5.39</ele>
        <time>2020-07-08T11:38:09Z</time>
      </trkpt>
      <trkpt lat="47.82306" lon="-3.54396">
        <ele>5.09</ele>
        <time>2020-07-08T11:38:10Z</time>
      </trkpt>
      <trkpt lat="47.82307" lon="-3.54395">
        <ele>4.86</ele>
        <time>2020-07-08T11:38:11Z</time>
      </trkpt>
      <trkpt lat="47.82308" lon="-3.54394">
        <ele>4.58</ele>
        <time>2020-07-08T11:38:12Z</time>
      </trkpt>
      <trkpt lat="47.82308" lon="-3.54394">
        <ele>4.49</ele>
        <time>2020-07-08T11:38:13Z</time>
      </trkpt>
      <trkpt lat="47.82311" lon="-3.54389">
        <ele>3.92</ele>
        <time>2020-07-08T11:38:14Z</time>
      </trkpt>
      <trkpt lat="47.82312" lon="-3.54387">
        <ele>3.55</ele>
        <time>2020-07-08T11:38:15Z</time>
      </trkpt>
      <trkpt lat="47.82313" lon="-3.54385">
        <ele>3.26</ele>
        <time>2020-07-08T11:38:16Z</time>
      </trkpt>
      <trkpt lat="47.82314" lon="-3.54385">
        <ele>3.12</ele>
        <time>2020-07-08T11:38:17Z</time>
      </trkpt>
      <trkpt lat="47.82313" lon="-3.54385">
        <ele>3.08</ele>
        <time>2020-07-08T11:38:18Z</time>
      </trkpt>
      <trkpt lat="47.82313" lon="-3.54385">
        <ele>3.06</ele>
        <time>2020-07-08T11:38:19Z</time>
      </trkpt>
      <trkpt lat="47.82313" lon="-3.54385">
        <ele>3.06</ele>
        <time>2020-07-08T11:38:20Z</time>
      </trkpt>
      <trkpt lat="47.82313" lon="-3.54385">
        <ele>3.06</ele>
        <time>2020-07-08T11:38:21Z</time>
      </trkpt>
      <trkpt lat="47.82313" lon="-3.54385">
        <ele>3.06</ele>
        <time>2020-07-08T11:38:22Z</time>
      </trkpt>
      <trkpt lat="47.82313" lon="-3.54385">
        <ele>3.06</ele>
        <time>2020-07-08T11:38:23Z</time>
      </trkpt>
      <trkpt lat="47.82313" lon="-3.54385">
        <ele>3.06</ele>
        <time>2020-07-08T11:38:24Z</time>
      </trkpt>
      <trkpt lat="47.82313" lon="-3.54385">
        <ele>3.06</ele>
        <time>2020-07-08T11:38:25Z</time>
      </trkpt>
      <trkpt lat="47.82313" lon="-3.54385">
        <ele>3.06</ele>
        <time>2020-07-08T11:38:26Z</time>
      </trkpt>
      <trkpt lat="47.82313" lon="-3.54385">
        <ele>3.06</ele>
        <time>2020-07-08T11:38:27Z</time>
      </trkpt>
      <trkpt lat="47.82313" lon="-3.54385">
        <ele>3.06</ele>
        <time>2020-07-08T11:38:28Z</time>
      </trkpt>
      <trkpt lat="47.82313" lon="-3.54385">
        <ele>3.06</ele>
        <time>2020-07-08T11:38:29Z</time>
      </trkpt>
      <trkpt lat="47.82313" lon="-3.54385">
        <ele>3.06</ele>
        <time>2020-07-08T11:38:30Z</time>
      </trkpt>
      <trkpt lat="47.82313" lon="-3.54375">
        <ele>2.47</ele>
        <time>2020-07-08T11:38:31Z</time>
      </trkpt>
      <trkpt lat="47.82312" lon="-3.54375">
        <ele>2.34</ele>
        <time>2020-07-08T11:38:32Z</time>
      </trkpt>
      <trkpt lat="47.82312" lon="-3.54376">
        <ele>2.33</ele>
        <time>2020-07-08T11:38:33Z</time>
      </trkpt>
      <trkpt lat="47.82312" lon="-3.54376">
        <ele>2.34</ele>
        <time>2020-07-08T11:38:34Z</time>
      </trkpt>
      <trkpt lat="47.82312" lon="-3.54376">
        <ele>2.35</ele>
        <time>2020-07-08T11:38:35Z</time>
      </trkpt>
      <trkpt lat="47.82312" lon="-3.54376">
        <ele>2.35</ele>
        <time>2020-07-08T11:38:36Z</time>
      </trkpt>
      <trkpt lat="47.82312" lon="-3.54376">
        <ele>2.35</ele>
        <time>2020-07-08T11:38:37Z</time>
      </trkpt>
      <trkpt lat="47.82312" lon="-3.54376">
        <ele>2.35</ele>
        <time>2020-07-08T11:38:38Z</time>
      </trkpt>
      <trkpt lat="47.82312" lon="-3.54376">
        <ele>2.35</ele>
        <time>2020-07-08T11:38:39Z</time>
      </trkpt>
      <trkpt lat="47.82312" lon="-3.54376">
        <ele>2.35</ele>
        <time>2020-07-08T11:38:40Z</time>
      </trkpt>
      <trkpt lat="47.82312" lon="-3.54376">
        <ele>2.35</ele>
        <time>2020-07-08T11:38:41Z</time>
      </trkpt>
      <trkpt lat="47.82312" lon="-3.54376">
        <ele>2.35</ele>
        <time>2020-07-08T11:38:42Z</time>
      </trkpt>
      <trkpt lat="47.82312" lon="-3.54376">
        <ele>2.35</ele>
        <time>2020-07-08T11:38:43Z</time>
      </trkpt>
      <trkpt lat="47.82312" lon="-3.54376">
        <ele>2.35</ele>
        <time>2020-07-08T11:38:44Z</time>
      </trkpt>
      <trkpt lat="47.82312" lon="-3.54376">
        <ele>2.35</ele>
        <time>2020-07-08T11:38:45Z</time>
      </trkpt>
      <trkpt lat="47.82312" lon="-3.54376">
        <ele>2.35</ele>
        <time>2020-07-08T11:38:46Z</time>
      </trkpt>
      <trkpt lat="47.82312" lon="-3.54376">
        <ele>2.35</ele>
        <time>2020-07-08T11:38:47Z</time>
      </trkpt>
      <trkpt lat="47.82312" lon="-3.54376">
        <ele>2.35</ele>
        <time>2020-07-08T11:38:48Z</time>
      </trkpt>
      <trkpt lat="47.82312" lon="-3.54376">
        <ele>2.35</ele>
        <time>2020-07-08T11:38:49Z</time>
      </trkpt>
      <trkpt lat="47.82304" lon="-3.54385">
        <ele>3.42</ele>
        <time>2020-07-08T11:38:50Z</time>
      </trkpt>
      <trkpt lat="47.82303" lon="-3.54384">
        <ele>3.84</ele>
        <time>2020-07-08T11:38:51Z</time>
      </trkpt>
      <trkpt lat="47.82302" lon="-3.54385">
        <ele>4.07</ele>
        <time>2020-07-08T11:38:52Z</time>
      </trkpt>
      <trkpt lat="47.82302" lon="-3.54384">
        <ele>4.12</ele>
        <time>2020-07-08T11:38:53Z</time>
      </trkpt>
      <trkpt lat="47.82302" lon="-3.54384">
        <ele>4.13</ele>
        <time>2020-07-08T11:38:54Z</time>
      </trkpt>
      <trkpt lat="47.82302" lon="-3.54384">
        <ele>4.14</ele>
        <time>2020-07-08T11:38:55Z</time>
      </trkpt>
      <trkpt lat="47.82302" lon="-3.54384">
        <ele>4.14</ele>
        <time>2020-07-08T11:38:56Z</time>
      </trkpt>
      <trkpt lat="47.82302" lon="-3.54384">
        <ele>4.14</ele>
        <time>2020-07-08T11:38:57Z</time>
      </trkpt>
      <trkpt lat="47.82302" lon="-3.54384">
        <ele>4.14</ele>
        <time>2020-07-08T11:38:58Z</time>
      </trkpt>
      <trkpt lat="47.82302" lon="-3.54384">
        <ele>4.14</ele>
        <time>2020-07-08T11:38:59Z</time>
      </trkpt>
      <trkpt lat="47.82302" lon="-3.54384">
        <ele>4.14</ele>
        <time>2020-07-08T11:39:00Z</time>
      </trkpt>
      <trkpt lat="47.82302" lon="-3.54384">
        <ele>4.14</ele>
        <time>2020-07-08T11:39:01Z</time>
      </trkpt>
      <trkpt lat="47.82302" lon="-3.54384">
        <ele>4.14</ele>
        <time>2020-07-08T11:39:02Z</time>
      </trkpt>
      <trkpt lat="47.82302" lon="-3.54384">
        <ele>4.14</ele>
        <time>2020-07-08T11:39:03Z</time>
      </trkpt>
      <trkpt lat="47.82302" lon="-3.54384">
        <ele>4.14</ele>
        <time>2020-07-08T11:39:04Z</time>
      </trkpt>
      <trkpt lat="47.82302" lon="-3.54384">
        <ele>4.14</ele>
        <time>2020-07-08T11:39:05Z</time>
      </trkpt>
      <trkpt lat="47.82302" lon="-3.54384">
        <ele>4.14</ele>
        <time>2020-07-08T11:39:06Z</time>
      </trkpt>
      <trkpt lat="47.82302" lon="-3.54384">
        <ele>4.14</ele>
        <time>2020-07-08T11:39:07Z</time>
      </trkpt>
      <trkpt lat="47.82302" lon="-3.54384">
        <ele>4.14</ele>
        <time>2020-07-08T11:39:08Z</time>
      </trkpt>
      <trkpt lat="47.82302" lon="-3.54384">
        <ele>4.14</ele>
        <time>2020-07-08T11:39:09Z</time>
      </trkpt>
      <trkpt lat="47.82296" lon="-3.54374">
        <ele>3.92</ele>
        <time>2020-07-08T11:39:10Z</time>
      </trkpt>
      <trkpt lat="47.82296" lon="-3.54373">
        <ele>3.86</ele>
        <time>2020-07-08T11:39:11Z</time>
      </trkpt>
      <trkpt lat="47.82296" lon="-3.54373">
        <ele>3.82</ele>
        <time>2020-07-08T11:39:12Z</time>
      </trkpt>
      <trkpt lat="47.82296" lon="-3.54374">
        <ele>3.84</ele>
        <time>2020-07-08T11:39:13Z</time>
      </trkpt>
      <trkpt lat="47.82296" lon="-3.54374">
        <ele>3.85</ele>
        <time>2020-07-08T11:39:14Z</time>
      </trkpt>
      <trkpt lat="47.82296" lon="-3.54374">
        <ele>3.85</ele>
        <time>2020-07-08T11:39:15Z</time>
      </trkpt>
      <trkpt lat="47.82296" lon="-3.54374">
        <ele>3.85</ele>
        <time>2020-07-08T11:39:16Z</time>
      </trkpt>
      <trkpt lat="47.82296" lon="-3.54374">
        <ele>3.85</ele>
        <time>2020-07-08T11:39:17Z</time>
      </trkpt>
      <trkpt lat="47.82296" lon="-3.54374">
        <ele>3.85</ele>
        <time>2020-07-08T11:39:18Z</time>
      </trkpt>
      <trkpt lat="47.82296" lon="-3.54374">
        <ele>3.85</ele>
        <time>2020-07-08T11:39:19Z</time>
      </trkpt>
      <trkpt lat="47.82296" lon="-3.54374">
        <ele>3.85</ele>
        <time>2020-07-08T11:39:20Z</time>
      </trkpt>
      <trkpt lat="47.82296" lon="-3.54374">
        <ele>3.85</ele>
        <time>2020-07-08T11:39:21Z</time>
      </trkpt>
      <trkpt lat="47.82296" lon="-3.54374">
        <ele>3.85</ele>
        <time>2020-07-08T11:39:22Z</time>
      </trkpt>
      <trkpt lat="47.82296" lon="-3.54374">
        <ele>3.85</ele>
        <time>2020-07-08T11:39:23Z</time>
      </trkpt>
      <trkpt lat="47.82296" lon="-3.54374">
        <ele>3.85</ele>
        <time>2020-07-08T11:39:24Z</time>
      </trkpt>
      <trkpt lat="47.82296" lon="-3.54374">
        <ele>3.85</ele>
        <time>2020-07-08T11:39:25Z</time>
      </trkpt>
      <trkpt lat="47.82296" lon="-3.54374">
        <ele>3.85</ele>
        <time>2020-07-08T11:39:26Z</time>
      </trkpt>
      <trkpt lat="47.82296" lon="-3.54374">
        <ele>3.85</ele>
        <time>2020-07-08T11:39:27Z</time>
      </trkpt>
      <trkpt lat="47.82296" lon="-3.54374">
        <ele>3.85</ele>
        <time>2020-07-08T11:39:28Z</time>
      </trkpt>
      <trkpt lat="47.82287" lon="-3.54369">
        <ele>4.16</ele>
        <time>2020-07-08T11:39:29Z</time>
      </trkpt>
      <trkpt lat="47.82287" lon="-3.54368">
        <ele>4.26</ele>
        <time>2020-07-08T11:39:30Z</time>
      </trkpt>
      <trkpt lat="47.82286" lon="-3.54368">
        <ele>4.25</ele>
        <time>2020-07-08T11:39:31Z</time>
      </trkpt>
      <trkpt lat="47.82286" lon="-3.54366">
        <ele>4.14</ele>
        <time>2020-07-08T11:39:32Z</time>
      </trkpt>
      <trkpt lat="47.82286" lon="-3.54366">
        <ele>4.11</ele>
        <time>2020-07-08T11:39:33Z</time>
      </trkpt>
      <trkpt lat="47.82286" lon="-3.54366">
        <ele>4.1</ele>
        <time>2020-07-08T11:39:34Z</time>
      </trkpt>
      <trkpt lat="47.82286" lon="-3.54366">
        <ele>4.1</ele>
        <time>2020-07-08T11:39:35Z</time>
      </trkpt>
      <trkpt lat="47.82286" lon="-3.54366">
        <ele>4.09</ele>
        <time>2020-07-08T11:39:36Z</time>
      </trkpt>
      <trkpt lat="47.82286" lon="-3.54366">
        <ele>4.09</ele>
        <time>2020-07-08T11:39:37Z</time>
      </trkpt>
      <trkpt lat="47.82286" lon="-3.54366">
        <ele>4.09</ele>
        <time>2020-07-08T11:39:38Z</time>
      </trkpt>
      <trkpt lat="47.82286" lon="-3.54366">
        <ele>4.09</ele>
        <time>2020-07-08T11:39:39Z</time>
      </trkpt>
      <trkpt lat="47.82286" lon="-3.54366">
        <ele>4.09</ele>
        <time>2020-07-08T11:39:40Z</time>
      </trkpt>
      <trkpt lat="47.82276" lon="-3.54363">
        <ele>4.46</ele>
        <time>2020-07-08T11:39:41Z</time>
      </trkpt>
      <trkpt lat="47.82276" lon="-3.54364">
        <ele>4.76</ele>
        <time>2020-07-08T11:39:42Z</time>
      </trkpt>
      <trkpt lat="47.82275" lon="-3.54364">
        <ele>4.9</ele>
        <time>2020-07-08T11:39:43Z</time>
      </trkpt>
      <trkpt lat="47.82273" lon="-3.54364">
        <ele>5.06</ele>
        <time>2020-07-08T11:39:44Z</time>
      </trkpt>
      <trkpt lat="47.82273" lon="-3.54364">
        <ele>5.1</ele>
        <time>2020-07-08T11:39:45Z</time>
      </trkpt>
      <trkpt lat="47.82273" lon="-3.54364">
        <ele>5.12</ele>
        <time>2020-07-08T11:39:46Z</time>
      </trkpt>
      <trkpt lat="47.82269" lon="-3.54365">
        <ele>5.5</ele>
        <time>2020-07-08T11:39:47Z</time>
      </trkpt>
      <trkpt lat="47.82268" lon="-3.54365">
        <ele>5.68</ele>
        <time>2020-07-08T11:39:48Z</time>
      </trkpt>
      <trkpt lat="47.82267" lon="-3.54365">
        <ele>5.86</ele>
        <time>2020-07-08T11:39:49Z</time>
      </trkpt>
      <trkpt lat="47.82266" lon="-3.54364">
        <ele>5.96</ele>
        <time>2020-07-08T11:39:50Z</time>
      </trkpt>
      <trkpt lat="47.82266" lon="-3.54364">
        <ele>5.99</ele>
        <time>2020-07-08T11:39:51Z</time>
      </trkpt>
      <trkpt lat="47.82266" lon="-3.54364">
        <ele>6</ele>
        <time>2020-07-08T11:39:52Z</time>
      </trkpt>
      <trkpt lat="47.82266" lon="-3.54364">
        <ele>6</ele>
        <time>2020-07-08T11:39:53Z</time>
      </trkpt>
      <trkpt lat="47.82266" lon="-3.54364">
        <ele>6</ele>
        <time>2020-07-08T11:39:54Z</time>
      </trkpt>
      <trkpt lat="47.82266" lon="-3.54364">
        <ele>6</ele>
        <time>2020-07-08T11:39:55Z</time>
      </trkpt>
      <trkpt lat="47.82266" lon="-3.54364">
        <ele>6</ele>
        <time>2020-07-08T11:39:56Z</time>
      </trkpt>
      <trkpt lat="47.82266" lon="-3.54364">
        <ele>6</ele>
        <time>2020-07-08T11:39:57Z</time>
      </trkpt>
      <trkpt lat="47.82266" lon="-3.54364">
        <ele>6</ele>
        <time>2020-07-08T11:39:58Z</time>
      </trkpt>
      <trkpt lat="47.82266" lon="-3.54364">
        <ele>6</ele>
        <time>2020-07-08T11:39:59Z</time>
      </trkpt>
      <trkpt lat="47.82266" lon="-3.54364">
        <ele>6</ele>
        <time>2020-07-08T11:40:00Z</time>
      </trkpt>
      <trkpt lat="47.82266" lon="-3.54364">
        <ele>6</ele>
        <time>2020-07-08T11:40:01Z</time>
      </trkpt>
      <trkpt lat="47.82266" lon="-3.54364">
        <ele>6</ele>
        <time>2020-07-08T11:40:02Z</time>
      </trkpt>
      <trkpt lat="47.82266" lon="-3.54364">
        <ele>6</ele>
        <time>2020-07-08T11:40:03Z</time>
      </trkpt>
      <trkpt lat="47.82266" lon="-3.54364">
        <ele>6</ele>
        <time>2020-07-08T11:40:04Z</time>
      </trkpt>
      <trkpt lat="47.82266" lon="-3.54364">
        <ele>6</ele>
        <time>2020-07-08T11:40:05Z</time>
      </trkpt>
      <trkpt lat="47.82266" lon="-3.54364">
        <ele>6</ele>
        <time>2020-07-08T11:40:06Z</time>
      </trkpt>
      <trkpt lat="47.82266" lon="-3.54364">
        <ele>6</ele>
        <time>2020-07-08T11:40:07Z</time>
      </trkpt>
      <trkpt lat="47.82266" lon="-3.54364">
        <ele>6</ele>
        <time>2020-07-08T11:40:08Z</time>
      </trkpt>
      <trkpt lat="47.82266" lon="-3.54364">
        <ele>6</ele>
        <time>2020-07-08T11:40:09Z</time>
      </trkpt>
      <trkpt lat="47.82266" lon="-3.54364">
        <ele>6</ele>
        <time>2020-07-08T11:40:10Z</time>
      </trkpt>
      <trkpt lat="47.82266" lon="-3.54364">
        <ele>6</ele>
        <time>2020-07-08T11:40:11Z</time>
      </trkpt>
      <trkpt lat="47.82257" lon="-3.54361">
        <ele>6.13</ele>
        <time>2020-07-08T11:40:12Z</time>
      </trkpt>
      <trkpt lat="47.82255" lon="-3.5436">
        <ele>6.24</ele>
        <time>2020-07-08T11:40:13Z</time>
      </trkpt>
      <trkpt lat="47.82254" lon="-3.5436">
        <ele>6.36</ele>
        <time>2020-07-08T11:40:14Z</time>
      </trkpt>
      <trkpt lat="47.82252" lon="-3.5436">
        <ele>6.52</ele>
        <time>2020-07-08T11:40:15Z</time>
      </trkpt>
      <trkpt lat="47.8225" lon="-3.54359">
        <ele>6.51</ele>
        <time>2020-07-08T11:40:16Z</time>
      </trkpt>
      <trkpt lat="47.82248" lon="-3.54357">
        <ele>6.49</ele>
        <time>2020-07-08T11:40:17Z</time>
      </trkpt>
      <trkpt lat="47.82246" lon="-3.54356">
        <ele>6.41</ele>
        <time>2020-07-08T11:40:18Z</time>
      </trkpt>
      <trkpt lat="47.82244" lon="-3.54355">
        <ele>6.41</ele>
        <time>2020-07-08T11:40:19Z</time>
      </trkpt>
      <trkpt lat="47.82243" lon="-3.54356">
        <ele>6.54</ele>
        <time>2020-07-08T11:40:20Z</time>
      </trkpt>
      <trkpt lat="47.82242" lon="-3.54356">
        <ele>6.73</ele>
        <time>2020-07-08T11:40:21Z</time>
      </trkpt>
      <trkpt lat="47.8224" lon="-3.54356">
        <ele>6.9</ele>
        <time>2020-07-08T11:40:22Z</time>
      </trkpt>
      <trkpt lat="47.82239" lon="-3.54356">
        <ele>7.05</ele>
        <time>2020-07-08T11:40:23Z</time>
      </trkpt>
      <trkpt lat="47.82238" lon="-3.54356">
        <ele>7.18</ele>
        <time>2020-07-08T11:40:24Z</time>
      </trkpt>
      <trkpt lat="47.82237" lon="-3.54356">
        <ele>7.24</ele>
        <time>2020-07-08T11:40:25Z</time>
      </trkpt>
      <trkpt lat="47.82235" lon="-3.54356">
        <ele>7.39</ele>
        <time>2020-07-08T11:40:26Z</time>
      </trkpt>
      <trkpt lat="47.82233" lon="-3.54356">
        <ele>7.52</ele>
        <time>2020-07-08T11:40:27Z</time>
      </trkpt>
      <trkpt lat="47.82232" lon="-3.54356">
        <ele>7.58</ele>
        <time>2020-07-08T11:40:28Z</time>
      </trkpt>
      <trkpt lat="47.8223" lon="-3.54355">
        <ele>7.52</ele>
        <time>2020-07-08T11:40:29Z</time>
      </trkpt>
      <trkpt lat="47.82227" lon="-3.54353">
        <ele>7.37</ele>
        <time>2020-07-08T11:40:30Z</time>
      </trkpt>
      <trkpt lat="47.82225" lon="-3.54351">
        <ele>7.1</ele>
        <time>2020-07-08T11:40:31Z</time>
      </trkpt>
      <trkpt lat="47.82223" lon="-3.54349">
        <ele>6.7</ele>
        <time>2020-07-08T11:40:32Z</time>
      </trkpt>
      <trkpt lat="47.8222" lon="-3.54346">
        <ele>6.13</ele>
        <time>2020-07-08T11:40:33Z</time>
      </trkpt>
      <trkpt lat="47.82219" lon="-3.54343">
        <ele>5.46</ele>
        <time>2020-07-08T11:40:34Z</time>
      </trkpt>
      <trkpt lat="47.82217" lon="-3.5434">
        <ele>4.8</ele>
        <time>2020-07-08T11:40:35Z</time>
      </trkpt>
      <trkpt lat="47.82213" lon="-3.54338">
        <ele>4.27</ele>
        <time>2020-07-08T11:40:36Z</time>
      </trkpt>
      <trkpt lat="47.8221" lon="-3.54335">
        <ele>3.79</ele>
        <time>2020-07-08T11:40:37Z</time>
      </trkpt>
      <trkpt lat="47.82207" lon="-3.54332">
        <ele>3.61</ele>
        <time>2020-07-08T11:40:38Z</time>
      </trkpt>
      <trkpt lat="47.82204" lon="-3.5433">
        <ele>3.69</ele>
        <time>2020-07-08T11:40:39Z</time>
      </trkpt>
      <trkpt lat="47.822" lon="-3.54329">
        <ele>3.83</ele>
        <time>2020-07-08T11:40:40Z</time>
      </trkpt>
      <trkpt lat="47.82197" lon="-3.54328">
        <ele>3.95</ele>
        <time>2020-07-08T11:40:41Z</time>
      </trkpt>
      <trkpt lat="47.82195" lon="-3.54326">
        <ele>3.96</ele>
        <time>2020-07-08T11:40:42Z</time>
      </trkpt>
      <trkpt lat="47.82192" lon="-3.54323">
        <ele>3.82</ele>
        <time>2020-07-08T11:40:43Z</time>
      </trkpt>
      <trkpt lat="47.82189" lon="-3.54319">
        <ele>3.54</ele>
        <time>2020-07-08T11:40:44Z</time>
      </trkpt>
      <trkpt lat="47.82187" lon="-3.54315">
        <ele>3.22</ele>
        <time>2020-07-08T11:40:45Z</time>
      </trkpt>
      <trkpt lat="47.82184" lon="-3.54313">
        <ele>3.02</ele>
        <time>2020-07-08T11:40:46Z</time>
      </trkpt>
      <trkpt lat="47.8218" lon="-3.54313">
        <ele>3.14</ele>
        <time>2020-07-08T11:40:47Z</time>
      </trkpt>
      <trkpt lat="47.82177" lon="-3.54313">
        <ele>3.32</ele>
        <time>2020-07-08T11:40:48Z</time>
      </trkpt>
      <trkpt lat="47.82175" lon="-3.54312">
        <ele>3.48</ele>
        <time>2020-07-08T11:40:49Z</time>
      </trkpt>
      <trkpt lat="47.82172" lon="-3.54311">
        <ele>3.58</ele>
        <time>2020-07-08T11:40:50Z</time>
      </trkpt>
      <trkpt lat="47.82168" lon="-3.5431">
        <ele>3.71</ele>
        <time>2020-07-08T11:40:51Z</time>
      </trkpt>
      <trkpt lat="47.82165" lon="-3.5431">
        <ele>3.86</ele>
        <time>2020-07-08T11:40:52Z</time>
      </trkpt>
      <trkpt lat="47.82162" lon="-3.5431">
        <ele>4.06</ele>
        <time>2020-07-08T11:40:53Z</time>
      </trkpt>
      <trkpt lat="47.82158" lon="-3.54309">
        <ele>4.16</ele>
        <time>2020-07-08T11:40:54Z</time>
      </trkpt>
      <trkpt lat="47.82154" lon="-3.54307">
        <ele>4.12</ele>
        <time>2020-07-08T11:40:55Z</time>
      </trkpt>
      <trkpt lat="47.82151" lon="-3.54306">
        <ele>4.18</ele>
        <time>2020-07-08T11:40:56Z</time>
      </trkpt>
      <trkpt lat="47.82147" lon="-3.54306">
        <ele>4.39</ele>
        <time>2020-07-08T11:40:57Z</time>
      </trkpt>
      <trkpt lat="47.82143" lon="-3.54307">
        <ele>4.74</ele>
        <time>2020-07-08T11:40:58Z</time>
      </trkpt>
      <trkpt lat="47.8214" lon="-3.54308">
        <ele>5.17</ele>
        <time>2020-07-08T11:40:59Z</time>
      </trkpt>
      <trkpt lat="47.82136" lon="-3.54309">
        <ele>5.91</ele>
        <time>2020-07-08T11:41:00Z</time>
      </trkpt>
      <trkpt lat="47.82133" lon="-3.5431">
        <ele>6.74</ele>
        <time>2020-07-08T11:41:01Z</time>
      </trkpt>
      <trkpt lat="47.82131" lon="-3.54312">
        <ele>7.49</ele>
        <time>2020-07-08T11:41:02Z</time>
      </trkpt>
      <trkpt lat="47.82128" lon="-3.54313">
        <ele>8.16</ele>
        <time>2020-07-08T11:41:03Z</time>
      </trkpt>
      <trkpt lat="47.82127" lon="-3.54314">
        <ele>8.73</ele>
        <time>2020-07-08T11:41:04Z</time>
      </trkpt>
      <trkpt lat="47.82125" lon="-3.54315">
        <ele>9.21</ele>
        <time>2020-07-08T11:41:05Z</time>
      </trkpt>
      <trkpt lat="47.82122" lon="-3.54316">
        <ele>9.76</ele>
        <time>2020-07-08T11:41:06Z</time>
      </trkpt>
      <trkpt lat="47.82119" lon="-3.54316">
        <ele>10.31</ele>
        <time>2020-07-08T11:41:07Z</time>
      </trkpt>
      <trkpt lat="47.82117" lon="-3.54316">
        <ele>10.84</ele>
        <time>2020-07-08T11:41:08Z</time>
      </trkpt>
      <trkpt lat="47.82115" lon="-3.54317">
        <ele>11.29</ele>
        <time>2020-07-08T11:41:09Z</time>
      </trkpt>
      <trkpt lat="47.82112" lon="-3.54318">
        <ele>11.75</ele>
        <time>2020-07-08T11:41:10Z</time>
      </trkpt>
      <trkpt lat="47.82108" lon="-3.54319">
        <ele>12.6</ele>
        <time>2020-07-08T11:41:11Z</time>
      </trkpt>
      <trkpt lat="47.82105" lon="-3.5432">
        <ele>13.32</ele>
        <time>2020-07-08T11:41:12Z</time>
      </trkpt>
      <trkpt lat="47.82102" lon="-3.54322">
        <ele>14.23</ele>
        <time>2020-07-08T11:41:13Z</time>
      </trkpt>
      <trkpt lat="47.82099" lon="-3.54323">
        <ele>15.14</ele>
        <time>2020-07-08T11:41:14Z</time>
      </trkpt>
      <trkpt lat="47.82095" lon="-3.54325">
        <ele>16</ele>
        <time>2020-07-08T11:41:15Z</time>
      </trkpt>
      <trkpt lat="47.82092" lon="-3.54325">
        <ele>16.96</ele>
        <time>2020-07-08T11:41:16Z</time>
      </trkpt>
      <trkpt lat="47.82089" lon="-3.54326">
        <ele>17.65</ele>
        <time>2020-07-08T11:41:17Z</time>
      </trkpt>
      <trkpt lat="47.82087" lon="-3.54327">
        <ele>18.26</ele>
        <time>2020-07-08T11:41:18Z</time>
      </trkpt>
      <trkpt lat="47.82085" lon="-3.54328">
        <ele>18.89</ele>
        <time>2020-07-08T11:41:19Z</time>
      </trkpt>
      <trkpt lat="47.82082" lon="-3.54329">
        <ele>19.39</ele>
        <time>2020-07-08T11:41:20Z</time>
      </trkpt>
      <trkpt lat="47.8208" lon="-3.5433">
        <ele>19.69</ele>
        <time>2020-07-08T11:41:21Z</time>
      </trkpt>
      <trkpt lat="47.82079" lon="-3.54331">
        <ele>19.84</ele>
        <time>2020-07-08T11:41:22Z</time>
      </trkpt>
      <trkpt lat="47.82077" lon="-3.54333">
        <ele>19.92</ele>
        <time>2020-07-08T11:41:23Z</time>
      </trkpt>
      <trkpt lat="47.82076" lon="-3.54334">
        <ele>20</ele>
        <time>2020-07-08T11:41:24Z</time>
      </trkpt>
      <trkpt lat="47.82074" lon="-3.54335">
        <ele>20.16</ele>
        <time>2020-07-08T11:41:25Z</time>
      </trkpt>
      <trkpt lat="47.8207" lon="-3.54336">
        <ele>20.51</ele>
        <time>2020-07-08T11:41:26Z</time>
      </trkpt>
      <trkpt lat="47.82067" lon="-3.54337">
        <ele>20.85</ele>
        <time>2020-07-08T11:41:27Z</time>
      </trkpt>
      <trkpt lat="47.82065" lon="-3.54337">
        <ele>21.11</ele>
        <time>2020-07-08T11:41:28Z</time>
      </trkpt>
      <trkpt lat="47.82062" lon="-3.54339">
        <ele>21.35</ele>
        <time>2020-07-08T11:41:29Z</time>
      </trkpt>
      <trkpt lat="47.82059" lon="-3.54339">
        <ele>21.59</ele>
        <time>2020-07-08T11:41:30Z</time>
      </trkpt>
      <trkpt lat="47.82056" lon="-3.5434">
        <ele>21.84</ele>
        <time>2020-07-08T11:41:31Z</time>
      </trkpt>
      <trkpt lat="47.82054" lon="-3.54341">
        <ele>22.13</ele>
        <time>2020-07-08T11:41:32Z</time>
      </trkpt>
      <trkpt lat="47.82052" lon="-3.54343">
        <ele>22.31</ele>
        <time>2020-07-08T11:41:33Z</time>
      </trkpt>
      <trkpt lat="47.8205" lon="-3.54345">
        <ele>22.53</ele>
        <time>2020-07-08T11:41:34Z</time>
      </trkpt>
      <trkpt lat="47.82048" lon="-3.54346">
        <ele>22.65</ele>
        <time>2020-07-08T11:41:35Z</time>
      </trkpt>
      <trkpt lat="47.82047" lon="-3.54349">
        <ele>22.64</ele>
        <time>2020-07-08T11:41:36Z</time>
      </trkpt>
      <trkpt lat="47.82045" lon="-3.54351">
        <ele>22.72</ele>
        <time>2020-07-08T11:41:37Z</time>
      </trkpt>
      <trkpt lat="47.82042" lon="-3.54353">
        <ele>23.08</ele>
        <time>2020-07-08T11:41:38Z</time>
      </trkpt>
      <trkpt lat="47.82039" lon="-3.54354">
        <ele>23.38</ele>
        <time>2020-07-08T11:41:39Z</time>
      </trkpt>
      <trkpt lat="47.82038" lon="-3.54356">
        <ele>23.56</ele>
        <time>2020-07-08T11:41:40Z</time>
      </trkpt>
      <trkpt lat="47.82036" lon="-3.54357">
        <ele>23.85</ele>
        <time>2020-07-08T11:41:41Z</time>
      </trkpt>
      <trkpt lat="47.82033" lon="-3.54359">
        <ele>24.09</ele>
        <time>2020-07-08T11:41:42Z</time>
      </trkpt>
      <trkpt lat="47.8203" lon="-3.54362">
        <ele>24.44</ele>
        <time>2020-07-08T11:41:43Z</time>
      </trkpt>
      <trkpt lat="47.82027" lon="-3.54364">
        <ele>24.79</ele>
        <time>2020-07-08T11:41:44Z</time>
      </trkpt>
      <trkpt lat="47.82026" lon="-3.54365">
        <ele>25.07</ele>
        <time>2020-07-08T11:41:45Z</time>
      </trkpt>
      <trkpt lat="47.82024" lon="-3.54367">
        <ele>25.33</ele>
        <time>2020-07-08T11:41:46Z</time>
      </trkpt>
      <trkpt lat="47.82022" lon="-3.54369">
        <ele>25.65</ele>
        <time>2020-07-08T11:41:47Z</time>
      </trkpt>
      <trkpt lat="47.82021" lon="-3.54372">
        <ele>25.9</ele>
        <time>2020-07-08T11:41:48Z</time>
      </trkpt>
      <trkpt lat="47.82019" lon="-3.54373">
        <ele>26.09</ele>
        <time>2020-07-08T11:41:49Z</time>
      </trkpt>
      <trkpt lat="47.82018" lon="-3.54375">
        <ele>26.32</ele>
        <time>2020-07-08T11:41:50Z</time>
      </trkpt>
      <trkpt lat="47.82016" lon="-3.54377">
        <ele>26.54</ele>
        <time>2020-07-08T11:41:51Z</time>
      </trkpt>
      <trkpt lat="47.82014" lon="-3.54379">
        <ele>26.75</ele>
        <time>2020-07-08T11:41:52Z</time>
      </trkpt>
      <trkpt lat="47.82012" lon="-3.54381">
        <ele>26.86</ele>
        <time>2020-07-08T11:41:53Z</time>
      </trkpt>
      <trkpt lat="47.8201" lon="-3.54383">
        <ele>26.93</ele>
        <time>2020-07-08T11:41:54Z</time>
      </trkpt>
      <trkpt lat="47.82009" lon="-3.54385">
        <ele>26.95</ele>
        <time>2020-07-08T11:41:55Z</time>
      </trkpt>
      <trkpt lat="47.82008" lon="-3.54386">
        <ele>26.96</ele>
        <time>2020-07-08T11:41:56Z</time>
      </trkpt>
      <trkpt lat="47.82007" lon="-3.54388">
        <ele>26.9</ele>
        <time>2020-07-08T11:41:57Z</time>
      </trkpt>
      <trkpt lat="47.82006" lon="-3.54391">
        <ele>26.81</ele>
        <time>2020-07-08T11:41:58Z</time>
      </trkpt>
      <trkpt lat="47.82006" lon="-3.54392">
        <ele>26.8</ele>
        <time>2020-07-08T11:41:59Z</time>
      </trkpt>
      <trkpt lat="47.82004" lon="-3.54393">
        <ele>26.89</ele>
        <time>2020-07-08T11:42:00Z</time>
      </trkpt>
      <trkpt lat="47.82003" lon="-3.54395">
        <ele>26.95</ele>
        <time>2020-07-08T11:42:01Z</time>
      </trkpt>
      <trkpt lat="47.82003" lon="-3.54395">
        <ele>26.97</ele>
        <time>2020-07-08T11:42:02Z</time>
      </trkpt>
      <trkpt lat="47.82" lon="-3.54401">
        <ele>26.84</ele>
        <time>2020-07-08T11:42:03Z</time>
      </trkpt>
      <trkpt lat="47.81998" lon="-3.54404">
        <ele>26.8</ele>
        <time>2020-07-08T11:42:04Z</time>
      </trkpt>
      <trkpt lat="47.81997" lon="-3.54407">
        <ele>26.75</ele>
        <time>2020-07-08T11:42:05Z</time>
      </trkpt>
      <trkpt lat="47.81995" lon="-3.54409">
        <ele>26.86</ele>
        <time>2020-07-08T11:42:06Z</time>
      </trkpt>
      <trkpt lat="47.81993" lon="-3.54412">
        <ele>26.94</ele>
        <time>2020-07-08T11:42:07Z</time>
      </trkpt>
      <trkpt lat="47.81991" lon="-3.54415">
        <ele>27.04</ele>
        <time>2020-07-08T11:42:08Z</time>
      </trkpt>
      <trkpt lat="47.81989" lon="-3.54417">
        <ele>27.21</ele>
        <time>2020-07-08T11:42:09Z</time>
      </trkpt>
      <trkpt lat="47.81987" lon="-3.54419">
        <ele>27.48</ele>
        <time>2020-07-08T11:42:10Z</time>
      </trkpt>
      <trkpt lat="47.81985" lon="-3.54421">
        <ele>27.75</ele>
        <time>2020-07-08T11:42:11Z</time>
      </trkpt>
      <trkpt lat="47.81983" lon="-3.54423">
        <ele>27.98</ele>
        <time>2020-07-08T11:42:12Z</time>
      </trkpt>
      <trkpt lat="47.81981" lon="-3.54424">
        <ele>28.2</ele>
        <time>2020-07-08T11:42:13Z</time>
      </trkpt>
      <trkpt lat="47.8198" lon="-3.54427">
        <ele>28.3</ele>
        <time>2020-07-08T11:42:14Z</time>
      </trkpt>
      <trkpt lat="47.81978" lon="-3.54429">
        <ele>28.34</ele>
        <time>2020-07-08T11:42:15Z</time>
      </trkpt>
      <trkpt lat="47.81977" lon="-3.54431">
        <ele>28.24</ele>
        <time>2020-07-08T11:42:16Z</time>
      </trkpt>
      <trkpt lat="47.81974" lon="-3.54433">
        <ele>28.33</ele>
        <time>2020-07-08T11:42:17Z</time>
      </trkpt>
      <trkpt lat="47.81971" lon="-3.54436">
        <ele>28.49</ele>
        <time>2020-07-08T11:42:18Z</time>
      </trkpt>
      <trkpt lat="47.81969" lon="-3.54438">
        <ele>28.78</ele>
        <time>2020-07-08T11:42:19Z</time>
      </trkpt>
      <trkpt lat="47.81967" lon="-3.54441">
        <ele>29.05</ele>
        <time>2020-07-08T11:42:20Z</time>
      </trkpt>
      <trkpt lat="47.81965" lon="-3.54443">
        <ele>29.31</ele>
        <time>2020-07-08T11:42:21Z</time>
      </trkpt>
      <trkpt lat="47.81963" lon="-3.54445">
        <ele>29.7</ele>
        <time>2020-07-08T11:42:22Z</time>
      </trkpt>
      <trkpt lat="47.81961" lon="-3.54448">
        <ele>30.11</ele>
        <time>2020-07-08T11:42:23Z</time>
      </trkpt>
      <trkpt lat="47.81959" lon="-3.54451">
        <ele>30.49</ele>
        <time>2020-07-08T11:42:24Z</time>
      </trkpt>
      <trkpt lat="47.81957" lon="-3.54454">
        <ele>30.75</ele>
        <time>2020-07-08T11:42:25Z</time>
      </trkpt>
      <trkpt lat="47.81956" lon="-3.54457">
        <ele>30.85</ele>
        <time>2020-07-08T11:42:26Z</time>
      </trkpt>
      <trkpt lat="47.81954" lon="-3.54459">
        <ele>30.99</ele>
        <time>2020-07-08T11:42:27Z</time>
      </trkpt>
      <trkpt lat="47.81953" lon="-3.54461">
        <ele>31.12</ele>
        <time>2020-07-08T11:42:28Z</time>
      </trkpt>
      <trkpt lat="47.81951" lon="-3.54464">
        <ele>31.19</ele>
        <time>2020-07-08T11:42:29Z</time>
      </trkpt>
      <trkpt lat="47.81949" lon="-3.54468">
        <ele>31.07</ele>
        <time>2020-07-08T11:42:30Z</time>
      </trkpt>
      <trkpt lat="47.81948" lon="-3.5447">
        <ele>30.93</ele>
        <time>2020-07-08T11:42:31Z</time>
      </trkpt>
      <trkpt lat="47.81946" lon="-3.54472">
        <ele>30.81</ele>
        <time>2020-07-08T11:42:32Z</time>
      </trkpt>
      <trkpt lat="47.81946" lon="-3.54474">
        <ele>30.73</ele>
        <time>2020-07-08T11:42:33Z</time>
      </trkpt>
      <trkpt lat="47.81945" lon="-3.54475">
        <ele>30.7</ele>
        <time>2020-07-08T11:42:34Z</time>
      </trkpt>
      <trkpt lat="47.81944" lon="-3.54475">
        <ele>30.66</ele>
        <time>2020-07-08T11:42:35Z</time>
      </trkpt>
      <trkpt lat="47.81944" lon="-3.54475">
        <ele>30.75</ele>
        <time>2020-07-08T11:42:36Z</time>
      </trkpt>
      <trkpt lat="47.81944" lon="-3.54476">
        <ele>30.83</ele>
        <time>2020-07-08T11:42:37Z</time>
      </trkpt>
      <trkpt lat="47.81944" lon="-3.54476">
        <ele>30.85</ele>
        <time>2020-07-08T11:42:38Z</time>
      </trkpt>
      <trkpt lat="47.81944" lon="-3.54476">
        <ele>30.86</ele>
        <time>2020-07-08T11:42:39Z</time>
      </trkpt>
      <trkpt lat="47.81944" lon="-3.54476">
        <ele>30.86</ele>
        <time>2020-07-08T11:42:40Z</time>
      </trkpt>
      <trkpt lat="47.81944" lon="-3.54476">
        <ele>30.86</ele>
        <time>2020-07-08T11:42:41Z</time>
      </trkpt>
      <trkpt lat="47.81944" lon="-3.54476">
        <ele>30.86</ele>
        <time>2020-07-08T11:42:42Z</time>
      </trkpt>
      <trkpt lat="47.81944" lon="-3.54476">
        <ele>30.86</ele>
        <time>2020-07-08T11:42:43Z</time>
      </trkpt>
      <trkpt lat="47.81944" lon="-3.54476">
        <ele>30.86</ele>
        <time>2020-07-08T11:42:44Z</time>
      </trkpt>
      <trkpt lat="47.81944" lon="-3.54476">
        <ele>30.86</ele>
        <time>2020-07-08T11:42:45Z</time>
      </trkpt>
      <trkpt lat="47.81944" lon="-3.54476">
        <ele>30.86</ele>
        <time>2020-07-08T11:42:46Z</time>
      </trkpt>
      <trkpt lat="47.81944" lon="-3.54476">
        <ele>30.86</ele>
        <time>2020-07-08T11:42:47Z</time>
      </trkpt>
      <trkpt lat="47.81944" lon="-3.54476">
        <ele>30.86</ele>
        <time>2020-07-08T11:42:48Z</time>
      </trkpt>
      <trkpt lat="47.81944" lon="-3.54476">
        <ele>30.86</ele>
        <time>2020-07-08T11:42:49Z</time>
      </trkpt>
      <trkpt lat="47.81944" lon="-3.54476">
        <ele>30.86</ele>
        <time>2020-07-08T11:42:50Z</time>
      </trkpt>
      <trkpt lat="47.81944" lon="-3.54476">
        <ele>30.86</ele>
        <time>2020-07-08T11:42:51Z</time>
      </trkpt>
      <trkpt lat="47.81944" lon="-3.54476">
        <ele>30.86</ele>
        <time>2020-07-08T11:42:52Z</time>
      </trkpt>
      <trkpt lat="47.81944" lon="-3.54476">
        <ele>30.86</ele>
        <time>2020-07-08T11:42:53Z</time>
      </trkpt>
      <trkpt lat="47.81944" lon="-3.54476">
        <ele>30.86</ele>
        <time>2020-07-08T11:42:54Z</time>
      </trkpt>
      <trkpt lat="47.81944" lon="-3.54476">
        <ele>30.86</ele>
        <time>2020-07-08T11:42:55Z</time>
      </trkpt>
      <trkpt lat="47.81944" lon="-3.54476">
        <ele>30.86</ele>
        <time>2020-07-08T11:42:56Z</time>
      </trkpt>
      <trkpt lat="47.81944" lon="-3.54476">
        <ele>30.86</ele>
        <time>2020-07-08T11:42:57Z</time>
      </trkpt>
      <trkpt lat="47.81944" lon="-3.54476">
        <ele>30.86</ele>
        <time>2020-07-08T11:42:58Z</time>
      </trkpt>
      <trkpt lat="47.81944" lon="-3.54476">
        <ele>30.86</ele>
        <time>2020-07-08T11:42:59Z</time>
      </trkpt>
      <trkpt lat="47.81944" lon="-3.54476">
        <ele>30.86</ele>
        <time>2020-07-08T11:43:00Z</time>
      </trkpt>
      <trkpt lat="47.81944" lon="-3.54476">
        <ele>30.86</ele>
        <time>2020-07-08T11:43:01Z</time>
      </trkpt>
      <trkpt lat="47.81944" lon="-3.54476">
        <ele>30.86</ele>
        <time>2020-07-08T11:43:02Z</time>
      </trkpt>
      <trkpt lat="47.81944" lon="-3.54476">
        <ele>30.86</ele>
        <time>2020-07-08T11:43:03Z</time>
      </trkpt>
      <trkpt lat="47.81944" lon="-3.54476">
        <ele>30.86</ele>
        <time>2020-07-08T11:43:04Z</time>
      </trkpt>
      <trkpt lat="47.81944" lon="-3.54476">
        <ele>30.86</ele>
        <time>2020-07-08T11:43:05Z</time>
      </trkpt>
      <trkpt lat="47.81944" lon="-3.54476">
        <ele>30.86</ele>
        <time>2020-07-08T11:43:06Z</time>
      </trkpt>
      <trkpt lat="47.81944" lon="-3.54476">
        <ele>30.86</ele>
        <time>2020-07-08T11:43:07Z</time>
      </trkpt>
      <trkpt lat="47.81935" lon="-3.54477">
        <ele>32.73</ele>
        <time>2020-07-08T11:43:08Z</time>
      </trkpt>
      <trkpt lat="47.81935" lon="-3.54478">
        <ele>33.21</ele>
        <time>2020-07-08T11:43:09Z</time>
      </trkpt>
      <trkpt lat="47.81935" lon="-3.54479">
        <ele>33.22</ele>
        <time>2020-07-08T11:43:10Z</time>
      </trkpt>
      <trkpt lat="47.81934" lon="-3.5448">
        <ele>33.42</ele>
        <time>2020-07-08T11:43:11Z</time>
      </trkpt>
      <trkpt lat="47.81934" lon="-3.5448">
        <ele>33.47</ele>
        <time>2020-07-08T11:43:12Z</time>
      </trkpt>
      <trkpt lat="47.81934" lon="-3.5448">
        <ele>33.49</ele>
        <time>2020-07-08T11:43:13Z</time>
      </trkpt>
      <trkpt lat="47.81934" lon="-3.5448">
        <ele>33.5</ele>
        <time>2020-07-08T11:43:14Z</time>
      </trkpt>
      <trkpt lat="47.81934" lon="-3.5448">
        <ele>33.5</ele>
        <time>2020-07-08T11:43:15Z</time>
      </trkpt>
      <trkpt lat="47.81934" lon="-3.5448">
        <ele>33.5</ele>
        <time>2020-07-08T11:43:16Z</time>
      </trkpt>
      <trkpt lat="47.81934" lon="-3.5448">
        <ele>33.5</ele>
        <time>2020-07-08T11:43:17Z</time>
      </trkpt>
      <trkpt lat="47.81934" lon="-3.5448">
        <ele>33.5</ele>
        <time>2020-07-08T11:43:18Z</time>
      </trkpt>
      <trkpt lat="47.81929" lon="-3.54486">
        <ele>34.02</ele>
        <time>2020-07-08T11:43:19Z</time>
      </trkpt>
      <trkpt lat="47.81928" lon="-3.54488">
        <ele>34.24</ele>
        <time>2020-07-08T11:43:20Z</time>
      </trkpt>
      <trkpt lat="47.81926" lon="-3.5449">
        <ele>34.51</ele>
        <time>2020-07-08T11:43:21Z</time>
      </trkpt>
      <trkpt lat="47.81924" lon="-3.54491">
        <ele>34.82</ele>
        <time>2020-07-08T11:43:22Z</time>
      </trkpt>
      <trkpt lat="47.81922" lon="-3.54493">
        <ele>35.12</ele>
        <time>2020-07-08T11:43:23Z</time>
      </trkpt>
      <trkpt lat="47.81921" lon="-3.54495">
        <ele>35.43</ele>
        <time>2020-07-08T11:43:24Z</time>
      </trkpt>
      <trkpt lat="47.81919" lon="-3.54497">
        <ele>35.72</ele>
        <time>2020-07-08T11:43:25Z</time>
      </trkpt>
      <trkpt lat="47.81917" lon="-3.54499">
        <ele>35.93</ele>
        <time>2020-07-08T11:43:26Z</time>
      </trkpt>
      <trkpt lat="47.81915" lon="-3.54501">
        <ele>36.18</ele>
        <time>2020-07-08T11:43:27Z</time>
      </trkpt>
      <trkpt lat="47.81913" lon="-3.54504">
        <ele>36.43</ele>
        <time>2020-07-08T11:43:28Z</time>
      </trkpt>
      <trkpt lat="47.81911" lon="-3.54506">
        <ele>36.63</ele>
        <time>2020-07-08T11:43:29Z</time>
      </trkpt>
      <trkpt lat="47.8191" lon="-3.54509">
        <ele>36.81</ele>
        <time>2020-07-08T11:43:30Z</time>
      </trkpt>
      <trkpt lat="47.81908" lon="-3.5451">
        <ele>37.09</ele>
        <time>2020-07-08T11:43:31Z</time>
      </trkpt>
      <trkpt lat="47.81906" lon="-3.54512">
        <ele>37.31</ele>
        <time>2020-07-08T11:43:32Z</time>
      </trkpt>
      <trkpt lat="47.81905" lon="-3.54515">
        <ele>37.48</ele>
        <time>2020-07-08T11:43:33Z</time>
      </trkpt>
      <trkpt lat="47.81903" lon="-3.54517">
        <ele>37.62</ele>
        <time>2020-07-08T11:43:34Z</time>
      </trkpt>
      <trkpt lat="47.81902" lon="-3.54518">
        <ele>37.81</ele>
        <time>2020-07-08T11:43:35Z</time>
      </trkpt>
      <trkpt lat="47.819" lon="-3.5452">
        <ele>37.99</ele>
        <time>2020-07-08T11:43:36Z</time>
      </trkpt>
      <trkpt lat="47.81899" lon="-3.54523">
        <ele>37.94</ele>
        <time>2020-07-08T11:43:37Z</time>
      </trkpt>
      <trkpt lat="47.81898" lon="-3.54525">
        <ele>37.87</ele>
        <time>2020-07-08T11:43:38Z</time>
      </trkpt>
      <trkpt lat="47.81896" lon="-3.54526">
        <ele>38.07</ele>
        <time>2020-07-08T11:43:39Z</time>
      </trkpt>
      <trkpt lat="47.81894" lon="-3.54528">
        <ele>38.32</ele>
        <time>2020-07-08T11:43:40Z</time>
      </trkpt>
      <trkpt lat="47.81893" lon="-3.54529">
        <ele>38.54</ele>
        <time>2020-07-08T11:43:41Z</time>
      </trkpt>
      <trkpt lat="47.81892" lon="-3.5453">
        <ele>38.81</ele>
        <time>2020-07-08T11:43:42Z</time>
      </trkpt>
      <trkpt lat="47.8189" lon="-3.54531">
        <ele>39.14</ele>
        <time>2020-07-08T11:43:43Z</time>
      </trkpt>
      <trkpt lat="47.81889" lon="-3.54533">
        <ele>39.35</ele>
        <time>2020-07-08T11:43:44Z</time>
      </trkpt>
      <trkpt lat="47.81888" lon="-3.54534">
        <ele>39.51</ele>
        <time>2020-07-08T11:43:45Z</time>
      </trkpt>
      <trkpt lat="47.81887" lon="-3.54535">
        <ele>39.63</ele>
        <time>2020-07-08T11:43:46Z</time>
      </trkpt>
      <trkpt lat="47.81886" lon="-3.54536">
        <ele>39.75</ele>
        <time>2020-07-08T11:43:47Z</time>
      </trkpt>
      <trkpt lat="47.81885" lon="-3.54538">
        <ele>39.8</ele>
        <time>2020-07-08T11:43:48Z</time>
      </trkpt>
      <trkpt lat="47.81883" lon="-3.5454">
        <ele>39.9</ele>
        <time>2020-07-08T11:43:49Z</time>
      </trkpt>
      <trkpt lat="47.81883" lon="-3.54541">
        <ele>39.9</ele>
        <time>2020-07-08T11:43:50Z</time>
      </trkpt>
      <trkpt lat="47.81882" lon="-3.54543">
        <ele>39.9</ele>
        <time>2020-07-08T11:43:51Z</time>
      </trkpt>
      <trkpt lat="47.81881" lon="-3.54544">
        <ele>39.92</ele>
        <time>2020-07-08T11:43:52Z</time>
      </trkpt>
      <trkpt lat="47.8188" lon="-3.54546">
        <ele>39.96</ele>
        <time>2020-07-08T11:43:53Z</time>
      </trkpt>
      <trkpt lat="47.8188" lon="-3.54546">
        <ele>39.97</ele>
        <time>2020-07-08T11:43:54Z</time>
      </trkpt>
      <trkpt lat="47.81876" lon="-3.5455">
        <ele>40.3</ele>
        <time>2020-07-08T11:43:55Z</time>
      </trkpt>
      <trkpt lat="47.81874" lon="-3.54553">
        <ele>40.4</ele>
        <time>2020-07-08T11:43:56Z</time>
      </trkpt>
      <trkpt lat="47.81872" lon="-3.54556">
        <ele>40.5</ele>
        <time>2020-07-08T11:43:57Z</time>
      </trkpt>
      <trkpt lat="47.8187" lon="-3.54559">
        <ele>40.73</ele>
        <time>2020-07-08T11:43:58Z</time>
      </trkpt>
      <trkpt lat="47.81869" lon="-3.54561">
        <ele>40.84</ele>
        <time>2020-07-08T11:43:59Z</time>
      </trkpt>
      <trkpt lat="47.81867" lon="-3.54563">
        <ele>40.93</ele>
        <time>2020-07-08T11:44:00Z</time>
      </trkpt>
      <trkpt lat="47.81866" lon="-3.54565">
        <ele>40.97</ele>
        <time>2020-07-08T11:44:01Z</time>
      </trkpt>
      <trkpt lat="47.81865" lon="-3.54566">
        <ele>41.01</ele>
        <time>2020-07-08T11:44:02Z</time>
      </trkpt>
      <trkpt lat="47.81864" lon="-3.54568">
        <ele>41.04</ele>
        <time>2020-07-08T11:44:03Z</time>
      </trkpt>
      <trkpt lat="47.81864" lon="-3.54568">
        <ele>41.04</ele>
        <time>2020-07-08T11:44:04Z</time>
      </trkpt>
      <trkpt lat="47.81861" lon="-3.54572">
        <ele>41.24</ele>
        <time>2020-07-08T11:44:05Z</time>
      </trkpt>
      <trkpt lat="47.81859" lon="-3.54573">
        <ele>41.34</ele>
        <time>2020-07-08T11:44:06Z</time>
      </trkpt>
      <trkpt lat="47.81856" lon="-3.54575">
        <ele>41.45</ele>
        <time>2020-07-08T11:44:07Z</time>
      </trkpt>
      <trkpt lat="47.81854" lon="-3.54578">
        <ele>41.52</ele>
        <time>2020-07-08T11:44:08Z</time>
      </trkpt>
      <trkpt lat="47.81852" lon="-3.5458">
        <ele>41.57</ele>
        <time>2020-07-08T11:44:09Z</time>
      </trkpt>
      <trkpt lat="47.8185" lon="-3.54583">
        <ele>41.65</ele>
        <time>2020-07-08T11:44:10Z</time>
      </trkpt>
      <trkpt lat="47.81847" lon="-3.54584">
        <ele>41.87</ele>
        <time>2020-07-08T11:44:11Z</time>
      </trkpt>
      <trkpt lat="47.81845" lon="-3.54587">
        <ele>42.01</ele>
        <time>2020-07-08T11:44:12Z</time>
      </trkpt>
      <trkpt lat="47.81843" lon="-3.54589">
        <ele>42.16</ele>
        <time>2020-07-08T11:44:13Z</time>
      </trkpt>
      <trkpt lat="47.81841" lon="-3.54589">
        <ele>42.39</ele>
        <time>2020-07-08T11:44:14Z</time>
      </trkpt>
      <trkpt lat="47.81839" lon="-3.54589">
        <ele>42.6</ele>
        <time>2020-07-08T11:44:15Z</time>
      </trkpt>
      <trkpt lat="47.81838" lon="-3.54591">
        <ele>42.74</ele>
        <time>2020-07-08T11:44:16Z</time>
      </trkpt>
      <trkpt lat="47.81837" lon="-3.54592">
        <ele>42.79</ele>
        <time>2020-07-08T11:44:17Z</time>
      </trkpt>
      <trkpt lat="47.81837" lon="-3.54592">
        <ele>42.8</ele>
        <time>2020-07-08T11:44:18Z</time>
      </trkpt>
      <trkpt lat="47.81837" lon="-3.54592">
        <ele>42.8</ele>
        <time>2020-07-08T11:44:19Z</time>
      </trkpt>
      <trkpt lat="47.81837" lon="-3.54592">
        <ele>42.81</ele>
        <time>2020-07-08T11:44:20Z</time>
      </trkpt>
      <trkpt lat="47.81837" lon="-3.54592">
        <ele>42.81</ele>
        <time>2020-07-08T11:44:21Z</time>
      </trkpt>
      <trkpt lat="47.81837" lon="-3.54592">
        <ele>42.81</ele>
        <time>2020-07-08T11:44:22Z</time>
      </trkpt>
      <trkpt lat="47.81837" lon="-3.54592">
        <ele>42.81</ele>
        <time>2020-07-08T11:44:23Z</time>
      </trkpt>
      <trkpt lat="47.81837" lon="-3.54592">
        <ele>42.81</ele>
        <time>2020-07-08T11:44:24Z</time>
      </trkpt>
      <trkpt lat="47.81837" lon="-3.54592">
        <ele>42.81</ele>
        <time>2020-07-08T11:44:25Z</time>
      </trkpt>
      <trkpt lat="47.81829" lon="-3.546">
        <ele>42.87</ele>
        <time>2020-07-08T11:44:26Z</time>
      </trkpt>
      <trkpt lat="47.81829" lon="-3.54601">
        <ele>42.86</ele>
        <time>2020-07-08T11:44:27Z</time>
      </trkpt>
      <trkpt lat="47.81828" lon="-3.54602">
        <ele>42.83</ele>
        <time>2020-07-08T11:44:28Z</time>
      </trkpt>
      <trkpt lat="47.81827" lon="-3.54603">
        <ele>42.77</ele>
        <time>2020-07-08T11:44:29Z</time>
      </trkpt>
      <trkpt lat="47.81827" lon="-3.54603">
        <ele>42.76</ele>
        <time>2020-07-08T11:44:30Z</time>
      </trkpt>
      <trkpt lat="47.81825" lon="-3.54605">
        <ele>42.69</ele>
        <time>2020-07-08T11:44:31Z</time>
      </trkpt>
      <trkpt lat="47.81823" lon="-3.54607">
        <ele>42.64</ele>
        <time>2020-07-08T11:44:32Z</time>
      </trkpt>
      <trkpt lat="47.81822" lon="-3.54608">
        <ele>42.6</ele>
        <time>2020-07-08T11:44:33Z</time>
      </trkpt>
      <trkpt lat="47.8182" lon="-3.54609">
        <ele>42.58</ele>
        <time>2020-07-08T11:44:34Z</time>
      </trkpt>
      <trkpt lat="47.81818" lon="-3.54612">
        <ele>42.52</ele>
        <time>2020-07-08T11:44:35Z</time>
      </trkpt>
      <trkpt lat="47.81817" lon="-3.54613">
        <ele>42.42</ele>
        <time>2020-07-08T11:44:36Z</time>
      </trkpt>
      <trkpt lat="47.81816" lon="-3.54616">
        <ele>42.3</ele>
        <time>2020-07-08T11:44:37Z</time>
      </trkpt>
      <trkpt lat="47.81814" lon="-3.54618">
        <ele>42.16</ele>
        <time>2020-07-08T11:44:38Z</time>
      </trkpt>
      <trkpt lat="47.81812" lon="-3.54621">
        <ele>42.04</ele>
        <time>2020-07-08T11:44:39Z</time>
      </trkpt>
      <trkpt lat="47.81809" lon="-3.54624">
        <ele>41.91</ele>
        <time>2020-07-08T11:44:40Z</time>
      </trkpt>
      <trkpt lat="47.81807" lon="-3.54626">
        <ele>41.84</ele>
        <time>2020-07-08T11:44:41Z</time>
      </trkpt>
      <trkpt lat="47.81805" lon="-3.54628">
        <ele>41.83</ele>
        <time>2020-07-08T11:44:42Z</time>
      </trkpt>
      <trkpt lat="47.81803" lon="-3.54632">
        <ele>41.81</ele>
        <time>2020-07-08T11:44:43Z</time>
      </trkpt>
      <trkpt lat="47.818" lon="-3.54634">
        <ele>41.83</ele>
        <time>2020-07-08T11:44:44Z</time>
      </trkpt>
      <trkpt lat="47.81799" lon="-3.54636">
        <ele>41.88</ele>
        <time>2020-07-08T11:44:45Z</time>
      </trkpt>
      <trkpt lat="47.81796" lon="-3.54639">
        <ele>42</ele>
        <time>2020-07-08T11:44:46Z</time>
      </trkpt>
      <trkpt lat="47.81793" lon="-3.54642">
        <ele>42.14</ele>
        <time>2020-07-08T11:44:47Z</time>
      </trkpt>
      <trkpt lat="47.81791" lon="-3.54644">
        <ele>42.29</ele>
        <time>2020-07-08T11:44:48Z</time>
      </trkpt>
      <trkpt lat="47.81789" lon="-3.54647">
        <ele>42.41</ele>
        <time>2020-07-08T11:44:49Z</time>
      </trkpt>
      <trkpt lat="47.81788" lon="-3.5465">
        <ele>42.49</ele>
        <time>2020-07-08T11:44:50Z</time>
      </trkpt>
      <trkpt lat="47.81786" lon="-3.54653">
        <ele>42.57</ele>
        <time>2020-07-08T11:44:51Z</time>
      </trkpt>
      <trkpt lat="47.81784" lon="-3.54656">
        <ele>42.65</ele>
        <time>2020-07-08T11:44:52Z</time>
      </trkpt>
      <trkpt lat="47.81783" lon="-3.54658">
        <ele>42.73</ele>
        <time>2020-07-08T11:44:53Z</time>
      </trkpt>
      <trkpt lat="47.81781" lon="-3.5466">
        <ele>42.85</ele>
        <time>2020-07-08T11:44:54Z</time>
      </trkpt>
      <trkpt lat="47.81779" lon="-3.54661">
        <ele>43</ele>
        <time>2020-07-08T11:44:55Z</time>
      </trkpt>
      <trkpt lat="47.81777" lon="-3.54663">
        <ele>43.1</ele>
        <time>2020-07-08T11:44:56Z</time>
      </trkpt>
      <trkpt lat="47.81776" lon="-3.54665">
        <ele>43.12</ele>
        <time>2020-07-08T11:44:57Z</time>
      </trkpt>
      <trkpt lat="47.81773" lon="-3.54668">
        <ele>43.08</ele>
        <time>2020-07-08T11:44:58Z</time>
      </trkpt>
      <trkpt lat="47.8177" lon="-3.54671">
        <ele>43.05</ele>
        <time>2020-07-08T11:44:59Z</time>
      </trkpt>
      <trkpt lat="47.81768" lon="-3.54674">
        <ele>42.97</ele>
        <time>2020-07-08T11:45:00Z</time>
      </trkpt>
      <trkpt lat="47.81767" lon="-3.54676">
        <ele>42.89</ele>
        <time>2020-07-08T11:45:01Z</time>
      </trkpt>
      <trkpt lat="47.81765" lon="-3.54679">
        <ele>42.81</ele>
        <time>2020-07-08T11:45:02Z</time>
      </trkpt>
      <trkpt lat="47.81762" lon="-3.54681">
        <ele>42.8</ele>
        <time>2020-07-08T11:45:03Z</time>
      </trkpt>
      <trkpt lat="47.8176" lon="-3.54684">
        <ele>42.82</ele>
        <time>2020-07-08T11:45:04Z</time>
      </trkpt>
      <trkpt lat="47.81757" lon="-3.54687">
        <ele>42.84</ele>
        <time>2020-07-08T11:45:05Z</time>
      </trkpt>
      <trkpt lat="47.81754" lon="-3.5469">
        <ele>42.86</ele>
        <time>2020-07-08T11:45:06Z</time>
      </trkpt>
      <trkpt lat="47.81751" lon="-3.54694">
        <ele>42.9</ele>
        <time>2020-07-08T11:45:07Z</time>
      </trkpt>
      <trkpt lat="47.81748" lon="-3.54698">
        <ele>42.86</ele>
        <time>2020-07-08T11:45:08Z</time>
      </trkpt>
      <trkpt lat="47.81744" lon="-3.54701">
        <ele>42.81</ele>
        <time>2020-07-08T11:45:09Z</time>
      </trkpt>
      <trkpt lat="47.81741" lon="-3.54704">
        <ele>42.76</ele>
        <time>2020-07-08T11:45:10Z</time>
      </trkpt>
      <trkpt lat="47.81737" lon="-3.54707">
        <ele>42.73</ele>
        <time>2020-07-08T11:45:11Z</time>
      </trkpt>
      <trkpt lat="47.81735" lon="-3.5471">
        <ele>42.75</ele>
        <time>2020-07-08T11:45:12Z</time>
      </trkpt>
      <trkpt lat="47.81731" lon="-3.5471">
        <ele>42.87</ele>
        <time>2020-07-08T11:45:13Z</time>
      </trkpt>
      <trkpt lat="47.81729" lon="-3.54709">
        <ele>43.04</ele>
        <time>2020-07-08T11:45:14Z</time>
      </trkpt>
      <trkpt lat="47.81726" lon="-3.54708">
        <ele>43.23</ele>
        <time>2020-07-08T11:45:15Z</time>
      </trkpt>
      <trkpt lat="47.81724" lon="-3.54706">
        <ele>43.41</ele>
        <time>2020-07-08T11:45:16Z</time>
      </trkpt>
      <trkpt lat="47.81721" lon="-3.54704">
        <ele>43.6</ele>
        <time>2020-07-08T11:45:17Z</time>
      </trkpt>
      <trkpt lat="47.8172" lon="-3.54702">
        <ele>43.77</ele>
        <time>2020-07-08T11:45:18Z</time>
      </trkpt>
      <trkpt lat="47.81718" lon="-3.547">
        <ele>43.92</ele>
        <time>2020-07-08T11:45:19Z</time>
      </trkpt>
      <trkpt lat="47.81716" lon="-3.54698">
        <ele>44.06</ele>
        <time>2020-07-08T11:45:20Z</time>
      </trkpt>
      <trkpt lat="47.81713" lon="-3.54697">
        <ele>44.21</ele>
        <time>2020-07-08T11:45:21Z</time>
      </trkpt>
      <trkpt lat="47.81711" lon="-3.54695">
        <ele>44.33</ele>
        <time>2020-07-08T11:45:22Z</time>
      </trkpt>
      <trkpt lat="47.81708" lon="-3.54694">
        <ele>44.46</ele>
        <time>2020-07-08T11:45:23Z</time>
      </trkpt>
      <trkpt lat="47.81706" lon="-3.54692">
        <ele>44.55</ele>
        <time>2020-07-08T11:45:24Z</time>
      </trkpt>
      <trkpt lat="47.81704" lon="-3.54689">
        <ele>44.63</ele>
        <time>2020-07-08T11:45:25Z</time>
      </trkpt>
      <trkpt lat="47.81701" lon="-3.54686">
        <ele>44.71</ele>
        <time>2020-07-08T11:45:26Z</time>
      </trkpt>
      <trkpt lat="47.817" lon="-3.54684">
        <ele>44.78</ele>
        <time>2020-07-08T11:45:27Z</time>
      </trkpt>
      <trkpt lat="47.81698" lon="-3.54682">
        <ele>44.85</ele>
        <time>2020-07-08T11:45:28Z</time>
      </trkpt>
      <trkpt lat="47.81696" lon="-3.5468">
        <ele>44.92</ele>
        <time>2020-07-08T11:45:29Z</time>
      </trkpt>
      <trkpt lat="47.81694" lon="-3.54679">
        <ele>44.99</ele>
        <time>2020-07-08T11:45:30Z</time>
      </trkpt>
      <trkpt lat="47.81692" lon="-3.54677">
        <ele>45.06</ele>
        <time>2020-07-08T11:45:31Z</time>
      </trkpt>
      <trkpt lat="47.81689" lon="-3.54675">
        <ele>45.15</ele>
        <time>2020-07-08T11:45:32Z</time>
      </trkpt>
      <trkpt lat="47.81685" lon="-3.54671">
        <ele>45.27</ele>
        <time>2020-07-08T11:45:33Z</time>
      </trkpt>
      <trkpt lat="47.81683" lon="-3.54668">
        <ele>45.38</ele>
        <time>2020-07-08T11:45:34Z</time>
      </trkpt>
      <trkpt lat="47.8168" lon="-3.54665">
        <ele>45.48</ele>
        <time>2020-07-08T11:45:35Z</time>
      </trkpt>
      <trkpt lat="47.81678" lon="-3.54662">
        <ele>45.56</ele>
        <time>2020-07-08T11:45:36Z</time>
      </trkpt>
      <trkpt lat="47.81676" lon="-3.54658">
        <ele>45.64</ele>
        <time>2020-07-08T11:45:37Z</time>
      </trkpt>
      <trkpt lat="47.81672" lon="-3.54653">
        <ele>45.76</ele>
        <time>2020-07-08T11:45:38Z</time>
      </trkpt>
      <trkpt lat="47.8167" lon="-3.54649">
        <ele>45.85</ele>
        <time>2020-07-08T11:45:39Z</time>
      </trkpt>
      <trkpt lat="47.81668" lon="-3.54645">
        <ele>45.93</ele>
        <time>2020-07-08T11:45:40Z</time>
      </trkpt>
      <trkpt lat="47.81666" lon="-3.54642">
        <ele>45.98</ele>
        <time>2020-07-08T11:45:41Z</time>
      </trkpt>
      <trkpt lat="47.81663" lon="-3.54639">
        <ele>45.99</ele>
        <time>2020-07-08T11:45:42Z</time>
      </trkpt>
      <trkpt lat="47.81661" lon="-3.54636">
        <ele>46.01</ele>
        <time>2020-07-08T11:45:43Z</time>
      </trkpt>
      <trkpt lat="47.81659" lon="-3.54634">
        <ele>46.04</ele>
        <time>2020-07-08T11:45:44Z</time>
      </trkpt>
      <trkpt lat="47.81658" lon="-3.54631">
        <ele>46.08</ele>
        <time>2020-07-08T11:45:45Z</time>
      </trkpt>
      <trkpt lat="47.81656" lon="-3.54627">
        <ele>46.14</ele>
        <time>2020-07-08T11:45:46Z</time>
      </trkpt>
      <trkpt lat="47.81654" lon="-3.54624">
        <ele>46.22</ele>
        <time>2020-07-08T11:45:47Z</time>
      </trkpt>
      <trkpt lat="47.81652" lon="-3.54621">
        <ele>46.31</ele>
        <time>2020-07-08T11:45:48Z</time>
      </trkpt>
      <trkpt lat="47.8165" lon="-3.54618">
        <ele>46.42</ele>
        <time>2020-07-08T11:45:49Z</time>
      </trkpt>
      <trkpt lat="47.81648" lon="-3.54613">
        <ele>46.56</ele>
        <time>2020-07-08T11:45:50Z</time>
      </trkpt>
      <trkpt lat="47.81646" lon="-3.5461">
        <ele>46.73</ele>
        <time>2020-07-08T11:45:51Z</time>
      </trkpt>
      <trkpt lat="47.81644" lon="-3.54605">
        <ele>46.91</ele>
        <time>2020-07-08T11:45:52Z</time>
      </trkpt>
      <trkpt lat="47.81642" lon="-3.54601">
        <ele>47.14</ele>
        <time>2020-07-08T11:45:53Z</time>
      </trkpt>
      <trkpt lat="47.8164" lon="-3.54597">
        <ele>47.38</ele>
        <time>2020-07-08T11:45:54Z</time>
      </trkpt>
      <trkpt lat="47.81638" lon="-3.54594">
        <ele>47.58</ele>
        <time>2020-07-08T11:45:55Z</time>
      </trkpt>
      <trkpt lat="47.81635" lon="-3.5459">
        <ele>47.79</ele>
        <time>2020-07-08T11:45:56Z</time>
      </trkpt>
      <trkpt lat="47.81632" lon="-3.54587">
        <ele>48.01</ele>
        <time>2020-07-08T11:45:57Z</time>
      </trkpt>
      <trkpt lat="47.8163" lon="-3.54583">
        <ele>48.21</ele>
        <time>2020-07-08T11:45:58Z</time>
      </trkpt>
      <trkpt lat="47.81628" lon="-3.5458">
        <ele>48.33</ele>
        <time>2020-07-08T11:45:59Z</time>
      </trkpt>
      <trkpt lat="47.81625" lon="-3.54577">
        <ele>48.44</ele>
        <time>2020-07-08T11:46:00Z</time>
      </trkpt>
      <trkpt lat="47.81624" lon="-3.54573">
        <ele>48.52</ele>
        <time>2020-07-08T11:46:01Z</time>
      </trkpt>
      <trkpt lat="47.81622" lon="-3.5457">
        <ele>48.58</ele>
        <time>2020-07-08T11:46:02Z</time>
      </trkpt>
      <trkpt lat="47.81619" lon="-3.54566">
        <ele>48.67</ele>
        <time>2020-07-08T11:46:03Z</time>
      </trkpt>
      <trkpt lat="47.81617" lon="-3.54562">
        <ele>48.75</ele>
        <time>2020-07-08T11:46:04Z</time>
      </trkpt>
      <trkpt lat="47.81614" lon="-3.54559">
        <ele>48.84</ele>
        <time>2020-07-08T11:46:05Z</time>
      </trkpt>
      <trkpt lat="47.81612" lon="-3.54555">
        <ele>48.95</ele>
        <time>2020-07-08T11:46:06Z</time>
      </trkpt>
      <trkpt lat="47.81609" lon="-3.54552">
        <ele>49.14</ele>
        <time>2020-07-08T11:46:07Z</time>
      </trkpt>
      <trkpt lat="47.81606" lon="-3.54549">
        <ele>49.29</ele>
        <time>2020-07-08T11:46:08Z</time>
      </trkpt>
      <trkpt lat="47.81604" lon="-3.54545">
        <ele>49.46</ele>
        <time>2020-07-08T11:46:09Z</time>
      </trkpt>
      <trkpt lat="47.81601" lon="-3.54541">
        <ele>49.62</ele>
        <time>2020-07-08T11:46:10Z</time>
      </trkpt>
      <trkpt lat="47.81598" lon="-3.54536">
        <ele>49.77</ele>
        <time>2020-07-08T11:46:11Z</time>
      </trkpt>
      <trkpt lat="47.81595" lon="-3.54532">
        <ele>49.89</ele>
        <time>2020-07-08T11:46:12Z</time>
      </trkpt>
      <trkpt lat="47.81592" lon="-3.54528">
        <ele>49.96</ele>
        <time>2020-07-08T11:46:13Z</time>
      </trkpt>
      <trkpt lat="47.81589" lon="-3.54524">
        <ele>49.99</ele>
        <time>2020-07-08T11:46:14Z</time>
      </trkpt>
      <trkpt lat="47.81586" lon="-3.54521">
        <ele>50</ele>
        <time>2020-07-08T11:46:15Z</time>
      </trkpt>
      <trkpt lat="47.81584" lon="-3.54519">
        <ele>50</ele>
        <time>2020-07-08T11:46:16Z</time>
      </trkpt>
      <trkpt lat="47.81581" lon="-3.54517">
        <ele>50</ele>
        <time>2020-07-08T11:46:17Z</time>
      </trkpt>
      <trkpt lat="47.81578" lon="-3.54514">
        <ele>50</ele>
        <time>2020-07-08T11:46:18Z</time>
      </trkpt>
      <trkpt lat="47.81575" lon="-3.54512">
        <ele>50</ele>
        <time>2020-07-08T11:46:19Z</time>
      </trkpt>
      <trkpt lat="47.81572" lon="-3.5451">
        <ele>50</ele>
        <time>2020-07-08T11:46:20Z</time>
      </trkpt>
      <trkpt lat="47.81569" lon="-3.54508">
        <ele>50</ele>
        <time>2020-07-08T11:46:21Z</time>
      </trkpt>
      <trkpt lat="47.81566" lon="-3.54506">
        <ele>50</ele>
        <time>2020-07-08T11:46:22Z</time>
      </trkpt>
      <trkpt lat="47.81563" lon="-3.54503">
        <ele>50</ele>
        <time>2020-07-08T11:46:23Z</time>
      </trkpt>
      <trkpt lat="47.8156" lon="-3.545">
        <ele>50</ele>
        <time>2020-07-08T11:46:24Z</time>
      </trkpt>
      <trkpt lat="47.81557" lon="-3.54496">
        <ele>50</ele>
        <time>2020-07-08T11:46:25Z</time>
      </trkpt>
      <trkpt lat="47.81554" lon="-3.54494">
        <ele>49.97</ele>
        <time>2020-07-08T11:46:26Z</time>
      </trkpt>
      <trkpt lat="47.81551" lon="-3.54491">
        <ele>49.89</ele>
        <time>2020-07-08T11:46:27Z</time>
      </trkpt>
      <trkpt lat="47.81548" lon="-3.54487">
        <ele>49.78</ele>
        <time>2020-07-08T11:46:28Z</time>
      </trkpt>
      <trkpt lat="47.81545" lon="-3.54484">
        <ele>49.66</ele>
        <time>2020-07-08T11:46:29Z</time>
      </trkpt>
      <trkpt lat="47.81542" lon="-3.54481">
        <ele>49.56</ele>
        <time>2020-07-08T11:46:30Z</time>
      </trkpt>
      <trkpt lat="47.8154" lon="-3.54477">
        <ele>49.47</ele>
        <time>2020-07-08T11:46:31Z</time>
      </trkpt>
      <trkpt lat="47.81537" lon="-3.54473">
        <ele>49.39</ele>
        <time>2020-07-08T11:46:32Z</time>
      </trkpt>
      <trkpt lat="47.81536" lon="-3.5447">
        <ele>49.32</ele>
        <time>2020-07-08T11:46:33Z</time>
      </trkpt>
      <trkpt lat="47.81535" lon="-3.54467">
        <ele>49.27</ele>
        <time>2020-07-08T11:46:34Z</time>
      </trkpt>
      <trkpt lat="47.81534" lon="-3.54464">
        <ele>49.24</ele>
        <time>2020-07-08T11:46:35Z</time>
      </trkpt>
      <trkpt lat="47.81534" lon="-3.5446">
        <ele>49.22</ele>
        <time>2020-07-08T11:46:36Z</time>
      </trkpt>
      <trkpt lat="47.81533" lon="-3.54457">
        <ele>49.19</ele>
        <time>2020-07-08T11:46:37Z</time>
      </trkpt>
      <trkpt lat="47.81531" lon="-3.54454">
        <ele>49.14</ele>
        <time>2020-07-08T11:46:38Z</time>
      </trkpt>
      <trkpt lat="47.81528" lon="-3.54453">
        <ele>49.04</ele>
        <time>2020-07-08T11:46:39Z</time>
      </trkpt>
      <trkpt lat="47.81525" lon="-3.54452">
        <ele>48.96</ele>
        <time>2020-07-08T11:46:40Z</time>
      </trkpt>
      <trkpt lat="47.81521" lon="-3.5445">
        <ele>48.85</ele>
        <time>2020-07-08T11:46:41Z</time>
      </trkpt>
      <trkpt lat="47.81518" lon="-3.54448">
        <ele>48.75</ele>
        <time>2020-07-08T11:46:42Z</time>
      </trkpt>
      <trkpt lat="47.81517" lon="-3.54444">
        <ele>48.64</ele>
        <time>2020-07-08T11:46:43Z</time>
      </trkpt>
      <trkpt lat="47.81515" lon="-3.5444">
        <ele>48.57</ele>
        <time>2020-07-08T11:46:44Z</time>
      </trkpt>
      <trkpt lat="47.81514" lon="-3.54435">
        <ele>48.52</ele>
        <time>2020-07-08T11:46:45Z</time>
      </trkpt>
      <trkpt lat="47.81513" lon="-3.5443">
        <ele>48.48</ele>
        <time>2020-07-08T11:46:46Z</time>
      </trkpt>
      <trkpt lat="47.81512" lon="-3.54425">
        <ele>48.44</ele>
        <time>2020-07-08T11:46:47Z</time>
      </trkpt>
      <trkpt lat="47.81511" lon="-3.54421">
        <ele>48.4</ele>
        <time>2020-07-08T11:46:48Z</time>
      </trkpt>
      <trkpt lat="47.81509" lon="-3.54416">
        <ele>48.34</ele>
        <time>2020-07-08T11:46:49Z</time>
      </trkpt>
      <trkpt lat="47.81507" lon="-3.54412">
        <ele>48.28</ele>
        <time>2020-07-08T11:46:50Z</time>
      </trkpt>
      <trkpt lat="47.81506" lon="-3.54407">
        <ele>48.23</ele>
        <time>2020-07-08T11:46:51Z</time>
      </trkpt>
      <trkpt lat="47.81504" lon="-3.54402">
        <ele>48.16</ele>
        <time>2020-07-08T11:46:52Z</time>
      </trkpt>
      <trkpt lat="47.81501" lon="-3.54394">
        <ele>48.07</ele>
        <time>2020-07-08T11:46:53Z</time>
      </trkpt>
      <trkpt lat="47.81498" lon="-3.54388">
        <ele>47.91</ele>
        <time>2020-07-08T11:46:54Z</time>
      </trkpt>
      <trkpt lat="47.81497" lon="-3.54382">
        <ele>47.63</ele>
        <time>2020-07-08T11:46:55Z</time>
      </trkpt>
      <trkpt lat="47.81494" lon="-3.54377">
        <ele>47.35</ele>
        <time>2020-07-08T11:46:56Z</time>
      </trkpt>
      <trkpt lat="47.81491" lon="-3.54373">
        <ele>47.09</ele>
        <time>2020-07-08T11:46:57Z</time>
      </trkpt>
      <trkpt lat="47.81488" lon="-3.54368">
        <ele>46.81</ele>
        <time>2020-07-08T11:46:58Z</time>
      </trkpt>
      <trkpt lat="47.81484" lon="-3.54363">
        <ele>46.56</ele>
        <time>2020-07-08T11:46:59Z</time>
      </trkpt>
      <trkpt lat="47.81479" lon="-3.54359">
        <ele>46.33</ele>
        <time>2020-07-08T11:47:00Z</time>
      </trkpt>
      <trkpt lat="47.81474" lon="-3.54355">
        <ele>46.14</ele>
        <time>2020-07-08T11:47:01Z</time>
      </trkpt>
      <trkpt lat="47.81468" lon="-3.54351">
        <ele>45.94</ele>
        <time>2020-07-08T11:47:02Z</time>
      </trkpt>
      <trkpt lat="47.81464" lon="-3.54347">
        <ele>45.77</ele>
        <time>2020-07-08T11:47:03Z</time>
      </trkpt>
      <trkpt lat="47.81459" lon="-3.54342">
        <ele>45.6</ele>
        <time>2020-07-08T11:47:04Z</time>
      </trkpt>
      <trkpt lat="47.81453" lon="-3.54336">
        <ele>45.41</ele>
        <time>2020-07-08T11:47:05Z</time>
      </trkpt>
      <trkpt lat="47.81449" lon="-3.54329">
        <ele>45.24</ele>
        <time>2020-07-08T11:47:06Z</time>
      </trkpt>
      <trkpt lat="47.81445" lon="-3.54322">
        <ele>45.08</ele>
        <time>2020-07-08T11:47:07Z</time>
      </trkpt>
      <trkpt lat="47.81441" lon="-3.54317">
        <ele>45.02</ele>
        <time>2020-07-08T11:47:08Z</time>
      </trkpt>
      <trkpt lat="47.81439" lon="-3.54311">
        <ele>45.01</ele>
        <time>2020-07-08T11:47:09Z</time>
      </trkpt>
      <trkpt lat="47.81437" lon="-3.54307">
        <ele>45</ele>
        <time>2020-07-08T11:47:10Z</time>
      </trkpt>
      <trkpt lat="47.81435" lon="-3.54303">
        <ele>45</ele>
        <time>2020-07-08T11:47:11Z</time>
      </trkpt>
      <trkpt lat="47.81434" lon="-3.54299">
        <ele>45</ele>
        <time>2020-07-08T11:47:12Z</time>
      </trkpt>
      <trkpt lat="47.81433" lon="-3.54296">
        <ele>45</ele>
        <time>2020-07-08T11:47:13Z</time>
      </trkpt>
      <trkpt lat="47.81432" lon="-3.54292">
        <ele>45</ele>
        <time>2020-07-08T11:47:14Z</time>
      </trkpt>
      <trkpt lat="47.8143" lon="-3.54288">
        <ele>45</ele>
        <time>2020-07-08T11:47:15Z</time>
      </trkpt>
      <trkpt lat="47.81429" lon="-3.54285">
        <ele>45</ele>
        <time>2020-07-08T11:47:16Z</time>
      </trkpt>
      <trkpt lat="47.81427" lon="-3.54282">
        <ele>45</ele>
        <time>2020-07-08T11:47:17Z</time>
      </trkpt>
      <trkpt lat="47.81426" lon="-3.54278">
        <ele>45</ele>
        <time>2020-07-08T11:47:18Z</time>
      </trkpt>
      <trkpt lat="47.81425" lon="-3.54273">
        <ele>45.08</ele>
        <time>2020-07-08T11:47:19Z</time>
      </trkpt>
      <trkpt lat="47.81425" lon="-3.54268">
        <ele>45.2</ele>
        <time>2020-07-08T11:47:20Z</time>
      </trkpt>
      <trkpt lat="47.81423" lon="-3.54264">
        <ele>45.33</ele>
        <time>2020-07-08T11:47:21Z</time>
      </trkpt>
      <trkpt lat="47.81422" lon="-3.54259">
        <ele>45.47</ele>
        <time>2020-07-08T11:47:22Z</time>
      </trkpt>
      <trkpt lat="47.8142" lon="-3.54256">
        <ele>45.62</ele>
        <time>2020-07-08T11:47:23Z</time>
      </trkpt>
      <trkpt lat="47.81419" lon="-3.54251">
        <ele>45.8</ele>
        <time>2020-07-08T11:47:24Z</time>
      </trkpt>
      <trkpt lat="47.81418" lon="-3.54247">
        <ele>45.91</ele>
        <time>2020-07-08T11:47:25Z</time>
      </trkpt>
      <trkpt lat="47.81417" lon="-3.54243">
        <ele>45.97</ele>
        <time>2020-07-08T11:47:26Z</time>
      </trkpt>
      <trkpt lat="47.81415" lon="-3.5424">
        <ele>46.02</ele>
        <time>2020-07-08T11:47:27Z</time>
      </trkpt>
      <trkpt lat="47.81413" lon="-3.54235">
        <ele>46.1</ele>
        <time>2020-07-08T11:47:28Z</time>
      </trkpt>
      <trkpt lat="47.81412" lon="-3.54232">
        <ele>46.16</ele>
        <time>2020-07-08T11:47:29Z</time>
      </trkpt>
      <trkpt lat="47.81411" lon="-3.54228">
        <ele>46.19</ele>
        <time>2020-07-08T11:47:30Z</time>
      </trkpt>
      <trkpt lat="47.81409" lon="-3.54223">
        <ele>46.24</ele>
        <time>2020-07-08T11:47:31Z</time>
      </trkpt>
      <trkpt lat="47.81408" lon="-3.54219">
        <ele>46.29</ele>
        <time>2020-07-08T11:47:32Z</time>
      </trkpt>
      <trkpt lat="47.81406" lon="-3.54215">
        <ele>46.35</ele>
        <time>2020-07-08T11:47:33Z</time>
      </trkpt>
      <trkpt lat="47.81405" lon="-3.54211">
        <ele>46.4</ele>
        <time>2020-07-08T11:47:34Z</time>
      </trkpt>
      <trkpt lat="47.81404" lon="-3.54207">
        <ele>46.44</ele>
        <time>2020-07-08T11:47:35Z</time>
      </trkpt>
      <trkpt lat="47.81403" lon="-3.54202">
        <ele>46.48</ele>
        <time>2020-07-08T11:47:36Z</time>
      </trkpt>
      <trkpt lat="47.81402" lon="-3.54197">
        <ele>46.51</ele>
        <time>2020-07-08T11:47:37Z</time>
      </trkpt>
      <trkpt lat="47.81401" lon="-3.54192">
        <ele>46.55</ele>
        <time>2020-07-08T11:47:38Z</time>
      </trkpt>
      <trkpt lat="47.814" lon="-3.54188">
        <ele>46.58</ele>
        <time>2020-07-08T11:47:39Z</time>
      </trkpt>
      <trkpt lat="47.81399" lon="-3.54183">
        <ele>46.62</ele>
        <time>2020-07-08T11:47:40Z</time>
      </trkpt>
      <trkpt lat="47.81398" lon="-3.54178">
        <ele>46.65</ele>
        <time>2020-07-08T11:47:41Z</time>
      </trkpt>
      <trkpt lat="47.81397" lon="-3.54174">
        <ele>46.69</ele>
        <time>2020-07-08T11:47:42Z</time>
      </trkpt>
      <trkpt lat="47.81396" lon="-3.5417">
        <ele>46.71</ele>
        <time>2020-07-08T11:47:43Z</time>
      </trkpt>
      <trkpt lat="47.81395" lon="-3.54166">
        <ele>46.75</ele>
        <time>2020-07-08T11:47:44Z</time>
      </trkpt>
      <trkpt lat="47.81392" lon="-3.54163">
        <ele>46.76</ele>
        <time>2020-07-08T11:47:45Z</time>
      </trkpt>
      <trkpt lat="47.81389" lon="-3.54161">
        <ele>46.79</ele>
        <time>2020-07-08T11:47:46Z</time>
      </trkpt>
      <trkpt lat="47.81384" lon="-3.54157">
        <ele>46.82</ele>
        <time>2020-07-08T11:47:47Z</time>
      </trkpt>
      <trkpt lat="47.8138" lon="-3.54156">
        <ele>46.89</ele>
        <time>2020-07-08T11:47:48Z</time>
      </trkpt>
      <trkpt lat="47.81375" lon="-3.54154">
        <ele>46.99</ele>
        <time>2020-07-08T11:47:49Z</time>
      </trkpt>
      <trkpt lat="47.81371" lon="-3.54152">
        <ele>47.09</ele>
        <time>2020-07-08T11:47:50Z</time>
      </trkpt>
      <trkpt lat="47.81368" lon="-3.54151">
        <ele>47.17</ele>
        <time>2020-07-08T11:47:51Z</time>
      </trkpt>
      <trkpt lat="47.81364" lon="-3.54149">
        <ele>47.25</ele>
        <time>2020-07-08T11:47:52Z</time>
      </trkpt>
      <trkpt lat="47.81361" lon="-3.54149">
        <ele>47.32</ele>
        <time>2020-07-08T11:47:53Z</time>
      </trkpt>
      <trkpt lat="47.81358" lon="-3.54147">
        <ele>47.36</ele>
        <time>2020-07-08T11:47:54Z</time>
      </trkpt>
      <trkpt lat="47.81354" lon="-3.54145">
        <ele>47.4</ele>
        <time>2020-07-08T11:47:55Z</time>
      </trkpt>
      <trkpt lat="47.8135" lon="-3.54144">
        <ele>47.48</ele>
        <time>2020-07-08T11:47:56Z</time>
      </trkpt>
      <trkpt lat="47.81345" lon="-3.54142">
        <ele>47.59</ele>
        <time>2020-07-08T11:47:57Z</time>
      </trkpt>
      <trkpt lat="47.8134" lon="-3.54141">
        <ele>47.71</ele>
        <time>2020-07-08T11:47:58Z</time>
      </trkpt>
      <trkpt lat="47.81336" lon="-3.5414">
        <ele>47.85</ele>
        <time>2020-07-08T11:47:59Z</time>
      </trkpt>
      <trkpt lat="47.81332" lon="-3.54139">
        <ele>47.95</ele>
        <time>2020-07-08T11:48:00Z</time>
      </trkpt>
      <trkpt lat="47.81328" lon="-3.54136">
        <ele>47.92</ele>
        <time>2020-07-08T11:48:01Z</time>
      </trkpt>
      <trkpt lat="47.81323" lon="-3.54133">
        <ele>47.83</ele>
        <time>2020-07-08T11:48:02Z</time>
      </trkpt>
      <trkpt lat="47.81318" lon="-3.5413">
        <ele>47.72</ele>
        <time>2020-07-08T11:48:03Z</time>
      </trkpt>
      <trkpt lat="47.81313" lon="-3.54127">
        <ele>47.61</ele>
        <time>2020-07-08T11:48:04Z</time>
      </trkpt>
      <trkpt lat="47.81308" lon="-3.54124">
        <ele>47.5</ele>
        <time>2020-07-08T11:48:05Z</time>
      </trkpt>
      <trkpt lat="47.81304" lon="-3.5412">
        <ele>47.33</ele>
        <time>2020-07-08T11:48:06Z</time>
      </trkpt>
      <trkpt lat="47.81299" lon="-3.54116">
        <ele>47.06</ele>
        <time>2020-07-08T11:48:07Z</time>
      </trkpt>
      <trkpt lat="47.81294" lon="-3.54113">
        <ele>46.77</ele>
        <time>2020-07-08T11:48:08Z</time>
      </trkpt>
      <trkpt lat="47.8129" lon="-3.54108">
        <ele>46.5</ele>
        <time>2020-07-08T11:48:09Z</time>
      </trkpt>
      <trkpt lat="47.81285" lon="-3.54104">
        <ele>46.29</ele>
        <time>2020-07-08T11:48:10Z</time>
      </trkpt>
      <trkpt lat="47.8128" lon="-3.54101">
        <ele>46.13</ele>
        <time>2020-07-08T11:48:11Z</time>
      </trkpt>
      <trkpt lat="47.81276" lon="-3.54097">
        <ele>46.02</ele>
        <time>2020-07-08T11:48:12Z</time>
      </trkpt>
      <trkpt lat="47.81272" lon="-3.54094">
        <ele>45.91</ele>
        <time>2020-07-08T11:48:13Z</time>
      </trkpt>
      <trkpt lat="47.81268" lon="-3.5409">
        <ele>45.78</ele>
        <time>2020-07-08T11:48:14Z</time>
      </trkpt>
      <trkpt lat="47.81264" lon="-3.54086">
        <ele>45.62</ele>
        <time>2020-07-08T11:48:15Z</time>
      </trkpt>
      <trkpt lat="47.81259" lon="-3.54082">
        <ele>45.4</ele>
        <time>2020-07-08T11:48:16Z</time>
      </trkpt>
      <trkpt lat="47.81255" lon="-3.54077">
        <ele>45.21</ele>
        <time>2020-07-08T11:48:17Z</time>
      </trkpt>
      <trkpt lat="47.81249" lon="-3.54074">
        <ele>45.07</ele>
        <time>2020-07-08T11:48:18Z</time>
      </trkpt>
      <trkpt lat="47.81245" lon="-3.54069">
        <ele>45.09</ele>
        <time>2020-07-08T11:48:19Z</time>
      </trkpt>
      <trkpt lat="47.8124" lon="-3.54064">
        <ele>45.19</ele>
        <time>2020-07-08T11:48:20Z</time>
      </trkpt>
      <trkpt lat="47.81236" lon="-3.5406">
        <ele>45.36</ele>
        <time>2020-07-08T11:48:21Z</time>
      </trkpt>
      <trkpt lat="47.81231" lon="-3.54055">
        <ele>45.59</ele>
        <time>2020-07-08T11:48:22Z</time>
      </trkpt>
      <trkpt lat="47.81226" lon="-3.54051">
        <ele>45.79</ele>
        <time>2020-07-08T11:48:23Z</time>
      </trkpt>
      <trkpt lat="47.81221" lon="-3.54047">
        <ele>45.96</ele>
        <time>2020-07-08T11:48:24Z</time>
      </trkpt>
      <trkpt lat="47.81217" lon="-3.54042">
        <ele>46.11</ele>
        <time>2020-07-08T11:48:25Z</time>
      </trkpt>
      <trkpt lat="47.81214" lon="-3.54036">
        <ele>46.25</ele>
        <time>2020-07-08T11:48:26Z</time>
      </trkpt>
      <trkpt lat="47.8121" lon="-3.54031">
        <ele>46.37</ele>
        <time>2020-07-08T11:48:27Z</time>
      </trkpt>
      <trkpt lat="47.81207" lon="-3.54026">
        <ele>46.5</ele>
        <time>2020-07-08T11:48:28Z</time>
      </trkpt>
      <trkpt lat="47.81204" lon="-3.54021">
        <ele>46.61</ele>
        <time>2020-07-08T11:48:29Z</time>
      </trkpt>
      <trkpt lat="47.812" lon="-3.54015">
        <ele>46.73</ele>
        <time>2020-07-08T11:48:30Z</time>
      </trkpt>
      <trkpt lat="47.81196" lon="-3.5401">
        <ele>46.87</ele>
        <time>2020-07-08T11:48:31Z</time>
      </trkpt>
      <trkpt lat="47.81193" lon="-3.54005">
        <ele>46.96</ele>
        <time>2020-07-08T11:48:32Z</time>
      </trkpt>
      <trkpt lat="47.81191" lon="-3.53999">
        <ele>46.98</ele>
        <time>2020-07-08T11:48:33Z</time>
      </trkpt>
      <trkpt lat="47.81187" lon="-3.53994">
        <ele>46.95</ele>
        <time>2020-07-08T11:48:34Z</time>
      </trkpt>
      <trkpt lat="47.81184" lon="-3.53989">
        <ele>46.88</ele>
        <time>2020-07-08T11:48:35Z</time>
      </trkpt>
      <trkpt lat="47.8118" lon="-3.53983">
        <ele>46.74</ele>
        <time>2020-07-08T11:48:36Z</time>
      </trkpt>
      <trkpt lat="47.81176" lon="-3.53978">
        <ele>46.54</ele>
        <time>2020-07-08T11:48:37Z</time>
      </trkpt>
      <trkpt lat="47.81172" lon="-3.53972">
        <ele>46.28</ele>
        <time>2020-07-08T11:48:38Z</time>
      </trkpt>
      <trkpt lat="47.81167" lon="-3.53965">
        <ele>46.09</ele>
        <time>2020-07-08T11:48:39Z</time>
      </trkpt>
      <trkpt lat="47.81163" lon="-3.5396">
        <ele>46.03</ele>
        <time>2020-07-08T11:48:40Z</time>
      </trkpt>
      <trkpt lat="47.81158" lon="-3.53955">
        <ele>46.01</ele>
        <time>2020-07-08T11:48:41Z</time>
      </trkpt>
      <trkpt lat="47.81154" lon="-3.5395">
        <ele>46</ele>
        <time>2020-07-08T11:48:42Z</time>
      </trkpt>
      <trkpt lat="47.8115" lon="-3.53945">
        <ele>46</ele>
        <time>2020-07-08T11:48:43Z</time>
      </trkpt>
      <trkpt lat="47.81146" lon="-3.5394">
        <ele>46</ele>
        <time>2020-07-08T11:48:44Z</time>
      </trkpt>
      <trkpt lat="47.81143" lon="-3.53936">
        <ele>46</ele>
        <time>2020-07-08T11:48:45Z</time>
      </trkpt>
      <trkpt lat="47.81139" lon="-3.53932">
        <ele>46</ele>
        <time>2020-07-08T11:48:46Z</time>
      </trkpt>
      <trkpt lat="47.81136" lon="-3.53927">
        <ele>46</ele>
        <time>2020-07-08T11:48:47Z</time>
      </trkpt>
      <trkpt lat="47.81132" lon="-3.53922">
        <ele>46</ele>
        <time>2020-07-08T11:48:48Z</time>
      </trkpt>
      <trkpt lat="47.81128" lon="-3.53918">
        <ele>46</ele>
        <time>2020-07-08T11:48:49Z</time>
      </trkpt>
      <trkpt lat="47.81124" lon="-3.53913">
        <ele>46</ele>
        <time>2020-07-08T11:48:50Z</time>
      </trkpt>
      <trkpt lat="47.8112" lon="-3.53907">
        <ele>46</ele>
        <time>2020-07-08T11:48:51Z</time>
      </trkpt>
      <trkpt lat="47.81116" lon="-3.53901">
        <ele>46</ele>
        <time>2020-07-08T11:48:52Z</time>
      </trkpt>
      <trkpt lat="47.81111" lon="-3.53896">
        <ele>46</ele>
        <time>2020-07-08T11:48:53Z</time>
      </trkpt>
      <trkpt lat="47.81107" lon="-3.53891">
        <ele>46</ele>
        <time>2020-07-08T11:48:54Z</time>
      </trkpt>
      <trkpt lat="47.81103" lon="-3.53885">
        <ele>46</ele>
        <time>2020-07-08T11:48:55Z</time>
      </trkpt>
      <trkpt lat="47.81099" lon="-3.5388">
        <ele>46</ele>
        <time>2020-07-08T11:48:56Z</time>
      </trkpt>
      <trkpt lat="47.81095" lon="-3.53875">
        <ele>46</ele>
        <time>2020-07-08T11:48:57Z</time>
      </trkpt>
      <trkpt lat="47.81091" lon="-3.53869">
        <ele>46</ele>
        <time>2020-07-08T11:48:58Z</time>
      </trkpt>
      <trkpt lat="47.81089" lon="-3.53862">
        <ele>46</ele>
        <time>2020-07-08T11:48:59Z</time>
      </trkpt>
      <trkpt lat="47.81084" lon="-3.53857">
        <ele>46.11</ele>
        <time>2020-07-08T11:49:00Z</time>
      </trkpt>
      <trkpt lat="47.8108" lon="-3.5385">
        <ele>46.36</ele>
        <time>2020-07-08T11:49:01Z</time>
      </trkpt>
      <trkpt lat="47.81076" lon="-3.53844">
        <ele>46.61</ele>
        <time>2020-07-08T11:49:02Z</time>
      </trkpt>
      <trkpt lat="47.81071" lon="-3.53839">
        <ele>46.81</ele>
        <time>2020-07-08T11:49:03Z</time>
      </trkpt>
      <trkpt lat="47.81067" lon="-3.53834">
        <ele>46.94</ele>
        <time>2020-07-08T11:49:04Z</time>
      </trkpt>
      <trkpt lat="47.81062" lon="-3.53828">
        <ele>46.98</ele>
        <time>2020-07-08T11:49:05Z</time>
      </trkpt>
      <trkpt lat="47.81058" lon="-3.53823">
        <ele>46.99</ele>
        <time>2020-07-08T11:49:06Z</time>
      </trkpt>
      <trkpt lat="47.81054" lon="-3.53818">
        <ele>47</ele>
        <time>2020-07-08T11:49:07Z</time>
      </trkpt>
      <trkpt lat="47.81049" lon="-3.53814">
        <ele>47</ele>
        <time>2020-07-08T11:49:08Z</time>
      </trkpt>
      <trkpt lat="47.81045" lon="-3.53809">
        <ele>47</ele>
        <time>2020-07-08T11:49:09Z</time>
      </trkpt>
      <trkpt lat="47.8104" lon="-3.53804">
        <ele>47</ele>
        <time>2020-07-08T11:49:10Z</time>
      </trkpt>
      <trkpt lat="47.81035" lon="-3.53799">
        <ele>47</ele>
        <time>2020-07-08T11:49:11Z</time>
      </trkpt>
      <trkpt lat="47.8103" lon="-3.53794">
        <ele>47</ele>
        <time>2020-07-08T11:49:12Z</time>
      </trkpt>
      <trkpt lat="47.81026" lon="-3.53788">
        <ele>47</ele>
        <time>2020-07-08T11:49:13Z</time>
      </trkpt>
      <trkpt lat="47.81022" lon="-3.53782">
        <ele>47</ele>
        <time>2020-07-08T11:49:14Z</time>
      </trkpt>
      <trkpt lat="47.81019" lon="-3.53776">
        <ele>47</ele>
        <time>2020-07-08T11:49:15Z</time>
      </trkpt>
      <trkpt lat="47.81015" lon="-3.5377">
        <ele>47</ele>
        <time>2020-07-08T11:49:16Z</time>
      </trkpt>
      <trkpt lat="47.81011" lon="-3.53765">
        <ele>47</ele>
        <time>2020-07-08T11:49:17Z</time>
      </trkpt>
      <trkpt lat="47.81008" lon="-3.5376">
        <ele>47</ele>
        <time>2020-07-08T11:49:18Z</time>
      </trkpt>
      <trkpt lat="47.81003" lon="-3.53755">
        <ele>47</ele>
        <time>2020-07-08T11:49:19Z</time>
      </trkpt>
      <trkpt lat="47.80999" lon="-3.5375">
        <ele>47</ele>
        <time>2020-07-08T11:49:20Z</time>
      </trkpt>
      <trkpt lat="47.80995" lon="-3.53745">
        <ele>47</ele>
        <time>2020-07-08T11:49:21Z</time>
      </trkpt>
      <trkpt lat="47.80991" lon="-3.53741">
        <ele>47</ele>
        <time>2020-07-08T11:49:22Z</time>
      </trkpt>
      <trkpt lat="47.80987" lon="-3.53737">
        <ele>47</ele>
        <time>2020-07-08T11:49:23Z</time>
      </trkpt>
      <trkpt lat="47.80982" lon="-3.53732">
        <ele>47</ele>
        <time>2020-07-08T11:49:24Z</time>
      </trkpt>
      <trkpt lat="47.80979" lon="-3.53727">
        <ele>47</ele>
        <time>2020-07-08T11:49:25Z</time>
      </trkpt>
      <trkpt lat="47.80975" lon="-3.53722">
        <ele>47</ele>
        <time>2020-07-08T11:49:26Z</time>
      </trkpt>
      <trkpt lat="47.80972" lon="-3.53717">
        <ele>46.99</ele>
        <time>2020-07-08T11:49:27Z</time>
      </trkpt>
      <trkpt lat="47.80967" lon="-3.53713">
        <ele>46.91</ele>
        <time>2020-07-08T11:49:28Z</time>
      </trkpt>
      <trkpt lat="47.80963" lon="-3.53708">
        <ele>46.86</ele>
        <time>2020-07-08T11:49:29Z</time>
      </trkpt>
      <trkpt lat="47.80959" lon="-3.53704">
        <ele>46.85</ele>
        <time>2020-07-08T11:49:30Z</time>
      </trkpt>
      <trkpt lat="47.80957" lon="-3.537">
        <ele>46.87</ele>
        <time>2020-07-08T11:49:31Z</time>
      </trkpt>
      <trkpt lat="47.80953" lon="-3.53696">
        <ele>46.94</ele>
        <time>2020-07-08T11:49:32Z</time>
      </trkpt>
      <trkpt lat="47.80949" lon="-3.53691">
        <ele>46.98</ele>
        <time>2020-07-08T11:49:33Z</time>
      </trkpt>
      <trkpt lat="47.80945" lon="-3.53686">
        <ele>46.99</ele>
        <time>2020-07-08T11:49:34Z</time>
      </trkpt>
      <trkpt lat="47.80942" lon="-3.53681">
        <ele>47</ele>
        <time>2020-07-08T11:49:35Z</time>
      </trkpt>
      <trkpt lat="47.80937" lon="-3.53676">
        <ele>47</ele>
        <time>2020-07-08T11:49:36Z</time>
      </trkpt>
      <trkpt lat="47.80933" lon="-3.53671">
        <ele>47</ele>
        <time>2020-07-08T11:49:37Z</time>
      </trkpt>
      <trkpt lat="47.80929" lon="-3.53667">
        <ele>47</ele>
        <time>2020-07-08T11:49:38Z</time>
      </trkpt>
      <trkpt lat="47.80925" lon="-3.53662">
        <ele>47</ele>
        <time>2020-07-08T11:49:39Z</time>
      </trkpt>
      <trkpt lat="47.8092" lon="-3.53657">
        <ele>47</ele>
        <time>2020-07-08T11:49:40Z</time>
      </trkpt>
      <trkpt lat="47.80915" lon="-3.53652">
        <ele>47.05</ele>
        <time>2020-07-08T11:49:41Z</time>
      </trkpt>
      <trkpt lat="47.8091" lon="-3.53647">
        <ele>47.18</ele>
        <time>2020-07-08T11:49:42Z</time>
      </trkpt>
      <trkpt lat="47.80905" lon="-3.53642">
        <ele>47.34</ele>
        <time>2020-07-08T11:49:43Z</time>
      </trkpt>
      <trkpt lat="47.80901" lon="-3.53636">
        <ele>47.4</ele>
        <time>2020-07-08T11:49:44Z</time>
      </trkpt>
      <trkpt lat="47.80897" lon="-3.5363">
        <ele>47.34</ele>
        <time>2020-07-08T11:49:45Z</time>
      </trkpt>
      <trkpt lat="47.80891" lon="-3.53623">
        <ele>47.33</ele>
        <time>2020-07-08T11:49:46Z</time>
      </trkpt>
      <trkpt lat="47.80886" lon="-3.53617">
        <ele>47.17</ele>
        <time>2020-07-08T11:49:47Z</time>
      </trkpt>
      <trkpt lat="47.80881" lon="-3.53611">
        <ele>46.86</ele>
        <time>2020-07-08T11:49:48Z</time>
      </trkpt>
      <trkpt lat="47.80876" lon="-3.53603">
        <ele>46.42</ele>
        <time>2020-07-08T11:49:49Z</time>
      </trkpt>
      <trkpt lat="47.80872" lon="-3.53597">
        <ele>46.13</ele>
        <time>2020-07-08T11:49:50Z</time>
      </trkpt>
      <trkpt lat="47.80868" lon="-3.53591">
        <ele>45.97</ele>
        <time>2020-07-08T11:49:51Z</time>
      </trkpt>
      <trkpt lat="47.80863" lon="-3.53585">
        <ele>45.95</ele>
        <time>2020-07-08T11:49:52Z</time>
      </trkpt>
      <trkpt lat="47.80859" lon="-3.53579">
        <ele>45.83</ele>
        <time>2020-07-08T11:49:53Z</time>
      </trkpt>
      <trkpt lat="47.80857" lon="-3.53575">
        <ele>45.67</ele>
        <time>2020-07-08T11:49:54Z</time>
      </trkpt>
      <trkpt lat="47.80855" lon="-3.53573">
        <ele>45.55</ele>
        <time>2020-07-08T11:49:55Z</time>
      </trkpt>
      <trkpt lat="47.80854" lon="-3.53571">
        <ele>45.46</ele>
        <time>2020-07-08T11:49:56Z</time>
      </trkpt>
      <trkpt lat="47.80854" lon="-3.53571">
        <ele>45.42</ele>
        <time>2020-07-08T11:49:57Z</time>
      </trkpt>
      <trkpt lat="47.80853" lon="-3.53571">
        <ele>45.4</ele>
        <time>2020-07-08T11:49:58Z</time>
      </trkpt>
      <trkpt lat="47.80853" lon="-3.53571">
        <ele>45.4</ele>
        <time>2020-07-08T11:49:59Z</time>
      </trkpt>
      <trkpt lat="47.80853" lon="-3.53571">
        <ele>45.4</ele>
        <time>2020-07-08T11:50:00Z</time>
      </trkpt>
      <trkpt lat="47.80853" lon="-3.53571">
        <ele>45.4</ele>
        <time>2020-07-08T11:50:01Z</time>
      </trkpt>
      <trkpt lat="47.80853" lon="-3.53571">
        <ele>45.4</ele>
        <time>2020-07-08T11:50:02Z</time>
      </trkpt>
      <trkpt lat="47.80853" lon="-3.53571">
        <ele>45.4</ele>
        <time>2020-07-08T11:50:03Z</time>
      </trkpt>
      <trkpt lat="47.80853" lon="-3.53571">
        <ele>45.4</ele>
        <time>2020-07-08T11:50:04Z</time>
      </trkpt>
      <trkpt lat="47.80853" lon="-3.53571">
        <ele>45.4</ele>
        <time>2020-07-08T11:50:05Z</time>
      </trkpt>
      <trkpt lat="47.80853" lon="-3.53571">
        <ele>45.4</ele>
        <time>2020-07-08T11:50:06Z</time>
      </trkpt>
      <trkpt lat="47.80853" lon="-3.53571">
        <ele>45.4</ele>
        <time>2020-07-08T11:50:07Z</time>
      </trkpt>
      <trkpt lat="47.80853" lon="-3.53571">
        <ele>45.4</ele>
        <time>2020-07-08T11:50:08Z</time>
      </trkpt>
      <trkpt lat="47.80853" lon="-3.53571">
        <ele>45.4</ele>
        <time>2020-07-08T11:50:09Z</time>
      </trkpt>
      <trkpt lat="47.80853" lon="-3.53571">
        <ele>45.4</ele>
        <time>2020-07-08T11:50:10Z</time>
      </trkpt>
      <trkpt lat="47.80855" lon="-3.53572">
        <ele>45.45</ele>
        <time>2020-07-08T11:50:11Z</time>
      </trkpt>
      <trkpt lat="47.80855" lon="-3.53574">
        <ele>45.5</ele>
        <time>2020-07-08T11:50:12Z</time>
      </trkpt>
      <trkpt lat="47.80856" lon="-3.53576">
        <ele>45.57</ele>
        <time>2020-07-08T11:50:13Z</time>
      </trkpt>
      <trkpt lat="47.80857" lon="-3.53579">
        <ele>45.69</ele>
        <time>2020-07-08T11:50:14Z</time>
      </trkpt>
      <trkpt lat="47.80858" lon="-3.53582">
        <ele>45.81</ele>
        <time>2020-07-08T11:50:15Z</time>
      </trkpt>
      <trkpt lat="47.80859" lon="-3.53585">
        <ele>45.9</ele>
        <time>2020-07-08T11:50:16Z</time>
      </trkpt>
      <trkpt lat="47.80861" lon="-3.53586">
        <ele>45.96</ele>
        <time>2020-07-08T11:50:17Z</time>
      </trkpt>
      <trkpt lat="47.80862" lon="-3.53586">
        <ele>45.96</ele>
        <time>2020-07-08T11:50:18Z</time>
      </trkpt>
      <trkpt lat="47.80864" lon="-3.53585">
        <ele>45.94</ele>
        <time>2020-07-08T11:50:19Z</time>
      </trkpt>
      <trkpt lat="47.80864" lon="-3.53585">
        <ele>45.9</ele>
        <time>2020-07-08T11:50:20Z</time>
      </trkpt>
      <trkpt lat="47.80865" lon="-3.53583">
        <ele>45.86</ele>
        <time>2020-07-08T11:50:21Z</time>
      </trkpt>
      <trkpt lat="47.80866" lon="-3.53581">
        <ele>45.77</ele>
        <time>2020-07-08T11:50:22Z</time>
      </trkpt>
      <trkpt lat="47.80867" lon="-3.53579">
        <ele>45.66</ele>
        <time>2020-07-08T11:50:23Z</time>
      </trkpt>
      <trkpt lat="47.80868" lon="-3.53577">
        <ele>45.51</ele>
        <time>2020-07-08T11:50:24Z</time>
      </trkpt>
      <trkpt lat="47.8087" lon="-3.53574">
        <ele>45.31</ele>
        <time>2020-07-08T11:50:25Z</time>
      </trkpt>
      <trkpt lat="47.80872" lon="-3.53571">
        <ele>45.08</ele>
        <time>2020-07-08T11:50:26Z</time>
      </trkpt>
      <trkpt lat="47.80875" lon="-3.53568">
        <ele>44.78</ele>
        <time>2020-07-08T11:50:27Z</time>
      </trkpt>
      <trkpt lat="47.80878" lon="-3.53564">
        <ele>44.44</ele>
        <time>2020-07-08T11:50:28Z</time>
      </trkpt>
      <trkpt lat="47.80881" lon="-3.5356">
        <ele>44.04</ele>
        <time>2020-07-08T11:50:29Z</time>
      </trkpt>
      <trkpt lat="47.80883" lon="-3.53555">
        <ele>43.59</ele>
        <time>2020-07-08T11:50:30Z</time>
      </trkpt>
      <trkpt lat="47.80886" lon="-3.53551">
        <ele>43.19</ele>
        <time>2020-07-08T11:50:31Z</time>
      </trkpt>
      <trkpt lat="47.80889" lon="-3.53546">
        <ele>42.84</ele>
        <time>2020-07-08T11:50:32Z</time>
      </trkpt>
      <trkpt lat="47.80891" lon="-3.53543">
        <ele>42.6</ele>
        <time>2020-07-08T11:50:33Z</time>
      </trkpt>
      <trkpt lat="47.80893" lon="-3.5354">
        <ele>42.43</ele>
        <time>2020-07-08T11:50:34Z</time>
      </trkpt>
      <trkpt lat="47.80895" lon="-3.53537">
        <ele>42.3</ele>
        <time>2020-07-08T11:50:35Z</time>
      </trkpt>
      <trkpt lat="47.80897" lon="-3.53534">
        <ele>42.2</ele>
        <time>2020-07-08T11:50:36Z</time>
      </trkpt>
      <trkpt lat="47.80898" lon="-3.53531">
        <ele>42.11</ele>
        <time>2020-07-08T11:50:37Z</time>
      </trkpt>
      <trkpt lat="47.809" lon="-3.53527">
        <ele>42.03</ele>
        <time>2020-07-08T11:50:38Z</time>
      </trkpt>
      <trkpt lat="47.80901" lon="-3.53522">
        <ele>42.01</ele>
        <time>2020-07-08T11:50:39Z</time>
      </trkpt>
      <trkpt lat="47.80903" lon="-3.53517">
        <ele>42</ele>
        <time>2020-07-08T11:50:40Z</time>
      </trkpt>
      <trkpt lat="47.80906" lon="-3.53514">
        <ele>42</ele>
        <time>2020-07-08T11:50:41Z</time>
      </trkpt>
      <trkpt lat="47.80909" lon="-3.53509">
        <ele>42</ele>
        <time>2020-07-08T11:50:42Z</time>
      </trkpt>
      <trkpt lat="47.80914" lon="-3.53505">
        <ele>42</ele>
        <time>2020-07-08T11:50:43Z</time>
      </trkpt>
      <trkpt lat="47.80918" lon="-3.53502">
        <ele>42</ele>
        <time>2020-07-08T11:50:44Z</time>
      </trkpt>
      <trkpt lat="47.80922" lon="-3.53499">
        <ele>41.95</ele>
        <time>2020-07-08T11:50:45Z</time>
      </trkpt>
      <trkpt lat="47.80926" lon="-3.53496">
        <ele>41.81</ele>
        <time>2020-07-08T11:50:46Z</time>
      </trkpt>
      <trkpt lat="47.80928" lon="-3.53493">
        <ele>41.61</ele>
        <time>2020-07-08T11:50:47Z</time>
      </trkpt>
      <trkpt lat="47.8093" lon="-3.5349">
        <ele>41.41</ele>
        <time>2020-07-08T11:50:48Z</time>
      </trkpt>
      <trkpt lat="47.8093" lon="-3.53489">
        <ele>41.28</ele>
        <time>2020-07-08T11:50:49Z</time>
      </trkpt>
      <trkpt lat="47.8093" lon="-3.53489">
        <ele>41.25</ele>
        <time>2020-07-08T11:50:50Z</time>
      </trkpt>
      <trkpt lat="47.80931" lon="-3.53489">
        <ele>41.21</ele>
        <time>2020-07-08T11:50:51Z</time>
      </trkpt>
      <trkpt lat="47.80931" lon="-3.53489">
        <ele>41.2</ele>
        <time>2020-07-08T11:50:52Z</time>
      </trkpt>
      <trkpt lat="47.80931" lon="-3.53489">
        <ele>41.2</ele>
        <time>2020-07-08T11:50:53Z</time>
      </trkpt>
      <trkpt lat="47.80931" lon="-3.53489">
        <ele>41.2</ele>
        <time>2020-07-08T11:50:54Z</time>
      </trkpt>
      <trkpt lat="47.80931" lon="-3.53489">
        <ele>41.2</ele>
        <time>2020-07-08T11:50:55Z</time>
      </trkpt>
      <trkpt lat="47.80931" lon="-3.53489">
        <ele>41.2</ele>
        <time>2020-07-08T11:50:56Z</time>
      </trkpt>
      <trkpt lat="47.80931" lon="-3.53489">
        <ele>41.2</ele>
        <time>2020-07-08T11:50:57Z</time>
      </trkpt>
      <trkpt lat="47.80931" lon="-3.53489">
        <ele>41.2</ele>
        <time>2020-07-08T11:50:58Z</time>
      </trkpt>
      <trkpt lat="47.80931" lon="-3.53489">
        <ele>41.2</ele>
        <time>2020-07-08T11:50:59Z</time>
      </trkpt>
      <trkpt lat="47.80931" lon="-3.53489">
        <ele>41.2</ele>
        <time>2020-07-08T11:51:00Z</time>
      </trkpt>
      <trkpt lat="47.80931" lon="-3.53489">
        <ele>41.2</ele>
        <time>2020-07-08T11:51:01Z</time>
      </trkpt>
      <trkpt lat="47.80931" lon="-3.53489">
        <ele>41.2</ele>
        <time>2020-07-08T11:51:02Z</time>
      </trkpt>
      <trkpt lat="47.80931" lon="-3.53489">
        <ele>41.2</ele>
        <time>2020-07-08T11:51:03Z</time>
      </trkpt>
      <trkpt lat="47.80931" lon="-3.53489">
        <ele>41.2</ele>
        <time>2020-07-08T11:51:04Z</time>
      </trkpt>
      <trkpt lat="47.80931" lon="-3.53489">
        <ele>41.2</ele>
        <time>2020-07-08T11:51:05Z</time>
      </trkpt>
      <trkpt lat="47.80931" lon="-3.53489">
        <ele>41.2</ele>
        <time>2020-07-08T11:51:06Z</time>
      </trkpt>
      <trkpt lat="47.80931" lon="-3.53489">
        <ele>41.2</ele>
        <time>2020-07-08T11:51:07Z</time>
      </trkpt>
      <trkpt lat="47.80931" lon="-3.53489">
        <ele>41.2</ele>
        <time>2020-07-08T11:51:08Z</time>
      </trkpt>
      <trkpt lat="47.80931" lon="-3.53489">
        <ele>41.2</ele>
        <time>2020-07-08T11:51:09Z</time>
      </trkpt>
      <trkpt lat="47.80931" lon="-3.53489">
        <ele>41.2</ele>
        <time>2020-07-08T11:51:10Z</time>
      </trkpt>
      <trkpt lat="47.80931" lon="-3.53489">
        <ele>41.2</ele>
        <time>2020-07-08T11:51:11Z</time>
      </trkpt>
      <trkpt lat="47.80931" lon="-3.53489">
        <ele>41.2</ele>
        <time>2020-07-08T11:51:12Z</time>
      </trkpt>
      <trkpt lat="47.80931" lon="-3.53489">
        <ele>41.2</ele>
        <time>2020-07-08T11:51:13Z</time>
      </trkpt>
      <trkpt lat="47.80931" lon="-3.53489">
        <ele>41.2</ele>
        <time>2020-07-08T11:51:14Z</time>
      </trkpt>
      <trkpt lat="47.80931" lon="-3.53489">
        <ele>41.2</ele>
        <time>2020-07-08T11:51:15Z</time>
      </trkpt>
      <trkpt lat="47.80931" lon="-3.53489">
        <ele>41.2</ele>
        <time>2020-07-08T11:51:16Z</time>
      </trkpt>
      <trkpt lat="47.80931" lon="-3.53489">
        <ele>41.2</ele>
        <time>2020-07-08T11:51:17Z</time>
      </trkpt>
      <trkpt lat="47.80931" lon="-3.53489">
        <ele>41.2</ele>
        <time>2020-07-08T11:51:18Z</time>
      </trkpt>
      <trkpt lat="47.80931" lon="-3.53489">
        <ele>41.2</ele>
        <time>2020-07-08T11:51:19Z</time>
      </trkpt>
      <trkpt lat="47.80931" lon="-3.53489">
        <ele>41.2</ele>
        <time>2020-07-08T11:51:20Z</time>
      </trkpt>
      <trkpt lat="47.80931" lon="-3.53489">
        <ele>41.2</ele>
        <time>2020-07-08T11:51:21Z</time>
      </trkpt>
      <trkpt lat="47.80931" lon="-3.53489">
        <ele>41.2</ele>
        <time>2020-07-08T11:51:22Z</time>
      </trkpt>
      <trkpt lat="47.80931" lon="-3.53489">
        <ele>41.2</ele>
        <time>2020-07-08T11:51:23Z</time>
      </trkpt>
      <trkpt lat="47.80931" lon="-3.53489">
        <ele>41.2</ele>
        <time>2020-07-08T11:51:24Z</time>
      </trkpt>
      <trkpt lat="47.80931" lon="-3.53489">
        <ele>41.2</ele>
        <time>2020-07-08T11:51:25Z</time>
      </trkpt>
      <trkpt lat="47.80931" lon="-3.53489">
        <ele>41.2</ele>
        <time>2020-07-08T11:51:26Z</time>
      </trkpt>
      <trkpt lat="47.80931" lon="-3.53489">
        <ele>41.2</ele>
        <time>2020-07-08T11:51:27Z</time>
      </trkpt>
      <trkpt lat="47.80931" lon="-3.53489">
        <ele>41.2</ele>
        <time>2020-07-08T11:51:28Z</time>
      </trkpt>
      <trkpt lat="47.80931" lon="-3.53489">
        <ele>41.2</ele>
        <time>2020-07-08T11:51:29Z</time>
      </trkpt>
      <trkpt lat="47.80931" lon="-3.53489">
        <ele>41.2</ele>
        <time>2020-07-08T11:51:30Z</time>
      </trkpt>
      <trkpt lat="47.80931" lon="-3.53489">
        <ele>41.2</ele>
        <time>2020-07-08T11:51:31Z</time>
      </trkpt>
      <trkpt lat="47.80931" lon="-3.53489">
        <ele>41.2</ele>
        <time>2020-07-08T11:51:32Z</time>
      </trkpt>
      <trkpt lat="47.80931" lon="-3.53489">
        <ele>41.2</ele>
        <time>2020-07-08T11:51:33Z</time>
      </trkpt>
      <trkpt lat="47.80931" lon="-3.53489">
        <ele>41.2</ele>
        <time>2020-07-08T11:51:34Z</time>
      </trkpt>
      <trkpt lat="47.80931" lon="-3.53489">
        <ele>41.2</ele>
        <time>2020-07-08T11:51:35Z</time>
      </trkpt>
      <trkpt lat="47.80931" lon="-3.53489">
        <ele>41.2</ele>
        <time>2020-07-08T11:51:36Z</time>
      </trkpt>
      <trkpt lat="47.80931" lon="-3.53489">
        <ele>41.2</ele>
        <time>2020-07-08T11:51:37Z</time>
      </trkpt>
      <trkpt lat="47.80931" lon="-3.53489">
        <ele>41.2</ele>
        <time>2020-07-08T11:51:38Z</time>
      </trkpt>
      <trkpt lat="47.80931" lon="-3.53489">
        <ele>41.2</ele>
        <time>2020-07-08T11:51:39Z</time>
      </trkpt>
      <trkpt lat="47.80931" lon="-3.53489">
        <ele>41.2</ele>
        <time>2020-07-08T11:51:40Z</time>
      </trkpt>
      <trkpt lat="47.80931" lon="-3.53489">
        <ele>41.2</ele>
        <time>2020-07-08T11:51:41Z</time>
      </trkpt>
      <trkpt lat="47.80931" lon="-3.53489">
        <ele>41.2</ele>
        <time>2020-07-08T11:51:42Z</time>
      </trkpt>
      <trkpt lat="47.80931" lon="-3.53489">
        <ele>41.2</ele>
        <time>2020-07-08T11:51:43Z</time>
      </trkpt>
      <trkpt lat="47.80931" lon="-3.53489">
        <ele>41.2</ele>
        <time>2020-07-08T11:51:44Z</time>
      </trkpt>
      <trkpt lat="47.80931" lon="-3.53489">
        <ele>41.2</ele>
        <time>2020-07-08T11:51:45Z</time>
      </trkpt>
      <trkpt lat="47.80931" lon="-3.53489">
        <ele>41.2</ele>
        <time>2020-07-08T11:51:46Z</time>
      </trkpt>
      <trkpt lat="47.80931" lon="-3.53489">
        <ele>41.2</ele>
        <time>2020-07-08T11:51:47Z</time>
      </trkpt>
      <trkpt lat="47.80931" lon="-3.53489">
        <ele>41.2</ele>
        <time>2020-07-08T11:51:48Z</time>
      </trkpt>
      <trkpt lat="47.80931" lon="-3.53489">
        <ele>41.2</ele>
        <time>2020-07-08T11:51:49Z</time>
      </trkpt>
      <trkpt lat="47.80931" lon="-3.53489">
        <ele>41.2</ele>
        <time>2020-07-08T11:51:50Z</time>
      </trkpt>
      <trkpt lat="47.80924" lon="-3.53488">
        <ele>41.3</ele>
        <time>2020-07-08T11:51:51Z</time>
      </trkpt>
      <trkpt lat="47.80923" lon="-3.53487">
        <ele>41.32</ele>
        <time>2020-07-08T11:51:52Z</time>
      </trkpt>
      <trkpt lat="47.80922" lon="-3.53488">
        <ele>41.38</ele>
        <time>2020-07-08T11:51:53Z</time>
      </trkpt>
      <trkpt lat="47.80921" lon="-3.53489">
        <ele>41.45</ele>
        <time>2020-07-08T11:51:54Z</time>
      </trkpt>
      <trkpt lat="47.8092" lon="-3.53491">
        <ele>41.54</ele>
        <time>2020-07-08T11:51:55Z</time>
      </trkpt>
      <trkpt lat="47.80918" lon="-3.53492">
        <ele>41.64</ele>
        <time>2020-07-08T11:51:56Z</time>
      </trkpt>
      <trkpt lat="47.80917" lon="-3.53493">
        <ele>41.71</ele>
        <time>2020-07-08T11:51:57Z</time>
      </trkpt>
      <trkpt lat="47.80916" lon="-3.53494">
        <ele>41.77</ele>
        <time>2020-07-08T11:51:58Z</time>
      </trkpt>
      <trkpt lat="47.80914" lon="-3.53495">
        <ele>41.82</ele>
        <time>2020-07-08T11:51:59Z</time>
      </trkpt>
      <trkpt lat="47.80912" lon="-3.53497">
        <ele>41.88</ele>
        <time>2020-07-08T11:52:00Z</time>
      </trkpt>
      <trkpt lat="47.8091" lon="-3.535">
        <ele>41.97</ele>
        <time>2020-07-08T11:52:01Z</time>
      </trkpt>
      <trkpt lat="47.80909" lon="-3.53502">
        <ele>41.99</ele>
        <time>2020-07-08T11:52:02Z</time>
      </trkpt>
      <trkpt lat="47.80906" lon="-3.53504">
        <ele>42</ele>
        <time>2020-07-08T11:52:03Z</time>
      </trkpt>
      <trkpt lat="47.80904" lon="-3.53506">
        <ele>42</ele>
        <time>2020-07-08T11:52:04Z</time>
      </trkpt>
      <trkpt lat="47.80903" lon="-3.53509">
        <ele>42</ele>
        <time>2020-07-08T11:52:05Z</time>
      </trkpt>
      <trkpt lat="47.80901" lon="-3.53511">
        <ele>42</ele>
        <time>2020-07-08T11:52:06Z</time>
      </trkpt>
      <trkpt lat="47.809" lon="-3.53514">
        <ele>42</ele>
        <time>2020-07-08T11:52:07Z</time>
      </trkpt>
      <trkpt lat="47.80898" lon="-3.53516">
        <ele>42</ele>
        <time>2020-07-08T11:52:08Z</time>
      </trkpt>
      <trkpt lat="47.80897" lon="-3.53519">
        <ele>42</ele>
        <time>2020-07-08T11:52:09Z</time>
      </trkpt>
      <trkpt lat="47.80894" lon="-3.53521">
        <ele>42</ele>
        <time>2020-07-08T11:52:10Z</time>
      </trkpt>
      <trkpt lat="47.80893" lon="-3.53523">
        <ele>42</ele>
        <time>2020-07-08T11:52:11Z</time>
      </trkpt>
      <trkpt lat="47.80891" lon="-3.53525">
        <ele>42</ele>
        <time>2020-07-08T11:52:12Z</time>
      </trkpt>
      <trkpt lat="47.80891" lon="-3.53529">
        <ele>42.02</ele>
        <time>2020-07-08T11:52:13Z</time>
      </trkpt>
      <trkpt lat="47.8089" lon="-3.53531">
        <ele>42.08</ele>
        <time>2020-07-08T11:52:14Z</time>
      </trkpt>
      <trkpt lat="47.80889" lon="-3.53533">
        <ele>42.16</ele>
        <time>2020-07-08T11:52:15Z</time>
      </trkpt>
      <trkpt lat="47.80887" lon="-3.53535">
        <ele>42.31</ele>
        <time>2020-07-08T11:52:16Z</time>
      </trkpt>
      <trkpt lat="47.80886" lon="-3.53538">
        <ele>42.49</ele>
        <time>2020-07-08T11:52:17Z</time>
      </trkpt>
      <trkpt lat="47.80884" lon="-3.5354">
        <ele>42.68</ele>
        <time>2020-07-08T11:52:18Z</time>
      </trkpt>
      <trkpt lat="47.80882" lon="-3.53543">
        <ele>42.93</ele>
        <time>2020-07-08T11:52:19Z</time>
      </trkpt>
      <trkpt lat="47.80881" lon="-3.53546">
        <ele>43.14</ele>
        <time>2020-07-08T11:52:20Z</time>
      </trkpt>
      <trkpt lat="47.8088" lon="-3.53549">
        <ele>43.32</ele>
        <time>2020-07-08T11:52:21Z</time>
      </trkpt>
      <trkpt lat="47.80879" lon="-3.53552">
        <ele>43.51</ele>
        <time>2020-07-08T11:52:22Z</time>
      </trkpt>
      <trkpt lat="47.80877" lon="-3.53556">
        <ele>43.79</ele>
        <time>2020-07-08T11:52:23Z</time>
      </trkpt>
      <trkpt lat="47.80874" lon="-3.53559">
        <ele>44.1</ele>
        <time>2020-07-08T11:52:24Z</time>
      </trkpt>
      <trkpt lat="47.80873" lon="-3.53562">
        <ele>44.36</ele>
        <time>2020-07-08T11:52:25Z</time>
      </trkpt>
      <trkpt lat="47.80872" lon="-3.53565">
        <ele>44.6</ele>
        <time>2020-07-08T11:52:26Z</time>
      </trkpt>
      <trkpt lat="47.8087" lon="-3.53568">
        <ele>44.86</ele>
        <time>2020-07-08T11:52:27Z</time>
      </trkpt>
      <trkpt lat="47.80868" lon="-3.53571">
        <ele>45.08</ele>
        <time>2020-07-08T11:52:28Z</time>
      </trkpt>
      <trkpt lat="47.80867" lon="-3.53573">
        <ele>45.26</ele>
        <time>2020-07-08T11:52:29Z</time>
      </trkpt>
      <trkpt lat="47.80866" lon="-3.53575">
        <ele>45.41</ele>
        <time>2020-07-08T11:52:30Z</time>
      </trkpt>
      <trkpt lat="47.80865" lon="-3.53577">
        <ele>45.52</ele>
        <time>2020-07-08T11:52:31Z</time>
      </trkpt>
      <trkpt lat="47.80864" lon="-3.53577">
        <ele>45.63</ele>
        <time>2020-07-08T11:52:32Z</time>
      </trkpt>
      <trkpt lat="47.80862" lon="-3.53578">
        <ele>45.73</ele>
        <time>2020-07-08T11:52:33Z</time>
      </trkpt>
      <trkpt lat="47.8086" lon="-3.53577">
        <ele>45.74</ele>
        <time>2020-07-08T11:52:34Z</time>
      </trkpt>
      <trkpt lat="47.80859" lon="-3.53575">
        <ele>45.67</ele>
        <time>2020-07-08T11:52:35Z</time>
      </trkpt>
      <trkpt lat="47.80858" lon="-3.53573">
        <ele>45.59</ele>
        <time>2020-07-08T11:52:36Z</time>
      </trkpt>
      <trkpt lat="47.80857" lon="-3.53571">
        <ele>45.5</ele>
        <time>2020-07-08T11:52:37Z</time>
      </trkpt>
      <trkpt lat="47.80855" lon="-3.53569">
        <ele>45.41</ele>
        <time>2020-07-08T11:52:38Z</time>
      </trkpt>
      <trkpt lat="47.80854" lon="-3.53566">
        <ele>45.32</ele>
        <time>2020-07-08T11:52:39Z</time>
      </trkpt>
      <trkpt lat="47.80852" lon="-3.53563">
        <ele>45.22</ele>
        <time>2020-07-08T11:52:40Z</time>
      </trkpt>
      <trkpt lat="47.8085" lon="-3.53559">
        <ele>45.12</ele>
        <time>2020-07-08T11:52:41Z</time>
      </trkpt>
      <trkpt lat="47.80848" lon="-3.53556">
        <ele>45.04</ele>
        <time>2020-07-08T11:52:42Z</time>
      </trkpt>
      <trkpt lat="47.80847" lon="-3.53553">
        <ele>44.98</ele>
        <time>2020-07-08T11:52:43Z</time>
      </trkpt>
      <trkpt lat="47.80845" lon="-3.5355">
        <ele>44.93</ele>
        <time>2020-07-08T11:52:44Z</time>
      </trkpt>
      <trkpt lat="47.80843" lon="-3.53547">
        <ele>44.9</ele>
        <time>2020-07-08T11:52:45Z</time>
      </trkpt>
      <trkpt lat="47.80841" lon="-3.53543">
        <ele>44.88</ele>
        <time>2020-07-08T11:52:46Z</time>
      </trkpt>
      <trkpt lat="47.8084" lon="-3.5354">
        <ele>44.87</ele>
        <time>2020-07-08T11:52:47Z</time>
      </trkpt>
      <trkpt lat="47.80838" lon="-3.53537">
        <ele>44.89</ele>
        <time>2020-07-08T11:52:48Z</time>
      </trkpt>
      <trkpt lat="47.80836" lon="-3.53534">
        <ele>44.91</ele>
        <time>2020-07-08T11:52:49Z</time>
      </trkpt>
      <trkpt lat="47.80834" lon="-3.53531">
        <ele>44.97</ele>
        <time>2020-07-08T11:52:50Z</time>
      </trkpt>
      <trkpt lat="47.80831" lon="-3.53526">
        <ele>44.91</ele>
        <time>2020-07-08T11:52:51Z</time>
      </trkpt>
      <trkpt lat="47.80828" lon="-3.53522">
        <ele>44.76</ele>
        <time>2020-07-08T11:52:52Z</time>
      </trkpt>
      <trkpt lat="47.80825" lon="-3.53517">
        <ele>44.62</ele>
        <time>2020-07-08T11:52:53Z</time>
      </trkpt>
      <trkpt lat="47.80822" lon="-3.53513">
        <ele>44.53</ele>
        <time>2020-07-08T11:52:54Z</time>
      </trkpt>
      <trkpt lat="47.80818" lon="-3.53509">
        <ele>44.52</ele>
        <time>2020-07-08T11:52:55Z</time>
      </trkpt>
      <trkpt lat="47.80815" lon="-3.53505">
        <ele>44.58</ele>
        <time>2020-07-08T11:52:56Z</time>
      </trkpt>
      <trkpt lat="47.80812" lon="-3.535">
        <ele>44.7</ele>
        <time>2020-07-08T11:52:57Z</time>
      </trkpt>
      <trkpt lat="47.80811" lon="-3.53496">
        <ele>44.78</ele>
        <time>2020-07-08T11:52:58Z</time>
      </trkpt>
      <trkpt lat="47.80809" lon="-3.53492">
        <ele>44.85</ele>
        <time>2020-07-08T11:52:59Z</time>
      </trkpt>
      <trkpt lat="47.80806" lon="-3.53487">
        <ele>44.94</ele>
        <time>2020-07-08T11:53:00Z</time>
      </trkpt>
      <trkpt lat="47.80804" lon="-3.53482">
        <ele>44.94</ele>
        <time>2020-07-08T11:53:01Z</time>
      </trkpt>
      <trkpt lat="47.80802" lon="-3.53478">
        <ele>44.88</ele>
        <time>2020-07-08T11:53:02Z</time>
      </trkpt>
      <trkpt lat="47.80799" lon="-3.53472">
        <ele>44.79</ele>
        <time>2020-07-08T11:53:03Z</time>
      </trkpt>
      <trkpt lat="47.80795" lon="-3.53467">
        <ele>44.73</ele>
        <time>2020-07-08T11:53:04Z</time>
      </trkpt>
      <trkpt lat="47.80792" lon="-3.53462">
        <ele>44.71</ele>
        <time>2020-07-08T11:53:05Z</time>
      </trkpt>
      <trkpt lat="47.8079" lon="-3.53458">
        <ele>44.73</ele>
        <time>2020-07-08T11:53:06Z</time>
      </trkpt>
      <trkpt lat="47.80787" lon="-3.53453">
        <ele>44.77</ele>
        <time>2020-07-08T11:53:07Z</time>
      </trkpt>
      <trkpt lat="47.80785" lon="-3.53449">
        <ele>44.85</ele>
        <time>2020-07-08T11:53:08Z</time>
      </trkpt>
      <trkpt lat="47.80783" lon="-3.53444">
        <ele>44.96</ele>
        <time>2020-07-08T11:53:09Z</time>
      </trkpt>
      <trkpt lat="47.80781" lon="-3.5344">
        <ele>44.99</ele>
        <time>2020-07-08T11:53:10Z</time>
      </trkpt>
      <trkpt lat="47.80778" lon="-3.53436">
        <ele>45</ele>
        <time>2020-07-08T11:53:11Z</time>
      </trkpt>
      <trkpt lat="47.80776" lon="-3.53432">
        <ele>44.95</ele>
        <time>2020-07-08T11:53:12Z</time>
      </trkpt>
      <trkpt lat="47.80773" lon="-3.53429">
        <ele>44.87</ele>
        <time>2020-07-08T11:53:13Z</time>
      </trkpt>
      <trkpt lat="47.8077" lon="-3.53425">
        <ele>44.77</ele>
        <time>2020-07-08T11:53:14Z</time>
      </trkpt>
      <trkpt lat="47.80767" lon="-3.5342">
        <ele>44.66</ele>
        <time>2020-07-08T11:53:15Z</time>
      </trkpt>
      <trkpt lat="47.80765" lon="-3.53416">
        <ele>44.58</ele>
        <time>2020-07-08T11:53:16Z</time>
      </trkpt>
      <trkpt lat="47.80762" lon="-3.53412">
        <ele>44.6</ele>
        <time>2020-07-08T11:53:17Z</time>
      </trkpt>
      <trkpt lat="47.8076" lon="-3.53408">
        <ele>44.65</ele>
        <time>2020-07-08T11:53:18Z</time>
      </trkpt>
      <trkpt lat="47.80756" lon="-3.53403">
        <ele>44.7</ele>
        <time>2020-07-08T11:53:19Z</time>
      </trkpt>
      <trkpt lat="47.80754" lon="-3.53399">
        <ele>44.75</ele>
        <time>2020-07-08T11:53:20Z</time>
      </trkpt>
      <trkpt lat="47.8075" lon="-3.53394">
        <ele>44.81</ele>
        <time>2020-07-08T11:53:21Z</time>
      </trkpt>
      <trkpt lat="47.80747" lon="-3.53389">
        <ele>44.88</ele>
        <time>2020-07-08T11:53:22Z</time>
      </trkpt>
      <trkpt lat="47.80745" lon="-3.53385">
        <ele>44.91</ele>
        <time>2020-07-08T11:53:23Z</time>
      </trkpt>
      <trkpt lat="47.80743" lon="-3.53382">
        <ele>44.92</ele>
        <time>2020-07-08T11:53:24Z</time>
      </trkpt>
      <trkpt lat="47.8074" lon="-3.53378">
        <ele>44.9</ele>
        <time>2020-07-08T11:53:25Z</time>
      </trkpt>
      <trkpt lat="47.80736" lon="-3.53374">
        <ele>44.81</ele>
        <time>2020-07-08T11:53:26Z</time>
      </trkpt>
      <trkpt lat="47.80733" lon="-3.5337">
        <ele>44.71</ele>
        <time>2020-07-08T11:53:27Z</time>
      </trkpt>
      <trkpt lat="47.80729" lon="-3.53364">
        <ele>44.54</ele>
        <time>2020-07-08T11:53:28Z</time>
      </trkpt>
      <trkpt lat="47.80726" lon="-3.53358">
        <ele>44.43</ele>
        <time>2020-07-08T11:53:29Z</time>
      </trkpt>
      <trkpt lat="47.80724" lon="-3.53352">
        <ele>44.42</ele>
        <time>2020-07-08T11:53:30Z</time>
      </trkpt>
      <trkpt lat="47.80722" lon="-3.53347">
        <ele>44.49</ele>
        <time>2020-07-08T11:53:31Z</time>
      </trkpt>
      <trkpt lat="47.80721" lon="-3.53341">
        <ele>44.62</ele>
        <time>2020-07-08T11:53:32Z</time>
      </trkpt>
      <trkpt lat="47.80721" lon="-3.53336">
        <ele>44.79</ele>
        <time>2020-07-08T11:53:33Z</time>
      </trkpt>
      <trkpt lat="47.80721" lon="-3.53329">
        <ele>44.86</ele>
        <time>2020-07-08T11:53:34Z</time>
      </trkpt>
      <trkpt lat="47.8072" lon="-3.53323">
        <ele>44.86</ele>
        <time>2020-07-08T11:53:35Z</time>
      </trkpt>
      <trkpt lat="47.8072" lon="-3.53317">
        <ele>44.87</ele>
        <time>2020-07-08T11:53:36Z</time>
      </trkpt>
      <trkpt lat="47.80721" lon="-3.53311">
        <ele>44.91</ele>
        <time>2020-07-08T11:53:37Z</time>
      </trkpt>
      <trkpt lat="47.80722" lon="-3.53306">
        <ele>44.96</ele>
        <time>2020-07-08T11:53:38Z</time>
      </trkpt>
      <trkpt lat="47.80723" lon="-3.53301">
        <ele>45.05</ele>
        <time>2020-07-08T11:53:39Z</time>
      </trkpt>
      <trkpt lat="47.80726" lon="-3.53296">
        <ele>45.16</ele>
        <time>2020-07-08T11:53:40Z</time>
      </trkpt>
      <trkpt lat="47.80728" lon="-3.53291">
        <ele>45.27</ele>
        <time>2020-07-08T11:53:41Z</time>
      </trkpt>
      <trkpt lat="47.80731" lon="-3.53287">
        <ele>45.39</ele>
        <time>2020-07-08T11:53:42Z</time>
      </trkpt>
      <trkpt lat="47.80734" lon="-3.53283">
        <ele>45.48</ele>
        <time>2020-07-08T11:53:43Z</time>
      </trkpt>
      <trkpt lat="47.80738" lon="-3.53279">
        <ele>45.55</ele>
        <time>2020-07-08T11:53:44Z</time>
      </trkpt>
      <trkpt lat="47.80742" lon="-3.53276">
        <ele>45.64</ele>
        <time>2020-07-08T11:53:45Z</time>
      </trkpt>
      <trkpt lat="47.80746" lon="-3.53273">
        <ele>45.77</ele>
        <time>2020-07-08T11:53:46Z</time>
      </trkpt>
      <trkpt lat="47.8075" lon="-3.5327">
        <ele>45.92</ele>
        <time>2020-07-08T11:53:47Z</time>
      </trkpt>
      <trkpt lat="47.80753" lon="-3.53267">
        <ele>46.06</ele>
        <time>2020-07-08T11:53:48Z</time>
      </trkpt>
      <trkpt lat="47.80757" lon="-3.53264">
        <ele>46.19</ele>
        <time>2020-07-08T11:53:49Z</time>
      </trkpt>
      <trkpt lat="47.8076" lon="-3.5326">
        <ele>46.31</ele>
        <time>2020-07-08T11:53:50Z</time>
      </trkpt>
      <trkpt lat="47.80763" lon="-3.53257">
        <ele>46.43</ele>
        <time>2020-07-08T11:53:51Z</time>
      </trkpt>
      <trkpt lat="47.80767" lon="-3.53251">
        <ele>46.55</ele>
        <time>2020-07-08T11:53:52Z</time>
      </trkpt>
      <trkpt lat="47.8077" lon="-3.53246">
        <ele>46.56</ele>
        <time>2020-07-08T11:53:53Z</time>
      </trkpt>
      <trkpt lat="47.80773" lon="-3.53241">
        <ele>46.53</ele>
        <time>2020-07-08T11:53:54Z</time>
      </trkpt>
      <trkpt lat="47.80777" lon="-3.53237">
        <ele>46.49</ele>
        <time>2020-07-08T11:53:55Z</time>
      </trkpt>
      <trkpt lat="47.8078" lon="-3.53232">
        <ele>46.39</ele>
        <time>2020-07-08T11:53:56Z</time>
      </trkpt>
      <trkpt lat="47.80783" lon="-3.53228">
        <ele>46.25</ele>
        <time>2020-07-08T11:53:57Z</time>
      </trkpt>
      <trkpt lat="47.80786" lon="-3.53223">
        <ele>46.11</ele>
        <time>2020-07-08T11:53:58Z</time>
      </trkpt>
      <trkpt lat="47.80789" lon="-3.53218">
        <ele>45.93</ele>
        <time>2020-07-08T11:53:59Z</time>
      </trkpt>
      <trkpt lat="47.80792" lon="-3.53214">
        <ele>45.77</ele>
        <time>2020-07-08T11:54:00Z</time>
      </trkpt>
      <trkpt lat="47.80795" lon="-3.53208">
        <ele>45.58</ele>
        <time>2020-07-08T11:54:01Z</time>
      </trkpt>
      <trkpt lat="47.80799" lon="-3.53202">
        <ele>45.37</ele>
        <time>2020-07-08T11:54:02Z</time>
      </trkpt>
      <trkpt lat="47.80803" lon="-3.53195">
        <ele>45.13</ele>
        <time>2020-07-08T11:54:03Z</time>
      </trkpt>
      <trkpt lat="47.80807" lon="-3.53189">
        <ele>44.78</ele>
        <time>2020-07-08T11:54:04Z</time>
      </trkpt>
      <trkpt lat="47.80811" lon="-3.53184">
        <ele>44.39</ele>
        <time>2020-07-08T11:54:05Z</time>
      </trkpt>
      <trkpt lat="47.80815" lon="-3.53178">
        <ele>44.01</ele>
        <time>2020-07-08T11:54:06Z</time>
      </trkpt>
      <trkpt lat="47.80819" lon="-3.53172">
        <ele>43.56</ele>
        <time>2020-07-08T11:54:07Z</time>
      </trkpt>
      <trkpt lat="47.80822" lon="-3.53166">
        <ele>43.12</ele>
        <time>2020-07-08T11:54:08Z</time>
      </trkpt>
      <trkpt lat="47.80826" lon="-3.53158">
        <ele>42.61</ele>
        <time>2020-07-08T11:54:09Z</time>
      </trkpt>
      <trkpt lat="47.80829" lon="-3.53151">
        <ele>42.11</ele>
        <time>2020-07-08T11:54:10Z</time>
      </trkpt>
      <trkpt lat="47.80832" lon="-3.53145">
        <ele>41.62</ele>
        <time>2020-07-08T11:54:11Z</time>
      </trkpt>
      <trkpt lat="47.80835" lon="-3.53137">
        <ele>41.06</ele>
        <time>2020-07-08T11:54:12Z</time>
      </trkpt>
      <trkpt lat="47.80838" lon="-3.53129">
        <ele>40.46</ele>
        <time>2020-07-08T11:54:13Z</time>
      </trkpt>
      <trkpt lat="47.8084" lon="-3.53122">
        <ele>39.9</ele>
        <time>2020-07-08T11:54:14Z</time>
      </trkpt>
      <trkpt lat="47.80843" lon="-3.53114">
        <ele>39.39</ele>
        <time>2020-07-08T11:54:15Z</time>
      </trkpt>
      <trkpt lat="47.80846" lon="-3.53106">
        <ele>38.94</ele>
        <time>2020-07-08T11:54:16Z</time>
      </trkpt>
      <trkpt lat="47.80849" lon="-3.53098">
        <ele>38.47</ele>
        <time>2020-07-08T11:54:17Z</time>
      </trkpt>
      <trkpt lat="47.80852" lon="-3.53089">
        <ele>37.91</ele>
        <time>2020-07-08T11:54:18Z</time>
      </trkpt>
      <trkpt lat="47.80856" lon="-3.5308">
        <ele>37.32</ele>
        <time>2020-07-08T11:54:19Z</time>
      </trkpt>
      <trkpt lat="47.80859" lon="-3.53071">
        <ele>36.84</ele>
        <time>2020-07-08T11:54:20Z</time>
      </trkpt>
      <trkpt lat="47.80862" lon="-3.53063">
        <ele>36.42</ele>
        <time>2020-07-08T11:54:21Z</time>
      </trkpt>
      <trkpt lat="47.80865" lon="-3.53053">
        <ele>36.13</ele>
        <time>2020-07-08T11:54:22Z</time>
      </trkpt>
      <trkpt lat="47.80869" lon="-3.53045">
        <ele>36.04</ele>
        <time>2020-07-08T11:54:23Z</time>
      </trkpt>
      <trkpt lat="47.80871" lon="-3.53037">
        <ele>36.01</ele>
        <time>2020-07-08T11:54:24Z</time>
      </trkpt>
      <trkpt lat="47.80874" lon="-3.5303">
        <ele>36</ele>
        <time>2020-07-08T11:54:25Z</time>
      </trkpt>
      <trkpt lat="47.80878" lon="-3.53023">
        <ele>36</ele>
        <time>2020-07-08T11:54:26Z</time>
      </trkpt>
      <trkpt lat="47.80882" lon="-3.53014">
        <ele>36</ele>
        <time>2020-07-08T11:54:27Z</time>
      </trkpt>
      <trkpt lat="47.80886" lon="-3.53007">
        <ele>36</ele>
        <time>2020-07-08T11:54:28Z</time>
      </trkpt>
      <trkpt lat="47.8089" lon="-3.53">
        <ele>35.98</ele>
        <time>2020-07-08T11:54:29Z</time>
      </trkpt>
      <trkpt lat="47.80894" lon="-3.52994">
        <ele>35.86</ele>
        <time>2020-07-08T11:54:30Z</time>
      </trkpt>
      <trkpt lat="47.80899" lon="-3.52988">
        <ele>35.7</ele>
        <time>2020-07-08T11:54:31Z</time>
      </trkpt>
      <trkpt lat="47.80904" lon="-3.52984">
        <ele>35.52</ele>
        <time>2020-07-08T11:54:32Z</time>
      </trkpt>
      <trkpt lat="47.80909" lon="-3.52979">
        <ele>35.35</ele>
        <time>2020-07-08T11:54:33Z</time>
      </trkpt>
      <trkpt lat="47.80914" lon="-3.52974">
        <ele>35.17</ele>
        <time>2020-07-08T11:54:34Z</time>
      </trkpt>
      <trkpt lat="47.80919" lon="-3.52969">
        <ele>35.12</ele>
        <time>2020-07-08T11:54:35Z</time>
      </trkpt>
      <trkpt lat="47.80924" lon="-3.52964">
        <ele>35.18</ele>
        <time>2020-07-08T11:54:36Z</time>
      </trkpt>
      <trkpt lat="47.8093" lon="-3.5296">
        <ele>35.21</ele>
        <time>2020-07-08T11:54:37Z</time>
      </trkpt>
      <trkpt lat="47.80935" lon="-3.52955">
        <ele>35.21</ele>
        <time>2020-07-08T11:54:38Z</time>
      </trkpt>
      <trkpt lat="47.8094" lon="-3.52951">
        <ele>35.14</ele>
        <time>2020-07-08T11:54:39Z</time>
      </trkpt>
      <trkpt lat="47.80945" lon="-3.52947">
        <ele>35.03</ele>
        <time>2020-07-08T11:54:40Z</time>
      </trkpt>
      <trkpt lat="47.8095" lon="-3.52942">
        <ele>34.85</ele>
        <time>2020-07-08T11:54:41Z</time>
      </trkpt>
      <trkpt lat="47.80956" lon="-3.52938">
        <ele>34.59</ele>
        <time>2020-07-08T11:54:42Z</time>
      </trkpt>
      <trkpt lat="47.80962" lon="-3.52934">
        <ele>34.27</ele>
        <time>2020-07-08T11:54:43Z</time>
      </trkpt>
      <trkpt lat="47.80967" lon="-3.52928">
        <ele>33.89</ele>
        <time>2020-07-08T11:54:44Z</time>
      </trkpt>
      <trkpt lat="47.80971" lon="-3.52922">
        <ele>33.45</ele>
        <time>2020-07-08T11:54:45Z</time>
      </trkpt>
      <trkpt lat="47.80975" lon="-3.52915">
        <ele>32.87</ele>
        <time>2020-07-08T11:54:46Z</time>
      </trkpt>
      <trkpt lat="47.8098" lon="-3.52907">
        <ele>32.15</ele>
        <time>2020-07-08T11:54:47Z</time>
      </trkpt>
      <trkpt lat="47.80984" lon="-3.529">
        <ele>31.44</ele>
        <time>2020-07-08T11:54:48Z</time>
      </trkpt>
      <trkpt lat="47.80988" lon="-3.52892">
        <ele>30.76</ele>
        <time>2020-07-08T11:54:49Z</time>
      </trkpt>
      <trkpt lat="47.8099" lon="-3.52884">
        <ele>30.12</ele>
        <time>2020-07-08T11:54:50Z</time>
      </trkpt>
      <trkpt lat="47.80992" lon="-3.52875">
        <ele>29.55</ele>
        <time>2020-07-08T11:54:51Z</time>
      </trkpt>
      <trkpt lat="47.80993" lon="-3.52866">
        <ele>29.13</ele>
        <time>2020-07-08T11:54:52Z</time>
      </trkpt>
      <trkpt lat="47.80992" lon="-3.52857">
        <ele>28.79</ele>
        <time>2020-07-08T11:54:53Z</time>
      </trkpt>
      <trkpt lat="47.80991" lon="-3.52848">
        <ele>28.48</ele>
        <time>2020-07-08T11:54:54Z</time>
      </trkpt>
      <trkpt lat="47.8099" lon="-3.52839">
        <ele>28.18</ele>
        <time>2020-07-08T11:54:55Z</time>
      </trkpt>
      <trkpt lat="47.80989" lon="-3.52829">
        <ele>28</ele>
        <time>2020-07-08T11:54:56Z</time>
      </trkpt>
      <trkpt lat="47.80988" lon="-3.5282">
        <ele>27.88</ele>
        <time>2020-07-08T11:54:57Z</time>
      </trkpt>
      <trkpt lat="47.80987" lon="-3.52812">
        <ele>27.86</ele>
        <time>2020-07-08T11:54:58Z</time>
      </trkpt>
      <trkpt lat="47.80985" lon="-3.52802">
        <ele>28.06</ele>
        <time>2020-07-08T11:54:59Z</time>
      </trkpt>
      <trkpt lat="47.80983" lon="-3.52791">
        <ele>28.35</ele>
        <time>2020-07-08T11:55:00Z</time>
      </trkpt>
      <trkpt lat="47.8098" lon="-3.5278">
        <ele>28.76</ele>
        <time>2020-07-08T11:55:01Z</time>
      </trkpt>
      <trkpt lat="47.80979" lon="-3.52769">
        <ele>28.31</ele>
        <time>2020-07-08T11:55:02Z</time>
      </trkpt>
      <trkpt lat="47.80978" lon="-3.52756">
        <ele>27.22</ele>
        <time>2020-07-08T11:55:03Z</time>
      </trkpt>
      <trkpt lat="47.80976" lon="-3.52743">
        <ele>25.89</ele>
        <time>2020-07-08T11:55:04Z</time>
      </trkpt>
      <trkpt lat="47.80974" lon="-3.5273">
        <ele>24.38</ele>
        <time>2020-07-08T11:55:05Z</time>
      </trkpt>
      <trkpt lat="47.80971" lon="-3.52716">
        <ele>22.94</ele>
        <time>2020-07-08T11:55:06Z</time>
      </trkpt>
      <trkpt lat="47.80968" lon="-3.52703">
        <ele>21.57</ele>
        <time>2020-07-08T11:55:07Z</time>
      </trkpt>
      <trkpt lat="47.80965" lon="-3.52691">
        <ele>20.41</ele>
        <time>2020-07-08T11:55:08Z</time>
      </trkpt>
      <trkpt lat="47.8096" lon="-3.52679">
        <ele>19.71</ele>
        <time>2020-07-08T11:55:09Z</time>
      </trkpt>
      <trkpt lat="47.80956" lon="-3.52666">
        <ele>19.02</ele>
        <time>2020-07-08T11:55:10Z</time>
      </trkpt>
      <trkpt lat="47.8095" lon="-3.52652">
        <ele>18.25</ele>
        <time>2020-07-08T11:55:11Z</time>
      </trkpt>
      <trkpt lat="47.80943" lon="-3.52639">
        <ele>17.41</ele>
        <time>2020-07-08T11:55:12Z</time>
      </trkpt>
      <trkpt lat="47.80935" lon="-3.5263">
        <ele>16.68</ele>
        <time>2020-07-08T11:55:13Z</time>
      </trkpt>
      <trkpt lat="47.80928" lon="-3.52621">
        <ele>15.97</ele>
        <time>2020-07-08T11:55:14Z</time>
      </trkpt>
      <trkpt lat="47.80921" lon="-3.52614">
        <ele>15.42</ele>
        <time>2020-07-08T11:55:15Z</time>
      </trkpt>
      <trkpt lat="47.80915" lon="-3.52608">
        <ele>15.05</ele>
        <time>2020-07-08T11:55:16Z</time>
      </trkpt>
      <trkpt lat="47.80908" lon="-3.526">
        <ele>14.66</ele>
        <time>2020-07-08T11:55:17Z</time>
      </trkpt>
      <trkpt lat="47.80902" lon="-3.52594">
        <ele>14.24</ele>
        <time>2020-07-08T11:55:18Z</time>
      </trkpt>
      <trkpt lat="47.80896" lon="-3.5259">
        <ele>13.86</ele>
        <time>2020-07-08T11:55:19Z</time>
      </trkpt>
      <trkpt lat="47.80889" lon="-3.5259">
        <ele>13.57</ele>
        <time>2020-07-08T11:55:20Z</time>
      </trkpt>
      <trkpt lat="47.80882" lon="-3.5259">
        <ele>13.48</ele>
        <time>2020-07-08T11:55:21Z</time>
      </trkpt>
      <trkpt lat="47.80874" lon="-3.52592">
        <ele>13.47</ele>
        <time>2020-07-08T11:55:22Z</time>
      </trkpt>
      <trkpt lat="47.80867" lon="-3.52595">
        <ele>13.5</ele>
        <time>2020-07-08T11:55:23Z</time>
      </trkpt>
      <trkpt lat="47.80861" lon="-3.52597">
        <ele>13.5</ele>
        <time>2020-07-08T11:55:24Z</time>
      </trkpt>
      <trkpt lat="47.80856" lon="-3.526">
        <ele>13.39</ele>
        <time>2020-07-08T11:55:25Z</time>
      </trkpt>
      <trkpt lat="47.8085" lon="-3.52603">
        <ele>13.25</ele>
        <time>2020-07-08T11:55:26Z</time>
      </trkpt>
      <trkpt lat="47.80844" lon="-3.52606">
        <ele>13.11</ele>
        <time>2020-07-08T11:55:27Z</time>
      </trkpt>
      <trkpt lat="47.80838" lon="-3.52607">
        <ele>12.97</ele>
        <time>2020-07-08T11:55:28Z</time>
      </trkpt>
      <trkpt lat="47.80831" lon="-3.52609">
        <ele>12.79</ele>
        <time>2020-07-08T11:55:29Z</time>
      </trkpt>
      <trkpt lat="47.80826" lon="-3.52611">
        <ele>12.52</ele>
        <time>2020-07-08T11:55:30Z</time>
      </trkpt>
      <trkpt lat="47.8082" lon="-3.52612">
        <ele>12.21</ele>
        <time>2020-07-08T11:55:31Z</time>
      </trkpt>
      <trkpt lat="47.80814" lon="-3.52613">
        <ele>11.95</ele>
        <time>2020-07-08T11:55:32Z</time>
      </trkpt>
      <trkpt lat="47.80808" lon="-3.52615">
        <ele>11.71</ele>
        <time>2020-07-08T11:55:33Z</time>
      </trkpt>
      <trkpt lat="47.80802" lon="-3.52618">
        <ele>11.47</ele>
        <time>2020-07-08T11:55:34Z</time>
      </trkpt>
      <trkpt lat="47.80795" lon="-3.52622">
        <ele>11.27</ele>
        <time>2020-07-08T11:55:35Z</time>
      </trkpt>
      <trkpt lat="47.8079" lon="-3.52624">
        <ele>11.08</ele>
        <time>2020-07-08T11:55:36Z</time>
      </trkpt>
      <trkpt lat="47.80784" lon="-3.52626">
        <ele>10.85</ele>
        <time>2020-07-08T11:55:37Z</time>
      </trkpt>
      <trkpt lat="47.80779" lon="-3.52629">
        <ele>10.7</ele>
        <time>2020-07-08T11:55:38Z</time>
      </trkpt>
      <trkpt lat="47.80772" lon="-3.52632">
        <ele>10.04</ele>
        <time>2020-07-08T11:55:39Z</time>
      </trkpt>
      <trkpt lat="47.80765" lon="-3.52635">
        <ele>9.19</ele>
        <time>2020-07-08T11:55:40Z</time>
      </trkpt>
      <trkpt lat="47.80759" lon="-3.52639">
        <ele>8.28</ele>
        <time>2020-07-08T11:55:41Z</time>
      </trkpt>
      <trkpt lat="47.80753" lon="-3.52641">
        <ele>7.46</ele>
        <time>2020-07-08T11:55:42Z</time>
      </trkpt>
      <trkpt lat="47.80748" lon="-3.52643">
        <ele>6.88</ele>
        <time>2020-07-08T11:55:43Z</time>
      </trkpt>
      <trkpt lat="47.80743" lon="-3.52645">
        <ele>6.75</ele>
        <time>2020-07-08T11:55:44Z</time>
      </trkpt>
      <trkpt lat="47.80738" lon="-3.52645">
        <ele>6.66</ele>
        <time>2020-07-08T11:55:45Z</time>
      </trkpt>
      <trkpt lat="47.80732" lon="-3.52647">
        <ele>6.6</ele>
        <time>2020-07-08T11:55:46Z</time>
      </trkpt>
      <trkpt lat="47.80727" lon="-3.52648">
        <ele>6.51</ele>
        <time>2020-07-08T11:55:47Z</time>
      </trkpt>
      <trkpt lat="47.80723" lon="-3.5265">
        <ele>6.55</ele>
        <time>2020-07-08T11:55:48Z</time>
      </trkpt>
      <trkpt lat="47.80718" lon="-3.52652">
        <ele>6.67</ele>
        <time>2020-07-08T11:55:49Z</time>
      </trkpt>
      <trkpt lat="47.80714" lon="-3.52653">
        <ele>6.84</ele>
        <time>2020-07-08T11:55:50Z</time>
      </trkpt>
      <trkpt lat="47.8071" lon="-3.52654">
        <ele>7</ele>
        <time>2020-07-08T11:55:51Z</time>
      </trkpt>
      <trkpt lat="47.80705" lon="-3.52655">
        <ele>7.14</ele>
        <time>2020-07-08T11:55:52Z</time>
      </trkpt>
      <trkpt lat="47.80701" lon="-3.52657">
        <ele>7.39</ele>
        <time>2020-07-08T11:55:53Z</time>
      </trkpt>
      <trkpt lat="47.80695" lon="-3.5266">
        <ele>8.01</ele>
        <time>2020-07-08T11:55:54Z</time>
      </trkpt>
      <trkpt lat="47.80689" lon="-3.52663">
        <ele>8.09</ele>
        <time>2020-07-08T11:55:55Z</time>
      </trkpt>
      <trkpt lat="47.80684" lon="-3.52665">
        <ele>7.75</ele>
        <time>2020-07-08T11:55:56Z</time>
      </trkpt>
      <trkpt lat="47.80678" lon="-3.52666">
        <ele>7.21</ele>
        <time>2020-07-08T11:55:57Z</time>
      </trkpt>
      <trkpt lat="47.80672" lon="-3.52668">
        <ele>6.51</ele>
        <time>2020-07-08T11:55:58Z</time>
      </trkpt>
      <trkpt lat="47.80667" lon="-3.52671">
        <ele>6.02</ele>
        <time>2020-07-08T11:55:59Z</time>
      </trkpt>
      <trkpt lat="47.80661" lon="-3.52674">
        <ele>5.59</ele>
        <time>2020-07-08T11:56:00Z</time>
      </trkpt>
      <trkpt lat="47.80655" lon="-3.52676">
        <ele>5.14</ele>
        <time>2020-07-08T11:56:01Z</time>
      </trkpt>
      <trkpt lat="47.80649" lon="-3.52678">
        <ele>4.71</ele>
        <time>2020-07-08T11:56:02Z</time>
      </trkpt>
      <trkpt lat="47.80644" lon="-3.5268">
        <ele>4.35</ele>
        <time>2020-07-08T11:56:03Z</time>
      </trkpt>
      <trkpt lat="47.8064" lon="-3.52682">
        <ele>4.02</ele>
        <time>2020-07-08T11:56:04Z</time>
      </trkpt>
      <trkpt lat="47.80634" lon="-3.52684">
        <ele>3.9</ele>
        <time>2020-07-08T11:56:05Z</time>
      </trkpt>
      <trkpt lat="47.80628" lon="-3.52686">
        <ele>3.92</ele>
        <time>2020-07-08T11:56:06Z</time>
      </trkpt>
      <trkpt lat="47.80623" lon="-3.52689">
        <ele>3.94</ele>
        <time>2020-07-08T11:56:07Z</time>
      </trkpt>
      <trkpt lat="47.80618" lon="-3.52691">
        <ele>3.99</ele>
        <time>2020-07-08T11:56:08Z</time>
      </trkpt>
      <trkpt lat="47.80612" lon="-3.52694">
        <ele>3.96</ele>
        <time>2020-07-08T11:56:09Z</time>
      </trkpt>
      <trkpt lat="47.80607" lon="-3.52696">
        <ele>4.05</ele>
        <time>2020-07-08T11:56:10Z</time>
      </trkpt>
      <trkpt lat="47.80601" lon="-3.52699">
        <ele>4.3</ele>
        <time>2020-07-08T11:56:11Z</time>
      </trkpt>
      <trkpt lat="47.80596" lon="-3.52702">
        <ele>4.55</ele>
        <time>2020-07-08T11:56:12Z</time>
      </trkpt>
      <trkpt lat="47.8059" lon="-3.52705">
        <ele>4.76</ele>
        <time>2020-07-08T11:56:13Z</time>
      </trkpt>
      <trkpt lat="47.80586" lon="-3.52708">
        <ele>4.95</ele>
        <time>2020-07-08T11:56:14Z</time>
      </trkpt>
      <trkpt lat="47.80581" lon="-3.5271">
        <ele>5.09</ele>
        <time>2020-07-08T11:56:15Z</time>
      </trkpt>
      <trkpt lat="47.80576" lon="-3.52712">
        <ele>5.08</ele>
        <time>2020-07-08T11:56:16Z</time>
      </trkpt>
      <trkpt lat="47.80572" lon="-3.52716">
        <ele>5.18</ele>
        <time>2020-07-08T11:56:17Z</time>
      </trkpt>
      <trkpt lat="47.80566" lon="-3.52718">
        <ele>5.21</ele>
        <time>2020-07-08T11:56:18Z</time>
      </trkpt>
      <trkpt lat="47.80562" lon="-3.5272">
        <ele>5.14</ele>
        <time>2020-07-08T11:56:19Z</time>
      </trkpt>
      <trkpt lat="47.80556" lon="-3.52722">
        <ele>5.05</ele>
        <time>2020-07-08T11:56:20Z</time>
      </trkpt>
      <trkpt lat="47.80551" lon="-3.52725">
        <ele>4.93</ele>
        <time>2020-07-08T11:56:21Z</time>
      </trkpt>
      <trkpt lat="47.80544" lon="-3.52727">
        <ele>4.7</ele>
        <time>2020-07-08T11:56:22Z</time>
      </trkpt>
      <trkpt lat="47.80537" lon="-3.52728">
        <ele>4.29</ele>
        <time>2020-07-08T11:56:23Z</time>
      </trkpt>
      <trkpt lat="47.8053" lon="-3.52729">
        <ele>3.86</ele>
        <time>2020-07-08T11:56:24Z</time>
      </trkpt>
      <trkpt lat="47.80524" lon="-3.5273">
        <ele>3.55</ele>
        <time>2020-07-08T11:56:25Z</time>
      </trkpt>
      <trkpt lat="47.80517" lon="-3.52731">
        <ele>3.34</ele>
        <time>2020-07-08T11:56:26Z</time>
      </trkpt>
      <trkpt lat="47.8051" lon="-3.52731">
        <ele>3.1</ele>
        <time>2020-07-08T11:56:27Z</time>
      </trkpt>
      <trkpt lat="47.80503" lon="-3.52731">
        <ele>2.82</ele>
        <time>2020-07-08T11:56:28Z</time>
      </trkpt>
      <trkpt lat="47.80496" lon="-3.5273">
        <ele>2.54</ele>
        <time>2020-07-08T11:56:29Z</time>
      </trkpt>
      <trkpt lat="47.8049" lon="-3.5273">
        <ele>2.28</ele>
        <time>2020-07-08T11:56:30Z</time>
      </trkpt>
      <trkpt lat="47.80484" lon="-3.52729">
        <ele>2.04</ele>
        <time>2020-07-08T11:56:31Z</time>
      </trkpt>
      <trkpt lat="47.80478" lon="-3.52729">
        <ele>1.82</ele>
        <time>2020-07-08T11:56:32Z</time>
      </trkpt>
      <trkpt lat="47.80472" lon="-3.5273">
        <ele>1.63</ele>
        <time>2020-07-08T11:56:33Z</time>
      </trkpt>
      <trkpt lat="47.80467" lon="-3.5273">
        <ele>1.66</ele>
        <time>2020-07-08T11:56:34Z</time>
      </trkpt>
      <trkpt lat="47.80462" lon="-3.52729">
        <ele>1.75</ele>
        <time>2020-07-08T11:56:35Z</time>
      </trkpt>
      <trkpt lat="47.80457" lon="-3.52729">
        <ele>1.86</ele>
        <time>2020-07-08T11:56:36Z</time>
      </trkpt>
      <trkpt lat="47.80452" lon="-3.52728">
        <ele>1.96</ele>
        <time>2020-07-08T11:56:37Z</time>
      </trkpt>
      <trkpt lat="47.80448" lon="-3.52728">
        <ele>2.05</ele>
        <time>2020-07-08T11:56:38Z</time>
      </trkpt>
      <trkpt lat="47.80443" lon="-3.52727">
        <ele>2.13</ele>
        <time>2020-07-08T11:56:39Z</time>
      </trkpt>
      <trkpt lat="47.80439" lon="-3.52727">
        <ele>2.14</ele>
        <time>2020-07-08T11:56:40Z</time>
      </trkpt>
      <trkpt lat="47.80435" lon="-3.52727">
        <ele>2.12</ele>
        <time>2020-07-08T11:56:41Z</time>
      </trkpt>
      <trkpt lat="47.8043" lon="-3.52727">
        <ele>2.09</ele>
        <time>2020-07-08T11:56:42Z</time>
      </trkpt>
      <trkpt lat="47.80426" lon="-3.52727">
        <ele>2.07</ele>
        <time>2020-07-08T11:56:43Z</time>
      </trkpt>
      <trkpt lat="47.80421" lon="-3.52727">
        <ele>2.04</ele>
        <time>2020-07-08T11:56:44Z</time>
      </trkpt>
      <trkpt lat="47.80417" lon="-3.52726">
        <ele>2.02</ele>
        <time>2020-07-08T11:56:45Z</time>
      </trkpt>
      <trkpt lat="47.80412" lon="-3.52726">
        <ele>2.2</ele>
        <time>2020-07-08T11:56:46Z</time>
      </trkpt>
      <trkpt lat="47.80408" lon="-3.52724">
        <ele>2.47</ele>
        <time>2020-07-08T11:56:47Z</time>
      </trkpt>
      <trkpt lat="47.80404" lon="-3.52723">
        <ele>2.79</ele>
        <time>2020-07-08T11:56:48Z</time>
      </trkpt>
      <trkpt lat="47.80399" lon="-3.52721">
        <ele>3.08</ele>
        <time>2020-07-08T11:56:49Z</time>
      </trkpt>
      <trkpt lat="47.80395" lon="-3.5272">
        <ele>3.34</ele>
        <time>2020-07-08T11:56:50Z</time>
      </trkpt>
      <trkpt lat="47.80391" lon="-3.5272">
        <ele>3.62</ele>
        <time>2020-07-08T11:56:51Z</time>
      </trkpt>
      <trkpt lat="47.80388" lon="-3.52719">
        <ele>3.85</ele>
        <time>2020-07-08T11:56:52Z</time>
      </trkpt>
      <trkpt lat="47.80384" lon="-3.52718">
        <ele>4.01</ele>
        <time>2020-07-08T11:56:53Z</time>
      </trkpt>
      <trkpt lat="47.80381" lon="-3.52717">
        <ele>4.15</ele>
        <time>2020-07-08T11:56:54Z</time>
      </trkpt>
      <trkpt lat="47.80378" lon="-3.52716">
        <ele>4.3</ele>
        <time>2020-07-08T11:56:55Z</time>
      </trkpt>
      <trkpt lat="47.80374" lon="-3.52715">
        <ele>4.47</ele>
        <time>2020-07-08T11:56:56Z</time>
      </trkpt>
      <trkpt lat="47.80372" lon="-3.52714">
        <ele>4.63</ele>
        <time>2020-07-08T11:56:57Z</time>
      </trkpt>
      <trkpt lat="47.80369" lon="-3.52713">
        <ele>4.78</ele>
        <time>2020-07-08T11:56:58Z</time>
      </trkpt>
      <trkpt lat="47.80368" lon="-3.52711">
        <ele>4.92</ele>
        <time>2020-07-08T11:56:59Z</time>
      </trkpt>
      <trkpt lat="47.80365" lon="-3.52709">
        <ele>5.09</ele>
        <time>2020-07-08T11:57:00Z</time>
      </trkpt>
      <trkpt lat="47.80363" lon="-3.52708">
        <ele>5.29</ele>
        <time>2020-07-08T11:57:01Z</time>
      </trkpt>
      <trkpt lat="47.80361" lon="-3.52706">
        <ele>5.52</ele>
        <time>2020-07-08T11:57:02Z</time>
      </trkpt>
      <trkpt lat="47.80359" lon="-3.52705">
        <ele>5.84</ele>
        <time>2020-07-08T11:57:03Z</time>
      </trkpt>
      <trkpt lat="47.80356" lon="-3.52703">
        <ele>6.2</ele>
        <time>2020-07-08T11:57:04Z</time>
      </trkpt>
      <trkpt lat="47.80353" lon="-3.52703">
        <ele>6.59</ele>
        <time>2020-07-08T11:57:05Z</time>
      </trkpt>
      <trkpt lat="47.8035" lon="-3.52703">
        <ele>6.99</ele>
        <time>2020-07-08T11:57:06Z</time>
      </trkpt>
      <trkpt lat="47.80348" lon="-3.52702">
        <ele>7.34</ele>
        <time>2020-07-08T11:57:07Z</time>
      </trkpt>
      <trkpt lat="47.80345" lon="-3.52702">
        <ele>7.7</ele>
        <time>2020-07-08T11:57:08Z</time>
      </trkpt>
      <trkpt lat="47.80343" lon="-3.52702">
        <ele>8.02</ele>
        <time>2020-07-08T11:57:09Z</time>
      </trkpt>
      <trkpt lat="47.80341" lon="-3.52702">
        <ele>8.32</ele>
        <time>2020-07-08T11:57:10Z</time>
      </trkpt>
      <trkpt lat="47.80338" lon="-3.52704">
        <ele>8.59</ele>
        <time>2020-07-08T11:57:11Z</time>
      </trkpt>
      <trkpt lat="47.80335" lon="-3.52706">
        <ele>8.87</ele>
        <time>2020-07-08T11:57:12Z</time>
      </trkpt>
      <trkpt lat="47.80332" lon="-3.52707">
        <ele>9.33</ele>
        <time>2020-07-08T11:57:13Z</time>
      </trkpt>
      <trkpt lat="47.80329" lon="-3.52708">
        <ele>9.91</ele>
        <time>2020-07-08T11:57:14Z</time>
      </trkpt>
      <trkpt lat="47.80326" lon="-3.52709">
        <ele>10.64</ele>
        <time>2020-07-08T11:57:15Z</time>
      </trkpt>
      <trkpt lat="47.80323" lon="-3.5271">
        <ele>11.42</ele>
        <time>2020-07-08T11:57:16Z</time>
      </trkpt>
      <trkpt lat="47.80319" lon="-3.52712">
        <ele>12.12</ele>
        <time>2020-07-08T11:57:17Z</time>
      </trkpt>
      <trkpt lat="47.80317" lon="-3.52713">
        <ele>12.74</ele>
        <time>2020-07-08T11:57:18Z</time>
      </trkpt>
      <trkpt lat="47.80314" lon="-3.52715">
        <ele>13.28</ele>
        <time>2020-07-08T11:57:19Z</time>
      </trkpt>
      <trkpt lat="47.80312" lon="-3.52716">
        <ele>13.82</ele>
        <time>2020-07-08T11:57:20Z</time>
      </trkpt>
      <trkpt lat="47.80309" lon="-3.52718">
        <ele>14.4</ele>
        <time>2020-07-08T11:57:21Z</time>
      </trkpt>
      <trkpt lat="47.80306" lon="-3.5272">
        <ele>14.96</ele>
        <time>2020-07-08T11:57:22Z</time>
      </trkpt>
      <trkpt lat="47.80303" lon="-3.52721">
        <ele>15.3</ele>
        <time>2020-07-08T11:57:23Z</time>
      </trkpt>
      <trkpt lat="47.803" lon="-3.52724">
        <ele>15.4</ele>
        <time>2020-07-08T11:57:24Z</time>
      </trkpt>
      <trkpt lat="47.80297" lon="-3.52726">
        <ele>15.48</ele>
        <time>2020-07-08T11:57:25Z</time>
      </trkpt>
      <trkpt lat="47.80294" lon="-3.52729">
        <ele>15.51</ele>
        <time>2020-07-08T11:57:26Z</time>
      </trkpt>
      <trkpt lat="47.80292" lon="-3.52731">
        <ele>15.56</ele>
        <time>2020-07-08T11:57:27Z</time>
      </trkpt>
      <trkpt lat="47.8029" lon="-3.52732">
        <ele>15.6</ele>
        <time>2020-07-08T11:57:28Z</time>
      </trkpt>
      <trkpt lat="47.80288" lon="-3.52735">
        <ele>15.56</ele>
        <time>2020-07-08T11:57:29Z</time>
      </trkpt>
      <trkpt lat="47.80285" lon="-3.52737">
        <ele>15.62</ele>
        <time>2020-07-08T11:57:30Z</time>
      </trkpt>
      <trkpt lat="47.80282" lon="-3.5274">
        <ele>15.73</ele>
        <time>2020-07-08T11:57:31Z</time>
      </trkpt>
      <trkpt lat="47.8028" lon="-3.52741">
        <ele>15.89</ele>
        <time>2020-07-08T11:57:32Z</time>
      </trkpt>
      <trkpt lat="47.80277" lon="-3.52743">
        <ele>16.01</ele>
        <time>2020-07-08T11:57:33Z</time>
      </trkpt>
      <trkpt lat="47.80276" lon="-3.52744">
        <ele>16.01</ele>
        <time>2020-07-08T11:57:34Z</time>
      </trkpt>
      <trkpt lat="47.80274" lon="-3.52746">
        <ele>15.9</ele>
        <time>2020-07-08T11:57:35Z</time>
      </trkpt>
      <trkpt lat="47.80272" lon="-3.52748">
        <ele>15.78</ele>
        <time>2020-07-08T11:57:36Z</time>
      </trkpt>
      <trkpt lat="47.80269" lon="-3.5275">
        <ele>15.66</ele>
        <time>2020-07-08T11:57:37Z</time>
      </trkpt>
      <trkpt lat="47.80266" lon="-3.52753">
        <ele>15.6</ele>
        <time>2020-07-08T11:57:38Z</time>
      </trkpt>
      <trkpt lat="47.80261" lon="-3.52755">
        <ele>15.61</ele>
        <time>2020-07-08T11:57:39Z</time>
      </trkpt>
      <trkpt lat="47.80258" lon="-3.52757">
        <ele>15.63</ele>
        <time>2020-07-08T11:57:40Z</time>
      </trkpt>
      <trkpt lat="47.80257" lon="-3.52758">
        <ele>15.63</ele>
        <time>2020-07-08T11:57:41Z</time>
      </trkpt>
      <trkpt lat="47.80254" lon="-3.5276">
        <ele>15.61</ele>
        <time>2020-07-08T11:57:42Z</time>
      </trkpt>
      <trkpt lat="47.80253" lon="-3.5276">
        <ele>15.65</ele>
        <time>2020-07-08T11:57:43Z</time>
      </trkpt>
      <trkpt lat="47.80252" lon="-3.5276">
        <ele>15.77</ele>
        <time>2020-07-08T11:57:44Z</time>
      </trkpt>
      <trkpt lat="47.80251" lon="-3.5276">
        <ele>15.85</ele>
        <time>2020-07-08T11:57:45Z</time>
      </trkpt>
      <trkpt lat="47.8025" lon="-3.5276">
        <ele>15.96</ele>
        <time>2020-07-08T11:57:46Z</time>
      </trkpt>
      <trkpt lat="47.80249" lon="-3.5276">
        <ele>16.02</ele>
        <time>2020-07-08T11:57:47Z</time>
      </trkpt>
      <trkpt lat="47.80249" lon="-3.5276">
        <ele>16.04</ele>
        <time>2020-07-08T11:57:48Z</time>
      </trkpt>
      <trkpt lat="47.80249" lon="-3.5276">
        <ele>16.04</ele>
        <time>2020-07-08T11:57:49Z</time>
      </trkpt>
      <trkpt lat="47.80249" lon="-3.5276">
        <ele>16.05</ele>
        <time>2020-07-08T11:57:50Z</time>
      </trkpt>
      <trkpt lat="47.80249" lon="-3.5276">
        <ele>16.05</ele>
        <time>2020-07-08T11:57:51Z</time>
      </trkpt>
      <trkpt lat="47.80249" lon="-3.5276">
        <ele>16.05</ele>
        <time>2020-07-08T11:57:52Z</time>
      </trkpt>
      <trkpt lat="47.80249" lon="-3.5276">
        <ele>16.05</ele>
        <time>2020-07-08T11:57:53Z</time>
      </trkpt>
      <trkpt lat="47.80249" lon="-3.5276">
        <ele>16.05</ele>
        <time>2020-07-08T11:57:54Z</time>
      </trkpt>
      <trkpt lat="47.80249" lon="-3.5276">
        <ele>16.05</ele>
        <time>2020-07-08T11:57:55Z</time>
      </trkpt>
      <trkpt lat="47.80249" lon="-3.5276">
        <ele>16.05</ele>
        <time>2020-07-08T11:57:56Z</time>
      </trkpt>
      <trkpt lat="47.80249" lon="-3.5276">
        <ele>16.05</ele>
        <time>2020-07-08T11:57:57Z</time>
      </trkpt>
      <trkpt lat="47.80249" lon="-3.5276">
        <ele>16.05</ele>
        <time>2020-07-08T11:57:58Z</time>
      </trkpt>
      <trkpt lat="47.80249" lon="-3.5276">
        <ele>16.05</ele>
        <time>2020-07-08T11:57:59Z</time>
      </trkpt>
      <trkpt lat="47.80249" lon="-3.5276">
        <ele>16.05</ele>
        <time>2020-07-08T11:58:00Z</time>
      </trkpt>
      <trkpt lat="47.80249" lon="-3.5276">
        <ele>16.05</ele>
        <time>2020-07-08T11:58:01Z</time>
      </trkpt>
      <trkpt lat="47.80249" lon="-3.5276">
        <ele>16.05</ele>
        <time>2020-07-08T11:58:02Z</time>
      </trkpt>
      <trkpt lat="47.80249" lon="-3.5276">
        <ele>16.05</ele>
        <time>2020-07-08T11:58:03Z</time>
      </trkpt>
      <trkpt lat="47.80249" lon="-3.5276">
        <ele>16.05</ele>
        <time>2020-07-08T11:58:04Z</time>
      </trkpt>
      <trkpt lat="47.80249" lon="-3.5276">
        <ele>16.05</ele>
        <time>2020-07-08T11:58:05Z</time>
      </trkpt>
      <trkpt lat="47.80249" lon="-3.5276">
        <ele>16.05</ele>
        <time>2020-07-08T11:58:06Z</time>
      </trkpt>
      <trkpt lat="47.80249" lon="-3.5276">
        <ele>16.05</ele>
        <time>2020-07-08T11:58:07Z</time>
      </trkpt>
      <trkpt lat="47.80249" lon="-3.5276">
        <ele>16.05</ele>
        <time>2020-07-08T11:58:08Z</time>
      </trkpt>
      <trkpt lat="47.80249" lon="-3.5276">
        <ele>16.05</ele>
        <time>2020-07-08T11:58:09Z</time>
      </trkpt>
      <trkpt lat="47.80249" lon="-3.5276">
        <ele>16.05</ele>
        <time>2020-07-08T11:58:10Z</time>
      </trkpt>
      <trkpt lat="47.80249" lon="-3.5276">
        <ele>16.05</ele>
        <time>2020-07-08T11:58:11Z</time>
      </trkpt>
      <trkpt lat="47.80249" lon="-3.5276">
        <ele>16.05</ele>
        <time>2020-07-08T11:58:12Z</time>
      </trkpt>
      <trkpt lat="47.80249" lon="-3.5276">
        <ele>16.05</ele>
        <time>2020-07-08T11:58:13Z</time>
      </trkpt>
      <trkpt lat="47.80249" lon="-3.5276">
        <ele>16.05</ele>
        <time>2020-07-08T11:58:14Z</time>
      </trkpt>
      <trkpt lat="47.80249" lon="-3.5276">
        <ele>16.05</ele>
        <time>2020-07-08T11:58:15Z</time>
      </trkpt>
      <trkpt lat="47.80249" lon="-3.5276">
        <ele>16.05</ele>
        <time>2020-07-08T11:58:16Z</time>
      </trkpt>
      <trkpt lat="47.80249" lon="-3.5276">
        <ele>16.05</ele>
        <time>2020-07-08T11:58:17Z</time>
      </trkpt>
      <trkpt lat="47.80249" lon="-3.5276">
        <ele>16.05</ele>
        <time>2020-07-08T11:58:18Z</time>
      </trkpt>
      <trkpt lat="47.80249" lon="-3.5276">
        <ele>16.05</ele>
        <time>2020-07-08T11:58:19Z</time>
      </trkpt>
      <trkpt lat="47.80249" lon="-3.5276">
        <ele>16.05</ele>
        <time>2020-07-08T11:58:20Z</time>
      </trkpt>
      <trkpt lat="47.80249" lon="-3.5276">
        <ele>16.05</ele>
        <time>2020-07-08T11:58:21Z</time>
      </trkpt>
      <trkpt lat="47.80249" lon="-3.5276">
        <ele>16.05</ele>
        <time>2020-07-08T11:58:22Z</time>
      </trkpt>
      <trkpt lat="47.80249" lon="-3.5276">
        <ele>16.05</ele>
        <time>2020-07-08T11:58:23Z</time>
      </trkpt>
      <trkpt lat="47.80249" lon="-3.5276">
        <ele>16.05</ele>
        <time>2020-07-08T11:58:24Z</time>
      </trkpt>
      <trkpt lat="47.80249" lon="-3.5276">
        <ele>16.05</ele>
        <time>2020-07-08T11:58:25Z</time>
      </trkpt>
      <trkpt lat="47.80249" lon="-3.5276">
        <ele>16.05</ele>
        <time>2020-07-08T11:58:26Z</time>
      </trkpt>
      <trkpt lat="47.80249" lon="-3.5276">
        <ele>16.05</ele>
        <time>2020-07-08T11:58:27Z</time>
      </trkpt>
      <trkpt lat="47.80249" lon="-3.5276">
        <ele>16.05</ele>
        <time>2020-07-08T11:58:28Z</time>
      </trkpt>
      <trkpt lat="47.80249" lon="-3.5276">
        <ele>16.05</ele>
        <time>2020-07-08T11:58:29Z</time>
      </trkpt>
      <trkpt lat="47.80249" lon="-3.5276">
        <ele>16.05</ele>
        <time>2020-07-08T11:58:30Z</time>
      </trkpt>
      <trkpt lat="47.80249" lon="-3.5276">
        <ele>16.05</ele>
        <time>2020-07-08T11:58:31Z</time>
      </trkpt>
      <trkpt lat="47.80249" lon="-3.5276">
        <ele>16.05</ele>
        <time>2020-07-08T11:58:32Z</time>
      </trkpt>
      <trkpt lat="47.80249" lon="-3.5276">
        <ele>16.05</ele>
        <time>2020-07-08T11:58:33Z</time>
      </trkpt>
      <trkpt lat="47.80249" lon="-3.5276">
        <ele>16.05</ele>
        <time>2020-07-08T11:58:34Z</time>
      </trkpt>
      <trkpt lat="47.80249" lon="-3.5276">
        <ele>16.05</ele>
        <time>2020-07-08T11:58:35Z</time>
      </trkpt>
      <trkpt lat="47.80249" lon="-3.5276">
        <ele>16.05</ele>
        <time>2020-07-08T11:58:36Z</time>
      </trkpt>
      <trkpt lat="47.80249" lon="-3.5276">
        <ele>16.05</ele>
        <time>2020-07-08T11:58:37Z</time>
      </trkpt>
      <trkpt lat="47.80249" lon="-3.5276">
        <ele>16.05</ele>
        <time>2020-07-08T11:58:38Z</time>
      </trkpt>
      <trkpt lat="47.80249" lon="-3.5276">
        <ele>16.05</ele>
        <time>2020-07-08T11:58:39Z</time>
      </trkpt>
      <trkpt lat="47.80249" lon="-3.5276">
        <ele>16.05</ele>
        <time>2020-07-08T11:58:40Z</time>
      </trkpt>
      <trkpt lat="47.80255" lon="-3.52749">
        <ele>16.55</ele>
        <time>2020-07-08T11:58:41Z</time>
      </trkpt>
      <trkpt lat="47.80257" lon="-3.52747">
        <ele>16.76</ele>
        <time>2020-07-08T11:58:42Z</time>
      </trkpt>
      <trkpt lat="47.80258" lon="-3.52747">
        <ele>16.82</ele>
        <time>2020-07-08T11:58:43Z</time>
      </trkpt>
      <trkpt lat="47.80261" lon="-3.52746">
        <ele>16.82</ele>
        <time>2020-07-08T11:58:44Z</time>
      </trkpt>
      <trkpt lat="47.80262" lon="-3.52745">
        <ele>16.85</ele>
        <time>2020-07-08T11:58:45Z</time>
      </trkpt>
      <trkpt lat="47.80264" lon="-3.52744">
        <ele>16.89</ele>
        <time>2020-07-08T11:58:46Z</time>
      </trkpt>
      <trkpt lat="47.80264" lon="-3.52742">
        <ele>16.99</ele>
        <time>2020-07-08T11:58:47Z</time>
      </trkpt>
      <trkpt lat="47.80266" lon="-3.52741">
        <ele>17.13</ele>
        <time>2020-07-08T11:58:48Z</time>
      </trkpt>
      <trkpt lat="47.80267" lon="-3.5274">
        <ele>17.2</ele>
        <time>2020-07-08T11:58:49Z</time>
      </trkpt>
      <trkpt lat="47.80267" lon="-3.5274">
        <ele>17.24</ele>
        <time>2020-07-08T11:58:50Z</time>
      </trkpt>
      <trkpt lat="47.80268" lon="-3.52739">
        <ele>17.28</ele>
        <time>2020-07-08T11:58:51Z</time>
      </trkpt>
      <trkpt lat="47.80269" lon="-3.52739">
        <ele>17.27</ele>
        <time>2020-07-08T11:58:52Z</time>
      </trkpt>
      <trkpt lat="47.80269" lon="-3.52738">
        <ele>17.32</ele>
        <time>2020-07-08T11:58:53Z</time>
      </trkpt>
      <trkpt lat="47.80269" lon="-3.52738">
        <ele>17.34</ele>
        <time>2020-07-08T11:58:54Z</time>
      </trkpt>
      <trkpt lat="47.80269" lon="-3.52738">
        <ele>17.35</ele>
        <time>2020-07-08T11:58:55Z</time>
      </trkpt>
      <trkpt lat="47.80269" lon="-3.52738">
        <ele>17.35</ele>
        <time>2020-07-08T11:58:56Z</time>
      </trkpt>
      <trkpt lat="47.80269" lon="-3.52738">
        <ele>17.35</ele>
        <time>2020-07-08T11:58:57Z</time>
      </trkpt>
      <trkpt lat="47.80269" lon="-3.52738">
        <ele>17.35</ele>
        <time>2020-07-08T11:58:58Z</time>
      </trkpt>
      <trkpt lat="47.80269" lon="-3.52738">
        <ele>17.35</ele>
        <time>2020-07-08T11:58:59Z</time>
      </trkpt>
      <trkpt lat="47.80269" lon="-3.52738">
        <ele>17.35</ele>
        <time>2020-07-08T11:59:00Z</time>
      </trkpt>
      <trkpt lat="47.80269" lon="-3.52738">
        <ele>17.35</ele>
        <time>2020-07-08T11:59:01Z</time>
      </trkpt>
      <trkpt lat="47.80269" lon="-3.52738">
        <ele>17.35</ele>
        <time>2020-07-08T11:59:02Z</time>
      </trkpt>
      <trkpt lat="47.80269" lon="-3.52738">
        <ele>17.35</ele>
        <time>2020-07-08T11:59:03Z</time>
      </trkpt>
      <trkpt lat="47.80269" lon="-3.52738">
        <ele>17.35</ele>
        <time>2020-07-08T11:59:04Z</time>
      </trkpt>
      <trkpt lat="47.80269" lon="-3.52738">
        <ele>17.35</ele>
        <time>2020-07-08T11:59:05Z</time>
      </trkpt>
      <trkpt lat="47.80269" lon="-3.52738">
        <ele>17.35</ele>
        <time>2020-07-08T11:59:06Z</time>
      </trkpt>
      <trkpt lat="47.80269" lon="-3.52738">
        <ele>17.35</ele>
        <time>2020-07-08T11:59:07Z</time>
      </trkpt>
      <trkpt lat="47.80269" lon="-3.52738">
        <ele>17.35</ele>
        <time>2020-07-08T11:59:08Z</time>
      </trkpt>
      <trkpt lat="47.80272" lon="-3.52725">
        <ele>18.5</ele>
        <time>2020-07-08T11:59:09Z</time>
      </trkpt>
      <trkpt lat="47.80273" lon="-3.52725">
        <ele>18.88</ele>
        <time>2020-07-08T11:59:10Z</time>
      </trkpt>
      <trkpt lat="47.80273" lon="-3.52723">
        <ele>19.15</ele>
        <time>2020-07-08T11:59:11Z</time>
      </trkpt>
      <trkpt lat="47.80274" lon="-3.52719">
        <ele>19.53</ele>
        <time>2020-07-08T11:59:12Z</time>
      </trkpt>
      <trkpt lat="47.80275" lon="-3.52717">
        <ele>19.88</ele>
        <time>2020-07-08T11:59:13Z</time>
      </trkpt>
      <trkpt lat="47.80276" lon="-3.52713">
        <ele>20.27</ele>
        <time>2020-07-08T11:59:14Z</time>
      </trkpt>
      <trkpt lat="47.80276" lon="-3.5271">
        <ele>20.64</ele>
        <time>2020-07-08T11:59:15Z</time>
      </trkpt>
      <trkpt lat="47.80277" lon="-3.52708">
        <ele>20.95</ele>
        <time>2020-07-08T11:59:16Z</time>
      </trkpt>
      <trkpt lat="47.80278" lon="-3.52705">
        <ele>21.26</ele>
        <time>2020-07-08T11:59:17Z</time>
      </trkpt>
      <trkpt lat="47.80279" lon="-3.52702">
        <ele>21.56</ele>
        <time>2020-07-08T11:59:18Z</time>
      </trkpt>
      <trkpt lat="47.8028" lon="-3.52699">
        <ele>21.82</ele>
        <time>2020-07-08T11:59:19Z</time>
      </trkpt>
      <trkpt lat="47.80281" lon="-3.52698">
        <ele>21.93</ele>
        <time>2020-07-08T11:59:20Z</time>
      </trkpt>
      <trkpt lat="47.80281" lon="-3.52696">
        <ele>22.1</ele>
        <time>2020-07-08T11:59:21Z</time>
      </trkpt>
      <trkpt lat="47.80282" lon="-3.52695">
        <ele>22.24</ele>
        <time>2020-07-08T11:59:22Z</time>
      </trkpt>
      <trkpt lat="47.80282" lon="-3.52693">
        <ele>22.29</ele>
        <time>2020-07-08T11:59:23Z</time>
      </trkpt>
      <trkpt lat="47.80283" lon="-3.52691">
        <ele>22.29</ele>
        <time>2020-07-08T11:59:24Z</time>
      </trkpt>
      <trkpt lat="47.80284" lon="-3.52688">
        <ele>22.23</ele>
        <time>2020-07-08T11:59:25Z</time>
      </trkpt>
      <trkpt lat="47.80286" lon="-3.52686">
        <ele>22</ele>
        <time>2020-07-08T11:59:26Z</time>
      </trkpt>
      <trkpt lat="47.80287" lon="-3.52684">
        <ele>21.83</ele>
        <time>2020-07-08T11:59:27Z</time>
      </trkpt>
      <trkpt lat="47.80288" lon="-3.52682">
        <ele>21.76</ele>
        <time>2020-07-08T11:59:28Z</time>
      </trkpt>
      <trkpt lat="47.80288" lon="-3.5268">
        <ele>21.81</ele>
        <time>2020-07-08T11:59:29Z</time>
      </trkpt>
      <trkpt lat="47.80289" lon="-3.52678">
        <ele>21.79</ele>
        <time>2020-07-08T11:59:30Z</time>
      </trkpt>
      <trkpt lat="47.8029" lon="-3.52676">
        <ele>21.82</ele>
        <time>2020-07-08T11:59:31Z</time>
      </trkpt>
      <trkpt lat="47.8029" lon="-3.52674">
        <ele>21.86</ele>
        <time>2020-07-08T11:59:32Z</time>
      </trkpt>
      <trkpt lat="47.8029" lon="-3.52673">
        <ele>21.93</ele>
        <time>2020-07-08T11:59:33Z</time>
      </trkpt>
      <trkpt lat="47.8029" lon="-3.52671">
        <ele>21.98</ele>
        <time>2020-07-08T11:59:34Z</time>
      </trkpt>
      <trkpt lat="47.80291" lon="-3.52669">
        <ele>22</ele>
        <time>2020-07-08T11:59:35Z</time>
      </trkpt>
      <trkpt lat="47.80291" lon="-3.52667">
        <ele>22.1</ele>
        <time>2020-07-08T11:59:36Z</time>
      </trkpt>
      <trkpt lat="47.80291" lon="-3.52664">
        <ele>22.19</ele>
        <time>2020-07-08T11:59:37Z</time>
      </trkpt>
      <trkpt lat="47.80291" lon="-3.52659">
        <ele>22.33</ele>
        <time>2020-07-08T11:59:38Z</time>
      </trkpt>
      <trkpt lat="47.80291" lon="-3.52656">
        <ele>22.42</ele>
        <time>2020-07-08T11:59:39Z</time>
      </trkpt>
      <trkpt lat="47.80292" lon="-3.52653">
        <ele>22.45</ele>
        <time>2020-07-08T11:59:40Z</time>
      </trkpt>
      <trkpt lat="47.80293" lon="-3.5265">
        <ele>22.46</ele>
        <time>2020-07-08T11:59:41Z</time>
      </trkpt>
      <trkpt lat="47.80293" lon="-3.52647">
        <ele>22.53</ele>
        <time>2020-07-08T11:59:42Z</time>
      </trkpt>
      <trkpt lat="47.80293" lon="-3.52644">
        <ele>22.6</ele>
        <time>2020-07-08T11:59:43Z</time>
      </trkpt>
      <trkpt lat="47.80293" lon="-3.52641">
        <ele>22.66</ele>
        <time>2020-07-08T11:59:44Z</time>
      </trkpt>
      <trkpt lat="47.80294" lon="-3.52639">
        <ele>22.68</ele>
        <time>2020-07-08T11:59:45Z</time>
      </trkpt>
      <trkpt lat="47.80294" lon="-3.52636">
        <ele>22.81</ele>
        <time>2020-07-08T11:59:46Z</time>
      </trkpt>
      <trkpt lat="47.80294" lon="-3.52633">
        <ele>22.95</ele>
        <time>2020-07-08T11:59:47Z</time>
      </trkpt>
      <trkpt lat="47.80295" lon="-3.52631">
        <ele>23.08</ele>
        <time>2020-07-08T11:59:48Z</time>
      </trkpt>
      <trkpt lat="47.80296" lon="-3.52628">
        <ele>23.17</ele>
        <time>2020-07-08T11:59:49Z</time>
      </trkpt>
      <trkpt lat="47.80296" lon="-3.52626">
        <ele>23.3</ele>
        <time>2020-07-08T11:59:50Z</time>
      </trkpt>
      <trkpt lat="47.80296" lon="-3.52623">
        <ele>23.44</ele>
        <time>2020-07-08T11:59:51Z</time>
      </trkpt>
      <trkpt lat="47.80296" lon="-3.5262">
        <ele>23.63</ele>
        <time>2020-07-08T11:59:52Z</time>
      </trkpt>
      <trkpt lat="47.80296" lon="-3.52616">
        <ele>23.86</ele>
        <time>2020-07-08T11:59:53Z</time>
      </trkpt>
      <trkpt lat="47.80296" lon="-3.52613">
        <ele>24.12</ele>
        <time>2020-07-08T11:59:54Z</time>
      </trkpt>
      <trkpt lat="47.80296" lon="-3.52609">
        <ele>24.31</ele>
        <time>2020-07-08T11:59:55Z</time>
      </trkpt>
      <trkpt lat="47.80296" lon="-3.52605">
        <ele>24.47</ele>
        <time>2020-07-08T11:59:56Z</time>
      </trkpt>
      <trkpt lat="47.80296" lon="-3.52602">
        <ele>24.63</ele>
        <time>2020-07-08T11:59:57Z</time>
      </trkpt>
      <trkpt lat="47.80296" lon="-3.52599">
        <ele>24.79</ele>
        <time>2020-07-08T11:59:58Z</time>
      </trkpt>
      <trkpt lat="47.80295" lon="-3.52596">
        <ele>24.96</ele>
        <time>2020-07-08T11:59:59Z</time>
      </trkpt>
      <trkpt lat="47.80294" lon="-3.52593">
        <ele>25.18</ele>
        <time>2020-07-08T12:00:00Z</time>
      </trkpt>
      <trkpt lat="47.80293" lon="-3.52589">
        <ele>25.43</ele>
        <time>2020-07-08T12:00:01Z</time>
      </trkpt>
      <trkpt lat="47.80293" lon="-3.52585">
        <ele>25.64</ele>
        <time>2020-07-08T12:00:02Z</time>
      </trkpt>
      <trkpt lat="47.80293" lon="-3.52581">
        <ele>25.86</ele>
        <time>2020-07-08T12:00:03Z</time>
      </trkpt>
      <trkpt lat="47.80292" lon="-3.52578">
        <ele>26.05</ele>
        <time>2020-07-08T12:00:04Z</time>
      </trkpt>
      <trkpt lat="47.80292" lon="-3.52573">
        <ele>26.26</ele>
        <time>2020-07-08T12:00:05Z</time>
      </trkpt>
      <trkpt lat="47.80292" lon="-3.52569">
        <ele>26.41</ele>
        <time>2020-07-08T12:00:06Z</time>
      </trkpt>
      <trkpt lat="47.80292" lon="-3.52564">
        <ele>26.53</ele>
        <time>2020-07-08T12:00:07Z</time>
      </trkpt>
      <trkpt lat="47.80292" lon="-3.5256">
        <ele>26.72</ele>
        <time>2020-07-08T12:00:08Z</time>
      </trkpt>
      <trkpt lat="47.80291" lon="-3.52555">
        <ele>26.94</ele>
        <time>2020-07-08T12:00:09Z</time>
      </trkpt>
      <trkpt lat="47.80292" lon="-3.52551">
        <ele>27.05</ele>
        <time>2020-07-08T12:00:10Z</time>
      </trkpt>
      <trkpt lat="47.80293" lon="-3.52547">
        <ele>27.02</ele>
        <time>2020-07-08T12:00:11Z</time>
      </trkpt>
      <trkpt lat="47.80294" lon="-3.52543">
        <ele>26.94</ele>
        <time>2020-07-08T12:00:12Z</time>
      </trkpt>
      <trkpt lat="47.80294" lon="-3.52538">
        <ele>26.89</ele>
        <time>2020-07-08T12:00:13Z</time>
      </trkpt>
      <trkpt lat="47.80295" lon="-3.52534">
        <ele>26.86</ele>
        <time>2020-07-08T12:00:14Z</time>
      </trkpt>
      <trkpt lat="47.80294" lon="-3.52529">
        <ele>26.94</ele>
        <time>2020-07-08T12:00:15Z</time>
      </trkpt>
      <trkpt lat="47.80294" lon="-3.52524">
        <ele>27.03</ele>
        <time>2020-07-08T12:00:16Z</time>
      </trkpt>
      <trkpt lat="47.80294" lon="-3.52521">
        <ele>27.11</ele>
        <time>2020-07-08T12:00:17Z</time>
      </trkpt>
      <trkpt lat="47.80294" lon="-3.52515">
        <ele>27.25</ele>
        <time>2020-07-08T12:00:18Z</time>
      </trkpt>
      <trkpt lat="47.80294" lon="-3.52511">
        <ele>27.38</ele>
        <time>2020-07-08T12:00:19Z</time>
      </trkpt>
      <trkpt lat="47.80294" lon="-3.52507">
        <ele>27.51</ele>
        <time>2020-07-08T12:00:20Z</time>
      </trkpt>
      <trkpt lat="47.80293" lon="-3.52504">
        <ele>27.61</ele>
        <time>2020-07-08T12:00:21Z</time>
      </trkpt>
      <trkpt lat="47.80293" lon="-3.525">
        <ele>27.7</ele>
        <time>2020-07-08T12:00:22Z</time>
      </trkpt>
      <trkpt lat="47.80294" lon="-3.52496">
        <ele>27.67</ele>
        <time>2020-07-08T12:00:23Z</time>
      </trkpt>
      <trkpt lat="47.80295" lon="-3.52492">
        <ele>27.6</ele>
        <time>2020-07-08T12:00:24Z</time>
      </trkpt>
      <trkpt lat="47.80296" lon="-3.52488">
        <ele>27.49</ele>
        <time>2020-07-08T12:00:25Z</time>
      </trkpt>
      <trkpt lat="47.80296" lon="-3.52484">
        <ele>27.41</ele>
        <time>2020-07-08T12:00:26Z</time>
      </trkpt>
      <trkpt lat="47.80297" lon="-3.5248">
        <ele>27.3</ele>
        <time>2020-07-08T12:00:27Z</time>
      </trkpt>
      <trkpt lat="47.80297" lon="-3.52478">
        <ele>27.24</ele>
        <time>2020-07-08T12:00:28Z</time>
      </trkpt>
      <trkpt lat="47.80297" lon="-3.52474">
        <ele>27.2</ele>
        <time>2020-07-08T12:00:29Z</time>
      </trkpt>
      <trkpt lat="47.80297" lon="-3.5247">
        <ele>27.15</ele>
        <time>2020-07-08T12:00:30Z</time>
      </trkpt>
      <trkpt lat="47.80297" lon="-3.52464">
        <ele>27.1</ele>
        <time>2020-07-08T12:00:31Z</time>
      </trkpt>
      <trkpt lat="47.80297" lon="-3.52459">
        <ele>27.06</ele>
        <time>2020-07-08T12:00:32Z</time>
      </trkpt>
      <trkpt lat="47.80297" lon="-3.52455">
        <ele>27</ele>
        <time>2020-07-08T12:00:33Z</time>
      </trkpt>
      <trkpt lat="47.80298" lon="-3.52451">
        <ele>26.94</ele>
        <time>2020-07-08T12:00:34Z</time>
      </trkpt>
      <trkpt lat="47.80298" lon="-3.52446">
        <ele>26.87</ele>
        <time>2020-07-08T12:00:35Z</time>
      </trkpt>
      <trkpt lat="47.80299" lon="-3.5244">
        <ele>26.71</ele>
        <time>2020-07-08T12:00:36Z</time>
      </trkpt>
      <trkpt lat="47.803" lon="-3.52435">
        <ele>26.59</ele>
        <time>2020-07-08T12:00:37Z</time>
      </trkpt>
      <trkpt lat="47.803" lon="-3.5243">
        <ele>26.49</ele>
        <time>2020-07-08T12:00:38Z</time>
      </trkpt>
      <trkpt lat="47.80301" lon="-3.52424">
        <ele>26.43</ele>
        <time>2020-07-08T12:00:39Z</time>
      </trkpt>
      <trkpt lat="47.803" lon="-3.52419">
        <ele>26.39</ele>
        <time>2020-07-08T12:00:40Z</time>
      </trkpt>
      <trkpt lat="47.80301" lon="-3.52413">
        <ele>26.36</ele>
        <time>2020-07-08T12:00:41Z</time>
      </trkpt>
      <trkpt lat="47.80301" lon="-3.52408">
        <ele>26.34</ele>
        <time>2020-07-08T12:00:42Z</time>
      </trkpt>
      <trkpt lat="47.80301" lon="-3.52402">
        <ele>26.32</ele>
        <time>2020-07-08T12:00:43Z</time>
      </trkpt>
      <trkpt lat="47.80301" lon="-3.52396">
        <ele>26.33</ele>
        <time>2020-07-08T12:00:44Z</time>
      </trkpt>
      <trkpt lat="47.80302" lon="-3.5239">
        <ele>26.29</ele>
        <time>2020-07-08T12:00:45Z</time>
      </trkpt>
      <trkpt lat="47.80303" lon="-3.52386">
        <ele>26.23</ele>
        <time>2020-07-08T12:00:46Z</time>
      </trkpt>
      <trkpt lat="47.80304" lon="-3.52382">
        <ele>26.14</ele>
        <time>2020-07-08T12:00:47Z</time>
      </trkpt>
      <trkpt lat="47.80305" lon="-3.52379">
        <ele>26.05</ele>
        <time>2020-07-08T12:00:48Z</time>
      </trkpt>
      <trkpt lat="47.80308" lon="-3.52375">
        <ele>25.7</ele>
        <time>2020-07-08T12:00:49Z</time>
      </trkpt>
      <trkpt lat="47.8031" lon="-3.5237">
        <ele>25.24</ele>
        <time>2020-07-08T12:00:50Z</time>
      </trkpt>
      <trkpt lat="47.80314" lon="-3.52365">
        <ele>24.72</ele>
        <time>2020-07-08T12:00:51Z</time>
      </trkpt>
      <trkpt lat="47.80317" lon="-3.5236">
        <ele>24.18</ele>
        <time>2020-07-08T12:00:52Z</time>
      </trkpt>
      <trkpt lat="47.80321" lon="-3.52355">
        <ele>23.48</ele>
        <time>2020-07-08T12:00:53Z</time>
      </trkpt>
      <trkpt lat="47.80324" lon="-3.5235">
        <ele>22.88</ele>
        <time>2020-07-08T12:00:54Z</time>
      </trkpt>
      <trkpt lat="47.80328" lon="-3.52346">
        <ele>22.43</ele>
        <time>2020-07-08T12:00:55Z</time>
      </trkpt>
      <trkpt lat="47.80331" lon="-3.52343">
        <ele>22.06</ele>
        <time>2020-07-08T12:00:56Z</time>
      </trkpt>
      <trkpt lat="47.80334" lon="-3.52339">
        <ele>21.56</ele>
        <time>2020-07-08T12:00:57Z</time>
      </trkpt>
      <trkpt lat="47.80337" lon="-3.52334">
        <ele>20.58</ele>
        <time>2020-07-08T12:00:58Z</time>
      </trkpt>
      <trkpt lat="47.80339" lon="-3.5233">
        <ele>19.46</ele>
        <time>2020-07-08T12:00:59Z</time>
      </trkpt>
      <trkpt lat="47.8034" lon="-3.52327">
        <ele>18.43</ele>
        <time>2020-07-08T12:01:00Z</time>
      </trkpt>
      <trkpt lat="47.80341" lon="-3.52323">
        <ele>17.68</ele>
        <time>2020-07-08T12:01:01Z</time>
      </trkpt>
      <trkpt lat="47.80342" lon="-3.5232">
        <ele>17.33</ele>
        <time>2020-07-08T12:01:02Z</time>
      </trkpt>
      <trkpt lat="47.80341" lon="-3.52316">
        <ele>17.42</ele>
        <time>2020-07-08T12:01:03Z</time>
      </trkpt>
      <trkpt lat="47.8034" lon="-3.52312">
        <ele>17.66</ele>
        <time>2020-07-08T12:01:04Z</time>
      </trkpt>
      <trkpt lat="47.80338" lon="-3.52308">
        <ele>17.99</ele>
        <time>2020-07-08T12:01:05Z</time>
      </trkpt>
      <trkpt lat="47.80337" lon="-3.52303">
        <ele>18.37</ele>
        <time>2020-07-08T12:01:06Z</time>
      </trkpt>
      <trkpt lat="47.80335" lon="-3.52297">
        <ele>18.9</ele>
        <time>2020-07-08T12:01:07Z</time>
      </trkpt>
      <trkpt lat="47.80333" lon="-3.52291">
        <ele>19.31</ele>
        <time>2020-07-08T12:01:08Z</time>
      </trkpt>
      <trkpt lat="47.80332" lon="-3.52284">
        <ele>19.26</ele>
        <time>2020-07-08T12:01:09Z</time>
      </trkpt>
      <trkpt lat="47.8033" lon="-3.52276">
        <ele>19</ele>
        <time>2020-07-08T12:01:10Z</time>
      </trkpt>
      <trkpt lat="47.8033" lon="-3.5227">
        <ele>18.57</ele>
        <time>2020-07-08T12:01:11Z</time>
      </trkpt>
      <trkpt lat="47.8033" lon="-3.52265">
        <ele>18.17</ele>
        <time>2020-07-08T12:01:12Z</time>
      </trkpt>
      <trkpt lat="47.80331" lon="-3.52258">
        <ele>17.73</ele>
        <time>2020-07-08T12:01:13Z</time>
      </trkpt>
      <trkpt lat="47.80333" lon="-3.52251">
        <ele>17.25</ele>
        <time>2020-07-08T12:01:14Z</time>
      </trkpt>
      <trkpt lat="47.80335" lon="-3.52244">
        <ele>16.32</ele>
        <time>2020-07-08T12:01:15Z</time>
      </trkpt>
      <trkpt lat="47.80337" lon="-3.5224">
        <ele>15.45</ele>
        <time>2020-07-08T12:01:16Z</time>
      </trkpt>
      <trkpt lat="47.80338" lon="-3.52237">
        <ele>14.76</ele>
        <time>2020-07-08T12:01:17Z</time>
      </trkpt>
      <trkpt lat="47.80339" lon="-3.52233">
        <ele>14.24</ele>
        <time>2020-07-08T12:01:18Z</time>
      </trkpt>
      <trkpt lat="47.80339" lon="-3.52231">
        <ele>13.97</ele>
        <time>2020-07-08T12:01:19Z</time>
      </trkpt>
      <trkpt lat="47.8034" lon="-3.5223">
        <ele>13.74</ele>
        <time>2020-07-08T12:01:20Z</time>
      </trkpt>
      <trkpt lat="47.80341" lon="-3.52229">
        <ele>13.47</ele>
        <time>2020-07-08T12:01:21Z</time>
      </trkpt>
      <trkpt lat="47.80343" lon="-3.52227">
        <ele>13.11</ele>
        <time>2020-07-08T12:01:22Z</time>
      </trkpt>
      <trkpt lat="47.80345" lon="-3.52225">
        <ele>12.67</ele>
        <time>2020-07-08T12:01:23Z</time>
      </trkpt>
      <trkpt lat="47.80346" lon="-3.52222">
        <ele>12.31</ele>
        <time>2020-07-08T12:01:24Z</time>
      </trkpt>
      <trkpt lat="47.80347" lon="-3.52219">
        <ele>12.1</ele>
        <time>2020-07-08T12:01:25Z</time>
      </trkpt>
      <trkpt lat="47.80348" lon="-3.52214">
        <ele>11.9</ele>
        <time>2020-07-08T12:01:26Z</time>
      </trkpt>
      <trkpt lat="47.80349" lon="-3.52209">
        <ele>11.72</ele>
        <time>2020-07-08T12:01:27Z</time>
      </trkpt>
      <trkpt lat="47.8035" lon="-3.52205">
        <ele>11.56</ele>
        <time>2020-07-08T12:01:28Z</time>
      </trkpt>
      <trkpt lat="47.80351" lon="-3.522">
        <ele>11.45</ele>
        <time>2020-07-08T12:01:29Z</time>
      </trkpt>
      <trkpt lat="47.80352" lon="-3.52196">
        <ele>11.37</ele>
        <time>2020-07-08T12:01:30Z</time>
      </trkpt>
      <trkpt lat="47.80353" lon="-3.52193">
        <ele>11.29</ele>
        <time>2020-07-08T12:01:31Z</time>
      </trkpt>
      <trkpt lat="47.80354" lon="-3.52189">
        <ele>11.19</ele>
        <time>2020-07-08T12:01:32Z</time>
      </trkpt>
      <trkpt lat="47.80356" lon="-3.52184">
        <ele>11.09</ele>
        <time>2020-07-08T12:01:33Z</time>
      </trkpt>
      <trkpt lat="47.80358" lon="-3.52177">
        <ele>11.01</ele>
        <time>2020-07-08T12:01:34Z</time>
      </trkpt>
      <trkpt lat="47.80359" lon="-3.52172">
        <ele>10.97</ele>
        <time>2020-07-08T12:01:35Z</time>
      </trkpt>
      <trkpt lat="47.8036" lon="-3.52166">
        <ele>10.94</ele>
        <time>2020-07-08T12:01:36Z</time>
      </trkpt>
      <trkpt lat="47.80362" lon="-3.52162">
        <ele>10.63</ele>
        <time>2020-07-08T12:01:37Z</time>
      </trkpt>
      <trkpt lat="47.80363" lon="-3.52159">
        <ele>10</ele>
        <time>2020-07-08T12:01:38Z</time>
      </trkpt>
      <trkpt lat="47.80366" lon="-3.52156">
        <ele>9.16</ele>
        <time>2020-07-08T12:01:39Z</time>
      </trkpt>
      <trkpt lat="47.80369" lon="-3.52152">
        <ele>8.13</ele>
        <time>2020-07-08T12:01:40Z</time>
      </trkpt>
      <trkpt lat="47.8037" lon="-3.52148">
        <ele>7.36</ele>
        <time>2020-07-08T12:01:41Z</time>
      </trkpt>
      <trkpt lat="47.8037" lon="-3.52143">
        <ele>6.93</ele>
        <time>2020-07-08T12:01:42Z</time>
      </trkpt>
      <trkpt lat="47.80369" lon="-3.52137">
        <ele>6.53</ele>
        <time>2020-07-08T12:01:43Z</time>
      </trkpt>
      <trkpt lat="47.8037" lon="-3.5213">
        <ele>5.81</ele>
        <time>2020-07-08T12:01:44Z</time>
      </trkpt>
      <trkpt lat="47.8037" lon="-3.52122">
        <ele>4.97</ele>
        <time>2020-07-08T12:01:45Z</time>
      </trkpt>
      <trkpt lat="47.8037" lon="-3.52115">
        <ele>4.16</ele>
        <time>2020-07-08T12:01:46Z</time>
      </trkpt>
      <trkpt lat="47.80371" lon="-3.5211">
        <ele>3.46</ele>
        <time>2020-07-08T12:01:47Z</time>
      </trkpt>
      <trkpt lat="47.8037" lon="-3.52104">
        <ele>2.96</ele>
        <time>2020-07-08T12:01:48Z</time>
      </trkpt>
      <trkpt lat="47.80368" lon="-3.521">
        <ele>2.61</ele>
        <time>2020-07-08T12:01:49Z</time>
      </trkpt>
      <trkpt lat="47.80366" lon="-3.52096">
        <ele>2.4</ele>
        <time>2020-07-08T12:01:50Z</time>
      </trkpt>
      <trkpt lat="47.80362" lon="-3.52094">
        <ele>2.5</ele>
        <time>2020-07-08T12:01:51Z</time>
      </trkpt>
      <trkpt lat="47.80359" lon="-3.52095">
        <ele>2.54</ele>
        <time>2020-07-08T12:01:52Z</time>
      </trkpt>
      <trkpt lat="47.80356" lon="-3.52096">
        <ele>2.46</ele>
        <time>2020-07-08T12:01:53Z</time>
      </trkpt>
      <trkpt lat="47.80353" lon="-3.52095">
        <ele>2.25</ele>
        <time>2020-07-08T12:01:54Z</time>
      </trkpt>
      <trkpt lat="47.8035" lon="-3.52094">
        <ele>1.94</ele>
        <time>2020-07-08T12:01:55Z</time>
      </trkpt>
      <trkpt lat="47.80346" lon="-3.52094">
        <ele>1.72</ele>
        <time>2020-07-08T12:01:56Z</time>
      </trkpt>
      <trkpt lat="47.80343" lon="-3.52096">
        <ele>1.63</ele>
        <time>2020-07-08T12:01:57Z</time>
      </trkpt>
      <trkpt lat="47.80341" lon="-3.52098">
        <ele>1.6</ele>
        <time>2020-07-08T12:01:58Z</time>
      </trkpt>
      <trkpt lat="47.80339" lon="-3.52101">
        <ele>1.64</ele>
        <time>2020-07-08T12:01:59Z</time>
      </trkpt>
      <trkpt lat="47.80336" lon="-3.52103">
        <ele>1.66</ele>
        <time>2020-07-08T12:02:00Z</time>
      </trkpt>
      <trkpt lat="47.80334" lon="-3.52105">
        <ele>1.64</ele>
        <time>2020-07-08T12:02:01Z</time>
      </trkpt>
      <trkpt lat="47.80332" lon="-3.52107">
        <ele>1.57</ele>
        <time>2020-07-08T12:02:02Z</time>
      </trkpt>
      <trkpt lat="47.8033" lon="-3.52109">
        <ele>1.49</ele>
        <time>2020-07-08T12:02:03Z</time>
      </trkpt>
      <trkpt lat="47.80327" lon="-3.52112">
        <ele>1.44</ele>
        <time>2020-07-08T12:02:04Z</time>
      </trkpt>
      <trkpt lat="47.80326" lon="-3.52115">
        <ele>1.59</ele>
        <time>2020-07-08T12:02:05Z</time>
      </trkpt>
      <trkpt lat="47.80324" lon="-3.52118">
        <ele>1.81</ele>
        <time>2020-07-08T12:02:06Z</time>
      </trkpt>
      <trkpt lat="47.80323" lon="-3.52122">
        <ele>2.06</ele>
        <time>2020-07-08T12:02:07Z</time>
      </trkpt>
      <trkpt lat="47.80323" lon="-3.52125">
        <ele>2.32</ele>
        <time>2020-07-08T12:02:08Z</time>
      </trkpt>
      <trkpt lat="47.80322" lon="-3.52128">
        <ele>2.55</ele>
        <time>2020-07-08T12:02:09Z</time>
      </trkpt>
      <trkpt lat="47.80321" lon="-3.52131">
        <ele>2.8</ele>
        <time>2020-07-08T12:02:10Z</time>
      </trkpt>
      <trkpt lat="47.8032" lon="-3.52134">
        <ele>2.99</ele>
        <time>2020-07-08T12:02:11Z</time>
      </trkpt>
      <trkpt lat="47.80319" lon="-3.52137">
        <ele>3.14</ele>
        <time>2020-07-08T12:02:12Z</time>
      </trkpt>
      <trkpt lat="47.80317" lon="-3.5214">
        <ele>3.19</ele>
        <time>2020-07-08T12:02:13Z</time>
      </trkpt>
      <trkpt lat="47.80316" lon="-3.52142">
        <ele>3.17</ele>
        <time>2020-07-08T12:02:14Z</time>
      </trkpt>
      <trkpt lat="47.80316" lon="-3.52144">
        <ele>3.23</ele>
        <time>2020-07-08T12:02:15Z</time>
      </trkpt>
      <trkpt lat="47.80315" lon="-3.52146">
        <ele>3.28</ele>
        <time>2020-07-08T12:02:16Z</time>
      </trkpt>
      <trkpt lat="47.80314" lon="-3.52149">
        <ele>3.43</ele>
        <time>2020-07-08T12:02:17Z</time>
      </trkpt>
      <trkpt lat="47.80315" lon="-3.52151">
        <ele>3.77</ele>
        <time>2020-07-08T12:02:18Z</time>
      </trkpt>
      <trkpt lat="47.80314" lon="-3.52153">
        <ele>3.88</ele>
        <time>2020-07-08T12:02:19Z</time>
      </trkpt>
      <trkpt lat="47.80313" lon="-3.52155">
        <ele>3.88</ele>
        <time>2020-07-08T12:02:20Z</time>
      </trkpt>
      <trkpt lat="47.80313" lon="-3.52157">
        <ele>3.94</ele>
        <time>2020-07-08T12:02:21Z</time>
      </trkpt>
      <trkpt lat="47.80312" lon="-3.52159">
        <ele>4.02</ele>
        <time>2020-07-08T12:02:22Z</time>
      </trkpt>
      <trkpt lat="47.80312" lon="-3.52162">
        <ele>4.2</ele>
        <time>2020-07-08T12:02:23Z</time>
      </trkpt>
      <trkpt lat="47.80312" lon="-3.52165">
        <ele>4.43</ele>
        <time>2020-07-08T12:02:24Z</time>
      </trkpt>
      <trkpt lat="47.80312" lon="-3.52167">
        <ele>4.61</ele>
        <time>2020-07-08T12:02:25Z</time>
      </trkpt>
      <trkpt lat="47.8031" lon="-3.5217">
        <ele>4.71</ele>
        <time>2020-07-08T12:02:26Z</time>
      </trkpt>
      <trkpt lat="47.80309" lon="-3.52172">
        <ele>4.65</ele>
        <time>2020-07-08T12:02:27Z</time>
      </trkpt>
      <trkpt lat="47.80309" lon="-3.52175">
        <ele>4.92</ele>
        <time>2020-07-08T12:02:28Z</time>
      </trkpt>
      <trkpt lat="47.80309" lon="-3.52178">
        <ele>5.34</ele>
        <time>2020-07-08T12:02:29Z</time>
      </trkpt>
      <trkpt lat="47.8031" lon="-3.52182">
        <ele>5.88</ele>
        <time>2020-07-08T12:02:30Z</time>
      </trkpt>
      <trkpt lat="47.8031" lon="-3.52184">
        <ele>6.21</ele>
        <time>2020-07-08T12:02:31Z</time>
      </trkpt>
      <trkpt lat="47.80309" lon="-3.52186">
        <ele>6.42</ele>
        <time>2020-07-08T12:02:32Z</time>
      </trkpt>
      <trkpt lat="47.80308" lon="-3.52188">
        <ele>6.56</ele>
        <time>2020-07-08T12:02:33Z</time>
      </trkpt>
      <trkpt lat="47.80307" lon="-3.52191">
        <ele>6.79</ele>
        <time>2020-07-08T12:02:34Z</time>
      </trkpt>
      <trkpt lat="47.80307" lon="-3.52195">
        <ele>7.23</ele>
        <time>2020-07-08T12:02:35Z</time>
      </trkpt>
      <trkpt lat="47.80307" lon="-3.52198">
        <ele>7.64</ele>
        <time>2020-07-08T12:02:36Z</time>
      </trkpt>
      <trkpt lat="47.80306" lon="-3.522">
        <ele>7.94</ele>
        <time>2020-07-08T12:02:37Z</time>
      </trkpt>
      <trkpt lat="47.80305" lon="-3.52202">
        <ele>8.13</ele>
        <time>2020-07-08T12:02:38Z</time>
      </trkpt>
      <trkpt lat="47.80305" lon="-3.52203">
        <ele>8.39</ele>
        <time>2020-07-08T12:02:39Z</time>
      </trkpt>
      <trkpt lat="47.80304" lon="-3.52206">
        <ele>8.62</ele>
        <time>2020-07-08T12:02:40Z</time>
      </trkpt>
      <trkpt lat="47.80303" lon="-3.52209">
        <ele>8.86</ele>
        <time>2020-07-08T12:02:41Z</time>
      </trkpt>
      <trkpt lat="47.80302" lon="-3.52213">
        <ele>8.98</ele>
        <time>2020-07-08T12:02:42Z</time>
      </trkpt>
      <trkpt lat="47.80301" lon="-3.52215">
        <ele>9.18</ele>
        <time>2020-07-08T12:02:43Z</time>
      </trkpt>
      <trkpt lat="47.80301" lon="-3.52218">
        <ele>9.65</ele>
        <time>2020-07-08T12:02:44Z</time>
      </trkpt>
      <trkpt lat="47.80301" lon="-3.52221">
        <ele>9.99</ele>
        <time>2020-07-08T12:02:45Z</time>
      </trkpt>
      <trkpt lat="47.80301" lon="-3.52224">
        <ele>10.46</ele>
        <time>2020-07-08T12:02:46Z</time>
      </trkpt>
      <trkpt lat="47.803" lon="-3.52226">
        <ele>10.5</ele>
        <time>2020-07-08T12:02:47Z</time>
      </trkpt>
      <trkpt lat="47.80299" lon="-3.52228">
        <ele>10.44</ele>
        <time>2020-07-08T12:02:48Z</time>
      </trkpt>
      <trkpt lat="47.80298" lon="-3.5223">
        <ele>10.38</ele>
        <time>2020-07-08T12:02:49Z</time>
      </trkpt>
      <trkpt lat="47.80297" lon="-3.52232">
        <ele>10.3</ele>
        <time>2020-07-08T12:02:50Z</time>
      </trkpt>
      <trkpt lat="47.80296" lon="-3.52234">
        <ele>10.43</ele>
        <time>2020-07-08T12:02:51Z</time>
      </trkpt>
      <trkpt lat="47.80296" lon="-3.52236">
        <ele>10.63</ele>
        <time>2020-07-08T12:02:52Z</time>
      </trkpt>
      <trkpt lat="47.80296" lon="-3.52239">
        <ele>10.94</ele>
        <time>2020-07-08T12:02:53Z</time>
      </trkpt>
      <trkpt lat="47.80294" lon="-3.5224">
        <ele>10.9</ele>
        <time>2020-07-08T12:02:54Z</time>
      </trkpt>
      <trkpt lat="47.80294" lon="-3.52243">
        <ele>11.05</ele>
        <time>2020-07-08T12:02:55Z</time>
      </trkpt>
      <trkpt lat="47.80293" lon="-3.52246">
        <ele>11.14</ele>
        <time>2020-07-08T12:02:56Z</time>
      </trkpt>
      <trkpt lat="47.80292" lon="-3.52248">
        <ele>11.19</ele>
        <time>2020-07-08T12:02:57Z</time>
      </trkpt>
      <trkpt lat="47.80291" lon="-3.52249">
        <ele>11.2</ele>
        <time>2020-07-08T12:02:58Z</time>
      </trkpt>
      <trkpt lat="47.8029" lon="-3.52252">
        <ele>11.17</ele>
        <time>2020-07-08T12:02:59Z</time>
      </trkpt>
      <trkpt lat="47.8029" lon="-3.52255">
        <ele>11.48</ele>
        <time>2020-07-08T12:03:00Z</time>
      </trkpt>
      <trkpt lat="47.80289" lon="-3.52257">
        <ele>11.68</ele>
        <time>2020-07-08T12:03:01Z</time>
      </trkpt>
      <trkpt lat="47.80288" lon="-3.52259">
        <ele>11.96</ele>
        <time>2020-07-08T12:03:02Z</time>
      </trkpt>
      <trkpt lat="47.80287" lon="-3.52262">
        <ele>12.22</ele>
        <time>2020-07-08T12:03:03Z</time>
      </trkpt>
      <trkpt lat="47.80286" lon="-3.52265">
        <ele>12.31</ele>
        <time>2020-07-08T12:03:04Z</time>
      </trkpt>
      <trkpt lat="47.80284" lon="-3.52267">
        <ele>12.33</ele>
        <time>2020-07-08T12:03:05Z</time>
      </trkpt>
      <trkpt lat="47.80283" lon="-3.5227">
        <ele>12.42</ele>
        <time>2020-07-08T12:03:06Z</time>
      </trkpt>
      <trkpt lat="47.80282" lon="-3.52272">
        <ele>12.68</ele>
        <time>2020-07-08T12:03:07Z</time>
      </trkpt>
      <trkpt lat="47.8028" lon="-3.52275">
        <ele>12.94</ele>
        <time>2020-07-08T12:03:08Z</time>
      </trkpt>
      <trkpt lat="47.80279" lon="-3.52278">
        <ele>13.18</ele>
        <time>2020-07-08T12:03:09Z</time>
      </trkpt>
      <trkpt lat="47.80277" lon="-3.52281">
        <ele>13.33</ele>
        <time>2020-07-08T12:03:10Z</time>
      </trkpt>
      <trkpt lat="47.80276" lon="-3.52284">
        <ele>13.54</ele>
        <time>2020-07-08T12:03:11Z</time>
      </trkpt>
      <trkpt lat="47.80275" lon="-3.52287">
        <ele>13.65</ele>
        <time>2020-07-08T12:03:12Z</time>
      </trkpt>
      <trkpt lat="47.80274" lon="-3.52288">
        <ele>13.81</ele>
        <time>2020-07-08T12:03:13Z</time>
      </trkpt>
      <trkpt lat="47.80273" lon="-3.52291">
        <ele>13.89</ele>
        <time>2020-07-08T12:03:14Z</time>
      </trkpt>
      <trkpt lat="47.80272" lon="-3.52294">
        <ele>14.12</ele>
        <time>2020-07-08T12:03:15Z</time>
      </trkpt>
      <trkpt lat="47.80271" lon="-3.52296">
        <ele>14.38</ele>
        <time>2020-07-08T12:03:16Z</time>
      </trkpt>
      <trkpt lat="47.8027" lon="-3.52299">
        <ele>14.62</ele>
        <time>2020-07-08T12:03:17Z</time>
      </trkpt>
      <trkpt lat="47.80268" lon="-3.52301">
        <ele>14.8</ele>
        <time>2020-07-08T12:03:18Z</time>
      </trkpt>
      <trkpt lat="47.80267" lon="-3.52303">
        <ele>14.99</ele>
        <time>2020-07-08T12:03:19Z</time>
      </trkpt>
      <trkpt lat="47.80266" lon="-3.52305">
        <ele>15.3</ele>
        <time>2020-07-08T12:03:20Z</time>
      </trkpt>
      <trkpt lat="47.80265" lon="-3.52308">
        <ele>15.57</ele>
        <time>2020-07-08T12:03:21Z</time>
      </trkpt>
      <trkpt lat="47.80264" lon="-3.52311">
        <ele>15.92</ele>
        <time>2020-07-08T12:03:22Z</time>
      </trkpt>
      <trkpt lat="47.80262" lon="-3.52313">
        <ele>16.08</ele>
        <time>2020-07-08T12:03:23Z</time>
      </trkpt>
      <trkpt lat="47.80261" lon="-3.52315">
        <ele>16.32</ele>
        <time>2020-07-08T12:03:24Z</time>
      </trkpt>
      <trkpt lat="47.8026" lon="-3.52318">
        <ele>16.69</ele>
        <time>2020-07-08T12:03:25Z</time>
      </trkpt>
      <trkpt lat="47.8026" lon="-3.5232">
        <ele>17.07</ele>
        <time>2020-07-08T12:03:26Z</time>
      </trkpt>
      <trkpt lat="47.80258" lon="-3.52322">
        <ele>17.31</ele>
        <time>2020-07-08T12:03:27Z</time>
      </trkpt>
      <trkpt lat="47.80257" lon="-3.52324">
        <ele>17.45</ele>
        <time>2020-07-08T12:03:28Z</time>
      </trkpt>
      <trkpt lat="47.80256" lon="-3.52326">
        <ele>17.71</ele>
        <time>2020-07-08T12:03:29Z</time>
      </trkpt>
      <trkpt lat="47.80254" lon="-3.52328">
        <ele>18.02</ele>
        <time>2020-07-08T12:03:30Z</time>
      </trkpt>
      <trkpt lat="47.80253" lon="-3.52331">
        <ele>18.61</ele>
        <time>2020-07-08T12:03:31Z</time>
      </trkpt>
      <trkpt lat="47.80253" lon="-3.52335">
        <ele>19.28</ele>
        <time>2020-07-08T12:03:32Z</time>
      </trkpt>
      <trkpt lat="47.80252" lon="-3.52338">
        <ele>19.84</ele>
        <time>2020-07-08T12:03:33Z</time>
      </trkpt>
      <trkpt lat="47.80251" lon="-3.52341">
        <ele>20.33</ele>
        <time>2020-07-08T12:03:34Z</time>
      </trkpt>
      <trkpt lat="47.8025" lon="-3.52344">
        <ele>20.7</ele>
        <time>2020-07-08T12:03:35Z</time>
      </trkpt>
      <trkpt lat="47.8025" lon="-3.52348">
        <ele>21.28</ele>
        <time>2020-07-08T12:03:36Z</time>
      </trkpt>
      <trkpt lat="47.80249" lon="-3.5235">
        <ele>21.53</ele>
        <time>2020-07-08T12:03:37Z</time>
      </trkpt>
      <trkpt lat="47.80248" lon="-3.52353">
        <ele>21.69</ele>
        <time>2020-07-08T12:03:38Z</time>
      </trkpt>
      <trkpt lat="47.80247" lon="-3.52356">
        <ele>21.95</ele>
        <time>2020-07-08T12:03:39Z</time>
      </trkpt>
      <trkpt lat="47.80246" lon="-3.52358">
        <ele>22.11</ele>
        <time>2020-07-08T12:03:40Z</time>
      </trkpt>
      <trkpt lat="47.80244" lon="-3.52359">
        <ele>22.04</ele>
        <time>2020-07-08T12:03:41Z</time>
      </trkpt>
      <trkpt lat="47.80242" lon="-3.52362">
        <ele>21.91</ele>
        <time>2020-07-08T12:03:42Z</time>
      </trkpt>
      <trkpt lat="47.8024" lon="-3.52363">
        <ele>21.65</ele>
        <time>2020-07-08T12:03:43Z</time>
      </trkpt>
      <trkpt lat="47.80237" lon="-3.52365">
        <ele>21.41</ele>
        <time>2020-07-08T12:03:44Z</time>
      </trkpt>
      <trkpt lat="47.80235" lon="-3.52367">
        <ele>21.19</ele>
        <time>2020-07-08T12:03:45Z</time>
      </trkpt>
      <trkpt lat="47.80232" lon="-3.5237">
        <ele>21.17</ele>
        <time>2020-07-08T12:03:46Z</time>
      </trkpt>
      <trkpt lat="47.8023" lon="-3.52372">
        <ele>21.15</ele>
        <time>2020-07-08T12:03:47Z</time>
      </trkpt>
      <trkpt lat="47.80227" lon="-3.52373">
        <ele>20.88</ele>
        <time>2020-07-08T12:03:48Z</time>
      </trkpt>
      <trkpt lat="47.80223" lon="-3.52374">
        <ele>20.56</ele>
        <time>2020-07-08T12:03:49Z</time>
      </trkpt>
      <trkpt lat="47.8022" lon="-3.52376">
        <ele>20.32</ele>
        <time>2020-07-08T12:03:50Z</time>
      </trkpt>
      <trkpt lat="47.80218" lon="-3.52377">
        <ele>20.14</ele>
        <time>2020-07-08T12:03:51Z</time>
      </trkpt>
      <trkpt lat="47.80216" lon="-3.52379">
        <ele>20.11</ele>
        <time>2020-07-08T12:03:52Z</time>
      </trkpt>
      <trkpt lat="47.80214" lon="-3.52381">
        <ele>20.33</ele>
        <time>2020-07-08T12:03:53Z</time>
      </trkpt>
      <trkpt lat="47.80213" lon="-3.52382">
        <ele>20.52</ele>
        <time>2020-07-08T12:03:54Z</time>
      </trkpt>
      <trkpt lat="47.80211" lon="-3.52384">
        <ele>20.65</ele>
        <time>2020-07-08T12:03:55Z</time>
      </trkpt>
      <trkpt lat="47.80208" lon="-3.52387">
        <ele>21.07</ele>
        <time>2020-07-08T12:03:56Z</time>
      </trkpt>
      <trkpt lat="47.80206" lon="-3.52389">
        <ele>21.35</ele>
        <time>2020-07-08T12:03:57Z</time>
      </trkpt>
      <trkpt lat="47.80203" lon="-3.5239">
        <ele>21.2</ele>
        <time>2020-07-08T12:03:58Z</time>
      </trkpt>
      <trkpt lat="47.802" lon="-3.52391">
        <ele>20.93</ele>
        <time>2020-07-08T12:03:59Z</time>
      </trkpt>
      <trkpt lat="47.80197" lon="-3.52393">
        <ele>20.78</ele>
        <time>2020-07-08T12:04:00Z</time>
      </trkpt>
      <trkpt lat="47.80194" lon="-3.52395">
        <ele>20.65</ele>
        <time>2020-07-08T12:04:01Z</time>
      </trkpt>
      <trkpt lat="47.8019" lon="-3.52396">
        <ele>20.19</ele>
        <time>2020-07-08T12:04:02Z</time>
      </trkpt>
      <trkpt lat="47.80185" lon="-3.52398">
        <ele>19.49</ele>
        <time>2020-07-08T12:04:03Z</time>
      </trkpt>
      <trkpt lat="47.80181" lon="-3.52399">
        <ele>18.89</ele>
        <time>2020-07-08T12:04:04Z</time>
      </trkpt>
      <trkpt lat="47.80178" lon="-3.52401">
        <ele>18.69</ele>
        <time>2020-07-08T12:04:05Z</time>
      </trkpt>
      <trkpt lat="47.80175" lon="-3.52403">
        <ele>18.71</ele>
        <time>2020-07-08T12:04:06Z</time>
      </trkpt>
      <trkpt lat="47.80172" lon="-3.52405">
        <ele>18.43</ele>
        <time>2020-07-08T12:04:07Z</time>
      </trkpt>
      <trkpt lat="47.80168" lon="-3.52406">
        <ele>18.15</ele>
        <time>2020-07-08T12:04:08Z</time>
      </trkpt>
      <trkpt lat="47.80164" lon="-3.52409">
        <ele>18.45</ele>
        <time>2020-07-08T12:04:09Z</time>
      </trkpt>
      <trkpt lat="47.80162" lon="-3.5241">
        <ele>18.95</ele>
        <time>2020-07-08T12:04:10Z</time>
      </trkpt>
      <trkpt lat="47.80159" lon="-3.52412">
        <ele>19.47</ele>
        <time>2020-07-08T12:04:11Z</time>
      </trkpt>
      <trkpt lat="47.80155" lon="-3.52414">
        <ele>19.83</ele>
        <time>2020-07-08T12:04:12Z</time>
      </trkpt>
      <trkpt lat="47.80153" lon="-3.52415">
        <ele>20.26</ele>
        <time>2020-07-08T12:04:13Z</time>
      </trkpt>
      <trkpt lat="47.8015" lon="-3.52417">
        <ele>20.65</ele>
        <time>2020-07-08T12:04:14Z</time>
      </trkpt>
      <trkpt lat="47.80148" lon="-3.52418">
        <ele>20.85</ele>
        <time>2020-07-08T12:04:15Z</time>
      </trkpt>
      <trkpt lat="47.80145" lon="-3.52419">
        <ele>21.04</ele>
        <time>2020-07-08T12:04:16Z</time>
      </trkpt>
      <trkpt lat="47.80142" lon="-3.5242">
        <ele>21.2</ele>
        <time>2020-07-08T12:04:17Z</time>
      </trkpt>
      <trkpt lat="47.80139" lon="-3.52421">
        <ele>21.28</ele>
        <time>2020-07-08T12:04:18Z</time>
      </trkpt>
      <trkpt lat="47.80136" lon="-3.52422">
        <ele>21.61</ele>
        <time>2020-07-08T12:04:19Z</time>
      </trkpt>
      <trkpt lat="47.80134" lon="-3.52423">
        <ele>22.09</ele>
        <time>2020-07-08T12:04:20Z</time>
      </trkpt>
      <trkpt lat="47.80131" lon="-3.52425">
        <ele>22.66</ele>
        <time>2020-07-08T12:04:21Z</time>
      </trkpt>
      <trkpt lat="47.80127" lon="-3.52427">
        <ele>23.29</ele>
        <time>2020-07-08T12:04:22Z</time>
      </trkpt>
      <trkpt lat="47.80123" lon="-3.52427">
        <ele>23.57</ele>
        <time>2020-07-08T12:04:23Z</time>
      </trkpt>
      <trkpt lat="47.8012" lon="-3.52426">
        <ele>23.54</ele>
        <time>2020-07-08T12:04:24Z</time>
      </trkpt>
      <trkpt lat="47.80117" lon="-3.52425">
        <ele>23.31</ele>
        <time>2020-07-08T12:04:25Z</time>
      </trkpt>
      <trkpt lat="47.80114" lon="-3.52423">
        <ele>22.89</ele>
        <time>2020-07-08T12:04:26Z</time>
      </trkpt>
      <trkpt lat="47.80111" lon="-3.52419">
        <ele>22.17</ele>
        <time>2020-07-08T12:04:27Z</time>
      </trkpt>
      <trkpt lat="47.80109" lon="-3.52416">
        <ele>21.42</ele>
        <time>2020-07-08T12:04:28Z</time>
      </trkpt>
      <trkpt lat="47.80106" lon="-3.52413">
        <ele>20.41</ele>
        <time>2020-07-08T12:04:29Z</time>
      </trkpt>
      <trkpt lat="47.80103" lon="-3.5241">
        <ele>19.5</ele>
        <time>2020-07-08T12:04:30Z</time>
      </trkpt>
      <trkpt lat="47.80099" lon="-3.52407">
        <ele>18.7</ele>
        <time>2020-07-08T12:04:31Z</time>
      </trkpt>
      <trkpt lat="47.80095" lon="-3.52404">
        <ele>17.91</ele>
        <time>2020-07-08T12:04:32Z</time>
      </trkpt>
      <trkpt lat="47.8009" lon="-3.524">
        <ele>17.01</ele>
        <time>2020-07-08T12:04:33Z</time>
      </trkpt>
      <trkpt lat="47.80086" lon="-3.52396">
        <ele>16.09</ele>
        <time>2020-07-08T12:04:34Z</time>
      </trkpt>
      <trkpt lat="47.8008" lon="-3.52393">
        <ele>15.65</ele>
        <time>2020-07-08T12:04:35Z</time>
      </trkpt>
      <trkpt lat="47.80076" lon="-3.52391">
        <ele>15.88</ele>
        <time>2020-07-08T12:04:36Z</time>
      </trkpt>
      <trkpt lat="47.80072" lon="-3.52389">
        <ele>16.29</ele>
        <time>2020-07-08T12:04:37Z</time>
      </trkpt>
      <trkpt lat="47.80068" lon="-3.52387">
        <ele>16.66</ele>
        <time>2020-07-08T12:04:38Z</time>
      </trkpt>
      <trkpt lat="47.80064" lon="-3.52386">
        <ele>17.17</ele>
        <time>2020-07-08T12:04:39Z</time>
      </trkpt>
      <trkpt lat="47.80061" lon="-3.52385">
        <ele>17.78</ele>
        <time>2020-07-08T12:04:40Z</time>
      </trkpt>
      <trkpt lat="47.80058" lon="-3.52384">
        <ele>18.23</ele>
        <time>2020-07-08T12:04:41Z</time>
      </trkpt>
      <trkpt lat="47.80055" lon="-3.52383">
        <ele>18.44</ele>
        <time>2020-07-08T12:04:42Z</time>
      </trkpt>
      <trkpt lat="47.80052" lon="-3.52381">
        <ele>18.64</ele>
        <time>2020-07-08T12:04:43Z</time>
      </trkpt>
      <trkpt lat="47.80048" lon="-3.5238">
        <ele>19.22</ele>
        <time>2020-07-08T12:04:44Z</time>
      </trkpt>
      <trkpt lat="47.80044" lon="-3.52378">
        <ele>19.81</ele>
        <time>2020-07-08T12:04:45Z</time>
      </trkpt>
      <trkpt lat="47.80041" lon="-3.52377">
        <ele>20.2</ele>
        <time>2020-07-08T12:04:46Z</time>
      </trkpt>
      <trkpt lat="47.80038" lon="-3.52374">
        <ele>20.29</ele>
        <time>2020-07-08T12:04:47Z</time>
      </trkpt>
      <trkpt lat="47.80036" lon="-3.52371">
        <ele>20.34</ele>
        <time>2020-07-08T12:04:48Z</time>
      </trkpt>
      <trkpt lat="47.80033" lon="-3.52369">
        <ele>20.45</ele>
        <time>2020-07-08T12:04:49Z</time>
      </trkpt>
      <trkpt lat="47.80031" lon="-3.52367">
        <ele>20.55</ele>
        <time>2020-07-08T12:04:50Z</time>
      </trkpt>
      <trkpt lat="47.80029" lon="-3.52365">
        <ele>20.62</ele>
        <time>2020-07-08T12:04:51Z</time>
      </trkpt>
      <trkpt lat="47.80026" lon="-3.52361">
        <ele>20.52</ele>
        <time>2020-07-08T12:04:52Z</time>
      </trkpt>
      <trkpt lat="47.80021" lon="-3.52357">
        <ele>20.05</ele>
        <time>2020-07-08T12:04:53Z</time>
      </trkpt>
      <trkpt lat="47.80017" lon="-3.52353">
        <ele>19.51</ele>
        <time>2020-07-08T12:04:54Z</time>
      </trkpt>
      <trkpt lat="47.80013" lon="-3.5235">
        <ele>19.25</ele>
        <time>2020-07-08T12:04:55Z</time>
      </trkpt>
      <trkpt lat="47.8001" lon="-3.52347">
        <ele>19.26</ele>
        <time>2020-07-08T12:04:56Z</time>
      </trkpt>
      <trkpt lat="47.80007" lon="-3.52346">
        <ele>19.38</ele>
        <time>2020-07-08T12:04:57Z</time>
      </trkpt>
      <trkpt lat="47.80004" lon="-3.52343">
        <ele>19.46</ele>
        <time>2020-07-08T12:04:58Z</time>
      </trkpt>
      <trkpt lat="47.80002" lon="-3.52341">
        <ele>19.57</ele>
        <time>2020-07-08T12:04:59Z</time>
      </trkpt>
      <trkpt lat="47.8" lon="-3.5234">
        <ele>19.77</ele>
        <time>2020-07-08T12:05:00Z</time>
      </trkpt>
      <trkpt lat="47.79998" lon="-3.52337">
        <ele>19.57</ele>
        <time>2020-07-08T12:05:01Z</time>
      </trkpt>
      <trkpt lat="47.79998" lon="-3.52337">
        <ele>19.45</ele>
        <time>2020-07-08T12:05:02Z</time>
      </trkpt>
      <trkpt lat="47.79998" lon="-3.52337">
        <ele>19.43</ele>
        <time>2020-07-08T12:05:03Z</time>
      </trkpt>
      <trkpt lat="47.79998" lon="-3.52337">
        <ele>19.42</ele>
        <time>2020-07-08T12:05:04Z</time>
      </trkpt>
      <trkpt lat="47.79998" lon="-3.52337">
        <ele>19.42</ele>
        <time>2020-07-08T12:05:05Z</time>
      </trkpt>
      <trkpt lat="47.79998" lon="-3.52337">
        <ele>19.42</ele>
        <time>2020-07-08T12:05:06Z</time>
      </trkpt>
      <trkpt lat="47.79998" lon="-3.52337">
        <ele>19.42</ele>
        <time>2020-07-08T12:05:07Z</time>
      </trkpt>
      <trkpt lat="47.79998" lon="-3.52337">
        <ele>19.42</ele>
        <time>2020-07-08T12:05:08Z</time>
      </trkpt>
      <trkpt lat="47.79998" lon="-3.52337">
        <ele>19.42</ele>
        <time>2020-07-08T12:05:09Z</time>
      </trkpt>
      <trkpt lat="47.79998" lon="-3.52337">
        <ele>19.42</ele>
        <time>2020-07-08T12:05:10Z</time>
      </trkpt>
      <trkpt lat="47.79998" lon="-3.52337">
        <ele>19.42</ele>
        <time>2020-07-08T12:05:11Z</time>
      </trkpt>
      <trkpt lat="47.79998" lon="-3.52337">
        <ele>19.42</ele>
        <time>2020-07-08T12:05:12Z</time>
      </trkpt>
      <trkpt lat="47.79998" lon="-3.52337">
        <ele>19.42</ele>
        <time>2020-07-08T12:05:13Z</time>
      </trkpt>
      <trkpt lat="47.79998" lon="-3.52337">
        <ele>19.42</ele>
        <time>2020-07-08T12:05:14Z</time>
      </trkpt>
      <trkpt lat="47.79998" lon="-3.52337">
        <ele>19.42</ele>
        <time>2020-07-08T12:05:15Z</time>
      </trkpt>
      <trkpt lat="47.79998" lon="-3.52337">
        <ele>19.42</ele>
        <time>2020-07-08T12:05:16Z</time>
      </trkpt>
      <trkpt lat="47.79998" lon="-3.52337">
        <ele>19.42</ele>
        <time>2020-07-08T12:05:17Z</time>
      </trkpt>
      <trkpt lat="47.79998" lon="-3.52337">
        <ele>19.42</ele>
        <time>2020-07-08T12:05:18Z</time>
      </trkpt>
      <trkpt lat="47.79998" lon="-3.52337">
        <ele>19.42</ele>
        <time>2020-07-08T12:05:19Z</time>
      </trkpt>
      <trkpt lat="47.79998" lon="-3.52337">
        <ele>19.42</ele>
        <time>2020-07-08T12:05:20Z</time>
      </trkpt>
      <trkpt lat="47.79998" lon="-3.52337">
        <ele>19.42</ele>
        <time>2020-07-08T12:05:21Z</time>
      </trkpt>
      <trkpt lat="47.79993" lon="-3.52325">
        <ele>17.58</ele>
        <time>2020-07-08T12:05:22Z</time>
      </trkpt>
      <trkpt lat="47.79992" lon="-3.52324">
        <ele>16.94</ele>
        <time>2020-07-08T12:05:23Z</time>
      </trkpt>
      <trkpt lat="47.79992" lon="-3.52324">
        <ele>16.67</ele>
        <time>2020-07-08T12:05:24Z</time>
      </trkpt>
      <trkpt lat="47.79992" lon="-3.52323">
        <ele>16.62</ele>
        <time>2020-07-08T12:05:25Z</time>
      </trkpt>
      <trkpt lat="47.79992" lon="-3.52323">
        <ele>16.6</ele>
        <time>2020-07-08T12:05:26Z</time>
      </trkpt>
      <trkpt lat="47.79992" lon="-3.52323">
        <ele>16.6</ele>
        <time>2020-07-08T12:05:27Z</time>
      </trkpt>
      <trkpt lat="47.79992" lon="-3.52323">
        <ele>16.6</ele>
        <time>2020-07-08T12:05:28Z</time>
      </trkpt>
      <trkpt lat="47.79992" lon="-3.52323">
        <ele>16.6</ele>
        <time>2020-07-08T12:05:29Z</time>
      </trkpt>
      <trkpt lat="47.79992" lon="-3.52323">
        <ele>16.6</ele>
        <time>2020-07-08T12:05:30Z</time>
      </trkpt>
      <trkpt lat="47.79986" lon="-3.52319">
        <ele>17.05</ele>
        <time>2020-07-08T12:05:31Z</time>
      </trkpt>
      <trkpt lat="47.79983" lon="-3.52316">
        <ele>17.29</ele>
        <time>2020-07-08T12:05:32Z</time>
      </trkpt>
      <trkpt lat="47.7998" lon="-3.52311">
        <ele>17.36</ele>
        <time>2020-07-08T12:05:33Z</time>
      </trkpt>
      <trkpt lat="47.79979" lon="-3.52307">
        <ele>16.99</ele>
        <time>2020-07-08T12:05:34Z</time>
      </trkpt>
      <trkpt lat="47.79978" lon="-3.52301">
        <ele>16.47</ele>
        <time>2020-07-08T12:05:35Z</time>
      </trkpt>
      <trkpt lat="47.79977" lon="-3.52296">
        <ele>15.96</ele>
        <time>2020-07-08T12:05:36Z</time>
      </trkpt>
      <trkpt lat="47.79976" lon="-3.5229">
        <ele>15.4</ele>
        <time>2020-07-08T12:05:37Z</time>
      </trkpt>
      <trkpt lat="47.79975" lon="-3.52286">
        <ele>14.9</ele>
        <time>2020-07-08T12:05:38Z</time>
      </trkpt>
      <trkpt lat="47.79974" lon="-3.5228">
        <ele>14.23</ele>
        <time>2020-07-08T12:05:39Z</time>
      </trkpt>
      <trkpt lat="47.79974" lon="-3.52275">
        <ele>13.18</ele>
        <time>2020-07-08T12:05:40Z</time>
      </trkpt>
      <trkpt lat="47.79975" lon="-3.52269">
        <ele>12</ele>
        <time>2020-07-08T12:05:41Z</time>
      </trkpt>
      <trkpt lat="47.79977" lon="-3.52263">
        <ele>10.49</ele>
        <time>2020-07-08T12:05:42Z</time>
      </trkpt>
      <trkpt lat="47.7998" lon="-3.52259">
        <ele>9.09</ele>
        <time>2020-07-08T12:05:43Z</time>
      </trkpt>
      <trkpt lat="47.79982" lon="-3.52255">
        <ele>7.9</ele>
        <time>2020-07-08T12:05:44Z</time>
      </trkpt>
      <trkpt lat="47.79983" lon="-3.52252">
        <ele>6.93</ele>
        <time>2020-07-08T12:05:45Z</time>
      </trkpt>
      <trkpt lat="47.79984" lon="-3.52248">
        <ele>6.21</ele>
        <time>2020-07-08T12:05:46Z</time>
      </trkpt>
      <trkpt lat="47.79985" lon="-3.52244">
        <ele>5.67</ele>
        <time>2020-07-08T12:05:47Z</time>
      </trkpt>
      <trkpt lat="47.79985" lon="-3.52239">
        <ele>5.14</ele>
        <time>2020-07-08T12:05:48Z</time>
      </trkpt>
      <trkpt lat="47.79985" lon="-3.52234">
        <ele>4.72</ele>
        <time>2020-07-08T12:05:49Z</time>
      </trkpt>
      <trkpt lat="47.79984" lon="-3.52229">
        <ele>4.49</ele>
        <time>2020-07-08T12:05:50Z</time>
      </trkpt>
      <trkpt lat="47.79983" lon="-3.52224">
        <ele>4.31</ele>
        <time>2020-07-08T12:05:51Z</time>
      </trkpt>
      <trkpt lat="47.7998" lon="-3.52218">
        <ele>4.21</ele>
        <time>2020-07-08T12:05:52Z</time>
      </trkpt>
      <trkpt lat="47.79978" lon="-3.52211">
        <ele>3.94</ele>
        <time>2020-07-08T12:05:53Z</time>
      </trkpt>
      <trkpt lat="47.79977" lon="-3.52203">
        <ele>3.53</ele>
        <time>2020-07-08T12:05:54Z</time>
      </trkpt>
      <trkpt lat="47.79974" lon="-3.52195">
        <ele>3.06</ele>
        <time>2020-07-08T12:05:55Z</time>
      </trkpt>
      <trkpt lat="47.79972" lon="-3.52188">
        <ele>2.56</ele>
        <time>2020-07-08T12:05:56Z</time>
      </trkpt>
      <trkpt lat="47.7997" lon="-3.52183">
        <ele>2.08</ele>
        <time>2020-07-08T12:05:57Z</time>
      </trkpt>
      <trkpt lat="47.79967" lon="-3.52178">
        <ele>1.77</ele>
        <time>2020-07-08T12:05:58Z</time>
      </trkpt>
      <trkpt lat="47.79963" lon="-3.52175">
        <ele>1.65</ele>
        <time>2020-07-08T12:05:59Z</time>
      </trkpt>
      <trkpt lat="47.79959" lon="-3.52174">
        <ele>1.69</ele>
        <time>2020-07-08T12:06:00Z</time>
      </trkpt>
      <trkpt lat="47.79956" lon="-3.52173">
        <ele>1.81</ele>
        <time>2020-07-08T12:06:01Z</time>
      </trkpt>
      <trkpt lat="47.79953" lon="-3.52174">
        <ele>2.06</ele>
        <time>2020-07-08T12:06:02Z</time>
      </trkpt>
      <trkpt lat="47.79951" lon="-3.52176">
        <ele>2.38</ele>
        <time>2020-07-08T12:06:03Z</time>
      </trkpt>
      <trkpt lat="47.79948" lon="-3.52177">
        <ele>2.76</ele>
        <time>2020-07-08T12:06:04Z</time>
      </trkpt>
      <trkpt lat="47.79944" lon="-3.52176">
        <ele>2.93</ele>
        <time>2020-07-08T12:06:05Z</time>
      </trkpt>
      <trkpt lat="47.79941" lon="-3.52175">
        <ele>2.82</ele>
        <time>2020-07-08T12:06:06Z</time>
      </trkpt>
      <trkpt lat="47.79937" lon="-3.52176">
        <ele>2.73</ele>
        <time>2020-07-08T12:06:07Z</time>
      </trkpt>
      <trkpt lat="47.79935" lon="-3.52177">
        <ele>2.79</ele>
        <time>2020-07-08T12:06:08Z</time>
      </trkpt>
      <trkpt lat="47.79932" lon="-3.5218">
        <ele>2.97</ele>
        <time>2020-07-08T12:06:09Z</time>
      </trkpt>
      <trkpt lat="47.79929" lon="-3.52183">
        <ele>3.17</ele>
        <time>2020-07-08T12:06:10Z</time>
      </trkpt>
      <trkpt lat="47.79926" lon="-3.52185">
        <ele>3.31</ele>
        <time>2020-07-08T12:06:11Z</time>
      </trkpt>
      <trkpt lat="47.79924" lon="-3.52186">
        <ele>3.35</ele>
        <time>2020-07-08T12:06:12Z</time>
      </trkpt>
      <trkpt lat="47.79921" lon="-3.52188">
        <ele>3.42</ele>
        <time>2020-07-08T12:06:13Z</time>
      </trkpt>
      <trkpt lat="47.79919" lon="-3.52189">
        <ele>3.5</ele>
        <time>2020-07-08T12:06:14Z</time>
      </trkpt>
      <trkpt lat="47.79916" lon="-3.52191">
        <ele>3.55</ele>
        <time>2020-07-08T12:06:15Z</time>
      </trkpt>
      <trkpt lat="47.79912" lon="-3.52193">
        <ele>3.51</ele>
        <time>2020-07-08T12:06:16Z</time>
      </trkpt>
      <trkpt lat="47.79909" lon="-3.52194">
        <ele>3.43</ele>
        <time>2020-07-08T12:06:17Z</time>
      </trkpt>
      <trkpt lat="47.79905" lon="-3.52196">
        <ele>3.4</ele>
        <time>2020-07-08T12:06:18Z</time>
      </trkpt>
      <trkpt lat="47.79901" lon="-3.52197">
        <ele>3.3</ele>
        <time>2020-07-08T12:06:19Z</time>
      </trkpt>
      <trkpt lat="47.79897" lon="-3.52199">
        <ele>3.17</ele>
        <time>2020-07-08T12:06:20Z</time>
      </trkpt>
      <trkpt lat="47.79894" lon="-3.522">
        <ele>3.07</ele>
        <time>2020-07-08T12:06:21Z</time>
      </trkpt>
      <trkpt lat="47.79891" lon="-3.52202">
        <ele>2.99</ele>
        <time>2020-07-08T12:06:22Z</time>
      </trkpt>
      <trkpt lat="47.79887" lon="-3.52204">
        <ele>2.95</ele>
        <time>2020-07-08T12:06:23Z</time>
      </trkpt>
      <trkpt lat="47.79884" lon="-3.52204">
        <ele>2.87</ele>
        <time>2020-07-08T12:06:24Z</time>
      </trkpt>
      <trkpt lat="47.79881" lon="-3.52206">
        <ele>2.82</ele>
        <time>2020-07-08T12:06:25Z</time>
      </trkpt>
      <trkpt lat="47.79878" lon="-3.52206">
        <ele>2.75</ele>
        <time>2020-07-08T12:06:26Z</time>
      </trkpt>
      <trkpt lat="47.79874" lon="-3.52207">
        <ele>2.65</ele>
        <time>2020-07-08T12:06:27Z</time>
      </trkpt>
      <trkpt lat="47.79867" lon="-3.52211">
        <ele>2.6</ele>
        <time>2020-07-08T12:06:29Z</time>
      </trkpt>
      <trkpt lat="47.79865" lon="-3.52214">
        <ele>2.62</ele>
        <time>2020-07-08T12:06:30Z</time>
      </trkpt>
      <trkpt lat="47.79863" lon="-3.52217">
        <ele>2.69</ele>
        <time>2020-07-08T12:06:31Z</time>
      </trkpt>
      <trkpt lat="47.79861" lon="-3.5222">
        <ele>2.76</ele>
        <time>2020-07-08T12:06:32Z</time>
      </trkpt>
      <trkpt lat="47.79858" lon="-3.52222">
        <ele>2.75</ele>
        <time>2020-07-08T12:06:33Z</time>
      </trkpt>
      <trkpt lat="47.79855" lon="-3.52224">
        <ele>2.78</ele>
        <time>2020-07-08T12:06:34Z</time>
      </trkpt>
      <trkpt lat="47.79851" lon="-3.52226">
        <ele>2.81</ele>
        <time>2020-07-08T12:06:35Z</time>
      </trkpt>
      <trkpt lat="47.79848" lon="-3.52229">
        <ele>2.82</ele>
        <time>2020-07-08T12:06:36Z</time>
      </trkpt>
      <trkpt lat="47.79845" lon="-3.52232">
        <ele>2.87</ele>
        <time>2020-07-08T12:06:37Z</time>
      </trkpt>
      <trkpt lat="47.79843" lon="-3.52236">
        <ele>2.96</ele>
        <time>2020-07-08T12:06:38Z</time>
      </trkpt>
      <trkpt lat="47.79842" lon="-3.52239">
        <ele>3.12</ele>
        <time>2020-07-08T12:06:39Z</time>
      </trkpt>
      <trkpt lat="47.79841" lon="-3.52242">
        <ele>3.29</ele>
        <time>2020-07-08T12:06:40Z</time>
      </trkpt>
      <trkpt lat="47.7984" lon="-3.52245">
        <ele>3.47</ele>
        <time>2020-07-08T12:06:41Z</time>
      </trkpt>
      <trkpt lat="47.7984" lon="-3.52247">
        <ele>3.63</ele>
        <time>2020-07-08T12:06:42Z</time>
      </trkpt>
      <trkpt lat="47.79839" lon="-3.5225">
        <ele>3.76</ele>
        <time>2020-07-08T12:06:43Z</time>
      </trkpt>
      <trkpt lat="47.79838" lon="-3.52253">
        <ele>4.05</ele>
        <time>2020-07-08T12:06:44Z</time>
      </trkpt>
      <trkpt lat="47.79837" lon="-3.52256">
        <ele>4.27</ele>
        <time>2020-07-08T12:06:45Z</time>
      </trkpt>
      <trkpt lat="47.79836" lon="-3.52258">
        <ele>4.46</ele>
        <time>2020-07-08T12:06:46Z</time>
      </trkpt>
      <trkpt lat="47.79834" lon="-3.52261">
        <ele>4.57</ele>
        <time>2020-07-08T12:06:47Z</time>
      </trkpt>
      <trkpt lat="47.79831" lon="-3.52263">
        <ele>4.56</ele>
        <time>2020-07-08T12:06:48Z</time>
      </trkpt>
      <trkpt lat="47.79828" lon="-3.52265">
        <ele>4.44</ele>
        <time>2020-07-08T12:06:49Z</time>
      </trkpt>
      <trkpt lat="47.79825" lon="-3.52268">
        <ele>4.17</ele>
        <time>2020-07-08T12:06:50Z</time>
      </trkpt>
      <trkpt lat="47.79822" lon="-3.5227">
        <ele>3.85</ele>
        <time>2020-07-08T12:06:51Z</time>
      </trkpt>
      <trkpt lat="47.79819" lon="-3.52273">
        <ele>3.6</ele>
        <time>2020-07-08T12:06:52Z</time>
      </trkpt>
      <trkpt lat="47.79817" lon="-3.52276">
        <ele>3.38</ele>
        <time>2020-07-08T12:06:53Z</time>
      </trkpt>
      <trkpt lat="47.79815" lon="-3.52279">
        <ele>3.3</ele>
        <time>2020-07-08T12:06:54Z</time>
      </trkpt>
      <trkpt lat="47.79813" lon="-3.52283">
        <ele>3.39</ele>
        <time>2020-07-08T12:06:55Z</time>
      </trkpt>
      <trkpt lat="47.79811" lon="-3.52286">
        <ele>3.48</ele>
        <time>2020-07-08T12:06:56Z</time>
      </trkpt>
      <trkpt lat="47.7981" lon="-3.52289">
        <ele>3.52</ele>
        <time>2020-07-08T12:06:57Z</time>
      </trkpt>
      <trkpt lat="47.79807" lon="-3.52292">
        <ele>3.47</ele>
        <time>2020-07-08T12:06:58Z</time>
      </trkpt>
      <trkpt lat="47.79806" lon="-3.52295">
        <ele>3.62</ele>
        <time>2020-07-08T12:06:59Z</time>
      </trkpt>
      <trkpt lat="47.79806" lon="-3.52299">
        <ele>4.09</ele>
        <time>2020-07-08T12:07:00Z</time>
      </trkpt>
      <trkpt lat="47.79805" lon="-3.52303">
        <ele>4.46</ele>
        <time>2020-07-08T12:07:01Z</time>
      </trkpt>
      <trkpt lat="47.79805" lon="-3.52308">
        <ele>5.02</ele>
        <time>2020-07-08T12:07:02Z</time>
      </trkpt>
      <trkpt lat="47.79805" lon="-3.52311">
        <ele>5.4</ele>
        <time>2020-07-08T12:07:03Z</time>
      </trkpt>
      <trkpt lat="47.79804" lon="-3.52312">
        <ele>5.54</ele>
        <time>2020-07-08T12:07:04Z</time>
      </trkpt>
      <trkpt lat="47.79804" lon="-3.52312">
        <ele>5.59</ele>
        <time>2020-07-08T12:07:05Z</time>
      </trkpt>
      <trkpt lat="47.79804" lon="-3.52311">
        <ele>5.57</ele>
        <time>2020-07-08T12:07:06Z</time>
      </trkpt>
      <trkpt lat="47.79804" lon="-3.52311">
        <ele>5.56</ele>
        <time>2020-07-08T12:07:07Z</time>
      </trkpt>
      <trkpt lat="47.79804" lon="-3.52311">
        <ele>5.56</ele>
        <time>2020-07-08T12:07:08Z</time>
      </trkpt>
      <trkpt lat="47.79804" lon="-3.52311">
        <ele>5.56</ele>
        <time>2020-07-08T12:07:09Z</time>
      </trkpt>
      <trkpt lat="47.79804" lon="-3.52311">
        <ele>5.56</ele>
        <time>2020-07-08T12:07:10Z</time>
      </trkpt>
      <trkpt lat="47.79804" lon="-3.52311">
        <ele>5.56</ele>
        <time>2020-07-08T12:07:11Z</time>
      </trkpt>
      <trkpt lat="47.79804" lon="-3.52311">
        <ele>5.56</ele>
        <time>2020-07-08T12:07:12Z</time>
      </trkpt>
      <trkpt lat="47.79804" lon="-3.52311">
        <ele>5.56</ele>
        <time>2020-07-08T12:07:13Z</time>
      </trkpt>
      <trkpt lat="47.79804" lon="-3.52311">
        <ele>5.56</ele>
        <time>2020-07-08T12:07:14Z</time>
      </trkpt>
      <trkpt lat="47.79804" lon="-3.52311">
        <ele>5.56</ele>
        <time>2020-07-08T12:07:15Z</time>
      </trkpt>
      <trkpt lat="47.79804" lon="-3.52311">
        <ele>5.56</ele>
        <time>2020-07-08T12:07:16Z</time>
      </trkpt>
      <trkpt lat="47.79804" lon="-3.52311">
        <ele>5.56</ele>
        <time>2020-07-08T12:07:17Z</time>
      </trkpt>
      <trkpt lat="47.79804" lon="-3.52311">
        <ele>5.56</ele>
        <time>2020-07-08T12:07:18Z</time>
      </trkpt>
      <trkpt lat="47.79804" lon="-3.52311">
        <ele>5.56</ele>
        <time>2020-07-08T12:07:19Z</time>
      </trkpt>
      <trkpt lat="47.79804" lon="-3.52311">
        <ele>5.56</ele>
        <time>2020-07-08T12:07:20Z</time>
      </trkpt>
      <trkpt lat="47.79804" lon="-3.52311">
        <ele>5.56</ele>
        <time>2020-07-08T12:07:21Z</time>
      </trkpt>
      <trkpt lat="47.79804" lon="-3.52311">
        <ele>5.56</ele>
        <time>2020-07-08T12:07:22Z</time>
      </trkpt>
      <trkpt lat="47.79804" lon="-3.52311">
        <ele>5.56</ele>
        <time>2020-07-08T12:07:23Z</time>
      </trkpt>
      <trkpt lat="47.79804" lon="-3.52311">
        <ele>5.56</ele>
        <time>2020-07-08T12:07:24Z</time>
      </trkpt>
      <trkpt lat="47.79804" lon="-3.52311">
        <ele>5.56</ele>
        <time>2020-07-08T12:07:25Z</time>
      </trkpt>
      <trkpt lat="47.79804" lon="-3.52311">
        <ele>5.56</ele>
        <time>2020-07-08T12:07:26Z</time>
      </trkpt>
      <trkpt lat="47.79804" lon="-3.52311">
        <ele>5.56</ele>
        <time>2020-07-08T12:07:27Z</time>
      </trkpt>
      <trkpt lat="47.79804" lon="-3.52311">
        <ele>5.56</ele>
        <time>2020-07-08T12:07:28Z</time>
      </trkpt>
      <trkpt lat="47.79804" lon="-3.52311">
        <ele>5.56</ele>
        <time>2020-07-08T12:07:29Z</time>
      </trkpt>
      <trkpt lat="47.79804" lon="-3.52311">
        <ele>5.56</ele>
        <time>2020-07-08T12:07:30Z</time>
      </trkpt>
      <trkpt lat="47.79804" lon="-3.52311">
        <ele>5.56</ele>
        <time>2020-07-08T12:07:31Z</time>
      </trkpt>
      <trkpt lat="47.79804" lon="-3.52311">
        <ele>5.56</ele>
        <time>2020-07-08T12:07:32Z</time>
      </trkpt>
      <trkpt lat="47.79804" lon="-3.52311">
        <ele>5.56</ele>
        <time>2020-07-08T12:07:33Z</time>
      </trkpt>
      <trkpt lat="47.79804" lon="-3.52311">
        <ele>5.56</ele>
        <time>2020-07-08T12:07:34Z</time>
      </trkpt>
      <trkpt lat="47.79804" lon="-3.52311">
        <ele>5.56</ele>
        <time>2020-07-08T12:07:35Z</time>
      </trkpt>
      <trkpt lat="47.79804" lon="-3.52311">
        <ele>5.56</ele>
        <time>2020-07-08T12:07:36Z</time>
      </trkpt>
      <trkpt lat="47.79804" lon="-3.52311">
        <ele>5.56</ele>
        <time>2020-07-08T12:07:37Z</time>
      </trkpt>
      <trkpt lat="47.79804" lon="-3.52311">
        <ele>5.56</ele>
        <time>2020-07-08T12:07:38Z</time>
      </trkpt>
      <trkpt lat="47.79804" lon="-3.52311">
        <ele>5.56</ele>
        <time>2020-07-08T12:07:39Z</time>
      </trkpt>
      <trkpt lat="47.79804" lon="-3.52311">
        <ele>5.56</ele>
        <time>2020-07-08T12:07:40Z</time>
      </trkpt>
      <trkpt lat="47.79804" lon="-3.52311">
        <ele>5.56</ele>
        <time>2020-07-08T12:07:41Z</time>
      </trkpt>
      <trkpt lat="47.79804" lon="-3.52311">
        <ele>5.56</ele>
        <time>2020-07-08T12:07:42Z</time>
      </trkpt>
      <trkpt lat="47.79804" lon="-3.52311">
        <ele>5.56</ele>
        <time>2020-07-08T12:07:43Z</time>
      </trkpt>
      <trkpt lat="47.79804" lon="-3.52311">
        <ele>5.56</ele>
        <time>2020-07-08T12:07:44Z</time>
      </trkpt>
      <trkpt lat="47.79804" lon="-3.52311">
        <ele>5.56</ele>
        <time>2020-07-08T12:07:45Z</time>
      </trkpt>
      <trkpt lat="47.79804" lon="-3.52311">
        <ele>5.56</ele>
        <time>2020-07-08T12:07:46Z</time>
      </trkpt>
      <trkpt lat="47.79801" lon="-3.52317">
        <ele>5.78</ele>
        <time>2020-07-08T12:07:47Z</time>
      </trkpt>
      <trkpt lat="47.798" lon="-3.52318">
        <ele>5.89</ele>
        <time>2020-07-08T12:07:48Z</time>
      </trkpt>
      <trkpt lat="47.79798" lon="-3.5232">
        <ele>5.85</ele>
        <time>2020-07-08T12:07:49Z</time>
      </trkpt>
      <trkpt lat="47.79797" lon="-3.52321">
        <ele>5.87</ele>
        <time>2020-07-08T12:07:50Z</time>
      </trkpt>
      <trkpt lat="47.79795" lon="-3.52324">
        <ele>6.02</ele>
        <time>2020-07-08T12:07:51Z</time>
      </trkpt>
      <trkpt lat="47.79792" lon="-3.52327">
        <ele>6.1</ele>
        <time>2020-07-08T12:07:52Z</time>
      </trkpt>
      <trkpt lat="47.7979" lon="-3.52331">
        <ele>6.35</ele>
        <time>2020-07-08T12:07:53Z</time>
      </trkpt>
      <trkpt lat="47.79789" lon="-3.52334">
        <ele>6.49</ele>
        <time>2020-07-08T12:07:54Z</time>
      </trkpt>
      <trkpt lat="47.7979" lon="-3.52338">
        <ele>6.4</ele>
        <time>2020-07-08T12:07:55Z</time>
      </trkpt>
      <trkpt lat="47.7979" lon="-3.52341">
        <ele>6.34</ele>
        <time>2020-07-08T12:07:56Z</time>
      </trkpt>
      <trkpt lat="47.79791" lon="-3.52343">
        <ele>6.27</ele>
        <time>2020-07-08T12:07:57Z</time>
      </trkpt>
      <trkpt lat="47.79791" lon="-3.52344">
        <ele>6.25</ele>
        <time>2020-07-08T12:07:58Z</time>
      </trkpt>
      <trkpt lat="47.79791" lon="-3.52346">
        <ele>6.25</ele>
        <time>2020-07-08T12:07:59Z</time>
      </trkpt>
      <trkpt lat="47.79791" lon="-3.52349">
        <ele>6.12</ele>
        <time>2020-07-08T12:08:00Z</time>
      </trkpt>
      <trkpt lat="47.79791" lon="-3.52352">
        <ele>5.79</ele>
        <time>2020-07-08T12:08:01Z</time>
      </trkpt>
      <trkpt lat="47.7979" lon="-3.52355">
        <ele>5.42</ele>
        <time>2020-07-08T12:08:02Z</time>
      </trkpt>
      <trkpt lat="47.79789" lon="-3.52359">
        <ele>4.76</ele>
        <time>2020-07-08T12:08:03Z</time>
      </trkpt>
      <trkpt lat="47.79788" lon="-3.52363">
        <ele>4.23</ele>
        <time>2020-07-08T12:08:04Z</time>
      </trkpt>
      <trkpt lat="47.79787" lon="-3.52368">
        <ele>4.04</ele>
        <time>2020-07-08T12:08:05Z</time>
      </trkpt>
      <trkpt lat="47.79787" lon="-3.52372">
        <ele>4.09</ele>
        <time>2020-07-08T12:08:06Z</time>
      </trkpt>
      <trkpt lat="47.79788" lon="-3.52377">
        <ele>4.41</ele>
        <time>2020-07-08T12:08:07Z</time>
      </trkpt>
      <trkpt lat="47.79789" lon="-3.52382">
        <ele>4.96</ele>
        <time>2020-07-08T12:08:08Z</time>
      </trkpt>
      <trkpt lat="47.7979" lon="-3.52386">
        <ele>5.49</ele>
        <time>2020-07-08T12:08:09Z</time>
      </trkpt>
      <trkpt lat="47.7979" lon="-3.5239">
        <ele>5.8</ele>
        <time>2020-07-08T12:08:10Z</time>
      </trkpt>
      <trkpt lat="47.79791" lon="-3.52394">
        <ele>6.03</ele>
        <time>2020-07-08T12:08:11Z</time>
      </trkpt>
      <trkpt lat="47.7979" lon="-3.52397">
        <ele>6.06</ele>
        <time>2020-07-08T12:08:12Z</time>
      </trkpt>
      <trkpt lat="47.7979" lon="-3.524">
        <ele>6.07</ele>
        <time>2020-07-08T12:08:13Z</time>
      </trkpt>
      <trkpt lat="47.79791" lon="-3.52404">
        <ele>6.25</ele>
        <time>2020-07-08T12:08:14Z</time>
      </trkpt>
      <trkpt lat="47.79792" lon="-3.52407">
        <ele>6.69</ele>
        <time>2020-07-08T12:08:15Z</time>
      </trkpt>
      <trkpt lat="47.79794" lon="-3.52409">
        <ele>7.28</ele>
        <time>2020-07-08T12:08:16Z</time>
      </trkpt>
      <trkpt lat="47.79795" lon="-3.5241">
        <ele>7.95</ele>
        <time>2020-07-08T12:08:17Z</time>
      </trkpt>
      <trkpt lat="47.79797" lon="-3.5241">
        <ele>8.62</ele>
        <time>2020-07-08T12:08:18Z</time>
      </trkpt>
      <trkpt lat="47.79799" lon="-3.5241">
        <ele>9.25</ele>
        <time>2020-07-08T12:08:19Z</time>
      </trkpt>
      <trkpt lat="47.798" lon="-3.52409">
        <ele>9.61</ele>
        <time>2020-07-08T12:08:20Z</time>
      </trkpt>
      <trkpt lat="47.798" lon="-3.52407">
        <ele>9.79</ele>
        <time>2020-07-08T12:08:21Z</time>
      </trkpt>
      <trkpt lat="47.79801" lon="-3.52405">
        <ele>10.01</ele>
        <time>2020-07-08T12:08:22Z</time>
      </trkpt>
      <trkpt lat="47.79801" lon="-3.52403">
        <ele>10.33</ele>
        <time>2020-07-08T12:08:23Z</time>
      </trkpt>
      <trkpt lat="47.79802" lon="-3.524">
        <ele>10.55</ele>
        <time>2020-07-08T12:08:24Z</time>
      </trkpt>
      <trkpt lat="47.79802" lon="-3.52397">
        <ele>10.65</ele>
        <time>2020-07-08T12:08:25Z</time>
      </trkpt>
      <trkpt lat="47.79803" lon="-3.52394">
        <ele>10.76</ele>
        <time>2020-07-08T12:08:26Z</time>
      </trkpt>
      <trkpt lat="47.79803" lon="-3.52391">
        <ele>10.93</ele>
        <time>2020-07-08T12:08:27Z</time>
      </trkpt>
      <trkpt lat="47.79804" lon="-3.52388">
        <ele>11.22</ele>
        <time>2020-07-08T12:08:28Z</time>
      </trkpt>
      <trkpt lat="47.79805" lon="-3.52384">
        <ele>11.5</ele>
        <time>2020-07-08T12:08:29Z</time>
      </trkpt>
      <trkpt lat="47.79806" lon="-3.52381">
        <ele>11.69</ele>
        <time>2020-07-08T12:08:30Z</time>
      </trkpt>
      <trkpt lat="47.79807" lon="-3.52377">
        <ele>11.76</ele>
        <time>2020-07-08T12:08:31Z</time>
      </trkpt>
      <trkpt lat="47.79807" lon="-3.52374">
        <ele>11.77</ele>
        <time>2020-07-08T12:08:32Z</time>
      </trkpt>
      <trkpt lat="47.79808" lon="-3.5237">
        <ele>11.82</ele>
        <time>2020-07-08T12:08:33Z</time>
      </trkpt>
      <trkpt lat="47.7981" lon="-3.52366">
        <ele>11.89</ele>
        <time>2020-07-08T12:08:34Z</time>
      </trkpt>
      <trkpt lat="47.79811" lon="-3.52363">
        <ele>11.99</ele>
        <time>2020-07-08T12:08:35Z</time>
      </trkpt>
      <trkpt lat="47.79812" lon="-3.52359">
        <ele>12.07</ele>
        <time>2020-07-08T12:08:36Z</time>
      </trkpt>
      <trkpt lat="47.79814" lon="-3.52356">
        <ele>12.13</ele>
        <time>2020-07-08T12:08:37Z</time>
      </trkpt>
      <trkpt lat="47.79815" lon="-3.52353">
        <ele>12.16</ele>
        <time>2020-07-08T12:08:38Z</time>
      </trkpt>
      <trkpt lat="47.79817" lon="-3.5235">
        <ele>12.27</ele>
        <time>2020-07-08T12:08:39Z</time>
      </trkpt>
      <trkpt lat="47.79818" lon="-3.52347">
        <ele>12.41</ele>
        <time>2020-07-08T12:08:40Z</time>
      </trkpt>
      <trkpt lat="47.7982" lon="-3.52343">
        <ele>12.56</ele>
        <time>2020-07-08T12:08:41Z</time>
      </trkpt>
      <trkpt lat="47.79821" lon="-3.5234">
        <ele>12.69</ele>
        <time>2020-07-08T12:08:42Z</time>
      </trkpt>
      <trkpt lat="47.79823" lon="-3.52337">
        <ele>12.8</ele>
        <time>2020-07-08T12:08:43Z</time>
      </trkpt>
      <trkpt lat="47.79824" lon="-3.52333">
        <ele>12.96</ele>
        <time>2020-07-08T12:08:44Z</time>
      </trkpt>
      <trkpt lat="47.79826" lon="-3.52331">
        <ele>13.1</ele>
        <time>2020-07-08T12:08:45Z</time>
      </trkpt>
      <trkpt lat="47.79828" lon="-3.52328">
        <ele>13.28</ele>
        <time>2020-07-08T12:08:46Z</time>
      </trkpt>
      <trkpt lat="47.79831" lon="-3.52325">
        <ele>13.65</ele>
        <time>2020-07-08T12:08:47Z</time>
      </trkpt>
      <trkpt lat="47.79833" lon="-3.52323">
        <ele>13.99</ele>
        <time>2020-07-08T12:08:48Z</time>
      </trkpt>
      <trkpt lat="47.79835" lon="-3.52319">
        <ele>14.1</ele>
        <time>2020-07-08T12:08:49Z</time>
      </trkpt>
      <trkpt lat="47.79837" lon="-3.52317">
        <ele>14.07</ele>
        <time>2020-07-08T12:08:50Z</time>
      </trkpt>
      <trkpt lat="47.79837" lon="-3.52313">
        <ele>13.93</ele>
        <time>2020-07-08T12:08:51Z</time>
      </trkpt>
      <trkpt lat="47.79839" lon="-3.52309">
        <ele>13.74</ele>
        <time>2020-07-08T12:08:52Z</time>
      </trkpt>
      <trkpt lat="47.7984" lon="-3.52305">
        <ele>13.44</ele>
        <time>2020-07-08T12:08:53Z</time>
      </trkpt>
      <trkpt lat="47.79839" lon="-3.52301">
        <ele>12.75</ele>
        <time>2020-07-08T12:08:54Z</time>
      </trkpt>
      <trkpt lat="47.79838" lon="-3.52298">
        <ele>12.14</ele>
        <time>2020-07-08T12:08:55Z</time>
      </trkpt>
      <trkpt lat="47.79836" lon="-3.52298">
        <ele>11.81</ele>
        <time>2020-07-08T12:08:56Z</time>
      </trkpt>
      <trkpt lat="47.79833" lon="-3.52299">
        <ele>11.64</ele>
        <time>2020-07-08T12:08:57Z</time>
      </trkpt>
      <trkpt lat="47.7983" lon="-3.523">
        <ele>11.07</ele>
        <time>2020-07-08T12:08:58Z</time>
      </trkpt>
      <trkpt lat="47.79826" lon="-3.52301">
        <ele>10.45</ele>
        <time>2020-07-08T12:08:59Z</time>
      </trkpt>
      <trkpt lat="47.79823" lon="-3.52303">
        <ele>9.77</ele>
        <time>2020-07-08T12:09:00Z</time>
      </trkpt>
      <trkpt lat="47.7982" lon="-3.52304">
        <ele>9.13</ele>
        <time>2020-07-08T12:09:01Z</time>
      </trkpt>
      <trkpt lat="47.79816" lon="-3.52305">
        <ele>8.35</ele>
        <time>2020-07-08T12:09:02Z</time>
      </trkpt>
      <trkpt lat="47.79813" lon="-3.52306">
        <ele>7.51</ele>
        <time>2020-07-08T12:09:03Z</time>
      </trkpt>
      <trkpt lat="47.79809" lon="-3.52308">
        <ele>6.69</ele>
        <time>2020-07-08T12:09:04Z</time>
      </trkpt>
      <trkpt lat="47.79806" lon="-3.52309">
        <ele>5.91</ele>
        <time>2020-07-08T12:09:05Z</time>
      </trkpt>
      <trkpt lat="47.79802" lon="-3.52311">
        <ele>5.39</ele>
        <time>2020-07-08T12:09:06Z</time>
      </trkpt>
      <trkpt lat="47.79798" lon="-3.52313">
        <ele>4.95</ele>
        <time>2020-07-08T12:09:07Z</time>
      </trkpt>
      <trkpt lat="47.79794" lon="-3.52314">
        <ele>4.55</ele>
        <time>2020-07-08T12:09:08Z</time>
      </trkpt>
      <trkpt lat="47.79791" lon="-3.52315">
        <ele>4.16</ele>
        <time>2020-07-08T12:09:09Z</time>
      </trkpt>
      <trkpt lat="47.79787" lon="-3.52317">
        <ele>3.78</ele>
        <time>2020-07-08T12:09:10Z</time>
      </trkpt>
      <trkpt lat="47.79784" lon="-3.52319">
        <ele>3.46</ele>
        <time>2020-07-08T12:09:11Z</time>
      </trkpt>
      <trkpt lat="47.7978" lon="-3.5232">
        <ele>3.13</ele>
        <time>2020-07-08T12:09:12Z</time>
      </trkpt>
      <trkpt lat="47.79776" lon="-3.52322">
        <ele>2.99</ele>
        <time>2020-07-08T12:09:13Z</time>
      </trkpt>
      <trkpt lat="47.79772" lon="-3.52323">
        <ele>3.23</ele>
        <time>2020-07-08T12:09:14Z</time>
      </trkpt>
      <trkpt lat="47.79768" lon="-3.52325">
        <ele>3.62</ele>
        <time>2020-07-08T12:09:15Z</time>
      </trkpt>
      <trkpt lat="47.79764" lon="-3.52327">
        <ele>3.99</ele>
        <time>2020-07-08T12:09:16Z</time>
      </trkpt>
      <trkpt lat="47.7976" lon="-3.52328">
        <ele>4.37</ele>
        <time>2020-07-08T12:09:17Z</time>
      </trkpt>
      <trkpt lat="47.79755" lon="-3.52329">
        <ele>4.79</ele>
        <time>2020-07-08T12:09:18Z</time>
      </trkpt>
      <trkpt lat="47.79751" lon="-3.52331">
        <ele>5.29</ele>
        <time>2020-07-08T12:09:19Z</time>
      </trkpt>
      <trkpt lat="47.79746" lon="-3.52333">
        <ele>5.54</ele>
        <time>2020-07-08T12:09:20Z</time>
      </trkpt>
      <trkpt lat="47.79742" lon="-3.52335">
        <ele>5.36</ele>
        <time>2020-07-08T12:09:21Z</time>
      </trkpt>
      <trkpt lat="47.79738" lon="-3.52336">
        <ele>5.03</ele>
        <time>2020-07-08T12:09:22Z</time>
      </trkpt>
      <trkpt lat="47.79734" lon="-3.52337">
        <ele>4.74</ele>
        <time>2020-07-08T12:09:23Z</time>
      </trkpt>
      <trkpt lat="47.79729" lon="-3.52339">
        <ele>4.51</ele>
        <time>2020-07-08T12:09:24Z</time>
      </trkpt>
      <trkpt lat="47.79725" lon="-3.5234">
        <ele>4.36</ele>
        <time>2020-07-08T12:09:25Z</time>
      </trkpt>
      <trkpt lat="47.79721" lon="-3.52341">
        <ele>4.28</ele>
        <time>2020-07-08T12:09:26Z</time>
      </trkpt>
      <trkpt lat="47.79716" lon="-3.52343">
        <ele>4.22</ele>
        <time>2020-07-08T12:09:27Z</time>
      </trkpt>
      <trkpt lat="47.79712" lon="-3.52344">
        <ele>4.19</ele>
        <time>2020-07-08T12:09:28Z</time>
      </trkpt>
      <trkpt lat="47.79708" lon="-3.52346">
        <ele>4.17</ele>
        <time>2020-07-08T12:09:29Z</time>
      </trkpt>
      <trkpt lat="47.79704" lon="-3.52347">
        <ele>4.15</ele>
        <time>2020-07-08T12:09:30Z</time>
      </trkpt>
      <trkpt lat="47.797" lon="-3.52348">
        <ele>4.14</ele>
        <time>2020-07-08T12:09:31Z</time>
      </trkpt>
      <trkpt lat="47.79696" lon="-3.52349">
        <ele>4.15</ele>
        <time>2020-07-08T12:09:32Z</time>
      </trkpt>
      <trkpt lat="47.79692" lon="-3.52351">
        <ele>4.1</ele>
        <time>2020-07-08T12:09:33Z</time>
      </trkpt>
      <trkpt lat="47.79689" lon="-3.52352">
        <ele>3.94</ele>
        <time>2020-07-08T12:09:34Z</time>
      </trkpt>
      <trkpt lat="47.79685" lon="-3.52354">
        <ele>3.75</ele>
        <time>2020-07-08T12:09:35Z</time>
      </trkpt>
      <trkpt lat="47.7968" lon="-3.52355">
        <ele>3.53</ele>
        <time>2020-07-08T12:09:36Z</time>
      </trkpt>
      <trkpt lat="47.79675" lon="-3.52357">
        <ele>3.31</ele>
        <time>2020-07-08T12:09:37Z</time>
      </trkpt>
      <trkpt lat="47.7967" lon="-3.52358">
        <ele>3.08</ele>
        <time>2020-07-08T12:09:38Z</time>
      </trkpt>
      <trkpt lat="47.79666" lon="-3.5236">
        <ele>3.03</ele>
        <time>2020-07-08T12:09:39Z</time>
      </trkpt>
      <trkpt lat="47.79662" lon="-3.52361">
        <ele>3.52</ele>
        <time>2020-07-08T12:09:40Z</time>
      </trkpt>
      <trkpt lat="47.79657" lon="-3.52362">
        <ele>4.13</ele>
        <time>2020-07-08T12:09:41Z</time>
      </trkpt>
      <trkpt lat="47.79653" lon="-3.52364">
        <ele>4.81</ele>
        <time>2020-07-08T12:09:42Z</time>
      </trkpt>
      <trkpt lat="47.79649" lon="-3.52366">
        <ele>5.6</ele>
        <time>2020-07-08T12:09:43Z</time>
      </trkpt>
      <trkpt lat="47.79644" lon="-3.52367">
        <ele>6.53</ele>
        <time>2020-07-08T12:09:44Z</time>
      </trkpt>
      <trkpt lat="47.7964" lon="-3.52369">
        <ele>7.5</ele>
        <time>2020-07-08T12:09:45Z</time>
      </trkpt>
      <trkpt lat="47.79636" lon="-3.52371">
        <ele>8.72</ele>
        <time>2020-07-08T12:09:46Z</time>
      </trkpt>
      <trkpt lat="47.79631" lon="-3.52373">
        <ele>10.1</ele>
        <time>2020-07-08T12:09:47Z</time>
      </trkpt>
      <trkpt lat="47.79626" lon="-3.52374">
        <ele>11.41</ele>
        <time>2020-07-08T12:09:48Z</time>
      </trkpt>
      <trkpt lat="47.79621" lon="-3.52376">
        <ele>12.58</ele>
        <time>2020-07-08T12:09:49Z</time>
      </trkpt>
      <trkpt lat="47.79617" lon="-3.52377">
        <ele>13.69</ele>
        <time>2020-07-08T12:09:50Z</time>
      </trkpt>
      <trkpt lat="47.79612" lon="-3.52379">
        <ele>14.68</ele>
        <time>2020-07-08T12:09:51Z</time>
      </trkpt>
      <trkpt lat="47.79608" lon="-3.5238">
        <ele>15.49</ele>
        <time>2020-07-08T12:09:52Z</time>
      </trkpt>
      <trkpt lat="47.79604" lon="-3.52382">
        <ele>16.08</ele>
        <time>2020-07-08T12:09:53Z</time>
      </trkpt>
      <trkpt lat="47.79599" lon="-3.52383">
        <ele>16.61</ele>
        <time>2020-07-08T12:09:54Z</time>
      </trkpt>
      <trkpt lat="47.79595" lon="-3.52385">
        <ele>17.03</ele>
        <time>2020-07-08T12:09:55Z</time>
      </trkpt>
      <trkpt lat="47.79591" lon="-3.52386">
        <ele>17.36</ele>
        <time>2020-07-08T12:09:56Z</time>
      </trkpt>
      <trkpt lat="47.79587" lon="-3.52388">
        <ele>17.68</ele>
        <time>2020-07-08T12:09:57Z</time>
      </trkpt>
      <trkpt lat="47.79583" lon="-3.52389">
        <ele>17.91</ele>
        <time>2020-07-08T12:09:58Z</time>
      </trkpt>
      <trkpt lat="47.7958" lon="-3.5239">
        <ele>18.28</ele>
        <time>2020-07-08T12:09:59Z</time>
      </trkpt>
      <trkpt lat="47.79576" lon="-3.52392">
        <ele>18.62</ele>
        <time>2020-07-08T12:10:00Z</time>
      </trkpt>
      <trkpt lat="47.79574" lon="-3.52395">
        <ele>18.69</ele>
        <time>2020-07-08T12:10:01Z</time>
      </trkpt>
      <trkpt lat="47.79574" lon="-3.52399">
        <ele>18.43</ele>
        <time>2020-07-08T12:10:02Z</time>
      </trkpt>
      <trkpt lat="47.79575" lon="-3.52402">
        <ele>17.99</ele>
        <time>2020-07-08T12:10:03Z</time>
      </trkpt>
      <trkpt lat="47.79576" lon="-3.52405">
        <ele>17.63</ele>
        <time>2020-07-08T12:10:04Z</time>
      </trkpt>
      <trkpt lat="47.79577" lon="-3.52407">
        <ele>17.33</ele>
        <time>2020-07-08T12:10:05Z</time>
      </trkpt>
      <trkpt lat="47.79578" lon="-3.52409">
        <ele>17.03</ele>
        <time>2020-07-08T12:10:06Z</time>
      </trkpt>
      <trkpt lat="47.79579" lon="-3.52412">
        <ele>16.72</ele>
        <time>2020-07-08T12:10:07Z</time>
      </trkpt>
      <trkpt lat="47.7958" lon="-3.52416">
        <ele>16.38</ele>
        <time>2020-07-08T12:10:08Z</time>
      </trkpt>
      <trkpt lat="47.7958" lon="-3.5242">
        <ele>16.12</ele>
        <time>2020-07-08T12:10:09Z</time>
      </trkpt>
      <trkpt lat="47.79581" lon="-3.52425">
        <ele>15.9</ele>
        <time>2020-07-08T12:10:10Z</time>
      </trkpt>
      <trkpt lat="47.79583" lon="-3.5243">
        <ele>15.65</ele>
        <time>2020-07-08T12:10:11Z</time>
      </trkpt>
      <trkpt lat="47.79585" lon="-3.52436">
        <ele>15.24</ele>
        <time>2020-07-08T12:10:12Z</time>
      </trkpt>
      <trkpt lat="47.79589" lon="-3.52442">
        <ele>14.61</ele>
        <time>2020-07-08T12:10:13Z</time>
      </trkpt>
      <trkpt lat="47.79591" lon="-3.52449">
        <ele>13.84</ele>
        <time>2020-07-08T12:10:14Z</time>
      </trkpt>
      <trkpt lat="47.79593" lon="-3.52455">
        <ele>13.11</ele>
        <time>2020-07-08T12:10:15Z</time>
      </trkpt>
      <trkpt lat="47.79594" lon="-3.52461">
        <ele>12.5</ele>
        <time>2020-07-08T12:10:16Z</time>
      </trkpt>
      <trkpt lat="47.79594" lon="-3.52466">
        <ele>12.03</ele>
        <time>2020-07-08T12:10:17Z</time>
      </trkpt>
      <trkpt lat="47.79594" lon="-3.52471">
        <ele>11.69</ele>
        <time>2020-07-08T12:10:18Z</time>
      </trkpt>
      <trkpt lat="47.79595" lon="-3.52474">
        <ele>11.3</ele>
        <time>2020-07-08T12:10:19Z</time>
      </trkpt>
      <trkpt lat="47.79595" lon="-3.52479">
        <ele>10.81</ele>
        <time>2020-07-08T12:10:20Z</time>
      </trkpt>
      <trkpt lat="47.79596" lon="-3.52484">
        <ele>10.21</ele>
        <time>2020-07-08T12:10:21Z</time>
      </trkpt>
      <trkpt lat="47.79595" lon="-3.52489">
        <ele>9.64</ele>
        <time>2020-07-08T12:10:22Z</time>
      </trkpt>
      <trkpt lat="47.79594" lon="-3.52494">
        <ele>9.3</ele>
        <time>2020-07-08T12:10:23Z</time>
      </trkpt>
      <trkpt lat="47.79591" lon="-3.52498">
        <ele>9.16</ele>
        <time>2020-07-08T12:10:24Z</time>
      </trkpt>
      <trkpt lat="47.79588" lon="-3.52501">
        <ele>9.14</ele>
        <time>2020-07-08T12:10:25Z</time>
      </trkpt>
      <trkpt lat="47.79586" lon="-3.52503">
        <ele>9.17</ele>
        <time>2020-07-08T12:10:26Z</time>
      </trkpt>
      <trkpt lat="47.79584" lon="-3.52505">
        <ele>9.15</ele>
        <time>2020-07-08T12:10:27Z</time>
      </trkpt>
      <trkpt lat="47.79581" lon="-3.52507">
        <ele>8.98</ele>
        <time>2020-07-08T12:10:28Z</time>
      </trkpt>
      <trkpt lat="47.79578" lon="-3.52508">
        <ele>8.84</ele>
        <time>2020-07-08T12:10:29Z</time>
      </trkpt>
      <trkpt lat="47.79576" lon="-3.5251">
        <ele>8.68</ele>
        <time>2020-07-08T12:10:30Z</time>
      </trkpt>
      <trkpt lat="47.79574" lon="-3.52512">
        <ele>8.46</ele>
        <time>2020-07-08T12:10:31Z</time>
      </trkpt>
      <trkpt lat="47.79572" lon="-3.52512">
        <ele>8.37</ele>
        <time>2020-07-08T12:10:32Z</time>
      </trkpt>
      <trkpt lat="47.7957" lon="-3.52514">
        <ele>8.28</ele>
        <time>2020-07-08T12:10:33Z</time>
      </trkpt>
      <trkpt lat="47.79568" lon="-3.52515">
        <ele>8.16</ele>
        <time>2020-07-08T12:10:34Z</time>
      </trkpt>
      <trkpt lat="47.79565" lon="-3.52517">
        <ele>8.05</ele>
        <time>2020-07-08T12:10:35Z</time>
      </trkpt>
      <trkpt lat="47.79563" lon="-3.52517">
        <ele>8.09</ele>
        <time>2020-07-08T12:10:36Z</time>
      </trkpt>
      <trkpt lat="47.79561" lon="-3.52516">
        <ele>8.28</ele>
        <time>2020-07-08T12:10:37Z</time>
      </trkpt>
      <trkpt lat="47.7956" lon="-3.52514">
        <ele>8.65</ele>
        <time>2020-07-08T12:10:38Z</time>
      </trkpt>
      <trkpt lat="47.79559" lon="-3.52511">
        <ele>9.03</ele>
        <time>2020-07-08T12:10:39Z</time>
      </trkpt>
      <trkpt lat="47.79558" lon="-3.5251">
        <ele>9.28</ele>
        <time>2020-07-08T12:10:40Z</time>
      </trkpt>
      <trkpt lat="47.79557" lon="-3.52508">
        <ele>9.6</ele>
        <time>2020-07-08T12:10:41Z</time>
      </trkpt>
      <trkpt lat="47.79555" lon="-3.52507">
        <ele>9.85</ele>
        <time>2020-07-08T12:10:42Z</time>
      </trkpt>
      <trkpt lat="47.79553" lon="-3.52506">
        <ele>10.07</ele>
        <time>2020-07-08T12:10:43Z</time>
      </trkpt>
      <trkpt lat="47.79552" lon="-3.52505">
        <ele>10.29</ele>
        <time>2020-07-08T12:10:44Z</time>
      </trkpt>
      <trkpt lat="47.79551" lon="-3.52505">
        <ele>10.43</ele>
        <time>2020-07-08T12:10:45Z</time>
      </trkpt>
      <trkpt lat="47.79549" lon="-3.52505">
        <ele>10.5</ele>
        <time>2020-07-08T12:10:46Z</time>
      </trkpt>
      <trkpt lat="47.79547" lon="-3.52504">
        <ele>10.66</ele>
        <time>2020-07-08T12:10:47Z</time>
      </trkpt>
      <trkpt lat="47.79547" lon="-3.52504">
        <ele>10.75</ele>
        <time>2020-07-08T12:10:48Z</time>
      </trkpt>
      <trkpt lat="47.79547" lon="-3.52504">
        <ele>10.78</ele>
        <time>2020-07-08T12:10:49Z</time>
      </trkpt>
      <trkpt lat="47.79547" lon="-3.52504">
        <ele>10.79</ele>
        <time>2020-07-08T12:10:50Z</time>
      </trkpt>
      <trkpt lat="47.79547" lon="-3.52504">
        <ele>10.79</ele>
        <time>2020-07-08T12:10:51Z</time>
      </trkpt>
      <trkpt lat="47.79547" lon="-3.52504">
        <ele>10.79</ele>
        <time>2020-07-08T12:10:52Z</time>
      </trkpt>
      <trkpt lat="47.79547" lon="-3.52504">
        <ele>10.79</ele>
        <time>2020-07-08T12:10:53Z</time>
      </trkpt>
      <trkpt lat="47.79547" lon="-3.52504">
        <ele>10.79</ele>
        <time>2020-07-08T12:10:54Z</time>
      </trkpt>
      <trkpt lat="47.79547" lon="-3.52504">
        <ele>10.79</ele>
        <time>2020-07-08T12:10:55Z</time>
      </trkpt>
      <trkpt lat="47.79547" lon="-3.52504">
        <ele>10.79</ele>
        <time>2020-07-08T12:10:56Z</time>
      </trkpt>
      <trkpt lat="47.79547" lon="-3.52504">
        <ele>10.79</ele>
        <time>2020-07-08T12:10:57Z</time>
      </trkpt>
      <trkpt lat="47.79547" lon="-3.52504">
        <ele>10.79</ele>
        <time>2020-07-08T12:10:58Z</time>
      </trkpt>
      <trkpt lat="47.79547" lon="-3.52504">
        <ele>10.79</ele>
        <time>2020-07-08T12:10:59Z</time>
      </trkpt>
      <trkpt lat="47.79547" lon="-3.52504">
        <ele>10.79</ele>
        <time>2020-07-08T12:11:00Z</time>
      </trkpt>
      <trkpt lat="47.79547" lon="-3.52504">
        <ele>10.79</ele>
        <time>2020-07-08T12:11:01Z</time>
      </trkpt>
      <trkpt lat="47.79547" lon="-3.52504">
        <ele>10.79</ele>
        <time>2020-07-08T12:11:02Z</time>
      </trkpt>
      <trkpt lat="47.79547" lon="-3.52504">
        <ele>10.79</ele>
        <time>2020-07-08T12:11:03Z</time>
      </trkpt>
      <trkpt lat="47.79547" lon="-3.52504">
        <ele>10.79</ele>
        <time>2020-07-08T12:11:04Z</time>
      </trkpt>
      <trkpt lat="47.79547" lon="-3.52504">
        <ele>10.79</ele>
        <time>2020-07-08T12:11:05Z</time>
      </trkpt>
      <trkpt lat="47.79547" lon="-3.52504">
        <ele>10.79</ele>
        <time>2020-07-08T12:11:06Z</time>
      </trkpt>
      <trkpt lat="47.79547" lon="-3.52504">
        <ele>10.79</ele>
        <time>2020-07-08T12:11:07Z</time>
      </trkpt>
      <trkpt lat="47.79547" lon="-3.52504">
        <ele>10.79</ele>
        <time>2020-07-08T12:11:08Z</time>
      </trkpt>
      <trkpt lat="47.79547" lon="-3.52504">
        <ele>10.79</ele>
        <time>2020-07-08T12:11:09Z</time>
      </trkpt>
      <trkpt lat="47.79547" lon="-3.52504">
        <ele>10.79</ele>
        <time>2020-07-08T12:11:10Z</time>
      </trkpt>
      <trkpt lat="47.79547" lon="-3.52504">
        <ele>10.79</ele>
        <time>2020-07-08T12:11:11Z</time>
      </trkpt>
      <trkpt lat="47.79547" lon="-3.52504">
        <ele>10.79</ele>
        <time>2020-07-08T12:11:12Z</time>
      </trkpt>
      <trkpt lat="47.79547" lon="-3.52504">
        <ele>10.79</ele>
        <time>2020-07-08T12:11:13Z</time>
      </trkpt>
      <trkpt lat="47.79547" lon="-3.52504">
        <ele>10.79</ele>
        <time>2020-07-08T12:11:14Z</time>
      </trkpt>
      <trkpt lat="47.79547" lon="-3.52504">
        <ele>10.79</ele>
        <time>2020-07-08T12:11:15Z</time>
      </trkpt>
      <trkpt lat="47.79547" lon="-3.52504">
        <ele>10.79</ele>
        <time>2020-07-08T12:11:16Z</time>
      </trkpt>
      <trkpt lat="47.79547" lon="-3.52504">
        <ele>10.79</ele>
        <time>2020-07-08T12:11:17Z</time>
      </trkpt>
      <trkpt lat="47.79547" lon="-3.52504">
        <ele>10.79</ele>
        <time>2020-07-08T12:11:18Z</time>
      </trkpt>
      <trkpt lat="47.79547" lon="-3.52504">
        <ele>10.79</ele>
        <time>2020-07-08T12:11:19Z</time>
      </trkpt>
      <trkpt lat="47.79547" lon="-3.52504">
        <ele>10.79</ele>
        <time>2020-07-08T12:11:20Z</time>
      </trkpt>
      <trkpt lat="47.79547" lon="-3.52504">
        <ele>10.79</ele>
        <time>2020-07-08T12:11:21Z</time>
      </trkpt>
      <trkpt lat="47.79547" lon="-3.52504">
        <ele>10.79</ele>
        <time>2020-07-08T12:11:22Z</time>
      </trkpt>
      <trkpt lat="47.79547" lon="-3.52504">
        <ele>10.79</ele>
        <time>2020-07-08T12:11:23Z</time>
      </trkpt>
      <trkpt lat="47.79547" lon="-3.52504">
        <ele>10.79</ele>
        <time>2020-07-08T12:11:24Z</time>
      </trkpt>
      <trkpt lat="47.79547" lon="-3.52504">
        <ele>10.79</ele>
        <time>2020-07-08T12:11:25Z</time>
      </trkpt>
      <trkpt lat="47.79547" lon="-3.52504">
        <ele>10.79</ele>
        <time>2020-07-08T12:11:26Z</time>
      </trkpt>
      <trkpt lat="47.79547" lon="-3.52504">
        <ele>10.79</ele>
        <time>2020-07-08T12:11:27Z</time>
      </trkpt>
      <trkpt lat="47.79547" lon="-3.52504">
        <ele>10.79</ele>
        <time>2020-07-08T12:11:28Z</time>
      </trkpt>
      <trkpt lat="47.79547" lon="-3.52504">
        <ele>10.79</ele>
        <time>2020-07-08T12:11:29Z</time>
      </trkpt>
      <trkpt lat="47.79547" lon="-3.52504">
        <ele>10.79</ele>
        <time>2020-07-08T12:11:30Z</time>
      </trkpt>
      <trkpt lat="47.79547" lon="-3.52504">
        <ele>10.79</ele>
        <time>2020-07-08T12:11:31Z</time>
      </trkpt>
      <trkpt lat="47.79547" lon="-3.52504">
        <ele>10.79</ele>
        <time>2020-07-08T12:11:32Z</time>
      </trkpt>
      <trkpt lat="47.79547" lon="-3.52504">
        <ele>10.79</ele>
        <time>2020-07-08T12:11:33Z</time>
      </trkpt>
      <trkpt lat="47.79547" lon="-3.52504">
        <ele>10.79</ele>
        <time>2020-07-08T12:11:34Z</time>
      </trkpt>
      <trkpt lat="47.79547" lon="-3.52504">
        <ele>10.79</ele>
        <time>2020-07-08T12:11:35Z</time>
      </trkpt>
      <trkpt lat="47.79547" lon="-3.52504">
        <ele>10.79</ele>
        <time>2020-07-08T12:11:36Z</time>
      </trkpt>
      <trkpt lat="47.79547" lon="-3.52504">
        <ele>10.79</ele>
        <time>2020-07-08T12:11:37Z</time>
      </trkpt>
      <trkpt lat="47.79547" lon="-3.52504">
        <ele>10.79</ele>
        <time>2020-07-08T12:11:38Z</time>
      </trkpt>
      <trkpt lat="47.79547" lon="-3.52504">
        <ele>10.79</ele>
        <time>2020-07-08T12:11:39Z</time>
      </trkpt>
      <trkpt lat="47.79547" lon="-3.52504">
        <ele>10.79</ele>
        <time>2020-07-08T12:11:40Z</time>
      </trkpt>
      <trkpt lat="47.79547" lon="-3.52504">
        <ele>10.79</ele>
        <time>2020-07-08T12:11:41Z</time>
      </trkpt>
      <trkpt lat="47.79547" lon="-3.52504">
        <ele>10.79</ele>
        <time>2020-07-08T12:11:42Z</time>
      </trkpt>
      <trkpt lat="47.79547" lon="-3.52504">
        <ele>10.79</ele>
        <time>2020-07-08T12:11:43Z</time>
      </trkpt>
      <trkpt lat="47.79547" lon="-3.52504">
        <ele>10.79</ele>
        <time>2020-07-08T12:11:44Z</time>
      </trkpt>
      <trkpt lat="47.79547" lon="-3.52504">
        <ele>10.79</ele>
        <time>2020-07-08T12:11:45Z</time>
      </trkpt>
      <trkpt lat="47.79547" lon="-3.52504">
        <ele>10.79</ele>
        <time>2020-07-08T12:11:46Z</time>
      </trkpt>
      <trkpt lat="47.79547" lon="-3.52504">
        <ele>10.79</ele>
        <time>2020-07-08T12:11:47Z</time>
      </trkpt>
      <trkpt lat="47.79547" lon="-3.52504">
        <ele>10.79</ele>
        <time>2020-07-08T12:11:48Z</time>
      </trkpt>
      <trkpt lat="47.79547" lon="-3.52504">
        <ele>10.79</ele>
        <time>2020-07-08T12:11:49Z</time>
      </trkpt>
      <trkpt lat="47.79547" lon="-3.52504">
        <ele>10.79</ele>
        <time>2020-07-08T12:11:50Z</time>
      </trkpt>
      <trkpt lat="47.79547" lon="-3.52504">
        <ele>10.79</ele>
        <time>2020-07-08T12:11:51Z</time>
      </trkpt>
      <trkpt lat="47.79547" lon="-3.52504">
        <ele>10.79</ele>
        <time>2020-07-08T12:11:52Z</time>
      </trkpt>
      <trkpt lat="47.79547" lon="-3.52504">
        <ele>10.79</ele>
        <time>2020-07-08T12:11:53Z</time>
      </trkpt>
      <trkpt lat="47.79547" lon="-3.52504">
        <ele>10.79</ele>
        <time>2020-07-08T12:11:54Z</time>
      </trkpt>
      <trkpt lat="47.79547" lon="-3.52504">
        <ele>10.79</ele>
        <time>2020-07-08T12:11:55Z</time>
      </trkpt>
      <trkpt lat="47.79547" lon="-3.52504">
        <ele>10.79</ele>
        <time>2020-07-08T12:11:56Z</time>
      </trkpt>
      <trkpt lat="47.79547" lon="-3.52504">
        <ele>10.79</ele>
        <time>2020-07-08T12:11:57Z</time>
      </trkpt>
      <trkpt lat="47.79547" lon="-3.52504">
        <ele>10.79</ele>
        <time>2020-07-08T12:11:58Z</time>
      </trkpt>
      <trkpt lat="47.79547" lon="-3.52504">
        <ele>10.79</ele>
        <time>2020-07-08T12:11:59Z</time>
      </trkpt>
      <trkpt lat="47.79547" lon="-3.52504">
        <ele>10.79</ele>
        <time>2020-07-08T12:12:00Z</time>
      </trkpt>
      <trkpt lat="47.79547" lon="-3.52504">
        <ele>10.79</ele>
        <time>2020-07-08T12:12:01Z</time>
      </trkpt>
      <trkpt lat="47.79547" lon="-3.52504">
        <ele>10.79</ele>
        <time>2020-07-08T12:12:02Z</time>
      </trkpt>
      <trkpt lat="47.79547" lon="-3.52504">
        <ele>10.79</ele>
        <time>2020-07-08T12:12:03Z</time>
      </trkpt>
      <trkpt lat="47.79547" lon="-3.52504">
        <ele>10.79</ele>
        <time>2020-07-08T12:12:04Z</time>
      </trkpt>
      <trkpt lat="47.79547" lon="-3.52504">
        <ele>10.79</ele>
        <time>2020-07-08T12:12:05Z</time>
      </trkpt>
      <trkpt lat="47.79547" lon="-3.52504">
        <ele>10.79</ele>
        <time>2020-07-08T12:12:06Z</time>
      </trkpt>
      <trkpt lat="47.79547" lon="-3.52504">
        <ele>10.79</ele>
        <time>2020-07-08T12:12:07Z</time>
      </trkpt>
      <trkpt lat="47.79547" lon="-3.52504">
        <ele>10.79</ele>
        <time>2020-07-08T12:12:08Z</time>
      </trkpt>
      <trkpt lat="47.79547" lon="-3.52504">
        <ele>10.79</ele>
        <time>2020-07-08T12:12:09Z</time>
      </trkpt>
      <trkpt lat="47.79547" lon="-3.52504">
        <ele>10.79</ele>
        <time>2020-07-08T12:12:10Z</time>
      </trkpt>
      <trkpt lat="47.79547" lon="-3.52504">
        <ele>10.79</ele>
        <time>2020-07-08T12:12:11Z</time>
      </trkpt>
      <trkpt lat="47.79547" lon="-3.52504">
        <ele>10.79</ele>
        <time>2020-07-08T12:12:12Z</time>
      </trkpt>
      <trkpt lat="47.79547" lon="-3.52504">
        <ele>10.79</ele>
        <time>2020-07-08T12:12:13Z</time>
      </trkpt>
      <trkpt lat="47.79547" lon="-3.52504">
        <ele>10.79</ele>
        <time>2020-07-08T12:12:14Z</time>
      </trkpt>
      <trkpt lat="47.79547" lon="-3.52504">
        <ele>10.79</ele>
        <time>2020-07-08T12:12:15Z</time>
      </trkpt>
      <trkpt lat="47.79547" lon="-3.52504">
        <ele>10.79</ele>
        <time>2020-07-08T12:12:16Z</time>
      </trkpt>
      <trkpt lat="47.79547" lon="-3.52504">
        <ele>10.79</ele>
        <time>2020-07-08T12:12:17Z</time>
      </trkpt>
      <trkpt lat="47.79547" lon="-3.52504">
        <ele>10.79</ele>
        <time>2020-07-08T12:12:18Z</time>
      </trkpt>
      <trkpt lat="47.79547" lon="-3.52504">
        <ele>10.79</ele>
        <time>2020-07-08T12:12:19Z</time>
      </trkpt>
      <trkpt lat="47.79547" lon="-3.52504">
        <ele>10.79</ele>
        <time>2020-07-08T12:12:20Z</time>
      </trkpt>
      <trkpt lat="47.79547" lon="-3.52504">
        <ele>10.79</ele>
        <time>2020-07-08T12:12:21Z</time>
      </trkpt>
      <trkpt lat="47.79547" lon="-3.52504">
        <ele>10.79</ele>
        <time>2020-07-08T12:12:22Z</time>
      </trkpt>
      <trkpt lat="47.79547" lon="-3.52504">
        <ele>10.79</ele>
        <time>2020-07-08T12:12:23Z</time>
      </trkpt>
      <trkpt lat="47.79547" lon="-3.52504">
        <ele>10.79</ele>
        <time>2020-07-08T12:12:24Z</time>
      </trkpt>
      <trkpt lat="47.79547" lon="-3.52504">
        <ele>10.79</ele>
        <time>2020-07-08T12:12:25Z</time>
      </trkpt>
      <trkpt lat="47.79547" lon="-3.52504">
        <ele>10.79</ele>
        <time>2020-07-08T12:12:26Z</time>
      </trkpt>
      <trkpt lat="47.79547" lon="-3.52504">
        <ele>10.79</ele>
        <time>2020-07-08T12:12:27Z</time>
      </trkpt>
      <trkpt lat="47.79547" lon="-3.52504">
        <ele>10.79</ele>
        <time>2020-07-08T12:12:28Z</time>
      </trkpt>
      <trkpt lat="47.79547" lon="-3.52504">
        <ele>10.79</ele>
        <time>2020-07-08T12:12:29Z</time>
      </trkpt>
      <trkpt lat="47.79547" lon="-3.52504">
        <ele>10.79</ele>
        <time>2020-07-08T12:12:30Z</time>
      </trkpt>
      <trkpt lat="47.79547" lon="-3.52504">
        <ele>10.79</ele>
        <time>2020-07-08T12:12:31Z</time>
      </trkpt>
      <trkpt lat="47.79547" lon="-3.52504">
        <ele>10.79</ele>
        <time>2020-07-08T12:12:32Z</time>
      </trkpt>
      <trkpt lat="47.79547" lon="-3.52504">
        <ele>10.79</ele>
        <time>2020-07-08T12:12:33Z</time>
      </trkpt>
      <trkpt lat="47.79547" lon="-3.52504">
        <ele>10.79</ele>
        <time>2020-07-08T12:12:34Z</time>
      </trkpt>
      <trkpt lat="47.79547" lon="-3.52504">
        <ele>10.79</ele>
        <time>2020-07-08T12:12:35Z</time>
      </trkpt>
      <trkpt lat="47.79547" lon="-3.52504">
        <ele>10.79</ele>
        <time>2020-07-08T12:12:36Z</time>
      </trkpt>
      <trkpt lat="47.79547" lon="-3.52504">
        <ele>10.79</ele>
        <time>2020-07-08T12:12:37Z</time>
      </trkpt>
      <trkpt lat="47.79547" lon="-3.52504">
        <ele>10.79</ele>
        <time>2020-07-08T12:12:38Z</time>
      </trkpt>
      <trkpt lat="47.79547" lon="-3.52504">
        <ele>10.79</ele>
        <time>2020-07-08T12:12:39Z</time>
      </trkpt>
      <trkpt lat="47.79547" lon="-3.52504">
        <ele>10.79</ele>
        <time>2020-07-08T12:12:40Z</time>
      </trkpt>
      <trkpt lat="47.79547" lon="-3.52504">
        <ele>10.79</ele>
        <time>2020-07-08T12:12:41Z</time>
      </trkpt>
      <trkpt lat="47.79547" lon="-3.52504">
        <ele>10.79</ele>
        <time>2020-07-08T12:12:42Z</time>
      </trkpt>
      <trkpt lat="47.79547" lon="-3.52504">
        <ele>10.79</ele>
        <time>2020-07-08T12:12:43Z</time>
      </trkpt>
      <trkpt lat="47.79547" lon="-3.52504">
        <ele>10.79</ele>
        <time>2020-07-08T12:12:44Z</time>
      </trkpt>
      <trkpt lat="47.79547" lon="-3.52504">
        <ele>10.79</ele>
        <time>2020-07-08T12:12:45Z</time>
      </trkpt>
      <trkpt lat="47.79547" lon="-3.52504">
        <ele>10.79</ele>
        <time>2020-07-08T12:12:46Z</time>
      </trkpt>
      <trkpt lat="47.79547" lon="-3.52504">
        <ele>10.79</ele>
        <time>2020-07-08T12:12:47Z</time>
      </trkpt>
      <trkpt lat="47.79547" lon="-3.52504">
        <ele>10.79</ele>
        <time>2020-07-08T12:12:48Z</time>
      </trkpt>
      <trkpt lat="47.79547" lon="-3.52504">
        <ele>10.79</ele>
        <time>2020-07-08T12:12:49Z</time>
      </trkpt>
      <trkpt lat="47.79547" lon="-3.52504">
        <ele>10.79</ele>
        <time>2020-07-08T12:12:50Z</time>
      </trkpt>
      <trkpt lat="47.79547" lon="-3.52504">
        <ele>10.79</ele>
        <time>2020-07-08T12:12:51Z</time>
      </trkpt>
      <trkpt lat="47.79547" lon="-3.52504">
        <ele>10.79</ele>
        <time>2020-07-08T12:12:52Z</time>
      </trkpt>
      <trkpt lat="47.79547" lon="-3.52504">
        <ele>10.79</ele>
        <time>2020-07-08T12:12:53Z</time>
      </trkpt>
      <trkpt lat="47.79547" lon="-3.52504">
        <ele>10.79</ele>
        <time>2020-07-08T12:12:54Z</time>
      </trkpt>
      <trkpt lat="47.79547" lon="-3.52504">
        <ele>10.79</ele>
        <time>2020-07-08T12:12:55Z</time>
      </trkpt>
      <trkpt lat="47.79547" lon="-3.52504">
        <ele>10.79</ele>
        <time>2020-07-08T12:12:56Z</time>
      </trkpt>
      <trkpt lat="47.79547" lon="-3.52504">
        <ele>10.79</ele>
        <time>2020-07-08T12:12:57Z</time>
      </trkpt>
      <trkpt lat="47.79547" lon="-3.52504">
        <ele>10.79</ele>
        <time>2020-07-08T12:12:58Z</time>
      </trkpt>
      <trkpt lat="47.79547" lon="-3.52504">
        <ele>10.79</ele>
        <time>2020-07-08T12:12:59Z</time>
      </trkpt>
      <trkpt lat="47.79547" lon="-3.52504">
        <ele>10.79</ele>
        <time>2020-07-08T12:13:00Z</time>
      </trkpt>
      <trkpt lat="47.79547" lon="-3.52504">
        <ele>10.79</ele>
        <time>2020-07-08T12:13:01Z</time>
      </trkpt>
      <trkpt lat="47.79547" lon="-3.52504">
        <ele>10.79</ele>
        <time>2020-07-08T12:13:02Z</time>
      </trkpt>
      <trkpt lat="47.79547" lon="-3.52504">
        <ele>10.79</ele>
        <time>2020-07-08T12:13:03Z</time>
      </trkpt>
      <trkpt lat="47.79547" lon="-3.52504">
        <ele>10.79</ele>
        <time>2020-07-08T12:13:04Z</time>
      </trkpt>
      <trkpt lat="47.79547" lon="-3.52504">
        <ele>10.79</ele>
        <time>2020-07-08T12:13:05Z</time>
      </trkpt>
      <trkpt lat="47.79547" lon="-3.52504">
        <ele>10.79</ele>
        <time>2020-07-08T12:13:06Z</time>
      </trkpt>
      <trkpt lat="47.79547" lon="-3.52504">
        <ele>10.79</ele>
        <time>2020-07-08T12:13:07Z</time>
      </trkpt>
      <trkpt lat="47.79547" lon="-3.52504">
        <ele>10.79</ele>
        <time>2020-07-08T12:13:08Z</time>
      </trkpt>
      <trkpt lat="47.79547" lon="-3.52504">
        <ele>10.79</ele>
        <time>2020-07-08T12:13:09Z</time>
      </trkpt>
      <trkpt lat="47.79547" lon="-3.52504">
        <ele>10.79</ele>
        <time>2020-07-08T12:13:10Z</time>
      </trkpt>
      <trkpt lat="47.79547" lon="-3.52504">
        <ele>10.79</ele>
        <time>2020-07-08T12:13:11Z</time>
      </trkpt>
      <trkpt lat="47.79547" lon="-3.52504">
        <ele>10.79</ele>
        <time>2020-07-08T12:13:12Z</time>
      </trkpt>
      <trkpt lat="47.79547" lon="-3.52504">
        <ele>10.79</ele>
        <time>2020-07-08T12:13:13Z</time>
      </trkpt>
      <trkpt lat="47.79547" lon="-3.52504">
        <ele>10.79</ele>
        <time>2020-07-08T12:13:14Z</time>
      </trkpt>
      <trkpt lat="47.79537" lon="-3.52502">
        <ele>11.23</ele>
        <time>2020-07-08T12:13:15Z</time>
      </trkpt>
      <trkpt lat="47.79536" lon="-3.52501">
        <ele>11.4</ele>
        <time>2020-07-08T12:13:16Z</time>
      </trkpt>
      <trkpt lat="47.79535" lon="-3.52501">
        <ele>11.52</ele>
        <time>2020-07-08T12:13:17Z</time>
      </trkpt>
      <trkpt lat="47.79534" lon="-3.52501">
        <ele>11.65</ele>
        <time>2020-07-08T12:13:18Z</time>
      </trkpt>
      <trkpt lat="47.79533" lon="-3.52501">
        <ele>11.72</ele>
        <time>2020-07-08T12:13:19Z</time>
      </trkpt>
      <trkpt lat="47.7953" lon="-3.525">
        <ele>11.83</ele>
        <time>2020-07-08T12:13:20Z</time>
      </trkpt>
      <trkpt lat="47.79528" lon="-3.525">
        <ele>11.93</ele>
        <time>2020-07-08T12:13:21Z</time>
      </trkpt>
      <trkpt lat="47.79526" lon="-3.525">
        <ele>12.07</ele>
        <time>2020-07-08T12:13:22Z</time>
      </trkpt>
      <trkpt lat="47.79524" lon="-3.52499">
        <ele>12.26</ele>
        <time>2020-07-08T12:13:23Z</time>
      </trkpt>
      <trkpt lat="47.79522" lon="-3.52499">
        <ele>12.46</ele>
        <time>2020-07-08T12:13:24Z</time>
      </trkpt>
      <trkpt lat="47.79521" lon="-3.525">
        <ele>12.45</ele>
        <time>2020-07-08T12:13:25Z</time>
      </trkpt>
      <trkpt lat="47.79518" lon="-3.52502">
        <ele>12.37</ele>
        <time>2020-07-08T12:13:26Z</time>
      </trkpt>
      <trkpt lat="47.79517" lon="-3.52504">
        <ele>12.21</ele>
        <time>2020-07-08T12:13:27Z</time>
      </trkpt>
      <trkpt lat="47.79515" lon="-3.52506">
        <ele>12</ele>
        <time>2020-07-08T12:13:28Z</time>
      </trkpt>
      <trkpt lat="47.79514" lon="-3.5251">
        <ele>11.61</ele>
        <time>2020-07-08T12:13:29Z</time>
      </trkpt>
      <trkpt lat="47.79512" lon="-3.52513">
        <ele>11.23</ele>
        <time>2020-07-08T12:13:30Z</time>
      </trkpt>
      <trkpt lat="47.79511" lon="-3.52516">
        <ele>10.74</ele>
        <time>2020-07-08T12:13:31Z</time>
      </trkpt>
      <trkpt lat="47.79509" lon="-3.5252">
        <ele>10.27</ele>
        <time>2020-07-08T12:13:32Z</time>
      </trkpt>
      <trkpt lat="47.79508" lon="-3.52524">
        <ele>9.62</ele>
        <time>2020-07-08T12:13:33Z</time>
      </trkpt>
      <trkpt lat="47.79504" lon="-3.52528">
        <ele>9.07</ele>
        <time>2020-07-08T12:13:34Z</time>
      </trkpt>
      <trkpt lat="47.795" lon="-3.52531">
        <ele>8.54</ele>
        <time>2020-07-08T12:13:35Z</time>
      </trkpt>
      <trkpt lat="47.79496" lon="-3.52534">
        <ele>8.2</ele>
        <time>2020-07-08T12:13:36Z</time>
      </trkpt>
      <trkpt lat="47.79491" lon="-3.52534">
        <ele>8.08</ele>
        <time>2020-07-08T12:13:37Z</time>
      </trkpt>
      <trkpt lat="47.79487" lon="-3.52535">
        <ele>7.99</ele>
        <time>2020-07-08T12:13:38Z</time>
      </trkpt>
      <trkpt lat="47.79484" lon="-3.52534">
        <ele>8.2</ele>
        <time>2020-07-08T12:13:39Z</time>
      </trkpt>
      <trkpt lat="47.79483" lon="-3.52533">
        <ele>8.51</ele>
        <time>2020-07-08T12:13:40Z</time>
      </trkpt>
      <trkpt lat="47.79481" lon="-3.52531">
        <ele>8.79</ele>
        <time>2020-07-08T12:13:41Z</time>
      </trkpt>
      <trkpt lat="47.7948" lon="-3.52531">
        <ele>8.97</ele>
        <time>2020-07-08T12:13:42Z</time>
      </trkpt>
      <trkpt lat="47.79479" lon="-3.52531">
        <ele>9.09</ele>
        <time>2020-07-08T12:13:43Z</time>
      </trkpt>
      <trkpt lat="47.79478" lon="-3.52531">
        <ele>9.07</ele>
        <time>2020-07-08T12:13:44Z</time>
      </trkpt>
      <trkpt lat="47.79476" lon="-3.52531">
        <ele>9.12</ele>
        <time>2020-07-08T12:13:45Z</time>
      </trkpt>
      <trkpt lat="47.79475" lon="-3.52532">
        <ele>9.1</ele>
        <time>2020-07-08T12:13:46Z</time>
      </trkpt>
      <trkpt lat="47.79473" lon="-3.52532">
        <ele>9.08</ele>
        <time>2020-07-08T12:13:47Z</time>
      </trkpt>
      <trkpt lat="47.79471" lon="-3.52533">
        <ele>9.07</ele>
        <time>2020-07-08T12:13:48Z</time>
      </trkpt>
      <trkpt lat="47.79468" lon="-3.52533">
        <ele>9.09</ele>
        <time>2020-07-08T12:13:49Z</time>
      </trkpt>
      <trkpt lat="47.79466" lon="-3.52534">
        <ele>9.17</ele>
        <time>2020-07-08T12:13:50Z</time>
      </trkpt>
      <trkpt lat="47.79463" lon="-3.52534">
        <ele>9.26</ele>
        <time>2020-07-08T12:13:51Z</time>
      </trkpt>
      <trkpt lat="47.7946" lon="-3.52534">
        <ele>9.36</ele>
        <time>2020-07-08T12:13:52Z</time>
      </trkpt>
      <trkpt lat="47.79458" lon="-3.52534">
        <ele>9.44</ele>
        <time>2020-07-08T12:13:53Z</time>
      </trkpt>
      <trkpt lat="47.79456" lon="-3.52534">
        <ele>9.63</ele>
        <time>2020-07-08T12:13:54Z</time>
      </trkpt>
      <trkpt lat="47.79453" lon="-3.52534">
        <ele>9.85</ele>
        <time>2020-07-08T12:13:55Z</time>
      </trkpt>
      <trkpt lat="47.7945" lon="-3.52534">
        <ele>10.03</ele>
        <time>2020-07-08T12:13:56Z</time>
      </trkpt>
      <trkpt lat="47.79445" lon="-3.52534">
        <ele>10.2</ele>
        <time>2020-07-08T12:13:57Z</time>
      </trkpt>
      <trkpt lat="47.79441" lon="-3.52535">
        <ele>9.98</ele>
        <time>2020-07-08T12:13:58Z</time>
      </trkpt>
      <trkpt lat="47.79437" lon="-3.52535">
        <ele>9.69</ele>
        <time>2020-07-08T12:13:59Z</time>
      </trkpt>
      <trkpt lat="47.79434" lon="-3.52535">
        <ele>9.52</ele>
        <time>2020-07-08T12:14:00Z</time>
      </trkpt>
      <trkpt lat="47.79432" lon="-3.52534">
        <ele>9.55</ele>
        <time>2020-07-08T12:14:01Z</time>
      </trkpt>
      <trkpt lat="47.79429" lon="-3.52532">
        <ele>9.64</ele>
        <time>2020-07-08T12:14:02Z</time>
      </trkpt>
      <trkpt lat="47.79427" lon="-3.52531">
        <ele>9.91</ele>
        <time>2020-07-08T12:14:03Z</time>
      </trkpt>
      <trkpt lat="47.79425" lon="-3.52528">
        <ele>10.32</ele>
        <time>2020-07-08T12:14:04Z</time>
      </trkpt>
      <trkpt lat="47.79422" lon="-3.52527">
        <ele>10.57</ele>
        <time>2020-07-08T12:14:05Z</time>
      </trkpt>
      <trkpt lat="47.7942" lon="-3.52525">
        <ele>10.69</ele>
        <time>2020-07-08T12:14:06Z</time>
      </trkpt>
      <trkpt lat="47.79417" lon="-3.52524">
        <ele>10.87</ele>
        <time>2020-07-08T12:14:07Z</time>
      </trkpt>
      <trkpt lat="47.79415" lon="-3.52522">
        <ele>11.06</ele>
        <time>2020-07-08T12:14:08Z</time>
      </trkpt>
      <trkpt lat="47.79413" lon="-3.5252">
        <ele>11.32</ele>
        <time>2020-07-08T12:14:09Z</time>
      </trkpt>
      <trkpt lat="47.79411" lon="-3.52518">
        <ele>11.56</ele>
        <time>2020-07-08T12:14:10Z</time>
      </trkpt>
      <trkpt lat="47.79409" lon="-3.52516">
        <ele>11.79</ele>
        <time>2020-07-08T12:14:11Z</time>
      </trkpt>
      <trkpt lat="47.79408" lon="-3.52515">
        <ele>12.02</ele>
        <time>2020-07-08T12:14:12Z</time>
      </trkpt>
      <trkpt lat="47.79406" lon="-3.52514">
        <ele>12.24</ele>
        <time>2020-07-08T12:14:13Z</time>
      </trkpt>
      <trkpt lat="47.79404" lon="-3.52512">
        <ele>12.54</ele>
        <time>2020-07-08T12:14:14Z</time>
      </trkpt>
      <trkpt lat="47.79403" lon="-3.5251">
        <ele>12.81</ele>
        <time>2020-07-08T12:14:15Z</time>
      </trkpt>
      <trkpt lat="47.794" lon="-3.52509">
        <ele>12.94</ele>
        <time>2020-07-08T12:14:16Z</time>
      </trkpt>
      <trkpt lat="47.79398" lon="-3.52508">
        <ele>13.08</ele>
        <time>2020-07-08T12:14:17Z</time>
      </trkpt>
      <trkpt lat="47.79397" lon="-3.52508">
        <ele>13.21</ele>
        <time>2020-07-08T12:14:18Z</time>
      </trkpt>
      <trkpt lat="47.79395" lon="-3.52507">
        <ele>13.27</ele>
        <time>2020-07-08T12:14:19Z</time>
      </trkpt>
      <trkpt lat="47.79393" lon="-3.52506">
        <ele>13.48</ele>
        <time>2020-07-08T12:14:20Z</time>
      </trkpt>
      <trkpt lat="47.79391" lon="-3.52504">
        <ele>13.84</ele>
        <time>2020-07-08T12:14:21Z</time>
      </trkpt>
      <trkpt lat="47.79389" lon="-3.52503">
        <ele>14.12</ele>
        <time>2020-07-08T12:14:22Z</time>
      </trkpt>
      <trkpt lat="47.79387" lon="-3.52501">
        <ele>14.37</ele>
        <time>2020-07-08T12:14:23Z</time>
      </trkpt>
      <trkpt lat="47.79386" lon="-3.52501">
        <ele>14.52</ele>
        <time>2020-07-08T12:14:24Z</time>
      </trkpt>
      <trkpt lat="47.79385" lon="-3.52501">
        <ele>14.62</ele>
        <time>2020-07-08T12:14:25Z</time>
      </trkpt>
      <trkpt lat="47.79385" lon="-3.52501">
        <ele>14.57</ele>
        <time>2020-07-08T12:14:26Z</time>
      </trkpt>
      <trkpt lat="47.79385" lon="-3.52501">
        <ele>14.56</ele>
        <time>2020-07-08T12:14:27Z</time>
      </trkpt>
      <trkpt lat="47.79385" lon="-3.52501">
        <ele>14.55</ele>
        <time>2020-07-08T12:14:28Z</time>
      </trkpt>
      <trkpt lat="47.79385" lon="-3.52501">
        <ele>14.55</ele>
        <time>2020-07-08T12:14:29Z</time>
      </trkpt>
      <trkpt lat="47.79385" lon="-3.52501">
        <ele>14.55</ele>
        <time>2020-07-08T12:14:30Z</time>
      </trkpt>
      <trkpt lat="47.79385" lon="-3.52501">
        <ele>14.55</ele>
        <time>2020-07-08T12:14:31Z</time>
      </trkpt>
      <trkpt lat="47.79385" lon="-3.52501">
        <ele>14.55</ele>
        <time>2020-07-08T12:14:32Z</time>
      </trkpt>
      <trkpt lat="47.79385" lon="-3.52501">
        <ele>14.55</ele>
        <time>2020-07-08T12:14:33Z</time>
      </trkpt>
      <trkpt lat="47.79385" lon="-3.52501">
        <ele>14.55</ele>
        <time>2020-07-08T12:14:34Z</time>
      </trkpt>
      <trkpt lat="47.79385" lon="-3.52501">
        <ele>14.55</ele>
        <time>2020-07-08T12:14:35Z</time>
      </trkpt>
      <trkpt lat="47.79385" lon="-3.52501">
        <ele>14.55</ele>
        <time>2020-07-08T12:14:36Z</time>
      </trkpt>
      <trkpt lat="47.79385" lon="-3.52501">
        <ele>14.55</ele>
        <time>2020-07-08T12:14:37Z</time>
      </trkpt>
      <trkpt lat="47.79385" lon="-3.52501">
        <ele>14.55</ele>
        <time>2020-07-08T12:14:38Z</time>
      </trkpt>
      <trkpt lat="47.79385" lon="-3.52501">
        <ele>14.55</ele>
        <time>2020-07-08T12:14:39Z</time>
      </trkpt>
      <trkpt lat="47.79385" lon="-3.52501">
        <ele>14.55</ele>
        <time>2020-07-08T12:14:40Z</time>
      </trkpt>
      <trkpt lat="47.79385" lon="-3.52501">
        <ele>14.55</ele>
        <time>2020-07-08T12:14:41Z</time>
      </trkpt>
      <trkpt lat="47.79385" lon="-3.52501">
        <ele>14.55</ele>
        <time>2020-07-08T12:14:42Z</time>
      </trkpt>
      <trkpt lat="47.79385" lon="-3.52501">
        <ele>14.55</ele>
        <time>2020-07-08T12:14:43Z</time>
      </trkpt>
      <trkpt lat="47.79385" lon="-3.52501">
        <ele>14.55</ele>
        <time>2020-07-08T12:14:44Z</time>
      </trkpt>
      <trkpt lat="47.79385" lon="-3.52501">
        <ele>14.55</ele>
        <time>2020-07-08T12:14:45Z</time>
      </trkpt>
      <trkpt lat="47.79385" lon="-3.52501">
        <ele>14.55</ele>
        <time>2020-07-08T12:14:46Z</time>
      </trkpt>
      <trkpt lat="47.79385" lon="-3.52501">
        <ele>14.55</ele>
        <time>2020-07-08T12:14:47Z</time>
      </trkpt>
      <trkpt lat="47.79379" lon="-3.52491">
        <ele>16.77</ele>
        <time>2020-07-08T12:14:48Z</time>
      </trkpt>
      <trkpt lat="47.79379" lon="-3.52491">
        <ele>17.48</ele>
        <time>2020-07-08T12:14:49Z</time>
      </trkpt>
      <trkpt lat="47.79379" lon="-3.5249">
        <ele>17.77</ele>
        <time>2020-07-08T12:14:50Z</time>
      </trkpt>
      <trkpt lat="47.79379" lon="-3.5249">
        <ele>17.98</ele>
        <time>2020-07-08T12:14:51Z</time>
      </trkpt>
      <trkpt lat="47.79379" lon="-3.5249">
        <ele>18.04</ele>
        <time>2020-07-08T12:14:52Z</time>
      </trkpt>
      <trkpt lat="47.79379" lon="-3.5249">
        <ele>18.06</ele>
        <time>2020-07-08T12:14:53Z</time>
      </trkpt>
      <trkpt lat="47.79379" lon="-3.5249">
        <ele>18.06</ele>
        <time>2020-07-08T12:14:54Z</time>
      </trkpt>
      <trkpt lat="47.79379" lon="-3.5249">
        <ele>18.06</ele>
        <time>2020-07-08T12:14:55Z</time>
      </trkpt>
      <trkpt lat="47.79379" lon="-3.5249">
        <ele>18.06</ele>
        <time>2020-07-08T12:14:56Z</time>
      </trkpt>
      <trkpt lat="47.79379" lon="-3.5249">
        <ele>18.06</ele>
        <time>2020-07-08T12:14:57Z</time>
      </trkpt>
      <trkpt lat="47.79379" lon="-3.5249">
        <ele>18.06</ele>
        <time>2020-07-08T12:14:58Z</time>
      </trkpt>
      <trkpt lat="47.79379" lon="-3.5249">
        <ele>18.06</ele>
        <time>2020-07-08T12:14:59Z</time>
      </trkpt>
      <trkpt lat="47.79379" lon="-3.5249">
        <ele>18.06</ele>
        <time>2020-07-08T12:15:00Z</time>
      </trkpt>
      <trkpt lat="47.79379" lon="-3.5249">
        <ele>18.06</ele>
        <time>2020-07-08T12:15:01Z</time>
      </trkpt>
      <trkpt lat="47.79379" lon="-3.5249">
        <ele>18.06</ele>
        <time>2020-07-08T12:15:02Z</time>
      </trkpt>
      <trkpt lat="47.79379" lon="-3.5249">
        <ele>18.06</ele>
        <time>2020-07-08T12:15:03Z</time>
      </trkpt>
      <trkpt lat="47.79379" lon="-3.5249">
        <ele>18.06</ele>
        <time>2020-07-08T12:15:04Z</time>
      </trkpt>
      <trkpt lat="47.79379" lon="-3.5249">
        <ele>18.06</ele>
        <time>2020-07-08T12:15:05Z</time>
      </trkpt>
      <trkpt lat="47.79371" lon="-3.52483">
        <ele>19.6</ele>
        <time>2020-07-08T12:15:06Z</time>
      </trkpt>
      <trkpt lat="47.79371" lon="-3.52482">
        <ele>20.22</ele>
        <time>2020-07-08T12:15:07Z</time>
      </trkpt>
      <trkpt lat="47.7937" lon="-3.52482">
        <ele>20.61</ele>
        <time>2020-07-08T12:15:08Z</time>
      </trkpt>
      <trkpt lat="47.7937" lon="-3.52481">
        <ele>20.96</ele>
        <time>2020-07-08T12:15:09Z</time>
      </trkpt>
      <trkpt lat="47.7937" lon="-3.52481">
        <ele>21.07</ele>
        <time>2020-07-08T12:15:10Z</time>
      </trkpt>
      <trkpt lat="47.7937" lon="-3.52481">
        <ele>21.1</ele>
        <time>2020-07-08T12:15:11Z</time>
      </trkpt>
      <trkpt lat="47.7937" lon="-3.52481">
        <ele>21.11</ele>
        <time>2020-07-08T12:15:12Z</time>
      </trkpt>
      <trkpt lat="47.7937" lon="-3.52481">
        <ele>21.11</ele>
        <time>2020-07-08T12:15:13Z</time>
      </trkpt>
      <trkpt lat="47.7937" lon="-3.52481">
        <ele>21.11</ele>
        <time>2020-07-08T12:15:14Z</time>
      </trkpt>
      <trkpt lat="47.7937" lon="-3.52481">
        <ele>21.12</ele>
        <time>2020-07-08T12:15:15Z</time>
      </trkpt>
      <trkpt lat="47.7937" lon="-3.52481">
        <ele>21.12</ele>
        <time>2020-07-08T12:15:16Z</time>
      </trkpt>
      <trkpt lat="47.7937" lon="-3.52481">
        <ele>21.12</ele>
        <time>2020-07-08T12:15:17Z</time>
      </trkpt>
      <trkpt lat="47.7937" lon="-3.52481">
        <ele>21.12</ele>
        <time>2020-07-08T12:15:18Z</time>
      </trkpt>
      <trkpt lat="47.7937" lon="-3.52481">
        <ele>21.12</ele>
        <time>2020-07-08T12:15:19Z</time>
      </trkpt>
      <trkpt lat="47.7937" lon="-3.52481">
        <ele>21.12</ele>
        <time>2020-07-08T12:15:20Z</time>
      </trkpt>
      <trkpt lat="47.7937" lon="-3.52481">
        <ele>21.12</ele>
        <time>2020-07-08T12:15:21Z</time>
      </trkpt>
      <trkpt lat="47.79361" lon="-3.52477">
        <ele>21.97</ele>
        <time>2020-07-08T12:15:22Z</time>
      </trkpt>
      <trkpt lat="47.79361" lon="-3.52475">
        <ele>22.77</ele>
        <time>2020-07-08T12:15:23Z</time>
      </trkpt>
      <trkpt lat="47.79361" lon="-3.52473">
        <ele>23.52</ele>
        <time>2020-07-08T12:15:24Z</time>
      </trkpt>
      <trkpt lat="47.79361" lon="-3.52472">
        <ele>23.89</ele>
        <time>2020-07-08T12:15:25Z</time>
      </trkpt>
      <trkpt lat="47.79361" lon="-3.52472">
        <ele>24</ele>
        <time>2020-07-08T12:15:26Z</time>
      </trkpt>
      <trkpt lat="47.79361" lon="-3.52472">
        <ele>24.03</ele>
        <time>2020-07-08T12:15:27Z</time>
      </trkpt>
      <trkpt lat="47.79361" lon="-3.52472">
        <ele>24.04</ele>
        <time>2020-07-08T12:15:28Z</time>
      </trkpt>
      <trkpt lat="47.79361" lon="-3.52472">
        <ele>24.05</ele>
        <time>2020-07-08T12:15:29Z</time>
      </trkpt>
      <trkpt lat="47.79361" lon="-3.52472">
        <ele>24.05</ele>
        <time>2020-07-08T12:15:30Z</time>
      </trkpt>
      <trkpt lat="47.79361" lon="-3.52472">
        <ele>24.05</ele>
        <time>2020-07-08T12:15:31Z</time>
      </trkpt>
      <trkpt lat="47.79361" lon="-3.52472">
        <ele>24.05</ele>
        <time>2020-07-08T12:15:32Z</time>
      </trkpt>
      <trkpt lat="47.79361" lon="-3.52472">
        <ele>24.05</ele>
        <time>2020-07-08T12:15:33Z</time>
      </trkpt>
      <trkpt lat="47.79361" lon="-3.52472">
        <ele>24.05</ele>
        <time>2020-07-08T12:15:34Z</time>
      </trkpt>
      <trkpt lat="47.79361" lon="-3.52472">
        <ele>24.05</ele>
        <time>2020-07-08T12:15:35Z</time>
      </trkpt>
      <trkpt lat="47.79361" lon="-3.52472">
        <ele>24.05</ele>
        <time>2020-07-08T12:15:36Z</time>
      </trkpt>
      <trkpt lat="47.79361" lon="-3.52472">
        <ele>24.05</ele>
        <time>2020-07-08T12:15:37Z</time>
      </trkpt>
      <trkpt lat="47.79361" lon="-3.52472">
        <ele>24.05</ele>
        <time>2020-07-08T12:15:38Z</time>
      </trkpt>
      <trkpt lat="47.79352" lon="-3.52472">
        <ele>23.7</ele>
        <time>2020-07-08T12:15:39Z</time>
      </trkpt>
      <trkpt lat="47.79352" lon="-3.52472">
        <ele>23.65</ele>
        <time>2020-07-08T12:15:40Z</time>
      </trkpt>
      <trkpt lat="47.79352" lon="-3.52472">
        <ele>23.71</ele>
        <time>2020-07-08T12:15:41Z</time>
      </trkpt>
      <trkpt lat="47.79352" lon="-3.52472">
        <ele>23.69</ele>
        <time>2020-07-08T12:15:42Z</time>
      </trkpt>
      <trkpt lat="47.79351" lon="-3.52472">
        <ele>23.63</ele>
        <time>2020-07-08T12:15:43Z</time>
      </trkpt>
      <trkpt lat="47.79351" lon="-3.52472">
        <ele>23.61</ele>
        <time>2020-07-08T12:15:44Z</time>
      </trkpt>
      <trkpt lat="47.79351" lon="-3.52472">
        <ele>23.61</ele>
        <time>2020-07-08T12:15:45Z</time>
      </trkpt>
      <trkpt lat="47.79351" lon="-3.52472">
        <ele>23.6</ele>
        <time>2020-07-08T12:15:46Z</time>
      </trkpt>
      <trkpt lat="47.79351" lon="-3.52472">
        <ele>23.6</ele>
        <time>2020-07-08T12:15:47Z</time>
      </trkpt>
      <trkpt lat="47.79351" lon="-3.52472">
        <ele>23.6</ele>
        <time>2020-07-08T12:15:48Z</time>
      </trkpt>
      <trkpt lat="47.79351" lon="-3.52472">
        <ele>23.6</ele>
        <time>2020-07-08T12:15:49Z</time>
      </trkpt>
      <trkpt lat="47.79351" lon="-3.52472">
        <ele>23.6</ele>
        <time>2020-07-08T12:15:50Z</time>
      </trkpt>
      <trkpt lat="47.79344" lon="-3.52471">
        <ele>23.67</ele>
        <time>2020-07-08T12:15:51Z</time>
      </trkpt>
      <trkpt lat="47.79343" lon="-3.52471">
        <ele>23.69</ele>
        <time>2020-07-08T12:15:52Z</time>
      </trkpt>
      <trkpt lat="47.79342" lon="-3.52471">
        <ele>23.68</ele>
        <time>2020-07-08T12:15:53Z</time>
      </trkpt>
      <trkpt lat="47.79341" lon="-3.52471">
        <ele>23.68</ele>
        <time>2020-07-08T12:15:54Z</time>
      </trkpt>
      <trkpt lat="47.7934" lon="-3.52471">
        <ele>23.67</ele>
        <time>2020-07-08T12:15:55Z</time>
      </trkpt>
      <trkpt lat="47.79339" lon="-3.52471">
        <ele>23.68</ele>
        <time>2020-07-08T12:15:56Z</time>
      </trkpt>
      <trkpt lat="47.79339" lon="-3.52471">
        <ele>23.68</ele>
        <time>2020-07-08T12:15:57Z</time>
      </trkpt>
      <trkpt lat="47.79339" lon="-3.52471">
        <ele>23.68</ele>
        <time>2020-07-08T12:15:58Z</time>
      </trkpt>
      <trkpt lat="47.79339" lon="-3.52471">
        <ele>23.68</ele>
        <time>2020-07-08T12:15:59Z</time>
      </trkpt>
      <trkpt lat="47.79339" lon="-3.52471">
        <ele>23.68</ele>
        <time>2020-07-08T12:16:00Z</time>
      </trkpt>
      <trkpt lat="47.79339" lon="-3.52471">
        <ele>23.68</ele>
        <time>2020-07-08T12:16:01Z</time>
      </trkpt>
      <trkpt lat="47.79339" lon="-3.52471">
        <ele>23.68</ele>
        <time>2020-07-08T12:16:02Z</time>
      </trkpt>
      <trkpt lat="47.79334" lon="-3.52467">
        <ele>24.3</ele>
        <time>2020-07-08T12:16:03Z</time>
      </trkpt>
      <trkpt lat="47.79333" lon="-3.52466">
        <ele>24.66</ele>
        <time>2020-07-08T12:16:04Z</time>
      </trkpt>
      <trkpt lat="47.79331" lon="-3.52465">
        <ele>24.89</ele>
        <time>2020-07-08T12:16:05Z</time>
      </trkpt>
      <trkpt lat="47.7933" lon="-3.52464">
        <ele>25.1</ele>
        <time>2020-07-08T12:16:06Z</time>
      </trkpt>
      <trkpt lat="47.79328" lon="-3.52463">
        <ele>25.28</ele>
        <time>2020-07-08T12:16:07Z</time>
      </trkpt>
      <trkpt lat="47.79326" lon="-3.52463">
        <ele>25.36</ele>
        <time>2020-07-08T12:16:08Z</time>
      </trkpt>
      <trkpt lat="47.79324" lon="-3.52462">
        <ele>25.49</ele>
        <time>2020-07-08T12:16:09Z</time>
      </trkpt>
      <trkpt lat="47.79321" lon="-3.52461">
        <ele>25.73</ele>
        <time>2020-07-08T12:16:10Z</time>
      </trkpt>
      <trkpt lat="47.79318" lon="-3.52459">
        <ele>26</ele>
        <time>2020-07-08T12:16:11Z</time>
      </trkpt>
      <trkpt lat="47.79315" lon="-3.52459">
        <ele>26</ele>
        <time>2020-07-08T12:16:12Z</time>
      </trkpt>
      <trkpt lat="47.79313" lon="-3.52459">
        <ele>25.95</ele>
        <time>2020-07-08T12:16:13Z</time>
      </trkpt>
      <trkpt lat="47.79311" lon="-3.5246">
        <ele>25.74</ele>
        <time>2020-07-08T12:16:14Z</time>
      </trkpt>
      <trkpt lat="47.79308" lon="-3.52461">
        <ele>25.51</ele>
        <time>2020-07-08T12:16:15Z</time>
      </trkpt>
      <trkpt lat="47.79305" lon="-3.52461">
        <ele>25.32</ele>
        <time>2020-07-08T12:16:16Z</time>
      </trkpt>
      <trkpt lat="47.79304" lon="-3.52461">
        <ele>25.29</ele>
        <time>2020-07-08T12:16:17Z</time>
      </trkpt>
      <trkpt lat="47.79301" lon="-3.52462">
        <ele>25.21</ele>
        <time>2020-07-08T12:16:18Z</time>
      </trkpt>
      <trkpt lat="47.79299" lon="-3.52462">
        <ele>25.19</ele>
        <time>2020-07-08T12:16:19Z</time>
      </trkpt>
      <trkpt lat="47.79297" lon="-3.52463">
        <ele>25.08</ele>
        <time>2020-07-08T12:16:20Z</time>
      </trkpt>
      <trkpt lat="47.79294" lon="-3.52464">
        <ele>24.93</ele>
        <time>2020-07-08T12:16:21Z</time>
      </trkpt>
      <trkpt lat="47.79292" lon="-3.52465">
        <ele>24.75</ele>
        <time>2020-07-08T12:16:22Z</time>
      </trkpt>
      <trkpt lat="47.7929" lon="-3.52467">
        <ele>24.57</ele>
        <time>2020-07-08T12:16:23Z</time>
      </trkpt>
      <trkpt lat="47.79289" lon="-3.52467">
        <ele>24.51</ele>
        <time>2020-07-08T12:16:24Z</time>
      </trkpt>
      <trkpt lat="47.79288" lon="-3.52467">
        <ele>24.57</ele>
        <time>2020-07-08T12:16:25Z</time>
      </trkpt>
      <trkpt lat="47.79286" lon="-3.52466">
        <ele>24.78</ele>
        <time>2020-07-08T12:16:26Z</time>
      </trkpt>
      <trkpt lat="47.79285" lon="-3.52465">
        <ele>25.06</ele>
        <time>2020-07-08T12:16:27Z</time>
      </trkpt>
      <trkpt lat="47.79284" lon="-3.52464">
        <ele>25.35</ele>
        <time>2020-07-08T12:16:28Z</time>
      </trkpt>
      <trkpt lat="47.79281" lon="-3.52464">
        <ele>25.55</ele>
        <time>2020-07-08T12:16:29Z</time>
      </trkpt>
      <trkpt lat="47.7928" lon="-3.52463">
        <ele>25.79</ele>
        <time>2020-07-08T12:16:30Z</time>
      </trkpt>
      <trkpt lat="47.79275" lon="-3.52461">
        <ele>26.25</ele>
        <time>2020-07-08T12:16:31Z</time>
      </trkpt>
      <trkpt lat="47.79274" lon="-3.52462">
        <ele>26.27</ele>
        <time>2020-07-08T12:16:32Z</time>
      </trkpt>
      <trkpt lat="47.79272" lon="-3.52462">
        <ele>26.31</ele>
        <time>2020-07-08T12:16:33Z</time>
      </trkpt>
      <trkpt lat="47.7927" lon="-3.52462">
        <ele>26.29</ele>
        <time>2020-07-08T12:16:34Z</time>
      </trkpt>
      <trkpt lat="47.79268" lon="-3.52465">
        <ele>25.85</ele>
        <time>2020-07-08T12:16:35Z</time>
      </trkpt>
      <trkpt lat="47.79266" lon="-3.52466">
        <ele>25.62</ele>
        <time>2020-07-08T12:16:36Z</time>
      </trkpt>
      <trkpt lat="47.79264" lon="-3.52466">
        <ele>25.62</ele>
        <time>2020-07-08T12:16:37Z</time>
      </trkpt>
      <trkpt lat="47.79262" lon="-3.52466">
        <ele>25.67</ele>
        <time>2020-07-08T12:16:38Z</time>
      </trkpt>
      <trkpt lat="47.79259" lon="-3.52465">
        <ele>25.8</ele>
        <time>2020-07-08T12:16:39Z</time>
      </trkpt>
      <trkpt lat="47.79256" lon="-3.52465">
        <ele>25.9</ele>
        <time>2020-07-08T12:16:40Z</time>
      </trkpt>
      <trkpt lat="47.79253" lon="-3.52465">
        <ele>26</ele>
        <time>2020-07-08T12:16:41Z</time>
      </trkpt>
      <trkpt lat="47.79249" lon="-3.52465">
        <ele>26</ele>
        <time>2020-07-08T12:16:42Z</time>
      </trkpt>
      <trkpt lat="47.79246" lon="-3.52467">
        <ele>25.93</ele>
        <time>2020-07-08T12:16:43Z</time>
      </trkpt>
      <trkpt lat="47.79243" lon="-3.52467">
        <ele>25.92</ele>
        <time>2020-07-08T12:16:44Z</time>
      </trkpt>
      <trkpt lat="47.7924" lon="-3.52468">
        <ele>25.91</ele>
        <time>2020-07-08T12:16:45Z</time>
      </trkpt>
      <trkpt lat="47.79236" lon="-3.52469">
        <ele>25.92</ele>
        <time>2020-07-08T12:16:46Z</time>
      </trkpt>
      <trkpt lat="47.79233" lon="-3.52471">
        <ele>25.83</ele>
        <time>2020-07-08T12:16:47Z</time>
      </trkpt>
      <trkpt lat="47.79233" lon="-3.52472">
        <ele>25.73</ele>
        <time>2020-07-08T12:16:48Z</time>
      </trkpt>
      <trkpt lat="47.79232" lon="-3.52472">
        <ele>25.68</ele>
        <time>2020-07-08T12:16:49Z</time>
      </trkpt>
      <trkpt lat="47.79232" lon="-3.52472">
        <ele>25.64</ele>
        <time>2020-07-08T12:16:50Z</time>
      </trkpt>
      <trkpt lat="47.79232" lon="-3.52472">
        <ele>25.63</ele>
        <time>2020-07-08T12:16:51Z</time>
      </trkpt>
      <trkpt lat="47.79232" lon="-3.52472">
        <ele>25.63</ele>
        <time>2020-07-08T12:16:52Z</time>
      </trkpt>
      <trkpt lat="47.79232" lon="-3.52472">
        <ele>25.63</ele>
        <time>2020-07-08T12:16:53Z</time>
      </trkpt>
      <trkpt lat="47.79232" lon="-3.52472">
        <ele>25.63</ele>
        <time>2020-07-08T12:16:54Z</time>
      </trkpt>
      <trkpt lat="47.79226" lon="-3.52474">
        <ele>25.34</ele>
        <time>2020-07-08T12:16:55Z</time>
      </trkpt>
      <trkpt lat="47.79224" lon="-3.52475">
        <ele>25.02</ele>
        <time>2020-07-08T12:16:56Z</time>
      </trkpt>
      <trkpt lat="47.79223" lon="-3.52476">
        <ele>24.79</ele>
        <time>2020-07-08T12:16:57Z</time>
      </trkpt>
      <trkpt lat="47.79222" lon="-3.52476">
        <ele>24.66</ele>
        <time>2020-07-08T12:16:58Z</time>
      </trkpt>
      <trkpt lat="47.79222" lon="-3.52477">
        <ele>24.36</ele>
        <time>2020-07-08T12:16:59Z</time>
      </trkpt>
      <trkpt lat="47.79222" lon="-3.52477">
        <ele>24.27</ele>
        <time>2020-07-08T12:17:00Z</time>
      </trkpt>
      <trkpt lat="47.79222" lon="-3.52477">
        <ele>24.24</ele>
        <time>2020-07-08T12:17:01Z</time>
      </trkpt>
      <trkpt lat="47.79222" lon="-3.52477">
        <ele>24.24</ele>
        <time>2020-07-08T12:17:02Z</time>
      </trkpt>
      <trkpt lat="47.79222" lon="-3.52477">
        <ele>24.23</ele>
        <time>2020-07-08T12:17:03Z</time>
      </trkpt>
      <trkpt lat="47.79222" lon="-3.52477">
        <ele>24.23</ele>
        <time>2020-07-08T12:17:04Z</time>
      </trkpt>
      <trkpt lat="47.79222" lon="-3.52477">
        <ele>24.23</ele>
        <time>2020-07-08T12:17:05Z</time>
      </trkpt>
      <trkpt lat="47.79222" lon="-3.52477">
        <ele>24.23</ele>
        <time>2020-07-08T12:17:06Z</time>
      </trkpt>
      <trkpt lat="47.79222" lon="-3.52477">
        <ele>24.23</ele>
        <time>2020-07-08T12:17:07Z</time>
      </trkpt>
      <trkpt lat="47.79216" lon="-3.52478">
        <ele>23.29</ele>
        <time>2020-07-08T12:17:08Z</time>
      </trkpt>
      <trkpt lat="47.79214" lon="-3.52478">
        <ele>22.85</ele>
        <time>2020-07-08T12:17:09Z</time>
      </trkpt>
      <trkpt lat="47.79212" lon="-3.52477">
        <ele>22.69</ele>
        <time>2020-07-08T12:17:10Z</time>
      </trkpt>
      <trkpt lat="47.7921" lon="-3.52476">
        <ele>22.85</ele>
        <time>2020-07-08T12:17:11Z</time>
      </trkpt>
      <trkpt lat="47.79208" lon="-3.52473">
        <ele>23.52</ele>
        <time>2020-07-08T12:17:12Z</time>
      </trkpt>
      <trkpt lat="47.79207" lon="-3.5247">
        <ele>23.97</ele>
        <time>2020-07-08T12:17:13Z</time>
      </trkpt>
      <trkpt lat="47.79206" lon="-3.52469">
        <ele>24.11</ele>
        <time>2020-07-08T12:17:14Z</time>
      </trkpt>
      <trkpt lat="47.79204" lon="-3.52468">
        <ele>24.07</ele>
        <time>2020-07-08T12:17:15Z</time>
      </trkpt>
      <trkpt lat="47.79202" lon="-3.52468">
        <ele>23.91</ele>
        <time>2020-07-08T12:17:16Z</time>
      </trkpt>
      <trkpt lat="47.792" lon="-3.52468">
        <ele>23.68</ele>
        <time>2020-07-08T12:17:17Z</time>
      </trkpt>
      <trkpt lat="47.79196" lon="-3.52465">
        <ele>23.8</ele>
        <time>2020-07-08T12:17:18Z</time>
      </trkpt>
      <trkpt lat="47.79194" lon="-3.52463">
        <ele>23.85</ele>
        <time>2020-07-08T12:17:19Z</time>
      </trkpt>
      <trkpt lat="47.79193" lon="-3.52463">
        <ele>23.96</ele>
        <time>2020-07-08T12:17:20Z</time>
      </trkpt>
      <trkpt lat="47.79191" lon="-3.52463">
        <ele>23.95</ele>
        <time>2020-07-08T12:17:21Z</time>
      </trkpt>
      <trkpt lat="47.7919" lon="-3.52463">
        <ele>23.79</ele>
        <time>2020-07-08T12:17:22Z</time>
      </trkpt>
      <trkpt lat="47.79189" lon="-3.52465">
        <ele>23.56</ele>
        <time>2020-07-08T12:17:23Z</time>
      </trkpt>
      <trkpt lat="47.79187" lon="-3.52466">
        <ele>23.23</ele>
        <time>2020-07-08T12:17:24Z</time>
      </trkpt>
      <trkpt lat="47.79184" lon="-3.52467">
        <ele>22.96</ele>
        <time>2020-07-08T12:17:25Z</time>
      </trkpt>
      <trkpt lat="47.79181" lon="-3.52468">
        <ele>22.62</ele>
        <time>2020-07-08T12:17:26Z</time>
      </trkpt>
      <trkpt lat="47.79179" lon="-3.5247">
        <ele>22.18</ele>
        <time>2020-07-08T12:17:27Z</time>
      </trkpt>
      <trkpt lat="47.79175" lon="-3.52471">
        <ele>21.79</ele>
        <time>2020-07-08T12:17:28Z</time>
      </trkpt>
      <trkpt lat="47.79171" lon="-3.52473">
        <ele>21.19</ele>
        <time>2020-07-08T12:17:29Z</time>
      </trkpt>
      <trkpt lat="47.79167" lon="-3.52475">
        <ele>20.33</ele>
        <time>2020-07-08T12:17:30Z</time>
      </trkpt>
      <trkpt lat="47.79164" lon="-3.52478">
        <ele>19.77</ele>
        <time>2020-07-08T12:17:31Z</time>
      </trkpt>
      <trkpt lat="47.79161" lon="-3.5248">
        <ele>19.38</ele>
        <time>2020-07-08T12:17:32Z</time>
      </trkpt>
      <trkpt lat="47.79158" lon="-3.52483">
        <ele>19.14</ele>
        <time>2020-07-08T12:17:33Z</time>
      </trkpt>
      <trkpt lat="47.79155" lon="-3.52485">
        <ele>18.8</ele>
        <time>2020-07-08T12:17:34Z</time>
      </trkpt>
      <trkpt lat="47.79153" lon="-3.52489">
        <ele>18.37</ele>
        <time>2020-07-08T12:17:35Z</time>
      </trkpt>
      <trkpt lat="47.7915" lon="-3.52493">
        <ele>17.83</ele>
        <time>2020-07-08T12:17:36Z</time>
      </trkpt>
      <trkpt lat="47.79147" lon="-3.52496">
        <ele>17.44</ele>
        <time>2020-07-08T12:17:37Z</time>
      </trkpt>
      <trkpt lat="47.79145" lon="-3.52498">
        <ele>17.18</ele>
        <time>2020-07-08T12:17:38Z</time>
      </trkpt>
      <trkpt lat="47.79143" lon="-3.525">
        <ele>17.04</ele>
        <time>2020-07-08T12:17:39Z</time>
      </trkpt>
      <trkpt lat="47.79142" lon="-3.52502">
        <ele>16.88</ele>
        <time>2020-07-08T12:17:40Z</time>
      </trkpt>
      <trkpt lat="47.7914" lon="-3.52505">
        <ele>16.69</ele>
        <time>2020-07-08T12:17:41Z</time>
      </trkpt>
      <trkpt lat="47.79138" lon="-3.52507">
        <ele>16.52</ele>
        <time>2020-07-08T12:17:42Z</time>
      </trkpt>
      <trkpt lat="47.79136" lon="-3.5251">
        <ele>16.37</ele>
        <time>2020-07-08T12:17:43Z</time>
      </trkpt>
      <trkpt lat="47.79133" lon="-3.52514">
        <ele>16.38</ele>
        <time>2020-07-08T12:17:44Z</time>
      </trkpt>
      <trkpt lat="47.79131" lon="-3.52516">
        <ele>16.54</ele>
        <time>2020-07-08T12:17:45Z</time>
      </trkpt>
      <trkpt lat="47.7913" lon="-3.52517">
        <ele>16.74</ele>
        <time>2020-07-08T12:17:46Z</time>
      </trkpt>
      <trkpt lat="47.79128" lon="-3.52518">
        <ele>16.98</ele>
        <time>2020-07-08T12:17:47Z</time>
      </trkpt>
      <trkpt lat="47.79128" lon="-3.52518">
        <ele>17.19</ele>
        <time>2020-07-08T12:17:48Z</time>
      </trkpt>
      <trkpt lat="47.79128" lon="-3.52518">
        <ele>17.25</ele>
        <time>2020-07-08T12:17:49Z</time>
      </trkpt>
      <trkpt lat="47.79128" lon="-3.52518">
        <ele>17.27</ele>
        <time>2020-07-08T12:17:50Z</time>
      </trkpt>
      <trkpt lat="47.79128" lon="-3.52518">
        <ele>17.28</ele>
        <time>2020-07-08T12:17:51Z</time>
      </trkpt>
      <trkpt lat="47.79128" lon="-3.52518">
        <ele>17.28</ele>
        <time>2020-07-08T12:17:52Z</time>
      </trkpt>
      <trkpt lat="47.79128" lon="-3.52518">
        <ele>17.28</ele>
        <time>2020-07-08T12:17:53Z</time>
      </trkpt>
      <trkpt lat="47.79128" lon="-3.52518">
        <ele>17.28</ele>
        <time>2020-07-08T12:17:54Z</time>
      </trkpt>
      <trkpt lat="47.7912" lon="-3.52525">
        <ele>18.44</ele>
        <time>2020-07-08T12:17:55Z</time>
      </trkpt>
      <trkpt lat="47.79119" lon="-3.52526">
        <ele>18.87</ele>
        <time>2020-07-08T12:17:56Z</time>
      </trkpt>
      <trkpt lat="47.79118" lon="-3.52527">
        <ele>19.09</ele>
        <time>2020-07-08T12:17:57Z</time>
      </trkpt>
      <trkpt lat="47.79118" lon="-3.52528">
        <ele>19.31</ele>
        <time>2020-07-08T12:17:58Z</time>
      </trkpt>
      <trkpt lat="47.79118" lon="-3.52528">
        <ele>19.37</ele>
        <time>2020-07-08T12:17:59Z</time>
      </trkpt>
      <trkpt lat="47.79118" lon="-3.52528">
        <ele>19.39</ele>
        <time>2020-07-08T12:18:00Z</time>
      </trkpt>
      <trkpt lat="47.79118" lon="-3.52528">
        <ele>19.4</ele>
        <time>2020-07-08T12:18:01Z</time>
      </trkpt>
      <trkpt lat="47.79118" lon="-3.52528">
        <ele>19.4</ele>
        <time>2020-07-08T12:18:02Z</time>
      </trkpt>
      <trkpt lat="47.79118" lon="-3.52528">
        <ele>19.4</ele>
        <time>2020-07-08T12:18:03Z</time>
      </trkpt>
      <trkpt lat="47.79118" lon="-3.52528">
        <ele>19.4</ele>
        <time>2020-07-08T12:18:04Z</time>
      </trkpt>
      <trkpt lat="47.79118" lon="-3.52528">
        <ele>19.4</ele>
        <time>2020-07-08T12:18:05Z</time>
      </trkpt>
      <trkpt lat="47.79108" lon="-3.52536">
        <ele>20.6</ele>
        <time>2020-07-08T12:18:06Z</time>
      </trkpt>
      <trkpt lat="47.79105" lon="-3.52539">
        <ele>20.91</ele>
        <time>2020-07-08T12:18:07Z</time>
      </trkpt>
      <trkpt lat="47.79104" lon="-3.52541">
        <ele>20.91</ele>
        <time>2020-07-08T12:18:08Z</time>
      </trkpt>
      <trkpt lat="47.79103" lon="-3.52544">
        <ele>20.68</ele>
        <time>2020-07-08T12:18:09Z</time>
      </trkpt>
      <trkpt lat="47.79102" lon="-3.52547">
        <ele>20.53</ele>
        <time>2020-07-08T12:18:10Z</time>
      </trkpt>
      <trkpt lat="47.791" lon="-3.52548">
        <ele>20.45</ele>
        <time>2020-07-08T12:18:11Z</time>
      </trkpt>
      <trkpt lat="47.79098" lon="-3.5255">
        <ele>20.43</ele>
        <time>2020-07-08T12:18:12Z</time>
      </trkpt>
      <trkpt lat="47.79097" lon="-3.52552">
        <ele>20.38</ele>
        <time>2020-07-08T12:18:13Z</time>
      </trkpt>
      <trkpt lat="47.79095" lon="-3.52554">
        <ele>20.43</ele>
        <time>2020-07-08T12:18:14Z</time>
      </trkpt>
      <trkpt lat="47.79093" lon="-3.52556">
        <ele>20.51</ele>
        <time>2020-07-08T12:18:15Z</time>
      </trkpt>
      <trkpt lat="47.79092" lon="-3.52557">
        <ele>20.53</ele>
        <time>2020-07-08T12:18:16Z</time>
      </trkpt>
      <trkpt lat="47.7909" lon="-3.52559">
        <ele>20.44</ele>
        <time>2020-07-08T12:18:17Z</time>
      </trkpt>
      <trkpt lat="47.79089" lon="-3.5256">
        <ele>20.4</ele>
        <time>2020-07-08T12:18:18Z</time>
      </trkpt>
      <trkpt lat="47.79087" lon="-3.52562">
        <ele>20.39</ele>
        <time>2020-07-08T12:18:19Z</time>
      </trkpt>
      <trkpt lat="47.79085" lon="-3.52564">
        <ele>20.41</ele>
        <time>2020-07-08T12:18:20Z</time>
      </trkpt>
      <trkpt lat="47.79083" lon="-3.52567">
        <ele>20.39</ele>
        <time>2020-07-08T12:18:21Z</time>
      </trkpt>
      <trkpt lat="47.79081" lon="-3.5257">
        <ele>20.27</ele>
        <time>2020-07-08T12:18:22Z</time>
      </trkpt>
      <trkpt lat="47.79079" lon="-3.52573">
        <ele>20.1</ele>
        <time>2020-07-08T12:18:23Z</time>
      </trkpt>
      <trkpt lat="47.79079" lon="-3.52575">
        <ele>19.9</ele>
        <time>2020-07-08T12:18:24Z</time>
      </trkpt>
      <trkpt lat="47.79078" lon="-3.52576">
        <ele>19.75</ele>
        <time>2020-07-08T12:18:25Z</time>
      </trkpt>
      <trkpt lat="47.79078" lon="-3.52577">
        <ele>19.67</ele>
        <time>2020-07-08T12:18:26Z</time>
      </trkpt>
      <trkpt lat="47.79078" lon="-3.52577">
        <ele>19.63</ele>
        <time>2020-07-08T12:18:27Z</time>
      </trkpt>
      <trkpt lat="47.79078" lon="-3.52577">
        <ele>19.62</ele>
        <time>2020-07-08T12:18:28Z</time>
      </trkpt>
      <trkpt lat="47.79078" lon="-3.52577">
        <ele>19.62</ele>
        <time>2020-07-08T12:18:29Z</time>
      </trkpt>
      <trkpt lat="47.79078" lon="-3.52577">
        <ele>19.62</ele>
        <time>2020-07-08T12:18:30Z</time>
      </trkpt>
      <trkpt lat="47.79078" lon="-3.52577">
        <ele>19.62</ele>
        <time>2020-07-08T12:18:31Z</time>
      </trkpt>
      <trkpt lat="47.79078" lon="-3.52577">
        <ele>19.62</ele>
        <time>2020-07-08T12:18:32Z</time>
      </trkpt>
      <trkpt lat="47.79078" lon="-3.52577">
        <ele>19.62</ele>
        <time>2020-07-08T12:18:33Z</time>
      </trkpt>
      <trkpt lat="47.79078" lon="-3.52577">
        <ele>19.62</ele>
        <time>2020-07-08T12:18:34Z</time>
      </trkpt>
      <trkpt lat="47.79078" lon="-3.52577">
        <ele>19.62</ele>
        <time>2020-07-08T12:18:35Z</time>
      </trkpt>
      <trkpt lat="47.79075" lon="-3.52582">
        <ele>19.5</ele>
        <time>2020-07-08T12:18:36Z</time>
      </trkpt>
      <trkpt lat="47.79072" lon="-3.52584">
        <ele>19.45</ele>
        <time>2020-07-08T12:18:37Z</time>
      </trkpt>
      <trkpt lat="47.79072" lon="-3.52586">
        <ele>19.26</ele>
        <time>2020-07-08T12:18:38Z</time>
      </trkpt>
      <trkpt lat="47.7907" lon="-3.52588">
        <ele>19.1</ele>
        <time>2020-07-08T12:18:39Z</time>
      </trkpt>
      <trkpt lat="47.79069" lon="-3.5259">
        <ele>18.89</ele>
        <time>2020-07-08T12:18:40Z</time>
      </trkpt>
      <trkpt lat="47.79067" lon="-3.5259">
        <ele>19.09</ele>
        <time>2020-07-08T12:18:41Z</time>
      </trkpt>
      <trkpt lat="47.79066" lon="-3.52591">
        <ele>19.24</ele>
        <time>2020-07-08T12:18:42Z</time>
      </trkpt>
      <trkpt lat="47.79066" lon="-3.52591">
        <ele>19.29</ele>
        <time>2020-07-08T12:18:43Z</time>
      </trkpt>
      <trkpt lat="47.79066" lon="-3.52591">
        <ele>19.3</ele>
        <time>2020-07-08T12:18:44Z</time>
      </trkpt>
      <trkpt lat="47.79066" lon="-3.52591">
        <ele>19.31</ele>
        <time>2020-07-08T12:18:45Z</time>
      </trkpt>
      <trkpt lat="47.79066" lon="-3.52591">
        <ele>19.31</ele>
        <time>2020-07-08T12:18:46Z</time>
      </trkpt>
      <trkpt lat="47.7906" lon="-3.52595">
        <ele>19.77</ele>
        <time>2020-07-08T12:18:47Z</time>
      </trkpt>
      <trkpt lat="47.79059" lon="-3.52596">
        <ele>20.02</ele>
        <time>2020-07-08T12:18:48Z</time>
      </trkpt>
      <trkpt lat="47.79059" lon="-3.52597">
        <ele>20.15</ele>
        <time>2020-07-08T12:18:49Z</time>
      </trkpt>
      <trkpt lat="47.79058" lon="-3.52599">
        <ele>20.12</ele>
        <time>2020-07-08T12:18:50Z</time>
      </trkpt>
      <trkpt lat="47.79058" lon="-3.52599">
        <ele>20.11</ele>
        <time>2020-07-08T12:18:51Z</time>
      </trkpt>
      <trkpt lat="47.79056" lon="-3.52603">
        <ele>20.46</ele>
        <time>2020-07-08T12:18:52Z</time>
      </trkpt>
      <trkpt lat="47.79053" lon="-3.52605">
        <ele>20.41</ele>
        <time>2020-07-08T12:18:53Z</time>
      </trkpt>
      <trkpt lat="47.7905" lon="-3.52606">
        <ele>20.34</ele>
        <time>2020-07-08T12:18:54Z</time>
      </trkpt>
      <trkpt lat="47.79048" lon="-3.52608">
        <ele>20.25</ele>
        <time>2020-07-08T12:18:55Z</time>
      </trkpt>
      <trkpt lat="47.79046" lon="-3.52609">
        <ele>20.17</ele>
        <time>2020-07-08T12:18:56Z</time>
      </trkpt>
      <trkpt lat="47.79044" lon="-3.5261">
        <ele>20.09</ele>
        <time>2020-07-08T12:18:57Z</time>
      </trkpt>
      <trkpt lat="47.79044" lon="-3.5261">
        <ele>20.06</ele>
        <time>2020-07-08T12:18:58Z</time>
      </trkpt>
      <trkpt lat="47.79043" lon="-3.5261">
        <ele>20.05</ele>
        <time>2020-07-08T12:18:59Z</time>
      </trkpt>
      <trkpt lat="47.79043" lon="-3.5261">
        <ele>20.05</ele>
        <time>2020-07-08T12:19:00Z</time>
      </trkpt>
      <trkpt lat="47.79043" lon="-3.5261">
        <ele>20.04</ele>
        <time>2020-07-08T12:19:01Z</time>
      </trkpt>
      <trkpt lat="47.79043" lon="-3.5261">
        <ele>20.04</ele>
        <time>2020-07-08T12:19:02Z</time>
      </trkpt>
      <trkpt lat="47.79043" lon="-3.5261">
        <ele>20.04</ele>
        <time>2020-07-08T12:19:03Z</time>
      </trkpt>
      <trkpt lat="47.79043" lon="-3.5261">
        <ele>20.04</ele>
        <time>2020-07-08T12:19:04Z</time>
      </trkpt>
      <trkpt lat="47.79043" lon="-3.5261">
        <ele>20.04</ele>
        <time>2020-07-08T12:19:05Z</time>
      </trkpt>
      <trkpt lat="47.79043" lon="-3.5261">
        <ele>20.04</ele>
        <time>2020-07-08T12:19:06Z</time>
      </trkpt>
      <trkpt lat="47.79043" lon="-3.5261">
        <ele>20.04</ele>
        <time>2020-07-08T12:19:07Z</time>
      </trkpt>
      <trkpt lat="47.79043" lon="-3.5261">
        <ele>20.04</ele>
        <time>2020-07-08T12:19:08Z</time>
      </trkpt>
      <trkpt lat="47.79043" lon="-3.5261">
        <ele>20.04</ele>
        <time>2020-07-08T12:19:09Z</time>
      </trkpt>
      <trkpt lat="47.79043" lon="-3.5261">
        <ele>20.04</ele>
        <time>2020-07-08T12:19:10Z</time>
      </trkpt>
      <trkpt lat="47.79043" lon="-3.5261">
        <ele>20.04</ele>
        <time>2020-07-08T12:19:11Z</time>
      </trkpt>
      <trkpt lat="47.79043" lon="-3.5261">
        <ele>20.04</ele>
        <time>2020-07-08T12:19:12Z</time>
      </trkpt>
      <trkpt lat="47.79043" lon="-3.5261">
        <ele>20.04</ele>
        <time>2020-07-08T12:19:13Z</time>
      </trkpt>
      <trkpt lat="47.79043" lon="-3.5261">
        <ele>20.04</ele>
        <time>2020-07-08T12:19:14Z</time>
      </trkpt>
      <trkpt lat="47.79043" lon="-3.5261">
        <ele>20.04</ele>
        <time>2020-07-08T12:19:15Z</time>
      </trkpt>
      <trkpt lat="47.79043" lon="-3.5261">
        <ele>20.04</ele>
        <time>2020-07-08T12:19:16Z</time>
      </trkpt>
      <trkpt lat="47.79035" lon="-3.52616">
        <ele>19.68</ele>
        <time>2020-07-08T12:19:17Z</time>
      </trkpt>
      <trkpt lat="47.79035" lon="-3.52616">
        <ele>19.54</ele>
        <time>2020-07-08T12:19:18Z</time>
      </trkpt>
      <trkpt lat="47.79035" lon="-3.52616">
        <ele>19.49</ele>
        <time>2020-07-08T12:19:19Z</time>
      </trkpt>
      <trkpt lat="47.79035" lon="-3.52617">
        <ele>19.46</ele>
        <time>2020-07-08T12:19:20Z</time>
      </trkpt>
      <trkpt lat="47.79035" lon="-3.52617">
        <ele>19.45</ele>
        <time>2020-07-08T12:19:21Z</time>
      </trkpt>
      <trkpt lat="47.79035" lon="-3.52617">
        <ele>19.45</ele>
        <time>2020-07-08T12:19:22Z</time>
      </trkpt>
      <trkpt lat="47.79035" lon="-3.52617">
        <ele>19.45</ele>
        <time>2020-07-08T12:19:23Z</time>
      </trkpt>
      <trkpt lat="47.79035" lon="-3.52617">
        <ele>19.45</ele>
        <time>2020-07-08T12:19:24Z</time>
      </trkpt>
      <trkpt lat="47.79035" lon="-3.52617">
        <ele>19.45</ele>
        <time>2020-07-08T12:19:25Z</time>
      </trkpt>
      <trkpt lat="47.79035" lon="-3.52617">
        <ele>19.45</ele>
        <time>2020-07-08T12:19:26Z</time>
      </trkpt>
      <trkpt lat="47.79035" lon="-3.52617">
        <ele>19.45</ele>
        <time>2020-07-08T12:19:27Z</time>
      </trkpt>
      <trkpt lat="47.79035" lon="-3.52617">
        <ele>19.45</ele>
        <time>2020-07-08T12:19:28Z</time>
      </trkpt>
      <trkpt lat="47.79035" lon="-3.52617">
        <ele>19.45</ele>
        <time>2020-07-08T12:19:29Z</time>
      </trkpt>
      <trkpt lat="47.79035" lon="-3.52617">
        <ele>19.45</ele>
        <time>2020-07-08T12:19:30Z</time>
      </trkpt>
      <trkpt lat="47.79035" lon="-3.52617">
        <ele>19.45</ele>
        <time>2020-07-08T12:19:31Z</time>
      </trkpt>
      <trkpt lat="47.79035" lon="-3.52617">
        <ele>19.45</ele>
        <time>2020-07-08T12:19:32Z</time>
      </trkpt>
      <trkpt lat="47.79035" lon="-3.52617">
        <ele>19.45</ele>
        <time>2020-07-08T12:19:33Z</time>
      </trkpt>
      <trkpt lat="47.79035" lon="-3.52617">
        <ele>19.45</ele>
        <time>2020-07-08T12:19:34Z</time>
      </trkpt>
      <trkpt lat="47.79035" lon="-3.52617">
        <ele>19.45</ele>
        <time>2020-07-08T12:19:35Z</time>
      </trkpt>
      <trkpt lat="47.79035" lon="-3.52617">
        <ele>19.45</ele>
        <time>2020-07-08T12:19:36Z</time>
      </trkpt>
      <trkpt lat="47.79035" lon="-3.52617">
        <ele>19.45</ele>
        <time>2020-07-08T12:19:37Z</time>
      </trkpt>
      <trkpt lat="47.79035" lon="-3.52617">
        <ele>19.45</ele>
        <time>2020-07-08T12:19:38Z</time>
      </trkpt>
      <trkpt lat="47.79035" lon="-3.52617">
        <ele>19.45</ele>
        <time>2020-07-08T12:19:39Z</time>
      </trkpt>
      <trkpt lat="47.79035" lon="-3.52617">
        <ele>19.45</ele>
        <time>2020-07-08T12:19:40Z</time>
      </trkpt>
      <trkpt lat="47.79035" lon="-3.52617">
        <ele>19.45</ele>
        <time>2020-07-08T12:19:41Z</time>
      </trkpt>
      <trkpt lat="47.79035" lon="-3.52617">
        <ele>19.45</ele>
        <time>2020-07-08T12:19:42Z</time>
      </trkpt>
      <trkpt lat="47.79035" lon="-3.52617">
        <ele>19.45</ele>
        <time>2020-07-08T12:19:43Z</time>
      </trkpt>
      <trkpt lat="47.79035" lon="-3.52617">
        <ele>19.45</ele>
        <time>2020-07-08T12:19:44Z</time>
      </trkpt>
      <trkpt lat="47.79035" lon="-3.52617">
        <ele>19.45</ele>
        <time>2020-07-08T12:19:45Z</time>
      </trkpt>
      <trkpt lat="47.79035" lon="-3.52617">
        <ele>19.45</ele>
        <time>2020-07-08T12:19:46Z</time>
      </trkpt>
      <trkpt lat="47.79035" lon="-3.52617">
        <ele>19.45</ele>
        <time>2020-07-08T12:19:47Z</time>
      </trkpt>
      <trkpt lat="47.79035" lon="-3.52617">
        <ele>19.45</ele>
        <time>2020-07-08T12:19:48Z</time>
      </trkpt>
      <trkpt lat="47.79035" lon="-3.52617">
        <ele>19.45</ele>
        <time>2020-07-08T12:19:49Z</time>
      </trkpt>
      <trkpt lat="47.79035" lon="-3.52617">
        <ele>19.45</ele>
        <time>2020-07-08T12:19:50Z</time>
      </trkpt>
      <trkpt lat="47.79035" lon="-3.52617">
        <ele>19.45</ele>
        <time>2020-07-08T12:19:51Z</time>
      </trkpt>
      <trkpt lat="47.79035" lon="-3.52617">
        <ele>19.45</ele>
        <time>2020-07-08T12:19:52Z</time>
      </trkpt>
      <trkpt lat="47.79035" lon="-3.52617">
        <ele>19.45</ele>
        <time>2020-07-08T12:19:53Z</time>
      </trkpt>
      <trkpt lat="47.79035" lon="-3.52617">
        <ele>19.45</ele>
        <time>2020-07-08T12:19:54Z</time>
      </trkpt>
      <trkpt lat="47.79035" lon="-3.52617">
        <ele>19.45</ele>
        <time>2020-07-08T12:19:55Z</time>
      </trkpt>
      <trkpt lat="47.79035" lon="-3.52617">
        <ele>19.45</ele>
        <time>2020-07-08T12:19:56Z</time>
      </trkpt>
      <trkpt lat="47.79035" lon="-3.52617">
        <ele>19.45</ele>
        <time>2020-07-08T12:19:57Z</time>
      </trkpt>
      <trkpt lat="47.79035" lon="-3.52617">
        <ele>19.45</ele>
        <time>2020-07-08T12:19:58Z</time>
      </trkpt>
      <trkpt lat="47.79035" lon="-3.52617">
        <ele>19.45</ele>
        <time>2020-07-08T12:19:59Z</time>
      </trkpt>
      <trkpt lat="47.79035" lon="-3.52617">
        <ele>19.45</ele>
        <time>2020-07-08T12:20:00Z</time>
      </trkpt>
      <trkpt lat="47.79035" lon="-3.52617">
        <ele>19.45</ele>
        <time>2020-07-08T12:20:01Z</time>
      </trkpt>
      <trkpt lat="47.79035" lon="-3.52617">
        <ele>19.45</ele>
        <time>2020-07-08T12:20:02Z</time>
      </trkpt>
      <trkpt lat="47.79035" lon="-3.52617">
        <ele>19.45</ele>
        <time>2020-07-08T12:20:03Z</time>
      </trkpt>
      <trkpt lat="47.79035" lon="-3.52617">
        <ele>19.45</ele>
        <time>2020-07-08T12:20:04Z</time>
      </trkpt>
      <trkpt lat="47.79035" lon="-3.52617">
        <ele>19.45</ele>
        <time>2020-07-08T12:20:05Z</time>
      </trkpt>
      <trkpt lat="47.79035" lon="-3.52617">
        <ele>19.45</ele>
        <time>2020-07-08T12:20:06Z</time>
      </trkpt>
      <trkpt lat="47.79035" lon="-3.52617">
        <ele>19.45</ele>
        <time>2020-07-08T12:20:07Z</time>
      </trkpt>
      <trkpt lat="47.79035" lon="-3.52617">
        <ele>19.45</ele>
        <time>2020-07-08T12:20:08Z</time>
      </trkpt>
      <trkpt lat="47.79035" lon="-3.52617">
        <ele>19.45</ele>
        <time>2020-07-08T12:20:09Z</time>
      </trkpt>
      <trkpt lat="47.79035" lon="-3.52617">
        <ele>19.45</ele>
        <time>2020-07-08T12:20:10Z</time>
      </trkpt>
      <trkpt lat="47.79035" lon="-3.52617">
        <ele>19.45</ele>
        <time>2020-07-08T12:20:11Z</time>
      </trkpt>
      <trkpt lat="47.79035" lon="-3.52617">
        <ele>19.45</ele>
        <time>2020-07-08T12:20:12Z</time>
      </trkpt>
      <trkpt lat="47.79035" lon="-3.52617">
        <ele>19.45</ele>
        <time>2020-07-08T12:20:13Z</time>
      </trkpt>
      <trkpt lat="47.79035" lon="-3.52617">
        <ele>19.45</ele>
        <time>2020-07-08T12:20:14Z</time>
      </trkpt>
      <trkpt lat="47.79035" lon="-3.52617">
        <ele>19.45</ele>
        <time>2020-07-08T12:20:15Z</time>
      </trkpt>
      <trkpt lat="47.79035" lon="-3.52617">
        <ele>19.45</ele>
        <time>2020-07-08T12:20:16Z</time>
      </trkpt>
      <trkpt lat="47.79035" lon="-3.52617">
        <ele>19.45</ele>
        <time>2020-07-08T12:20:17Z</time>
      </trkpt>
      <trkpt lat="47.79035" lon="-3.52617">
        <ele>19.45</ele>
        <time>2020-07-08T12:20:18Z</time>
      </trkpt>
      <trkpt lat="47.79035" lon="-3.52617">
        <ele>19.45</ele>
        <time>2020-07-08T12:20:19Z</time>
      </trkpt>
      <trkpt lat="47.79035" lon="-3.52617">
        <ele>19.45</ele>
        <time>2020-07-08T12:20:20Z</time>
      </trkpt>
      <trkpt lat="47.79035" lon="-3.52617">
        <ele>19.45</ele>
        <time>2020-07-08T12:20:21Z</time>
      </trkpt>
      <trkpt lat="47.79035" lon="-3.52617">
        <ele>19.45</ele>
        <time>2020-07-08T12:20:22Z</time>
      </trkpt>
      <trkpt lat="47.79035" lon="-3.52617">
        <ele>19.45</ele>
        <time>2020-07-08T12:20:23Z</time>
      </trkpt>
      <trkpt lat="47.79035" lon="-3.52617">
        <ele>19.45</ele>
        <time>2020-07-08T12:20:24Z</time>
      </trkpt>
      <trkpt lat="47.79035" lon="-3.52617">
        <ele>19.45</ele>
        <time>2020-07-08T12:20:25Z</time>
      </trkpt>
      <trkpt lat="47.79035" lon="-3.52617">
        <ele>19.45</ele>
        <time>2020-07-08T12:20:26Z</time>
      </trkpt>
      <trkpt lat="47.79035" lon="-3.52617">
        <ele>19.45</ele>
        <time>2020-07-08T12:20:27Z</time>
      </trkpt>
      <trkpt lat="47.79035" lon="-3.52617">
        <ele>19.45</ele>
        <time>2020-07-08T12:20:28Z</time>
      </trkpt>
      <trkpt lat="47.79035" lon="-3.52617">
        <ele>19.45</ele>
        <time>2020-07-08T12:20:29Z</time>
      </trkpt>
      <trkpt lat="47.79035" lon="-3.52617">
        <ele>19.45</ele>
        <time>2020-07-08T12:20:30Z</time>
      </trkpt>
      <trkpt lat="47.79035" lon="-3.52617">
        <ele>19.45</ele>
        <time>2020-07-08T12:20:31Z</time>
      </trkpt>
      <trkpt lat="47.79035" lon="-3.52617">
        <ele>19.45</ele>
        <time>2020-07-08T12:20:32Z</time>
      </trkpt>
      <trkpt lat="47.79035" lon="-3.52617">
        <ele>19.45</ele>
        <time>2020-07-08T12:20:33Z</time>
      </trkpt>
      <trkpt lat="47.79035" lon="-3.52617">
        <ele>19.45</ele>
        <time>2020-07-08T12:20:34Z</time>
      </trkpt>
      <trkpt lat="47.79035" lon="-3.52617">
        <ele>19.45</ele>
        <time>2020-07-08T12:20:35Z</time>
      </trkpt>
      <trkpt lat="47.79035" lon="-3.52617">
        <ele>19.45</ele>
        <time>2020-07-08T12:20:36Z</time>
      </trkpt>
      <trkpt lat="47.79035" lon="-3.52617">
        <ele>19.45</ele>
        <time>2020-07-08T12:20:37Z</time>
      </trkpt>
      <trkpt lat="47.79035" lon="-3.52617">
        <ele>19.45</ele>
        <time>2020-07-08T12:20:38Z</time>
      </trkpt>
      <trkpt lat="47.79035" lon="-3.52617">
        <ele>19.45</ele>
        <time>2020-07-08T12:20:39Z</time>
      </trkpt>
      <trkpt lat="47.79035" lon="-3.52617">
        <ele>19.45</ele>
        <time>2020-07-08T12:20:40Z</time>
      </trkpt>
      <trkpt lat="47.79035" lon="-3.52617">
        <ele>19.45</ele>
        <time>2020-07-08T12:20:41Z</time>
      </trkpt>
      <trkpt lat="47.79035" lon="-3.52617">
        <ele>19.45</ele>
        <time>2020-07-08T12:20:42Z</time>
      </trkpt>
      <trkpt lat="47.79035" lon="-3.52617">
        <ele>19.45</ele>
        <time>2020-07-08T12:20:43Z</time>
      </trkpt>
      <trkpt lat="47.79035" lon="-3.52617">
        <ele>19.45</ele>
        <time>2020-07-08T12:20:44Z</time>
      </trkpt>
      <trkpt lat="47.79035" lon="-3.52617">
        <ele>19.45</ele>
        <time>2020-07-08T12:20:45Z</time>
      </trkpt>
      <trkpt lat="47.79035" lon="-3.52617">
        <ele>19.45</ele>
        <time>2020-07-08T12:20:46Z</time>
      </trkpt>
      <trkpt lat="47.79035" lon="-3.52617">
        <ele>19.45</ele>
        <time>2020-07-08T12:20:47Z</time>
      </trkpt>
      <trkpt lat="47.79035" lon="-3.52617">
        <ele>19.45</ele>
        <time>2020-07-08T12:20:48Z</time>
      </trkpt>
      <trkpt lat="47.79035" lon="-3.52617">
        <ele>19.45</ele>
        <time>2020-07-08T12:20:49Z</time>
      </trkpt>
      <trkpt lat="47.79035" lon="-3.52617">
        <ele>19.45</ele>
        <time>2020-07-08T12:20:50Z</time>
      </trkpt>
      <trkpt lat="47.79035" lon="-3.52617">
        <ele>19.45</ele>
        <time>2020-07-08T12:20:51Z</time>
      </trkpt>
      <trkpt lat="47.79035" lon="-3.52617">
        <ele>19.45</ele>
        <time>2020-07-08T12:20:52Z</time>
      </trkpt>
      <trkpt lat="47.79035" lon="-3.52617">
        <ele>19.45</ele>
        <time>2020-07-08T12:20:53Z</time>
      </trkpt>
      <trkpt lat="47.79035" lon="-3.52617">
        <ele>19.45</ele>
        <time>2020-07-08T12:20:54Z</time>
      </trkpt>
      <trkpt lat="47.79035" lon="-3.52617">
        <ele>19.45</ele>
        <time>2020-07-08T12:20:55Z</time>
      </trkpt>
      <trkpt lat="47.79035" lon="-3.52617">
        <ele>19.45</ele>
        <time>2020-07-08T12:20:56Z</time>
      </trkpt>
      <trkpt lat="47.79035" lon="-3.52617">
        <ele>19.45</ele>
        <time>2020-07-08T12:20:57Z</time>
      </trkpt>
      <trkpt lat="47.79035" lon="-3.52617">
        <ele>19.45</ele>
        <time>2020-07-08T12:20:58Z</time>
      </trkpt>
      <trkpt lat="47.79035" lon="-3.52617">
        <ele>19.45</ele>
        <time>2020-07-08T12:20:59Z</time>
      </trkpt>
      <trkpt lat="47.79035" lon="-3.52617">
        <ele>19.45</ele>
        <time>2020-07-08T12:21:00Z</time>
      </trkpt>
      <trkpt lat="47.79035" lon="-3.52617">
        <ele>19.45</ele>
        <time>2020-07-08T12:21:01Z</time>
      </trkpt>
      <trkpt lat="47.79035" lon="-3.52617">
        <ele>19.45</ele>
        <time>2020-07-08T12:21:02Z</time>
      </trkpt>
      <trkpt lat="47.79035" lon="-3.52617">
        <ele>19.45</ele>
        <time>2020-07-08T12:21:03Z</time>
      </trkpt>
      <trkpt lat="47.79035" lon="-3.52617">
        <ele>19.45</ele>
        <time>2020-07-08T12:21:04Z</time>
      </trkpt>
      <trkpt lat="47.79035" lon="-3.52617">
        <ele>19.45</ele>
        <time>2020-07-08T12:21:05Z</time>
      </trkpt>
      <trkpt lat="47.79035" lon="-3.52617">
        <ele>19.45</ele>
        <time>2020-07-08T12:21:06Z</time>
      </trkpt>
      <trkpt lat="47.79035" lon="-3.52617">
        <ele>19.45</ele>
        <time>2020-07-08T12:21:07Z</time>
      </trkpt>
      <trkpt lat="47.79035" lon="-3.52617">
        <ele>19.45</ele>
        <time>2020-07-08T12:21:08Z</time>
      </trkpt>
      <trkpt lat="47.79035" lon="-3.52617">
        <ele>19.45</ele>
        <time>2020-07-08T12:21:09Z</time>
      </trkpt>
      <trkpt lat="47.79035" lon="-3.52617">
        <ele>19.45</ele>
        <time>2020-07-08T12:21:10Z</time>
      </trkpt>
      <trkpt lat="47.79035" lon="-3.52617">
        <ele>19.45</ele>
        <time>2020-07-08T12:21:11Z</time>
      </trkpt>
      <trkpt lat="47.79035" lon="-3.52617">
        <ele>19.45</ele>
        <time>2020-07-08T12:21:12Z</time>
      </trkpt>
      <trkpt lat="47.79035" lon="-3.52617">
        <ele>19.45</ele>
        <time>2020-07-08T12:21:13Z</time>
      </trkpt>
      <trkpt lat="47.79035" lon="-3.52617">
        <ele>19.45</ele>
        <time>2020-07-08T12:21:14Z</time>
      </trkpt>
      <trkpt lat="47.79035" lon="-3.52617">
        <ele>19.45</ele>
        <time>2020-07-08T12:21:15Z</time>
      </trkpt>
      <trkpt lat="47.79035" lon="-3.52617">
        <ele>19.45</ele>
        <time>2020-07-08T12:21:16Z</time>
      </trkpt>
      <trkpt lat="47.79035" lon="-3.52617">
        <ele>19.45</ele>
        <time>2020-07-08T12:21:17Z</time>
      </trkpt>
      <trkpt lat="47.79035" lon="-3.52617">
        <ele>19.45</ele>
        <time>2020-07-08T12:21:18Z</time>
      </trkpt>
      <trkpt lat="47.79035" lon="-3.52617">
        <ele>19.45</ele>
        <time>2020-07-08T12:21:19Z</time>
      </trkpt>
      <trkpt lat="47.79035" lon="-3.52617">
        <ele>19.45</ele>
        <time>2020-07-08T12:21:20Z</time>
      </trkpt>
      <trkpt lat="47.79035" lon="-3.52617">
        <ele>19.45</ele>
        <time>2020-07-08T12:21:21Z</time>
      </trkpt>
      <trkpt lat="47.79035" lon="-3.52617">
        <ele>19.45</ele>
        <time>2020-07-08T12:21:22Z</time>
      </trkpt>
      <trkpt lat="47.79035" lon="-3.52617">
        <ele>19.45</ele>
        <time>2020-07-08T12:21:23Z</time>
      </trkpt>
      <trkpt lat="47.79035" lon="-3.52617">
        <ele>19.45</ele>
        <time>2020-07-08T12:21:24Z</time>
      </trkpt>
      <trkpt lat="47.79035" lon="-3.52617">
        <ele>19.45</ele>
        <time>2020-07-08T12:21:25Z</time>
      </trkpt>
      <trkpt lat="47.79035" lon="-3.52617">
        <ele>19.45</ele>
        <time>2020-07-08T12:21:26Z</time>
      </trkpt>
      <trkpt lat="47.79035" lon="-3.52617">
        <ele>19.45</ele>
        <time>2020-07-08T12:21:27Z</time>
      </trkpt>
      <trkpt lat="47.79035" lon="-3.52617">
        <ele>19.45</ele>
        <time>2020-07-08T12:21:28Z</time>
      </trkpt>
      <trkpt lat="47.79035" lon="-3.52617">
        <ele>19.45</ele>
        <time>2020-07-08T12:21:29Z</time>
      </trkpt>
      <trkpt lat="47.79035" lon="-3.52617">
        <ele>19.45</ele>
        <time>2020-07-08T12:21:30Z</time>
      </trkpt>
      <trkpt lat="47.79035" lon="-3.52617">
        <ele>19.45</ele>
        <time>2020-07-08T12:21:31Z</time>
      </trkpt>
      <trkpt lat="47.79035" lon="-3.52617">
        <ele>19.45</ele>
        <time>2020-07-08T12:21:32Z</time>
      </trkpt>
      <trkpt lat="47.79035" lon="-3.52617">
        <ele>19.45</ele>
        <time>2020-07-08T12:21:33Z</time>
      </trkpt>
      <trkpt lat="47.79035" lon="-3.52617">
        <ele>19.45</ele>
        <time>2020-07-08T12:21:34Z</time>
      </trkpt>
      <trkpt lat="47.79035" lon="-3.52617">
        <ele>19.45</ele>
        <time>2020-07-08T12:21:35Z</time>
      </trkpt>
      <trkpt lat="47.79035" lon="-3.52617">
        <ele>19.45</ele>
        <time>2020-07-08T12:21:36Z</time>
      </trkpt>
      <trkpt lat="47.79035" lon="-3.52617">
        <ele>19.45</ele>
        <time>2020-07-08T12:21:37Z</time>
      </trkpt>
      <trkpt lat="47.79035" lon="-3.52617">
        <ele>19.45</ele>
        <time>2020-07-08T12:21:38Z</time>
      </trkpt>
      <trkpt lat="47.79035" lon="-3.52617">
        <ele>19.45</ele>
        <time>2020-07-08T12:21:39Z</time>
      </trkpt>
      <trkpt lat="47.79035" lon="-3.52617">
        <ele>19.45</ele>
        <time>2020-07-08T12:21:40Z</time>
      </trkpt>
      <trkpt lat="47.79035" lon="-3.52617">
        <ele>19.45</ele>
        <time>2020-07-08T12:21:41Z</time>
      </trkpt>
      <trkpt lat="47.79035" lon="-3.52617">
        <ele>19.45</ele>
        <time>2020-07-08T12:21:42Z</time>
      </trkpt>
      <trkpt lat="47.79035" lon="-3.52617">
        <ele>19.45</ele>
        <time>2020-07-08T12:21:43Z</time>
      </trkpt>
      <trkpt lat="47.79035" lon="-3.52617">
        <ele>19.45</ele>
        <time>2020-07-08T12:21:44Z</time>
      </trkpt>
      <trkpt lat="47.79035" lon="-3.52617">
        <ele>19.45</ele>
        <time>2020-07-08T12:21:45Z</time>
      </trkpt>
      <trkpt lat="47.79035" lon="-3.52617">
        <ele>19.45</ele>
        <time>2020-07-08T12:21:46Z</time>
      </trkpt>
      <trkpt lat="47.79035" lon="-3.52617">
        <ele>19.45</ele>
        <time>2020-07-08T12:21:47Z</time>
      </trkpt>
      <trkpt lat="47.79035" lon="-3.52617">
        <ele>19.45</ele>
        <time>2020-07-08T12:21:48Z</time>
      </trkpt>
      <trkpt lat="47.79035" lon="-3.52617">
        <ele>19.45</ele>
        <time>2020-07-08T12:21:49Z</time>
      </trkpt>
      <trkpt lat="47.79035" lon="-3.52617">
        <ele>19.45</ele>
        <time>2020-07-08T12:21:50Z</time>
      </trkpt>
      <trkpt lat="47.79035" lon="-3.52617">
        <ele>19.45</ele>
        <time>2020-07-08T12:21:51Z</time>
      </trkpt>
      <trkpt lat="47.79035" lon="-3.52617">
        <ele>19.45</ele>
        <time>2020-07-08T12:21:52Z</time>
      </trkpt>
      <trkpt lat="47.79035" lon="-3.52617">
        <ele>19.45</ele>
        <time>2020-07-08T12:21:53Z</time>
      </trkpt>
      <trkpt lat="47.79035" lon="-3.52617">
        <ele>19.45</ele>
        <time>2020-07-08T12:21:54Z</time>
      </trkpt>
      <trkpt lat="47.79035" lon="-3.52617">
        <ele>19.45</ele>
        <time>2020-07-08T12:21:55Z</time>
      </trkpt>
      <trkpt lat="47.79035" lon="-3.52617">
        <ele>19.45</ele>
        <time>2020-07-08T12:21:56Z</time>
      </trkpt>
      <trkpt lat="47.79035" lon="-3.52617">
        <ele>19.45</ele>
        <time>2020-07-08T12:21:57Z</time>
      </trkpt>
      <trkpt lat="47.79035" lon="-3.52617">
        <ele>19.45</ele>
        <time>2020-07-08T12:21:58Z</time>
      </trkpt>
      <trkpt lat="47.79035" lon="-3.52617">
        <ele>19.45</ele>
        <time>2020-07-08T12:21:59Z</time>
      </trkpt>
      <trkpt lat="47.79035" lon="-3.52617">
        <ele>19.45</ele>
        <time>2020-07-08T12:22:00Z</time>
      </trkpt>
      <trkpt lat="47.79035" lon="-3.52617">
        <ele>19.45</ele>
        <time>2020-07-08T12:22:01Z</time>
      </trkpt>
      <trkpt lat="47.79035" lon="-3.52617">
        <ele>19.45</ele>
        <time>2020-07-08T12:22:02Z</time>
      </trkpt>
      <trkpt lat="47.79035" lon="-3.52617">
        <ele>19.45</ele>
        <time>2020-07-08T12:22:03Z</time>
      </trkpt>
      <trkpt lat="47.79035" lon="-3.52617">
        <ele>19.45</ele>
        <time>2020-07-08T12:22:04Z</time>
      </trkpt>
      <trkpt lat="47.79035" lon="-3.52617">
        <ele>19.45</ele>
        <time>2020-07-08T12:22:05Z</time>
      </trkpt>
      <trkpt lat="47.79035" lon="-3.52617">
        <ele>19.45</ele>
        <time>2020-07-08T12:22:06Z</time>
      </trkpt>
      <trkpt lat="47.79035" lon="-3.52617">
        <ele>19.45</ele>
        <time>2020-07-08T12:22:07Z</time>
      </trkpt>
      <trkpt lat="47.79035" lon="-3.52617">
        <ele>19.45</ele>
        <time>2020-07-08T12:22:08Z</time>
      </trkpt>
      <trkpt lat="47.79035" lon="-3.52617">
        <ele>19.45</ele>
        <time>2020-07-08T12:22:09Z</time>
      </trkpt>
      <trkpt lat="47.79035" lon="-3.52617">
        <ele>19.45</ele>
        <time>2020-07-08T12:22:10Z</time>
      </trkpt>
      <trkpt lat="47.79035" lon="-3.52617">
        <ele>19.45</ele>
        <time>2020-07-08T12:22:11Z</time>
      </trkpt>
      <trkpt lat="47.79035" lon="-3.52617">
        <ele>19.45</ele>
        <time>2020-07-08T12:22:12Z</time>
      </trkpt>
      <trkpt lat="47.79035" lon="-3.52617">
        <ele>19.45</ele>
        <time>2020-07-08T12:22:13Z</time>
      </trkpt>
      <trkpt lat="47.79035" lon="-3.52617">
        <ele>19.45</ele>
        <time>2020-07-08T12:22:14Z</time>
      </trkpt>
      <trkpt lat="47.79035" lon="-3.52617">
        <ele>19.45</ele>
        <time>2020-07-08T12:22:15Z</time>
      </trkpt>
      <trkpt lat="47.79041" lon="-3.52627">
        <ele>18.05</ele>
        <time>2020-07-08T12:22:16Z</time>
      </trkpt>
      <trkpt lat="47.79042" lon="-3.52628">
        <ele>17.46</ele>
        <time>2020-07-08T12:22:17Z</time>
      </trkpt>
      <trkpt lat="47.79042" lon="-3.52628">
        <ele>17.3</ele>
        <time>2020-07-08T12:22:18Z</time>
      </trkpt>
      <trkpt lat="47.79042" lon="-3.52628">
        <ele>17.28</ele>
        <time>2020-07-08T12:22:19Z</time>
      </trkpt>
      <trkpt lat="47.79042" lon="-3.52628">
        <ele>17.27</ele>
        <time>2020-07-08T12:22:20Z</time>
      </trkpt>
      <trkpt lat="47.79042" lon="-3.52628">
        <ele>17.27</ele>
        <time>2020-07-08T12:22:21Z</time>
      </trkpt>
      <trkpt lat="47.79042" lon="-3.52628">
        <ele>17.26</ele>
        <time>2020-07-08T12:22:22Z</time>
      </trkpt>
      <trkpt lat="47.79042" lon="-3.52628">
        <ele>17.26</ele>
        <time>2020-07-08T12:22:23Z</time>
      </trkpt>
      <trkpt lat="47.79042" lon="-3.52628">
        <ele>17.26</ele>
        <time>2020-07-08T12:22:24Z</time>
      </trkpt>
      <trkpt lat="47.79042" lon="-3.52628">
        <ele>17.26</ele>
        <time>2020-07-08T12:22:25Z</time>
      </trkpt>
      <trkpt lat="47.79042" lon="-3.52628">
        <ele>17.26</ele>
        <time>2020-07-08T12:22:26Z</time>
      </trkpt>
      <trkpt lat="47.79042" lon="-3.52628">
        <ele>17.26</ele>
        <time>2020-07-08T12:22:27Z</time>
      </trkpt>
      <trkpt lat="47.79042" lon="-3.52628">
        <ele>17.26</ele>
        <time>2020-07-08T12:22:28Z</time>
      </trkpt>
      <trkpt lat="47.79042" lon="-3.52628">
        <ele>17.26</ele>
        <time>2020-07-08T12:22:29Z</time>
      </trkpt>
      <trkpt lat="47.79042" lon="-3.52628">
        <ele>17.26</ele>
        <time>2020-07-08T12:22:30Z</time>
      </trkpt>
      <trkpt lat="47.79042" lon="-3.52628">
        <ele>17.26</ele>
        <time>2020-07-08T12:22:31Z</time>
      </trkpt>
      <trkpt lat="47.79042" lon="-3.52628">
        <ele>17.26</ele>
        <time>2020-07-08T12:22:32Z</time>
      </trkpt>
      <trkpt lat="47.79042" lon="-3.52628">
        <ele>17.26</ele>
        <time>2020-07-08T12:22:33Z</time>
      </trkpt>
      <trkpt lat="47.79042" lon="-3.52628">
        <ele>17.26</ele>
        <time>2020-07-08T12:22:34Z</time>
      </trkpt>
      <trkpt lat="47.79042" lon="-3.52628">
        <ele>17.26</ele>
        <time>2020-07-08T12:22:35Z</time>
      </trkpt>
      <trkpt lat="47.79042" lon="-3.52628">
        <ele>17.26</ele>
        <time>2020-07-08T12:22:36Z</time>
      </trkpt>
      <trkpt lat="47.79042" lon="-3.52628">
        <ele>17.26</ele>
        <time>2020-07-08T12:22:37Z</time>
      </trkpt>
      <trkpt lat="47.79042" lon="-3.52628">
        <ele>17.26</ele>
        <time>2020-07-08T12:22:38Z</time>
      </trkpt>
      <trkpt lat="47.79042" lon="-3.52628">
        <ele>17.26</ele>
        <time>2020-07-08T12:22:39Z</time>
      </trkpt>
      <trkpt lat="47.79042" lon="-3.52628">
        <ele>17.26</ele>
        <time>2020-07-08T12:22:40Z</time>
      </trkpt>
      <trkpt lat="47.79042" lon="-3.52628">
        <ele>17.26</ele>
        <time>2020-07-08T12:22:41Z</time>
      </trkpt>
      <trkpt lat="47.79042" lon="-3.52628">
        <ele>17.26</ele>
        <time>2020-07-08T12:22:42Z</time>
      </trkpt>
      <trkpt lat="47.79042" lon="-3.52628">
        <ele>17.26</ele>
        <time>2020-07-08T12:22:43Z</time>
      </trkpt>
      <trkpt lat="47.79042" lon="-3.52628">
        <ele>17.26</ele>
        <time>2020-07-08T12:22:44Z</time>
      </trkpt>
      <trkpt lat="47.79042" lon="-3.52628">
        <ele>17.26</ele>
        <time>2020-07-08T12:22:45Z</time>
      </trkpt>
      <trkpt lat="47.79042" lon="-3.52628">
        <ele>17.26</ele>
        <time>2020-07-08T12:22:46Z</time>
      </trkpt>
      <trkpt lat="47.79042" lon="-3.52628">
        <ele>17.26</ele>
        <time>2020-07-08T12:22:47Z</time>
      </trkpt>
      <trkpt lat="47.79042" lon="-3.52628">
        <ele>17.26</ele>
        <time>2020-07-08T12:22:48Z</time>
      </trkpt>
      <trkpt lat="47.79042" lon="-3.52628">
        <ele>17.26</ele>
        <time>2020-07-08T12:22:49Z</time>
      </trkpt>
      <trkpt lat="47.79042" lon="-3.52628">
        <ele>17.26</ele>
        <time>2020-07-08T12:22:50Z</time>
      </trkpt>
      <trkpt lat="47.79042" lon="-3.52628">
        <ele>17.26</ele>
        <time>2020-07-08T12:22:51Z</time>
      </trkpt>
      <trkpt lat="47.79042" lon="-3.52628">
        <ele>17.26</ele>
        <time>2020-07-08T12:22:52Z</time>
      </trkpt>
      <trkpt lat="47.79042" lon="-3.52628">
        <ele>17.26</ele>
        <time>2020-07-08T12:22:53Z</time>
      </trkpt>
      <trkpt lat="47.79042" lon="-3.52628">
        <ele>17.26</ele>
        <time>2020-07-08T12:22:54Z</time>
      </trkpt>
      <trkpt lat="47.79042" lon="-3.52628">
        <ele>17.26</ele>
        <time>2020-07-08T12:22:55Z</time>
      </trkpt>
      <trkpt lat="47.79042" lon="-3.52628">
        <ele>17.26</ele>
        <time>2020-07-08T12:22:56Z</time>
      </trkpt>
      <trkpt lat="47.79042" lon="-3.52628">
        <ele>17.26</ele>
        <time>2020-07-08T12:22:57Z</time>
      </trkpt>
      <trkpt lat="47.79042" lon="-3.52628">
        <ele>17.26</ele>
        <time>2020-07-08T12:22:58Z</time>
      </trkpt>
      <trkpt lat="47.79042" lon="-3.52628">
        <ele>17.26</ele>
        <time>2020-07-08T12:22:59Z</time>
      </trkpt>
      <trkpt lat="47.79042" lon="-3.52628">
        <ele>17.26</ele>
        <time>2020-07-08T12:23:00Z</time>
      </trkpt>
      <trkpt lat="47.79042" lon="-3.52628">
        <ele>17.26</ele>
        <time>2020-07-08T12:23:01Z</time>
      </trkpt>
      <trkpt lat="47.79042" lon="-3.52628">
        <ele>17.26</ele>
        <time>2020-07-08T12:23:02Z</time>
      </trkpt>
      <trkpt lat="47.79042" lon="-3.52628">
        <ele>17.26</ele>
        <time>2020-07-08T12:23:03Z</time>
      </trkpt>
      <trkpt lat="47.79042" lon="-3.52628">
        <ele>17.26</ele>
        <time>2020-07-08T12:23:04Z</time>
      </trkpt>
      <trkpt lat="47.79042" lon="-3.52628">
        <ele>17.26</ele>
        <time>2020-07-08T12:23:05Z</time>
      </trkpt>
      <trkpt lat="47.79042" lon="-3.52628">
        <ele>17.26</ele>
        <time>2020-07-08T12:23:06Z</time>
      </trkpt>
      <trkpt lat="47.79042" lon="-3.52628">
        <ele>17.26</ele>
        <time>2020-07-08T12:23:07Z</time>
      </trkpt>
      <trkpt lat="47.79042" lon="-3.52628">
        <ele>17.26</ele>
        <time>2020-07-08T12:23:08Z</time>
      </trkpt>
      <trkpt lat="47.79042" lon="-3.52628">
        <ele>17.26</ele>
        <time>2020-07-08T12:23:09Z</time>
      </trkpt>
      <trkpt lat="47.79042" lon="-3.52628">
        <ele>17.26</ele>
        <time>2020-07-08T12:23:10Z</time>
      </trkpt>
      <trkpt lat="47.79042" lon="-3.52628">
        <ele>17.26</ele>
        <time>2020-07-08T12:23:11Z</time>
      </trkpt>
      <trkpt lat="47.79042" lon="-3.52628">
        <ele>17.26</ele>
        <time>2020-07-08T12:23:12Z</time>
      </trkpt>
      <trkpt lat="47.79042" lon="-3.52628">
        <ele>17.26</ele>
        <time>2020-07-08T12:23:13Z</time>
      </trkpt>
      <trkpt lat="47.79042" lon="-3.52628">
        <ele>17.26</ele>
        <time>2020-07-08T12:23:14Z</time>
      </trkpt>
      <trkpt lat="47.79042" lon="-3.52628">
        <ele>17.26</ele>
        <time>2020-07-08T12:23:15Z</time>
      </trkpt>
      <trkpt lat="47.79042" lon="-3.52628">
        <ele>17.26</ele>
        <time>2020-07-08T12:23:16Z</time>
      </trkpt>
      <trkpt lat="47.79042" lon="-3.52628">
        <ele>17.26</ele>
        <time>2020-07-08T12:23:17Z</time>
      </trkpt>
      <trkpt lat="47.79042" lon="-3.52628">
        <ele>17.26</ele>
        <time>2020-07-08T12:23:18Z</time>
      </trkpt>
      <trkpt lat="47.79042" lon="-3.52628">
        <ele>17.26</ele>
        <time>2020-07-08T12:23:19Z</time>
      </trkpt>
      <trkpt lat="47.79042" lon="-3.52628">
        <ele>17.26</ele>
        <time>2020-07-08T12:23:20Z</time>
      </trkpt>
      <trkpt lat="47.79042" lon="-3.52628">
        <ele>17.26</ele>
        <time>2020-07-08T12:23:21Z</time>
      </trkpt>
      <trkpt lat="47.79042" lon="-3.52628">
        <ele>17.26</ele>
        <time>2020-07-08T12:23:22Z</time>
      </trkpt>
      <trkpt lat="47.79042" lon="-3.52628">
        <ele>17.26</ele>
        <time>2020-07-08T12:23:23Z</time>
      </trkpt>
      <trkpt lat="47.79042" lon="-3.52628">
        <ele>17.26</ele>
        <time>2020-07-08T12:23:24Z</time>
      </trkpt>
      <trkpt lat="47.79042" lon="-3.52628">
        <ele>17.26</ele>
        <time>2020-07-08T12:23:25Z</time>
      </trkpt>
      <trkpt lat="47.79042" lon="-3.52628">
        <ele>17.26</ele>
        <time>2020-07-08T12:23:26Z</time>
      </trkpt>
      <trkpt lat="47.79042" lon="-3.52628">
        <ele>17.26</ele>
        <time>2020-07-08T12:23:27Z</time>
      </trkpt>
      <trkpt lat="47.79042" lon="-3.52628">
        <ele>17.26</ele>
        <time>2020-07-08T12:23:28Z</time>
      </trkpt>
      <trkpt lat="47.79042" lon="-3.52628">
        <ele>17.26</ele>
        <time>2020-07-08T12:23:29Z</time>
      </trkpt>
      <trkpt lat="47.79042" lon="-3.52628">
        <ele>17.26</ele>
        <time>2020-07-08T12:23:30Z</time>
      </trkpt>
      <trkpt lat="47.79042" lon="-3.52628">
        <ele>17.26</ele>
        <time>2020-07-08T12:23:31Z</time>
      </trkpt>
      <trkpt lat="47.79042" lon="-3.52628">
        <ele>17.26</ele>
        <time>2020-07-08T12:23:32Z</time>
      </trkpt>
      <trkpt lat="47.79042" lon="-3.52628">
        <ele>17.26</ele>
        <time>2020-07-08T12:23:33Z</time>
      </trkpt>
      <trkpt lat="47.79042" lon="-3.52628">
        <ele>17.26</ele>
        <time>2020-07-08T12:23:34Z</time>
      </trkpt>
      <trkpt lat="47.79042" lon="-3.52628">
        <ele>17.26</ele>
        <time>2020-07-08T12:23:35Z</time>
      </trkpt>
      <trkpt lat="47.79042" lon="-3.52628">
        <ele>17.26</ele>
        <time>2020-07-08T12:23:36Z</time>
      </trkpt>
      <trkpt lat="47.79042" lon="-3.52628">
        <ele>17.26</ele>
        <time>2020-07-08T12:23:37Z</time>
      </trkpt>
      <trkpt lat="47.79042" lon="-3.52628">
        <ele>17.26</ele>
        <time>2020-07-08T12:23:38Z</time>
      </trkpt>
      <trkpt lat="47.79042" lon="-3.52628">
        <ele>17.26</ele>
        <time>2020-07-08T12:23:39Z</time>
      </trkpt>
      <trkpt lat="47.79042" lon="-3.52628">
        <ele>17.26</ele>
        <time>2020-07-08T12:23:40Z</time>
      </trkpt>
      <trkpt lat="47.79042" lon="-3.52628">
        <ele>17.26</ele>
        <time>2020-07-08T12:23:41Z</time>
      </trkpt>
      <trkpt lat="47.79042" lon="-3.52628">
        <ele>17.26</ele>
        <time>2020-07-08T12:23:42Z</time>
      </trkpt>
      <trkpt lat="47.79042" lon="-3.52628">
        <ele>17.26</ele>
        <time>2020-07-08T12:23:43Z</time>
      </trkpt>
      <trkpt lat="47.79042" lon="-3.52628">
        <ele>17.26</ele>
        <time>2020-07-08T12:23:44Z</time>
      </trkpt>
      <trkpt lat="47.79042" lon="-3.52628">
        <ele>17.26</ele>
        <time>2020-07-08T12:23:45Z</time>
      </trkpt>
      <trkpt lat="47.79042" lon="-3.52628">
        <ele>17.26</ele>
        <time>2020-07-08T12:23:46Z</time>
      </trkpt>
      <trkpt lat="47.79042" lon="-3.52628">
        <ele>17.26</ele>
        <time>2020-07-08T12:23:47Z</time>
      </trkpt>
      <trkpt lat="47.79042" lon="-3.52628">
        <ele>17.26</ele>
        <time>2020-07-08T12:23:48Z</time>
      </trkpt>
      <trkpt lat="47.79042" lon="-3.52628">
        <ele>17.26</ele>
        <time>2020-07-08T12:23:49Z</time>
      </trkpt>
      <trkpt lat="47.79042" lon="-3.52628">
        <ele>17.26</ele>
        <time>2020-07-08T12:23:50Z</time>
      </trkpt>
      <trkpt lat="47.79042" lon="-3.52628">
        <ele>17.26</ele>
        <time>2020-07-08T12:23:51Z</time>
      </trkpt>
      <trkpt lat="47.79042" lon="-3.52628">
        <ele>17.26</ele>
        <time>2020-07-08T12:23:52Z</time>
      </trkpt>
      <trkpt lat="47.79042" lon="-3.52628">
        <ele>17.26</ele>
        <time>2020-07-08T12:23:53Z</time>
      </trkpt>
      <trkpt lat="47.79042" lon="-3.52628">
        <ele>17.26</ele>
        <time>2020-07-08T12:23:54Z</time>
      </trkpt>
      <trkpt lat="47.79042" lon="-3.52628">
        <ele>17.26</ele>
        <time>2020-07-08T12:23:55Z</time>
      </trkpt>
      <trkpt lat="47.79042" lon="-3.52628">
        <ele>17.26</ele>
        <time>2020-07-08T12:23:56Z</time>
      </trkpt>
      <trkpt lat="47.79042" lon="-3.52628">
        <ele>17.26</ele>
        <time>2020-07-08T12:23:57Z</time>
      </trkpt>
      <trkpt lat="47.79042" lon="-3.52628">
        <ele>17.26</ele>
        <time>2020-07-08T12:23:58Z</time>
      </trkpt>
      <trkpt lat="47.79042" lon="-3.52628">
        <ele>17.26</ele>
        <time>2020-07-08T12:23:59Z</time>
      </trkpt>
      <trkpt lat="47.79042" lon="-3.52628">
        <ele>17.26</ele>
        <time>2020-07-08T12:24:00Z</time>
      </trkpt>
      <trkpt lat="47.79042" lon="-3.52628">
        <ele>17.26</ele>
        <time>2020-07-08T12:24:01Z</time>
      </trkpt>
      <trkpt lat="47.79042" lon="-3.52628">
        <ele>17.26</ele>
        <time>2020-07-08T12:24:02Z</time>
      </trkpt>
      <trkpt lat="47.79042" lon="-3.52628">
        <ele>17.26</ele>
        <time>2020-07-08T12:24:03Z</time>
      </trkpt>
      <trkpt lat="47.79042" lon="-3.52628">
        <ele>17.26</ele>
        <time>2020-07-08T12:24:04Z</time>
      </trkpt>
      <trkpt lat="47.79042" lon="-3.52628">
        <ele>17.26</ele>
        <time>2020-07-08T12:24:05Z</time>
      </trkpt>
      <trkpt lat="47.79042" lon="-3.52628">
        <ele>17.26</ele>
        <time>2020-07-08T12:24:06Z</time>
      </trkpt>
      <trkpt lat="47.79042" lon="-3.52628">
        <ele>17.26</ele>
        <time>2020-07-08T12:24:07Z</time>
      </trkpt>
      <trkpt lat="47.79042" lon="-3.52628">
        <ele>17.26</ele>
        <time>2020-07-08T12:24:08Z</time>
      </trkpt>
      <trkpt lat="47.79042" lon="-3.52628">
        <ele>17.26</ele>
        <time>2020-07-08T12:24:09Z</time>
      </trkpt>
      <trkpt lat="47.79042" lon="-3.52628">
        <ele>17.26</ele>
        <time>2020-07-08T12:24:10Z</time>
      </trkpt>
      <trkpt lat="47.79042" lon="-3.52628">
        <ele>17.26</ele>
        <time>2020-07-08T12:24:11Z</time>
      </trkpt>
      <trkpt lat="47.79042" lon="-3.52628">
        <ele>17.26</ele>
        <time>2020-07-08T12:24:12Z</time>
      </trkpt>
      <trkpt lat="47.79042" lon="-3.52628">
        <ele>17.26</ele>
        <time>2020-07-08T12:24:13Z</time>
      </trkpt>
      <trkpt lat="47.79042" lon="-3.52628">
        <ele>17.26</ele>
        <time>2020-07-08T12:24:14Z</time>
      </trkpt>
      <trkpt lat="47.79042" lon="-3.52628">
        <ele>17.26</ele>
        <time>2020-07-08T12:24:15Z</time>
      </trkpt>
      <trkpt lat="47.79042" lon="-3.52628">
        <ele>17.26</ele>
        <time>2020-07-08T12:24:16Z</time>
      </trkpt>
      <trkpt lat="47.79042" lon="-3.52628">
        <ele>17.26</ele>
        <time>2020-07-08T12:24:17Z</time>
      </trkpt>
      <trkpt lat="47.79042" lon="-3.52628">
        <ele>17.26</ele>
        <time>2020-07-08T12:24:18Z</time>
      </trkpt>
      <trkpt lat="47.79042" lon="-3.52628">
        <ele>17.26</ele>
        <time>2020-07-08T12:24:19Z</time>
      </trkpt>
      <trkpt lat="47.79042" lon="-3.52628">
        <ele>17.26</ele>
        <time>2020-07-08T12:24:20Z</time>
      </trkpt>
      <trkpt lat="47.79042" lon="-3.52628">
        <ele>17.26</ele>
        <time>2020-07-08T12:24:21Z</time>
      </trkpt>
      <trkpt lat="47.79042" lon="-3.52628">
        <ele>17.26</ele>
        <time>2020-07-08T12:24:22Z</time>
      </trkpt>
      <trkpt lat="47.79042" lon="-3.52628">
        <ele>17.26</ele>
        <time>2020-07-08T12:24:23Z</time>
      </trkpt>
      <trkpt lat="47.79042" lon="-3.52628">
        <ele>17.26</ele>
        <time>2020-07-08T12:24:24Z</time>
      </trkpt>
      <trkpt lat="47.79042" lon="-3.52628">
        <ele>17.26</ele>
        <time>2020-07-08T12:24:25Z</time>
      </trkpt>
      <trkpt lat="47.79042" lon="-3.52628">
        <ele>17.26</ele>
        <time>2020-07-08T12:24:26Z</time>
      </trkpt>
      <trkpt lat="47.79042" lon="-3.52628">
        <ele>17.26</ele>
        <time>2020-07-08T12:24:27Z</time>
      </trkpt>
      <trkpt lat="47.79042" lon="-3.52628">
        <ele>17.26</ele>
        <time>2020-07-08T12:24:28Z</time>
      </trkpt>
      <trkpt lat="47.79042" lon="-3.52628">
        <ele>17.26</ele>
        <time>2020-07-08T12:24:29Z</time>
      </trkpt>
      <trkpt lat="47.79042" lon="-3.52628">
        <ele>17.26</ele>
        <time>2020-07-08T12:24:30Z</time>
      </trkpt>
      <trkpt lat="47.79042" lon="-3.52628">
        <ele>17.26</ele>
        <time>2020-07-08T12:24:31Z</time>
      </trkpt>
      <trkpt lat="47.79042" lon="-3.52628">
        <ele>17.26</ele>
        <time>2020-07-08T12:24:32Z</time>
      </trkpt>
      <trkpt lat="47.79042" lon="-3.52628">
        <ele>17.26</ele>
        <time>2020-07-08T12:24:33Z</time>
      </trkpt>
      <trkpt lat="47.79042" lon="-3.52628">
        <ele>17.26</ele>
        <time>2020-07-08T12:24:34Z</time>
      </trkpt>
      <trkpt lat="47.79042" lon="-3.52628">
        <ele>17.26</ele>
        <time>2020-07-08T12:24:35Z</time>
      </trkpt>
      <trkpt lat="47.79042" lon="-3.52628">
        <ele>17.26</ele>
        <time>2020-07-08T12:24:36Z</time>
      </trkpt>
      <trkpt lat="47.79042" lon="-3.52628">
        <ele>17.26</ele>
        <time>2020-07-08T12:24:37Z</time>
      </trkpt>
      <trkpt lat="47.79042" lon="-3.52628">
        <ele>17.26</ele>
        <time>2020-07-08T12:24:38Z</time>
      </trkpt>
      <trkpt lat="47.79042" lon="-3.52628">
        <ele>17.26</ele>
        <time>2020-07-08T12:24:39Z</time>
      </trkpt>
      <trkpt lat="47.79042" lon="-3.52628">
        <ele>17.26</ele>
        <time>2020-07-08T12:24:40Z</time>
      </trkpt>
      <trkpt lat="47.79042" lon="-3.52628">
        <ele>17.26</ele>
        <time>2020-07-08T12:24:41Z</time>
      </trkpt>
      <trkpt lat="47.79042" lon="-3.52628">
        <ele>17.26</ele>
        <time>2020-07-08T12:24:42Z</time>
      </trkpt>
      <trkpt lat="47.79042" lon="-3.52628">
        <ele>17.26</ele>
        <time>2020-07-08T12:24:43Z</time>
      </trkpt>
      <trkpt lat="47.79042" lon="-3.52628">
        <ele>17.26</ele>
        <time>2020-07-08T12:24:44Z</time>
      </trkpt>
      <trkpt lat="47.79042" lon="-3.52628">
        <ele>17.26</ele>
        <time>2020-07-08T12:24:45Z</time>
      </trkpt>
      <trkpt lat="47.79042" lon="-3.52628">
        <ele>17.26</ele>
        <time>2020-07-08T12:24:46Z</time>
      </trkpt>
      <trkpt lat="47.79042" lon="-3.52628">
        <ele>17.26</ele>
        <time>2020-07-08T12:24:47Z</time>
      </trkpt>
      <trkpt lat="47.79042" lon="-3.52628">
        <ele>17.26</ele>
        <time>2020-07-08T12:24:48Z</time>
      </trkpt>
      <trkpt lat="47.79042" lon="-3.52628">
        <ele>17.26</ele>
        <time>2020-07-08T12:24:49Z</time>
      </trkpt>
      <trkpt lat="47.79042" lon="-3.52628">
        <ele>17.26</ele>
        <time>2020-07-08T12:24:50Z</time>
      </trkpt>
      <trkpt lat="47.79042" lon="-3.52628">
        <ele>17.26</ele>
        <time>2020-07-08T12:24:51Z</time>
      </trkpt>
      <trkpt lat="47.79042" lon="-3.52628">
        <ele>17.26</ele>
        <time>2020-07-08T12:24:52Z</time>
      </trkpt>
      <trkpt lat="47.79042" lon="-3.52628">
        <ele>17.26</ele>
        <time>2020-07-08T12:24:53Z</time>
      </trkpt>
      <trkpt lat="47.79042" lon="-3.52628">
        <ele>17.26</ele>
        <time>2020-07-08T12:24:54Z</time>
      </trkpt>
      <trkpt lat="47.79042" lon="-3.52628">
        <ele>17.26</ele>
        <time>2020-07-08T12:24:55Z</time>
      </trkpt>
      <trkpt lat="47.79042" lon="-3.52628">
        <ele>17.26</ele>
        <time>2020-07-08T12:24:56Z</time>
      </trkpt>
      <trkpt lat="47.79042" lon="-3.52628">
        <ele>17.26</ele>
        <time>2020-07-08T12:24:57Z</time>
      </trkpt>
      <trkpt lat="47.79042" lon="-3.52628">
        <ele>17.26</ele>
        <time>2020-07-08T12:24:58Z</time>
      </trkpt>
      <trkpt lat="47.79042" lon="-3.52628">
        <ele>17.26</ele>
        <time>2020-07-08T12:24:59Z</time>
      </trkpt>
      <trkpt lat="47.79042" lon="-3.52628">
        <ele>17.26</ele>
        <time>2020-07-08T12:25:00Z</time>
      </trkpt>
      <trkpt lat="47.79042" lon="-3.52628">
        <ele>17.26</ele>
        <time>2020-07-08T12:25:01Z</time>
      </trkpt>
      <trkpt lat="47.79042" lon="-3.52628">
        <ele>17.26</ele>
        <time>2020-07-08T12:25:02Z</time>
      </trkpt>
      <trkpt lat="47.79042" lon="-3.52628">
        <ele>17.26</ele>
        <time>2020-07-08T12:25:03Z</time>
      </trkpt>
      <trkpt lat="47.79042" lon="-3.52628">
        <ele>17.26</ele>
        <time>2020-07-08T12:25:04Z</time>
      </trkpt>
      <trkpt lat="47.79042" lon="-3.52628">
        <ele>17.26</ele>
        <time>2020-07-08T12:25:05Z</time>
      </trkpt>
      <trkpt lat="47.79042" lon="-3.52628">
        <ele>17.26</ele>
        <time>2020-07-08T12:25:06Z</time>
      </trkpt>
      <trkpt lat="47.79042" lon="-3.52628">
        <ele>17.26</ele>
        <time>2020-07-08T12:25:07Z</time>
      </trkpt>
      <trkpt lat="47.79042" lon="-3.52628">
        <ele>17.26</ele>
        <time>2020-07-08T12:25:08Z</time>
      </trkpt>
      <trkpt lat="47.79042" lon="-3.52628">
        <ele>17.26</ele>
        <time>2020-07-08T12:25:09Z</time>
      </trkpt>
      <trkpt lat="47.79042" lon="-3.52628">
        <ele>17.26</ele>
        <time>2020-07-08T12:25:10Z</time>
      </trkpt>
      <trkpt lat="47.79042" lon="-3.52628">
        <ele>17.26</ele>
        <time>2020-07-08T12:25:11Z</time>
      </trkpt>
      <trkpt lat="47.79042" lon="-3.52628">
        <ele>17.26</ele>
        <time>2020-07-08T12:25:12Z</time>
      </trkpt>
      <trkpt lat="47.79042" lon="-3.52628">
        <ele>17.26</ele>
        <time>2020-07-08T12:25:13Z</time>
      </trkpt>
      <trkpt lat="47.79042" lon="-3.52628">
        <ele>17.26</ele>
        <time>2020-07-08T12:25:14Z</time>
      </trkpt>
      <trkpt lat="47.79042" lon="-3.52628">
        <ele>17.26</ele>
        <time>2020-07-08T12:25:15Z</time>
      </trkpt>
      <trkpt lat="47.79042" lon="-3.52628">
        <ele>17.26</ele>
        <time>2020-07-08T12:25:16Z</time>
      </trkpt>
      <trkpt lat="47.79042" lon="-3.52628">
        <ele>17.26</ele>
        <time>2020-07-08T12:25:17Z</time>
      </trkpt>
      <trkpt lat="47.79042" lon="-3.52628">
        <ele>17.26</ele>
        <time>2020-07-08T12:25:18Z</time>
      </trkpt>
      <trkpt lat="47.79042" lon="-3.52628">
        <ele>17.26</ele>
        <time>2020-07-08T12:25:19Z</time>
      </trkpt>
      <trkpt lat="47.79042" lon="-3.52628">
        <ele>17.26</ele>
        <time>2020-07-08T12:25:20Z</time>
      </trkpt>
      <trkpt lat="47.79042" lon="-3.52628">
        <ele>17.26</ele>
        <time>2020-07-08T12:25:21Z</time>
      </trkpt>
      <trkpt lat="47.79042" lon="-3.52628">
        <ele>17.26</ele>
        <time>2020-07-08T12:25:22Z</time>
      </trkpt>
      <trkpt lat="47.79033" lon="-3.52633">
        <ele>17.91</ele>
        <time>2020-07-08T12:25:23Z</time>
      </trkpt>
      <trkpt lat="47.79033" lon="-3.52633">
        <ele>18.19</ele>
        <time>2020-07-08T12:25:24Z</time>
      </trkpt>
      <trkpt lat="47.79032" lon="-3.52633">
        <ele>18.29</ele>
        <time>2020-07-08T12:25:25Z</time>
      </trkpt>
      <trkpt lat="47.79032" lon="-3.52633">
        <ele>18.34</ele>
        <time>2020-07-08T12:25:26Z</time>
      </trkpt>
      <trkpt lat="47.79032" lon="-3.52633">
        <ele>18.36</ele>
        <time>2020-07-08T12:25:27Z</time>
      </trkpt>
      <trkpt lat="47.79032" lon="-3.52633">
        <ele>18.36</ele>
        <time>2020-07-08T12:25:28Z</time>
      </trkpt>
      <trkpt lat="47.79032" lon="-3.52633">
        <ele>18.37</ele>
        <time>2020-07-08T12:25:29Z</time>
      </trkpt>
      <trkpt lat="47.79032" lon="-3.52633">
        <ele>18.37</ele>
        <time>2020-07-08T12:25:30Z</time>
      </trkpt>
      <trkpt lat="47.79032" lon="-3.52633">
        <ele>18.37</ele>
        <time>2020-07-08T12:25:31Z</time>
      </trkpt>
      <trkpt lat="47.79032" lon="-3.52633">
        <ele>18.37</ele>
        <time>2020-07-08T12:25:32Z</time>
      </trkpt>
      <trkpt lat="47.79032" lon="-3.52633">
        <ele>18.37</ele>
        <time>2020-07-08T12:25:33Z</time>
      </trkpt>
      <trkpt lat="47.79032" lon="-3.52633">
        <ele>18.37</ele>
        <time>2020-07-08T12:25:34Z</time>
      </trkpt>
      <trkpt lat="47.79032" lon="-3.52633">
        <ele>18.37</ele>
        <time>2020-07-08T12:25:35Z</time>
      </trkpt>
      <trkpt lat="47.79032" lon="-3.52633">
        <ele>18.37</ele>
        <time>2020-07-08T12:25:36Z</time>
      </trkpt>
      <trkpt lat="47.79032" lon="-3.52633">
        <ele>18.37</ele>
        <time>2020-07-08T12:25:37Z</time>
      </trkpt>
      <trkpt lat="47.79032" lon="-3.52633">
        <ele>18.37</ele>
        <time>2020-07-08T12:25:38Z</time>
      </trkpt>
      <trkpt lat="47.79032" lon="-3.52633">
        <ele>18.37</ele>
        <time>2020-07-08T12:25:39Z</time>
      </trkpt>
      <trkpt lat="47.79032" lon="-3.52633">
        <ele>18.37</ele>
        <time>2020-07-08T12:25:40Z</time>
      </trkpt>
      <trkpt lat="47.79032" lon="-3.52633">
        <ele>18.37</ele>
        <time>2020-07-08T12:25:41Z</time>
      </trkpt>
      <trkpt lat="47.79032" lon="-3.52633">
        <ele>18.37</ele>
        <time>2020-07-08T12:25:42Z</time>
      </trkpt>
      <trkpt lat="47.79032" lon="-3.52633">
        <ele>18.37</ele>
        <time>2020-07-08T12:25:43Z</time>
      </trkpt>
      <trkpt lat="47.79032" lon="-3.52633">
        <ele>18.37</ele>
        <time>2020-07-08T12:25:44Z</time>
      </trkpt>
      <trkpt lat="47.79032" lon="-3.52633">
        <ele>18.37</ele>
        <time>2020-07-08T12:25:45Z</time>
      </trkpt>
      <trkpt lat="47.79032" lon="-3.52633">
        <ele>18.37</ele>
        <time>2020-07-08T12:25:46Z</time>
      </trkpt>
      <trkpt lat="47.79032" lon="-3.52633">
        <ele>18.37</ele>
        <time>2020-07-08T12:25:47Z</time>
      </trkpt>
      <trkpt lat="47.79032" lon="-3.52633">
        <ele>18.37</ele>
        <time>2020-07-08T12:25:48Z</time>
      </trkpt>
      <trkpt lat="47.79032" lon="-3.52633">
        <ele>18.37</ele>
        <time>2020-07-08T12:25:49Z</time>
      </trkpt>
      <trkpt lat="47.79032" lon="-3.52633">
        <ele>18.37</ele>
        <time>2020-07-08T12:25:50Z</time>
      </trkpt>
      <trkpt lat="47.79032" lon="-3.52633">
        <ele>18.37</ele>
        <time>2020-07-08T12:25:51Z</time>
      </trkpt>
      <trkpt lat="47.79032" lon="-3.52633">
        <ele>18.37</ele>
        <time>2020-07-08T12:25:52Z</time>
      </trkpt>
      <trkpt lat="47.79032" lon="-3.52633">
        <ele>18.37</ele>
        <time>2020-07-08T12:25:53Z</time>
      </trkpt>
      <trkpt lat="47.79032" lon="-3.52633">
        <ele>18.37</ele>
        <time>2020-07-08T12:25:54Z</time>
      </trkpt>
      <trkpt lat="47.79032" lon="-3.52633">
        <ele>18.37</ele>
        <time>2020-07-08T12:25:55Z</time>
      </trkpt>
      <trkpt lat="47.79032" lon="-3.52633">
        <ele>18.37</ele>
        <time>2020-07-08T12:25:56Z</time>
      </trkpt>
      <trkpt lat="47.79032" lon="-3.52633">
        <ele>18.37</ele>
        <time>2020-07-08T12:25:57Z</time>
      </trkpt>
      <trkpt lat="47.79032" lon="-3.52633">
        <ele>18.37</ele>
        <time>2020-07-08T12:25:58Z</time>
      </trkpt>
      <trkpt lat="47.79032" lon="-3.52633">
        <ele>18.37</ele>
        <time>2020-07-08T12:25:59Z</time>
      </trkpt>
      <trkpt lat="47.79032" lon="-3.52633">
        <ele>18.37</ele>
        <time>2020-07-08T12:26:00Z</time>
      </trkpt>
      <trkpt lat="47.79032" lon="-3.52633">
        <ele>18.37</ele>
        <time>2020-07-08T12:26:01Z</time>
      </trkpt>
      <trkpt lat="47.79032" lon="-3.52633">
        <ele>18.37</ele>
        <time>2020-07-08T12:26:02Z</time>
      </trkpt>
      <trkpt lat="47.79032" lon="-3.52633">
        <ele>18.37</ele>
        <time>2020-07-08T12:26:03Z</time>
      </trkpt>
      <trkpt lat="47.79032" lon="-3.52633">
        <ele>18.37</ele>
        <time>2020-07-08T12:26:04Z</time>
      </trkpt>
      <trkpt lat="47.79032" lon="-3.52633">
        <ele>18.37</ele>
        <time>2020-07-08T12:26:05Z</time>
      </trkpt>
      <trkpt lat="47.79032" lon="-3.52633">
        <ele>18.37</ele>
        <time>2020-07-08T12:26:06Z</time>
      </trkpt>
      <trkpt lat="47.79032" lon="-3.52633">
        <ele>18.37</ele>
        <time>2020-07-08T12:26:07Z</time>
      </trkpt>
      <trkpt lat="47.79032" lon="-3.52633">
        <ele>18.37</ele>
        <time>2020-07-08T12:26:08Z</time>
      </trkpt>
      <trkpt lat="47.79032" lon="-3.52633">
        <ele>18.37</ele>
        <time>2020-07-08T12:26:09Z</time>
      </trkpt>
      <trkpt lat="47.79032" lon="-3.52633">
        <ele>18.37</ele>
        <time>2020-07-08T12:26:10Z</time>
      </trkpt>
      <trkpt lat="47.79032" lon="-3.52633">
        <ele>18.37</ele>
        <time>2020-07-08T12:26:11Z</time>
      </trkpt>
      <trkpt lat="47.79032" lon="-3.52633">
        <ele>18.37</ele>
        <time>2020-07-08T12:26:12Z</time>
      </trkpt>
      <trkpt lat="47.79032" lon="-3.52633">
        <ele>18.37</ele>
        <time>2020-07-08T12:26:13Z</time>
      </trkpt>
      <trkpt lat="47.79032" lon="-3.52633">
        <ele>18.37</ele>
        <time>2020-07-08T12:26:14Z</time>
      </trkpt>
      <trkpt lat="47.79032" lon="-3.52633">
        <ele>18.37</ele>
        <time>2020-07-08T12:26:15Z</time>
      </trkpt>
      <trkpt lat="47.79032" lon="-3.52633">
        <ele>18.37</ele>
        <time>2020-07-08T12:26:16Z</time>
      </trkpt>
      <trkpt lat="47.79032" lon="-3.52633">
        <ele>18.37</ele>
        <time>2020-07-08T12:26:17Z</time>
      </trkpt>
      <trkpt lat="47.79032" lon="-3.52633">
        <ele>18.37</ele>
        <time>2020-07-08T12:26:18Z</time>
      </trkpt>
      <trkpt lat="47.79032" lon="-3.52633">
        <ele>18.37</ele>
        <time>2020-07-08T12:26:19Z</time>
      </trkpt>
      <trkpt lat="47.79032" lon="-3.52633">
        <ele>18.37</ele>
        <time>2020-07-08T12:26:20Z</time>
      </trkpt>
      <trkpt lat="47.79032" lon="-3.52633">
        <ele>18.37</ele>
        <time>2020-07-08T12:26:21Z</time>
      </trkpt>
      <trkpt lat="47.79032" lon="-3.52633">
        <ele>18.37</ele>
        <time>2020-07-08T12:26:22Z</time>
      </trkpt>
      <trkpt lat="47.79032" lon="-3.52633">
        <ele>18.37</ele>
        <time>2020-07-08T12:26:23Z</time>
      </trkpt>
      <trkpt lat="47.79032" lon="-3.52633">
        <ele>18.37</ele>
        <time>2020-07-08T12:26:24Z</time>
      </trkpt>
      <trkpt lat="47.79032" lon="-3.52633">
        <ele>18.37</ele>
        <time>2020-07-08T12:26:25Z</time>
      </trkpt>
      <trkpt lat="47.79032" lon="-3.52633">
        <ele>18.37</ele>
        <time>2020-07-08T12:26:26Z</time>
      </trkpt>
      <trkpt lat="47.79032" lon="-3.52633">
        <ele>18.37</ele>
        <time>2020-07-08T12:26:27Z</time>
      </trkpt>
      <trkpt lat="47.79032" lon="-3.52633">
        <ele>18.37</ele>
        <time>2020-07-08T12:26:28Z</time>
      </trkpt>
      <trkpt lat="47.79032" lon="-3.52633">
        <ele>18.37</ele>
        <time>2020-07-08T12:26:29Z</time>
      </trkpt>
      <trkpt lat="47.79032" lon="-3.52633">
        <ele>18.37</ele>
        <time>2020-07-08T12:26:30Z</time>
      </trkpt>
      <trkpt lat="47.79032" lon="-3.52633">
        <ele>18.37</ele>
        <time>2020-07-08T12:26:31Z</time>
      </trkpt>
      <trkpt lat="47.79032" lon="-3.52633">
        <ele>18.37</ele>
        <time>2020-07-08T12:26:32Z</time>
      </trkpt>
      <trkpt lat="47.79032" lon="-3.52633">
        <ele>18.37</ele>
        <time>2020-07-08T12:26:33Z</time>
      </trkpt>
      <trkpt lat="47.79032" lon="-3.52633">
        <ele>18.37</ele>
        <time>2020-07-08T12:26:34Z</time>
      </trkpt>
      <trkpt lat="47.79032" lon="-3.52633">
        <ele>18.37</ele>
        <time>2020-07-08T12:26:35Z</time>
      </trkpt>
      <trkpt lat="47.79032" lon="-3.52633">
        <ele>18.37</ele>
        <time>2020-07-08T12:26:36Z</time>
      </trkpt>
      <trkpt lat="47.79032" lon="-3.52633">
        <ele>18.37</ele>
        <time>2020-07-08T12:26:37Z</time>
      </trkpt>
      <trkpt lat="47.79032" lon="-3.52633">
        <ele>18.37</ele>
        <time>2020-07-08T12:26:38Z</time>
      </trkpt>
      <trkpt lat="47.79032" lon="-3.52633">
        <ele>18.37</ele>
        <time>2020-07-08T12:26:39Z</time>
      </trkpt>
      <trkpt lat="47.79032" lon="-3.52633">
        <ele>18.37</ele>
        <time>2020-07-08T12:26:40Z</time>
      </trkpt>
      <trkpt lat="47.79032" lon="-3.52633">
        <ele>18.37</ele>
        <time>2020-07-08T12:26:41Z</time>
      </trkpt>
      <trkpt lat="47.79032" lon="-3.52633">
        <ele>18.37</ele>
        <time>2020-07-08T12:26:42Z</time>
      </trkpt>
      <trkpt lat="47.79032" lon="-3.52633">
        <ele>18.37</ele>
        <time>2020-07-08T12:26:43Z</time>
      </trkpt>
      <trkpt lat="47.79032" lon="-3.52633">
        <ele>18.37</ele>
        <time>2020-07-08T12:26:44Z</time>
      </trkpt>
      <trkpt lat="47.79032" lon="-3.52633">
        <ele>18.37</ele>
        <time>2020-07-08T12:26:45Z</time>
      </trkpt>
      <trkpt lat="47.79032" lon="-3.52633">
        <ele>18.37</ele>
        <time>2020-07-08T12:26:46Z</time>
      </trkpt>
      <trkpt lat="47.79032" lon="-3.52633">
        <ele>18.37</ele>
        <time>2020-07-08T12:26:47Z</time>
      </trkpt>
      <trkpt lat="47.79032" lon="-3.52633">
        <ele>18.37</ele>
        <time>2020-07-08T12:26:48Z</time>
      </trkpt>
      <trkpt lat="47.79032" lon="-3.52633">
        <ele>18.37</ele>
        <time>2020-07-08T12:26:49Z</time>
      </trkpt>
      <trkpt lat="47.79032" lon="-3.52633">
        <ele>18.37</ele>
        <time>2020-07-08T12:26:50Z</time>
      </trkpt>
      <trkpt lat="47.79033" lon="-3.52619">
        <ele>19.05</ele>
        <time>2020-07-08T12:26:51Z</time>
      </trkpt>
      <trkpt lat="47.79033" lon="-3.52617">
        <ele>19.35</ele>
        <time>2020-07-08T12:26:52Z</time>
      </trkpt>
      <trkpt lat="47.79034" lon="-3.52614">
        <ele>19.6</ele>
        <time>2020-07-08T12:26:53Z</time>
      </trkpt>
      <trkpt lat="47.79034" lon="-3.52611">
        <ele>19.87</ele>
        <time>2020-07-08T12:26:54Z</time>
      </trkpt>
      <trkpt lat="47.79034" lon="-3.52608">
        <ele>20.05</ele>
        <time>2020-07-08T12:26:55Z</time>
      </trkpt>
      <trkpt lat="47.79035" lon="-3.52605">
        <ele>20.22</ele>
        <time>2020-07-08T12:26:56Z</time>
      </trkpt>
      <trkpt lat="47.79035" lon="-3.52602">
        <ele>20.37</ele>
        <time>2020-07-08T12:26:57Z</time>
      </trkpt>
      <trkpt lat="47.79036" lon="-3.52598">
        <ele>20.52</ele>
        <time>2020-07-08T12:26:58Z</time>
      </trkpt>
      <trkpt lat="47.79036" lon="-3.52595">
        <ele>20.67</ele>
        <time>2020-07-08T12:26:59Z</time>
      </trkpt>
      <trkpt lat="47.79036" lon="-3.52592">
        <ele>20.81</ele>
        <time>2020-07-08T12:27:00Z</time>
      </trkpt>
      <trkpt lat="47.79036" lon="-3.52589">
        <ele>20.96</ele>
        <time>2020-07-08T12:27:01Z</time>
      </trkpt>
      <trkpt lat="47.79036" lon="-3.52586">
        <ele>21.12</ele>
        <time>2020-07-08T12:27:02Z</time>
      </trkpt>
      <trkpt lat="47.79036" lon="-3.52583">
        <ele>21.26</ele>
        <time>2020-07-08T12:27:03Z</time>
      </trkpt>
      <trkpt lat="47.79036" lon="-3.5258">
        <ele>21.4</ele>
        <time>2020-07-08T12:27:04Z</time>
      </trkpt>
      <trkpt lat="47.79036" lon="-3.52577">
        <ele>21.53</ele>
        <time>2020-07-08T12:27:05Z</time>
      </trkpt>
      <trkpt lat="47.79036" lon="-3.52574">
        <ele>21.67</ele>
        <time>2020-07-08T12:27:06Z</time>
      </trkpt>
      <trkpt lat="47.79036" lon="-3.52571">
        <ele>21.82</ele>
        <time>2020-07-08T12:27:07Z</time>
      </trkpt>
      <trkpt lat="47.79036" lon="-3.52568">
        <ele>21.96</ele>
        <time>2020-07-08T12:27:08Z</time>
      </trkpt>
      <trkpt lat="47.79036" lon="-3.52565">
        <ele>22.11</ele>
        <time>2020-07-08T12:27:09Z</time>
      </trkpt>
      <trkpt lat="47.79036" lon="-3.52562">
        <ele>22.25</ele>
        <time>2020-07-08T12:27:10Z</time>
      </trkpt>
      <trkpt lat="47.79036" lon="-3.52558">
        <ele>22.41</ele>
        <time>2020-07-08T12:27:11Z</time>
      </trkpt>
      <trkpt lat="47.79036" lon="-3.52554">
        <ele>22.59</ele>
        <time>2020-07-08T12:27:12Z</time>
      </trkpt>
      <trkpt lat="47.79036" lon="-3.52551">
        <ele>22.73</ele>
        <time>2020-07-08T12:27:13Z</time>
      </trkpt>
      <trkpt lat="47.79036" lon="-3.52548">
        <ele>22.85</ele>
        <time>2020-07-08T12:27:14Z</time>
      </trkpt>
      <trkpt lat="47.79037" lon="-3.52544">
        <ele>22.99</ele>
        <time>2020-07-08T12:27:15Z</time>
      </trkpt>
      <trkpt lat="47.79037" lon="-3.52541">
        <ele>23.12</ele>
        <time>2020-07-08T12:27:16Z</time>
      </trkpt>
      <trkpt lat="47.79036" lon="-3.52537">
        <ele>23.24</ele>
        <time>2020-07-08T12:27:17Z</time>
      </trkpt>
      <trkpt lat="47.79036" lon="-3.52533">
        <ele>23.37</ele>
        <time>2020-07-08T12:27:18Z</time>
      </trkpt>
      <trkpt lat="47.79036" lon="-3.52529">
        <ele>23.51</ele>
        <time>2020-07-08T12:27:19Z</time>
      </trkpt>
      <trkpt lat="47.79036" lon="-3.52525">
        <ele>23.54</ele>
        <time>2020-07-08T12:27:20Z</time>
      </trkpt>
      <trkpt lat="47.79036" lon="-3.52521">
        <ele>23.55</ele>
        <time>2020-07-08T12:27:21Z</time>
      </trkpt>
      <trkpt lat="47.79036" lon="-3.52517">
        <ele>23.56</ele>
        <time>2020-07-08T12:27:22Z</time>
      </trkpt>
      <trkpt lat="47.79036" lon="-3.52514">
        <ele>23.57</ele>
        <time>2020-07-08T12:27:23Z</time>
      </trkpt>
      <trkpt lat="47.79036" lon="-3.5251">
        <ele>23.6</ele>
        <time>2020-07-08T12:27:24Z</time>
      </trkpt>
      <trkpt lat="47.79037" lon="-3.52508">
        <ele>23.63</ele>
        <time>2020-07-08T12:27:25Z</time>
      </trkpt>
      <trkpt lat="47.79037" lon="-3.52505">
        <ele>23.66</ele>
        <time>2020-07-08T12:27:26Z</time>
      </trkpt>
      <trkpt lat="47.79038" lon="-3.52502">
        <ele>23.7</ele>
        <time>2020-07-08T12:27:27Z</time>
      </trkpt>
      <trkpt lat="47.79038" lon="-3.52499">
        <ele>23.69</ele>
        <time>2020-07-08T12:27:28Z</time>
      </trkpt>
      <trkpt lat="47.79037" lon="-3.52497">
        <ele>23.58</ele>
        <time>2020-07-08T12:27:29Z</time>
      </trkpt>
      <trkpt lat="47.79037" lon="-3.52494">
        <ele>23.47</ele>
        <time>2020-07-08T12:27:30Z</time>
      </trkpt>
      <trkpt lat="47.79038" lon="-3.52491">
        <ele>23.36</ele>
        <time>2020-07-08T12:27:31Z</time>
      </trkpt>
      <trkpt lat="47.79038" lon="-3.52489">
        <ele>23.27</ele>
        <time>2020-07-08T12:27:32Z</time>
      </trkpt>
      <trkpt lat="47.79038" lon="-3.52485">
        <ele>23.16</ele>
        <time>2020-07-08T12:27:33Z</time>
      </trkpt>
      <trkpt lat="47.79039" lon="-3.52482">
        <ele>23.04</ele>
        <time>2020-07-08T12:27:34Z</time>
      </trkpt>
      <trkpt lat="47.79039" lon="-3.52479">
        <ele>22.91</ele>
        <time>2020-07-08T12:27:35Z</time>
      </trkpt>
      <trkpt lat="47.79039" lon="-3.52476">
        <ele>22.79</ele>
        <time>2020-07-08T12:27:36Z</time>
      </trkpt>
      <trkpt lat="47.79039" lon="-3.52473">
        <ele>22.68</ele>
        <time>2020-07-08T12:27:37Z</time>
      </trkpt>
      <trkpt lat="47.79039" lon="-3.5247">
        <ele>22.59</ele>
        <time>2020-07-08T12:27:38Z</time>
      </trkpt>
      <trkpt lat="47.79039" lon="-3.52466">
        <ele>22.51</ele>
        <time>2020-07-08T12:27:39Z</time>
      </trkpt>
      <trkpt lat="47.7904" lon="-3.52463">
        <ele>22.42</ele>
        <time>2020-07-08T12:27:40Z</time>
      </trkpt>
      <trkpt lat="47.79039" lon="-3.52459">
        <ele>22.27</ele>
        <time>2020-07-08T12:27:41Z</time>
      </trkpt>
      <trkpt lat="47.7904" lon="-3.52454">
        <ele>22.12</ele>
        <time>2020-07-08T12:27:42Z</time>
      </trkpt>
      <trkpt lat="47.7904" lon="-3.52449">
        <ele>21.96</ele>
        <time>2020-07-08T12:27:43Z</time>
      </trkpt>
      <trkpt lat="47.7904" lon="-3.52443">
        <ele>21.76</ele>
        <time>2020-07-08T12:27:44Z</time>
      </trkpt>
      <trkpt lat="47.7904" lon="-3.52437">
        <ele>21.28</ele>
        <time>2020-07-08T12:27:45Z</time>
      </trkpt>
      <trkpt lat="47.79041" lon="-3.5243">
        <ele>20.76</ele>
        <time>2020-07-08T12:27:46Z</time>
      </trkpt>
      <trkpt lat="47.79041" lon="-3.52423">
        <ele>20.24</ele>
        <time>2020-07-08T12:27:47Z</time>
      </trkpt>
      <trkpt lat="47.79043" lon="-3.52416">
        <ele>19.78</ele>
        <time>2020-07-08T12:27:48Z</time>
      </trkpt>
      <trkpt lat="47.79043" lon="-3.52407">
        <ele>19.43</ele>
        <time>2020-07-08T12:27:49Z</time>
      </trkpt>
      <trkpt lat="47.79045" lon="-3.52398">
        <ele>19.09</ele>
        <time>2020-07-08T12:27:50Z</time>
      </trkpt>
      <trkpt lat="47.79046" lon="-3.52388">
        <ele>18.69</ele>
        <time>2020-07-08T12:27:51Z</time>
      </trkpt>
      <trkpt lat="47.79047" lon="-3.52378">
        <ele>18.19</ele>
        <time>2020-07-08T12:27:52Z</time>
      </trkpt>
      <trkpt lat="47.79048" lon="-3.52369">
        <ele>17.68</ele>
        <time>2020-07-08T12:27:53Z</time>
      </trkpt>
      <trkpt lat="47.79049" lon="-3.52358">
        <ele>16.96</ele>
        <time>2020-07-08T12:27:54Z</time>
      </trkpt>
      <trkpt lat="47.7905" lon="-3.52348">
        <ele>15.82</ele>
        <time>2020-07-08T12:27:55Z</time>
      </trkpt>
      <trkpt lat="47.79051" lon="-3.52339">
        <ele>14.68</ele>
        <time>2020-07-08T12:27:56Z</time>
      </trkpt>
      <trkpt lat="47.79052" lon="-3.52332">
        <ele>13.78</ele>
        <time>2020-07-08T12:27:57Z</time>
      </trkpt>
      <trkpt lat="47.79053" lon="-3.52326">
        <ele>13.44</ele>
        <time>2020-07-08T12:27:58Z</time>
      </trkpt>
      <trkpt lat="47.79055" lon="-3.52323">
        <ele>13.46</ele>
        <time>2020-07-08T12:27:59Z</time>
      </trkpt>
      <trkpt lat="47.79057" lon="-3.5232">
        <ele>13.59</ele>
        <time>2020-07-08T12:28:00Z</time>
      </trkpt>
      <trkpt lat="47.79059" lon="-3.52318">
        <ele>13.69</ele>
        <time>2020-07-08T12:28:01Z</time>
      </trkpt>
      <trkpt lat="47.79061" lon="-3.52315">
        <ele>13.76</ele>
        <time>2020-07-08T12:28:02Z</time>
      </trkpt>
      <trkpt lat="47.79063" lon="-3.52312">
        <ele>13.81</ele>
        <time>2020-07-08T12:28:03Z</time>
      </trkpt>
      <trkpt lat="47.79064" lon="-3.5231">
        <ele>13.8</ele>
        <time>2020-07-08T12:28:04Z</time>
      </trkpt>
      <trkpt lat="47.79065" lon="-3.52308">
        <ele>13.78</ele>
        <time>2020-07-08T12:28:05Z</time>
      </trkpt>
      <trkpt lat="47.79066" lon="-3.52305">
        <ele>13.75</ele>
        <time>2020-07-08T12:28:06Z</time>
      </trkpt>
      <trkpt lat="47.79066" lon="-3.52303">
        <ele>13.81</ele>
        <time>2020-07-08T12:28:07Z</time>
      </trkpt>
      <trkpt lat="47.79065" lon="-3.52302">
        <ele>13.84</ele>
        <time>2020-07-08T12:28:08Z</time>
      </trkpt>
      <trkpt lat="47.79063" lon="-3.52302">
        <ele>13.76</ele>
        <time>2020-07-08T12:28:09Z</time>
      </trkpt>
      <trkpt lat="47.7906" lon="-3.52303">
        <ele>13.54</ele>
        <time>2020-07-08T12:28:10Z</time>
      </trkpt>
      <trkpt lat="47.79057" lon="-3.52305">
        <ele>13.27</ele>
        <time>2020-07-08T12:28:11Z</time>
      </trkpt>
      <trkpt lat="47.79053" lon="-3.52306">
        <ele>12.73</ele>
        <time>2020-07-08T12:28:12Z</time>
      </trkpt>
      <trkpt lat="47.79049" lon="-3.52308">
        <ele>12.03</ele>
        <time>2020-07-08T12:28:13Z</time>
      </trkpt>
      <trkpt lat="47.79045" lon="-3.52309">
        <ele>11.24</ele>
        <time>2020-07-08T12:28:14Z</time>
      </trkpt>
      <trkpt lat="47.79041" lon="-3.5231">
        <ele>10.47</ele>
        <time>2020-07-08T12:28:15Z</time>
      </trkpt>
      <trkpt lat="47.79038" lon="-3.52311">
        <ele>9.91</ele>
        <time>2020-07-08T12:28:16Z</time>
      </trkpt>
      <trkpt lat="47.79037" lon="-3.52312">
        <ele>9.59</ele>
        <time>2020-07-08T12:28:17Z</time>
      </trkpt>
      <trkpt lat="47.79035" lon="-3.52314">
        <ele>9.41</ele>
        <time>2020-07-08T12:28:18Z</time>
      </trkpt>
      <trkpt lat="47.79035" lon="-3.52314">
        <ele>9.32</ele>
        <time>2020-07-08T12:28:19Z</time>
      </trkpt>
      <trkpt lat="47.79034" lon="-3.52314">
        <ele>9.25</ele>
        <time>2020-07-08T12:28:20Z</time>
      </trkpt>
      <trkpt lat="47.79034" lon="-3.52314">
        <ele>9.2</ele>
        <time>2020-07-08T12:28:21Z</time>
      </trkpt>
      <trkpt lat="47.79034" lon="-3.52314">
        <ele>9.19</ele>
        <time>2020-07-08T12:28:22Z</time>
      </trkpt>
      <trkpt lat="47.79034" lon="-3.52314">
        <ele>9.18</ele>
        <time>2020-07-08T12:28:23Z</time>
      </trkpt>
      <trkpt lat="47.79034" lon="-3.52314">
        <ele>9.18</ele>
        <time>2020-07-08T12:28:24Z</time>
      </trkpt>
      <trkpt lat="47.79034" lon="-3.52314">
        <ele>9.18</ele>
        <time>2020-07-08T12:28:25Z</time>
      </trkpt>
      <trkpt lat="47.79034" lon="-3.52314">
        <ele>9.18</ele>
        <time>2020-07-08T12:28:26Z</time>
      </trkpt>
      <trkpt lat="47.79034" lon="-3.52314">
        <ele>9.18</ele>
        <time>2020-07-08T12:28:27Z</time>
      </trkpt>
      <trkpt lat="47.79034" lon="-3.52314">
        <ele>9.18</ele>
        <time>2020-07-08T12:28:28Z</time>
      </trkpt>
      <trkpt lat="47.79034" lon="-3.52314">
        <ele>9.18</ele>
        <time>2020-07-08T12:28:29Z</time>
      </trkpt>
      <trkpt lat="47.79034" lon="-3.52314">
        <ele>9.18</ele>
        <time>2020-07-08T12:28:30Z</time>
      </trkpt>
      <trkpt lat="47.79034" lon="-3.52314">
        <ele>9.18</ele>
        <time>2020-07-08T12:28:31Z</time>
      </trkpt>
      <trkpt lat="47.79034" lon="-3.52314">
        <ele>9.18</ele>
        <time>2020-07-08T12:28:32Z</time>
      </trkpt>
      <trkpt lat="47.79029" lon="-3.52315">
        <ele>8.55</ele>
        <time>2020-07-08T12:28:33Z</time>
      </trkpt>
      <trkpt lat="47.79027" lon="-3.52315">
        <ele>8.13</ele>
        <time>2020-07-08T12:28:34Z</time>
      </trkpt>
      <trkpt lat="47.79024" lon="-3.52317">
        <ele>7.86</ele>
        <time>2020-07-08T12:28:35Z</time>
      </trkpt>
      <trkpt lat="47.79021" lon="-3.52318">
        <ele>7.51</ele>
        <time>2020-07-08T12:28:36Z</time>
      </trkpt>
      <trkpt lat="47.79016" lon="-3.52319">
        <ele>7.01</ele>
        <time>2020-07-08T12:28:37Z</time>
      </trkpt>
      <trkpt lat="47.79012" lon="-3.52321">
        <ele>6.49</ele>
        <time>2020-07-08T12:28:38Z</time>
      </trkpt>
      <trkpt lat="47.79007" lon="-3.52324">
        <ele>6.02</ele>
        <time>2020-07-08T12:28:39Z</time>
      </trkpt>
      <trkpt lat="47.79004" lon="-3.52326">
        <ele>5.57</ele>
        <time>2020-07-08T12:28:40Z</time>
      </trkpt>
      <trkpt lat="47.79002" lon="-3.52328">
        <ele>5.22</ele>
        <time>2020-07-08T12:28:41Z</time>
      </trkpt>
      <trkpt lat="47.78999" lon="-3.5233">
        <ele>4.93</ele>
        <time>2020-07-08T12:28:42Z</time>
      </trkpt>
      <trkpt lat="47.78998" lon="-3.52331">
        <ele>4.78</ele>
        <time>2020-07-08T12:28:43Z</time>
      </trkpt>
      <trkpt lat="47.78998" lon="-3.52332">
        <ele>4.75</ele>
        <time>2020-07-08T12:28:44Z</time>
      </trkpt>
      <trkpt lat="47.78997" lon="-3.52334">
        <ele>4.76</ele>
        <time>2020-07-08T12:28:45Z</time>
      </trkpt>
      <trkpt lat="47.78997" lon="-3.52335">
        <ele>4.76</ele>
        <time>2020-07-08T12:28:46Z</time>
      </trkpt>
      <trkpt lat="47.78997" lon="-3.52334">
        <ele>4.74</ele>
        <time>2020-07-08T12:28:47Z</time>
      </trkpt>
      <trkpt lat="47.78997" lon="-3.52333">
        <ele>4.68</ele>
        <time>2020-07-08T12:28:48Z</time>
      </trkpt>
      <trkpt lat="47.78997" lon="-3.52333">
        <ele>4.66</ele>
        <time>2020-07-08T12:28:49Z</time>
      </trkpt>
      <trkpt lat="47.78997" lon="-3.52333">
        <ele>4.65</ele>
        <time>2020-07-08T12:28:50Z</time>
      </trkpt>
      <trkpt lat="47.78997" lon="-3.52333">
        <ele>4.65</ele>
        <time>2020-07-08T12:28:51Z</time>
      </trkpt>
      <trkpt lat="47.79" lon="-3.52328">
        <ele>4.78</ele>
        <time>2020-07-08T12:28:52Z</time>
      </trkpt>
      <trkpt lat="47.79001" lon="-3.52326">
        <ele>4.91</ele>
        <time>2020-07-08T12:28:53Z</time>
      </trkpt>
      <trkpt lat="47.79002" lon="-3.52324">
        <ele>4.98</ele>
        <time>2020-07-08T12:28:54Z</time>
      </trkpt>
      <trkpt lat="47.79002" lon="-3.52323">
        <ele>4.96</ele>
        <time>2020-07-08T12:28:55Z</time>
      </trkpt>
      <trkpt lat="47.79002" lon="-3.52322">
        <ele>4.85</ele>
        <time>2020-07-08T12:28:56Z</time>
      </trkpt>
      <trkpt lat="47.79001" lon="-3.52321">
        <ele>4.75</ele>
        <time>2020-07-08T12:28:57Z</time>
      </trkpt>
      <trkpt lat="47.79001" lon="-3.52321">
        <ele>4.72</ele>
        <time>2020-07-08T12:28:58Z</time>
      </trkpt>
      <trkpt lat="47.79001" lon="-3.52321">
        <ele>4.71</ele>
        <time>2020-07-08T12:28:59Z</time>
      </trkpt>
      <trkpt lat="47.79001" lon="-3.52321">
        <ele>4.71</ele>
        <time>2020-07-08T12:29:00Z</time>
      </trkpt>
      <trkpt lat="47.79001" lon="-3.52321">
        <ele>4.71</ele>
        <time>2020-07-08T12:29:01Z</time>
      </trkpt>
      <trkpt lat="47.79001" lon="-3.52321">
        <ele>4.71</ele>
        <time>2020-07-08T12:29:02Z</time>
      </trkpt>
      <trkpt lat="47.79001" lon="-3.52321">
        <ele>4.71</ele>
        <time>2020-07-08T12:29:03Z</time>
      </trkpt>
      <trkpt lat="47.79001" lon="-3.52321">
        <ele>4.71</ele>
        <time>2020-07-08T12:29:04Z</time>
      </trkpt>
      <trkpt lat="47.79001" lon="-3.52321">
        <ele>4.71</ele>
        <time>2020-07-08T12:29:05Z</time>
      </trkpt>
      <trkpt lat="47.79001" lon="-3.52321">
        <ele>4.71</ele>
        <time>2020-07-08T12:29:06Z</time>
      </trkpt>
      <trkpt lat="47.79001" lon="-3.52321">
        <ele>4.71</ele>
        <time>2020-07-08T12:29:07Z</time>
      </trkpt>
      <trkpt lat="47.79001" lon="-3.52321">
        <ele>4.71</ele>
        <time>2020-07-08T12:29:08Z</time>
      </trkpt>
      <trkpt lat="47.79001" lon="-3.52321">
        <ele>4.71</ele>
        <time>2020-07-08T12:29:09Z</time>
      </trkpt>
      <trkpt lat="47.79001" lon="-3.52321">
        <ele>4.71</ele>
        <time>2020-07-08T12:29:10Z</time>
      </trkpt>
      <trkpt lat="47.79001" lon="-3.52321">
        <ele>4.71</ele>
        <time>2020-07-08T12:29:11Z</time>
      </trkpt>
      <trkpt lat="47.79001" lon="-3.52321">
        <ele>4.71</ele>
        <time>2020-07-08T12:29:12Z</time>
      </trkpt>
      <trkpt lat="47.79001" lon="-3.52321">
        <ele>4.71</ele>
        <time>2020-07-08T12:29:13Z</time>
      </trkpt>
      <trkpt lat="47.79001" lon="-3.52321">
        <ele>4.71</ele>
        <time>2020-07-08T12:29:14Z</time>
      </trkpt>
      <trkpt lat="47.79001" lon="-3.52321">
        <ele>4.71</ele>
        <time>2020-07-08T12:29:15Z</time>
      </trkpt>
      <trkpt lat="47.79001" lon="-3.52321">
        <ele>4.71</ele>
        <time>2020-07-08T12:29:16Z</time>
      </trkpt>
      <trkpt lat="47.79001" lon="-3.52321">
        <ele>4.71</ele>
        <time>2020-07-08T12:29:17Z</time>
      </trkpt>
      <trkpt lat="47.79001" lon="-3.52321">
        <ele>4.71</ele>
        <time>2020-07-08T12:29:18Z</time>
      </trkpt>
      <trkpt lat="47.79001" lon="-3.52321">
        <ele>4.71</ele>
        <time>2020-07-08T12:29:19Z</time>
      </trkpt>
      <trkpt lat="47.79001" lon="-3.52321">
        <ele>4.71</ele>
        <time>2020-07-08T12:29:20Z</time>
      </trkpt>
      <trkpt lat="47.79001" lon="-3.52321">
        <ele>4.71</ele>
        <time>2020-07-08T12:29:21Z</time>
      </trkpt>
      <trkpt lat="47.79001" lon="-3.52321">
        <ele>4.71</ele>
        <time>2020-07-08T12:29:22Z</time>
      </trkpt>
      <trkpt lat="47.79001" lon="-3.52321">
        <ele>4.71</ele>
        <time>2020-07-08T12:29:23Z</time>
      </trkpt>
      <trkpt lat="47.79001" lon="-3.52321">
        <ele>4.71</ele>
        <time>2020-07-08T12:29:24Z</time>
      </trkpt>
      <trkpt lat="47.79001" lon="-3.52321">
        <ele>4.71</ele>
        <time>2020-07-08T12:29:25Z</time>
      </trkpt>
      <trkpt lat="47.79001" lon="-3.52321">
        <ele>4.71</ele>
        <time>2020-07-08T12:29:26Z</time>
      </trkpt>
      <trkpt lat="47.78991" lon="-3.52324">
        <ele>4.07</ele>
        <time>2020-07-08T12:29:27Z</time>
      </trkpt>
      <trkpt lat="47.78989" lon="-3.52324">
        <ele>3.75</ele>
        <time>2020-07-08T12:29:28Z</time>
      </trkpt>
      <trkpt lat="47.78987" lon="-3.52323">
        <ele>3.48</ele>
        <time>2020-07-08T12:29:29Z</time>
      </trkpt>
      <trkpt lat="47.78983" lon="-3.52323">
        <ele>3.19</ele>
        <time>2020-07-08T12:29:30Z</time>
      </trkpt>
      <trkpt lat="47.7898" lon="-3.52323">
        <ele>2.87</ele>
        <time>2020-07-08T12:29:31Z</time>
      </trkpt>
      <trkpt lat="47.78977" lon="-3.52324">
        <ele>2.57</ele>
        <time>2020-07-08T12:29:32Z</time>
      </trkpt>
      <trkpt lat="47.78974" lon="-3.52326">
        <ele>2.32</ele>
        <time>2020-07-08T12:29:33Z</time>
      </trkpt>
      <trkpt lat="47.78972" lon="-3.52328">
        <ele>2.1</ele>
        <time>2020-07-08T12:29:34Z</time>
      </trkpt>
      <trkpt lat="47.7897" lon="-3.5233">
        <ele>1.94</ele>
        <time>2020-07-08T12:29:35Z</time>
      </trkpt>
      <trkpt lat="47.78969" lon="-3.52333">
        <ele>1.81</ele>
        <time>2020-07-08T12:29:36Z</time>
      </trkpt>
      <trkpt lat="47.78968" lon="-3.52336">
        <ele>1.67</ele>
        <time>2020-07-08T12:29:37Z</time>
      </trkpt>
      <trkpt lat="47.78966" lon="-3.5234">
        <ele>1.48</ele>
        <time>2020-07-08T12:29:38Z</time>
      </trkpt>
      <trkpt lat="47.78965" lon="-3.52344">
        <ele>1.27</ele>
        <time>2020-07-08T12:29:39Z</time>
      </trkpt>
      <trkpt lat="47.78963" lon="-3.52348">
        <ele>1.08</ele>
        <time>2020-07-08T12:29:40Z</time>
      </trkpt>
      <trkpt lat="47.78962" lon="-3.52352">
        <ele>0.9</ele>
        <time>2020-07-08T12:29:41Z</time>
      </trkpt>
      <trkpt lat="47.7896" lon="-3.52356">
        <ele>0.72</ele>
        <time>2020-07-08T12:29:42Z</time>
      </trkpt>
      <trkpt lat="47.78958" lon="-3.5236">
        <ele>0.58</ele>
        <time>2020-07-08T12:29:43Z</time>
      </trkpt>
      <trkpt lat="47.78957" lon="-3.52364">
        <ele>0.58</ele>
        <time>2020-07-08T12:29:44Z</time>
      </trkpt>
      <trkpt lat="47.78956" lon="-3.52369">
        <ele>0.65</ele>
        <time>2020-07-08T12:29:45Z</time>
      </trkpt>
      <trkpt lat="47.78955" lon="-3.52373">
        <ele>0.75</ele>
        <time>2020-07-08T12:29:46Z</time>
      </trkpt>
      <trkpt lat="47.78953" lon="-3.52377">
        <ele>0.84</ele>
        <time>2020-07-08T12:29:47Z</time>
      </trkpt>
      <trkpt lat="47.78951" lon="-3.5238">
        <ele>0.89</ele>
        <time>2020-07-08T12:29:48Z</time>
      </trkpt>
      <trkpt lat="47.78949" lon="-3.52382">
        <ele>0.89</ele>
        <time>2020-07-08T12:29:49Z</time>
      </trkpt>
      <trkpt lat="47.78946" lon="-3.52383">
        <ele>0.85</ele>
        <time>2020-07-08T12:29:50Z</time>
      </trkpt>
      <trkpt lat="47.78942" lon="-3.52383">
        <ele>0.81</ele>
        <time>2020-07-08T12:29:51Z</time>
      </trkpt>
      <trkpt lat="47.78938" lon="-3.52383">
        <ele>0.81</ele>
        <time>2020-07-08T12:29:52Z</time>
      </trkpt>
      <trkpt lat="47.78935" lon="-3.52384">
        <ele>0.82</ele>
        <time>2020-07-08T12:29:53Z</time>
      </trkpt>
      <trkpt lat="47.78931" lon="-3.52385">
        <ele>0.84</ele>
        <time>2020-07-08T12:29:54Z</time>
      </trkpt>
      <trkpt lat="47.78927" lon="-3.52385">
        <ele>0.86</ele>
        <time>2020-07-08T12:29:55Z</time>
      </trkpt>
      <trkpt lat="47.78924" lon="-3.52386">
        <ele>0.89</ele>
        <time>2020-07-08T12:29:56Z</time>
      </trkpt>
      <trkpt lat="47.7892" lon="-3.52387">
        <ele>0.92</ele>
        <time>2020-07-08T12:29:57Z</time>
      </trkpt>
      <trkpt lat="47.78917" lon="-3.52388">
        <ele>0.95</ele>
        <time>2020-07-08T12:29:58Z</time>
      </trkpt>
      <trkpt lat="47.78914" lon="-3.52389">
        <ele>1.43</ele>
        <time>2020-07-08T12:29:59Z</time>
      </trkpt>
      <trkpt lat="47.78911" lon="-3.52389">
        <ele>1.98</ele>
        <time>2020-07-08T12:30:00Z</time>
      </trkpt>
      <trkpt lat="47.78908" lon="-3.52389">
        <ele>2.55</ele>
        <time>2020-07-08T12:30:01Z</time>
      </trkpt>
      <trkpt lat="47.78905" lon="-3.5239">
        <ele>3.19</ele>
        <time>2020-07-08T12:30:02Z</time>
      </trkpt>
      <trkpt lat="47.78902" lon="-3.5239">
        <ele>3.8</ele>
        <time>2020-07-08T12:30:03Z</time>
      </trkpt>
      <trkpt lat="47.78899" lon="-3.5239">
        <ele>4.4</ele>
        <time>2020-07-08T12:30:04Z</time>
      </trkpt>
      <trkpt lat="47.78897" lon="-3.5239">
        <ele>4.96</ele>
        <time>2020-07-08T12:30:05Z</time>
      </trkpt>
      <trkpt lat="47.78895" lon="-3.5239">
        <ele>5.51</ele>
        <time>2020-07-08T12:30:06Z</time>
      </trkpt>
      <trkpt lat="47.78892" lon="-3.5239">
        <ele>6.02</ele>
        <time>2020-07-08T12:30:07Z</time>
      </trkpt>
      <trkpt lat="47.7889" lon="-3.52389">
        <ele>6.51</ele>
        <time>2020-07-08T12:30:08Z</time>
      </trkpt>
      <trkpt lat="47.78888" lon="-3.52388">
        <ele>6.87</ele>
        <time>2020-07-08T12:30:09Z</time>
      </trkpt>
      <trkpt lat="47.78888" lon="-3.52388">
        <ele>7.06</ele>
        <time>2020-07-08T12:30:10Z</time>
      </trkpt>
      <trkpt lat="47.78887" lon="-3.52387">
        <ele>7.15</ele>
        <time>2020-07-08T12:30:11Z</time>
      </trkpt>
      <trkpt lat="47.78886" lon="-3.52387">
        <ele>7.25</ele>
        <time>2020-07-08T12:30:12Z</time>
      </trkpt>
      <trkpt lat="47.78885" lon="-3.52387">
        <ele>7.37</ele>
        <time>2020-07-08T12:30:13Z</time>
      </trkpt>
      <trkpt lat="47.78884" lon="-3.52387">
        <ele>7.52</ele>
        <time>2020-07-08T12:30:14Z</time>
      </trkpt>
      <trkpt lat="47.78882" lon="-3.52386">
        <ele>7.76</ele>
        <time>2020-07-08T12:30:15Z</time>
      </trkpt>
      <trkpt lat="47.78881" lon="-3.52386">
        <ele>8.01</ele>
        <time>2020-07-08T12:30:16Z</time>
      </trkpt>
      <trkpt lat="47.78879" lon="-3.52386">
        <ele>8.29</ele>
        <time>2020-07-08T12:30:17Z</time>
      </trkpt>
      <trkpt lat="47.78877" lon="-3.52386">
        <ele>8.56</ele>
        <time>2020-07-08T12:30:18Z</time>
      </trkpt>
      <trkpt lat="47.78875" lon="-3.52386">
        <ele>8.8</ele>
        <time>2020-07-08T12:30:19Z</time>
      </trkpt>
      <trkpt lat="47.78873" lon="-3.52386">
        <ele>9.1</ele>
        <time>2020-07-08T12:30:20Z</time>
      </trkpt>
      <trkpt lat="47.78872" lon="-3.52386">
        <ele>9.33</ele>
        <time>2020-07-08T12:30:21Z</time>
      </trkpt>
      <trkpt lat="47.7887" lon="-3.52386">
        <ele>9.59</ele>
        <time>2020-07-08T12:30:22Z</time>
      </trkpt>
      <trkpt lat="47.78869" lon="-3.52386">
        <ele>9.81</ele>
        <time>2020-07-08T12:30:23Z</time>
      </trkpt>
      <trkpt lat="47.78867" lon="-3.52386">
        <ele>10.07</ele>
        <time>2020-07-08T12:30:24Z</time>
      </trkpt>
      <trkpt lat="47.78865" lon="-3.52385">
        <ele>10.35</ele>
        <time>2020-07-08T12:30:25Z</time>
      </trkpt>
      <trkpt lat="47.78863" lon="-3.52385">
        <ele>10.64</ele>
        <time>2020-07-08T12:30:26Z</time>
      </trkpt>
      <trkpt lat="47.78861" lon="-3.52385">
        <ele>10.89</ele>
        <time>2020-07-08T12:30:27Z</time>
      </trkpt>
      <trkpt lat="47.78859" lon="-3.52386">
        <ele>11.16</ele>
        <time>2020-07-08T12:30:28Z</time>
      </trkpt>
      <trkpt lat="47.78858" lon="-3.52387">
        <ele>11.32</ele>
        <time>2020-07-08T12:30:29Z</time>
      </trkpt>
      <trkpt lat="47.78858" lon="-3.52387">
        <ele>11.45</ele>
        <time>2020-07-08T12:30:30Z</time>
      </trkpt>
      <trkpt lat="47.78857" lon="-3.52387">
        <ele>11.51</ele>
        <time>2020-07-08T12:30:31Z</time>
      </trkpt>
      <trkpt lat="47.78857" lon="-3.52387">
        <ele>11.53</ele>
        <time>2020-07-08T12:30:32Z</time>
      </trkpt>
      <trkpt lat="47.78857" lon="-3.52387">
        <ele>11.53</ele>
        <time>2020-07-08T12:30:33Z</time>
      </trkpt>
      <trkpt lat="47.78857" lon="-3.52387">
        <ele>11.53</ele>
        <time>2020-07-08T12:30:34Z</time>
      </trkpt>
      <trkpt lat="47.78857" lon="-3.52387">
        <ele>11.53</ele>
        <time>2020-07-08T12:30:35Z</time>
      </trkpt>
      <trkpt lat="47.78857" lon="-3.52387">
        <ele>11.53</ele>
        <time>2020-07-08T12:30:36Z</time>
      </trkpt>
      <trkpt lat="47.78857" lon="-3.52387">
        <ele>11.53</ele>
        <time>2020-07-08T12:30:37Z</time>
      </trkpt>
      <trkpt lat="47.78857" lon="-3.52387">
        <ele>11.53</ele>
        <time>2020-07-08T12:30:38Z</time>
      </trkpt>
      <trkpt lat="47.78857" lon="-3.52387">
        <ele>11.53</ele>
        <time>2020-07-08T12:30:39Z</time>
      </trkpt>
      <trkpt lat="47.78857" lon="-3.52387">
        <ele>11.53</ele>
        <time>2020-07-08T12:30:40Z</time>
      </trkpt>
      <trkpt lat="47.78857" lon="-3.52387">
        <ele>11.53</ele>
        <time>2020-07-08T12:30:41Z</time>
      </trkpt>
      <trkpt lat="47.78861" lon="-3.52387">
        <ele>11.17</ele>
        <time>2020-07-08T12:30:42Z</time>
      </trkpt>
      <trkpt lat="47.78864" lon="-3.52386">
        <ele>10.79</ele>
        <time>2020-07-08T12:30:43Z</time>
      </trkpt>
      <trkpt lat="47.78866" lon="-3.52387">
        <ele>10.42</ele>
        <time>2020-07-08T12:30:44Z</time>
      </trkpt>
      <trkpt lat="47.78869" lon="-3.52387">
        <ele>10</ele>
        <time>2020-07-08T12:30:45Z</time>
      </trkpt>
      <trkpt lat="47.78872" lon="-3.52387">
        <ele>9.6</ele>
        <time>2020-07-08T12:30:46Z</time>
      </trkpt>
      <trkpt lat="47.78875" lon="-3.52387">
        <ele>9.21</ele>
        <time>2020-07-08T12:30:47Z</time>
      </trkpt>
      <trkpt lat="47.78877" lon="-3.52387">
        <ele>8.82</ele>
        <time>2020-07-08T12:30:48Z</time>
      </trkpt>
      <trkpt lat="47.78879" lon="-3.52389">
        <ele>8.54</ele>
        <time>2020-07-08T12:30:49Z</time>
      </trkpt>
      <trkpt lat="47.7888" lon="-3.52391">
        <ele>8.28</ele>
        <time>2020-07-08T12:30:50Z</time>
      </trkpt>
      <trkpt lat="47.78882" lon="-3.52394">
        <ele>8.02</ele>
        <time>2020-07-08T12:30:51Z</time>
      </trkpt>
      <trkpt lat="47.78882" lon="-3.52396">
        <ele>7.81</ele>
        <time>2020-07-08T12:30:52Z</time>
      </trkpt>
      <trkpt lat="47.78882" lon="-3.52399">
        <ele>7.72</ele>
        <time>2020-07-08T12:30:53Z</time>
      </trkpt>
      <trkpt lat="47.78882" lon="-3.52402">
        <ele>7.61</ele>
        <time>2020-07-08T12:30:54Z</time>
      </trkpt>
      <trkpt lat="47.78883" lon="-3.52405">
        <ele>7.49</ele>
        <time>2020-07-08T12:30:55Z</time>
      </trkpt>
      <trkpt lat="47.78882" lon="-3.52409">
        <ele>7.45</ele>
        <time>2020-07-08T12:30:56Z</time>
      </trkpt>
      <trkpt lat="47.78881" lon="-3.52413">
        <ele>7.49</ele>
        <time>2020-07-08T12:30:57Z</time>
      </trkpt>
      <trkpt lat="47.78879" lon="-3.52417">
        <ele>7.64</ele>
        <time>2020-07-08T12:30:58Z</time>
      </trkpt>
      <trkpt lat="47.78877" lon="-3.5242">
        <ele>7.79</ele>
        <time>2020-07-08T12:30:59Z</time>
      </trkpt>
      <trkpt lat="47.78875" lon="-3.52422">
        <ele>7.96</ele>
        <time>2020-07-08T12:31:00Z</time>
      </trkpt>
      <trkpt lat="47.78874" lon="-3.52424">
        <ele>8.08</ele>
        <time>2020-07-08T12:31:01Z</time>
      </trkpt>
      <trkpt lat="47.78872" lon="-3.52426">
        <ele>8.23</ele>
        <time>2020-07-08T12:31:02Z</time>
      </trkpt>
      <trkpt lat="47.78871" lon="-3.52427">
        <ele>8.45</ele>
        <time>2020-07-08T12:31:03Z</time>
      </trkpt>
      <trkpt lat="47.78869" lon="-3.52429">
        <ele>8.63</ele>
        <time>2020-07-08T12:31:04Z</time>
      </trkpt>
      <trkpt lat="47.78868" lon="-3.5243">
        <ele>8.78</ele>
        <time>2020-07-08T12:31:05Z</time>
      </trkpt>
      <trkpt lat="47.78865" lon="-3.52432">
        <ele>9.1</ele>
        <time>2020-07-08T12:31:06Z</time>
      </trkpt>
      <trkpt lat="47.78863" lon="-3.52433">
        <ele>9.35</ele>
        <time>2020-07-08T12:31:07Z</time>
      </trkpt>
      <trkpt lat="47.78861" lon="-3.52434">
        <ele>9.65</ele>
        <time>2020-07-08T12:31:08Z</time>
      </trkpt>
      <trkpt lat="47.78859" lon="-3.52437">
        <ele>9.84</ele>
        <time>2020-07-08T12:31:09Z</time>
      </trkpt>
      <trkpt lat="47.78856" lon="-3.52439">
        <ele>10.11</ele>
        <time>2020-07-08T12:31:10Z</time>
      </trkpt>
      <trkpt lat="47.78851" lon="-3.52442">
        <ele>10.64</ele>
        <time>2020-07-08T12:31:11Z</time>
      </trkpt>
      <trkpt lat="47.78849" lon="-3.52445">
        <ele>11.05</ele>
        <time>2020-07-08T12:31:12Z</time>
      </trkpt>
      <trkpt lat="47.78847" lon="-3.52448">
        <ele>11.21</ele>
        <time>2020-07-08T12:31:13Z</time>
      </trkpt>
      <trkpt lat="47.78845" lon="-3.5245">
        <ele>11.26</ele>
        <time>2020-07-08T12:31:14Z</time>
      </trkpt>
      <trkpt lat="47.78843" lon="-3.52452">
        <ele>11.43</ele>
        <time>2020-07-08T12:31:15Z</time>
      </trkpt>
      <trkpt lat="47.78842" lon="-3.52454">
        <ele>11.59</ele>
        <time>2020-07-08T12:31:16Z</time>
      </trkpt>
      <trkpt lat="47.7884" lon="-3.52456">
        <ele>11.71</ele>
        <time>2020-07-08T12:31:17Z</time>
      </trkpt>
      <trkpt lat="47.78839" lon="-3.52458">
        <ele>11.79</ele>
        <time>2020-07-08T12:31:18Z</time>
      </trkpt>
      <trkpt lat="47.78838" lon="-3.52461">
        <ele>11.85</ele>
        <time>2020-07-08T12:31:19Z</time>
      </trkpt>
      <trkpt lat="47.78836" lon="-3.52463">
        <ele>11.94</ele>
        <time>2020-07-08T12:31:20Z</time>
      </trkpt>
      <trkpt lat="47.78835" lon="-3.52466">
        <ele>12.09</ele>
        <time>2020-07-08T12:31:21Z</time>
      </trkpt>
      <trkpt lat="47.78833" lon="-3.5247">
        <ele>12.19</ele>
        <time>2020-07-08T12:31:22Z</time>
      </trkpt>
      <trkpt lat="47.7883" lon="-3.52474">
        <ele>12.13</ele>
        <time>2020-07-08T12:31:23Z</time>
      </trkpt>
      <trkpt lat="47.78829" lon="-3.52478">
        <ele>11.87</ele>
        <time>2020-07-08T12:31:24Z</time>
      </trkpt>
      <trkpt lat="47.78826" lon="-3.52483">
        <ele>11.49</ele>
        <time>2020-07-08T12:31:25Z</time>
      </trkpt>
      <trkpt lat="47.78825" lon="-3.52489">
        <ele>11.01</ele>
        <time>2020-07-08T12:31:26Z</time>
      </trkpt>
      <trkpt lat="47.78823" lon="-3.52494">
        <ele>10.66</ele>
        <time>2020-07-08T12:31:27Z</time>
      </trkpt>
      <trkpt lat="47.7882" lon="-3.52497">
        <ele>10.76</ele>
        <time>2020-07-08T12:31:28Z</time>
      </trkpt>
      <trkpt lat="47.78817" lon="-3.52501">
        <ele>10.91</ele>
        <time>2020-07-08T12:31:29Z</time>
      </trkpt>
      <trkpt lat="47.78815" lon="-3.52504">
        <ele>11.06</ele>
        <time>2020-07-08T12:31:30Z</time>
      </trkpt>
      <trkpt lat="47.78813" lon="-3.52506">
        <ele>11.2</ele>
        <time>2020-07-08T12:31:31Z</time>
      </trkpt>
      <trkpt lat="47.78812" lon="-3.52508">
        <ele>11.27</ele>
        <time>2020-07-08T12:31:32Z</time>
      </trkpt>
      <trkpt lat="47.78812" lon="-3.52508">
        <ele>11.33</ele>
        <time>2020-07-08T12:31:33Z</time>
      </trkpt>
      <trkpt lat="47.78811" lon="-3.52509">
        <ele>11.32</ele>
        <time>2020-07-08T12:31:34Z</time>
      </trkpt>
      <trkpt lat="47.78811" lon="-3.52509">
        <ele>11.32</ele>
        <time>2020-07-08T12:31:35Z</time>
      </trkpt>
      <trkpt lat="47.78811" lon="-3.52509">
        <ele>11.31</ele>
        <time>2020-07-08T12:31:36Z</time>
      </trkpt>
      <trkpt lat="47.78811" lon="-3.52509">
        <ele>11.31</ele>
        <time>2020-07-08T12:31:37Z</time>
      </trkpt>
      <trkpt lat="47.78811" lon="-3.52509">
        <ele>11.31</ele>
        <time>2020-07-08T12:31:38Z</time>
      </trkpt>
      <trkpt lat="47.78811" lon="-3.52509">
        <ele>11.31</ele>
        <time>2020-07-08T12:31:39Z</time>
      </trkpt>
      <trkpt lat="47.78811" lon="-3.52509">
        <ele>11.31</ele>
        <time>2020-07-08T12:31:40Z</time>
      </trkpt>
      <trkpt lat="47.78811" lon="-3.52509">
        <ele>11.31</ele>
        <time>2020-07-08T12:31:41Z</time>
      </trkpt>
      <trkpt lat="47.78811" lon="-3.52509">
        <ele>11.31</ele>
        <time>2020-07-08T12:31:42Z</time>
      </trkpt>
      <trkpt lat="47.78806" lon="-3.52522">
        <ele>10.78</ele>
        <time>2020-07-08T12:31:43Z</time>
      </trkpt>
      <trkpt lat="47.78805" lon="-3.52524">
        <ele>10.62</ele>
        <time>2020-07-08T12:31:44Z</time>
      </trkpt>
      <trkpt lat="47.78804" lon="-3.52526">
        <ele>10.59</ele>
        <time>2020-07-08T12:31:45Z</time>
      </trkpt>
      <trkpt lat="47.78802" lon="-3.52527">
        <ele>10.61</ele>
        <time>2020-07-08T12:31:46Z</time>
      </trkpt>
      <trkpt lat="47.78801" lon="-3.52527">
        <ele>10.67</ele>
        <time>2020-07-08T12:31:47Z</time>
      </trkpt>
      <trkpt lat="47.788" lon="-3.52527">
        <ele>10.77</ele>
        <time>2020-07-08T12:31:48Z</time>
      </trkpt>
      <trkpt lat="47.788" lon="-3.52528">
        <ele>10.85</ele>
        <time>2020-07-08T12:31:49Z</time>
      </trkpt>
      <trkpt lat="47.788" lon="-3.52528">
        <ele>10.88</ele>
        <time>2020-07-08T12:31:50Z</time>
      </trkpt>
      <trkpt lat="47.788" lon="-3.52528">
        <ele>10.88</ele>
        <time>2020-07-08T12:31:51Z</time>
      </trkpt>
      <trkpt lat="47.788" lon="-3.52528">
        <ele>10.88</ele>
        <time>2020-07-08T12:31:52Z</time>
      </trkpt>
      <trkpt lat="47.788" lon="-3.52528">
        <ele>10.89</ele>
        <time>2020-07-08T12:31:53Z</time>
      </trkpt>
      <trkpt lat="47.788" lon="-3.52528">
        <ele>10.89</ele>
        <time>2020-07-08T12:31:54Z</time>
      </trkpt>
      <trkpt lat="47.788" lon="-3.52528">
        <ele>10.89</ele>
        <time>2020-07-08T12:31:55Z</time>
      </trkpt>
      <trkpt lat="47.788" lon="-3.52528">
        <ele>10.89</ele>
        <time>2020-07-08T12:31:56Z</time>
      </trkpt>
      <trkpt lat="47.788" lon="-3.52528">
        <ele>10.89</ele>
        <time>2020-07-08T12:31:57Z</time>
      </trkpt>
      <trkpt lat="47.788" lon="-3.52528">
        <ele>10.89</ele>
        <time>2020-07-08T12:31:58Z</time>
      </trkpt>
      <trkpt lat="47.7879" lon="-3.52533">
        <ele>11.02</ele>
        <time>2020-07-08T12:31:59Z</time>
      </trkpt>
      <trkpt lat="47.78788" lon="-3.52533">
        <ele>11.21</ele>
        <time>2020-07-08T12:32:00Z</time>
      </trkpt>
      <trkpt lat="47.78787" lon="-3.52534">
        <ele>11.24</ele>
        <time>2020-07-08T12:32:01Z</time>
      </trkpt>
      <trkpt lat="47.78785" lon="-3.52535">
        <ele>11.2</ele>
        <time>2020-07-08T12:32:02Z</time>
      </trkpt>
      <trkpt lat="47.78784" lon="-3.52536">
        <ele>11.17</ele>
        <time>2020-07-08T12:32:03Z</time>
      </trkpt>
      <trkpt lat="47.78782" lon="-3.52537">
        <ele>11.19</ele>
        <time>2020-07-08T12:32:04Z</time>
      </trkpt>
      <trkpt lat="47.78778" lon="-3.52537">
        <ele>11.5</ele>
        <time>2020-07-08T12:32:05Z</time>
      </trkpt>
      <trkpt lat="47.78776" lon="-3.52538">
        <ele>11.63</ele>
        <time>2020-07-08T12:32:06Z</time>
      </trkpt>
      <trkpt lat="47.78773" lon="-3.5254">
        <ele>11.49</ele>
        <time>2020-07-08T12:32:07Z</time>
      </trkpt>
      <trkpt lat="47.78771" lon="-3.52543">
        <ele>11.1</ele>
        <time>2020-07-08T12:32:08Z</time>
      </trkpt>
      <trkpt lat="47.78767" lon="-3.52544">
        <ele>10.97</ele>
        <time>2020-07-08T12:32:09Z</time>
      </trkpt>
      <trkpt lat="47.78764" lon="-3.52544">
        <ele>11.04</ele>
        <time>2020-07-08T12:32:10Z</time>
      </trkpt>
      <trkpt lat="47.78763" lon="-3.52545">
        <ele>11.04</ele>
        <time>2020-07-08T12:32:11Z</time>
      </trkpt>
      <trkpt lat="47.7876" lon="-3.52545">
        <ele>11.24</ele>
        <time>2020-07-08T12:32:12Z</time>
      </trkpt>
      <trkpt lat="47.7876" lon="-3.52545">
        <ele>11.37</ele>
        <time>2020-07-08T12:32:13Z</time>
      </trkpt>
      <trkpt lat="47.78758" lon="-3.52545">
        <ele>11.41</ele>
        <time>2020-07-08T12:32:14Z</time>
      </trkpt>
      <trkpt lat="47.78757" lon="-3.52546">
        <ele>11.38</ele>
        <time>2020-07-08T12:32:15Z</time>
      </trkpt>
      <trkpt lat="47.78756" lon="-3.52546">
        <ele>11.48</ele>
        <time>2020-07-08T12:32:16Z</time>
      </trkpt>
      <trkpt lat="47.78755" lon="-3.52545">
        <ele>11.71</ele>
        <time>2020-07-08T12:32:17Z</time>
      </trkpt>
      <trkpt lat="47.78755" lon="-3.52544">
        <ele>11.88</ele>
        <time>2020-07-08T12:32:18Z</time>
      </trkpt>
      <trkpt lat="47.78755" lon="-3.52544">
        <ele>11.93</ele>
        <time>2020-07-08T12:32:19Z</time>
      </trkpt>
      <trkpt lat="47.78755" lon="-3.52544">
        <ele>11.95</ele>
        <time>2020-07-08T12:32:20Z</time>
      </trkpt>
      <trkpt lat="47.78755" lon="-3.52544">
        <ele>11.95</ele>
        <time>2020-07-08T12:32:21Z</time>
      </trkpt>
      <trkpt lat="47.78751" lon="-3.52547">
        <ele>11.71</ele>
        <time>2020-07-08T12:32:22Z</time>
      </trkpt>
      <trkpt lat="47.7875" lon="-3.52548">
        <ele>11.57</ele>
        <time>2020-07-08T12:32:23Z</time>
      </trkpt>
      <trkpt lat="47.78749" lon="-3.52551">
        <ele>11.08</ele>
        <time>2020-07-08T12:32:24Z</time>
      </trkpt>
      <trkpt lat="47.78747" lon="-3.52552">
        <ele>10.71</ele>
        <time>2020-07-08T12:32:25Z</time>
      </trkpt>
      <trkpt lat="47.78744" lon="-3.52552">
        <ele>10.46</ele>
        <time>2020-07-08T12:32:26Z</time>
      </trkpt>
      <trkpt lat="47.78741" lon="-3.52552">
        <ele>10.26</ele>
        <time>2020-07-08T12:32:27Z</time>
      </trkpt>
      <trkpt lat="47.78738" lon="-3.52553">
        <ele>9.9</ele>
        <time>2020-07-08T12:32:28Z</time>
      </trkpt>
      <trkpt lat="47.78734" lon="-3.52554">
        <ele>9.56</ele>
        <time>2020-07-08T12:32:29Z</time>
      </trkpt>
      <trkpt lat="47.78731" lon="-3.52555">
        <ele>9.1</ele>
        <time>2020-07-08T12:32:30Z</time>
      </trkpt>
      <trkpt lat="47.78728" lon="-3.52556">
        <ele>8.53</ele>
        <time>2020-07-08T12:32:31Z</time>
      </trkpt>
      <trkpt lat="47.78726" lon="-3.52556">
        <ele>8.32</ele>
        <time>2020-07-08T12:32:32Z</time>
      </trkpt>
      <trkpt lat="47.78724" lon="-3.52555">
        <ele>8.34</ele>
        <time>2020-07-08T12:32:33Z</time>
      </trkpt>
      <trkpt lat="47.78721" lon="-3.52554">
        <ele>8.37</ele>
        <time>2020-07-08T12:32:34Z</time>
      </trkpt>
      <trkpt lat="47.78719" lon="-3.52552">
        <ele>8.54</ele>
        <time>2020-07-08T12:32:35Z</time>
      </trkpt>
      <trkpt lat="47.78717" lon="-3.52551">
        <ele>8.75</ele>
        <time>2020-07-08T12:32:36Z</time>
      </trkpt>
      <trkpt lat="47.78716" lon="-3.52549">
        <ele>9.06</ele>
        <time>2020-07-08T12:32:37Z</time>
      </trkpt>
      <trkpt lat="47.78714" lon="-3.52548">
        <ele>9.27</ele>
        <time>2020-07-08T12:32:38Z</time>
      </trkpt>
      <trkpt lat="47.78714" lon="-3.52548">
        <ele>9.38</ele>
        <time>2020-07-08T12:32:39Z</time>
      </trkpt>
      <trkpt lat="47.78714" lon="-3.52547">
        <ele>9.44</ele>
        <time>2020-07-08T12:32:40Z</time>
      </trkpt>
      <trkpt lat="47.78714" lon="-3.52547">
        <ele>9.64</ele>
        <time>2020-07-08T12:32:41Z</time>
      </trkpt>
      <trkpt lat="47.78714" lon="-3.52547">
        <ele>9.69</ele>
        <time>2020-07-08T12:32:42Z</time>
      </trkpt>
      <trkpt lat="47.78714" lon="-3.52547">
        <ele>9.71</ele>
        <time>2020-07-08T12:32:43Z</time>
      </trkpt>
      <trkpt lat="47.78714" lon="-3.52547">
        <ele>9.72</ele>
        <time>2020-07-08T12:32:44Z</time>
      </trkpt>
      <trkpt lat="47.78714" lon="-3.52547">
        <ele>9.72</ele>
        <time>2020-07-08T12:32:45Z</time>
      </trkpt>
      <trkpt lat="47.78714" lon="-3.52547">
        <ele>9.72</ele>
        <time>2020-07-08T12:32:46Z</time>
      </trkpt>
      <trkpt lat="47.78714" lon="-3.52547">
        <ele>9.72</ele>
        <time>2020-07-08T12:32:47Z</time>
      </trkpt>
      <trkpt lat="47.78714" lon="-3.52547">
        <ele>9.72</ele>
        <time>2020-07-08T12:32:48Z</time>
      </trkpt>
      <trkpt lat="47.78714" lon="-3.52547">
        <ele>9.72</ele>
        <time>2020-07-08T12:32:49Z</time>
      </trkpt>
      <trkpt lat="47.78714" lon="-3.52547">
        <ele>9.72</ele>
        <time>2020-07-08T12:32:50Z</time>
      </trkpt>
      <trkpt lat="47.78714" lon="-3.52547">
        <ele>9.72</ele>
        <time>2020-07-08T12:32:51Z</time>
      </trkpt>
      <trkpt lat="47.78714" lon="-3.52547">
        <ele>9.72</ele>
        <time>2020-07-08T12:32:52Z</time>
      </trkpt>
      <trkpt lat="47.78714" lon="-3.52547">
        <ele>9.72</ele>
        <time>2020-07-08T12:32:53Z</time>
      </trkpt>
      <trkpt lat="47.78706" lon="-3.52539">
        <ele>10.81</ele>
        <time>2020-07-08T12:32:54Z</time>
      </trkpt>
      <trkpt lat="47.78702" lon="-3.52539">
        <ele>11.02</ele>
        <time>2020-07-08T12:32:55Z</time>
      </trkpt>
      <trkpt lat="47.78699" lon="-3.52538">
        <ele>11.13</ele>
        <time>2020-07-08T12:32:56Z</time>
      </trkpt>
      <trkpt lat="47.78698" lon="-3.52537">
        <ele>11.26</ele>
        <time>2020-07-08T12:32:57Z</time>
      </trkpt>
      <trkpt lat="47.78697" lon="-3.52537">
        <ele>11.32</ele>
        <time>2020-07-08T12:32:58Z</time>
      </trkpt>
      <trkpt lat="47.78697" lon="-3.52536">
        <ele>11.4</ele>
        <time>2020-07-08T12:32:59Z</time>
      </trkpt>
      <trkpt lat="47.78697" lon="-3.52536">
        <ele>11.42</ele>
        <time>2020-07-08T12:33:00Z</time>
      </trkpt>
      <trkpt lat="47.78697" lon="-3.52536">
        <ele>11.42</ele>
        <time>2020-07-08T12:33:01Z</time>
      </trkpt>
      <trkpt lat="47.78697" lon="-3.52536">
        <ele>11.43</ele>
        <time>2020-07-08T12:33:02Z</time>
      </trkpt>
      <trkpt lat="47.78697" lon="-3.52536">
        <ele>11.43</ele>
        <time>2020-07-08T12:33:03Z</time>
      </trkpt>
      <trkpt lat="47.78697" lon="-3.52536">
        <ele>11.43</ele>
        <time>2020-07-08T12:33:04Z</time>
      </trkpt>
      <trkpt lat="47.78692" lon="-3.52533">
        <ele>11.95</ele>
        <time>2020-07-08T12:33:05Z</time>
      </trkpt>
      <trkpt lat="47.78692" lon="-3.52532">
        <ele>12.29</ele>
        <time>2020-07-08T12:33:06Z</time>
      </trkpt>
      <trkpt lat="47.78691" lon="-3.52531">
        <ele>12.64</ele>
        <time>2020-07-08T12:33:07Z</time>
      </trkpt>
      <trkpt lat="47.78691" lon="-3.5253">
        <ele>13.04</ele>
        <time>2020-07-08T12:33:08Z</time>
      </trkpt>
      <trkpt lat="47.78691" lon="-3.52528">
        <ele>13.37</ele>
        <time>2020-07-08T12:33:09Z</time>
      </trkpt>
      <trkpt lat="47.78691" lon="-3.52528">
        <ele>13.47</ele>
        <time>2020-07-08T12:33:10Z</time>
      </trkpt>
      <trkpt lat="47.78691" lon="-3.52528">
        <ele>13.5</ele>
        <time>2020-07-08T12:33:11Z</time>
      </trkpt>
      <trkpt lat="47.78691" lon="-3.52528">
        <ele>13.51</ele>
        <time>2020-07-08T12:33:12Z</time>
      </trkpt>
      <trkpt lat="47.78691" lon="-3.52528">
        <ele>13.52</ele>
        <time>2020-07-08T12:33:13Z</time>
      </trkpt>
      <trkpt lat="47.78691" lon="-3.52528">
        <ele>13.52</ele>
        <time>2020-07-08T12:33:14Z</time>
      </trkpt>
      <trkpt lat="47.78691" lon="-3.52528">
        <ele>13.52</ele>
        <time>2020-07-08T12:33:15Z</time>
      </trkpt>
      <trkpt lat="47.78691" lon="-3.52528">
        <ele>13.52</ele>
        <time>2020-07-08T12:33:16Z</time>
      </trkpt>
      <trkpt lat="47.78691" lon="-3.52528">
        <ele>13.52</ele>
        <time>2020-07-08T12:33:17Z</time>
      </trkpt>
      <trkpt lat="47.78691" lon="-3.52528">
        <ele>13.52</ele>
        <time>2020-07-08T12:33:18Z</time>
      </trkpt>
      <trkpt lat="47.78691" lon="-3.52528">
        <ele>13.52</ele>
        <time>2020-07-08T12:33:19Z</time>
      </trkpt>
      <trkpt lat="47.78691" lon="-3.52528">
        <ele>13.52</ele>
        <time>2020-07-08T12:33:20Z</time>
      </trkpt>
      <trkpt lat="47.78691" lon="-3.52528">
        <ele>13.52</ele>
        <time>2020-07-08T12:33:21Z</time>
      </trkpt>
      <trkpt lat="47.78691" lon="-3.52528">
        <ele>13.52</ele>
        <time>2020-07-08T12:33:22Z</time>
      </trkpt>
      <trkpt lat="47.78691" lon="-3.52528">
        <ele>13.52</ele>
        <time>2020-07-08T12:33:23Z</time>
      </trkpt>
      <trkpt lat="47.78691" lon="-3.52528">
        <ele>13.52</ele>
        <time>2020-07-08T12:33:24Z</time>
      </trkpt>
      <trkpt lat="47.78691" lon="-3.52528">
        <ele>13.52</ele>
        <time>2020-07-08T12:33:25Z</time>
      </trkpt>
      <trkpt lat="47.78691" lon="-3.52528">
        <ele>13.52</ele>
        <time>2020-07-08T12:33:26Z</time>
      </trkpt>
      <trkpt lat="47.78691" lon="-3.52528">
        <ele>13.52</ele>
        <time>2020-07-08T12:33:27Z</time>
      </trkpt>
      <trkpt lat="47.78691" lon="-3.52528">
        <ele>13.52</ele>
        <time>2020-07-08T12:33:28Z</time>
      </trkpt>
      <trkpt lat="47.78685" lon="-3.52522">
        <ele>14.35</ele>
        <time>2020-07-08T12:33:29Z</time>
      </trkpt>
      <trkpt lat="47.78683" lon="-3.52521">
        <ele>14.73</ele>
        <time>2020-07-08T12:33:30Z</time>
      </trkpt>
      <trkpt lat="47.78681" lon="-3.5252">
        <ele>14.98</ele>
        <time>2020-07-08T12:33:31Z</time>
      </trkpt>
      <trkpt lat="47.78679" lon="-3.52519">
        <ele>15.11</ele>
        <time>2020-07-08T12:33:32Z</time>
      </trkpt>
      <trkpt lat="47.78677" lon="-3.52519">
        <ele>15.07</ele>
        <time>2020-07-08T12:33:33Z</time>
      </trkpt>
      <trkpt lat="47.78675" lon="-3.52519">
        <ele>14.91</ele>
        <time>2020-07-08T12:33:34Z</time>
      </trkpt>
      <trkpt lat="47.78672" lon="-3.5252">
        <ele>14.61</ele>
        <time>2020-07-08T12:33:35Z</time>
      </trkpt>
      <trkpt lat="47.7867" lon="-3.52521">
        <ele>14.18</ele>
        <time>2020-07-08T12:33:36Z</time>
      </trkpt>
      <trkpt lat="47.78667" lon="-3.52522">
        <ele>13.78</ele>
        <time>2020-07-08T12:33:37Z</time>
      </trkpt>
      <trkpt lat="47.78665" lon="-3.52522">
        <ele>13.74</ele>
        <time>2020-07-08T12:33:38Z</time>
      </trkpt>
      <trkpt lat="47.78662" lon="-3.52521">
        <ele>14.16</ele>
        <time>2020-07-08T12:33:39Z</time>
      </trkpt>
      <trkpt lat="47.7866" lon="-3.5252">
        <ele>14.7</ele>
        <time>2020-07-08T12:33:40Z</time>
      </trkpt>
      <trkpt lat="47.78658" lon="-3.52518">
        <ele>15.37</ele>
        <time>2020-07-08T12:33:41Z</time>
      </trkpt>
      <trkpt lat="47.78656" lon="-3.52517">
        <ele>15.9</ele>
        <time>2020-07-08T12:33:42Z</time>
      </trkpt>
      <trkpt lat="47.78654" lon="-3.52517">
        <ele>16.25</ele>
        <time>2020-07-08T12:33:43Z</time>
      </trkpt>
      <trkpt lat="47.78652" lon="-3.52517">
        <ele>16.54</ele>
        <time>2020-07-08T12:33:44Z</time>
      </trkpt>
      <trkpt lat="47.78649" lon="-3.52518">
        <ele>16.63</ele>
        <time>2020-07-08T12:33:45Z</time>
      </trkpt>
      <trkpt lat="47.78646" lon="-3.52519">
        <ele>16.56</ele>
        <time>2020-07-08T12:33:46Z</time>
      </trkpt>
      <trkpt lat="47.78644" lon="-3.5252">
        <ele>16.53</ele>
        <time>2020-07-08T12:33:47Z</time>
      </trkpt>
      <trkpt lat="47.78643" lon="-3.5252">
        <ele>16.51</ele>
        <time>2020-07-08T12:33:48Z</time>
      </trkpt>
      <trkpt lat="47.78643" lon="-3.5252">
        <ele>16.47</ele>
        <time>2020-07-08T12:33:49Z</time>
      </trkpt>
      <trkpt lat="47.78643" lon="-3.52521">
        <ele>16.41</ele>
        <time>2020-07-08T12:33:50Z</time>
      </trkpt>
      <trkpt lat="47.78643" lon="-3.52521">
        <ele>16.38</ele>
        <time>2020-07-08T12:33:51Z</time>
      </trkpt>
      <trkpt lat="47.78643" lon="-3.52521">
        <ele>16.38</ele>
        <time>2020-07-08T12:33:52Z</time>
      </trkpt>
      <trkpt lat="47.78643" lon="-3.52521">
        <ele>16.38</ele>
        <time>2020-07-08T12:33:53Z</time>
      </trkpt>
      <trkpt lat="47.78643" lon="-3.52521">
        <ele>16.38</ele>
        <time>2020-07-08T12:33:54Z</time>
      </trkpt>
      <trkpt lat="47.78643" lon="-3.52521">
        <ele>16.38</ele>
        <time>2020-07-08T12:33:55Z</time>
      </trkpt>
      <trkpt lat="47.78643" lon="-3.52521">
        <ele>16.38</ele>
        <time>2020-07-08T12:33:56Z</time>
      </trkpt>
      <trkpt lat="47.78643" lon="-3.52521">
        <ele>16.38</ele>
        <time>2020-07-08T12:33:57Z</time>
      </trkpt>
      <trkpt lat="47.78643" lon="-3.52521">
        <ele>16.38</ele>
        <time>2020-07-08T12:33:58Z</time>
      </trkpt>
      <trkpt lat="47.78643" lon="-3.52521">
        <ele>16.38</ele>
        <time>2020-07-08T12:33:59Z</time>
      </trkpt>
      <trkpt lat="47.78634" lon="-3.52528">
        <ele>15.58</ele>
        <time>2020-07-08T12:34:00Z</time>
      </trkpt>
      <trkpt lat="47.78634" lon="-3.52528">
        <ele>15.33</ele>
        <time>2020-07-08T12:34:01Z</time>
      </trkpt>
      <trkpt lat="47.78633" lon="-3.52528">
        <ele>15.19</ele>
        <time>2020-07-08T12:34:02Z</time>
      </trkpt>
      <trkpt lat="47.78632" lon="-3.52528">
        <ele>15.13</ele>
        <time>2020-07-08T12:34:03Z</time>
      </trkpt>
      <trkpt lat="47.78632" lon="-3.52528">
        <ele>15.11</ele>
        <time>2020-07-08T12:34:04Z</time>
      </trkpt>
      <trkpt lat="47.78632" lon="-3.52528">
        <ele>15.11</ele>
        <time>2020-07-08T12:34:05Z</time>
      </trkpt>
      <trkpt lat="47.78632" lon="-3.52528">
        <ele>15.1</ele>
        <time>2020-07-08T12:34:06Z</time>
      </trkpt>
      <trkpt lat="47.78632" lon="-3.52528">
        <ele>15.1</ele>
        <time>2020-07-08T12:34:07Z</time>
      </trkpt>
      <trkpt lat="47.78623" lon="-3.52531">
        <ele>14.56</ele>
        <time>2020-07-08T12:34:08Z</time>
      </trkpt>
      <trkpt lat="47.7862" lon="-3.52531">
        <ele>14.42</ele>
        <time>2020-07-08T12:34:09Z</time>
      </trkpt>
      <trkpt lat="47.78616" lon="-3.5253">
        <ele>14.84</ele>
        <time>2020-07-08T12:34:10Z</time>
      </trkpt>
      <trkpt lat="47.78613" lon="-3.52528">
        <ele>15.5</ele>
        <time>2020-07-08T12:34:11Z</time>
      </trkpt>
      <trkpt lat="47.7861" lon="-3.52528">
        <ele>15.89</ele>
        <time>2020-07-08T12:34:12Z</time>
      </trkpt>
      <trkpt lat="47.78608" lon="-3.52528">
        <ele>15.91</ele>
        <time>2020-07-08T12:34:13Z</time>
      </trkpt>
      <trkpt lat="47.78606" lon="-3.52528">
        <ele>15.73</ele>
        <time>2020-07-08T12:34:14Z</time>
      </trkpt>
      <trkpt lat="47.78603" lon="-3.52529">
        <ele>15.41</ele>
        <time>2020-07-08T12:34:15Z</time>
      </trkpt>
      <trkpt lat="47.786" lon="-3.52529">
        <ele>15.09</ele>
        <time>2020-07-08T12:34:16Z</time>
      </trkpt>
      <trkpt lat="47.78598" lon="-3.5253">
        <ele>14.8</ele>
        <time>2020-07-08T12:34:17Z</time>
      </trkpt>
      <trkpt lat="47.78597" lon="-3.5253">
        <ele>14.59</ele>
        <time>2020-07-08T12:34:18Z</time>
      </trkpt>
      <trkpt lat="47.78597" lon="-3.5253">
        <ele>14.54</ele>
        <time>2020-07-08T12:34:19Z</time>
      </trkpt>
      <trkpt lat="47.78597" lon="-3.5253">
        <ele>14.52</ele>
        <time>2020-07-08T12:34:20Z</time>
      </trkpt>
      <trkpt lat="47.78597" lon="-3.5253">
        <ele>14.51</ele>
        <time>2020-07-08T12:34:21Z</time>
      </trkpt>
      <trkpt lat="47.78597" lon="-3.5253">
        <ele>14.51</ele>
        <time>2020-07-08T12:34:22Z</time>
      </trkpt>
      <trkpt lat="47.78597" lon="-3.5253">
        <ele>14.51</ele>
        <time>2020-07-08T12:34:23Z</time>
      </trkpt>
      <trkpt lat="47.78597" lon="-3.5253">
        <ele>14.51</ele>
        <time>2020-07-08T12:34:24Z</time>
      </trkpt>
      <trkpt lat="47.78597" lon="-3.5253">
        <ele>14.51</ele>
        <time>2020-07-08T12:34:25Z</time>
      </trkpt>
      <trkpt lat="47.78597" lon="-3.5253">
        <ele>14.51</ele>
        <time>2020-07-08T12:34:26Z</time>
      </trkpt>
      <trkpt lat="47.78597" lon="-3.5253">
        <ele>14.51</ele>
        <time>2020-07-08T12:34:27Z</time>
      </trkpt>
      <trkpt lat="47.78597" lon="-3.5253">
        <ele>14.51</ele>
        <time>2020-07-08T12:34:28Z</time>
      </trkpt>
      <trkpt lat="47.78597" lon="-3.5253">
        <ele>14.51</ele>
        <time>2020-07-08T12:34:29Z</time>
      </trkpt>
      <trkpt lat="47.78597" lon="-3.5253">
        <ele>14.51</ele>
        <time>2020-07-08T12:34:30Z</time>
      </trkpt>
      <trkpt lat="47.78597" lon="-3.5253">
        <ele>14.51</ele>
        <time>2020-07-08T12:34:31Z</time>
      </trkpt>
      <trkpt lat="47.78597" lon="-3.5253">
        <ele>14.51</ele>
        <time>2020-07-08T12:34:32Z</time>
      </trkpt>
      <trkpt lat="47.78597" lon="-3.5253">
        <ele>14.51</ele>
        <time>2020-07-08T12:34:33Z</time>
      </trkpt>
      <trkpt lat="47.78597" lon="-3.5253">
        <ele>14.51</ele>
        <time>2020-07-08T12:34:34Z</time>
      </trkpt>
      <trkpt lat="47.78597" lon="-3.5253">
        <ele>14.51</ele>
        <time>2020-07-08T12:34:35Z</time>
      </trkpt>
      <trkpt lat="47.78588" lon="-3.52535">
        <ele>12.87</ele>
        <time>2020-07-08T12:34:36Z</time>
      </trkpt>
      <trkpt lat="47.78587" lon="-3.52535">
        <ele>12.16</ele>
        <time>2020-07-08T12:34:37Z</time>
      </trkpt>
      <trkpt lat="47.78586" lon="-3.52535">
        <ele>11.95</ele>
        <time>2020-07-08T12:34:38Z</time>
      </trkpt>
      <trkpt lat="47.78585" lon="-3.52535">
        <ele>11.9</ele>
        <time>2020-07-08T12:34:39Z</time>
      </trkpt>
      <trkpt lat="47.78584" lon="-3.52535">
        <ele>11.91</ele>
        <time>2020-07-08T12:34:40Z</time>
      </trkpt>
      <trkpt lat="47.78583" lon="-3.52535">
        <ele>11.84</ele>
        <time>2020-07-08T12:34:41Z</time>
      </trkpt>
      <trkpt lat="47.78582" lon="-3.52535">
        <ele>11.81</ele>
        <time>2020-07-08T12:34:42Z</time>
      </trkpt>
      <trkpt lat="47.78582" lon="-3.52535">
        <ele>11.8</ele>
        <time>2020-07-08T12:34:43Z</time>
      </trkpt>
      <trkpt lat="47.7858" lon="-3.52534">
        <ele>12.24</ele>
        <time>2020-07-08T12:34:44Z</time>
      </trkpt>
      <trkpt lat="47.78579" lon="-3.52533">
        <ele>12.63</ele>
        <time>2020-07-08T12:34:45Z</time>
      </trkpt>
      <trkpt lat="47.78579" lon="-3.52532">
        <ele>12.89</ele>
        <time>2020-07-08T12:34:46Z</time>
      </trkpt>
      <trkpt lat="47.78578" lon="-3.52532">
        <ele>13.07</ele>
        <time>2020-07-08T12:34:47Z</time>
      </trkpt>
      <trkpt lat="47.78578" lon="-3.52532">
        <ele>13.12</ele>
        <time>2020-07-08T12:34:48Z</time>
      </trkpt>
      <trkpt lat="47.78578" lon="-3.52532">
        <ele>13.14</ele>
        <time>2020-07-08T12:34:49Z</time>
      </trkpt>
      <trkpt lat="47.78578" lon="-3.52532">
        <ele>13.15</ele>
        <time>2020-07-08T12:34:50Z</time>
      </trkpt>
      <trkpt lat="47.78578" lon="-3.52532">
        <ele>13.15</ele>
        <time>2020-07-08T12:34:51Z</time>
      </trkpt>
      <trkpt lat="47.78578" lon="-3.52532">
        <ele>13.15</ele>
        <time>2020-07-08T12:34:52Z</time>
      </trkpt>
      <trkpt lat="47.78578" lon="-3.52532">
        <ele>13.15</ele>
        <time>2020-07-08T12:34:53Z</time>
      </trkpt>
      <trkpt lat="47.78578" lon="-3.52532">
        <ele>13.15</ele>
        <time>2020-07-08T12:34:54Z</time>
      </trkpt>
      <trkpt lat="47.78578" lon="-3.52532">
        <ele>13.15</ele>
        <time>2020-07-08T12:34:55Z</time>
      </trkpt>
      <trkpt lat="47.78578" lon="-3.52532">
        <ele>13.15</ele>
        <time>2020-07-08T12:34:56Z</time>
      </trkpt>
      <trkpt lat="47.78578" lon="-3.52532">
        <ele>13.15</ele>
        <time>2020-07-08T12:34:57Z</time>
      </trkpt>
      <trkpt lat="47.78578" lon="-3.52532">
        <ele>13.15</ele>
        <time>2020-07-08T12:34:58Z</time>
      </trkpt>
      <trkpt lat="47.78578" lon="-3.52532">
        <ele>13.15</ele>
        <time>2020-07-08T12:34:59Z</time>
      </trkpt>
      <trkpt lat="47.78578" lon="-3.52532">
        <ele>13.15</ele>
        <time>2020-07-08T12:35:00Z</time>
      </trkpt>
      <trkpt lat="47.78578" lon="-3.52532">
        <ele>13.15</ele>
        <time>2020-07-08T12:35:01Z</time>
      </trkpt>
      <trkpt lat="47.78569" lon="-3.52527">
        <ele>14.62</ele>
        <time>2020-07-08T12:35:02Z</time>
      </trkpt>
      <trkpt lat="47.78568" lon="-3.52527">
        <ele>15.02</ele>
        <time>2020-07-08T12:35:03Z</time>
      </trkpt>
      <trkpt lat="47.78567" lon="-3.52526">
        <ele>15.33</ele>
        <time>2020-07-08T12:35:04Z</time>
      </trkpt>
      <trkpt lat="47.78566" lon="-3.52525">
        <ele>15.6</ele>
        <time>2020-07-08T12:35:05Z</time>
      </trkpt>
      <trkpt lat="47.78565" lon="-3.52525">
        <ele>15.79</ele>
        <time>2020-07-08T12:35:06Z</time>
      </trkpt>
      <trkpt lat="47.78564" lon="-3.52524">
        <ele>15.98</ele>
        <time>2020-07-08T12:35:07Z</time>
      </trkpt>
      <trkpt lat="47.78562" lon="-3.52524">
        <ele>16.07</ele>
        <time>2020-07-08T12:35:08Z</time>
      </trkpt>
      <trkpt lat="47.7856" lon="-3.52524">
        <ele>16.01</ele>
        <time>2020-07-08T12:35:09Z</time>
      </trkpt>
      <trkpt lat="47.78558" lon="-3.52525">
        <ele>15.87</ele>
        <time>2020-07-08T12:35:10Z</time>
      </trkpt>
      <trkpt lat="47.78556" lon="-3.52526">
        <ele>15.59</ele>
        <time>2020-07-08T12:35:11Z</time>
      </trkpt>
      <trkpt lat="47.78554" lon="-3.52527">
        <ele>14.99</ele>
        <time>2020-07-08T12:35:12Z</time>
      </trkpt>
      <trkpt lat="47.78551" lon="-3.52529">
        <ele>13.98</ele>
        <time>2020-07-08T12:35:13Z</time>
      </trkpt>
      <trkpt lat="47.78549" lon="-3.52529">
        <ele>13.14</ele>
        <time>2020-07-08T12:35:14Z</time>
      </trkpt>
      <trkpt lat="47.78547" lon="-3.52529">
        <ele>12.51</ele>
        <time>2020-07-08T12:35:15Z</time>
      </trkpt>
      <trkpt lat="47.78545" lon="-3.5253">
        <ele>11.86</ele>
        <time>2020-07-08T12:35:16Z</time>
      </trkpt>
      <trkpt lat="47.78545" lon="-3.5253">
        <ele>11.48</ele>
        <time>2020-07-08T12:35:17Z</time>
      </trkpt>
      <trkpt lat="47.78545" lon="-3.5253">
        <ele>11.34</ele>
        <time>2020-07-08T12:35:18Z</time>
      </trkpt>
      <trkpt lat="47.78545" lon="-3.5253">
        <ele>11.29</ele>
        <time>2020-07-08T12:35:19Z</time>
      </trkpt>
      <trkpt lat="47.78545" lon="-3.5253">
        <ele>11.28</ele>
        <time>2020-07-08T12:35:20Z</time>
      </trkpt>
      <trkpt lat="47.78545" lon="-3.5253">
        <ele>11.28</ele>
        <time>2020-07-08T12:35:21Z</time>
      </trkpt>
      <trkpt lat="47.78545" lon="-3.5253">
        <ele>11.28</ele>
        <time>2020-07-08T12:35:22Z</time>
      </trkpt>
      <trkpt lat="47.78545" lon="-3.5253">
        <ele>11.28</ele>
        <time>2020-07-08T12:35:23Z</time>
      </trkpt>
      <trkpt lat="47.78545" lon="-3.5253">
        <ele>11.28</ele>
        <time>2020-07-08T12:35:24Z</time>
      </trkpt>
      <trkpt lat="47.78545" lon="-3.5253">
        <ele>11.28</ele>
        <time>2020-07-08T12:35:25Z</time>
      </trkpt>
      <trkpt lat="47.78545" lon="-3.5253">
        <ele>11.28</ele>
        <time>2020-07-08T12:35:26Z</time>
      </trkpt>
      <trkpt lat="47.78545" lon="-3.5253">
        <ele>11.28</ele>
        <time>2020-07-08T12:35:27Z</time>
      </trkpt>
      <trkpt lat="47.78545" lon="-3.5253">
        <ele>11.28</ele>
        <time>2020-07-08T12:35:28Z</time>
      </trkpt>
      <trkpt lat="47.78545" lon="-3.5253">
        <ele>11.28</ele>
        <time>2020-07-08T12:35:29Z</time>
      </trkpt>
      <trkpt lat="47.78545" lon="-3.5253">
        <ele>11.28</ele>
        <time>2020-07-08T12:35:30Z</time>
      </trkpt>
      <trkpt lat="47.78536" lon="-3.52531">
        <ele>9.68</ele>
        <time>2020-07-08T12:35:31Z</time>
      </trkpt>
      <trkpt lat="47.78534" lon="-3.52531">
        <ele>9.06</ele>
        <time>2020-07-08T12:35:32Z</time>
      </trkpt>
      <trkpt lat="47.78533" lon="-3.5253">
        <ele>8.8</ele>
        <time>2020-07-08T12:35:33Z</time>
      </trkpt>
      <trkpt lat="47.78532" lon="-3.5253">
        <ele>8.61</ele>
        <time>2020-07-08T12:35:34Z</time>
      </trkpt>
      <trkpt lat="47.78532" lon="-3.5253">
        <ele>8.56</ele>
        <time>2020-07-08T12:35:35Z</time>
      </trkpt>
      <trkpt lat="47.78532" lon="-3.5253">
        <ele>8.54</ele>
        <time>2020-07-08T12:35:36Z</time>
      </trkpt>
      <trkpt lat="47.78532" lon="-3.5253">
        <ele>8.54</ele>
        <time>2020-07-08T12:35:37Z</time>
      </trkpt>
      <trkpt lat="47.78532" lon="-3.5253">
        <ele>8.53</ele>
        <time>2020-07-08T12:35:38Z</time>
      </trkpt>
      <trkpt lat="47.78532" lon="-3.5253">
        <ele>8.53</ele>
        <time>2020-07-08T12:35:39Z</time>
      </trkpt>
      <trkpt lat="47.78532" lon="-3.5253">
        <ele>8.53</ele>
        <time>2020-07-08T12:35:40Z</time>
      </trkpt>
      <trkpt lat="47.78532" lon="-3.5253">
        <ele>8.53</ele>
        <time>2020-07-08T12:35:41Z</time>
      </trkpt>
      <trkpt lat="47.78532" lon="-3.5253">
        <ele>8.53</ele>
        <time>2020-07-08T12:35:42Z</time>
      </trkpt>
      <trkpt lat="47.78532" lon="-3.5253">
        <ele>8.53</ele>
        <time>2020-07-08T12:35:43Z</time>
      </trkpt>
      <trkpt lat="47.78532" lon="-3.5253">
        <ele>8.53</ele>
        <time>2020-07-08T12:35:44Z</time>
      </trkpt>
      <trkpt lat="47.78532" lon="-3.5253">
        <ele>8.53</ele>
        <time>2020-07-08T12:35:45Z</time>
      </trkpt>
      <trkpt lat="47.78532" lon="-3.5253">
        <ele>8.53</ele>
        <time>2020-07-08T12:35:46Z</time>
      </trkpt>
      <trkpt lat="47.78532" lon="-3.5253">
        <ele>8.53</ele>
        <time>2020-07-08T12:35:47Z</time>
      </trkpt>
      <trkpt lat="47.78532" lon="-3.5253">
        <ele>8.53</ele>
        <time>2020-07-08T12:35:48Z</time>
      </trkpt>
      <trkpt lat="47.78532" lon="-3.5253">
        <ele>8.53</ele>
        <time>2020-07-08T12:35:49Z</time>
      </trkpt>
      <trkpt lat="47.78525" lon="-3.52517">
        <ele>10.13</ele>
        <time>2020-07-08T12:35:50Z</time>
      </trkpt>
      <trkpt lat="47.78525" lon="-3.52516">
        <ele>10.77</ele>
        <time>2020-07-08T12:35:51Z</time>
      </trkpt>
      <trkpt lat="47.78524" lon="-3.52516">
        <ele>10.98</ele>
        <time>2020-07-08T12:35:52Z</time>
      </trkpt>
      <trkpt lat="47.78524" lon="-3.52515">
        <ele>11.05</ele>
        <time>2020-07-08T12:35:53Z</time>
      </trkpt>
      <trkpt lat="47.78524" lon="-3.52515">
        <ele>11.07</ele>
        <time>2020-07-08T12:35:54Z</time>
      </trkpt>
      <trkpt lat="47.78524" lon="-3.52515">
        <ele>11.08</ele>
        <time>2020-07-08T12:35:55Z</time>
      </trkpt>
      <trkpt lat="47.78524" lon="-3.52515">
        <ele>11.08</ele>
        <time>2020-07-08T12:35:56Z</time>
      </trkpt>
      <trkpt lat="47.78524" lon="-3.52515">
        <ele>11.08</ele>
        <time>2020-07-08T12:35:57Z</time>
      </trkpt>
      <trkpt lat="47.78524" lon="-3.52515">
        <ele>11.08</ele>
        <time>2020-07-08T12:35:58Z</time>
      </trkpt>
      <trkpt lat="47.78524" lon="-3.52515">
        <ele>11.08</ele>
        <time>2020-07-08T12:35:59Z</time>
      </trkpt>
      <trkpt lat="47.78524" lon="-3.52515">
        <ele>11.08</ele>
        <time>2020-07-08T12:36:00Z</time>
      </trkpt>
      <trkpt lat="47.78521" lon="-3.52514">
        <ele>10.83</ele>
        <time>2020-07-08T12:36:01Z</time>
      </trkpt>
      <trkpt lat="47.78519" lon="-3.52512">
        <ele>10.85</ele>
        <time>2020-07-08T12:36:02Z</time>
      </trkpt>
      <trkpt lat="47.78516" lon="-3.52508">
        <ele>11.07</ele>
        <time>2020-07-08T12:36:03Z</time>
      </trkpt>
      <trkpt lat="47.78514" lon="-3.52504">
        <ele>11.51</ele>
        <time>2020-07-08T12:36:04Z</time>
      </trkpt>
      <trkpt lat="47.78511" lon="-3.525">
        <ele>12.04</ele>
        <time>2020-07-08T12:36:05Z</time>
      </trkpt>
      <trkpt lat="47.7851" lon="-3.52496">
        <ele>12.5</ele>
        <time>2020-07-08T12:36:06Z</time>
      </trkpt>
      <trkpt lat="47.78508" lon="-3.52493">
        <ele>12.71</ele>
        <time>2020-07-08T12:36:07Z</time>
      </trkpt>
      <trkpt lat="47.78507" lon="-3.52489">
        <ele>12.84</ele>
        <time>2020-07-08T12:36:08Z</time>
      </trkpt>
      <trkpt lat="47.78504" lon="-3.52486">
        <ele>12.79</ele>
        <time>2020-07-08T12:36:09Z</time>
      </trkpt>
      <trkpt lat="47.78501" lon="-3.52482">
        <ele>12.69</ele>
        <time>2020-07-08T12:36:10Z</time>
      </trkpt>
      <trkpt lat="47.785" lon="-3.52479">
        <ele>12.78</ele>
        <time>2020-07-08T12:36:11Z</time>
      </trkpt>
      <trkpt lat="47.78498" lon="-3.52476">
        <ele>13.19</ele>
        <time>2020-07-08T12:36:12Z</time>
      </trkpt>
      <trkpt lat="47.78496" lon="-3.52472">
        <ele>13.81</ele>
        <time>2020-07-08T12:36:13Z</time>
      </trkpt>
      <trkpt lat="47.78492" lon="-3.5247">
        <ele>14.15</ele>
        <time>2020-07-08T12:36:14Z</time>
      </trkpt>
      <trkpt lat="47.7849" lon="-3.52468">
        <ele>14.33</ele>
        <time>2020-07-08T12:36:15Z</time>
      </trkpt>
      <trkpt lat="47.78488" lon="-3.52467">
        <ele>14.45</ele>
        <time>2020-07-08T12:36:16Z</time>
      </trkpt>
      <trkpt lat="47.78487" lon="-3.52466">
        <ele>14.53</ele>
        <time>2020-07-08T12:36:17Z</time>
      </trkpt>
      <trkpt lat="47.78487" lon="-3.52466">
        <ele>14.56</ele>
        <time>2020-07-08T12:36:18Z</time>
      </trkpt>
      <trkpt lat="47.78488" lon="-3.52466">
        <ele>14.57</ele>
        <time>2020-07-08T12:36:19Z</time>
      </trkpt>
      <trkpt lat="47.78487" lon="-3.52466">
        <ele>14.55</ele>
        <time>2020-07-08T12:36:20Z</time>
      </trkpt>
      <trkpt lat="47.78487" lon="-3.52466">
        <ele>14.54</ele>
        <time>2020-07-08T12:36:21Z</time>
      </trkpt>
      <trkpt lat="47.78487" lon="-3.52466">
        <ele>14.54</ele>
        <time>2020-07-08T12:36:22Z</time>
      </trkpt>
      <trkpt lat="47.78487" lon="-3.52466">
        <ele>14.54</ele>
        <time>2020-07-08T12:36:23Z</time>
      </trkpt>
      <trkpt lat="47.78487" lon="-3.52466">
        <ele>14.54</ele>
        <time>2020-07-08T12:36:24Z</time>
      </trkpt>
      <trkpt lat="47.78487" lon="-3.52466">
        <ele>14.54</ele>
        <time>2020-07-08T12:36:25Z</time>
      </trkpt>
      <trkpt lat="47.78487" lon="-3.52466">
        <ele>14.54</ele>
        <time>2020-07-08T12:36:26Z</time>
      </trkpt>
      <trkpt lat="47.78487" lon="-3.52466">
        <ele>14.54</ele>
        <time>2020-07-08T12:36:27Z</time>
      </trkpt>
      <trkpt lat="47.78487" lon="-3.52466">
        <ele>14.54</ele>
        <time>2020-07-08T12:36:28Z</time>
      </trkpt>
      <trkpt lat="47.78487" lon="-3.52466">
        <ele>14.54</ele>
        <time>2020-07-08T12:36:29Z</time>
      </trkpt>
      <trkpt lat="47.78487" lon="-3.52466">
        <ele>14.54</ele>
        <time>2020-07-08T12:36:30Z</time>
      </trkpt>
      <trkpt lat="47.78487" lon="-3.52466">
        <ele>14.54</ele>
        <time>2020-07-08T12:36:31Z</time>
      </trkpt>
      <trkpt lat="47.7848" lon="-3.52457">
        <ele>14.87</ele>
        <time>2020-07-08T12:36:32Z</time>
      </trkpt>
      <trkpt lat="47.78481" lon="-3.52457">
        <ele>15.01</ele>
        <time>2020-07-08T12:36:33Z</time>
      </trkpt>
      <trkpt lat="47.7848" lon="-3.52456">
        <ele>15.03</ele>
        <time>2020-07-08T12:36:34Z</time>
      </trkpt>
      <trkpt lat="47.78481" lon="-3.52456">
        <ele>15.07</ele>
        <time>2020-07-08T12:36:35Z</time>
      </trkpt>
      <trkpt lat="47.78481" lon="-3.52456">
        <ele>15.09</ele>
        <time>2020-07-08T12:36:36Z</time>
      </trkpt>
      <trkpt lat="47.78481" lon="-3.52456">
        <ele>15.1</ele>
        <time>2020-07-08T12:36:37Z</time>
      </trkpt>
      <trkpt lat="47.78481" lon="-3.52456">
        <ele>15.1</ele>
        <time>2020-07-08T12:36:38Z</time>
      </trkpt>
      <trkpt lat="47.78481" lon="-3.52456">
        <ele>15.1</ele>
        <time>2020-07-08T12:36:39Z</time>
      </trkpt>
      <trkpt lat="47.78481" lon="-3.52456">
        <ele>15.1</ele>
        <time>2020-07-08T12:36:40Z</time>
      </trkpt>
      <trkpt lat="47.78481" lon="-3.52456">
        <ele>15.1</ele>
        <time>2020-07-08T12:36:41Z</time>
      </trkpt>
      <trkpt lat="47.78481" lon="-3.52456">
        <ele>15.1</ele>
        <time>2020-07-08T12:36:42Z</time>
      </trkpt>
      <trkpt lat="47.78481" lon="-3.52456">
        <ele>15.1</ele>
        <time>2020-07-08T12:36:43Z</time>
      </trkpt>
      <trkpt lat="47.78481" lon="-3.52456">
        <ele>15.1</ele>
        <time>2020-07-08T12:36:44Z</time>
      </trkpt>
      <trkpt lat="47.78481" lon="-3.52456">
        <ele>15.1</ele>
        <time>2020-07-08T12:36:45Z</time>
      </trkpt>
      <trkpt lat="47.78481" lon="-3.52456">
        <ele>15.1</ele>
        <time>2020-07-08T12:36:46Z</time>
      </trkpt>
      <trkpt lat="47.78477" lon="-3.52447">
        <ele>15.31</ele>
        <time>2020-07-08T12:36:47Z</time>
      </trkpt>
      <trkpt lat="47.78477" lon="-3.52445">
        <ele>15.41</ele>
        <time>2020-07-08T12:36:48Z</time>
      </trkpt>
      <trkpt lat="47.78475" lon="-3.52443">
        <ele>15.44</ele>
        <time>2020-07-08T12:36:49Z</time>
      </trkpt>
      <trkpt lat="47.78474" lon="-3.52442">
        <ele>15.4</ele>
        <time>2020-07-08T12:36:50Z</time>
      </trkpt>
      <trkpt lat="47.78474" lon="-3.52442">
        <ele>15.35</ele>
        <time>2020-07-08T12:36:51Z</time>
      </trkpt>
      <trkpt lat="47.78473" lon="-3.52442">
        <ele>15.3</ele>
        <time>2020-07-08T12:36:52Z</time>
      </trkpt>
      <trkpt lat="47.78473" lon="-3.52442">
        <ele>15.28</ele>
        <time>2020-07-08T12:36:53Z</time>
      </trkpt>
      <trkpt lat="47.78473" lon="-3.52442">
        <ele>15.27</ele>
        <time>2020-07-08T12:36:54Z</time>
      </trkpt>
      <trkpt lat="47.78473" lon="-3.52442">
        <ele>15.27</ele>
        <time>2020-07-08T12:36:55Z</time>
      </trkpt>
      <trkpt lat="47.78473" lon="-3.52442">
        <ele>15.27</ele>
        <time>2020-07-08T12:36:56Z</time>
      </trkpt>
      <trkpt lat="47.78473" lon="-3.52442">
        <ele>15.27</ele>
        <time>2020-07-08T12:36:57Z</time>
      </trkpt>
      <trkpt lat="47.78473" lon="-3.52442">
        <ele>15.27</ele>
        <time>2020-07-08T12:36:58Z</time>
      </trkpt>
      <trkpt lat="47.78473" lon="-3.52446">
        <ele>15.09</ele>
        <time>2020-07-08T12:36:59Z</time>
      </trkpt>
      <trkpt lat="47.78472" lon="-3.52448">
        <ele>15.06</ele>
        <time>2020-07-08T12:37:00Z</time>
      </trkpt>
      <trkpt lat="47.7847" lon="-3.52449">
        <ele>15.42</ele>
        <time>2020-07-08T12:37:01Z</time>
      </trkpt>
      <trkpt lat="47.78469" lon="-3.52451">
        <ele>15.62</ele>
        <time>2020-07-08T12:37:02Z</time>
      </trkpt>
      <trkpt lat="47.78468" lon="-3.52453">
        <ele>15.76</ele>
        <time>2020-07-08T12:37:03Z</time>
      </trkpt>
      <trkpt lat="47.78468" lon="-3.52455">
        <ele>15.91</ele>
        <time>2020-07-08T12:37:04Z</time>
      </trkpt>
      <trkpt lat="47.78467" lon="-3.52455">
        <ele>16.12</ele>
        <time>2020-07-08T12:37:05Z</time>
      </trkpt>
      <trkpt lat="47.78467" lon="-3.52455">
        <ele>16.2</ele>
        <time>2020-07-08T12:37:06Z</time>
      </trkpt>
      <trkpt lat="47.78468" lon="-3.52453">
        <ele>16.08</ele>
        <time>2020-07-08T12:37:07Z</time>
      </trkpt>
      <trkpt lat="47.78469" lon="-3.52452">
        <ele>15.8</ele>
        <time>2020-07-08T12:37:08Z</time>
      </trkpt>
      <trkpt lat="47.78471" lon="-3.5245">
        <ele>15.45</ele>
        <time>2020-07-08T12:37:09Z</time>
      </trkpt>
      <trkpt lat="47.78472" lon="-3.52448">
        <ele>15.17</ele>
        <time>2020-07-08T12:37:10Z</time>
      </trkpt>
      <trkpt lat="47.78473" lon="-3.52446">
        <ele>15.06</ele>
        <time>2020-07-08T12:37:11Z</time>
      </trkpt>
      <trkpt lat="47.78474" lon="-3.52443">
        <ele>15.24</ele>
        <time>2020-07-08T12:37:12Z</time>
      </trkpt>
      <trkpt lat="47.78475" lon="-3.5244">
        <ele>15.55</ele>
        <time>2020-07-08T12:37:13Z</time>
      </trkpt>
      <trkpt lat="47.78476" lon="-3.52437">
        <ele>15.9</ele>
        <time>2020-07-08T12:37:14Z</time>
      </trkpt>
      <trkpt lat="47.78477" lon="-3.52433">
        <ele>16.24</ele>
        <time>2020-07-08T12:37:15Z</time>
      </trkpt>
      <trkpt lat="47.78476" lon="-3.52431">
        <ele>16.4</ele>
        <time>2020-07-08T12:37:16Z</time>
      </trkpt>
      <trkpt lat="47.78475" lon="-3.5243">
        <ele>16.4</ele>
        <time>2020-07-08T12:37:17Z</time>
      </trkpt>
      <trkpt lat="47.78474" lon="-3.5243">
        <ele>16.3</ele>
        <time>2020-07-08T12:37:18Z</time>
      </trkpt>
      <trkpt lat="47.78472" lon="-3.52429">
        <ele>16.2</ele>
        <time>2020-07-08T12:37:19Z</time>
      </trkpt>
      <trkpt lat="47.78472" lon="-3.52429">
        <ele>16.23</ele>
        <time>2020-07-08T12:37:20Z</time>
      </trkpt>
      <trkpt lat="47.78471" lon="-3.52429">
        <ele>16.25</ele>
        <time>2020-07-08T12:37:21Z</time>
      </trkpt>
      <trkpt lat="47.78471" lon="-3.52429">
        <ele>16.25</ele>
        <time>2020-07-08T12:37:22Z</time>
      </trkpt>
      <trkpt lat="47.78471" lon="-3.52429">
        <ele>16.24</ele>
        <time>2020-07-08T12:37:23Z</time>
      </trkpt>
      <trkpt lat="47.78471" lon="-3.52429">
        <ele>16.24</ele>
        <time>2020-07-08T12:37:24Z</time>
      </trkpt>
      <trkpt lat="47.78471" lon="-3.52429">
        <ele>16.24</ele>
        <time>2020-07-08T12:37:25Z</time>
      </trkpt>
      <trkpt lat="47.78471" lon="-3.52429">
        <ele>16.24</ele>
        <time>2020-07-08T12:37:26Z</time>
      </trkpt>
      <trkpt lat="47.78471" lon="-3.52429">
        <ele>16.24</ele>
        <time>2020-07-08T12:37:27Z</time>
      </trkpt>
      <trkpt lat="47.78471" lon="-3.52429">
        <ele>16.24</ele>
        <time>2020-07-08T12:37:28Z</time>
      </trkpt>
      <trkpt lat="47.78471" lon="-3.52429">
        <ele>16.24</ele>
        <time>2020-07-08T12:37:29Z</time>
      </trkpt>
      <trkpt lat="47.78471" lon="-3.52429">
        <ele>16.24</ele>
        <time>2020-07-08T12:37:30Z</time>
      </trkpt>
      <trkpt lat="47.78465" lon="-3.52436">
        <ele>17.11</ele>
        <time>2020-07-08T12:37:31Z</time>
      </trkpt>
      <trkpt lat="47.78463" lon="-3.52439">
        <ele>17.58</ele>
        <time>2020-07-08T12:37:32Z</time>
      </trkpt>
      <trkpt lat="47.7846" lon="-3.52442">
        <ele>18.24</ele>
        <time>2020-07-08T12:37:33Z</time>
      </trkpt>
      <trkpt lat="47.78457" lon="-3.52445">
        <ele>18.98</ele>
        <time>2020-07-08T12:37:34Z</time>
      </trkpt>
      <trkpt lat="47.78455" lon="-3.52449">
        <ele>19.58</ele>
        <time>2020-07-08T12:37:35Z</time>
      </trkpt>
      <trkpt lat="47.78452" lon="-3.52453">
        <ele>20.13</ele>
        <time>2020-07-08T12:37:36Z</time>
      </trkpt>
      <trkpt lat="47.7845" lon="-3.52457">
        <ele>20.64</ele>
        <time>2020-07-08T12:37:37Z</time>
      </trkpt>
      <trkpt lat="47.78449" lon="-3.52461">
        <ele>20.99</ele>
        <time>2020-07-08T12:37:38Z</time>
      </trkpt>
      <trkpt lat="47.78448" lon="-3.52465">
        <ele>21.27</ele>
        <time>2020-07-08T12:37:39Z</time>
      </trkpt>
      <trkpt lat="47.78446" lon="-3.52468">
        <ele>21.52</ele>
        <time>2020-07-08T12:37:40Z</time>
      </trkpt>
      <trkpt lat="47.78445" lon="-3.52471">
        <ele>21.78</ele>
        <time>2020-07-08T12:37:41Z</time>
      </trkpt>
      <trkpt lat="47.78444" lon="-3.52474">
        <ele>21.77</ele>
        <time>2020-07-08T12:37:42Z</time>
      </trkpt>
      <trkpt lat="47.78443" lon="-3.52478">
        <ele>21.61</ele>
        <time>2020-07-08T12:37:43Z</time>
      </trkpt>
      <trkpt lat="47.78442" lon="-3.52483">
        <ele>21.2</ele>
        <time>2020-07-08T12:37:44Z</time>
      </trkpt>
      <trkpt lat="47.78441" lon="-3.52487">
        <ele>20.78</ele>
        <time>2020-07-08T12:37:45Z</time>
      </trkpt>
      <trkpt lat="47.7844" lon="-3.52491">
        <ele>20.43</ele>
        <time>2020-07-08T12:37:46Z</time>
      </trkpt>
      <trkpt lat="47.78438" lon="-3.52496">
        <ele>20.2</ele>
        <time>2020-07-08T12:37:47Z</time>
      </trkpt>
      <trkpt lat="47.78436" lon="-3.525">
        <ele>20.08</ele>
        <time>2020-07-08T12:37:48Z</time>
      </trkpt>
      <trkpt lat="47.78434" lon="-3.52505">
        <ele>20.17</ele>
        <time>2020-07-08T12:37:49Z</time>
      </trkpt>
      <trkpt lat="47.78432" lon="-3.52509">
        <ele>20.42</ele>
        <time>2020-07-08T12:37:50Z</time>
      </trkpt>
      <trkpt lat="47.78429" lon="-3.52514">
        <ele>20.76</ele>
        <time>2020-07-08T12:37:51Z</time>
      </trkpt>
      <trkpt lat="47.78427" lon="-3.52518">
        <ele>21</ele>
        <time>2020-07-08T12:37:52Z</time>
      </trkpt>
      <trkpt lat="47.78426" lon="-3.52525">
        <ele>20.91</ele>
        <time>2020-07-08T12:37:53Z</time>
      </trkpt>
      <trkpt lat="47.78425" lon="-3.52532">
        <ele>20.6</ele>
        <time>2020-07-08T12:37:54Z</time>
      </trkpt>
      <trkpt lat="47.78425" lon="-3.52539">
        <ele>20.08</ele>
        <time>2020-07-08T12:37:55Z</time>
      </trkpt>
      <trkpt lat="47.78426" lon="-3.52547">
        <ele>19.37</ele>
        <time>2020-07-08T12:37:56Z</time>
      </trkpt>
      <trkpt lat="47.78427" lon="-3.52554">
        <ele>18.57</ele>
        <time>2020-07-08T12:37:57Z</time>
      </trkpt>
      <trkpt lat="47.78427" lon="-3.5256">
        <ele>17.96</ele>
        <time>2020-07-08T12:37:58Z</time>
      </trkpt>
      <trkpt lat="47.78425" lon="-3.52566">
        <ele>17.84</ele>
        <time>2020-07-08T12:37:59Z</time>
      </trkpt>
      <trkpt lat="47.78423" lon="-3.52571">
        <ele>17.79</ele>
        <time>2020-07-08T12:38:00Z</time>
      </trkpt>
      <trkpt lat="47.78422" lon="-3.52574">
        <ele>17.89</ele>
        <time>2020-07-08T12:38:01Z</time>
      </trkpt>
      <trkpt lat="47.78422" lon="-3.52577">
        <ele>17.87</ele>
        <time>2020-07-08T12:38:02Z</time>
      </trkpt>
      <trkpt lat="47.78421" lon="-3.52579">
        <ele>17.86</ele>
        <time>2020-07-08T12:38:03Z</time>
      </trkpt>
      <trkpt lat="47.78421" lon="-3.52581">
        <ele>17.76</ele>
        <time>2020-07-08T12:38:04Z</time>
      </trkpt>
      <trkpt lat="47.78422" lon="-3.52583">
        <ele>17.57</ele>
        <time>2020-07-08T12:38:05Z</time>
      </trkpt>
      <trkpt lat="47.78422" lon="-3.52584">
        <ele>17.28</ele>
        <time>2020-07-08T12:38:06Z</time>
      </trkpt>
      <trkpt lat="47.78422" lon="-3.52584">
        <ele>17.19</ele>
        <time>2020-07-08T12:38:07Z</time>
      </trkpt>
      <trkpt lat="47.78422" lon="-3.52584">
        <ele>17.17</ele>
        <time>2020-07-08T12:38:08Z</time>
      </trkpt>
      <trkpt lat="47.78422" lon="-3.52584">
        <ele>17.16</ele>
        <time>2020-07-08T12:38:09Z</time>
      </trkpt>
      <trkpt lat="47.78422" lon="-3.52584">
        <ele>17.16</ele>
        <time>2020-07-08T12:38:10Z</time>
      </trkpt>
      <trkpt lat="47.78421" lon="-3.52593">
        <ele>16.26</ele>
        <time>2020-07-08T12:38:11Z</time>
      </trkpt>
      <trkpt lat="47.7842" lon="-3.52596">
        <ele>15.59</ele>
        <time>2020-07-08T12:38:12Z</time>
      </trkpt>
      <trkpt lat="47.78421" lon="-3.52598">
        <ele>14.96</ele>
        <time>2020-07-08T12:38:13Z</time>
      </trkpt>
      <trkpt lat="47.78421" lon="-3.526">
        <ele>14.45</ele>
        <time>2020-07-08T12:38:14Z</time>
      </trkpt>
      <trkpt lat="47.78421" lon="-3.52602">
        <ele>13.99</ele>
        <time>2020-07-08T12:38:15Z</time>
      </trkpt>
      <trkpt lat="47.78421" lon="-3.52605">
        <ele>13.55</ele>
        <time>2020-07-08T12:38:16Z</time>
      </trkpt>
      <trkpt lat="47.7842" lon="-3.52606">
        <ele>13.28</ele>
        <time>2020-07-08T12:38:17Z</time>
      </trkpt>
      <trkpt lat="47.78419" lon="-3.52609">
        <ele>13.09</ele>
        <time>2020-07-08T12:38:18Z</time>
      </trkpt>
      <trkpt lat="47.78418" lon="-3.5261">
        <ele>12.93</ele>
        <time>2020-07-08T12:38:19Z</time>
      </trkpt>
      <trkpt lat="47.78417" lon="-3.52612">
        <ele>12.77</ele>
        <time>2020-07-08T12:38:20Z</time>
      </trkpt>
      <trkpt lat="47.78416" lon="-3.52615">
        <ele>12.47</ele>
        <time>2020-07-08T12:38:21Z</time>
      </trkpt>
      <trkpt lat="47.78415" lon="-3.52618">
        <ele>11.97</ele>
        <time>2020-07-08T12:38:22Z</time>
      </trkpt>
      <trkpt lat="47.78413" lon="-3.52621">
        <ele>11.58</ele>
        <time>2020-07-08T12:38:23Z</time>
      </trkpt>
      <trkpt lat="47.78412" lon="-3.52624">
        <ele>11.34</ele>
        <time>2020-07-08T12:38:24Z</time>
      </trkpt>
      <trkpt lat="47.7841" lon="-3.52625">
        <ele>11.61</ele>
        <time>2020-07-08T12:38:25Z</time>
      </trkpt>
      <trkpt lat="47.78408" lon="-3.52628">
        <ele>11.56</ele>
        <time>2020-07-08T12:38:26Z</time>
      </trkpt>
      <trkpt lat="47.78407" lon="-3.52629">
        <ele>11.75</ele>
        <time>2020-07-08T12:38:27Z</time>
      </trkpt>
      <trkpt lat="47.78405" lon="-3.52632">
        <ele>11.84</ele>
        <time>2020-07-08T12:38:28Z</time>
      </trkpt>
      <trkpt lat="47.78404" lon="-3.52634">
        <ele>11.6</ele>
        <time>2020-07-08T12:38:29Z</time>
      </trkpt>
      <trkpt lat="47.78403" lon="-3.52638">
        <ele>11.16</ele>
        <time>2020-07-08T12:38:30Z</time>
      </trkpt>
      <trkpt lat="47.784" lon="-3.52643">
        <ele>11.15</ele>
        <time>2020-07-08T12:38:31Z</time>
      </trkpt>
      <trkpt lat="47.78398" lon="-3.52647">
        <ele>11.2</ele>
        <time>2020-07-08T12:38:32Z</time>
      </trkpt>
      <trkpt lat="47.78397" lon="-3.5265">
        <ele>11.16</ele>
        <time>2020-07-08T12:38:33Z</time>
      </trkpt>
      <trkpt lat="47.78396" lon="-3.52653">
        <ele>10.94</ele>
        <time>2020-07-08T12:38:34Z</time>
      </trkpt>
      <trkpt lat="47.78394" lon="-3.52658">
        <ele>10.53</ele>
        <time>2020-07-08T12:38:35Z</time>
      </trkpt>
      <trkpt lat="47.78392" lon="-3.52661">
        <ele>10.28</ele>
        <time>2020-07-08T12:38:36Z</time>
      </trkpt>
      <trkpt lat="47.7839" lon="-3.52665">
        <ele>10.17</ele>
        <time>2020-07-08T12:38:37Z</time>
      </trkpt>
      <trkpt lat="47.78388" lon="-3.52668">
        <ele>10.28</ele>
        <time>2020-07-08T12:38:38Z</time>
      </trkpt>
      <trkpt lat="47.78386" lon="-3.5267">
        <ele>10.79</ele>
        <time>2020-07-08T12:38:39Z</time>
      </trkpt>
      <trkpt lat="47.78384" lon="-3.52674">
        <ele>11.22</ele>
        <time>2020-07-08T12:38:40Z</time>
      </trkpt>
      <trkpt lat="47.78382" lon="-3.52676">
        <ele>11.66</ele>
        <time>2020-07-08T12:38:41Z</time>
      </trkpt>
      <trkpt lat="47.7838" lon="-3.52679">
        <ele>12.4</ele>
        <time>2020-07-08T12:38:42Z</time>
      </trkpt>
      <trkpt lat="47.78376" lon="-3.52682">
        <ele>13.57</ele>
        <time>2020-07-08T12:38:43Z</time>
      </trkpt>
      <trkpt lat="47.78373" lon="-3.52685">
        <ele>14.7</ele>
        <time>2020-07-08T12:38:44Z</time>
      </trkpt>
      <trkpt lat="47.78371" lon="-3.52689">
        <ele>15.31</ele>
        <time>2020-07-08T12:38:45Z</time>
      </trkpt>
      <trkpt lat="47.78368" lon="-3.52695">
        <ele>15.65</ele>
        <time>2020-07-08T12:38:46Z</time>
      </trkpt>
      <trkpt lat="47.78366" lon="-3.52699">
        <ele>15.77</ele>
        <time>2020-07-08T12:38:47Z</time>
      </trkpt>
      <trkpt lat="47.78365" lon="-3.52704">
        <ele>15.72</ele>
        <time>2020-07-08T12:38:48Z</time>
      </trkpt>
      <trkpt lat="47.78364" lon="-3.52706">
        <ele>15.43</ele>
        <time>2020-07-08T12:38:49Z</time>
      </trkpt>
      <trkpt lat="47.78363" lon="-3.52708">
        <ele>15.54</ele>
        <time>2020-07-08T12:38:50Z</time>
      </trkpt>
      <trkpt lat="47.78362" lon="-3.52709">
        <ele>15.93</ele>
        <time>2020-07-08T12:38:51Z</time>
      </trkpt>
      <trkpt lat="47.7836" lon="-3.52711">
        <ele>16.36</ele>
        <time>2020-07-08T12:38:52Z</time>
      </trkpt>
      <trkpt lat="47.78359" lon="-3.52711">
        <ele>16.96</ele>
        <time>2020-07-08T12:38:53Z</time>
      </trkpt>
      <trkpt lat="47.78358" lon="-3.52712">
        <ele>17.23</ele>
        <time>2020-07-08T12:38:54Z</time>
      </trkpt>
      <trkpt lat="47.78357" lon="-3.52715">
        <ele>17.12</ele>
        <time>2020-07-08T12:38:55Z</time>
      </trkpt>
      <trkpt lat="47.78356" lon="-3.52719">
        <ele>16.94</ele>
        <time>2020-07-08T12:38:56Z</time>
      </trkpt>
      <trkpt lat="47.78354" lon="-3.52725">
        <ele>16.57</ele>
        <time>2020-07-08T12:38:57Z</time>
      </trkpt>
      <trkpt lat="47.78353" lon="-3.5273">
        <ele>16.49</ele>
        <time>2020-07-08T12:38:58Z</time>
      </trkpt>
      <trkpt lat="47.78351" lon="-3.52733">
        <ele>16.6</ele>
        <time>2020-07-08T12:38:59Z</time>
      </trkpt>
      <trkpt lat="47.78351" lon="-3.52735">
        <ele>16.57</ele>
        <time>2020-07-08T12:39:00Z</time>
      </trkpt>
      <trkpt lat="47.78351" lon="-3.52735">
        <ele>16.52</ele>
        <time>2020-07-08T12:39:01Z</time>
      </trkpt>
      <trkpt lat="47.78351" lon="-3.52736">
        <ele>16.42</ele>
        <time>2020-07-08T12:39:02Z</time>
      </trkpt>
      <trkpt lat="47.78351" lon="-3.52736">
        <ele>16.39</ele>
        <time>2020-07-08T12:39:03Z</time>
      </trkpt>
      <trkpt lat="47.78351" lon="-3.52736">
        <ele>16.38</ele>
        <time>2020-07-08T12:39:04Z</time>
      </trkpt>
      <trkpt lat="47.78351" lon="-3.52736">
        <ele>16.38</ele>
        <time>2020-07-08T12:39:05Z</time>
      </trkpt>
      <trkpt lat="47.78351" lon="-3.52736">
        <ele>16.37</ele>
        <time>2020-07-08T12:39:06Z</time>
      </trkpt>
      <trkpt lat="47.78351" lon="-3.52736">
        <ele>16.37</ele>
        <time>2020-07-08T12:39:07Z</time>
      </trkpt>
      <trkpt lat="47.78351" lon="-3.52736">
        <ele>16.37</ele>
        <time>2020-07-08T12:39:08Z</time>
      </trkpt>
      <trkpt lat="47.78351" lon="-3.52736">
        <ele>16.37</ele>
        <time>2020-07-08T12:39:09Z</time>
      </trkpt>
      <trkpt lat="47.78351" lon="-3.52736">
        <ele>16.37</ele>
        <time>2020-07-08T12:39:10Z</time>
      </trkpt>
      <trkpt lat="47.78351" lon="-3.52736">
        <ele>16.37</ele>
        <time>2020-07-08T12:39:11Z</time>
      </trkpt>
      <trkpt lat="47.78351" lon="-3.52736">
        <ele>16.37</ele>
        <time>2020-07-08T12:39:12Z</time>
      </trkpt>
      <trkpt lat="47.78351" lon="-3.52736">
        <ele>16.37</ele>
        <time>2020-07-08T12:39:13Z</time>
      </trkpt>
      <trkpt lat="47.78351" lon="-3.52736">
        <ele>16.37</ele>
        <time>2020-07-08T12:39:14Z</time>
      </trkpt>
      <trkpt lat="47.78351" lon="-3.52736">
        <ele>16.37</ele>
        <time>2020-07-08T12:39:15Z</time>
      </trkpt>
      <trkpt lat="47.78351" lon="-3.52736">
        <ele>16.37</ele>
        <time>2020-07-08T12:39:16Z</time>
      </trkpt>
      <trkpt lat="47.78343" lon="-3.52743">
        <ele>18.95</ele>
        <time>2020-07-08T12:39:17Z</time>
      </trkpt>
      <trkpt lat="47.78342" lon="-3.52743">
        <ele>20.24</ele>
        <time>2020-07-08T12:39:18Z</time>
      </trkpt>
      <trkpt lat="47.78342" lon="-3.52743">
        <ele>20.6</ele>
        <time>2020-07-08T12:39:19Z</time>
      </trkpt>
      <trkpt lat="47.7834" lon="-3.52743">
        <ele>21.32</ele>
        <time>2020-07-08T12:39:20Z</time>
      </trkpt>
      <trkpt lat="47.7834" lon="-3.52743">
        <ele>21.53</ele>
        <time>2020-07-08T12:39:21Z</time>
      </trkpt>
      <trkpt lat="47.7834" lon="-3.52743">
        <ele>21.6</ele>
        <time>2020-07-08T12:39:22Z</time>
      </trkpt>
      <trkpt lat="47.7834" lon="-3.52743">
        <ele>21.62</ele>
        <time>2020-07-08T12:39:23Z</time>
      </trkpt>
      <trkpt lat="47.7834" lon="-3.52743">
        <ele>21.62</ele>
        <time>2020-07-08T12:39:24Z</time>
      </trkpt>
      <trkpt lat="47.7834" lon="-3.52747">
        <ele>21.32</ele>
        <time>2020-07-08T12:39:25Z</time>
      </trkpt>
      <trkpt lat="47.7834" lon="-3.52749">
        <ele>21.19</ele>
        <time>2020-07-08T12:39:26Z</time>
      </trkpt>
      <trkpt lat="47.78339" lon="-3.52751">
        <ele>21.09</ele>
        <time>2020-07-08T12:39:27Z</time>
      </trkpt>
      <trkpt lat="47.78339" lon="-3.52754">
        <ele>20.76</ele>
        <time>2020-07-08T12:39:28Z</time>
      </trkpt>
      <trkpt lat="47.78339" lon="-3.52757">
        <ele>20.27</ele>
        <time>2020-07-08T12:39:29Z</time>
      </trkpt>
      <trkpt lat="47.78338" lon="-3.52761">
        <ele>19.8</ele>
        <time>2020-07-08T12:39:30Z</time>
      </trkpt>
      <trkpt lat="47.78338" lon="-3.52765">
        <ele>19.06</ele>
        <time>2020-07-08T12:39:31Z</time>
      </trkpt>
      <trkpt lat="47.78338" lon="-3.5277">
        <ele>18.13</ele>
        <time>2020-07-08T12:39:32Z</time>
      </trkpt>
      <trkpt lat="47.78338" lon="-3.52775">
        <ele>17.3</ele>
        <time>2020-07-08T12:39:33Z</time>
      </trkpt>
      <trkpt lat="47.78336" lon="-3.52781">
        <ele>16.75</ele>
        <time>2020-07-08T12:39:34Z</time>
      </trkpt>
      <trkpt lat="47.78335" lon="-3.52787">
        <ele>16.23</ele>
        <time>2020-07-08T12:39:35Z</time>
      </trkpt>
      <trkpt lat="47.78334" lon="-3.52794">
        <ele>15.36</ele>
        <time>2020-07-08T12:39:36Z</time>
      </trkpt>
      <trkpt lat="47.78331" lon="-3.528">
        <ele>15.2</ele>
        <time>2020-07-08T12:39:37Z</time>
      </trkpt>
      <trkpt lat="47.78329" lon="-3.52806">
        <ele>14.96</ele>
        <time>2020-07-08T12:39:38Z</time>
      </trkpt>
      <trkpt lat="47.78328" lon="-3.5281">
        <ele>14.66</ele>
        <time>2020-07-08T12:39:39Z</time>
      </trkpt>
      <trkpt lat="47.78328" lon="-3.52813">
        <ele>14.15</ele>
        <time>2020-07-08T12:39:40Z</time>
      </trkpt>
      <trkpt lat="47.78327" lon="-3.52818">
        <ele>13.51</ele>
        <time>2020-07-08T12:39:41Z</time>
      </trkpt>
      <trkpt lat="47.78325" lon="-3.52822">
        <ele>13.35</ele>
        <time>2020-07-08T12:39:42Z</time>
      </trkpt>
      <trkpt lat="47.78323" lon="-3.52827">
        <ele>13.46</ele>
        <time>2020-07-08T12:39:43Z</time>
      </trkpt>
      <trkpt lat="47.7832" lon="-3.52831">
        <ele>13.52</ele>
        <time>2020-07-08T12:39:44Z</time>
      </trkpt>
      <trkpt lat="47.78317" lon="-3.52835">
        <ele>13.97</ele>
        <time>2020-07-08T12:39:45Z</time>
      </trkpt>
      <trkpt lat="47.78316" lon="-3.52838">
        <ele>14.19</ele>
        <time>2020-07-08T12:39:46Z</time>
      </trkpt>
      <trkpt lat="47.78315" lon="-3.52841">
        <ele>14.29</ele>
        <time>2020-07-08T12:39:47Z</time>
      </trkpt>
      <trkpt lat="47.78314" lon="-3.52843">
        <ele>14.4</ele>
        <time>2020-07-08T12:39:48Z</time>
      </trkpt>
      <trkpt lat="47.78313" lon="-3.52845">
        <ele>14.49</ele>
        <time>2020-07-08T12:39:49Z</time>
      </trkpt>
      <trkpt lat="47.78311" lon="-3.52848">
        <ele>14.64</ele>
        <time>2020-07-08T12:39:50Z</time>
      </trkpt>
      <trkpt lat="47.7831" lon="-3.5285">
        <ele>14.96</ele>
        <time>2020-07-08T12:39:51Z</time>
      </trkpt>
      <trkpt lat="47.78308" lon="-3.52853">
        <ele>15.3</ele>
        <time>2020-07-08T12:39:52Z</time>
      </trkpt>
      <trkpt lat="47.78306" lon="-3.52855">
        <ele>15.66</ele>
        <time>2020-07-08T12:39:53Z</time>
      </trkpt>
      <trkpt lat="47.78305" lon="-3.52858">
        <ele>15.62</ele>
        <time>2020-07-08T12:39:54Z</time>
      </trkpt>
      <trkpt lat="47.78305" lon="-3.52861">
        <ele>15.47</ele>
        <time>2020-07-08T12:39:55Z</time>
      </trkpt>
      <trkpt lat="47.78303" lon="-3.52865">
        <ele>15.14</ele>
        <time>2020-07-08T12:39:56Z</time>
      </trkpt>
      <trkpt lat="47.78301" lon="-3.5287">
        <ele>14.91</ele>
        <time>2020-07-08T12:39:57Z</time>
      </trkpt>
      <trkpt lat="47.783" lon="-3.52874">
        <ele>14.81</ele>
        <time>2020-07-08T12:39:58Z</time>
      </trkpt>
      <trkpt lat="47.78298" lon="-3.52877">
        <ele>14.86</ele>
        <time>2020-07-08T12:39:59Z</time>
      </trkpt>
      <trkpt lat="47.78296" lon="-3.52879">
        <ele>15.18</ele>
        <time>2020-07-08T12:40:00Z</time>
      </trkpt>
      <trkpt lat="47.78294" lon="-3.52881">
        <ele>15.52</ele>
        <time>2020-07-08T12:40:01Z</time>
      </trkpt>
      <trkpt lat="47.78293" lon="-3.52882">
        <ele>15.91</ele>
        <time>2020-07-08T12:40:02Z</time>
      </trkpt>
      <trkpt lat="47.78291" lon="-3.52884">
        <ele>16.37</ele>
        <time>2020-07-08T12:40:03Z</time>
      </trkpt>
      <trkpt lat="47.78288" lon="-3.52887">
        <ele>17</ele>
        <time>2020-07-08T12:40:04Z</time>
      </trkpt>
      <trkpt lat="47.78286" lon="-3.52891">
        <ele>17.7</ele>
        <time>2020-07-08T12:40:05Z</time>
      </trkpt>
      <trkpt lat="47.78283" lon="-3.52894">
        <ele>18.41</ele>
        <time>2020-07-08T12:40:06Z</time>
      </trkpt>
      <trkpt lat="47.78282" lon="-3.52896">
        <ele>18.86</ele>
        <time>2020-07-08T12:40:07Z</time>
      </trkpt>
      <trkpt lat="47.78281" lon="-3.52901">
        <ele>18.8</ele>
        <time>2020-07-08T12:40:08Z</time>
      </trkpt>
      <trkpt lat="47.78278" lon="-3.52906">
        <ele>19.14</ele>
        <time>2020-07-08T12:40:09Z</time>
      </trkpt>
      <trkpt lat="47.78276" lon="-3.52912">
        <ele>18.99</ele>
        <time>2020-07-08T12:40:10Z</time>
      </trkpt>
      <trkpt lat="47.78273" lon="-3.52918">
        <ele>18.74</ele>
        <time>2020-07-08T12:40:11Z</time>
      </trkpt>
      <trkpt lat="47.7827" lon="-3.52923">
        <ele>18.04</ele>
        <time>2020-07-08T12:40:12Z</time>
      </trkpt>
      <trkpt lat="47.78268" lon="-3.52927">
        <ele>17.45</ele>
        <time>2020-07-08T12:40:13Z</time>
      </trkpt>
      <trkpt lat="47.78266" lon="-3.52931">
        <ele>16.82</ele>
        <time>2020-07-08T12:40:14Z</time>
      </trkpt>
      <trkpt lat="47.78264" lon="-3.52934">
        <ele>16.29</ele>
        <time>2020-07-08T12:40:15Z</time>
      </trkpt>
      <trkpt lat="47.78263" lon="-3.52938">
        <ele>15.48</ele>
        <time>2020-07-08T12:40:16Z</time>
      </trkpt>
      <trkpt lat="47.78261" lon="-3.52941">
        <ele>15.08</ele>
        <time>2020-07-08T12:40:17Z</time>
      </trkpt>
      <trkpt lat="47.78259" lon="-3.52946">
        <ele>14.53</ele>
        <time>2020-07-08T12:40:18Z</time>
      </trkpt>
      <trkpt lat="47.78257" lon="-3.52949">
        <ele>13.82</ele>
        <time>2020-07-08T12:40:19Z</time>
      </trkpt>
      <trkpt lat="47.78255" lon="-3.52951">
        <ele>13.58</ele>
        <time>2020-07-08T12:40:20Z</time>
      </trkpt>
      <trkpt lat="47.78253" lon="-3.5295">
        <ele>13.89</ele>
        <time>2020-07-08T12:40:21Z</time>
      </trkpt>
      <trkpt lat="47.78251" lon="-3.5295">
        <ele>14.42</ele>
        <time>2020-07-08T12:40:22Z</time>
      </trkpt>
      <trkpt lat="47.78251" lon="-3.5295">
        <ele>14.62</ele>
        <time>2020-07-08T12:40:23Z</time>
      </trkpt>
      <trkpt lat="47.78251" lon="-3.5295">
        <ele>14.63</ele>
        <time>2020-07-08T12:40:24Z</time>
      </trkpt>
      <trkpt lat="47.78251" lon="-3.5295">
        <ele>14.54</ele>
        <time>2020-07-08T12:40:25Z</time>
      </trkpt>
      <trkpt lat="47.78251" lon="-3.5295">
        <ele>14.52</ele>
        <time>2020-07-08T12:40:26Z</time>
      </trkpt>
      <trkpt lat="47.78251" lon="-3.5295">
        <ele>14.51</ele>
        <time>2020-07-08T12:40:27Z</time>
      </trkpt>
      <trkpt lat="47.78251" lon="-3.5295">
        <ele>14.51</ele>
        <time>2020-07-08T12:40:28Z</time>
      </trkpt>
      <trkpt lat="47.78251" lon="-3.5295">
        <ele>14.5</ele>
        <time>2020-07-08T12:40:29Z</time>
      </trkpt>
      <trkpt lat="47.78251" lon="-3.5295">
        <ele>14.5</ele>
        <time>2020-07-08T12:40:30Z</time>
      </trkpt>
      <trkpt lat="47.78251" lon="-3.5295">
        <ele>14.5</ele>
        <time>2020-07-08T12:40:31Z</time>
      </trkpt>
      <trkpt lat="47.78251" lon="-3.5295">
        <ele>14.5</ele>
        <time>2020-07-08T12:40:32Z</time>
      </trkpt>
      <trkpt lat="47.78251" lon="-3.5295">
        <ele>14.5</ele>
        <time>2020-07-08T12:40:33Z</time>
      </trkpt>
      <trkpt lat="47.78251" lon="-3.5295">
        <ele>14.5</ele>
        <time>2020-07-08T12:40:34Z</time>
      </trkpt>
      <trkpt lat="47.78251" lon="-3.5295">
        <ele>14.5</ele>
        <time>2020-07-08T12:40:35Z</time>
      </trkpt>
      <trkpt lat="47.78251" lon="-3.5295">
        <ele>14.5</ele>
        <time>2020-07-08T12:40:36Z</time>
      </trkpt>
      <trkpt lat="47.78251" lon="-3.5295">
        <ele>14.5</ele>
        <time>2020-07-08T12:40:37Z</time>
      </trkpt>
      <trkpt lat="47.78251" lon="-3.5295">
        <ele>14.5</ele>
        <time>2020-07-08T12:40:38Z</time>
      </trkpt>
      <trkpt lat="47.78243" lon="-3.5295">
        <ele>15.01</ele>
        <time>2020-07-08T12:40:39Z</time>
      </trkpt>
      <trkpt lat="47.78242" lon="-3.52951">
        <ele>14.96</ele>
        <time>2020-07-08T12:40:40Z</time>
      </trkpt>
      <trkpt lat="47.78238" lon="-3.52953">
        <ele>14.69</ele>
        <time>2020-07-08T12:40:41Z</time>
      </trkpt>
      <trkpt lat="47.78237" lon="-3.52955">
        <ele>14.09</ele>
        <time>2020-07-08T12:40:42Z</time>
      </trkpt>
      <trkpt lat="47.78235" lon="-3.52957">
        <ele>13.3</ele>
        <time>2020-07-08T12:40:43Z</time>
      </trkpt>
      <trkpt lat="47.78234" lon="-3.52958">
        <ele>12.92</ele>
        <time>2020-07-08T12:40:44Z</time>
      </trkpt>
      <trkpt lat="47.78232" lon="-3.52958">
        <ele>12.9</ele>
        <time>2020-07-08T12:40:45Z</time>
      </trkpt>
      <trkpt lat="47.7823" lon="-3.52958">
        <ele>12.96</ele>
        <time>2020-07-08T12:40:46Z</time>
      </trkpt>
      <trkpt lat="47.78229" lon="-3.52959">
        <ele>12.9</ele>
        <time>2020-07-08T12:40:47Z</time>
      </trkpt>
      <trkpt lat="47.78229" lon="-3.52959">
        <ele>12.78</ele>
        <time>2020-07-08T12:40:48Z</time>
      </trkpt>
      <trkpt lat="47.7823" lon="-3.52959">
        <ele>12.63</ele>
        <time>2020-07-08T12:40:49Z</time>
      </trkpt>
      <trkpt lat="47.7823" lon="-3.52959">
        <ele>12.59</ele>
        <time>2020-07-08T12:40:50Z</time>
      </trkpt>
      <trkpt lat="47.7823" lon="-3.52959">
        <ele>12.57</ele>
        <time>2020-07-08T12:40:51Z</time>
      </trkpt>
      <trkpt lat="47.7823" lon="-3.52959">
        <ele>12.57</ele>
        <time>2020-07-08T12:40:52Z</time>
      </trkpt>
      <trkpt lat="47.7823" lon="-3.52959">
        <ele>12.57</ele>
        <time>2020-07-08T12:40:53Z</time>
      </trkpt>
      <trkpt lat="47.7823" lon="-3.52959">
        <ele>12.57</ele>
        <time>2020-07-08T12:40:54Z</time>
      </trkpt>
      <trkpt lat="47.7823" lon="-3.52959">
        <ele>12.57</ele>
        <time>2020-07-08T12:40:55Z</time>
      </trkpt>
      <trkpt lat="47.7823" lon="-3.52959">
        <ele>12.57</ele>
        <time>2020-07-08T12:40:56Z</time>
      </trkpt>
      <trkpt lat="47.7823" lon="-3.52959">
        <ele>12.57</ele>
        <time>2020-07-08T12:40:57Z</time>
      </trkpt>
      <trkpt lat="47.7823" lon="-3.52959">
        <ele>12.57</ele>
        <time>2020-07-08T12:40:58Z</time>
      </trkpt>
      <trkpt lat="47.7823" lon="-3.52959">
        <ele>12.57</ele>
        <time>2020-07-08T12:40:59Z</time>
      </trkpt>
      <trkpt lat="47.7823" lon="-3.52959">
        <ele>12.57</ele>
        <time>2020-07-08T12:41:00Z</time>
      </trkpt>
      <trkpt lat="47.7823" lon="-3.52959">
        <ele>12.57</ele>
        <time>2020-07-08T12:41:01Z</time>
      </trkpt>
      <trkpt lat="47.7823" lon="-3.52959">
        <ele>12.57</ele>
        <time>2020-07-08T12:41:02Z</time>
      </trkpt>
      <trkpt lat="47.7823" lon="-3.52959">
        <ele>12.57</ele>
        <time>2020-07-08T12:41:03Z</time>
      </trkpt>
      <trkpt lat="47.7822" lon="-3.52962">
        <ele>12.22</ele>
        <time>2020-07-08T12:41:04Z</time>
      </trkpt>
      <trkpt lat="47.78219" lon="-3.52961">
        <ele>12.31</ele>
        <time>2020-07-08T12:41:05Z</time>
      </trkpt>
      <trkpt lat="47.78219" lon="-3.52961">
        <ele>12.54</ele>
        <time>2020-07-08T12:41:06Z</time>
      </trkpt>
      <trkpt lat="47.78218" lon="-3.52961">
        <ele>12.61</ele>
        <time>2020-07-08T12:41:07Z</time>
      </trkpt>
      <trkpt lat="47.78218" lon="-3.52961">
        <ele>12.63</ele>
        <time>2020-07-08T12:41:08Z</time>
      </trkpt>
      <trkpt lat="47.78218" lon="-3.52961">
        <ele>12.64</ele>
        <time>2020-07-08T12:41:09Z</time>
      </trkpt>
      <trkpt lat="47.78218" lon="-3.52961">
        <ele>12.64</ele>
        <time>2020-07-08T12:41:10Z</time>
      </trkpt>
      <trkpt lat="47.78218" lon="-3.52961">
        <ele>12.64</ele>
        <time>2020-07-08T12:41:11Z</time>
      </trkpt>
      <trkpt lat="47.78218" lon="-3.52961">
        <ele>12.64</ele>
        <time>2020-07-08T12:41:12Z</time>
      </trkpt>
      <trkpt lat="47.78218" lon="-3.52961">
        <ele>12.64</ele>
        <time>2020-07-08T12:41:13Z</time>
      </trkpt>
      <trkpt lat="47.78218" lon="-3.52961">
        <ele>12.64</ele>
        <time>2020-07-08T12:41:14Z</time>
      </trkpt>
      <trkpt lat="47.78218" lon="-3.52961">
        <ele>12.64</ele>
        <time>2020-07-08T12:41:15Z</time>
      </trkpt>
      <trkpt lat="47.78218" lon="-3.52961">
        <ele>12.64</ele>
        <time>2020-07-08T12:41:16Z</time>
      </trkpt>
      <trkpt lat="47.78218" lon="-3.52961">
        <ele>12.64</ele>
        <time>2020-07-08T12:41:17Z</time>
      </trkpt>
      <trkpt lat="47.78218" lon="-3.52961">
        <ele>12.64</ele>
        <time>2020-07-08T12:41:18Z</time>
      </trkpt>
      <trkpt lat="47.78218" lon="-3.52961">
        <ele>12.64</ele>
        <time>2020-07-08T12:41:19Z</time>
      </trkpt>
      <trkpt lat="47.78218" lon="-3.52961">
        <ele>12.64</ele>
        <time>2020-07-08T12:41:20Z</time>
      </trkpt>
      <trkpt lat="47.78218" lon="-3.52961">
        <ele>12.64</ele>
        <time>2020-07-08T12:41:21Z</time>
      </trkpt>
      <trkpt lat="47.78218" lon="-3.52961">
        <ele>12.64</ele>
        <time>2020-07-08T12:41:22Z</time>
      </trkpt>
      <trkpt lat="47.78218" lon="-3.52961">
        <ele>12.64</ele>
        <time>2020-07-08T12:41:23Z</time>
      </trkpt>
      <trkpt lat="47.78211" lon="-3.52959">
        <ele>13.09</ele>
        <time>2020-07-08T12:41:24Z</time>
      </trkpt>
      <trkpt lat="47.7821" lon="-3.52958">
        <ele>13.68</ele>
        <time>2020-07-08T12:41:25Z</time>
      </trkpt>
      <trkpt lat="47.78209" lon="-3.52957">
        <ele>14.26</ele>
        <time>2020-07-08T12:41:26Z</time>
      </trkpt>
      <trkpt lat="47.78207" lon="-3.52955">
        <ele>14.89</ele>
        <time>2020-07-08T12:41:27Z</time>
      </trkpt>
      <trkpt lat="47.78206" lon="-3.52955">
        <ele>15.2</ele>
        <time>2020-07-08T12:41:28Z</time>
      </trkpt>
      <trkpt lat="47.78204" lon="-3.52955">
        <ele>15.16</ele>
        <time>2020-07-08T12:41:29Z</time>
      </trkpt>
      <trkpt lat="47.78203" lon="-3.52955">
        <ele>15.18</ele>
        <time>2020-07-08T12:41:30Z</time>
      </trkpt>
      <trkpt lat="47.78201" lon="-3.52955">
        <ele>15.16</ele>
        <time>2020-07-08T12:41:31Z</time>
      </trkpt>
      <trkpt lat="47.78199" lon="-3.52955">
        <ele>15.28</ele>
        <time>2020-07-08T12:41:32Z</time>
      </trkpt>
      <trkpt lat="47.78197" lon="-3.52954">
        <ele>15.55</ele>
        <time>2020-07-08T12:41:33Z</time>
      </trkpt>
      <trkpt lat="47.78195" lon="-3.52954">
        <ele>15.91</ele>
        <time>2020-07-08T12:41:34Z</time>
      </trkpt>
      <trkpt lat="47.78193" lon="-3.52953">
        <ele>16.13</ele>
        <time>2020-07-08T12:41:35Z</time>
      </trkpt>
      <trkpt lat="47.78192" lon="-3.52953">
        <ele>16.29</ele>
        <time>2020-07-08T12:41:36Z</time>
      </trkpt>
      <trkpt lat="47.78189" lon="-3.52954">
        <ele>16.26</ele>
        <time>2020-07-08T12:41:37Z</time>
      </trkpt>
      <trkpt lat="47.78186" lon="-3.52955">
        <ele>15.94</ele>
        <time>2020-07-08T12:41:38Z</time>
      </trkpt>
      <trkpt lat="47.78184" lon="-3.52957">
        <ele>15.64</ele>
        <time>2020-07-08T12:41:39Z</time>
      </trkpt>
      <trkpt lat="47.78182" lon="-3.52956">
        <ele>15.7</ele>
        <time>2020-07-08T12:41:40Z</time>
      </trkpt>
      <trkpt lat="47.7818" lon="-3.52956">
        <ele>15.77</ele>
        <time>2020-07-08T12:41:41Z</time>
      </trkpt>
      <trkpt lat="47.7818" lon="-3.52956">
        <ele>15.86</ele>
        <time>2020-07-08T12:41:42Z</time>
      </trkpt>
      <trkpt lat="47.78179" lon="-3.52956">
        <ele>15.93</ele>
        <time>2020-07-08T12:41:43Z</time>
      </trkpt>
      <trkpt lat="47.78179" lon="-3.52956">
        <ele>15.95</ele>
        <time>2020-07-08T12:41:44Z</time>
      </trkpt>
      <trkpt lat="47.78179" lon="-3.52956">
        <ele>15.96</ele>
        <time>2020-07-08T12:41:45Z</time>
      </trkpt>
      <trkpt lat="47.78179" lon="-3.52956">
        <ele>15.96</ele>
        <time>2020-07-08T12:41:46Z</time>
      </trkpt>
      <trkpt lat="47.78179" lon="-3.52956">
        <ele>15.96</ele>
        <time>2020-07-08T12:41:47Z</time>
      </trkpt>
      <trkpt lat="47.7817" lon="-3.52961">
        <ele>15.18</ele>
        <time>2020-07-08T12:41:48Z</time>
      </trkpt>
      <trkpt lat="47.78167" lon="-3.52961">
        <ele>14.94</ele>
        <time>2020-07-08T12:41:49Z</time>
      </trkpt>
      <trkpt lat="47.78165" lon="-3.52961">
        <ele>15.04</ele>
        <time>2020-07-08T12:41:50Z</time>
      </trkpt>
      <trkpt lat="47.78162" lon="-3.5296">
        <ele>15.4</ele>
        <time>2020-07-08T12:41:51Z</time>
      </trkpt>
      <trkpt lat="47.7816" lon="-3.5296">
        <ele>15.58</ele>
        <time>2020-07-08T12:41:52Z</time>
      </trkpt>
      <trkpt lat="47.78157" lon="-3.5296">
        <ele>15.58</ele>
        <time>2020-07-08T12:41:53Z</time>
      </trkpt>
      <trkpt lat="47.78155" lon="-3.5296">
        <ele>15.58</ele>
        <time>2020-07-08T12:41:54Z</time>
      </trkpt>
      <trkpt lat="47.78152" lon="-3.52961">
        <ele>15.39</ele>
        <time>2020-07-08T12:41:55Z</time>
      </trkpt>
      <trkpt lat="47.78149" lon="-3.52963">
        <ele>14.98</ele>
        <time>2020-07-08T12:41:56Z</time>
      </trkpt>
      <trkpt lat="47.78144" lon="-3.52965">
        <ele>14.51</ele>
        <time>2020-07-08T12:41:57Z</time>
      </trkpt>
      <trkpt lat="47.78141" lon="-3.52965">
        <ele>14.32</ele>
        <time>2020-07-08T12:41:58Z</time>
      </trkpt>
      <trkpt lat="47.78137" lon="-3.52966">
        <ele>14.27</ele>
        <time>2020-07-08T12:41:59Z</time>
      </trkpt>
      <trkpt lat="47.78135" lon="-3.52966">
        <ele>14.32</ele>
        <time>2020-07-08T12:42:00Z</time>
      </trkpt>
      <trkpt lat="47.78133" lon="-3.52966">
        <ele>14.4</ele>
        <time>2020-07-08T12:42:01Z</time>
      </trkpt>
      <trkpt lat="47.78132" lon="-3.52966">
        <ele>14.53</ele>
        <time>2020-07-08T12:42:02Z</time>
      </trkpt>
      <trkpt lat="47.78132" lon="-3.52967">
        <ele>14.46</ele>
        <time>2020-07-08T12:42:03Z</time>
      </trkpt>
      <trkpt lat="47.78132" lon="-3.52967">
        <ele>14.35</ele>
        <time>2020-07-08T12:42:04Z</time>
      </trkpt>
      <trkpt lat="47.78132" lon="-3.52967">
        <ele>14.32</ele>
        <time>2020-07-08T12:42:05Z</time>
      </trkpt>
      <trkpt lat="47.78132" lon="-3.52967">
        <ele>14.31</ele>
        <time>2020-07-08T12:42:06Z</time>
      </trkpt>
      <trkpt lat="47.78132" lon="-3.52967">
        <ele>14.3</ele>
        <time>2020-07-08T12:42:07Z</time>
      </trkpt>
      <trkpt lat="47.78132" lon="-3.52967">
        <ele>14.3</ele>
        <time>2020-07-08T12:42:08Z</time>
      </trkpt>
      <trkpt lat="47.78132" lon="-3.52967">
        <ele>14.3</ele>
        <time>2020-07-08T12:42:09Z</time>
      </trkpt>
      <trkpt lat="47.78132" lon="-3.52967">
        <ele>14.3</ele>
        <time>2020-07-08T12:42:10Z</time>
      </trkpt>
      <trkpt lat="47.78132" lon="-3.52967">
        <ele>14.3</ele>
        <time>2020-07-08T12:42:11Z</time>
      </trkpt>
      <trkpt lat="47.78132" lon="-3.52967">
        <ele>14.3</ele>
        <time>2020-07-08T12:42:12Z</time>
      </trkpt>
      <trkpt lat="47.78132" lon="-3.52967">
        <ele>14.3</ele>
        <time>2020-07-08T12:42:13Z</time>
      </trkpt>
      <trkpt lat="47.78132" lon="-3.52967">
        <ele>14.3</ele>
        <time>2020-07-08T12:42:14Z</time>
      </trkpt>
      <trkpt lat="47.78132" lon="-3.52967">
        <ele>14.3</ele>
        <time>2020-07-08T12:42:15Z</time>
      </trkpt>
      <trkpt lat="47.78125" lon="-3.52977">
        <ele>12.47</ele>
        <time>2020-07-08T12:42:16Z</time>
      </trkpt>
      <trkpt lat="47.78125" lon="-3.52977">
        <ele>11.9</ele>
        <time>2020-07-08T12:42:17Z</time>
      </trkpt>
      <trkpt lat="47.78124" lon="-3.52977">
        <ele>11.68</ele>
        <time>2020-07-08T12:42:18Z</time>
      </trkpt>
      <trkpt lat="47.78123" lon="-3.52978">
        <ele>11.54</ele>
        <time>2020-07-08T12:42:19Z</time>
      </trkpt>
      <trkpt lat="47.78123" lon="-3.52978">
        <ele>11.49</ele>
        <time>2020-07-08T12:42:20Z</time>
      </trkpt>
      <trkpt lat="47.78123" lon="-3.52978">
        <ele>11.48</ele>
        <time>2020-07-08T12:42:21Z</time>
      </trkpt>
      <trkpt lat="47.78117" lon="-3.52978">
        <ele>11.7</ele>
        <time>2020-07-08T12:42:22Z</time>
      </trkpt>
      <trkpt lat="47.78115" lon="-3.52978">
        <ele>11.78</ele>
        <time>2020-07-08T12:42:23Z</time>
      </trkpt>
      <trkpt lat="47.78114" lon="-3.52978">
        <ele>11.89</ele>
        <time>2020-07-08T12:42:24Z</time>
      </trkpt>
      <trkpt lat="47.78112" lon="-3.52979">
        <ele>11.84</ele>
        <time>2020-07-08T12:42:25Z</time>
      </trkpt>
      <trkpt lat="47.78109" lon="-3.5298">
        <ele>11.69</ele>
        <time>2020-07-08T12:42:26Z</time>
      </trkpt>
      <trkpt lat="47.78106" lon="-3.52981">
        <ele>11.52</ele>
        <time>2020-07-08T12:42:27Z</time>
      </trkpt>
      <trkpt lat="47.78103" lon="-3.52983">
        <ele>11.32</ele>
        <time>2020-07-08T12:42:28Z</time>
      </trkpt>
      <trkpt lat="47.78101" lon="-3.52984">
        <ele>11.21</ele>
        <time>2020-07-08T12:42:29Z</time>
      </trkpt>
      <trkpt lat="47.78098" lon="-3.52984">
        <ele>11.33</ele>
        <time>2020-07-08T12:42:30Z</time>
      </trkpt>
      <trkpt lat="47.78095" lon="-3.52984">
        <ele>11.6</ele>
        <time>2020-07-08T12:42:31Z</time>
      </trkpt>
      <trkpt lat="47.78092" lon="-3.52984">
        <ele>11.85</ele>
        <time>2020-07-08T12:42:32Z</time>
      </trkpt>
      <trkpt lat="47.7809" lon="-3.52984">
        <ele>11.96</ele>
        <time>2020-07-08T12:42:33Z</time>
      </trkpt>
      <trkpt lat="47.78088" lon="-3.52985">
        <ele>11.98</ele>
        <time>2020-07-08T12:42:34Z</time>
      </trkpt>
      <trkpt lat="47.78085" lon="-3.52985">
        <ele>12.09</ele>
        <time>2020-07-08T12:42:35Z</time>
      </trkpt>
      <trkpt lat="47.78083" lon="-3.52984">
        <ele>12.39</ele>
        <time>2020-07-08T12:42:36Z</time>
      </trkpt>
      <trkpt lat="47.78079" lon="-3.52985">
        <ele>12.46</ele>
        <time>2020-07-08T12:42:37Z</time>
      </trkpt>
      <trkpt lat="47.78076" lon="-3.52987">
        <ele>12.3</ele>
        <time>2020-07-08T12:42:38Z</time>
      </trkpt>
      <trkpt lat="47.78073" lon="-3.52987">
        <ele>12.19</ele>
        <time>2020-07-08T12:42:39Z</time>
      </trkpt>
      <trkpt lat="47.78069" lon="-3.52989">
        <ele>12.06</ele>
        <time>2020-07-08T12:42:40Z</time>
      </trkpt>
      <trkpt lat="47.78063" lon="-3.5299">
        <ele>11.94</ele>
        <time>2020-07-08T12:42:41Z</time>
      </trkpt>
      <trkpt lat="47.78059" lon="-3.5299">
        <ele>11.91</ele>
        <time>2020-07-08T12:42:42Z</time>
      </trkpt>
      <trkpt lat="47.78056" lon="-3.52991">
        <ele>11.98</ele>
        <time>2020-07-08T12:42:43Z</time>
      </trkpt>
      <trkpt lat="47.78053" lon="-3.52991">
        <ele>11.87</ele>
        <time>2020-07-08T12:42:44Z</time>
      </trkpt>
      <trkpt lat="47.78049" lon="-3.52992">
        <ele>11.44</ele>
        <time>2020-07-08T12:42:45Z</time>
      </trkpt>
      <trkpt lat="47.78046" lon="-3.52993">
        <ele>10.91</ele>
        <time>2020-07-08T12:42:46Z</time>
      </trkpt>
      <trkpt lat="47.78042" lon="-3.52993">
        <ele>10.48</ele>
        <time>2020-07-08T12:42:47Z</time>
      </trkpt>
      <trkpt lat="47.78039" lon="-3.52994">
        <ele>9.95</ele>
        <time>2020-07-08T12:42:48Z</time>
      </trkpt>
      <trkpt lat="47.78035" lon="-3.52994">
        <ele>9.53</ele>
        <time>2020-07-08T12:42:49Z</time>
      </trkpt>
      <trkpt lat="47.78031" lon="-3.52994">
        <ele>9.28</ele>
        <time>2020-07-08T12:42:50Z</time>
      </trkpt>
      <trkpt lat="47.78028" lon="-3.52994">
        <ele>9.13</ele>
        <time>2020-07-08T12:42:51Z</time>
      </trkpt>
      <trkpt lat="47.78024" lon="-3.52994">
        <ele>9.12</ele>
        <time>2020-07-08T12:42:52Z</time>
      </trkpt>
      <trkpt lat="47.78019" lon="-3.52994">
        <ele>9.2</ele>
        <time>2020-07-08T12:42:53Z</time>
      </trkpt>
      <trkpt lat="47.78016" lon="-3.52994">
        <ele>9.3</ele>
        <time>2020-07-08T12:42:54Z</time>
      </trkpt>
      <trkpt lat="47.78012" lon="-3.52994">
        <ele>9.29</ele>
        <time>2020-07-08T12:42:55Z</time>
      </trkpt>
      <trkpt lat="47.78008" lon="-3.52996">
        <ele>9.12</ele>
        <time>2020-07-08T12:42:56Z</time>
      </trkpt>
      <trkpt lat="47.78004" lon="-3.52997">
        <ele>8.85</ele>
        <time>2020-07-08T12:42:57Z</time>
      </trkpt>
      <trkpt lat="47.78" lon="-3.53">
        <ele>8.37</ele>
        <time>2020-07-08T12:42:58Z</time>
      </trkpt>
      <trkpt lat="47.77994" lon="-3.53002">
        <ele>8.16</ele>
        <time>2020-07-08T12:42:59Z</time>
      </trkpt>
      <trkpt lat="47.7799" lon="-3.53003">
        <ele>8.17</ele>
        <time>2020-07-08T12:43:00Z</time>
      </trkpt>
      <trkpt lat="47.77987" lon="-3.53004">
        <ele>8.21</ele>
        <time>2020-07-08T12:43:01Z</time>
      </trkpt>
      <trkpt lat="47.77986" lon="-3.53004">
        <ele>8.3</ele>
        <time>2020-07-08T12:43:02Z</time>
      </trkpt>
      <trkpt lat="47.77985" lon="-3.53004">
        <ele>8.34</ele>
        <time>2020-07-08T12:43:03Z</time>
      </trkpt>
      <trkpt lat="47.77985" lon="-3.53004">
        <ele>8.32</ele>
        <time>2020-07-08T12:43:04Z</time>
      </trkpt>
      <trkpt lat="47.77985" lon="-3.53004">
        <ele>8.25</ele>
        <time>2020-07-08T12:43:05Z</time>
      </trkpt>
      <trkpt lat="47.77985" lon="-3.53004">
        <ele>8.22</ele>
        <time>2020-07-08T12:43:06Z</time>
      </trkpt>
      <trkpt lat="47.77985" lon="-3.53004">
        <ele>8.22</ele>
        <time>2020-07-08T12:43:07Z</time>
      </trkpt>
      <trkpt lat="47.77985" lon="-3.53004">
        <ele>8.22</ele>
        <time>2020-07-08T12:43:08Z</time>
      </trkpt>
      <trkpt lat="47.77985" lon="-3.53004">
        <ele>8.22</ele>
        <time>2020-07-08T12:43:09Z</time>
      </trkpt>
      <trkpt lat="47.77985" lon="-3.53004">
        <ele>8.22</ele>
        <time>2020-07-08T12:43:10Z</time>
      </trkpt>
      <trkpt lat="47.77985" lon="-3.53004">
        <ele>8.22</ele>
        <time>2020-07-08T12:43:11Z</time>
      </trkpt>
      <trkpt lat="47.77985" lon="-3.53004">
        <ele>8.22</ele>
        <time>2020-07-08T12:43:12Z</time>
      </trkpt>
      <trkpt lat="47.77985" lon="-3.53004">
        <ele>8.22</ele>
        <time>2020-07-08T12:43:13Z</time>
      </trkpt>
      <trkpt lat="47.77985" lon="-3.53004">
        <ele>8.22</ele>
        <time>2020-07-08T12:43:14Z</time>
      </trkpt>
      <trkpt lat="47.77985" lon="-3.53004">
        <ele>8.22</ele>
        <time>2020-07-08T12:43:15Z</time>
      </trkpt>
      <trkpt lat="47.77985" lon="-3.53004">
        <ele>8.22</ele>
        <time>2020-07-08T12:43:16Z</time>
      </trkpt>
      <trkpt lat="47.77985" lon="-3.53004">
        <ele>8.22</ele>
        <time>2020-07-08T12:43:17Z</time>
      </trkpt>
      <trkpt lat="47.77975" lon="-3.53001">
        <ele>9.13</ele>
        <time>2020-07-08T12:43:18Z</time>
      </trkpt>
      <trkpt lat="47.77974" lon="-3.53001">
        <ele>9.55</ele>
        <time>2020-07-08T12:43:19Z</time>
      </trkpt>
      <trkpt lat="47.77973" lon="-3.53">
        <ele>9.88</ele>
        <time>2020-07-08T12:43:20Z</time>
      </trkpt>
      <trkpt lat="47.77973" lon="-3.52999">
        <ele>10.16</ele>
        <time>2020-07-08T12:43:21Z</time>
      </trkpt>
      <trkpt lat="47.77973" lon="-3.52999">
        <ele>10.24</ele>
        <time>2020-07-08T12:43:22Z</time>
      </trkpt>
      <trkpt lat="47.77973" lon="-3.52999">
        <ele>10.27</ele>
        <time>2020-07-08T12:43:23Z</time>
      </trkpt>
      <trkpt lat="47.77973" lon="-3.52999">
        <ele>10.28</ele>
        <time>2020-07-08T12:43:24Z</time>
      </trkpt>
      <trkpt lat="47.77973" lon="-3.52999">
        <ele>10.28</ele>
        <time>2020-07-08T12:43:25Z</time>
      </trkpt>
      <trkpt lat="47.77973" lon="-3.52999">
        <ele>10.28</ele>
        <time>2020-07-08T12:43:26Z</time>
      </trkpt>
      <trkpt lat="47.77973" lon="-3.52999">
        <ele>10.28</ele>
        <time>2020-07-08T12:43:27Z</time>
      </trkpt>
      <trkpt lat="47.77973" lon="-3.52999">
        <ele>10.28</ele>
        <time>2020-07-08T12:43:28Z</time>
      </trkpt>
      <trkpt lat="47.77973" lon="-3.52999">
        <ele>10.28</ele>
        <time>2020-07-08T12:43:29Z</time>
      </trkpt>
      <trkpt lat="47.77973" lon="-3.52999">
        <ele>10.28</ele>
        <time>2020-07-08T12:43:30Z</time>
      </trkpt>
      <trkpt lat="47.77973" lon="-3.52999">
        <ele>10.28</ele>
        <time>2020-07-08T12:43:31Z</time>
      </trkpt>
      <trkpt lat="47.77973" lon="-3.52999">
        <ele>10.28</ele>
        <time>2020-07-08T12:43:33Z</time>
      </trkpt>
      <trkpt lat="47.77973" lon="-3.52999">
        <ele>10.28</ele>
        <time>2020-07-08T12:43:34Z</time>
      </trkpt>
      <trkpt lat="47.77973" lon="-3.52999">
        <ele>10.28</ele>
        <time>2020-07-08T12:43:35Z</time>
      </trkpt>
      <trkpt lat="47.77973" lon="-3.52999">
        <ele>10.28</ele>
        <time>2020-07-08T12:43:36Z</time>
      </trkpt>
      <trkpt lat="47.77973" lon="-3.52999">
        <ele>10.28</ele>
        <time>2020-07-08T12:43:37Z</time>
      </trkpt>
      <trkpt lat="47.77964" lon="-3.52998">
        <ele>11.35</ele>
        <time>2020-07-08T12:43:38Z</time>
      </trkpt>
      <trkpt lat="47.77963" lon="-3.52998">
        <ele>11.74</ele>
        <time>2020-07-08T12:43:39Z</time>
      </trkpt>
      <trkpt lat="47.77962" lon="-3.52999">
        <ele>11.87</ele>
        <time>2020-07-08T12:43:40Z</time>
      </trkpt>
      <trkpt lat="47.77961" lon="-3.53">
        <ele>11.76</ele>
        <time>2020-07-08T12:43:41Z</time>
      </trkpt>
      <trkpt lat="47.7796" lon="-3.53">
        <ele>11.7</ele>
        <time>2020-07-08T12:43:42Z</time>
      </trkpt>
      <trkpt lat="47.7796" lon="-3.53001">
        <ele>11.65</ele>
        <time>2020-07-08T12:43:43Z</time>
      </trkpt>
      <trkpt lat="47.77958" lon="-3.53001">
        <ele>11.63</ele>
        <time>2020-07-08T12:43:44Z</time>
      </trkpt>
      <trkpt lat="47.77956" lon="-3.53003">
        <ele>11.5</ele>
        <time>2020-07-08T12:43:45Z</time>
      </trkpt>
      <trkpt lat="47.77953" lon="-3.53006">
        <ele>11.19</ele>
        <time>2020-07-08T12:43:46Z</time>
      </trkpt>
      <trkpt lat="47.77951" lon="-3.53007">
        <ele>10.9</ele>
        <time>2020-07-08T12:43:47Z</time>
      </trkpt>
      <trkpt lat="47.77949" lon="-3.53009">
        <ele>10.71</ele>
        <time>2020-07-08T12:43:48Z</time>
      </trkpt>
      <trkpt lat="47.77947" lon="-3.53009">
        <ele>10.7</ele>
        <time>2020-07-08T12:43:49Z</time>
      </trkpt>
      <trkpt lat="47.77946" lon="-3.5301">
        <ele>10.63</ele>
        <time>2020-07-08T12:43:50Z</time>
      </trkpt>
      <trkpt lat="47.77944" lon="-3.53011">
        <ele>10.58</ele>
        <time>2020-07-08T12:43:51Z</time>
      </trkpt>
      <trkpt lat="47.77942" lon="-3.53011">
        <ele>10.42</ele>
        <time>2020-07-08T12:43:52Z</time>
      </trkpt>
      <trkpt lat="47.7794" lon="-3.53014">
        <ele>9.94</ele>
        <time>2020-07-08T12:43:53Z</time>
      </trkpt>
      <trkpt lat="47.77938" lon="-3.53016">
        <ele>9.36</ele>
        <time>2020-07-08T12:43:54Z</time>
      </trkpt>
      <trkpt lat="47.77936" lon="-3.53018">
        <ele>8.67</ele>
        <time>2020-07-08T12:43:55Z</time>
      </trkpt>
      <trkpt lat="47.77933" lon="-3.53021">
        <ele>8.01</ele>
        <time>2020-07-08T12:43:56Z</time>
      </trkpt>
      <trkpt lat="47.7793" lon="-3.53023">
        <ele>7.29</ele>
        <time>2020-07-08T12:43:57Z</time>
      </trkpt>
      <trkpt lat="47.77927" lon="-3.53026">
        <ele>6.61</ele>
        <time>2020-07-08T12:43:58Z</time>
      </trkpt>
      <trkpt lat="47.77924" lon="-3.53026">
        <ele>6.3</ele>
        <time>2020-07-08T12:43:59Z</time>
      </trkpt>
      <trkpt lat="47.77921" lon="-3.53027">
        <ele>6.07</ele>
        <time>2020-07-08T12:44:00Z</time>
      </trkpt>
      <trkpt lat="47.77919" lon="-3.53027">
        <ele>6.05</ele>
        <time>2020-07-08T12:44:01Z</time>
      </trkpt>
      <trkpt lat="47.77917" lon="-3.53027">
        <ele>6.27</ele>
        <time>2020-07-08T12:44:02Z</time>
      </trkpt>
      <trkpt lat="47.77914" lon="-3.53025">
        <ele>6.57</ele>
        <time>2020-07-08T12:44:03Z</time>
      </trkpt>
      <trkpt lat="47.77911" lon="-3.53023">
        <ele>7.01</ele>
        <time>2020-07-08T12:44:04Z</time>
      </trkpt>
      <trkpt lat="47.77909" lon="-3.53022">
        <ele>7.5</ele>
        <time>2020-07-08T12:44:05Z</time>
      </trkpt>
      <trkpt lat="47.77907" lon="-3.53022">
        <ele>7.59</ele>
        <time>2020-07-08T12:44:06Z</time>
      </trkpt>
      <trkpt lat="47.77905" lon="-3.5302">
        <ele>7.99</ele>
        <time>2020-07-08T12:44:07Z</time>
      </trkpt>
      <trkpt lat="47.77903" lon="-3.53018">
        <ele>8.48</ele>
        <time>2020-07-08T12:44:08Z</time>
      </trkpt>
      <trkpt lat="47.77902" lon="-3.53016">
        <ele>9.04</ele>
        <time>2020-07-08T12:44:09Z</time>
      </trkpt>
      <trkpt lat="47.779" lon="-3.53015">
        <ele>9.47</ele>
        <time>2020-07-08T12:44:10Z</time>
      </trkpt>
      <trkpt lat="47.77899" lon="-3.53014">
        <ele>9.8</ele>
        <time>2020-07-08T12:44:11Z</time>
      </trkpt>
      <trkpt lat="47.77897" lon="-3.53013">
        <ele>10.01</ele>
        <time>2020-07-08T12:44:12Z</time>
      </trkpt>
      <trkpt lat="47.77896" lon="-3.53013">
        <ele>10.15</ele>
        <time>2020-07-08T12:44:13Z</time>
      </trkpt>
      <trkpt lat="47.77894" lon="-3.53012">
        <ele>10.26</ele>
        <time>2020-07-08T12:44:14Z</time>
      </trkpt>
      <trkpt lat="47.77893" lon="-3.53012">
        <ele>10.21</ele>
        <time>2020-07-08T12:44:15Z</time>
      </trkpt>
      <trkpt lat="47.77891" lon="-3.53012">
        <ele>10.15</ele>
        <time>2020-07-08T12:44:16Z</time>
      </trkpt>
      <trkpt lat="47.77888" lon="-3.53012">
        <ele>10.12</ele>
        <time>2020-07-08T12:44:17Z</time>
      </trkpt>
      <trkpt lat="47.77886" lon="-3.53011">
        <ele>10.28</ele>
        <time>2020-07-08T12:44:18Z</time>
      </trkpt>
      <trkpt lat="47.77884" lon="-3.53011">
        <ele>10.34</ele>
        <time>2020-07-08T12:44:19Z</time>
      </trkpt>
      <trkpt lat="47.77882" lon="-3.5301">
        <ele>10.65</ele>
        <time>2020-07-08T12:44:20Z</time>
      </trkpt>
      <trkpt lat="47.77879" lon="-3.53009">
        <ele>10.91</ele>
        <time>2020-07-08T12:44:21Z</time>
      </trkpt>
      <trkpt lat="47.77876" lon="-3.53009">
        <ele>10.93</ele>
        <time>2020-07-08T12:44:22Z</time>
      </trkpt>
      <trkpt lat="47.77873" lon="-3.5301">
        <ele>10.66</ele>
        <time>2020-07-08T12:44:23Z</time>
      </trkpt>
      <trkpt lat="47.77869" lon="-3.53011">
        <ele>10.26</ele>
        <time>2020-07-08T12:44:24Z</time>
      </trkpt>
      <trkpt lat="47.77865" lon="-3.53012">
        <ele>9.94</ele>
        <time>2020-07-08T12:44:25Z</time>
      </trkpt>
      <trkpt lat="47.77861" lon="-3.53011">
        <ele>9.87</ele>
        <time>2020-07-08T12:44:26Z</time>
      </trkpt>
      <trkpt lat="47.77856" lon="-3.53011">
        <ele>9.96</ele>
        <time>2020-07-08T12:44:27Z</time>
      </trkpt>
      <trkpt lat="47.77853" lon="-3.5301">
        <ele>10.26</ele>
        <time>2020-07-08T12:44:28Z</time>
      </trkpt>
      <trkpt lat="47.7785" lon="-3.53009">
        <ele>10.54</ele>
        <time>2020-07-08T12:44:29Z</time>
      </trkpt>
      <trkpt lat="47.77847" lon="-3.53008">
        <ele>10.69</ele>
        <time>2020-07-08T12:44:30Z</time>
      </trkpt>
      <trkpt lat="47.77843" lon="-3.53007">
        <ele>10.86</ele>
        <time>2020-07-08T12:44:31Z</time>
      </trkpt>
      <trkpt lat="47.7784" lon="-3.53007">
        <ele>10.98</ele>
        <time>2020-07-08T12:44:32Z</time>
      </trkpt>
      <trkpt lat="47.77838" lon="-3.53006">
        <ele>11.12</ele>
        <time>2020-07-08T12:44:33Z</time>
      </trkpt>
      <trkpt lat="47.77836" lon="-3.53005">
        <ele>11.31</ele>
        <time>2020-07-08T12:44:34Z</time>
      </trkpt>
      <trkpt lat="47.77833" lon="-3.53005">
        <ele>11.43</ele>
        <time>2020-07-08T12:44:35Z</time>
      </trkpt>
      <trkpt lat="47.7783" lon="-3.53004">
        <ele>11.57</ele>
        <time>2020-07-08T12:44:36Z</time>
      </trkpt>
      <trkpt lat="47.77828" lon="-3.53004">
        <ele>11.76</ele>
        <time>2020-07-08T12:44:37Z</time>
      </trkpt>
      <trkpt lat="47.77825" lon="-3.53002">
        <ele>12.24</ele>
        <time>2020-07-08T12:44:38Z</time>
      </trkpt>
      <trkpt lat="47.77824" lon="-3.53">
        <ele>12.77</ele>
        <time>2020-07-08T12:44:39Z</time>
      </trkpt>
      <trkpt lat="47.77821" lon="-3.52999">
        <ele>13.17</ele>
        <time>2020-07-08T12:44:40Z</time>
      </trkpt>
      <trkpt lat="47.77819" lon="-3.52999">
        <ele>13.32</ele>
        <time>2020-07-08T12:44:41Z</time>
      </trkpt>
      <trkpt lat="47.77818" lon="-3.52998">
        <ele>13.53</ele>
        <time>2020-07-08T12:44:42Z</time>
      </trkpt>
      <trkpt lat="47.77815" lon="-3.52998">
        <ele>13.55</ele>
        <time>2020-07-08T12:44:43Z</time>
      </trkpt>
      <trkpt lat="47.77813" lon="-3.53">
        <ele>13.26</ele>
        <time>2020-07-08T12:44:44Z</time>
      </trkpt>
      <trkpt lat="47.77809" lon="-3.53001">
        <ele>12.75</ele>
        <time>2020-07-08T12:44:45Z</time>
      </trkpt>
      <trkpt lat="47.77805" lon="-3.53003">
        <ele>12.13</ele>
        <time>2020-07-08T12:44:46Z</time>
      </trkpt>
      <trkpt lat="47.77799" lon="-3.53004">
        <ele>11.63</ele>
        <time>2020-07-08T12:44:47Z</time>
      </trkpt>
      <trkpt lat="47.77793" lon="-3.53006">
        <ele>11.15</ele>
        <time>2020-07-08T12:44:48Z</time>
      </trkpt>
      <trkpt lat="47.77786" lon="-3.53007">
        <ele>10.76</ele>
        <time>2020-07-08T12:44:49Z</time>
      </trkpt>
      <trkpt lat="47.77781" lon="-3.53009">
        <ele>10.26</ele>
        <time>2020-07-08T12:44:50Z</time>
      </trkpt>
      <trkpt lat="47.77777" lon="-3.5301">
        <ele>9.72</ele>
        <time>2020-07-08T12:44:51Z</time>
      </trkpt>
      <trkpt lat="47.77773" lon="-3.5301">
        <ele>9.42</ele>
        <time>2020-07-08T12:44:52Z</time>
      </trkpt>
      <trkpt lat="47.77769" lon="-3.53009">
        <ele>9.21</ele>
        <time>2020-07-08T12:44:53Z</time>
      </trkpt>
      <trkpt lat="47.77766" lon="-3.53009">
        <ele>9.03</ele>
        <time>2020-07-08T12:44:54Z</time>
      </trkpt>
      <trkpt lat="47.77762" lon="-3.53009">
        <ele>8.83</ele>
        <time>2020-07-08T12:44:55Z</time>
      </trkpt>
      <trkpt lat="47.77759" lon="-3.53008">
        <ele>8.7</ele>
        <time>2020-07-08T12:44:56Z</time>
      </trkpt>
      <trkpt lat="47.77756" lon="-3.53006">
        <ele>8.76</ele>
        <time>2020-07-08T12:44:57Z</time>
      </trkpt>
      <trkpt lat="47.77753" lon="-3.53004">
        <ele>9.04</ele>
        <time>2020-07-08T12:44:58Z</time>
      </trkpt>
      <trkpt lat="47.77749" lon="-3.53002">
        <ele>9.24</ele>
        <time>2020-07-08T12:44:59Z</time>
      </trkpt>
      <trkpt lat="47.77746" lon="-3.53002">
        <ele>9.22</ele>
        <time>2020-07-08T12:45:00Z</time>
      </trkpt>
      <trkpt lat="47.77741" lon="-3.53001">
        <ele>9.04</ele>
        <time>2020-07-08T12:45:01Z</time>
      </trkpt>
      <trkpt lat="47.77737" lon="-3.53001">
        <ele>8.83</ele>
        <time>2020-07-08T12:45:02Z</time>
      </trkpt>
      <trkpt lat="47.77734" lon="-3.53001">
        <ele>8.73</ele>
        <time>2020-07-08T12:45:03Z</time>
      </trkpt>
      <trkpt lat="47.77732" lon="-3.53">
        <ele>8.8</ele>
        <time>2020-07-08T12:45:04Z</time>
      </trkpt>
      <trkpt lat="47.77731" lon="-3.52999">
        <ele>8.9</ele>
        <time>2020-07-08T12:45:05Z</time>
      </trkpt>
      <trkpt lat="47.77731" lon="-3.52998">
        <ele>8.98</ele>
        <time>2020-07-08T12:45:06Z</time>
      </trkpt>
      <trkpt lat="47.77731" lon="-3.52999">
        <ele>8.93</ele>
        <time>2020-07-08T12:45:07Z</time>
      </trkpt>
      <trkpt lat="47.77731" lon="-3.52999">
        <ele>8.91</ele>
        <time>2020-07-08T12:45:08Z</time>
      </trkpt>
      <trkpt lat="47.77731" lon="-3.52999">
        <ele>8.91</ele>
        <time>2020-07-08T12:45:09Z</time>
      </trkpt>
      <trkpt lat="47.77731" lon="-3.52999">
        <ele>8.91</ele>
        <time>2020-07-08T12:45:10Z</time>
      </trkpt>
      <trkpt lat="47.77731" lon="-3.52999">
        <ele>8.91</ele>
        <time>2020-07-08T12:45:11Z</time>
      </trkpt>
      <trkpt lat="47.77731" lon="-3.52999">
        <ele>8.91</ele>
        <time>2020-07-08T12:45:12Z</time>
      </trkpt>
      <trkpt lat="47.77731" lon="-3.52999">
        <ele>8.91</ele>
        <time>2020-07-08T12:45:13Z</time>
      </trkpt>
      <trkpt lat="47.77731" lon="-3.52999">
        <ele>8.91</ele>
        <time>2020-07-08T12:45:14Z</time>
      </trkpt>
      <trkpt lat="47.77731" lon="-3.52999">
        <ele>8.91</ele>
        <time>2020-07-08T12:45:15Z</time>
      </trkpt>
      <trkpt lat="47.77731" lon="-3.52999">
        <ele>8.91</ele>
        <time>2020-07-08T12:45:16Z</time>
      </trkpt>
      <trkpt lat="47.77731" lon="-3.52999">
        <ele>8.91</ele>
        <time>2020-07-08T12:45:17Z</time>
      </trkpt>
      <trkpt lat="47.77731" lon="-3.52999">
        <ele>8.91</ele>
        <time>2020-07-08T12:45:18Z</time>
      </trkpt>
      <trkpt lat="47.77731" lon="-3.52999">
        <ele>8.91</ele>
        <time>2020-07-08T12:45:19Z</time>
      </trkpt>
      <trkpt lat="47.77731" lon="-3.52999">
        <ele>8.91</ele>
        <time>2020-07-08T12:45:20Z</time>
      </trkpt>
      <trkpt lat="47.77731" lon="-3.52999">
        <ele>8.91</ele>
        <time>2020-07-08T12:45:21Z</time>
      </trkpt>
      <trkpt lat="47.77731" lon="-3.52999">
        <ele>8.91</ele>
        <time>2020-07-08T12:45:22Z</time>
      </trkpt>
      <trkpt lat="47.77731" lon="-3.52999">
        <ele>8.91</ele>
        <time>2020-07-08T12:45:23Z</time>
      </trkpt>
      <trkpt lat="47.77724" lon="-3.5299">
        <ele>10.21</ele>
        <time>2020-07-08T12:45:24Z</time>
      </trkpt>
      <trkpt lat="47.77723" lon="-3.52989">
        <ele>10.68</ele>
        <time>2020-07-08T12:45:25Z</time>
      </trkpt>
      <trkpt lat="47.77722" lon="-3.52988">
        <ele>10.89</ele>
        <time>2020-07-08T12:45:26Z</time>
      </trkpt>
      <trkpt lat="47.77722" lon="-3.52988">
        <ele>11.04</ele>
        <time>2020-07-08T12:45:27Z</time>
      </trkpt>
      <trkpt lat="47.77722" lon="-3.52988">
        <ele>11.08</ele>
        <time>2020-07-08T12:45:28Z</time>
      </trkpt>
      <trkpt lat="47.77722" lon="-3.52988">
        <ele>11.09</ele>
        <time>2020-07-08T12:45:29Z</time>
      </trkpt>
      <trkpt lat="47.77722" lon="-3.52988">
        <ele>11.1</ele>
        <time>2020-07-08T12:45:30Z</time>
      </trkpt>
      <trkpt lat="47.77722" lon="-3.52988">
        <ele>11.1</ele>
        <time>2020-07-08T12:45:31Z</time>
      </trkpt>
      <trkpt lat="47.77722" lon="-3.52988">
        <ele>11.1</ele>
        <time>2020-07-08T12:45:32Z</time>
      </trkpt>
      <trkpt lat="47.77715" lon="-3.52987">
        <ele>11.22</ele>
        <time>2020-07-08T12:45:33Z</time>
      </trkpt>
      <trkpt lat="47.77712" lon="-3.52986">
        <ele>11.31</ele>
        <time>2020-07-08T12:45:34Z</time>
      </trkpt>
      <trkpt lat="47.77708" lon="-3.52986">
        <ele>11.22</ele>
        <time>2020-07-08T12:45:35Z</time>
      </trkpt>
      <trkpt lat="47.777" lon="-3.52985">
        <ele>11.29</ele>
        <time>2020-07-08T12:45:36Z</time>
      </trkpt>
      <trkpt lat="47.77696" lon="-3.52984">
        <ele>11.49</ele>
        <time>2020-07-08T12:45:37Z</time>
      </trkpt>
      <trkpt lat="47.77691" lon="-3.52984">
        <ele>11.6</ele>
        <time>2020-07-08T12:45:38Z</time>
      </trkpt>
      <trkpt lat="47.77688" lon="-3.52983">
        <ele>11.66</ele>
        <time>2020-07-08T12:45:39Z</time>
      </trkpt>
      <trkpt lat="47.77686" lon="-3.52983">
        <ele>11.61</ele>
        <time>2020-07-08T12:45:40Z</time>
      </trkpt>
      <trkpt lat="47.77684" lon="-3.52984">
        <ele>11.37</ele>
        <time>2020-07-08T12:45:41Z</time>
      </trkpt>
      <trkpt lat="47.77681" lon="-3.52985">
        <ele>10.96</ele>
        <time>2020-07-08T12:45:42Z</time>
      </trkpt>
      <trkpt lat="47.77678" lon="-3.52986">
        <ele>10.63</ele>
        <time>2020-07-08T12:45:43Z</time>
      </trkpt>
      <trkpt lat="47.77674" lon="-3.52986">
        <ele>10.47</ele>
        <time>2020-07-08T12:45:44Z</time>
      </trkpt>
      <trkpt lat="47.77671" lon="-3.52985">
        <ele>10.41</ele>
        <time>2020-07-08T12:45:45Z</time>
      </trkpt>
      <trkpt lat="47.77668" lon="-3.52985">
        <ele>10.35</ele>
        <time>2020-07-08T12:45:46Z</time>
      </trkpt>
      <trkpt lat="47.77665" lon="-3.52985">
        <ele>10.44</ele>
        <time>2020-07-08T12:45:47Z</time>
      </trkpt>
      <trkpt lat="47.77662" lon="-3.52985">
        <ele>10.53</ele>
        <time>2020-07-08T12:45:48Z</time>
      </trkpt>
      <trkpt lat="47.77659" lon="-3.52986">
        <ele>10.64</ele>
        <time>2020-07-08T12:45:49Z</time>
      </trkpt>
      <trkpt lat="47.77657" lon="-3.52986">
        <ele>10.75</ele>
        <time>2020-07-08T12:45:50Z</time>
      </trkpt>
      <trkpt lat="47.77654" lon="-3.52987">
        <ele>10.73</ele>
        <time>2020-07-08T12:45:51Z</time>
      </trkpt>
      <trkpt lat="47.77651" lon="-3.52988">
        <ele>10.69</ele>
        <time>2020-07-08T12:45:52Z</time>
      </trkpt>
      <trkpt lat="47.77647" lon="-3.52989">
        <ele>10.69</ele>
        <time>2020-07-08T12:45:53Z</time>
      </trkpt>
      <trkpt lat="47.77644" lon="-3.52991">
        <ele>10.64</ele>
        <time>2020-07-08T12:45:54Z</time>
      </trkpt>
      <trkpt lat="47.77639" lon="-3.52993">
        <ele>10.52</ele>
        <time>2020-07-08T12:45:55Z</time>
      </trkpt>
      <trkpt lat="47.77634" lon="-3.52995">
        <ele>10.28</ele>
        <time>2020-07-08T12:45:56Z</time>
      </trkpt>
      <trkpt lat="47.77629" lon="-3.52997">
        <ele>10.01</ele>
        <time>2020-07-08T12:45:57Z</time>
      </trkpt>
      <trkpt lat="47.77624" lon="-3.52999">
        <ele>9.76</ele>
        <time>2020-07-08T12:45:58Z</time>
      </trkpt>
      <trkpt lat="47.7762" lon="-3.53001">
        <ele>9.45</ele>
        <time>2020-07-08T12:45:59Z</time>
      </trkpt>
      <trkpt lat="47.77617" lon="-3.53001">
        <ele>9.43</ele>
        <time>2020-07-08T12:46:00Z</time>
      </trkpt>
      <trkpt lat="47.77615" lon="-3.53001">
        <ele>9.54</ele>
        <time>2020-07-08T12:46:01Z</time>
      </trkpt>
      <trkpt lat="47.77614" lon="-3.53">
        <ele>9.69</ele>
        <time>2020-07-08T12:46:02Z</time>
      </trkpt>
      <trkpt lat="47.77614" lon="-3.53">
        <ele>9.78</ele>
        <time>2020-07-08T12:46:03Z</time>
      </trkpt>
      <trkpt lat="47.77613" lon="-3.53">
        <ele>9.78</ele>
        <time>2020-07-08T12:46:04Z</time>
      </trkpt>
      <trkpt lat="47.77613" lon="-3.53">
        <ele>9.78</ele>
        <time>2020-07-08T12:46:05Z</time>
      </trkpt>
      <trkpt lat="47.77613" lon="-3.53">
        <ele>9.78</ele>
        <time>2020-07-08T12:46:06Z</time>
      </trkpt>
      <trkpt lat="47.77613" lon="-3.53">
        <ele>9.78</ele>
        <time>2020-07-08T12:46:07Z</time>
      </trkpt>
      <trkpt lat="47.77613" lon="-3.53">
        <ele>9.78</ele>
        <time>2020-07-08T12:46:08Z</time>
      </trkpt>
      <trkpt lat="47.77613" lon="-3.53">
        <ele>9.78</ele>
        <time>2020-07-08T12:46:09Z</time>
      </trkpt>
      <trkpt lat="47.77613" lon="-3.53">
        <ele>9.78</ele>
        <time>2020-07-08T12:46:10Z</time>
      </trkpt>
      <trkpt lat="47.77613" lon="-3.53">
        <ele>9.78</ele>
        <time>2020-07-08T12:46:11Z</time>
      </trkpt>
      <trkpt lat="47.77613" lon="-3.53">
        <ele>9.78</ele>
        <time>2020-07-08T12:46:12Z</time>
      </trkpt>
      <trkpt lat="47.77613" lon="-3.53">
        <ele>9.78</ele>
        <time>2020-07-08T12:46:13Z</time>
      </trkpt>
      <trkpt lat="47.77613" lon="-3.53">
        <ele>9.78</ele>
        <time>2020-07-08T12:46:14Z</time>
      </trkpt>
      <trkpt lat="47.77604" lon="-3.53">
        <ele>9.58</ele>
        <time>2020-07-08T12:46:15Z</time>
      </trkpt>
      <trkpt lat="47.77602" lon="-3.53">
        <ele>9.36</ele>
        <time>2020-07-08T12:46:16Z</time>
      </trkpt>
      <trkpt lat="47.776" lon="-3.53">
        <ele>9.19</ele>
        <time>2020-07-08T12:46:17Z</time>
      </trkpt>
      <trkpt lat="47.77596" lon="-3.53">
        <ele>8.96</ele>
        <time>2020-07-08T12:46:18Z</time>
      </trkpt>
      <trkpt lat="47.77592" lon="-3.53">
        <ele>8.73</ele>
        <time>2020-07-08T12:46:19Z</time>
      </trkpt>
      <trkpt lat="47.77589" lon="-3.52999">
        <ele>8.64</ele>
        <time>2020-07-08T12:46:20Z</time>
      </trkpt>
      <trkpt lat="47.77588" lon="-3.52998">
        <ele>8.66</ele>
        <time>2020-07-08T12:46:21Z</time>
      </trkpt>
      <trkpt lat="47.77587" lon="-3.52997">
        <ele>8.67</ele>
        <time>2020-07-08T12:46:22Z</time>
      </trkpt>
      <trkpt lat="47.77587" lon="-3.52997">
        <ele>8.69</ele>
        <time>2020-07-08T12:46:23Z</time>
      </trkpt>
      <trkpt lat="47.77588" lon="-3.52997">
        <ele>8.7</ele>
        <time>2020-07-08T12:46:24Z</time>
      </trkpt>
      <trkpt lat="47.77588" lon="-3.52997">
        <ele>8.71</ele>
        <time>2020-07-08T12:46:25Z</time>
      </trkpt>
      <trkpt lat="47.77588" lon="-3.52997">
        <ele>8.71</ele>
        <time>2020-07-08T12:46:26Z</time>
      </trkpt>
      <trkpt lat="47.77588" lon="-3.52997">
        <ele>8.71</ele>
        <time>2020-07-08T12:46:27Z</time>
      </trkpt>
      <trkpt lat="47.77588" lon="-3.52997">
        <ele>8.71</ele>
        <time>2020-07-08T12:46:28Z</time>
      </trkpt>
      <trkpt lat="47.77588" lon="-3.52997">
        <ele>8.71</ele>
        <time>2020-07-08T12:46:29Z</time>
      </trkpt>
      <trkpt lat="47.77588" lon="-3.52997">
        <ele>8.71</ele>
        <time>2020-07-08T12:46:30Z</time>
      </trkpt>
      <trkpt lat="47.77588" lon="-3.52997">
        <ele>8.71</ele>
        <time>2020-07-08T12:46:31Z</time>
      </trkpt>
      <trkpt lat="47.77588" lon="-3.52997">
        <ele>8.71</ele>
        <time>2020-07-08T12:46:32Z</time>
      </trkpt>
      <trkpt lat="47.77588" lon="-3.52997">
        <ele>8.71</ele>
        <time>2020-07-08T12:46:33Z</time>
      </trkpt>
      <trkpt lat="47.77588" lon="-3.52997">
        <ele>8.71</ele>
        <time>2020-07-08T12:46:34Z</time>
      </trkpt>
      <trkpt lat="47.77588" lon="-3.52997">
        <ele>8.71</ele>
        <time>2020-07-08T12:46:35Z</time>
      </trkpt>
      <trkpt lat="47.77588" lon="-3.52997">
        <ele>8.71</ele>
        <time>2020-07-08T12:46:36Z</time>
      </trkpt>
      <trkpt lat="47.77588" lon="-3.52997">
        <ele>8.71</ele>
        <time>2020-07-08T12:46:37Z</time>
      </trkpt>
      <trkpt lat="47.77588" lon="-3.52997">
        <ele>8.71</ele>
        <time>2020-07-08T12:46:38Z</time>
      </trkpt>
      <trkpt lat="47.77588" lon="-3.52997">
        <ele>8.71</ele>
        <time>2020-07-08T12:46:39Z</time>
      </trkpt>
      <trkpt lat="47.77588" lon="-3.52997">
        <ele>8.71</ele>
        <time>2020-07-08T12:46:40Z</time>
      </trkpt>
      <trkpt lat="47.77588" lon="-3.52997">
        <ele>8.71</ele>
        <time>2020-07-08T12:46:41Z</time>
      </trkpt>
      <trkpt lat="47.77588" lon="-3.52997">
        <ele>8.71</ele>
        <time>2020-07-08T12:46:42Z</time>
      </trkpt>
      <trkpt lat="47.77582" lon="-3.52989">
        <ele>9.08</ele>
        <time>2020-07-08T12:46:43Z</time>
      </trkpt>
      <trkpt lat="47.77582" lon="-3.52988">
        <ele>9.36</ele>
        <time>2020-07-08T12:46:44Z</time>
      </trkpt>
      <trkpt lat="47.77581" lon="-3.52986">
        <ele>9.53</ele>
        <time>2020-07-08T12:46:45Z</time>
      </trkpt>
      <trkpt lat="47.77581" lon="-3.52986">
        <ele>9.62</ele>
        <time>2020-07-08T12:46:46Z</time>
      </trkpt>
      <trkpt lat="47.77581" lon="-3.52985">
        <ele>9.73</ele>
        <time>2020-07-08T12:46:47Z</time>
      </trkpt>
      <trkpt lat="47.77581" lon="-3.52984">
        <ele>9.85</ele>
        <time>2020-07-08T12:46:48Z</time>
      </trkpt>
      <trkpt lat="47.77581" lon="-3.52984">
        <ele>9.89</ele>
        <time>2020-07-08T12:46:49Z</time>
      </trkpt>
      <trkpt lat="47.77581" lon="-3.52984">
        <ele>9.9</ele>
        <time>2020-07-08T12:46:50Z</time>
      </trkpt>
      <trkpt lat="47.77581" lon="-3.52984">
        <ele>9.9</ele>
        <time>2020-07-08T12:46:51Z</time>
      </trkpt>
      <trkpt lat="47.77581" lon="-3.52984">
        <ele>9.91</ele>
        <time>2020-07-08T12:46:52Z</time>
      </trkpt>
      <trkpt lat="47.77581" lon="-3.52984">
        <ele>9.91</ele>
        <time>2020-07-08T12:46:53Z</time>
      </trkpt>
      <trkpt lat="47.77581" lon="-3.52984">
        <ele>9.91</ele>
        <time>2020-07-08T12:46:54Z</time>
      </trkpt>
      <trkpt lat="47.77581" lon="-3.52984">
        <ele>9.91</ele>
        <time>2020-07-08T12:46:55Z</time>
      </trkpt>
      <trkpt lat="47.77577" lon="-3.52981">
        <ele>9.6</ele>
        <time>2020-07-08T12:46:56Z</time>
      </trkpt>
      <trkpt lat="47.77574" lon="-3.5298">
        <ele>9.18</ele>
        <time>2020-07-08T12:46:57Z</time>
      </trkpt>
      <trkpt lat="47.77571" lon="-3.52978">
        <ele>8.78</ele>
        <time>2020-07-08T12:46:58Z</time>
      </trkpt>
      <trkpt lat="47.77567" lon="-3.52976">
        <ele>8.32</ele>
        <time>2020-07-08T12:46:59Z</time>
      </trkpt>
      <trkpt lat="47.77564" lon="-3.52973">
        <ele>7.96</ele>
        <time>2020-07-08T12:47:00Z</time>
      </trkpt>
      <trkpt lat="47.7756" lon="-3.52971">
        <ele>7.33</ele>
        <time>2020-07-08T12:47:01Z</time>
      </trkpt>
      <trkpt lat="47.77556" lon="-3.52969">
        <ele>6.62</ele>
        <time>2020-07-08T12:47:02Z</time>
      </trkpt>
      <trkpt lat="47.7755" lon="-3.52967">
        <ele>6.01</ele>
        <time>2020-07-08T12:47:03Z</time>
      </trkpt>
      <trkpt lat="47.77545" lon="-3.52964">
        <ele>5.49</ele>
        <time>2020-07-08T12:47:04Z</time>
      </trkpt>
      <trkpt lat="47.7754" lon="-3.52962">
        <ele>5.06</ele>
        <time>2020-07-08T12:47:05Z</time>
      </trkpt>
      <trkpt lat="47.77536" lon="-3.5296">
        <ele>4.67</ele>
        <time>2020-07-08T12:47:06Z</time>
      </trkpt>
      <trkpt lat="47.77533" lon="-3.52958">
        <ele>4.42</ele>
        <time>2020-07-08T12:47:07Z</time>
      </trkpt>
      <trkpt lat="47.7753" lon="-3.52955">
        <ele>4.27</ele>
        <time>2020-07-08T12:47:08Z</time>
      </trkpt>
      <trkpt lat="47.77528" lon="-3.52953">
        <ele>4.19</ele>
        <time>2020-07-08T12:47:09Z</time>
      </trkpt>
      <trkpt lat="47.77526" lon="-3.52951">
        <ele>4.22</ele>
        <time>2020-07-08T12:47:10Z</time>
      </trkpt>
      <trkpt lat="47.77525" lon="-3.52948">
        <ele>4.41</ele>
        <time>2020-07-08T12:47:11Z</time>
      </trkpt>
      <trkpt lat="47.77523" lon="-3.52944">
        <ele>4.82</ele>
        <time>2020-07-08T12:47:12Z</time>
      </trkpt>
      <trkpt lat="47.77522" lon="-3.52941">
        <ele>5.42</ele>
        <time>2020-07-08T12:47:13Z</time>
      </trkpt>
      <trkpt lat="47.77521" lon="-3.52938">
        <ele>5.95</ele>
        <time>2020-07-08T12:47:14Z</time>
      </trkpt>
      <trkpt lat="47.7752" lon="-3.52936">
        <ele>6.42</ele>
        <time>2020-07-08T12:47:15Z</time>
      </trkpt>
      <trkpt lat="47.77519" lon="-3.52934">
        <ele>6.89</ele>
        <time>2020-07-08T12:47:16Z</time>
      </trkpt>
      <trkpt lat="47.77518" lon="-3.52932">
        <ele>7.23</ele>
        <time>2020-07-08T12:47:17Z</time>
      </trkpt>
      <trkpt lat="47.77517" lon="-3.52931">
        <ele>7.57</ele>
        <time>2020-07-08T12:47:18Z</time>
      </trkpt>
      <trkpt lat="47.77515" lon="-3.52928">
        <ele>7.9</ele>
        <time>2020-07-08T12:47:19Z</time>
      </trkpt>
      <trkpt lat="47.77513" lon="-3.52927">
        <ele>8.16</ele>
        <time>2020-07-08T12:47:20Z</time>
      </trkpt>
      <trkpt lat="47.7751" lon="-3.52925">
        <ele>8.3</ele>
        <time>2020-07-08T12:47:21Z</time>
      </trkpt>
      <trkpt lat="47.77505" lon="-3.52924">
        <ele>8.27</ele>
        <time>2020-07-08T12:47:22Z</time>
      </trkpt>
      <trkpt lat="47.77501" lon="-3.52923">
        <ele>8.01</ele>
        <time>2020-07-08T12:47:23Z</time>
      </trkpt>
      <trkpt lat="47.77496" lon="-3.52924">
        <ele>7.91</ele>
        <time>2020-07-08T12:47:24Z</time>
      </trkpt>
      <trkpt lat="47.77492" lon="-3.52926">
        <ele>7.86</ele>
        <time>2020-07-08T12:47:25Z</time>
      </trkpt>
      <trkpt lat="47.77489" lon="-3.52928">
        <ele>7.74</ele>
        <time>2020-07-08T12:47:26Z</time>
      </trkpt>
      <trkpt lat="47.77486" lon="-3.52931">
        <ele>7.59</ele>
        <time>2020-07-08T12:47:27Z</time>
      </trkpt>
      <trkpt lat="47.77483" lon="-3.52933">
        <ele>7.42</ele>
        <time>2020-07-08T12:47:28Z</time>
      </trkpt>
      <trkpt lat="47.7748" lon="-3.52935">
        <ele>7.37</ele>
        <time>2020-07-08T12:47:29Z</time>
      </trkpt>
      <trkpt lat="47.77477" lon="-3.52937">
        <ele>7.4</ele>
        <time>2020-07-08T12:47:30Z</time>
      </trkpt>
      <trkpt lat="47.77474" lon="-3.52938">
        <ele>7.48</ele>
        <time>2020-07-08T12:47:31Z</time>
      </trkpt>
      <trkpt lat="47.77471" lon="-3.52939">
        <ele>7.7</ele>
        <time>2020-07-08T12:47:32Z</time>
      </trkpt>
      <trkpt lat="47.77469" lon="-3.5294">
        <ele>8</ele>
        <time>2020-07-08T12:47:33Z</time>
      </trkpt>
      <trkpt lat="47.77467" lon="-3.52941">
        <ele>8.32</ele>
        <time>2020-07-08T12:47:34Z</time>
      </trkpt>
      <trkpt lat="47.77466" lon="-3.52941">
        <ele>8.59</ele>
        <time>2020-07-08T12:47:35Z</time>
      </trkpt>
      <trkpt lat="47.77464" lon="-3.52941">
        <ele>8.9</ele>
        <time>2020-07-08T12:47:36Z</time>
      </trkpt>
      <trkpt lat="47.77463" lon="-3.52942">
        <ele>9.13</ele>
        <time>2020-07-08T12:47:37Z</time>
      </trkpt>
      <trkpt lat="47.77461" lon="-3.52944">
        <ele>9.33</ele>
        <time>2020-07-08T12:47:38Z</time>
      </trkpt>
      <trkpt lat="47.7746" lon="-3.52945">
        <ele>9.52</ele>
        <time>2020-07-08T12:47:39Z</time>
      </trkpt>
      <trkpt lat="47.77457" lon="-3.52946">
        <ele>9.86</ele>
        <time>2020-07-08T12:47:40Z</time>
      </trkpt>
      <trkpt lat="47.77456" lon="-3.52947">
        <ele>10.17</ele>
        <time>2020-07-08T12:47:41Z</time>
      </trkpt>
      <trkpt lat="47.77454" lon="-3.52948">
        <ele>10.45</ele>
        <time>2020-07-08T12:47:42Z</time>
      </trkpt>
      <trkpt lat="47.77453" lon="-3.52948">
        <ele>10.65</ele>
        <time>2020-07-08T12:47:43Z</time>
      </trkpt>
      <trkpt lat="47.77453" lon="-3.52948">
        <ele>10.82</ele>
        <time>2020-07-08T12:47:44Z</time>
      </trkpt>
      <trkpt lat="47.77452" lon="-3.52948">
        <ele>10.96</ele>
        <time>2020-07-08T12:47:45Z</time>
      </trkpt>
      <trkpt lat="47.77452" lon="-3.52948">
        <ele>11</ele>
        <time>2020-07-08T12:47:46Z</time>
      </trkpt>
      <trkpt lat="47.77452" lon="-3.52948">
        <ele>11.01</ele>
        <time>2020-07-08T12:47:47Z</time>
      </trkpt>
      <trkpt lat="47.77452" lon="-3.52948">
        <ele>11.02</ele>
        <time>2020-07-08T12:47:48Z</time>
      </trkpt>
      <trkpt lat="47.77452" lon="-3.52948">
        <ele>11.02</ele>
        <time>2020-07-08T12:47:49Z</time>
      </trkpt>
      <trkpt lat="47.77452" lon="-3.52948">
        <ele>11.02</ele>
        <time>2020-07-08T12:47:50Z</time>
      </trkpt>
      <trkpt lat="47.77452" lon="-3.52948">
        <ele>11.02</ele>
        <time>2020-07-08T12:47:51Z</time>
      </trkpt>
      <trkpt lat="47.77449" lon="-3.52949">
        <ele>11.41</ele>
        <time>2020-07-08T12:47:52Z</time>
      </trkpt>
      <trkpt lat="47.77448" lon="-3.52949">
        <ele>11.67</ele>
        <time>2020-07-08T12:47:53Z</time>
      </trkpt>
      <trkpt lat="47.77447" lon="-3.5295">
        <ele>11.82</ele>
        <time>2020-07-08T12:47:54Z</time>
      </trkpt>
      <trkpt lat="47.77445" lon="-3.5295">
        <ele>12.04</ele>
        <time>2020-07-08T12:47:55Z</time>
      </trkpt>
      <trkpt lat="47.77444" lon="-3.52951">
        <ele>12.21</ele>
        <time>2020-07-08T12:47:56Z</time>
      </trkpt>
      <trkpt lat="47.77442" lon="-3.52952">
        <ele>12.15</ele>
        <time>2020-07-08T12:47:57Z</time>
      </trkpt>
      <trkpt lat="47.7744" lon="-3.52953">
        <ele>12.04</ele>
        <time>2020-07-08T12:47:58Z</time>
      </trkpt>
      <trkpt lat="47.77438" lon="-3.52955">
        <ele>11.86</ele>
        <time>2020-07-08T12:47:59Z</time>
      </trkpt>
      <trkpt lat="47.77437" lon="-3.52957">
        <ele>11.62</ele>
        <time>2020-07-08T12:48:00Z</time>
      </trkpt>
      <trkpt lat="47.77434" lon="-3.52959">
        <ele>11.34</ele>
        <time>2020-07-08T12:48:01Z</time>
      </trkpt>
      <trkpt lat="47.77431" lon="-3.52961">
        <ele>11.01</ele>
        <time>2020-07-08T12:48:02Z</time>
      </trkpt>
      <trkpt lat="47.77428" lon="-3.52963">
        <ele>10.7</ele>
        <time>2020-07-08T12:48:03Z</time>
      </trkpt>
      <trkpt lat="47.77424" lon="-3.52964">
        <ele>10.5</ele>
        <time>2020-07-08T12:48:04Z</time>
      </trkpt>
      <trkpt lat="47.77421" lon="-3.52963">
        <ele>10.43</ele>
        <time>2020-07-08T12:48:05Z</time>
      </trkpt>
      <trkpt lat="47.77418" lon="-3.52961">
        <ele>10.56</ele>
        <time>2020-07-08T12:48:06Z</time>
      </trkpt>
      <trkpt lat="47.77414" lon="-3.52959">
        <ele>10.47</ele>
        <time>2020-07-08T12:48:07Z</time>
      </trkpt>
      <trkpt lat="47.77412" lon="-3.52958">
        <ele>10.17</ele>
        <time>2020-07-08T12:48:08Z</time>
      </trkpt>
      <trkpt lat="47.7741" lon="-3.52956">
        <ele>9.89</ele>
        <time>2020-07-08T12:48:09Z</time>
      </trkpt>
      <trkpt lat="47.77407" lon="-3.52955">
        <ele>9.53</ele>
        <time>2020-07-08T12:48:10Z</time>
      </trkpt>
      <trkpt lat="47.77406" lon="-3.52953">
        <ele>9.45</ele>
        <time>2020-07-08T12:48:11Z</time>
      </trkpt>
      <trkpt lat="47.77404" lon="-3.52951">
        <ele>9.36</ele>
        <time>2020-07-08T12:48:12Z</time>
      </trkpt>
      <trkpt lat="47.77401" lon="-3.52949">
        <ele>9.12</ele>
        <time>2020-07-08T12:48:13Z</time>
      </trkpt>
      <trkpt lat="47.77399" lon="-3.52948">
        <ele>8.89</ele>
        <time>2020-07-08T12:48:14Z</time>
      </trkpt>
      <trkpt lat="47.77396" lon="-3.52946">
        <ele>8.44</ele>
        <time>2020-07-08T12:48:15Z</time>
      </trkpt>
      <trkpt lat="47.77393" lon="-3.52944">
        <ele>8.03</ele>
        <time>2020-07-08T12:48:16Z</time>
      </trkpt>
      <trkpt lat="47.7739" lon="-3.52942">
        <ele>7.71</ele>
        <time>2020-07-08T12:48:17Z</time>
      </trkpt>
      <trkpt lat="47.77388" lon="-3.52939">
        <ele>7.62</ele>
        <time>2020-07-08T12:48:18Z</time>
      </trkpt>
      <trkpt lat="47.77386" lon="-3.52937">
        <ele>7.7</ele>
        <time>2020-07-08T12:48:19Z</time>
      </trkpt>
      <trkpt lat="47.77383" lon="-3.52935">
        <ele>7.61</ele>
        <time>2020-07-08T12:48:20Z</time>
      </trkpt>
      <trkpt lat="47.77381" lon="-3.52933">
        <ele>7.62</ele>
        <time>2020-07-08T12:48:21Z</time>
      </trkpt>
      <trkpt lat="47.77379" lon="-3.5293">
        <ele>7.68</ele>
        <time>2020-07-08T12:48:22Z</time>
      </trkpt>
      <trkpt lat="47.77378" lon="-3.52927">
        <ele>7.86</ele>
        <time>2020-07-08T12:48:23Z</time>
      </trkpt>
      <trkpt lat="47.77376" lon="-3.52924">
        <ele>7.94</ele>
        <time>2020-07-08T12:48:24Z</time>
      </trkpt>
      <trkpt lat="47.77374" lon="-3.5292">
        <ele>7.98</ele>
        <time>2020-07-08T12:48:25Z</time>
      </trkpt>
      <trkpt lat="47.77372" lon="-3.52917">
        <ele>7.88</ele>
        <time>2020-07-08T12:48:26Z</time>
      </trkpt>
      <trkpt lat="47.77369" lon="-3.52914">
        <ele>7.83</ele>
        <time>2020-07-08T12:48:27Z</time>
      </trkpt>
      <trkpt lat="47.77366" lon="-3.52911">
        <ele>7.77</ele>
        <time>2020-07-08T12:48:28Z</time>
      </trkpt>
      <trkpt lat="47.77364" lon="-3.52908">
        <ele>7.77</ele>
        <time>2020-07-08T12:48:29Z</time>
      </trkpt>
      <trkpt lat="47.77362" lon="-3.52904">
        <ele>7.89</ele>
        <time>2020-07-08T12:48:30Z</time>
      </trkpt>
      <trkpt lat="47.7736" lon="-3.52901">
        <ele>8.09</ele>
        <time>2020-07-08T12:48:31Z</time>
      </trkpt>
      <trkpt lat="47.77358" lon="-3.52898">
        <ele>8.24</ele>
        <time>2020-07-08T12:48:32Z</time>
      </trkpt>
      <trkpt lat="47.77355" lon="-3.52896">
        <ele>8.16</ele>
        <time>2020-07-08T12:48:33Z</time>
      </trkpt>
      <trkpt lat="47.77353" lon="-3.52894">
        <ele>8.05</ele>
        <time>2020-07-08T12:48:34Z</time>
      </trkpt>
      <trkpt lat="47.77352" lon="-3.52893">
        <ele>7.89</ele>
        <time>2020-07-08T12:48:35Z</time>
      </trkpt>
      <trkpt lat="47.77349" lon="-3.52893">
        <ele>7.56</ele>
        <time>2020-07-08T12:48:36Z</time>
      </trkpt>
      <trkpt lat="47.77346" lon="-3.52894">
        <ele>7.07</ele>
        <time>2020-07-08T12:48:37Z</time>
      </trkpt>
      <trkpt lat="47.77343" lon="-3.52895">
        <ele>6.56</ele>
        <time>2020-07-08T12:48:38Z</time>
      </trkpt>
      <trkpt lat="47.7734" lon="-3.52896">
        <ele>6.01</ele>
        <time>2020-07-08T12:48:39Z</time>
      </trkpt>
      <trkpt lat="47.77338" lon="-3.52899">
        <ele>5.48</ele>
        <time>2020-07-08T12:48:40Z</time>
      </trkpt>
      <trkpt lat="47.77335" lon="-3.529">
        <ele>5.03</ele>
        <time>2020-07-08T12:48:41Z</time>
      </trkpt>
      <trkpt lat="47.77332" lon="-3.52899">
        <ele>4.68</ele>
        <time>2020-07-08T12:48:42Z</time>
      </trkpt>
      <trkpt lat="47.77328" lon="-3.52898">
        <ele>4.49</ele>
        <time>2020-07-08T12:48:43Z</time>
      </trkpt>
      <trkpt lat="47.77325" lon="-3.52897">
        <ele>4.37</ele>
        <time>2020-07-08T12:48:44Z</time>
      </trkpt>
      <trkpt lat="47.77321" lon="-3.52895">
        <ele>4.29</ele>
        <time>2020-07-08T12:48:45Z</time>
      </trkpt>
      <trkpt lat="47.77318" lon="-3.52892">
        <ele>4.29</ele>
        <time>2020-07-08T12:48:46Z</time>
      </trkpt>
      <trkpt lat="47.77315" lon="-3.52889">
        <ele>4.33</ele>
        <time>2020-07-08T12:48:47Z</time>
      </trkpt>
      <trkpt lat="47.77312" lon="-3.52885">
        <ele>4.33</ele>
        <time>2020-07-08T12:48:48Z</time>
      </trkpt>
      <trkpt lat="47.77309" lon="-3.52882">
        <ele>4.25</ele>
        <time>2020-07-08T12:48:49Z</time>
      </trkpt>
      <trkpt lat="47.77307" lon="-3.52879">
        <ele>4.14</ele>
        <time>2020-07-08T12:48:50Z</time>
      </trkpt>
      <trkpt lat="47.77305" lon="-3.52876">
        <ele>4.03</ele>
        <time>2020-07-08T12:48:51Z</time>
      </trkpt>
      <trkpt lat="47.77302" lon="-3.52873">
        <ele>3.97</ele>
        <time>2020-07-08T12:48:52Z</time>
      </trkpt>
      <trkpt lat="47.77299" lon="-3.52869">
        <ele>3.94</ele>
        <time>2020-07-08T12:48:53Z</time>
      </trkpt>
      <trkpt lat="47.77296" lon="-3.52866">
        <ele>3.94</ele>
        <time>2020-07-08T12:48:54Z</time>
      </trkpt>
      <trkpt lat="47.77293" lon="-3.52863">
        <ele>3.97</ele>
        <time>2020-07-08T12:48:55Z</time>
      </trkpt>
      <trkpt lat="47.77291" lon="-3.52859">
        <ele>4.08</ele>
        <time>2020-07-08T12:48:56Z</time>
      </trkpt>
      <trkpt lat="47.77289" lon="-3.52856">
        <ele>4.27</ele>
        <time>2020-07-08T12:48:57Z</time>
      </trkpt>
      <trkpt lat="47.77287" lon="-3.52852">
        <ele>4.49</ele>
        <time>2020-07-08T12:48:58Z</time>
      </trkpt>
      <trkpt lat="47.77286" lon="-3.52847">
        <ele>4.7</ele>
        <time>2020-07-08T12:48:59Z</time>
      </trkpt>
      <trkpt lat="47.77284" lon="-3.52842">
        <ele>4.92</ele>
        <time>2020-07-08T12:49:00Z</time>
      </trkpt>
      <trkpt lat="47.77283" lon="-3.52837">
        <ele>5.11</ele>
        <time>2020-07-08T12:49:01Z</time>
      </trkpt>
      <trkpt lat="47.77281" lon="-3.52832">
        <ele>5.3</ele>
        <time>2020-07-08T12:49:02Z</time>
      </trkpt>
      <trkpt lat="47.7728" lon="-3.52828">
        <ele>5.72</ele>
        <time>2020-07-08T12:49:03Z</time>
      </trkpt>
      <trkpt lat="47.77278" lon="-3.52824">
        <ele>6.12</ele>
        <time>2020-07-08T12:49:04Z</time>
      </trkpt>
      <trkpt lat="47.77276" lon="-3.52821">
        <ele>6.51</ele>
        <time>2020-07-08T12:49:05Z</time>
      </trkpt>
      <trkpt lat="47.77274" lon="-3.52818">
        <ele>6.87</ele>
        <time>2020-07-08T12:49:06Z</time>
      </trkpt>
      <trkpt lat="47.77272" lon="-3.52816">
        <ele>7.17</ele>
        <time>2020-07-08T12:49:07Z</time>
      </trkpt>
      <trkpt lat="47.77269" lon="-3.52814">
        <ele>7.39</ele>
        <time>2020-07-08T12:49:08Z</time>
      </trkpt>
      <trkpt lat="47.77266" lon="-3.52813">
        <ele>7.52</ele>
        <time>2020-07-08T12:49:09Z</time>
      </trkpt>
      <trkpt lat="47.77264" lon="-3.52812">
        <ele>7.6</ele>
        <time>2020-07-08T12:49:10Z</time>
      </trkpt>
      <trkpt lat="47.77262" lon="-3.52811">
        <ele>7.66</ele>
        <time>2020-07-08T12:49:11Z</time>
      </trkpt>
      <trkpt lat="47.77262" lon="-3.52811">
        <ele>7.66</ele>
        <time>2020-07-08T12:49:12Z</time>
      </trkpt>
      <trkpt lat="47.77262" lon="-3.52811">
        <ele>7.64</ele>
        <time>2020-07-08T12:49:13Z</time>
      </trkpt>
      <trkpt lat="47.77262" lon="-3.52811">
        <ele>7.63</ele>
        <time>2020-07-08T12:49:14Z</time>
      </trkpt>
      <trkpt lat="47.77262" lon="-3.52811">
        <ele>7.63</ele>
        <time>2020-07-08T12:49:15Z</time>
      </trkpt>
      <trkpt lat="47.77262" lon="-3.52811">
        <ele>7.63</ele>
        <time>2020-07-08T12:49:16Z</time>
      </trkpt>
      <trkpt lat="47.77262" lon="-3.52811">
        <ele>7.63</ele>
        <time>2020-07-08T12:49:17Z</time>
      </trkpt>
      <trkpt lat="47.77262" lon="-3.52811">
        <ele>7.63</ele>
        <time>2020-07-08T12:49:18Z</time>
      </trkpt>
      <trkpt lat="47.77262" lon="-3.52811">
        <ele>7.63</ele>
        <time>2020-07-08T12:49:19Z</time>
      </trkpt>
      <trkpt lat="47.77262" lon="-3.52811">
        <ele>7.63</ele>
        <time>2020-07-08T12:49:20Z</time>
      </trkpt>
      <trkpt lat="47.77262" lon="-3.52811">
        <ele>7.63</ele>
        <time>2020-07-08T12:49:21Z</time>
      </trkpt>
      <trkpt lat="47.77262" lon="-3.52811">
        <ele>7.63</ele>
        <time>2020-07-08T12:49:22Z</time>
      </trkpt>
      <trkpt lat="47.77262" lon="-3.52811">
        <ele>7.63</ele>
        <time>2020-07-08T12:49:23Z</time>
      </trkpt>
      <trkpt lat="47.77262" lon="-3.52811">
        <ele>7.63</ele>
        <time>2020-07-08T12:49:24Z</time>
      </trkpt>
      <trkpt lat="47.77262" lon="-3.52811">
        <ele>7.63</ele>
        <time>2020-07-08T12:49:25Z</time>
      </trkpt>
      <trkpt lat="47.77262" lon="-3.52811">
        <ele>7.63</ele>
        <time>2020-07-08T12:49:26Z</time>
      </trkpt>
      <trkpt lat="47.77262" lon="-3.52811">
        <ele>7.63</ele>
        <time>2020-07-08T12:49:27Z</time>
      </trkpt>
      <trkpt lat="47.77262" lon="-3.52811">
        <ele>7.63</ele>
        <time>2020-07-08T12:49:28Z</time>
      </trkpt>
      <trkpt lat="47.77262" lon="-3.52811">
        <ele>7.63</ele>
        <time>2020-07-08T12:49:29Z</time>
      </trkpt>
      <trkpt lat="47.77262" lon="-3.52811">
        <ele>7.63</ele>
        <time>2020-07-08T12:49:30Z</time>
      </trkpt>
      <trkpt lat="47.77262" lon="-3.52811">
        <ele>7.63</ele>
        <time>2020-07-08T12:49:31Z</time>
      </trkpt>
      <trkpt lat="47.77262" lon="-3.52811">
        <ele>7.63</ele>
        <time>2020-07-08T12:49:32Z</time>
      </trkpt>
      <trkpt lat="47.77262" lon="-3.52811">
        <ele>7.63</ele>
        <time>2020-07-08T12:49:33Z</time>
      </trkpt>
      <trkpt lat="47.77262" lon="-3.52811">
        <ele>7.63</ele>
        <time>2020-07-08T12:49:34Z</time>
      </trkpt>
      <trkpt lat="47.77262" lon="-3.52811">
        <ele>7.63</ele>
        <time>2020-07-08T12:49:35Z</time>
      </trkpt>
      <trkpt lat="47.77262" lon="-3.52811">
        <ele>7.63</ele>
        <time>2020-07-08T12:49:36Z</time>
      </trkpt>
      <trkpt lat="47.77262" lon="-3.52811">
        <ele>7.63</ele>
        <time>2020-07-08T12:49:37Z</time>
      </trkpt>
      <trkpt lat="47.77262" lon="-3.52811">
        <ele>7.63</ele>
        <time>2020-07-08T12:49:38Z</time>
      </trkpt>
      <trkpt lat="47.77262" lon="-3.52811">
        <ele>7.63</ele>
        <time>2020-07-08T12:49:39Z</time>
      </trkpt>
      <trkpt lat="47.77262" lon="-3.52811">
        <ele>7.63</ele>
        <time>2020-07-08T12:49:40Z</time>
      </trkpt>
      <trkpt lat="47.77262" lon="-3.52811">
        <ele>7.63</ele>
        <time>2020-07-08T12:49:41Z</time>
      </trkpt>
      <trkpt lat="47.77262" lon="-3.52811">
        <ele>7.63</ele>
        <time>2020-07-08T12:49:42Z</time>
      </trkpt>
      <trkpt lat="47.77262" lon="-3.52811">
        <ele>7.63</ele>
        <time>2020-07-08T12:49:43Z</time>
      </trkpt>
      <trkpt lat="47.77262" lon="-3.52811">
        <ele>7.63</ele>
        <time>2020-07-08T12:49:44Z</time>
      </trkpt>
      <trkpt lat="47.77262" lon="-3.52811">
        <ele>7.63</ele>
        <time>2020-07-08T12:49:45Z</time>
      </trkpt>
      <trkpt lat="47.77262" lon="-3.52811">
        <ele>7.63</ele>
        <time>2020-07-08T12:49:46Z</time>
      </trkpt>
      <trkpt lat="47.77262" lon="-3.52811">
        <ele>7.63</ele>
        <time>2020-07-08T12:49:47Z</time>
      </trkpt>
      <trkpt lat="47.77262" lon="-3.52811">
        <ele>7.63</ele>
        <time>2020-07-08T12:49:48Z</time>
      </trkpt>
      <trkpt lat="47.77262" lon="-3.52811">
        <ele>7.63</ele>
        <time>2020-07-08T12:49:49Z</time>
      </trkpt>
      <trkpt lat="47.77262" lon="-3.52811">
        <ele>7.63</ele>
        <time>2020-07-08T12:49:50Z</time>
      </trkpt>
      <trkpt lat="47.77262" lon="-3.52811">
        <ele>7.63</ele>
        <time>2020-07-08T12:49:51Z</time>
      </trkpt>
      <trkpt lat="47.77262" lon="-3.52811">
        <ele>7.63</ele>
        <time>2020-07-08T12:49:52Z</time>
      </trkpt>
      <trkpt lat="47.77262" lon="-3.52811">
        <ele>7.63</ele>
        <time>2020-07-08T12:49:53Z</time>
      </trkpt>
      <trkpt lat="47.77262" lon="-3.52811">
        <ele>7.63</ele>
        <time>2020-07-08T12:49:54Z</time>
      </trkpt>
      <trkpt lat="47.77262" lon="-3.52811">
        <ele>7.63</ele>
        <time>2020-07-08T12:49:55Z</time>
      </trkpt>
      <trkpt lat="47.77262" lon="-3.52811">
        <ele>7.63</ele>
        <time>2020-07-08T12:49:56Z</time>
      </trkpt>
      <trkpt lat="47.77262" lon="-3.52811">
        <ele>7.63</ele>
        <time>2020-07-08T12:49:57Z</time>
      </trkpt>
      <trkpt lat="47.77262" lon="-3.52811">
        <ele>7.63</ele>
        <time>2020-07-08T12:49:58Z</time>
      </trkpt>
      <trkpt lat="47.77262" lon="-3.52811">
        <ele>7.63</ele>
        <time>2020-07-08T12:49:59Z</time>
      </trkpt>
      <trkpt lat="47.77262" lon="-3.52811">
        <ele>7.63</ele>
        <time>2020-07-08T12:50:00Z</time>
      </trkpt>
      <trkpt lat="47.77262" lon="-3.52811">
        <ele>7.63</ele>
        <time>2020-07-08T12:50:01Z</time>
      </trkpt>
      <trkpt lat="47.77262" lon="-3.52811">
        <ele>7.63</ele>
        <time>2020-07-08T12:50:02Z</time>
      </trkpt>
      <trkpt lat="47.77262" lon="-3.52811">
        <ele>7.63</ele>
        <time>2020-07-08T12:50:03Z</time>
      </trkpt>
      <trkpt lat="47.77262" lon="-3.52811">
        <ele>7.63</ele>
        <time>2020-07-08T12:50:04Z</time>
      </trkpt>
      <trkpt lat="47.77262" lon="-3.52811">
        <ele>7.63</ele>
        <time>2020-07-08T12:50:05Z</time>
      </trkpt>
      <trkpt lat="47.77262" lon="-3.52811">
        <ele>7.63</ele>
        <time>2020-07-08T12:50:06Z</time>
      </trkpt>
      <trkpt lat="47.77262" lon="-3.52811">
        <ele>7.63</ele>
        <time>2020-07-08T12:50:07Z</time>
      </trkpt>
      <trkpt lat="47.77262" lon="-3.52811">
        <ele>7.63</ele>
        <time>2020-07-08T12:50:08Z</time>
      </trkpt>
      <trkpt lat="47.77262" lon="-3.52811">
        <ele>7.63</ele>
        <time>2020-07-08T12:50:09Z</time>
      </trkpt>
      <trkpt lat="47.77262" lon="-3.52811">
        <ele>7.63</ele>
        <time>2020-07-08T12:50:10Z</time>
      </trkpt>
      <trkpt lat="47.77262" lon="-3.52811">
        <ele>7.63</ele>
        <time>2020-07-08T12:50:11Z</time>
      </trkpt>
      <trkpt lat="47.77262" lon="-3.52811">
        <ele>7.63</ele>
        <time>2020-07-08T12:50:12Z</time>
      </trkpt>
      <trkpt lat="47.77262" lon="-3.52811">
        <ele>7.63</ele>
        <time>2020-07-08T12:50:13Z</time>
      </trkpt>
      <trkpt lat="47.77262" lon="-3.52811">
        <ele>7.63</ele>
        <time>2020-07-08T12:50:14Z</time>
      </trkpt>
      <trkpt lat="47.77262" lon="-3.52811">
        <ele>7.63</ele>
        <time>2020-07-08T12:50:15Z</time>
      </trkpt>
      <trkpt lat="47.77262" lon="-3.52811">
        <ele>7.63</ele>
        <time>2020-07-08T12:50:16Z</time>
      </trkpt>
      <trkpt lat="47.77262" lon="-3.52811">
        <ele>7.63</ele>
        <time>2020-07-08T12:50:17Z</time>
      </trkpt>
      <trkpt lat="47.77262" lon="-3.52811">
        <ele>7.63</ele>
        <time>2020-07-08T12:50:18Z</time>
      </trkpt>
      <trkpt lat="47.77262" lon="-3.52811">
        <ele>7.63</ele>
        <time>2020-07-08T12:50:19Z</time>
      </trkpt>
      <trkpt lat="47.77262" lon="-3.52811">
        <ele>7.63</ele>
        <time>2020-07-08T12:50:20Z</time>
      </trkpt>
      <trkpt lat="47.77262" lon="-3.52811">
        <ele>7.63</ele>
        <time>2020-07-08T12:50:21Z</time>
      </trkpt>
      <trkpt lat="47.77262" lon="-3.52811">
        <ele>7.63</ele>
        <time>2020-07-08T12:50:22Z</time>
      </trkpt>
      <trkpt lat="47.77262" lon="-3.52811">
        <ele>7.63</ele>
        <time>2020-07-08T12:50:23Z</time>
      </trkpt>
      <trkpt lat="47.77262" lon="-3.52811">
        <ele>7.63</ele>
        <time>2020-07-08T12:50:24Z</time>
      </trkpt>
      <trkpt lat="47.77262" lon="-3.52811">
        <ele>7.63</ele>
        <time>2020-07-08T12:50:25Z</time>
      </trkpt>
      <trkpt lat="47.77262" lon="-3.52811">
        <ele>7.63</ele>
        <time>2020-07-08T12:50:26Z</time>
      </trkpt>
      <trkpt lat="47.77262" lon="-3.52811">
        <ele>7.63</ele>
        <time>2020-07-08T12:50:27Z</time>
      </trkpt>
      <trkpt lat="47.77262" lon="-3.52811">
        <ele>7.63</ele>
        <time>2020-07-08T12:50:28Z</time>
      </trkpt>
      <trkpt lat="47.77262" lon="-3.52811">
        <ele>7.63</ele>
        <time>2020-07-08T12:50:29Z</time>
      </trkpt>
      <trkpt lat="47.77262" lon="-3.52811">
        <ele>7.63</ele>
        <time>2020-07-08T12:50:30Z</time>
      </trkpt>
      <trkpt lat="47.77262" lon="-3.52811">
        <ele>7.63</ele>
        <time>2020-07-08T12:50:31Z</time>
      </trkpt>
      <trkpt lat="47.77262" lon="-3.52811">
        <ele>7.63</ele>
        <time>2020-07-08T12:50:32Z</time>
      </trkpt>
      <trkpt lat="47.77262" lon="-3.52811">
        <ele>7.63</ele>
        <time>2020-07-08T12:50:33Z</time>
      </trkpt>
      <trkpt lat="47.77262" lon="-3.52811">
        <ele>7.63</ele>
        <time>2020-07-08T12:50:34Z</time>
      </trkpt>
      <trkpt lat="47.77262" lon="-3.52811">
        <ele>7.63</ele>
        <time>2020-07-08T12:50:35Z</time>
      </trkpt>
      <trkpt lat="47.77262" lon="-3.52811">
        <ele>7.63</ele>
        <time>2020-07-08T12:50:36Z</time>
      </trkpt>
      <trkpt lat="47.77262" lon="-3.52811">
        <ele>7.63</ele>
        <time>2020-07-08T12:50:37Z</time>
      </trkpt>
      <trkpt lat="47.77262" lon="-3.52811">
        <ele>7.63</ele>
        <time>2020-07-08T12:50:38Z</time>
      </trkpt>
      <trkpt lat="47.77262" lon="-3.52811">
        <ele>7.63</ele>
        <time>2020-07-08T12:50:39Z</time>
      </trkpt>
      <trkpt lat="47.77262" lon="-3.52811">
        <ele>7.63</ele>
        <time>2020-07-08T12:50:40Z</time>
      </trkpt>
      <trkpt lat="47.77262" lon="-3.52811">
        <ele>7.63</ele>
        <time>2020-07-08T12:50:41Z</time>
      </trkpt>
      <trkpt lat="47.77262" lon="-3.52811">
        <ele>7.63</ele>
        <time>2020-07-08T12:50:42Z</time>
      </trkpt>
      <trkpt lat="47.77262" lon="-3.52811">
        <ele>7.63</ele>
        <time>2020-07-08T12:50:43Z</time>
      </trkpt>
      <trkpt lat="47.77262" lon="-3.52811">
        <ele>7.63</ele>
        <time>2020-07-08T12:50:44Z</time>
      </trkpt>
      <trkpt lat="47.77262" lon="-3.52811">
        <ele>7.63</ele>
        <time>2020-07-08T12:50:45Z</time>
      </trkpt>
      <trkpt lat="47.77262" lon="-3.52811">
        <ele>7.63</ele>
        <time>2020-07-08T12:50:46Z</time>
      </trkpt>
      <trkpt lat="47.77262" lon="-3.52811">
        <ele>7.63</ele>
        <time>2020-07-08T12:50:47Z</time>
      </trkpt>
      <trkpt lat="47.77262" lon="-3.52811">
        <ele>7.63</ele>
        <time>2020-07-08T12:50:48Z</time>
      </trkpt>
      <trkpt lat="47.77262" lon="-3.52811">
        <ele>7.63</ele>
        <time>2020-07-08T12:50:49Z</time>
      </trkpt>
      <trkpt lat="47.77262" lon="-3.52811">
        <ele>7.63</ele>
        <time>2020-07-08T12:50:50Z</time>
      </trkpt>
      <trkpt lat="47.77262" lon="-3.52811">
        <ele>7.63</ele>
        <time>2020-07-08T12:50:51Z</time>
      </trkpt>
      <trkpt lat="47.77262" lon="-3.52811">
        <ele>7.63</ele>
        <time>2020-07-08T12:50:52Z</time>
      </trkpt>
      <trkpt lat="47.77262" lon="-3.52811">
        <ele>7.63</ele>
        <time>2020-07-08T12:50:53Z</time>
      </trkpt>
      <trkpt lat="47.77262" lon="-3.52811">
        <ele>7.63</ele>
        <time>2020-07-08T12:50:54Z</time>
      </trkpt>
      <trkpt lat="47.77262" lon="-3.52811">
        <ele>7.63</ele>
        <time>2020-07-08T12:50:55Z</time>
      </trkpt>
      <trkpt lat="47.77262" lon="-3.52811">
        <ele>7.63</ele>
        <time>2020-07-08T12:50:56Z</time>
      </trkpt>
      <trkpt lat="47.77262" lon="-3.52811">
        <ele>7.63</ele>
        <time>2020-07-08T12:50:57Z</time>
      </trkpt>
      <trkpt lat="47.77262" lon="-3.52811">
        <ele>7.63</ele>
        <time>2020-07-08T12:50:58Z</time>
      </trkpt>
      <trkpt lat="47.77262" lon="-3.52811">
        <ele>7.63</ele>
        <time>2020-07-08T12:50:59Z</time>
      </trkpt>
      <trkpt lat="47.77262" lon="-3.52811">
        <ele>7.63</ele>
        <time>2020-07-08T12:51:00Z</time>
      </trkpt>
      <trkpt lat="47.77262" lon="-3.52811">
        <ele>7.63</ele>
        <time>2020-07-08T12:51:01Z</time>
      </trkpt>
      <trkpt lat="47.77262" lon="-3.52811">
        <ele>7.63</ele>
        <time>2020-07-08T12:51:02Z</time>
      </trkpt>
      <trkpt lat="47.77262" lon="-3.52811">
        <ele>7.63</ele>
        <time>2020-07-08T12:51:03Z</time>
      </trkpt>
      <trkpt lat="47.77262" lon="-3.52811">
        <ele>7.63</ele>
        <time>2020-07-08T12:51:04Z</time>
      </trkpt>
      <trkpt lat="47.77262" lon="-3.52811">
        <ele>7.63</ele>
        <time>2020-07-08T12:51:05Z</time>
      </trkpt>
      <trkpt lat="47.77262" lon="-3.52811">
        <ele>7.63</ele>
        <time>2020-07-08T12:51:06Z</time>
      </trkpt>
      <trkpt lat="47.77262" lon="-3.52811">
        <ele>7.63</ele>
        <time>2020-07-08T12:51:07Z</time>
      </trkpt>
      <trkpt lat="47.77262" lon="-3.52811">
        <ele>7.63</ele>
        <time>2020-07-08T12:51:08Z</time>
      </trkpt>
      <trkpt lat="47.77262" lon="-3.52811">
        <ele>7.63</ele>
        <time>2020-07-08T12:51:09Z</time>
      </trkpt>
      <trkpt lat="47.77262" lon="-3.52811">
        <ele>7.63</ele>
        <time>2020-07-08T12:51:10Z</time>
      </trkpt>
      <trkpt lat="47.77262" lon="-3.52811">
        <ele>7.63</ele>
        <time>2020-07-08T12:51:11Z</time>
      </trkpt>
      <trkpt lat="47.77262" lon="-3.52811">
        <ele>7.63</ele>
        <time>2020-07-08T12:51:12Z</time>
      </trkpt>
      <trkpt lat="47.77262" lon="-3.52811">
        <ele>7.63</ele>
        <time>2020-07-08T12:51:13Z</time>
      </trkpt>
      <trkpt lat="47.77262" lon="-3.52811">
        <ele>7.63</ele>
        <time>2020-07-08T12:51:14Z</time>
      </trkpt>
      <trkpt lat="47.77262" lon="-3.52811">
        <ele>7.63</ele>
        <time>2020-07-08T12:51:15Z</time>
      </trkpt>
      <trkpt lat="47.77262" lon="-3.52811">
        <ele>7.63</ele>
        <time>2020-07-08T12:51:16Z</time>
      </trkpt>
      <trkpt lat="47.77262" lon="-3.52811">
        <ele>7.63</ele>
        <time>2020-07-08T12:51:17Z</time>
      </trkpt>
      <trkpt lat="47.77262" lon="-3.52811">
        <ele>7.63</ele>
        <time>2020-07-08T12:51:18Z</time>
      </trkpt>
      <trkpt lat="47.77262" lon="-3.52811">
        <ele>7.63</ele>
        <time>2020-07-08T12:51:19Z</time>
      </trkpt>
      <trkpt lat="47.77262" lon="-3.52811">
        <ele>7.63</ele>
        <time>2020-07-08T12:51:20Z</time>
      </trkpt>
      <trkpt lat="47.77262" lon="-3.52811">
        <ele>7.63</ele>
        <time>2020-07-08T12:51:21Z</time>
      </trkpt>
      <trkpt lat="47.77262" lon="-3.52811">
        <ele>7.63</ele>
        <time>2020-07-08T12:51:22Z</time>
      </trkpt>
      <trkpt lat="47.77262" lon="-3.52811">
        <ele>7.63</ele>
        <time>2020-07-08T12:51:23Z</time>
      </trkpt>
      <trkpt lat="47.77262" lon="-3.52811">
        <ele>7.63</ele>
        <time>2020-07-08T12:51:24Z</time>
      </trkpt>
      <trkpt lat="47.77262" lon="-3.52811">
        <ele>7.63</ele>
        <time>2020-07-08T12:51:25Z</time>
      </trkpt>
      <trkpt lat="47.77262" lon="-3.52811">
        <ele>7.63</ele>
        <time>2020-07-08T12:51:26Z</time>
      </trkpt>
      <trkpt lat="47.77262" lon="-3.52811">
        <ele>7.63</ele>
        <time>2020-07-08T12:51:27Z</time>
      </trkpt>
      <trkpt lat="47.77262" lon="-3.52811">
        <ele>7.63</ele>
        <time>2020-07-08T12:51:28Z</time>
      </trkpt>
      <trkpt lat="47.77262" lon="-3.52811">
        <ele>7.63</ele>
        <time>2020-07-08T12:51:29Z</time>
      </trkpt>
      <trkpt lat="47.77262" lon="-3.52811">
        <ele>7.63</ele>
        <time>2020-07-08T12:51:30Z</time>
      </trkpt>
      <trkpt lat="47.77262" lon="-3.52811">
        <ele>7.63</ele>
        <time>2020-07-08T12:51:31Z</time>
      </trkpt>
      <trkpt lat="47.77262" lon="-3.52811">
        <ele>7.63</ele>
        <time>2020-07-08T12:51:32Z</time>
      </trkpt>
      <trkpt lat="47.77262" lon="-3.52811">
        <ele>7.63</ele>
        <time>2020-07-08T12:51:33Z</time>
      </trkpt>
      <trkpt lat="47.77262" lon="-3.52811">
        <ele>7.63</ele>
        <time>2020-07-08T12:51:34Z</time>
      </trkpt>
      <trkpt lat="47.77262" lon="-3.52811">
        <ele>7.63</ele>
        <time>2020-07-08T12:51:35Z</time>
      </trkpt>
      <trkpt lat="47.77262" lon="-3.52811">
        <ele>7.63</ele>
        <time>2020-07-08T12:51:36Z</time>
      </trkpt>
      <trkpt lat="47.77262" lon="-3.52811">
        <ele>7.63</ele>
        <time>2020-07-08T12:51:37Z</time>
      </trkpt>
      <trkpt lat="47.77262" lon="-3.52811">
        <ele>7.63</ele>
        <time>2020-07-08T12:51:38Z</time>
      </trkpt>
      <trkpt lat="47.77262" lon="-3.52811">
        <ele>7.63</ele>
        <time>2020-07-08T12:51:39Z</time>
      </trkpt>
      <trkpt lat="47.77262" lon="-3.52811">
        <ele>7.63</ele>
        <time>2020-07-08T12:51:40Z</time>
      </trkpt>
      <trkpt lat="47.77262" lon="-3.52811">
        <ele>7.63</ele>
        <time>2020-07-08T12:51:41Z</time>
      </trkpt>
      <trkpt lat="47.77262" lon="-3.52811">
        <ele>7.63</ele>
        <time>2020-07-08T12:51:42Z</time>
      </trkpt>
      <trkpt lat="47.77262" lon="-3.52811">
        <ele>7.63</ele>
        <time>2020-07-08T12:51:43Z</time>
      </trkpt>
      <trkpt lat="47.77262" lon="-3.52811">
        <ele>7.63</ele>
        <time>2020-07-08T12:51:44Z</time>
      </trkpt>
      <trkpt lat="47.77262" lon="-3.52811">
        <ele>7.63</ele>
        <time>2020-07-08T12:51:45Z</time>
      </trkpt>
      <trkpt lat="47.77262" lon="-3.52811">
        <ele>7.63</ele>
        <time>2020-07-08T12:51:46Z</time>
      </trkpt>
      <trkpt lat="47.77262" lon="-3.52811">
        <ele>7.63</ele>
        <time>2020-07-08T12:51:47Z</time>
      </trkpt>
      <trkpt lat="47.77262" lon="-3.52811">
        <ele>7.63</ele>
        <time>2020-07-08T12:51:48Z</time>
      </trkpt>
      <trkpt lat="47.77262" lon="-3.52811">
        <ele>7.63</ele>
        <time>2020-07-08T12:51:49Z</time>
      </trkpt>
      <trkpt lat="47.77262" lon="-3.52811">
        <ele>7.63</ele>
        <time>2020-07-08T12:51:50Z</time>
      </trkpt>
      <trkpt lat="47.77262" lon="-3.52811">
        <ele>7.63</ele>
        <time>2020-07-08T12:51:51Z</time>
      </trkpt>
      <trkpt lat="47.77262" lon="-3.52811">
        <ele>7.63</ele>
        <time>2020-07-08T12:51:52Z</time>
      </trkpt>
      <trkpt lat="47.77262" lon="-3.52811">
        <ele>7.63</ele>
        <time>2020-07-08T12:51:53Z</time>
      </trkpt>
      <trkpt lat="47.77262" lon="-3.52811">
        <ele>7.63</ele>
        <time>2020-07-08T12:51:54Z</time>
      </trkpt>
      <trkpt lat="47.77262" lon="-3.52811">
        <ele>7.63</ele>
        <time>2020-07-08T12:51:55Z</time>
      </trkpt>
      <trkpt lat="47.77262" lon="-3.52811">
        <ele>7.63</ele>
        <time>2020-07-08T12:51:56Z</time>
      </trkpt>
      <trkpt lat="47.77262" lon="-3.52811">
        <ele>7.63</ele>
        <time>2020-07-08T12:51:57Z</time>
      </trkpt>
      <trkpt lat="47.77262" lon="-3.52811">
        <ele>7.63</ele>
        <time>2020-07-08T12:51:58Z</time>
      </trkpt>
      <trkpt lat="47.77262" lon="-3.52811">
        <ele>7.63</ele>
        <time>2020-07-08T12:51:59Z</time>
      </trkpt>
      <trkpt lat="47.77262" lon="-3.52811">
        <ele>7.63</ele>
        <time>2020-07-08T12:52:00Z</time>
      </trkpt>
      <trkpt lat="47.77262" lon="-3.52811">
        <ele>7.63</ele>
        <time>2020-07-08T12:52:01Z</time>
      </trkpt>
      <trkpt lat="47.77262" lon="-3.5281">
        <ele>7.7</ele>
        <time>2020-07-08T12:52:02Z</time>
      </trkpt>
      <trkpt lat="47.77261" lon="-3.52809">
        <ele>7.85</ele>
        <time>2020-07-08T12:52:03Z</time>
      </trkpt>
      <trkpt lat="47.77259" lon="-3.52807">
        <ele>8.01</ele>
        <time>2020-07-08T12:52:04Z</time>
      </trkpt>
      <trkpt lat="47.77256" lon="-3.52806">
        <ele>8.14</ele>
        <time>2020-07-08T12:52:05Z</time>
      </trkpt>
      <trkpt lat="47.77254" lon="-3.52804">
        <ele>8.2</ele>
        <time>2020-07-08T12:52:06Z</time>
      </trkpt>
      <trkpt lat="47.77251" lon="-3.52802">
        <ele>8.26</ele>
        <time>2020-07-08T12:52:07Z</time>
      </trkpt>
      <trkpt lat="47.77249" lon="-3.528">
        <ele>8.37</ele>
        <time>2020-07-08T12:52:08Z</time>
      </trkpt>
      <trkpt lat="47.77247" lon="-3.52798">
        <ele>8.59</ele>
        <time>2020-07-08T12:52:09Z</time>
      </trkpt>
      <trkpt lat="47.77246" lon="-3.52795">
        <ele>8.86</ele>
        <time>2020-07-08T12:52:10Z</time>
      </trkpt>
      <trkpt lat="47.77244" lon="-3.52792">
        <ele>9.17</ele>
        <time>2020-07-08T12:52:11Z</time>
      </trkpt>
      <trkpt lat="47.77243" lon="-3.52788">
        <ele>9.5</ele>
        <time>2020-07-08T12:52:12Z</time>
      </trkpt>
      <trkpt lat="47.77242" lon="-3.52785">
        <ele>9.84</ele>
        <time>2020-07-08T12:52:13Z</time>
      </trkpt>
      <trkpt lat="47.77242" lon="-3.5278">
        <ele>10.21</ele>
        <time>2020-07-08T12:52:14Z</time>
      </trkpt>
      <trkpt lat="47.77241" lon="-3.52776">
        <ele>10.56</ele>
        <time>2020-07-08T12:52:15Z</time>
      </trkpt>
      <trkpt lat="47.77241" lon="-3.52771">
        <ele>10.76</ele>
        <time>2020-07-08T12:52:16Z</time>
      </trkpt>
      <trkpt lat="47.77241" lon="-3.52767">
        <ele>10.97</ele>
        <time>2020-07-08T12:52:17Z</time>
      </trkpt>
      <trkpt lat="47.7724" lon="-3.52762">
        <ele>11.17</ele>
        <time>2020-07-08T12:52:18Z</time>
      </trkpt>
      <trkpt lat="47.7724" lon="-3.52758">
        <ele>11.34</ele>
        <time>2020-07-08T12:52:19Z</time>
      </trkpt>
      <trkpt lat="47.77241" lon="-3.52753">
        <ele>11.49</ele>
        <time>2020-07-08T12:52:20Z</time>
      </trkpt>
      <trkpt lat="47.77241" lon="-3.52749">
        <ele>11.57</ele>
        <time>2020-07-08T12:52:21Z</time>
      </trkpt>
      <trkpt lat="47.77242" lon="-3.52744">
        <ele>11.52</ele>
        <time>2020-07-08T12:52:22Z</time>
      </trkpt>
      <trkpt lat="47.77243" lon="-3.5274">
        <ele>11.43</ele>
        <time>2020-07-08T12:52:23Z</time>
      </trkpt>
      <trkpt lat="47.77244" lon="-3.52735">
        <ele>11.36</ele>
        <time>2020-07-08T12:52:24Z</time>
      </trkpt>
      <trkpt lat="47.77245" lon="-3.52731">
        <ele>11.27</ele>
        <time>2020-07-08T12:52:25Z</time>
      </trkpt>
      <trkpt lat="47.77246" lon="-3.52727">
        <ele>11.2</ele>
        <time>2020-07-08T12:52:26Z</time>
      </trkpt>
      <trkpt lat="47.77246" lon="-3.52722">
        <ele>11.16</ele>
        <time>2020-07-08T12:52:27Z</time>
      </trkpt>
      <trkpt lat="47.77246" lon="-3.52718">
        <ele>10.89</ele>
        <time>2020-07-08T12:52:28Z</time>
      </trkpt>
      <trkpt lat="47.77247" lon="-3.52715">
        <ele>10.59</ele>
        <time>2020-07-08T12:52:29Z</time>
      </trkpt>
      <trkpt lat="47.77246" lon="-3.52711">
        <ele>10.3</ele>
        <time>2020-07-08T12:52:30Z</time>
      </trkpt>
      <trkpt lat="47.77246" lon="-3.52708">
        <ele>9.99</ele>
        <time>2020-07-08T12:52:31Z</time>
      </trkpt>
      <trkpt lat="47.77246" lon="-3.52704">
        <ele>9.66</ele>
        <time>2020-07-08T12:52:32Z</time>
      </trkpt>
      <trkpt lat="47.77246" lon="-3.52699">
        <ele>9.3</ele>
        <time>2020-07-08T12:52:33Z</time>
      </trkpt>
      <trkpt lat="47.77247" lon="-3.52695">
        <ele>8.93</ele>
        <time>2020-07-08T12:52:34Z</time>
      </trkpt>
      <trkpt lat="47.77247" lon="-3.5269">
        <ele>8.56</ele>
        <time>2020-07-08T12:52:35Z</time>
      </trkpt>
      <trkpt lat="47.77247" lon="-3.52685">
        <ele>8.25</ele>
        <time>2020-07-08T12:52:36Z</time>
      </trkpt>
      <trkpt lat="47.7725" lon="-3.52682">
        <ele>8.13</ele>
        <time>2020-07-08T12:52:37Z</time>
      </trkpt>
      <trkpt lat="47.77252" lon="-3.5268">
        <ele>8.21</ele>
        <time>2020-07-08T12:52:38Z</time>
      </trkpt>
      <trkpt lat="47.77254" lon="-3.52679">
        <ele>8.47</ele>
        <time>2020-07-08T12:52:39Z</time>
      </trkpt>
      <trkpt lat="47.77257" lon="-3.52679">
        <ele>8.82</ele>
        <time>2020-07-08T12:52:40Z</time>
      </trkpt>
      <trkpt lat="47.7726" lon="-3.52679">
        <ele>9.17</ele>
        <time>2020-07-08T12:52:41Z</time>
      </trkpt>
      <trkpt lat="47.77262" lon="-3.52679">
        <ele>9.55</ele>
        <time>2020-07-08T12:52:42Z</time>
      </trkpt>
      <trkpt lat="47.77264" lon="-3.52679">
        <ele>9.9</ele>
        <time>2020-07-08T12:52:43Z</time>
      </trkpt>
      <trkpt lat="47.77267" lon="-3.52679">
        <ele>10.22</ele>
        <time>2020-07-08T12:52:44Z</time>
      </trkpt>
      <trkpt lat="47.77269" lon="-3.52679">
        <ele>10.52</ele>
        <time>2020-07-08T12:52:45Z</time>
      </trkpt>
      <trkpt lat="47.77272" lon="-3.52678">
        <ele>10.91</ele>
        <time>2020-07-08T12:52:46Z</time>
      </trkpt>
      <trkpt lat="47.77274" lon="-3.52679">
        <ele>11.28</ele>
        <time>2020-07-08T12:52:47Z</time>
      </trkpt>
      <trkpt lat="47.77276" lon="-3.52679">
        <ele>11.63</ele>
        <time>2020-07-08T12:52:48Z</time>
      </trkpt>
      <trkpt lat="47.77279" lon="-3.52679">
        <ele>12</ele>
        <time>2020-07-08T12:52:49Z</time>
      </trkpt>
      <trkpt lat="47.77282" lon="-3.52679">
        <ele>12.34</ele>
        <time>2020-07-08T12:52:50Z</time>
      </trkpt>
      <trkpt lat="47.77284" lon="-3.52679">
        <ele>12.63</ele>
        <time>2020-07-08T12:52:51Z</time>
      </trkpt>
      <trkpt lat="47.77286" lon="-3.52679">
        <ele>12.91</ele>
        <time>2020-07-08T12:52:52Z</time>
      </trkpt>
      <trkpt lat="47.77288" lon="-3.5268">
        <ele>13.16</ele>
        <time>2020-07-08T12:52:53Z</time>
      </trkpt>
      <trkpt lat="47.7729" lon="-3.52681">
        <ele>13.41</ele>
        <time>2020-07-08T12:52:54Z</time>
      </trkpt>
      <trkpt lat="47.77292" lon="-3.52682">
        <ele>13.66</ele>
        <time>2020-07-08T12:52:55Z</time>
      </trkpt>
      <trkpt lat="47.77294" lon="-3.52682">
        <ele>13.9</ele>
        <time>2020-07-08T12:52:56Z</time>
      </trkpt>
      <trkpt lat="47.77296" lon="-3.52682">
        <ele>14.11</ele>
        <time>2020-07-08T12:52:57Z</time>
      </trkpt>
      <trkpt lat="47.77298" lon="-3.52681">
        <ele>14.37</ele>
        <time>2020-07-08T12:52:58Z</time>
      </trkpt>
      <trkpt lat="47.773" lon="-3.52681">
        <ele>14.65</ele>
        <time>2020-07-08T12:52:59Z</time>
      </trkpt>
      <trkpt lat="47.77302" lon="-3.5268">
        <ele>14.95</ele>
        <time>2020-07-08T12:53:00Z</time>
      </trkpt>
      <trkpt lat="47.77305" lon="-3.5268">
        <ele>15.25</ele>
        <time>2020-07-08T12:53:01Z</time>
      </trkpt>
      <trkpt lat="47.77307" lon="-3.5268">
        <ele>15.52</ele>
        <time>2020-07-08T12:53:02Z</time>
      </trkpt>
      <trkpt lat="47.77309" lon="-3.5268">
        <ele>15.78</ele>
        <time>2020-07-08T12:53:03Z</time>
      </trkpt>
      <trkpt lat="47.77311" lon="-3.52679">
        <ele>16.04</ele>
        <time>2020-07-08T12:53:04Z</time>
      </trkpt>
      <trkpt lat="47.77313" lon="-3.52679">
        <ele>16.28</ele>
        <time>2020-07-08T12:53:05Z</time>
      </trkpt>
      <trkpt lat="47.77316" lon="-3.52679">
        <ele>16.51</ele>
        <time>2020-07-08T12:53:06Z</time>
      </trkpt>
      <trkpt lat="47.77318" lon="-3.5268">
        <ele>16.76</ele>
        <time>2020-07-08T12:53:07Z</time>
      </trkpt>
      <trkpt lat="47.7732" lon="-3.5268">
        <ele>17.01</ele>
        <time>2020-07-08T12:53:08Z</time>
      </trkpt>
      <trkpt lat="47.77323" lon="-3.52681">
        <ele>17.27</ele>
        <time>2020-07-08T12:53:09Z</time>
      </trkpt>
      <trkpt lat="47.77325" lon="-3.52681">
        <ele>17.51</ele>
        <time>2020-07-08T12:53:10Z</time>
      </trkpt>
      <trkpt lat="47.77327" lon="-3.52682">
        <ele>17.71</ele>
        <time>2020-07-08T12:53:11Z</time>
      </trkpt>
      <trkpt lat="47.77329" lon="-3.52683">
        <ele>17.91</ele>
        <time>2020-07-08T12:53:12Z</time>
      </trkpt>
      <trkpt lat="47.77332" lon="-3.52684">
        <ele>18.11</ele>
        <time>2020-07-08T12:53:13Z</time>
      </trkpt>
      <trkpt lat="47.77333" lon="-3.52684">
        <ele>18.3</ele>
        <time>2020-07-08T12:53:14Z</time>
      </trkpt>
      <trkpt lat="47.77336" lon="-3.52685">
        <ele>18.48</ele>
        <time>2020-07-08T12:53:15Z</time>
      </trkpt>
      <trkpt lat="47.77338" lon="-3.52686">
        <ele>18.64</ele>
        <time>2020-07-08T12:53:16Z</time>
      </trkpt>
      <trkpt lat="47.7734" lon="-3.52687">
        <ele>18.85</ele>
        <time>2020-07-08T12:53:17Z</time>
      </trkpt>
      <trkpt lat="47.77342" lon="-3.52688">
        <ele>19.06</ele>
        <time>2020-07-08T12:53:18Z</time>
      </trkpt>
      <trkpt lat="47.77345" lon="-3.52689">
        <ele>19.27</ele>
        <time>2020-07-08T12:53:19Z</time>
      </trkpt>
      <trkpt lat="47.77347" lon="-3.52689">
        <ele>19.48</ele>
        <time>2020-07-08T12:53:20Z</time>
      </trkpt>
      <trkpt lat="47.77349" lon="-3.52691">
        <ele>19.69</ele>
        <time>2020-07-08T12:53:21Z</time>
      </trkpt>
      <trkpt lat="47.77351" lon="-3.52692">
        <ele>19.89</ele>
        <time>2020-07-08T12:53:22Z</time>
      </trkpt>
      <trkpt lat="47.77353" lon="-3.52694">
        <ele>20.1</ele>
        <time>2020-07-08T12:53:23Z</time>
      </trkpt>
      <trkpt lat="47.77356" lon="-3.52695">
        <ele>20.32</ele>
        <time>2020-07-08T12:53:24Z</time>
      </trkpt>
      <trkpt lat="47.77358" lon="-3.52696">
        <ele>20.56</ele>
        <time>2020-07-08T12:53:25Z</time>
      </trkpt>
      <trkpt lat="47.7736" lon="-3.52697">
        <ele>20.78</ele>
        <time>2020-07-08T12:53:26Z</time>
      </trkpt>
      <trkpt lat="47.77362" lon="-3.52698">
        <ele>21.03</ele>
        <time>2020-07-08T12:53:27Z</time>
      </trkpt>
      <trkpt lat="47.77365" lon="-3.52699">
        <ele>21.28</ele>
        <time>2020-07-08T12:53:28Z</time>
      </trkpt>
      <trkpt lat="47.77367" lon="-3.52699">
        <ele>21.52</ele>
        <time>2020-07-08T12:53:29Z</time>
      </trkpt>
      <trkpt lat="47.77369" lon="-3.527">
        <ele>21.78</ele>
        <time>2020-07-08T12:53:30Z</time>
      </trkpt>
      <trkpt lat="47.77372" lon="-3.527">
        <ele>22.07</ele>
        <time>2020-07-08T12:53:31Z</time>
      </trkpt>
      <trkpt lat="47.77375" lon="-3.52701">
        <ele>22.35</ele>
        <time>2020-07-08T12:53:32Z</time>
      </trkpt>
      <trkpt lat="47.77377" lon="-3.52701">
        <ele>22.6</ele>
        <time>2020-07-08T12:53:33Z</time>
      </trkpt>
      <trkpt lat="47.77379" lon="-3.52701">
        <ele>22.85</ele>
        <time>2020-07-08T12:53:34Z</time>
      </trkpt>
      <trkpt lat="47.77382" lon="-3.52701">
        <ele>23.1</ele>
        <time>2020-07-08T12:53:35Z</time>
      </trkpt>
      <trkpt lat="47.77384" lon="-3.52701">
        <ele>23.33</ele>
        <time>2020-07-08T12:53:36Z</time>
      </trkpt>
      <trkpt lat="47.77386" lon="-3.52702">
        <ele>23.58</ele>
        <time>2020-07-08T12:53:37Z</time>
      </trkpt>
      <trkpt lat="47.77388" lon="-3.52702">
        <ele>23.85</ele>
        <time>2020-07-08T12:53:38Z</time>
      </trkpt>
      <trkpt lat="47.77391" lon="-3.52702">
        <ele>24.02</ele>
        <time>2020-07-08T12:53:39Z</time>
      </trkpt>
      <trkpt lat="47.77393" lon="-3.52702">
        <ele>24.14</ele>
        <time>2020-07-08T12:53:40Z</time>
      </trkpt>
      <trkpt lat="47.77395" lon="-3.52703">
        <ele>24.25</ele>
        <time>2020-07-08T12:53:41Z</time>
      </trkpt>
      <trkpt lat="47.77398" lon="-3.52703">
        <ele>24.37</ele>
        <time>2020-07-08T12:53:42Z</time>
      </trkpt>
      <trkpt lat="47.77401" lon="-3.52703">
        <ele>24.49</ele>
        <time>2020-07-08T12:53:43Z</time>
      </trkpt>
      <trkpt lat="47.77403" lon="-3.52702">
        <ele>24.6</ele>
        <time>2020-07-08T12:53:44Z</time>
      </trkpt>
      <trkpt lat="47.77405" lon="-3.52703">
        <ele>24.72</ele>
        <time>2020-07-08T12:53:45Z</time>
      </trkpt>
      <trkpt lat="47.77408" lon="-3.52704">
        <ele>24.84</ele>
        <time>2020-07-08T12:53:46Z</time>
      </trkpt>
      <trkpt lat="47.7741" lon="-3.52704">
        <ele>24.96</ele>
        <time>2020-07-08T12:53:47Z</time>
      </trkpt>
      <trkpt lat="47.77412" lon="-3.52704">
        <ele>25.09</ele>
        <time>2020-07-08T12:53:48Z</time>
      </trkpt>
      <trkpt lat="47.77415" lon="-3.52705">
        <ele>25.22</ele>
        <time>2020-07-08T12:53:49Z</time>
      </trkpt>
      <trkpt lat="47.77418" lon="-3.52705">
        <ele>25.32</ele>
        <time>2020-07-08T12:53:50Z</time>
      </trkpt>
      <trkpt lat="47.77421" lon="-3.52705">
        <ele>25.33</ele>
        <time>2020-07-08T12:53:51Z</time>
      </trkpt>
      <trkpt lat="47.77425" lon="-3.52706">
        <ele>25.3</ele>
        <time>2020-07-08T12:53:52Z</time>
      </trkpt>
      <trkpt lat="47.7743" lon="-3.52705">
        <ele>25.23</ele>
        <time>2020-07-08T12:53:53Z</time>
      </trkpt>
      <trkpt lat="47.77435" lon="-3.52704">
        <ele>25.15</ele>
        <time>2020-07-08T12:53:54Z</time>
      </trkpt>
      <trkpt lat="47.77441" lon="-3.52704">
        <ele>25.08</ele>
        <time>2020-07-08T12:53:55Z</time>
      </trkpt>
      <trkpt lat="47.77446" lon="-3.52704">
        <ele>24.96</ele>
        <time>2020-07-08T12:53:56Z</time>
      </trkpt>
      <trkpt lat="47.77452" lon="-3.52704">
        <ele>24.73</ele>
        <time>2020-07-08T12:53:57Z</time>
      </trkpt>
      <trkpt lat="47.77458" lon="-3.52705">
        <ele>24.45</ele>
        <time>2020-07-08T12:53:58Z</time>
      </trkpt>
      <trkpt lat="47.77464" lon="-3.52706">
        <ele>24.15</ele>
        <time>2020-07-08T12:53:59Z</time>
      </trkpt>
      <trkpt lat="47.7747" lon="-3.52707">
        <ele>23.84</ele>
        <time>2020-07-08T12:54:00Z</time>
      </trkpt>
      <trkpt lat="47.77475" lon="-3.52708">
        <ele>23.69</ele>
        <time>2020-07-08T12:54:01Z</time>
      </trkpt>
      <trkpt lat="47.7748" lon="-3.52709">
        <ele>23.75</ele>
        <time>2020-07-08T12:54:02Z</time>
      </trkpt>
      <trkpt lat="47.77486" lon="-3.52709">
        <ele>23.89</ele>
        <time>2020-07-08T12:54:03Z</time>
      </trkpt>
      <trkpt lat="47.7749" lon="-3.5271">
        <ele>24.03</ele>
        <time>2020-07-08T12:54:04Z</time>
      </trkpt>
      <trkpt lat="47.77495" lon="-3.52711">
        <ele>24.18</ele>
        <time>2020-07-08T12:54:05Z</time>
      </trkpt>
      <trkpt lat="47.77499" lon="-3.52711">
        <ele>24.33</ele>
        <time>2020-07-08T12:54:06Z</time>
      </trkpt>
      <trkpt lat="47.77503" lon="-3.52711">
        <ele>24.5</ele>
        <time>2020-07-08T12:54:07Z</time>
      </trkpt>
      <trkpt lat="47.77507" lon="-3.52711">
        <ele>24.66</ele>
        <time>2020-07-08T12:54:08Z</time>
      </trkpt>
      <trkpt lat="47.77511" lon="-3.52712">
        <ele>24.84</ele>
        <time>2020-07-08T12:54:09Z</time>
      </trkpt>
      <trkpt lat="47.77514" lon="-3.52712">
        <ele>25.01</ele>
        <time>2020-07-08T12:54:10Z</time>
      </trkpt>
      <trkpt lat="47.77518" lon="-3.52712">
        <ele>25.16</ele>
        <time>2020-07-08T12:54:11Z</time>
      </trkpt>
      <trkpt lat="47.77522" lon="-3.52712">
        <ele>25.32</ele>
        <time>2020-07-08T12:54:12Z</time>
      </trkpt>
      <trkpt lat="47.77525" lon="-3.52713">
        <ele>25.49</ele>
        <time>2020-07-08T12:54:13Z</time>
      </trkpt>
      <trkpt lat="47.77529" lon="-3.52713">
        <ele>25.68</ele>
        <time>2020-07-08T12:54:14Z</time>
      </trkpt>
      <trkpt lat="47.77533" lon="-3.52714">
        <ele>25.96</ele>
        <time>2020-07-08T12:54:15Z</time>
      </trkpt>
      <trkpt lat="47.77536" lon="-3.52714">
        <ele>26.29</ele>
        <time>2020-07-08T12:54:16Z</time>
      </trkpt>
      <trkpt lat="47.7754" lon="-3.52714">
        <ele>26.64</ele>
        <time>2020-07-08T12:54:17Z</time>
      </trkpt>
      <trkpt lat="47.77544" lon="-3.52715">
        <ele>26.98</ele>
        <time>2020-07-08T12:54:18Z</time>
      </trkpt>
      <trkpt lat="47.77547" lon="-3.52715">
        <ele>27.32</ele>
        <time>2020-07-08T12:54:19Z</time>
      </trkpt>
      <trkpt lat="47.77551" lon="-3.52715">
        <ele>27.67</ele>
        <time>2020-07-08T12:54:20Z</time>
      </trkpt>
      <trkpt lat="47.77555" lon="-3.52716">
        <ele>28.02</ele>
        <time>2020-07-08T12:54:21Z</time>
      </trkpt>
      <trkpt lat="47.77559" lon="-3.52717">
        <ele>28.32</ele>
        <time>2020-07-08T12:54:22Z</time>
      </trkpt>
      <trkpt lat="47.77562" lon="-3.52717">
        <ele>28.58</ele>
        <time>2020-07-08T12:54:23Z</time>
      </trkpt>
      <trkpt lat="47.77566" lon="-3.52717">
        <ele>28.83</ele>
        <time>2020-07-08T12:54:24Z</time>
      </trkpt>
      <trkpt lat="47.7757" lon="-3.52718">
        <ele>29.1</ele>
        <time>2020-07-08T12:54:25Z</time>
      </trkpt>
      <trkpt lat="47.77574" lon="-3.52718">
        <ele>29.36</ele>
        <time>2020-07-08T12:54:26Z</time>
      </trkpt>
      <trkpt lat="47.77577" lon="-3.52718">
        <ele>29.61</ele>
        <time>2020-07-08T12:54:27Z</time>
      </trkpt>
      <trkpt lat="47.77581" lon="-3.52718">
        <ele>29.87</ele>
        <time>2020-07-08T12:54:28Z</time>
      </trkpt>
      <trkpt lat="47.77585" lon="-3.52719">
        <ele>30.04</ele>
        <time>2020-07-08T12:54:29Z</time>
      </trkpt>
      <trkpt lat="47.77589" lon="-3.5272">
        <ele>30.08</ele>
        <time>2020-07-08T12:54:30Z</time>
      </trkpt>
      <trkpt lat="47.77593" lon="-3.52721">
        <ele>30.08</ele>
        <time>2020-07-08T12:54:31Z</time>
      </trkpt>
      <trkpt lat="47.77597" lon="-3.52721">
        <ele>30.08</ele>
        <time>2020-07-08T12:54:32Z</time>
      </trkpt>
      <trkpt lat="47.77601" lon="-3.52721">
        <ele>30.07</ele>
        <time>2020-07-08T12:54:33Z</time>
      </trkpt>
      <trkpt lat="47.77604" lon="-3.52721">
        <ele>30.08</ele>
        <time>2020-07-08T12:54:34Z</time>
      </trkpt>
      <trkpt lat="47.77608" lon="-3.52721">
        <ele>30.09</ele>
        <time>2020-07-08T12:54:35Z</time>
      </trkpt>
      <trkpt lat="47.77611" lon="-3.5272">
        <ele>30.15</ele>
        <time>2020-07-08T12:54:36Z</time>
      </trkpt>
      <trkpt lat="47.77613" lon="-3.52717">
        <ele>30.28</ele>
        <time>2020-07-08T12:54:37Z</time>
      </trkpt>
      <trkpt lat="47.77615" lon="-3.52714">
        <ele>30.49</ele>
        <time>2020-07-08T12:54:38Z</time>
      </trkpt>
      <trkpt lat="47.77616" lon="-3.52709">
        <ele>30.77</ele>
        <time>2020-07-08T12:54:39Z</time>
      </trkpt>
      <trkpt lat="47.77617" lon="-3.52704">
        <ele>31.08</ele>
        <time>2020-07-08T12:54:40Z</time>
      </trkpt>
      <trkpt lat="47.77617" lon="-3.52698">
        <ele>31.41</ele>
        <time>2020-07-08T12:54:41Z</time>
      </trkpt>
      <trkpt lat="47.77617" lon="-3.52692">
        <ele>31.69</ele>
        <time>2020-07-08T12:54:42Z</time>
      </trkpt>
      <trkpt lat="47.77617" lon="-3.52686">
        <ele>31.81</ele>
        <time>2020-07-08T12:54:43Z</time>
      </trkpt>
      <trkpt lat="47.77617" lon="-3.5268">
        <ele>31.88</ele>
        <time>2020-07-08T12:54:44Z</time>
      </trkpt>
      <trkpt lat="47.77617" lon="-3.52674">
        <ele>31.93</ele>
        <time>2020-07-08T12:54:45Z</time>
      </trkpt>
      <trkpt lat="47.77616" lon="-3.52669">
        <ele>31.97</ele>
        <time>2020-07-08T12:54:46Z</time>
      </trkpt>
      <trkpt lat="47.77617" lon="-3.52663">
        <ele>32.08</ele>
        <time>2020-07-08T12:54:47Z</time>
      </trkpt>
      <trkpt lat="47.77617" lon="-3.52657">
        <ele>32.26</ele>
        <time>2020-07-08T12:54:48Z</time>
      </trkpt>
      <trkpt lat="47.77617" lon="-3.52652">
        <ele>32.46</ele>
        <time>2020-07-08T12:54:49Z</time>
      </trkpt>
      <trkpt lat="47.77617" lon="-3.52646">
        <ele>32.67</ele>
        <time>2020-07-08T12:54:50Z</time>
      </trkpt>
      <trkpt lat="47.77616" lon="-3.52639">
        <ele>32.89</ele>
        <time>2020-07-08T12:54:51Z</time>
      </trkpt>
      <trkpt lat="47.77616" lon="-3.52633">
        <ele>32.99</ele>
        <time>2020-07-08T12:54:52Z</time>
      </trkpt>
      <trkpt lat="47.77616" lon="-3.52627">
        <ele>33.04</ele>
        <time>2020-07-08T12:54:53Z</time>
      </trkpt>
      <trkpt lat="47.77615" lon="-3.52622">
        <ele>33.08</ele>
        <time>2020-07-08T12:54:54Z</time>
      </trkpt>
      <trkpt lat="47.77615" lon="-3.52616">
        <ele>33.11</ele>
        <time>2020-07-08T12:54:55Z</time>
      </trkpt>
      <trkpt lat="47.77616" lon="-3.52611">
        <ele>33.15</ele>
        <time>2020-07-08T12:54:56Z</time>
      </trkpt>
      <trkpt lat="47.77616" lon="-3.52606">
        <ele>33.18</ele>
        <time>2020-07-08T12:54:57Z</time>
      </trkpt>
      <trkpt lat="47.77618" lon="-3.52601">
        <ele>33.23</ele>
        <time>2020-07-08T12:54:58Z</time>
      </trkpt>
      <trkpt lat="47.77621" lon="-3.52598">
        <ele>33.31</ele>
        <time>2020-07-08T12:54:59Z</time>
      </trkpt>
      <trkpt lat="47.77625" lon="-3.52596">
        <ele>33.44</ele>
        <time>2020-07-08T12:55:00Z</time>
      </trkpt>
      <trkpt lat="47.77628" lon="-3.52596">
        <ele>33.57</ele>
        <time>2020-07-08T12:55:01Z</time>
      </trkpt>
      <trkpt lat="47.77633" lon="-3.52597">
        <ele>33.71</ele>
        <time>2020-07-08T12:55:02Z</time>
      </trkpt>
      <trkpt lat="47.77637" lon="-3.52599">
        <ele>33.86</ele>
        <time>2020-07-08T12:55:03Z</time>
      </trkpt>
      <trkpt lat="47.77641" lon="-3.526">
        <ele>33.98</ele>
        <time>2020-07-08T12:55:04Z</time>
      </trkpt>
      <trkpt lat="47.77645" lon="-3.52602">
        <ele>34.05</ele>
        <time>2020-07-08T12:55:05Z</time>
      </trkpt>
      <trkpt lat="47.77649" lon="-3.52604">
        <ele>34.08</ele>
        <time>2020-07-08T12:55:06Z</time>
      </trkpt>
      <trkpt lat="47.77653" lon="-3.52606">
        <ele>34.09</ele>
        <time>2020-07-08T12:55:07Z</time>
      </trkpt>
      <trkpt lat="47.77657" lon="-3.52607">
        <ele>34.08</ele>
        <time>2020-07-08T12:55:08Z</time>
      </trkpt>
      <trkpt lat="47.77661" lon="-3.52609">
        <ele>34.07</ele>
        <time>2020-07-08T12:55:09Z</time>
      </trkpt>
      <trkpt lat="47.77665" lon="-3.5261">
        <ele>34.06</ele>
        <time>2020-07-08T12:55:10Z</time>
      </trkpt>
      <trkpt lat="47.77669" lon="-3.52612">
        <ele>34.07</ele>
        <time>2020-07-08T12:55:11Z</time>
      </trkpt>
      <trkpt lat="47.77673" lon="-3.52613">
        <ele>34.12</ele>
        <time>2020-07-08T12:55:12Z</time>
      </trkpt>
      <trkpt lat="47.77676" lon="-3.52617">
        <ele>34.13</ele>
        <time>2020-07-08T12:55:13Z</time>
      </trkpt>
      <trkpt lat="47.77681" lon="-3.52617">
        <ele>34.24</ele>
        <time>2020-07-08T12:55:14Z</time>
      </trkpt>
      <trkpt lat="47.77686" lon="-3.52619">
        <ele>34.36</ele>
        <time>2020-07-08T12:55:15Z</time>
      </trkpt>
      <trkpt lat="47.77691" lon="-3.52621">
        <ele>34.47</ele>
        <time>2020-07-08T12:55:16Z</time>
      </trkpt>
      <trkpt lat="47.77695" lon="-3.52623">
        <ele>34.57</ele>
        <time>2020-07-08T12:55:17Z</time>
      </trkpt>
      <trkpt lat="47.777" lon="-3.52624">
        <ele>34.67</ele>
        <time>2020-07-08T12:55:18Z</time>
      </trkpt>
      <trkpt lat="47.77704" lon="-3.52626">
        <ele>34.77</ele>
        <time>2020-07-08T12:55:19Z</time>
      </trkpt>
      <trkpt lat="47.77709" lon="-3.52628">
        <ele>34.86</ele>
        <time>2020-07-08T12:55:20Z</time>
      </trkpt>
      <trkpt lat="47.77713" lon="-3.5263">
        <ele>34.96</ele>
        <time>2020-07-08T12:55:21Z</time>
      </trkpt>
      <trkpt lat="47.77718" lon="-3.52632">
        <ele>35.06</ele>
        <time>2020-07-08T12:55:22Z</time>
      </trkpt>
      <trkpt lat="47.77723" lon="-3.52633">
        <ele>35.18</ele>
        <time>2020-07-08T12:55:23Z</time>
      </trkpt>
      <trkpt lat="47.77728" lon="-3.52635">
        <ele>35.4</ele>
        <time>2020-07-08T12:55:24Z</time>
      </trkpt>
      <trkpt lat="47.77733" lon="-3.52637">
        <ele>35.67</ele>
        <time>2020-07-08T12:55:25Z</time>
      </trkpt>
      <trkpt lat="47.77737" lon="-3.52639">
        <ele>35.97</ele>
        <time>2020-07-08T12:55:26Z</time>
      </trkpt>
      <trkpt lat="47.77742" lon="-3.5264">
        <ele>36.25</ele>
        <time>2020-07-08T12:55:27Z</time>
      </trkpt>
      <trkpt lat="47.77747" lon="-3.52642">
        <ele>36.54</ele>
        <time>2020-07-08T12:55:28Z</time>
      </trkpt>
      <trkpt lat="47.77752" lon="-3.52644">
        <ele>36.78</ele>
        <time>2020-07-08T12:55:29Z</time>
      </trkpt>
      <trkpt lat="47.77757" lon="-3.52646">
        <ele>36.93</ele>
        <time>2020-07-08T12:55:30Z</time>
      </trkpt>
      <trkpt lat="47.77762" lon="-3.52648">
        <ele>37.04</ele>
        <time>2020-07-08T12:55:31Z</time>
      </trkpt>
      <trkpt lat="47.77766" lon="-3.5265">
        <ele>37.13</ele>
        <time>2020-07-08T12:55:32Z</time>
      </trkpt>
      <trkpt lat="47.77771" lon="-3.52652">
        <ele>37.24</ele>
        <time>2020-07-08T12:55:33Z</time>
      </trkpt>
      <trkpt lat="47.77776" lon="-3.52654">
        <ele>37.34</ele>
        <time>2020-07-08T12:55:34Z</time>
      </trkpt>
      <trkpt lat="47.77781" lon="-3.52656">
        <ele>37.45</ele>
        <time>2020-07-08T12:55:35Z</time>
      </trkpt>
      <trkpt lat="47.77786" lon="-3.52658">
        <ele>37.56</ele>
        <time>2020-07-08T12:55:36Z</time>
      </trkpt>
      <trkpt lat="47.77791" lon="-3.5266">
        <ele>37.67</ele>
        <time>2020-07-08T12:55:37Z</time>
      </trkpt>
      <trkpt lat="47.77796" lon="-3.52662">
        <ele>37.78</ele>
        <time>2020-07-08T12:55:38Z</time>
      </trkpt>
      <trkpt lat="47.77801" lon="-3.52664">
        <ele>37.88</ele>
        <time>2020-07-08T12:55:39Z</time>
      </trkpt>
      <trkpt lat="47.77805" lon="-3.52666">
        <ele>37.98</ele>
        <time>2020-07-08T12:55:40Z</time>
      </trkpt>
      <trkpt lat="47.77811" lon="-3.52668">
        <ele>38.1</ele>
        <time>2020-07-08T12:55:41Z</time>
      </trkpt>
      <trkpt lat="47.77815" lon="-3.52669">
        <ele>38.23</ele>
        <time>2020-07-08T12:55:42Z</time>
      </trkpt>
      <trkpt lat="47.7782" lon="-3.52671">
        <ele>38.38</ele>
        <time>2020-07-08T12:55:43Z</time>
      </trkpt>
      <trkpt lat="47.77825" lon="-3.52673">
        <ele>38.56</ele>
        <time>2020-07-08T12:55:44Z</time>
      </trkpt>
      <trkpt lat="47.7783" lon="-3.52675">
        <ele>38.75</ele>
        <time>2020-07-08T12:55:45Z</time>
      </trkpt>
      <trkpt lat="47.77835" lon="-3.52677">
        <ele>38.96</ele>
        <time>2020-07-08T12:55:46Z</time>
      </trkpt>
      <trkpt lat="47.7784" lon="-3.52679">
        <ele>39.15</ele>
        <time>2020-07-08T12:55:47Z</time>
      </trkpt>
      <trkpt lat="47.77845" lon="-3.52682">
        <ele>39.33</ele>
        <time>2020-07-08T12:55:48Z</time>
      </trkpt>
      <trkpt lat="47.7785" lon="-3.52684">
        <ele>39.51</ele>
        <time>2020-07-08T12:55:49Z</time>
      </trkpt>
      <trkpt lat="47.77855" lon="-3.52685">
        <ele>39.7</ele>
        <time>2020-07-08T12:55:50Z</time>
      </trkpt>
      <trkpt lat="47.7786" lon="-3.52687">
        <ele>39.88</ele>
        <time>2020-07-08T12:55:51Z</time>
      </trkpt>
      <trkpt lat="47.77865" lon="-3.52689">
        <ele>40.08</ele>
        <time>2020-07-08T12:55:52Z</time>
      </trkpt>
      <trkpt lat="47.7787" lon="-3.52691">
        <ele>40.27</ele>
        <time>2020-07-08T12:55:53Z</time>
      </trkpt>
      <trkpt lat="47.77874" lon="-3.52693">
        <ele>40.43</ele>
        <time>2020-07-08T12:55:54Z</time>
      </trkpt>
      <trkpt lat="47.77879" lon="-3.52695">
        <ele>40.57</ele>
        <time>2020-07-08T12:55:55Z</time>
      </trkpt>
      <trkpt lat="47.77883" lon="-3.52696">
        <ele>40.72</ele>
        <time>2020-07-08T12:55:56Z</time>
      </trkpt>
      <trkpt lat="47.77887" lon="-3.52698">
        <ele>40.87</ele>
        <time>2020-07-08T12:55:57Z</time>
      </trkpt>
      <trkpt lat="47.77891" lon="-3.527">
        <ele>41.03</ele>
        <time>2020-07-08T12:55:58Z</time>
      </trkpt>
      <trkpt lat="47.77896" lon="-3.52701">
        <ele>41.19</ele>
        <time>2020-07-08T12:55:59Z</time>
      </trkpt>
      <trkpt lat="47.779" lon="-3.52703">
        <ele>41.34</ele>
        <time>2020-07-08T12:56:00Z</time>
      </trkpt>
      <trkpt lat="47.77905" lon="-3.52705">
        <ele>41.5</ele>
        <time>2020-07-08T12:56:01Z</time>
      </trkpt>
      <trkpt lat="47.77909" lon="-3.52706">
        <ele>41.66</ele>
        <time>2020-07-08T12:56:02Z</time>
      </trkpt>
      <trkpt lat="47.77914" lon="-3.52708">
        <ele>41.83</ele>
        <time>2020-07-08T12:56:03Z</time>
      </trkpt>
      <trkpt lat="47.77918" lon="-3.52709">
        <ele>41.97</ele>
        <time>2020-07-08T12:56:04Z</time>
      </trkpt>
      <trkpt lat="47.77923" lon="-3.52711">
        <ele>42.05</ele>
        <time>2020-07-08T12:56:05Z</time>
      </trkpt>
      <trkpt lat="47.77927" lon="-3.52713">
        <ele>42.11</ele>
        <time>2020-07-08T12:56:06Z</time>
      </trkpt>
      <trkpt lat="47.77932" lon="-3.52715">
        <ele>42.14</ele>
        <time>2020-07-08T12:56:07Z</time>
      </trkpt>
      <trkpt lat="47.77936" lon="-3.52717">
        <ele>42.14</ele>
        <time>2020-07-08T12:56:08Z</time>
      </trkpt>
      <trkpt lat="47.7794" lon="-3.52719">
        <ele>42.1</ele>
        <time>2020-07-08T12:56:09Z</time>
      </trkpt>
      <trkpt lat="47.77945" lon="-3.52721">
        <ele>42.06</ele>
        <time>2020-07-08T12:56:10Z</time>
      </trkpt>
      <trkpt lat="47.77949" lon="-3.52723">
        <ele>42.13</ele>
        <time>2020-07-08T12:56:11Z</time>
      </trkpt>
      <trkpt lat="47.77953" lon="-3.52725">
        <ele>42.27</ele>
        <time>2020-07-08T12:56:12Z</time>
      </trkpt>
      <trkpt lat="47.77958" lon="-3.52726">
        <ele>42.42</ele>
        <time>2020-07-08T12:56:13Z</time>
      </trkpt>
      <trkpt lat="47.77963" lon="-3.52727">
        <ele>42.59</ele>
        <time>2020-07-08T12:56:14Z</time>
      </trkpt>
      <trkpt lat="47.77967" lon="-3.52729">
        <ele>42.74</ele>
        <time>2020-07-08T12:56:15Z</time>
      </trkpt>
      <trkpt lat="47.77971" lon="-3.5273">
        <ele>42.9</ele>
        <time>2020-07-08T12:56:16Z</time>
      </trkpt>
      <trkpt lat="47.77976" lon="-3.52732">
        <ele>43.07</ele>
        <time>2020-07-08T12:56:17Z</time>
      </trkpt>
      <trkpt lat="47.77981" lon="-3.52734">
        <ele>43.23</ele>
        <time>2020-07-08T12:56:18Z</time>
      </trkpt>
      <trkpt lat="47.77985" lon="-3.52736">
        <ele>43.39</ele>
        <time>2020-07-08T12:56:19Z</time>
      </trkpt>
      <trkpt lat="47.77989" lon="-3.52738">
        <ele>43.54</ele>
        <time>2020-07-08T12:56:20Z</time>
      </trkpt>
      <trkpt lat="47.77993" lon="-3.52739">
        <ele>43.68</ele>
        <time>2020-07-08T12:56:21Z</time>
      </trkpt>
      <trkpt lat="47.77997" lon="-3.52741">
        <ele>43.82</ele>
        <time>2020-07-08T12:56:22Z</time>
      </trkpt>
      <trkpt lat="47.78001" lon="-3.52742">
        <ele>43.95</ele>
        <time>2020-07-08T12:56:23Z</time>
      </trkpt>
      <trkpt lat="47.78005" lon="-3.52744">
        <ele>44.01</ele>
        <time>2020-07-08T12:56:24Z</time>
      </trkpt>
      <trkpt lat="47.78009" lon="-3.52745">
        <ele>44.04</ele>
        <time>2020-07-08T12:56:25Z</time>
      </trkpt>
      <trkpt lat="47.78014" lon="-3.52747">
        <ele>44.04</ele>
        <time>2020-07-08T12:56:26Z</time>
      </trkpt>
      <trkpt lat="47.78018" lon="-3.5275">
        <ele>44.02</ele>
        <time>2020-07-08T12:56:27Z</time>
      </trkpt>
      <trkpt lat="47.78022" lon="-3.52752">
        <ele>44</ele>
        <time>2020-07-08T12:56:28Z</time>
      </trkpt>
      <trkpt lat="47.78027" lon="-3.52754">
        <ele>44</ele>
        <time>2020-07-08T12:56:29Z</time>
      </trkpt>
      <trkpt lat="47.78032" lon="-3.52756">
        <ele>44.08</ele>
        <time>2020-07-08T12:56:30Z</time>
      </trkpt>
      <trkpt lat="47.78036" lon="-3.52758">
        <ele>44.18</ele>
        <time>2020-07-08T12:56:31Z</time>
      </trkpt>
      <trkpt lat="47.78041" lon="-3.52759">
        <ele>44.27</ele>
        <time>2020-07-08T12:56:32Z</time>
      </trkpt>
      <trkpt lat="47.78045" lon="-3.52761">
        <ele>44.35</ele>
        <time>2020-07-08T12:56:33Z</time>
      </trkpt>
      <trkpt lat="47.78049" lon="-3.52762">
        <ele>44.4</ele>
        <time>2020-07-08T12:56:34Z</time>
      </trkpt>
      <trkpt lat="47.78053" lon="-3.52764">
        <ele>44.45</ele>
        <time>2020-07-08T12:56:35Z</time>
      </trkpt>
      <trkpt lat="47.78057" lon="-3.52765">
        <ele>44.46</ele>
        <time>2020-07-08T12:56:36Z</time>
      </trkpt>
      <trkpt lat="47.78061" lon="-3.52766">
        <ele>44.43</ele>
        <time>2020-07-08T12:56:37Z</time>
      </trkpt>
      <trkpt lat="47.78066" lon="-3.52768">
        <ele>44.38</ele>
        <time>2020-07-08T12:56:38Z</time>
      </trkpt>
      <trkpt lat="47.78071" lon="-3.52768">
        <ele>44.35</ele>
        <time>2020-07-08T12:56:39Z</time>
      </trkpt>
      <trkpt lat="47.78075" lon="-3.52769">
        <ele>44.33</ele>
        <time>2020-07-08T12:56:40Z</time>
      </trkpt>
      <trkpt lat="47.7808" lon="-3.52769">
        <ele>44.33</ele>
        <time>2020-07-08T12:56:41Z</time>
      </trkpt>
      <trkpt lat="47.78085" lon="-3.52769">
        <ele>44.33</ele>
        <time>2020-07-08T12:56:42Z</time>
      </trkpt>
      <trkpt lat="47.7809" lon="-3.52768">
        <ele>44.34</ele>
        <time>2020-07-08T12:56:43Z</time>
      </trkpt>
      <trkpt lat="47.78094" lon="-3.52768">
        <ele>44.35</ele>
        <time>2020-07-08T12:56:44Z</time>
      </trkpt>
      <trkpt lat="47.78099" lon="-3.52768">
        <ele>44.35</ele>
        <time>2020-07-08T12:56:45Z</time>
      </trkpt>
      <trkpt lat="47.78104" lon="-3.52768">
        <ele>44.36</ele>
        <time>2020-07-08T12:56:46Z</time>
      </trkpt>
      <trkpt lat="47.78108" lon="-3.52768">
        <ele>44.36</ele>
        <time>2020-07-08T12:56:47Z</time>
      </trkpt>
      <trkpt lat="47.78114" lon="-3.52767">
        <ele>44.37</ele>
        <time>2020-07-08T12:56:48Z</time>
      </trkpt>
      <trkpt lat="47.78118" lon="-3.52767">
        <ele>44.38</ele>
        <time>2020-07-08T12:56:49Z</time>
      </trkpt>
      <trkpt lat="47.78123" lon="-3.52767">
        <ele>44.38</ele>
        <time>2020-07-08T12:56:50Z</time>
      </trkpt>
      <trkpt lat="47.78128" lon="-3.52767">
        <ele>44.39</ele>
        <time>2020-07-08T12:56:51Z</time>
      </trkpt>
      <trkpt lat="47.78133" lon="-3.52767">
        <ele>44.4</ele>
        <time>2020-07-08T12:56:52Z</time>
      </trkpt>
      <trkpt lat="47.78138" lon="-3.52766">
        <ele>44.41</ele>
        <time>2020-07-08T12:56:53Z</time>
      </trkpt>
      <trkpt lat="47.78143" lon="-3.52766">
        <ele>44.42</ele>
        <time>2020-07-08T12:56:54Z</time>
      </trkpt>
      <trkpt lat="47.78149" lon="-3.52765">
        <ele>44.44</ele>
        <time>2020-07-08T12:56:55Z</time>
      </trkpt>
      <trkpt lat="47.78153" lon="-3.52765">
        <ele>44.46</ele>
        <time>2020-07-08T12:56:56Z</time>
      </trkpt>
      <trkpt lat="47.78158" lon="-3.52765">
        <ele>44.47</ele>
        <time>2020-07-08T12:56:57Z</time>
      </trkpt>
      <trkpt lat="47.78163" lon="-3.52764">
        <ele>44.49</ele>
        <time>2020-07-08T12:56:58Z</time>
      </trkpt>
      <trkpt lat="47.78167" lon="-3.52764">
        <ele>44.47</ele>
        <time>2020-07-08T12:56:59Z</time>
      </trkpt>
      <trkpt lat="47.78172" lon="-3.52764">
        <ele>44.34</ele>
        <time>2020-07-08T12:57:00Z</time>
      </trkpt>
      <trkpt lat="47.78177" lon="-3.52765">
        <ele>44.18</ele>
        <time>2020-07-08T12:57:01Z</time>
      </trkpt>
      <trkpt lat="47.78182" lon="-3.52766">
        <ele>43.97</ele>
        <time>2020-07-08T12:57:02Z</time>
      </trkpt>
      <trkpt lat="47.78188" lon="-3.52766">
        <ele>43.76</ele>
        <time>2020-07-08T12:57:03Z</time>
      </trkpt>
      <trkpt lat="47.78193" lon="-3.52767">
        <ele>43.54</ele>
        <time>2020-07-08T12:57:04Z</time>
      </trkpt>
      <trkpt lat="47.78199" lon="-3.52768">
        <ele>43.3</ele>
        <time>2020-07-08T12:57:05Z</time>
      </trkpt>
      <trkpt lat="47.78205" lon="-3.52768">
        <ele>43.06</ele>
        <time>2020-07-08T12:57:06Z</time>
      </trkpt>
      <trkpt lat="47.7821" lon="-3.52769">
        <ele>42.84</ele>
        <time>2020-07-08T12:57:07Z</time>
      </trkpt>
      <trkpt lat="47.78215" lon="-3.52769">
        <ele>42.64</ele>
        <time>2020-07-08T12:57:08Z</time>
      </trkpt>
      <trkpt lat="47.78221" lon="-3.52769">
        <ele>42.45</ele>
        <time>2020-07-08T12:57:09Z</time>
      </trkpt>
      <trkpt lat="47.78226" lon="-3.52769">
        <ele>42.27</ele>
        <time>2020-07-08T12:57:10Z</time>
      </trkpt>
      <trkpt lat="47.78232" lon="-3.52768">
        <ele>42.09</ele>
        <time>2020-07-08T12:57:11Z</time>
      </trkpt>
      <trkpt lat="47.78237" lon="-3.52766">
        <ele>41.96</ele>
        <time>2020-07-08T12:57:12Z</time>
      </trkpt>
      <trkpt lat="47.78242" lon="-3.52762">
        <ele>41.88</ele>
        <time>2020-07-08T12:57:13Z</time>
      </trkpt>
      <trkpt lat="47.78246" lon="-3.52757">
        <ele>41.87</ele>
        <time>2020-07-08T12:57:14Z</time>
      </trkpt>
      <trkpt lat="47.78249" lon="-3.52751">
        <ele>41.95</ele>
        <time>2020-07-08T12:57:15Z</time>
      </trkpt>
      <trkpt lat="47.78252" lon="-3.52744">
        <ele>41.9</ele>
        <time>2020-07-08T12:57:16Z</time>
      </trkpt>
      <trkpt lat="47.78254" lon="-3.52738">
        <ele>41.76</ele>
        <time>2020-07-08T12:57:17Z</time>
      </trkpt>
      <trkpt lat="47.78257" lon="-3.52731">
        <ele>41.6</ele>
        <time>2020-07-08T12:57:18Z</time>
      </trkpt>
      <trkpt lat="47.78259" lon="-3.52724">
        <ele>41.44</ele>
        <time>2020-07-08T12:57:19Z</time>
      </trkpt>
      <trkpt lat="47.78261" lon="-3.52716">
        <ele>41.35</ele>
        <time>2020-07-08T12:57:20Z</time>
      </trkpt>
      <trkpt lat="47.78263" lon="-3.52709">
        <ele>41.31</ele>
        <time>2020-07-08T12:57:21Z</time>
      </trkpt>
      <trkpt lat="47.78264" lon="-3.52701">
        <ele>41.34</ele>
        <time>2020-07-08T12:57:22Z</time>
      </trkpt>
      <trkpt lat="47.78266" lon="-3.52692">
        <ele>41.43</ele>
        <time>2020-07-08T12:57:23Z</time>
      </trkpt>
      <trkpt lat="47.78267" lon="-3.52683">
        <ele>41.51</ele>
        <time>2020-07-08T12:57:24Z</time>
      </trkpt>
      <trkpt lat="47.78268" lon="-3.52674">
        <ele>41.58</ele>
        <time>2020-07-08T12:57:25Z</time>
      </trkpt>
      <trkpt lat="47.78269" lon="-3.52665">
        <ele>41.62</ele>
        <time>2020-07-08T12:57:26Z</time>
      </trkpt>
      <trkpt lat="47.78269" lon="-3.52656">
        <ele>41.63</ele>
        <time>2020-07-08T12:57:27Z</time>
      </trkpt>
      <trkpt lat="47.78269" lon="-3.52647">
        <ele>41.61</ele>
        <time>2020-07-08T12:57:28Z</time>
      </trkpt>
      <trkpt lat="47.7827" lon="-3.52638">
        <ele>41.56</ele>
        <time>2020-07-08T12:57:29Z</time>
      </trkpt>
      <trkpt lat="47.78271" lon="-3.5263">
        <ele>41.51</ele>
        <time>2020-07-08T12:57:30Z</time>
      </trkpt>
      <trkpt lat="47.78272" lon="-3.52622">
        <ele>41.46</ele>
        <time>2020-07-08T12:57:31Z</time>
      </trkpt>
      <trkpt lat="47.78272" lon="-3.52613">
        <ele>41.41</ele>
        <time>2020-07-08T12:57:32Z</time>
      </trkpt>
      <trkpt lat="47.78273" lon="-3.52604">
        <ele>41.18</ele>
        <time>2020-07-08T12:57:33Z</time>
      </trkpt>
      <trkpt lat="47.78274" lon="-3.52596">
        <ele>40.85</ele>
        <time>2020-07-08T12:57:34Z</time>
      </trkpt>
      <trkpt lat="47.78275" lon="-3.52587">
        <ele>40.47</ele>
        <time>2020-07-08T12:57:35Z</time>
      </trkpt>
      <trkpt lat="47.78277" lon="-3.52579">
        <ele>40.21</ele>
        <time>2020-07-08T12:57:36Z</time>
      </trkpt>
      <trkpt lat="47.78278" lon="-3.5257">
        <ele>40.08</ele>
        <time>2020-07-08T12:57:37Z</time>
      </trkpt>
      <trkpt lat="47.78278" lon="-3.52561">
        <ele>39.99</ele>
        <time>2020-07-08T12:57:38Z</time>
      </trkpt>
      <trkpt lat="47.78279" lon="-3.52552">
        <ele>39.92</ele>
        <time>2020-07-08T12:57:39Z</time>
      </trkpt>
      <trkpt lat="47.7828" lon="-3.52543">
        <ele>39.85</ele>
        <time>2020-07-08T12:57:40Z</time>
      </trkpt>
      <trkpt lat="47.78281" lon="-3.52534">
        <ele>39.8</ele>
        <time>2020-07-08T12:57:41Z</time>
      </trkpt>
      <trkpt lat="47.78282" lon="-3.52524">
        <ele>39.74</ele>
        <time>2020-07-08T12:57:42Z</time>
      </trkpt>
      <trkpt lat="47.78282" lon="-3.52516">
        <ele>39.7</ele>
        <time>2020-07-08T12:57:43Z</time>
      </trkpt>
      <trkpt lat="47.78283" lon="-3.52508">
        <ele>39.64</ele>
        <time>2020-07-08T12:57:44Z</time>
      </trkpt>
      <trkpt lat="47.78284" lon="-3.525">
        <ele>39.59</ele>
        <time>2020-07-08T12:57:45Z</time>
      </trkpt>
      <trkpt lat="47.78284" lon="-3.52492">
        <ele>39.56</ele>
        <time>2020-07-08T12:57:46Z</time>
      </trkpt>
      <trkpt lat="47.78285" lon="-3.52485">
        <ele>39.51</ele>
        <time>2020-07-08T12:57:47Z</time>
      </trkpt>
      <trkpt lat="47.78285" lon="-3.52478">
        <ele>39.47</ele>
        <time>2020-07-08T12:57:48Z</time>
      </trkpt>
      <trkpt lat="47.78286" lon="-3.5247">
        <ele>39.39</ele>
        <time>2020-07-08T12:57:49Z</time>
      </trkpt>
      <trkpt lat="47.78287" lon="-3.52463">
        <ele>39.2</ele>
        <time>2020-07-08T12:57:50Z</time>
      </trkpt>
      <trkpt lat="47.78288" lon="-3.52455">
        <ele>38.98</ele>
        <time>2020-07-08T12:57:51Z</time>
      </trkpt>
      <trkpt lat="47.78289" lon="-3.52448">
        <ele>38.77</ele>
        <time>2020-07-08T12:57:52Z</time>
      </trkpt>
      <trkpt lat="47.7829" lon="-3.52439">
        <ele>38.63</ele>
        <time>2020-07-08T12:57:53Z</time>
      </trkpt>
      <trkpt lat="47.7829" lon="-3.5243">
        <ele>38.58</ele>
        <time>2020-07-08T12:57:54Z</time>
      </trkpt>
      <trkpt lat="47.78291" lon="-3.52422">
        <ele>38.55</ele>
        <time>2020-07-08T12:57:55Z</time>
      </trkpt>
      <trkpt lat="47.78291" lon="-3.52413">
        <ele>38.52</ele>
        <time>2020-07-08T12:57:56Z</time>
      </trkpt>
      <trkpt lat="47.78293" lon="-3.52404">
        <ele>38.48</ele>
        <time>2020-07-08T12:57:57Z</time>
      </trkpt>
      <trkpt lat="47.78294" lon="-3.52396">
        <ele>38.45</ele>
        <time>2020-07-08T12:57:58Z</time>
      </trkpt>
      <trkpt lat="47.78294" lon="-3.52387">
        <ele>38.41</ele>
        <time>2020-07-08T12:57:59Z</time>
      </trkpt>
      <trkpt lat="47.78295" lon="-3.52379">
        <ele>38.38</ele>
        <time>2020-07-08T12:58:00Z</time>
      </trkpt>
      <trkpt lat="47.78297" lon="-3.52371">
        <ele>38.34</ele>
        <time>2020-07-08T12:58:01Z</time>
      </trkpt>
      <trkpt lat="47.78298" lon="-3.52363">
        <ele>38.3</ele>
        <time>2020-07-08T12:58:02Z</time>
      </trkpt>
      <trkpt lat="47.78298" lon="-3.52356">
        <ele>38.27</ele>
        <time>2020-07-08T12:58:03Z</time>
      </trkpt>
      <trkpt lat="47.783" lon="-3.52349">
        <ele>38.23</ele>
        <time>2020-07-08T12:58:04Z</time>
      </trkpt>
      <trkpt lat="47.78301" lon="-3.52342">
        <ele>38.18</ele>
        <time>2020-07-08T12:58:05Z</time>
      </trkpt>
      <trkpt lat="47.78303" lon="-3.52335">
        <ele>38.12</ele>
        <time>2020-07-08T12:58:06Z</time>
      </trkpt>
      <trkpt lat="47.78305" lon="-3.52327">
        <ele>37.89</ele>
        <time>2020-07-08T12:58:07Z</time>
      </trkpt>
      <trkpt lat="47.78307" lon="-3.5232">
        <ele>37.56</ele>
        <time>2020-07-08T12:58:08Z</time>
      </trkpt>
      <trkpt lat="47.78309" lon="-3.52312">
        <ele>37.22</ele>
        <time>2020-07-08T12:58:09Z</time>
      </trkpt>
      <trkpt lat="47.78311" lon="-3.52305">
        <ele>36.91</ele>
        <time>2020-07-08T12:58:10Z</time>
      </trkpt>
      <trkpt lat="47.78313" lon="-3.52297">
        <ele>36.73</ele>
        <time>2020-07-08T12:58:11Z</time>
      </trkpt>
      <trkpt lat="47.78315" lon="-3.52291">
        <ele>36.57</ele>
        <time>2020-07-08T12:58:12Z</time>
      </trkpt>
      <trkpt lat="47.78316" lon="-3.52286">
        <ele>36.41</ele>
        <time>2020-07-08T12:58:13Z</time>
      </trkpt>
      <trkpt lat="47.78319" lon="-3.52282">
        <ele>36.22</ele>
        <time>2020-07-08T12:58:14Z</time>
      </trkpt>
      <trkpt lat="47.78322" lon="-3.52279">
        <ele>35.95</ele>
        <time>2020-07-08T12:58:15Z</time>
      </trkpt>
      <trkpt lat="47.78327" lon="-3.52278">
        <ele>35.63</ele>
        <time>2020-07-08T12:58:16Z</time>
      </trkpt>
      <trkpt lat="47.78331" lon="-3.52276">
        <ele>35.29</ele>
        <time>2020-07-08T12:58:17Z</time>
      </trkpt>
      <trkpt lat="47.78336" lon="-3.52274">
        <ele>35.02</ele>
        <time>2020-07-08T12:58:18Z</time>
      </trkpt>
      <trkpt lat="47.7834" lon="-3.52272">
        <ele>34.84</ele>
        <time>2020-07-08T12:58:19Z</time>
      </trkpt>
      <trkpt lat="47.78344" lon="-3.52271">
        <ele>34.68</ele>
        <time>2020-07-08T12:58:20Z</time>
      </trkpt>
      <trkpt lat="47.78349" lon="-3.52269">
        <ele>34.52</ele>
        <time>2020-07-08T12:58:21Z</time>
      </trkpt>
      <trkpt lat="47.78353" lon="-3.52267">
        <ele>34.35</ele>
        <time>2020-07-08T12:58:22Z</time>
      </trkpt>
      <trkpt lat="47.78358" lon="-3.52265">
        <ele>34.18</ele>
        <time>2020-07-08T12:58:23Z</time>
      </trkpt>
      <trkpt lat="47.78363" lon="-3.52264">
        <ele>34.01</ele>
        <time>2020-07-08T12:58:24Z</time>
      </trkpt>
      <trkpt lat="47.78368" lon="-3.52263">
        <ele>33.83</ele>
        <time>2020-07-08T12:58:25Z</time>
      </trkpt>
      <trkpt lat="47.78373" lon="-3.52262">
        <ele>33.66</ele>
        <time>2020-07-08T12:58:26Z</time>
      </trkpt>
      <trkpt lat="47.78378" lon="-3.5226">
        <ele>33.47</ele>
        <time>2020-07-08T12:58:27Z</time>
      </trkpt>
      <trkpt lat="47.78385" lon="-3.52258">
        <ele>33.25</ele>
        <time>2020-07-08T12:58:28Z</time>
      </trkpt>
      <trkpt lat="47.78392" lon="-3.52256">
        <ele>32.88</ele>
        <time>2020-07-08T12:58:29Z</time>
      </trkpt>
      <trkpt lat="47.78399" lon="-3.52256">
        <ele>32.24</ele>
        <time>2020-07-08T12:58:30Z</time>
      </trkpt>
      <trkpt lat="47.78406" lon="-3.52256">
        <ele>31.48</ele>
        <time>2020-07-08T12:58:31Z</time>
      </trkpt>
      <trkpt lat="47.78414" lon="-3.52256">
        <ele>30.67</ele>
        <time>2020-07-08T12:58:32Z</time>
      </trkpt>
      <trkpt lat="47.78422" lon="-3.52256">
        <ele>29.91</ele>
        <time>2020-07-08T12:58:33Z</time>
      </trkpt>
      <trkpt lat="47.7843" lon="-3.52258">
        <ele>29.2</ele>
        <time>2020-07-08T12:58:34Z</time>
      </trkpt>
      <trkpt lat="47.78439" lon="-3.52259">
        <ele>28.48</ele>
        <time>2020-07-08T12:58:35Z</time>
      </trkpt>
      <trkpt lat="47.78447" lon="-3.52261">
        <ele>27.94</ele>
        <time>2020-07-08T12:58:36Z</time>
      </trkpt>
      <trkpt lat="47.78455" lon="-3.52262">
        <ele>27.93</ele>
        <time>2020-07-08T12:58:37Z</time>
      </trkpt>
      <trkpt lat="47.78462" lon="-3.52263">
        <ele>28.09</ele>
        <time>2020-07-08T12:58:38Z</time>
      </trkpt>
      <trkpt lat="47.78469" lon="-3.52264">
        <ele>28.31</ele>
        <time>2020-07-08T12:58:39Z</time>
      </trkpt>
      <trkpt lat="47.78475" lon="-3.52264">
        <ele>28.62</ele>
        <time>2020-07-08T12:58:40Z</time>
      </trkpt>
      <trkpt lat="47.78481" lon="-3.52266">
        <ele>28.99</ele>
        <time>2020-07-08T12:58:41Z</time>
      </trkpt>
      <trkpt lat="47.78485" lon="-3.52267">
        <ele>29.35</ele>
        <time>2020-07-08T12:58:42Z</time>
      </trkpt>
      <trkpt lat="47.7849" lon="-3.52268">
        <ele>29.7</ele>
        <time>2020-07-08T12:58:43Z</time>
      </trkpt>
      <trkpt lat="47.78494" lon="-3.52269">
        <ele>30.03</ele>
        <time>2020-07-08T12:58:44Z</time>
      </trkpt>
      <trkpt lat="47.78499" lon="-3.52269">
        <ele>30.36</ele>
        <time>2020-07-08T12:58:45Z</time>
      </trkpt>
      <trkpt lat="47.78503" lon="-3.5227">
        <ele>30.64</ele>
        <time>2020-07-08T12:58:46Z</time>
      </trkpt>
      <trkpt lat="47.78507" lon="-3.52271">
        <ele>30.88</ele>
        <time>2020-07-08T12:58:47Z</time>
      </trkpt>
      <trkpt lat="47.78511" lon="-3.52271">
        <ele>31.09</ele>
        <time>2020-07-08T12:58:48Z</time>
      </trkpt>
      <trkpt lat="47.78515" lon="-3.52272">
        <ele>31.28</ele>
        <time>2020-07-08T12:58:49Z</time>
      </trkpt>
      <trkpt lat="47.78518" lon="-3.52273">
        <ele>31.47</ele>
        <time>2020-07-08T12:58:50Z</time>
      </trkpt>
      <trkpt lat="47.78522" lon="-3.52273">
        <ele>31.69</ele>
        <time>2020-07-08T12:58:51Z</time>
      </trkpt>
      <trkpt lat="47.78525" lon="-3.52273">
        <ele>31.91</ele>
        <time>2020-07-08T12:58:52Z</time>
      </trkpt>
      <trkpt lat="47.78529" lon="-3.52273">
        <ele>32.11</ele>
        <time>2020-07-08T12:58:53Z</time>
      </trkpt>
      <trkpt lat="47.78531" lon="-3.52273">
        <ele>32.25</ele>
        <time>2020-07-08T12:58:54Z</time>
      </trkpt>
      <trkpt lat="47.78534" lon="-3.52272">
        <ele>32.39</ele>
        <time>2020-07-08T12:58:55Z</time>
      </trkpt>
      <trkpt lat="47.78536" lon="-3.52268">
        <ele>32.57</ele>
        <time>2020-07-08T12:58:56Z</time>
      </trkpt>
      <trkpt lat="47.78537" lon="-3.52263">
        <ele>32.77</ele>
        <time>2020-07-08T12:58:57Z</time>
      </trkpt>
      <trkpt lat="47.78537" lon="-3.52258">
        <ele>32.96</ele>
        <time>2020-07-08T12:58:58Z</time>
      </trkpt>
      <trkpt lat="47.78536" lon="-3.52252">
        <ele>33.16</ele>
        <time>2020-07-08T12:58:59Z</time>
      </trkpt>
      <trkpt lat="47.78536" lon="-3.52246">
        <ele>33.33</ele>
        <time>2020-07-08T12:59:00Z</time>
      </trkpt>
      <trkpt lat="47.78536" lon="-3.5224">
        <ele>33.48</ele>
        <time>2020-07-08T12:59:01Z</time>
      </trkpt>
      <trkpt lat="47.78537" lon="-3.52233">
        <ele>33.66</ele>
        <time>2020-07-08T12:59:02Z</time>
      </trkpt>
      <trkpt lat="47.78537" lon="-3.52226">
        <ele>33.83</ele>
        <time>2020-07-08T12:59:03Z</time>
      </trkpt>
      <trkpt lat="47.78537" lon="-3.5222">
        <ele>33.99</ele>
        <time>2020-07-08T12:59:04Z</time>
      </trkpt>
      <trkpt lat="47.78536" lon="-3.52215">
        <ele>34.18</ele>
        <time>2020-07-08T12:59:05Z</time>
      </trkpt>
      <trkpt lat="47.78536" lon="-3.52209">
        <ele>34.37</ele>
        <time>2020-07-08T12:59:06Z</time>
      </trkpt>
      <trkpt lat="47.78536" lon="-3.52204">
        <ele>34.57</ele>
        <time>2020-07-08T12:59:07Z</time>
      </trkpt>
      <trkpt lat="47.78536" lon="-3.52198">
        <ele>34.78</ele>
        <time>2020-07-08T12:59:08Z</time>
      </trkpt>
      <trkpt lat="47.78535" lon="-3.52192">
        <ele>34.93</ele>
        <time>2020-07-08T12:59:09Z</time>
      </trkpt>
      <trkpt lat="47.78535" lon="-3.52185">
        <ele>34.98</ele>
        <time>2020-07-08T12:59:10Z</time>
      </trkpt>
      <trkpt lat="47.78535" lon="-3.52175">
        <ele>34.99</ele>
        <time>2020-07-08T12:59:11Z</time>
      </trkpt>
      <trkpt lat="47.78534" lon="-3.52167">
        <ele>35</ele>
        <time>2020-07-08T12:59:12Z</time>
      </trkpt>
      <trkpt lat="47.78533" lon="-3.5216">
        <ele>35.03</ele>
        <time>2020-07-08T12:59:13Z</time>
      </trkpt>
      <trkpt lat="47.78533" lon="-3.52153">
        <ele>35.07</ele>
        <time>2020-07-08T12:59:14Z</time>
      </trkpt>
      <trkpt lat="47.78533" lon="-3.52146">
        <ele>35.11</ele>
        <time>2020-07-08T12:59:15Z</time>
      </trkpt>
      <trkpt lat="47.78533" lon="-3.52138">
        <ele>35.16</ele>
        <time>2020-07-08T12:59:16Z</time>
      </trkpt>
      <trkpt lat="47.78533" lon="-3.52131">
        <ele>35.33</ele>
        <time>2020-07-08T12:59:17Z</time>
      </trkpt>
      <trkpt lat="47.78533" lon="-3.52124">
        <ele>35.53</ele>
        <time>2020-07-08T12:59:18Z</time>
      </trkpt>
      <trkpt lat="47.78533" lon="-3.52117">
        <ele>35.73</ele>
        <time>2020-07-08T12:59:19Z</time>
      </trkpt>
      <trkpt lat="47.78533" lon="-3.5211">
        <ele>35.92</ele>
        <time>2020-07-08T12:59:20Z</time>
      </trkpt>
      <trkpt lat="47.78533" lon="-3.52104">
        <ele>35.98</ele>
        <time>2020-07-08T12:59:21Z</time>
      </trkpt>
      <trkpt lat="47.78532" lon="-3.52097">
        <ele>35.99</ele>
        <time>2020-07-08T12:59:22Z</time>
      </trkpt>
      <trkpt lat="47.78532" lon="-3.5209">
        <ele>36</ele>
        <time>2020-07-08T12:59:23Z</time>
      </trkpt>
      <trkpt lat="47.78532" lon="-3.52084">
        <ele>36</ele>
        <time>2020-07-08T12:59:24Z</time>
      </trkpt>
      <trkpt lat="47.78532" lon="-3.52077">
        <ele>36.14</ele>
        <time>2020-07-08T12:59:25Z</time>
      </trkpt>
      <trkpt lat="47.78531" lon="-3.52071">
        <ele>36.32</ele>
        <time>2020-07-08T12:59:26Z</time>
      </trkpt>
      <trkpt lat="47.78531" lon="-3.52065">
        <ele>36.5</ele>
        <time>2020-07-08T12:59:27Z</time>
      </trkpt>
      <trkpt lat="47.78532" lon="-3.52059">
        <ele>36.67</ele>
        <time>2020-07-08T12:59:28Z</time>
      </trkpt>
      <trkpt lat="47.78533" lon="-3.52054">
        <ele>36.78</ele>
        <time>2020-07-08T12:59:29Z</time>
      </trkpt>
      <trkpt lat="47.78534" lon="-3.52049">
        <ele>36.78</ele>
        <time>2020-07-08T12:59:30Z</time>
      </trkpt>
      <trkpt lat="47.78535" lon="-3.52046">
        <ele>36.75</ele>
        <time>2020-07-08T12:59:31Z</time>
      </trkpt>
      <trkpt lat="47.78538" lon="-3.52045">
        <ele>36.67</ele>
        <time>2020-07-08T12:59:32Z</time>
      </trkpt>
      <trkpt lat="47.78541" lon="-3.52044">
        <ele>36.57</ele>
        <time>2020-07-08T12:59:33Z</time>
      </trkpt>
      <trkpt lat="47.78543" lon="-3.52042">
        <ele>36.48</ele>
        <time>2020-07-08T12:59:34Z</time>
      </trkpt>
      <trkpt lat="47.78546" lon="-3.52039">
        <ele>36.39</ele>
        <time>2020-07-08T12:59:35Z</time>
      </trkpt>
      <trkpt lat="47.78547" lon="-3.52034">
        <ele>36.33</ele>
        <time>2020-07-08T12:59:36Z</time>
      </trkpt>
      <trkpt lat="47.78548" lon="-3.52029">
        <ele>36.28</ele>
        <time>2020-07-08T12:59:37Z</time>
      </trkpt>
      <trkpt lat="47.78548" lon="-3.52025">
        <ele>36.27</ele>
        <time>2020-07-08T12:59:38Z</time>
      </trkpt>
      <trkpt lat="47.78548" lon="-3.52021">
        <ele>36.27</ele>
        <time>2020-07-08T12:59:39Z</time>
      </trkpt>
      <trkpt lat="47.78548" lon="-3.52016">
        <ele>36.27</ele>
        <time>2020-07-08T12:59:40Z</time>
      </trkpt>
      <trkpt lat="47.78548" lon="-3.52012">
        <ele>36.26</ele>
        <time>2020-07-08T12:59:41Z</time>
      </trkpt>
      <trkpt lat="47.78548" lon="-3.52006">
        <ele>36.28</ele>
        <time>2020-07-08T12:59:42Z</time>
      </trkpt>
      <trkpt lat="47.78547" lon="-3.52001">
        <ele>36.29</ele>
        <time>2020-07-08T12:59:43Z</time>
      </trkpt>
      <trkpt lat="47.78547" lon="-3.51996">
        <ele>36.32</ele>
        <time>2020-07-08T12:59:44Z</time>
      </trkpt>
      <trkpt lat="47.78546" lon="-3.51991">
        <ele>36.33</ele>
        <time>2020-07-08T12:59:45Z</time>
      </trkpt>
      <trkpt lat="47.78547" lon="-3.51986">
        <ele>36.32</ele>
        <time>2020-07-08T12:59:46Z</time>
      </trkpt>
      <trkpt lat="47.78547" lon="-3.51981">
        <ele>36.32</ele>
        <time>2020-07-08T12:59:47Z</time>
      </trkpt>
      <trkpt lat="47.78546" lon="-3.51976">
        <ele>36.34</ele>
        <time>2020-07-08T12:59:48Z</time>
      </trkpt>
      <trkpt lat="47.78546" lon="-3.51971">
        <ele>36.34</ele>
        <time>2020-07-08T12:59:49Z</time>
      </trkpt>
      <trkpt lat="47.78546" lon="-3.51965">
        <ele>36.33</ele>
        <time>2020-07-08T12:59:50Z</time>
      </trkpt>
      <trkpt lat="47.78545" lon="-3.51957">
        <ele>36.36</ele>
        <time>2020-07-08T12:59:51Z</time>
      </trkpt>
      <trkpt lat="47.78545" lon="-3.5195">
        <ele>36.37</ele>
        <time>2020-07-08T12:59:52Z</time>
      </trkpt>
      <trkpt lat="47.78546" lon="-3.51943">
        <ele>36.35</ele>
        <time>2020-07-08T12:59:53Z</time>
      </trkpt>
      <trkpt lat="47.78547" lon="-3.5194">
        <ele>36.33</ele>
        <time>2020-07-08T12:59:54Z</time>
      </trkpt>
      <trkpt lat="47.78547" lon="-3.51937">
        <ele>36.31</ele>
        <time>2020-07-08T12:59:55Z</time>
      </trkpt>
      <trkpt lat="47.78548" lon="-3.51933">
        <ele>36.28</ele>
        <time>2020-07-08T12:59:56Z</time>
      </trkpt>
      <trkpt lat="47.78548" lon="-3.51928">
        <ele>36.28</ele>
        <time>2020-07-08T12:59:57Z</time>
      </trkpt>
      <trkpt lat="47.78547" lon="-3.51924">
        <ele>36.3</ele>
        <time>2020-07-08T12:59:58Z</time>
      </trkpt>
      <trkpt lat="47.78546" lon="-3.5192">
        <ele>36.34</ele>
        <time>2020-07-08T12:59:59Z</time>
      </trkpt>
      <trkpt lat="47.78544" lon="-3.51916">
        <ele>36.38</ele>
        <time>2020-07-08T13:00:00Z</time>
      </trkpt>
      <trkpt lat="47.78542" lon="-3.51912">
        <ele>36.41</ele>
        <time>2020-07-08T13:00:01Z</time>
      </trkpt>
      <trkpt lat="47.7854" lon="-3.51909">
        <ele>36.41</ele>
        <time>2020-07-08T13:00:02Z</time>
      </trkpt>
      <trkpt lat="47.78539" lon="-3.51905">
        <ele>36.36</ele>
        <time>2020-07-08T13:00:03Z</time>
      </trkpt>
      <trkpt lat="47.78541" lon="-3.519">
        <ele>36.26</ele>
        <time>2020-07-08T13:00:04Z</time>
      </trkpt>
      <trkpt lat="47.78541" lon="-3.51894">
        <ele>36.15</ele>
        <time>2020-07-08T13:00:05Z</time>
      </trkpt>
      <trkpt lat="47.78541" lon="-3.51888">
        <ele>36.04</ele>
        <time>2020-07-08T13:00:06Z</time>
      </trkpt>
      <trkpt lat="47.7854" lon="-3.51881">
        <ele>35.93</ele>
        <time>2020-07-08T13:00:07Z</time>
      </trkpt>
      <trkpt lat="47.7854" lon="-3.51874">
        <ele>35.81</ele>
        <time>2020-07-08T13:00:08Z</time>
      </trkpt>
      <trkpt lat="47.7854" lon="-3.51868">
        <ele>35.71</ele>
        <time>2020-07-08T13:00:09Z</time>
      </trkpt>
      <trkpt lat="47.78538" lon="-3.51861">
        <ele>35.65</ele>
        <time>2020-07-08T13:00:10Z</time>
      </trkpt>
      <trkpt lat="47.78536" lon="-3.51856">
        <ele>35.59</ele>
        <time>2020-07-08T13:00:11Z</time>
      </trkpt>
      <trkpt lat="47.78534" lon="-3.51849">
        <ele>35.47</ele>
        <time>2020-07-08T13:00:12Z</time>
      </trkpt>
      <trkpt lat="47.78534" lon="-3.51842">
        <ele>35.32</ele>
        <time>2020-07-08T13:00:13Z</time>
      </trkpt>
      <trkpt lat="47.78534" lon="-3.51836">
        <ele>35.14</ele>
        <time>2020-07-08T13:00:14Z</time>
      </trkpt>
      <trkpt lat="47.78535" lon="-3.5183">
        <ele>35.04</ele>
        <time>2020-07-08T13:00:15Z</time>
      </trkpt>
      <trkpt lat="47.78535" lon="-3.51825">
        <ele>35.01</ele>
        <time>2020-07-08T13:00:16Z</time>
      </trkpt>
      <trkpt lat="47.78534" lon="-3.51819">
        <ele>35</ele>
        <time>2020-07-08T13:00:17Z</time>
      </trkpt>
      <trkpt lat="47.78534" lon="-3.51814">
        <ele>35</ele>
        <time>2020-07-08T13:00:18Z</time>
      </trkpt>
      <trkpt lat="47.78535" lon="-3.51809">
        <ele>35</ele>
        <time>2020-07-08T13:00:19Z</time>
      </trkpt>
      <trkpt lat="47.78536" lon="-3.51805">
        <ele>34.97</ele>
        <time>2020-07-08T13:00:20Z</time>
      </trkpt>
      <trkpt lat="47.78536" lon="-3.51799">
        <ele>34.69</ele>
        <time>2020-07-08T13:00:21Z</time>
      </trkpt>
      <trkpt lat="47.78535" lon="-3.51794">
        <ele>34.32</ele>
        <time>2020-07-08T13:00:22Z</time>
      </trkpt>
      <trkpt lat="47.78535" lon="-3.51788">
        <ele>33.89</ele>
        <time>2020-07-08T13:00:23Z</time>
      </trkpt>
      <trkpt lat="47.78534" lon="-3.51782">
        <ele>33.47</ele>
        <time>2020-07-08T13:00:24Z</time>
      </trkpt>
      <trkpt lat="47.78534" lon="-3.51775">
        <ele>33.01</ele>
        <time>2020-07-08T13:00:25Z</time>
      </trkpt>
      <trkpt lat="47.78533" lon="-3.51769">
        <ele>32.55</ele>
        <time>2020-07-08T13:00:26Z</time>
      </trkpt>
      <trkpt lat="47.78531" lon="-3.5176">
        <ele>31.99</ele>
        <time>2020-07-08T13:00:27Z</time>
      </trkpt>
      <trkpt lat="47.7853" lon="-3.51753">
        <ele>31.42</ele>
        <time>2020-07-08T13:00:28Z</time>
      </trkpt>
      <trkpt lat="47.7853" lon="-3.51745">
        <ele>30.87</ele>
        <time>2020-07-08T13:00:29Z</time>
      </trkpt>
      <trkpt lat="47.7853" lon="-3.5174">
        <ele>30.46</ele>
        <time>2020-07-08T13:00:30Z</time>
      </trkpt>
      <trkpt lat="47.78531" lon="-3.51736">
        <ele>30.09</ele>
        <time>2020-07-08T13:00:31Z</time>
      </trkpt>
      <trkpt lat="47.78531" lon="-3.51731">
        <ele>29.71</ele>
        <time>2020-07-08T13:00:32Z</time>
      </trkpt>
      <trkpt lat="47.78531" lon="-3.51725">
        <ele>29.27</ele>
        <time>2020-07-08T13:00:33Z</time>
      </trkpt>
      <trkpt lat="47.78531" lon="-3.51719">
        <ele>28.75</ele>
        <time>2020-07-08T13:00:34Z</time>
      </trkpt>
      <trkpt lat="47.7853" lon="-3.51713">
        <ele>28.17</ele>
        <time>2020-07-08T13:00:35Z</time>
      </trkpt>
      <trkpt lat="47.78527" lon="-3.51707">
        <ele>27.61</ele>
        <time>2020-07-08T13:00:36Z</time>
      </trkpt>
      <trkpt lat="47.78525" lon="-3.51702">
        <ele>27.05</ele>
        <time>2020-07-08T13:00:37Z</time>
      </trkpt>
      <trkpt lat="47.78523" lon="-3.51695">
        <ele>26.34</ele>
        <time>2020-07-08T13:00:38Z</time>
      </trkpt>
      <trkpt lat="47.78522" lon="-3.51686">
        <ele>25.68</ele>
        <time>2020-07-08T13:00:39Z</time>
      </trkpt>
      <trkpt lat="47.78521" lon="-3.51676">
        <ele>24.99</ele>
        <time>2020-07-08T13:00:40Z</time>
      </trkpt>
      <trkpt lat="47.78521" lon="-3.51667">
        <ele>24.32</ele>
        <time>2020-07-08T13:00:41Z</time>
      </trkpt>
      <trkpt lat="47.7852" lon="-3.51659">
        <ele>23.64</ele>
        <time>2020-07-08T13:00:42Z</time>
      </trkpt>
      <trkpt lat="47.7852" lon="-3.51652">
        <ele>23.08</ele>
        <time>2020-07-08T13:00:43Z</time>
      </trkpt>
      <trkpt lat="47.78521" lon="-3.51648">
        <ele>22.66</ele>
        <time>2020-07-08T13:00:44Z</time>
      </trkpt>
      <trkpt lat="47.78523" lon="-3.51645">
        <ele>22.38</ele>
        <time>2020-07-08T13:00:45Z</time>
      </trkpt>
      <trkpt lat="47.78524" lon="-3.51642">
        <ele>22.19</ele>
        <time>2020-07-08T13:00:46Z</time>
      </trkpt>
      <trkpt lat="47.78526" lon="-3.5164">
        <ele>22.08</ele>
        <time>2020-07-08T13:00:47Z</time>
      </trkpt>
      <trkpt lat="47.78527" lon="-3.51638">
        <ele>21.97</ele>
        <time>2020-07-08T13:00:48Z</time>
      </trkpt>
      <trkpt lat="47.78529" lon="-3.51637">
        <ele>21.81</ele>
        <time>2020-07-08T13:00:49Z</time>
      </trkpt>
      <trkpt lat="47.7853" lon="-3.51634">
        <ele>21.59</ele>
        <time>2020-07-08T13:00:50Z</time>
      </trkpt>
      <trkpt lat="47.78529" lon="-3.51631">
        <ele>21.29</ele>
        <time>2020-07-08T13:00:51Z</time>
      </trkpt>
      <trkpt lat="47.78527" lon="-3.51628">
        <ele>20.94</ele>
        <time>2020-07-08T13:00:52Z</time>
      </trkpt>
      <trkpt lat="47.78527" lon="-3.51625">
        <ele>20.54</ele>
        <time>2020-07-08T13:00:53Z</time>
      </trkpt>
      <trkpt lat="47.78527" lon="-3.51621">
        <ele>20.17</ele>
        <time>2020-07-08T13:00:54Z</time>
      </trkpt>
      <trkpt lat="47.78526" lon="-3.51618">
        <ele>19.81</ele>
        <time>2020-07-08T13:00:55Z</time>
      </trkpt>
      <trkpt lat="47.78525" lon="-3.51616">
        <ele>19.48</ele>
        <time>2020-07-08T13:00:56Z</time>
      </trkpt>
      <trkpt lat="47.78523" lon="-3.51612">
        <ele>19.02</ele>
        <time>2020-07-08T13:00:57Z</time>
      </trkpt>
      <trkpt lat="47.78521" lon="-3.51609">
        <ele>18.52</ele>
        <time>2020-07-08T13:00:58Z</time>
      </trkpt>
      <trkpt lat="47.78518" lon="-3.51606">
        <ele>18.06</ele>
        <time>2020-07-08T13:00:59Z</time>
      </trkpt>
      <trkpt lat="47.78515" lon="-3.51602">
        <ele>17.53</ele>
        <time>2020-07-08T13:01:00Z</time>
      </trkpt>
      <trkpt lat="47.78512" lon="-3.51599">
        <ele>16.99</ele>
        <time>2020-07-08T13:01:01Z</time>
      </trkpt>
      <trkpt lat="47.7851" lon="-3.51596">
        <ele>16.57</ele>
        <time>2020-07-08T13:01:02Z</time>
      </trkpt>
      <trkpt lat="47.78507" lon="-3.51593">
        <ele>16.24</ele>
        <time>2020-07-08T13:01:03Z</time>
      </trkpt>
      <trkpt lat="47.78506" lon="-3.51592">
        <ele>15.98</ele>
        <time>2020-07-08T13:01:04Z</time>
      </trkpt>
      <trkpt lat="47.78505" lon="-3.5159">
        <ele>15.76</ele>
        <time>2020-07-08T13:01:05Z</time>
      </trkpt>
      <trkpt lat="47.78503" lon="-3.51588">
        <ele>15.54</ele>
        <time>2020-07-08T13:01:06Z</time>
      </trkpt>
      <trkpt lat="47.78502" lon="-3.51585">
        <ele>15.32</ele>
        <time>2020-07-08T13:01:07Z</time>
      </trkpt>
      <trkpt lat="47.78501" lon="-3.51583">
        <ele>15.12</ele>
        <time>2020-07-08T13:01:08Z</time>
      </trkpt>
      <trkpt lat="47.785" lon="-3.51581">
        <ele>15.16</ele>
        <time>2020-07-08T13:01:09Z</time>
      </trkpt>
      <trkpt lat="47.785" lon="-3.51578">
        <ele>15.35</ele>
        <time>2020-07-08T13:01:10Z</time>
      </trkpt>
      <trkpt lat="47.785" lon="-3.51574">
        <ele>15.56</ele>
        <time>2020-07-08T13:01:11Z</time>
      </trkpt>
      <trkpt lat="47.78501" lon="-3.51571">
        <ele>15.79</ele>
        <time>2020-07-08T13:01:12Z</time>
      </trkpt>
      <trkpt lat="47.78502" lon="-3.51568">
        <ele>15.98</ele>
        <time>2020-07-08T13:01:13Z</time>
      </trkpt>
      <trkpt lat="47.78504" lon="-3.51565">
        <ele>16.11</ele>
        <time>2020-07-08T13:01:14Z</time>
      </trkpt>
      <trkpt lat="47.78506" lon="-3.51562">
        <ele>16.2</ele>
        <time>2020-07-08T13:01:15Z</time>
      </trkpt>
      <trkpt lat="47.78508" lon="-3.51561">
        <ele>16.2</ele>
        <time>2020-07-08T13:01:16Z</time>
      </trkpt>
      <trkpt lat="47.78511" lon="-3.51559">
        <ele>16.16</ele>
        <time>2020-07-08T13:01:17Z</time>
      </trkpt>
      <trkpt lat="47.78514" lon="-3.51556">
        <ele>16.04</ele>
        <time>2020-07-08T13:01:18Z</time>
      </trkpt>
      <trkpt lat="47.78517" lon="-3.51553">
        <ele>16.06</ele>
        <time>2020-07-08T13:01:19Z</time>
      </trkpt>
      <trkpt lat="47.78521" lon="-3.51549">
        <ele>16.15</ele>
        <time>2020-07-08T13:01:20Z</time>
      </trkpt>
      <trkpt lat="47.78525" lon="-3.51547">
        <ele>16.13</ele>
        <time>2020-07-08T13:01:21Z</time>
      </trkpt>
      <trkpt lat="47.7853" lon="-3.51544">
        <ele>16.05</ele>
        <time>2020-07-08T13:01:22Z</time>
      </trkpt>
      <trkpt lat="47.78534" lon="-3.51541">
        <ele>15.88</ele>
        <time>2020-07-08T13:01:23Z</time>
      </trkpt>
      <trkpt lat="47.7854" lon="-3.51536">
        <ele>15.75</ele>
        <time>2020-07-08T13:01:24Z</time>
      </trkpt>
      <trkpt lat="47.78545" lon="-3.51531">
        <ele>15.44</ele>
        <time>2020-07-08T13:01:25Z</time>
      </trkpt>
      <trkpt lat="47.78549" lon="-3.51527">
        <ele>15.19</ele>
        <time>2020-07-08T13:01:26Z</time>
      </trkpt>
      <trkpt lat="47.78553" lon="-3.51524">
        <ele>15.01</ele>
        <time>2020-07-08T13:01:27Z</time>
      </trkpt>
      <trkpt lat="47.78557" lon="-3.5152">
        <ele>14.93</ele>
        <time>2020-07-08T13:01:28Z</time>
      </trkpt>
      <trkpt lat="47.7856" lon="-3.51518">
        <ele>14.94</ele>
        <time>2020-07-08T13:01:29Z</time>
      </trkpt>
      <trkpt lat="47.78564" lon="-3.51515">
        <ele>14.88</ele>
        <time>2020-07-08T13:01:30Z</time>
      </trkpt>
      <trkpt lat="47.78568" lon="-3.51513">
        <ele>14.86</ele>
        <time>2020-07-08T13:01:31Z</time>
      </trkpt>
      <trkpt lat="47.78571" lon="-3.5151">
        <ele>14.86</ele>
        <time>2020-07-08T13:01:32Z</time>
      </trkpt>
      <trkpt lat="47.78575" lon="-3.51508">
        <ele>14.77</ele>
        <time>2020-07-08T13:01:33Z</time>
      </trkpt>
      <trkpt lat="47.78579" lon="-3.51506">
        <ele>14.64</ele>
        <time>2020-07-08T13:01:34Z</time>
      </trkpt>
      <trkpt lat="47.78583" lon="-3.51504">
        <ele>14.54</ele>
        <time>2020-07-08T13:01:35Z</time>
      </trkpt>
      <trkpt lat="47.78586" lon="-3.51502">
        <ele>14.42</ele>
        <time>2020-07-08T13:01:36Z</time>
      </trkpt>
      <trkpt lat="47.78591" lon="-3.51501">
        <ele>14.18</ele>
        <time>2020-07-08T13:01:37Z</time>
      </trkpt>
      <trkpt lat="47.78595" lon="-3.51499">
        <ele>13.96</ele>
        <time>2020-07-08T13:01:38Z</time>
      </trkpt>
      <trkpt lat="47.786" lon="-3.51497">
        <ele>13.65</ele>
        <time>2020-07-08T13:01:39Z</time>
      </trkpt>
      <trkpt lat="47.78605" lon="-3.51494">
        <ele>13.3</ele>
        <time>2020-07-08T13:01:40Z</time>
      </trkpt>
      <trkpt lat="47.78612" lon="-3.51489">
        <ele>12.94</ele>
        <time>2020-07-08T13:01:41Z</time>
      </trkpt>
      <trkpt lat="47.78618" lon="-3.51484">
        <ele>12.97</ele>
        <time>2020-07-08T13:01:42Z</time>
      </trkpt>
      <trkpt lat="47.78622" lon="-3.51482">
        <ele>13.03</ele>
        <time>2020-07-08T13:01:43Z</time>
      </trkpt>
      <trkpt lat="47.78626" lon="-3.51478">
        <ele>13.12</ele>
        <time>2020-07-08T13:01:44Z</time>
      </trkpt>
      <trkpt lat="47.7863" lon="-3.51476">
        <ele>13.12</ele>
        <time>2020-07-08T13:01:45Z</time>
      </trkpt>
      <trkpt lat="47.78635" lon="-3.51475">
        <ele>13.07</ele>
        <time>2020-07-08T13:01:46Z</time>
      </trkpt>
      <trkpt lat="47.78639" lon="-3.51474">
        <ele>12.97</ele>
        <time>2020-07-08T13:01:47Z</time>
      </trkpt>
      <trkpt lat="47.78644" lon="-3.51474">
        <ele>12.81</ele>
        <time>2020-07-08T13:01:48Z</time>
      </trkpt>
      <trkpt lat="47.7865" lon="-3.51476">
        <ele>12.54</ele>
        <time>2020-07-08T13:01:49Z</time>
      </trkpt>
      <trkpt lat="47.78657" lon="-3.51477">
        <ele>12.2</ele>
        <time>2020-07-08T13:01:50Z</time>
      </trkpt>
      <trkpt lat="47.78663" lon="-3.5148">
        <ele>11.81</ele>
        <time>2020-07-08T13:01:51Z</time>
      </trkpt>
      <trkpt lat="47.78668" lon="-3.51482">
        <ele>11.36</ele>
        <time>2020-07-08T13:01:52Z</time>
      </trkpt>
      <trkpt lat="47.78675" lon="-3.51486">
        <ele>10.82</ele>
        <time>2020-07-08T13:01:53Z</time>
      </trkpt>
      <trkpt lat="47.78681" lon="-3.5149">
        <ele>10.3</ele>
        <time>2020-07-08T13:01:54Z</time>
      </trkpt>
      <trkpt lat="47.78686" lon="-3.51493">
        <ele>9.83</ele>
        <time>2020-07-08T13:01:55Z</time>
      </trkpt>
      <trkpt lat="47.78691" lon="-3.51496">
        <ele>9.44</ele>
        <time>2020-07-08T13:01:56Z</time>
      </trkpt>
      <trkpt lat="47.78696" lon="-3.51499">
        <ele>9.27</ele>
        <time>2020-07-08T13:01:57Z</time>
      </trkpt>
      <trkpt lat="47.78701" lon="-3.51502">
        <ele>9.35</ele>
        <time>2020-07-08T13:01:58Z</time>
      </trkpt>
      <trkpt lat="47.78705" lon="-3.51504">
        <ele>9.5</ele>
        <time>2020-07-08T13:01:59Z</time>
      </trkpt>
      <trkpt lat="47.7871" lon="-3.51506">
        <ele>9.69</ele>
        <time>2020-07-08T13:02:00Z</time>
      </trkpt>
      <trkpt lat="47.78714" lon="-3.51509">
        <ele>9.8</ele>
        <time>2020-07-08T13:02:01Z</time>
      </trkpt>
      <trkpt lat="47.78718" lon="-3.51512">
        <ele>9.85</ele>
        <time>2020-07-08T13:02:02Z</time>
      </trkpt>
      <trkpt lat="47.78721" lon="-3.51515">
        <ele>9.87</ele>
        <time>2020-07-08T13:02:03Z</time>
      </trkpt>
      <trkpt lat="47.78725" lon="-3.51517">
        <ele>10.12</ele>
        <time>2020-07-08T13:02:04Z</time>
      </trkpt>
      <trkpt lat="47.78729" lon="-3.51519">
        <ele>10.45</ele>
        <time>2020-07-08T13:02:05Z</time>
      </trkpt>
      <trkpt lat="47.78733" lon="-3.5152">
        <ele>10.71</ele>
        <time>2020-07-08T13:02:06Z</time>
      </trkpt>
      <trkpt lat="47.78735" lon="-3.51522">
        <ele>10.92</ele>
        <time>2020-07-08T13:02:07Z</time>
      </trkpt>
      <trkpt lat="47.78738" lon="-3.51523">
        <ele>11.18</ele>
        <time>2020-07-08T13:02:08Z</time>
      </trkpt>
      <trkpt lat="47.78742" lon="-3.51523">
        <ele>11.54</ele>
        <time>2020-07-08T13:02:09Z</time>
      </trkpt>
      <trkpt lat="47.78746" lon="-3.51524">
        <ele>11.94</ele>
        <time>2020-07-08T13:02:10Z</time>
      </trkpt>
      <trkpt lat="47.7875" lon="-3.51524">
        <ele>12.35</ele>
        <time>2020-07-08T13:02:11Z</time>
      </trkpt>
      <trkpt lat="47.78754" lon="-3.51523">
        <ele>12.85</ele>
        <time>2020-07-08T13:02:12Z</time>
      </trkpt>
      <trkpt lat="47.7876" lon="-3.51524">
        <ele>13.38</ele>
        <time>2020-07-08T13:02:13Z</time>
      </trkpt>
      <trkpt lat="47.78764" lon="-3.51524">
        <ele>13.79</ele>
        <time>2020-07-08T13:02:14Z</time>
      </trkpt>
      <trkpt lat="47.78768" lon="-3.51524">
        <ele>14.19</ele>
        <time>2020-07-08T13:02:15Z</time>
      </trkpt>
      <trkpt lat="47.78771" lon="-3.51524">
        <ele>14.54</ele>
        <time>2020-07-08T13:02:16Z</time>
      </trkpt>
      <trkpt lat="47.78774" lon="-3.51524">
        <ele>14.89</ele>
        <time>2020-07-08T13:02:17Z</time>
      </trkpt>
      <trkpt lat="47.78778" lon="-3.51523">
        <ele>15.28</ele>
        <time>2020-07-08T13:02:18Z</time>
      </trkpt>
      <trkpt lat="47.7878" lon="-3.51524">
        <ele>15.38</ele>
        <time>2020-07-08T13:02:19Z</time>
      </trkpt>
      <trkpt lat="47.78783" lon="-3.51525">
        <ele>15.35</ele>
        <time>2020-07-08T13:02:20Z</time>
      </trkpt>
      <trkpt lat="47.78786" lon="-3.51526">
        <ele>15.25</ele>
        <time>2020-07-08T13:02:21Z</time>
      </trkpt>
      <trkpt lat="47.7879" lon="-3.51528">
        <ele>15.09</ele>
        <time>2020-07-08T13:02:22Z</time>
      </trkpt>
      <trkpt lat="47.78793" lon="-3.5153">
        <ele>14.85</ele>
        <time>2020-07-08T13:02:23Z</time>
      </trkpt>
      <trkpt lat="47.78797" lon="-3.51533">
        <ele>14.62</ele>
        <time>2020-07-08T13:02:24Z</time>
      </trkpt>
      <trkpt lat="47.78801" lon="-3.51536">
        <ele>14.42</ele>
        <time>2020-07-08T13:02:25Z</time>
      </trkpt>
      <trkpt lat="47.78804" lon="-3.51538">
        <ele>14.28</ele>
        <time>2020-07-08T13:02:26Z</time>
      </trkpt>
      <trkpt lat="47.78808" lon="-3.5154">
        <ele>14.41</ele>
        <time>2020-07-08T13:02:27Z</time>
      </trkpt>
      <trkpt lat="47.78812" lon="-3.51543">
        <ele>14.72</ele>
        <time>2020-07-08T13:02:28Z</time>
      </trkpt>
      <trkpt lat="47.78816" lon="-3.51545">
        <ele>15.07</ele>
        <time>2020-07-08T13:02:29Z</time>
      </trkpt>
      <trkpt lat="47.7882" lon="-3.51546">
        <ele>15.39</ele>
        <time>2020-07-08T13:02:30Z</time>
      </trkpt>
      <trkpt lat="47.78824" lon="-3.51549">
        <ele>15.66</ele>
        <time>2020-07-08T13:02:31Z</time>
      </trkpt>
      <trkpt lat="47.78828" lon="-3.5155">
        <ele>15.96</ele>
        <time>2020-07-08T13:02:32Z</time>
      </trkpt>
      <trkpt lat="47.78831" lon="-3.51552">
        <ele>16.15</ele>
        <time>2020-07-08T13:02:33Z</time>
      </trkpt>
      <trkpt lat="47.78835" lon="-3.51554">
        <ele>16.39</ele>
        <time>2020-07-08T13:02:34Z</time>
      </trkpt>
      <trkpt lat="47.78839" lon="-3.51556">
        <ele>16.63</ele>
        <time>2020-07-08T13:02:35Z</time>
      </trkpt>
      <trkpt lat="47.78842" lon="-3.51559">
        <ele>16.77</ele>
        <time>2020-07-08T13:02:36Z</time>
      </trkpt>
      <trkpt lat="47.78845" lon="-3.51561">
        <ele>16.98</ele>
        <time>2020-07-08T13:02:37Z</time>
      </trkpt>
      <trkpt lat="47.78849" lon="-3.51563">
        <ele>17.17</ele>
        <time>2020-07-08T13:02:38Z</time>
      </trkpt>
      <trkpt lat="47.78853" lon="-3.51566">
        <ele>17.36</ele>
        <time>2020-07-08T13:02:39Z</time>
      </trkpt>
      <trkpt lat="47.78855" lon="-3.51569">
        <ele>17.34</ele>
        <time>2020-07-08T13:02:40Z</time>
      </trkpt>
      <trkpt lat="47.78858" lon="-3.51571">
        <ele>17.41</ele>
        <time>2020-07-08T13:02:41Z</time>
      </trkpt>
      <trkpt lat="47.78862" lon="-3.51574">
        <ele>17.39</ele>
        <time>2020-07-08T13:02:42Z</time>
      </trkpt>
      <trkpt lat="47.78866" lon="-3.51577">
        <ele>17.31</ele>
        <time>2020-07-08T13:02:43Z</time>
      </trkpt>
      <trkpt lat="47.7887" lon="-3.5158">
        <ele>17.18</ele>
        <time>2020-07-08T13:02:44Z</time>
      </trkpt>
      <trkpt lat="47.78874" lon="-3.51583">
        <ele>17.04</ele>
        <time>2020-07-08T13:02:45Z</time>
      </trkpt>
      <trkpt lat="47.78878" lon="-3.51585">
        <ele>17.03</ele>
        <time>2020-07-08T13:02:46Z</time>
      </trkpt>
      <trkpt lat="47.78882" lon="-3.51587">
        <ele>17.1</ele>
        <time>2020-07-08T13:02:47Z</time>
      </trkpt>
      <trkpt lat="47.78885" lon="-3.51589">
        <ele>17.14</ele>
        <time>2020-07-08T13:02:48Z</time>
      </trkpt>
      <trkpt lat="47.78889" lon="-3.51591">
        <ele>17.24</ele>
        <time>2020-07-08T13:02:49Z</time>
      </trkpt>
      <trkpt lat="47.78894" lon="-3.51592">
        <ele>17.45</ele>
        <time>2020-07-08T13:02:50Z</time>
      </trkpt>
      <trkpt lat="47.78899" lon="-3.51593">
        <ele>17.74</ele>
        <time>2020-07-08T13:02:51Z</time>
      </trkpt>
      <trkpt lat="47.78903" lon="-3.51595">
        <ele>18.01</ele>
        <time>2020-07-08T13:02:52Z</time>
      </trkpt>
      <trkpt lat="47.78908" lon="-3.51596">
        <ele>18.23</ele>
        <time>2020-07-08T13:02:53Z</time>
      </trkpt>
      <trkpt lat="47.78913" lon="-3.51598">
        <ele>18.46</ele>
        <time>2020-07-08T13:02:54Z</time>
      </trkpt>
      <trkpt lat="47.78918" lon="-3.51599">
        <ele>18.66</ele>
        <time>2020-07-08T13:02:55Z</time>
      </trkpt>
      <trkpt lat="47.78922" lon="-3.51601">
        <ele>18.71</ele>
        <time>2020-07-08T13:02:56Z</time>
      </trkpt>
      <trkpt lat="47.78926" lon="-3.516">
        <ele>18.85</ele>
        <time>2020-07-08T13:02:57Z</time>
      </trkpt>
      <trkpt lat="47.78931" lon="-3.51599">
        <ele>19.09</ele>
        <time>2020-07-08T13:02:58Z</time>
      </trkpt>
      <trkpt lat="47.78935" lon="-3.51599">
        <ele>19.37</ele>
        <time>2020-07-08T13:02:59Z</time>
      </trkpt>
      <trkpt lat="47.7894" lon="-3.51598">
        <ele>19.61</ele>
        <time>2020-07-08T13:03:00Z</time>
      </trkpt>
      <trkpt lat="47.78944" lon="-3.51596">
        <ele>19.95</ele>
        <time>2020-07-08T13:03:01Z</time>
      </trkpt>
      <trkpt lat="47.78949" lon="-3.51595">
        <ele>20.2</ele>
        <time>2020-07-08T13:03:02Z</time>
      </trkpt>
      <trkpt lat="47.78954" lon="-3.51594">
        <ele>20.33</ele>
        <time>2020-07-08T13:03:03Z</time>
      </trkpt>
      <trkpt lat="47.78958" lon="-3.51593">
        <ele>20.4</ele>
        <time>2020-07-08T13:03:04Z</time>
      </trkpt>
      <trkpt lat="47.78963" lon="-3.51593">
        <ele>20.42</ele>
        <time>2020-07-08T13:03:05Z</time>
      </trkpt>
      <trkpt lat="47.78967" lon="-3.51592">
        <ele>20.47</ele>
        <time>2020-07-08T13:03:06Z</time>
      </trkpt>
      <trkpt lat="47.78972" lon="-3.51592">
        <ele>20.52</ele>
        <time>2020-07-08T13:03:07Z</time>
      </trkpt>
      <trkpt lat="47.78976" lon="-3.51591">
        <ele>20.5</ele>
        <time>2020-07-08T13:03:08Z</time>
      </trkpt>
      <trkpt lat="47.7898" lon="-3.51591">
        <ele>20.47</ele>
        <time>2020-07-08T13:03:09Z</time>
      </trkpt>
      <trkpt lat="47.78984" lon="-3.5159">
        <ele>20.46</ele>
        <time>2020-07-08T13:03:10Z</time>
      </trkpt>
      <trkpt lat="47.7899" lon="-3.51589">
        <ele>20.49</ele>
        <time>2020-07-08T13:03:11Z</time>
      </trkpt>
      <trkpt lat="47.78995" lon="-3.51588">
        <ele>20.44</ele>
        <time>2020-07-08T13:03:12Z</time>
      </trkpt>
      <trkpt lat="47.79" lon="-3.51588">
        <ele>20.4</ele>
        <time>2020-07-08T13:03:13Z</time>
      </trkpt>
      <trkpt lat="47.79004" lon="-3.51587">
        <ele>20.23</ele>
        <time>2020-07-08T13:03:14Z</time>
      </trkpt>
      <trkpt lat="47.79008" lon="-3.51586">
        <ele>20.11</ele>
        <time>2020-07-08T13:03:15Z</time>
      </trkpt>
      <trkpt lat="47.79012" lon="-3.51584">
        <ele>20.03</ele>
        <time>2020-07-08T13:03:16Z</time>
      </trkpt>
      <trkpt lat="47.79016" lon="-3.51584">
        <ele>19.88</ele>
        <time>2020-07-08T13:03:17Z</time>
      </trkpt>
      <trkpt lat="47.7902" lon="-3.51584">
        <ele>19.55</ele>
        <time>2020-07-08T13:03:18Z</time>
      </trkpt>
      <trkpt lat="47.79024" lon="-3.51585">
        <ele>19.17</ele>
        <time>2020-07-08T13:03:19Z</time>
      </trkpt>
      <trkpt lat="47.79029" lon="-3.51585">
        <ele>18.83</ele>
        <time>2020-07-08T13:03:20Z</time>
      </trkpt>
      <trkpt lat="47.79032" lon="-3.51585">
        <ele>18.66</ele>
        <time>2020-07-08T13:03:21Z</time>
      </trkpt>
      <trkpt lat="47.79036" lon="-3.51584">
        <ele>18.59</ele>
        <time>2020-07-08T13:03:22Z</time>
      </trkpt>
      <trkpt lat="47.7904" lon="-3.51584">
        <ele>18.51</ele>
        <time>2020-07-08T13:03:23Z</time>
      </trkpt>
      <trkpt lat="47.79046" lon="-3.51584">
        <ele>18.37</ele>
        <time>2020-07-08T13:03:24Z</time>
      </trkpt>
      <trkpt lat="47.7905" lon="-3.51584">
        <ele>18.17</ele>
        <time>2020-07-08T13:03:25Z</time>
      </trkpt>
      <trkpt lat="47.79056" lon="-3.51585">
        <ele>17.91</ele>
        <time>2020-07-08T13:03:26Z</time>
      </trkpt>
      <trkpt lat="47.7906" lon="-3.51586">
        <ele>17.81</ele>
        <time>2020-07-08T13:03:27Z</time>
      </trkpt>
      <trkpt lat="47.79065" lon="-3.51586">
        <ele>17.79</ele>
        <time>2020-07-08T13:03:28Z</time>
      </trkpt>
      <trkpt lat="47.7907" lon="-3.51586">
        <ele>17.79</ele>
        <time>2020-07-08T13:03:29Z</time>
      </trkpt>
      <trkpt lat="47.79074" lon="-3.51587">
        <ele>17.74</ele>
        <time>2020-07-08T13:03:30Z</time>
      </trkpt>
      <trkpt lat="47.79078" lon="-3.51587">
        <ele>17.71</ele>
        <time>2020-07-08T13:03:31Z</time>
      </trkpt>
      <trkpt lat="47.79082" lon="-3.51587">
        <ele>17.72</ele>
        <time>2020-07-08T13:03:32Z</time>
      </trkpt>
      <trkpt lat="47.79087" lon="-3.51587">
        <ele>17.73</ele>
        <time>2020-07-08T13:03:33Z</time>
      </trkpt>
      <trkpt lat="47.79092" lon="-3.51588">
        <ele>17.73</ele>
        <time>2020-07-08T13:03:34Z</time>
      </trkpt>
      <trkpt lat="47.79097" lon="-3.51589">
        <ele>17.72</ele>
        <time>2020-07-08T13:03:35Z</time>
      </trkpt>
      <trkpt lat="47.79102" lon="-3.5159">
        <ele>17.69</ele>
        <time>2020-07-08T13:03:36Z</time>
      </trkpt>
      <trkpt lat="47.79108" lon="-3.51591">
        <ele>17.68</ele>
        <time>2020-07-08T13:03:37Z</time>
      </trkpt>
      <trkpt lat="47.79114" lon="-3.51592">
        <ele>17.74</ele>
        <time>2020-07-08T13:03:38Z</time>
      </trkpt>
      <trkpt lat="47.79119" lon="-3.51593">
        <ele>17.87</ele>
        <time>2020-07-08T13:03:39Z</time>
      </trkpt>
      <trkpt lat="47.79124" lon="-3.51594">
        <ele>18.02</ele>
        <time>2020-07-08T13:03:40Z</time>
      </trkpt>
      <trkpt lat="47.7913" lon="-3.51595">
        <ele>18.19</ele>
        <time>2020-07-08T13:03:41Z</time>
      </trkpt>
      <trkpt lat="47.79135" lon="-3.51596">
        <ele>18.32</ele>
        <time>2020-07-08T13:03:42Z</time>
      </trkpt>
      <trkpt lat="47.79139" lon="-3.51598">
        <ele>18.45</ele>
        <time>2020-07-08T13:03:43Z</time>
      </trkpt>
      <trkpt lat="47.79144" lon="-3.51598">
        <ele>18.65</ele>
        <time>2020-07-08T13:03:44Z</time>
      </trkpt>
      <trkpt lat="47.79148" lon="-3.51598">
        <ele>18.88</ele>
        <time>2020-07-08T13:03:45Z</time>
      </trkpt>
      <trkpt lat="47.79153" lon="-3.51598">
        <ele>19.11</ele>
        <time>2020-07-08T13:03:46Z</time>
      </trkpt>
      <trkpt lat="47.79157" lon="-3.51599">
        <ele>19.3</ele>
        <time>2020-07-08T13:03:47Z</time>
      </trkpt>
      <trkpt lat="47.79162" lon="-3.51601">
        <ele>19.46</ele>
        <time>2020-07-08T13:03:48Z</time>
      </trkpt>
      <trkpt lat="47.79165" lon="-3.51602">
        <ele>19.58</ele>
        <time>2020-07-08T13:03:49Z</time>
      </trkpt>
      <trkpt lat="47.79169" lon="-3.51603">
        <ele>19.75</ele>
        <time>2020-07-08T13:03:50Z</time>
      </trkpt>
      <trkpt lat="47.79173" lon="-3.51604">
        <ele>20.02</ele>
        <time>2020-07-08T13:03:51Z</time>
      </trkpt>
      <trkpt lat="47.79177" lon="-3.51606">
        <ele>20.31</ele>
        <time>2020-07-08T13:03:52Z</time>
      </trkpt>
      <trkpt lat="47.7918" lon="-3.51609">
        <ele>20.5</ele>
        <time>2020-07-08T13:03:53Z</time>
      </trkpt>
      <trkpt lat="47.79184" lon="-3.51612">
        <ele>20.71</ele>
        <time>2020-07-08T13:03:54Z</time>
      </trkpt>
      <trkpt lat="47.79187" lon="-3.51616">
        <ele>20.95</ele>
        <time>2020-07-08T13:03:55Z</time>
      </trkpt>
      <trkpt lat="47.7919" lon="-3.5162">
        <ele>21.12</ele>
        <time>2020-07-08T13:03:56Z</time>
      </trkpt>
      <trkpt lat="47.79194" lon="-3.51625">
        <ele>21.31</ele>
        <time>2020-07-08T13:03:57Z</time>
      </trkpt>
      <trkpt lat="47.79196" lon="-3.51631">
        <ele>21.51</ele>
        <time>2020-07-08T13:03:58Z</time>
      </trkpt>
      <trkpt lat="47.79197" lon="-3.51637">
        <ele>21.65</ele>
        <time>2020-07-08T13:03:59Z</time>
      </trkpt>
      <trkpt lat="47.79199" lon="-3.51642">
        <ele>21.87</ele>
        <time>2020-07-08T13:04:00Z</time>
      </trkpt>
      <trkpt lat="47.79201" lon="-3.51647">
        <ele>22.25</ele>
        <time>2020-07-08T13:04:01Z</time>
      </trkpt>
      <trkpt lat="47.79203" lon="-3.51653">
        <ele>22.49</ele>
        <time>2020-07-08T13:04:02Z</time>
      </trkpt>
      <trkpt lat="47.79204" lon="-3.51657">
        <ele>22.76</ele>
        <time>2020-07-08T13:04:03Z</time>
      </trkpt>
      <trkpt lat="47.79207" lon="-3.51661">
        <ele>23.13</ele>
        <time>2020-07-08T13:04:04Z</time>
      </trkpt>
      <trkpt lat="47.79209" lon="-3.51666">
        <ele>23.42</ele>
        <time>2020-07-08T13:04:05Z</time>
      </trkpt>
      <trkpt lat="47.7921" lon="-3.5167">
        <ele>23.76</ele>
        <time>2020-07-08T13:04:06Z</time>
      </trkpt>
      <trkpt lat="47.7921" lon="-3.51674">
        <ele>24.08</ele>
        <time>2020-07-08T13:04:07Z</time>
      </trkpt>
      <trkpt lat="47.7921" lon="-3.51678">
        <ele>24.29</ele>
        <time>2020-07-08T13:04:08Z</time>
      </trkpt>
      <trkpt lat="47.7921" lon="-3.51681">
        <ele>24.44</ele>
        <time>2020-07-08T13:04:09Z</time>
      </trkpt>
      <trkpt lat="47.7921" lon="-3.51685">
        <ele>24.57</ele>
        <time>2020-07-08T13:04:10Z</time>
      </trkpt>
      <trkpt lat="47.79209" lon="-3.5169">
        <ele>24.72</ele>
        <time>2020-07-08T13:04:11Z</time>
      </trkpt>
      <trkpt lat="47.79209" lon="-3.51694">
        <ele>24.9</ele>
        <time>2020-07-08T13:04:12Z</time>
      </trkpt>
      <trkpt lat="47.79209" lon="-3.51698">
        <ele>25.16</ele>
        <time>2020-07-08T13:04:13Z</time>
      </trkpt>
      <trkpt lat="47.79209" lon="-3.51701">
        <ele>25.4</ele>
        <time>2020-07-08T13:04:14Z</time>
      </trkpt>
      <trkpt lat="47.79208" lon="-3.51705">
        <ele>25.63</ele>
        <time>2020-07-08T13:04:15Z</time>
      </trkpt>
      <trkpt lat="47.79207" lon="-3.51709">
        <ele>25.88</ele>
        <time>2020-07-08T13:04:16Z</time>
      </trkpt>
      <trkpt lat="47.79207" lon="-3.51713">
        <ele>26.12</ele>
        <time>2020-07-08T13:04:17Z</time>
      </trkpt>
      <trkpt lat="47.79206" lon="-3.51717">
        <ele>26.34</ele>
        <time>2020-07-08T13:04:18Z</time>
      </trkpt>
      <trkpt lat="47.79205" lon="-3.51721">
        <ele>26.58</ele>
        <time>2020-07-08T13:04:19Z</time>
      </trkpt>
      <trkpt lat="47.79205" lon="-3.51724">
        <ele>26.82</ele>
        <time>2020-07-08T13:04:20Z</time>
      </trkpt>
      <trkpt lat="47.79205" lon="-3.51728">
        <ele>27.04</ele>
        <time>2020-07-08T13:04:21Z</time>
      </trkpt>
      <trkpt lat="47.79204" lon="-3.51732">
        <ele>27.29</ele>
        <time>2020-07-08T13:04:22Z</time>
      </trkpt>
      <trkpt lat="47.79203" lon="-3.51736">
        <ele>27.55</ele>
        <time>2020-07-08T13:04:23Z</time>
      </trkpt>
      <trkpt lat="47.79203" lon="-3.5174">
        <ele>27.78</ele>
        <time>2020-07-08T13:04:24Z</time>
      </trkpt>
      <trkpt lat="47.79203" lon="-3.51745">
        <ele>28.11</ele>
        <time>2020-07-08T13:04:25Z</time>
      </trkpt>
      <trkpt lat="47.79202" lon="-3.5175">
        <ele>28.39</ele>
        <time>2020-07-08T13:04:26Z</time>
      </trkpt>
      <trkpt lat="47.79202" lon="-3.51755">
        <ele>28.66</ele>
        <time>2020-07-08T13:04:27Z</time>
      </trkpt>
      <trkpt lat="47.79202" lon="-3.5176">
        <ele>28.96</ele>
        <time>2020-07-08T13:04:28Z</time>
      </trkpt>
      <trkpt lat="47.79202" lon="-3.51765">
        <ele>29.24</ele>
        <time>2020-07-08T13:04:29Z</time>
      </trkpt>
      <trkpt lat="47.79201" lon="-3.51769">
        <ele>29.38</ele>
        <time>2020-07-08T13:04:30Z</time>
      </trkpt>
      <trkpt lat="47.792" lon="-3.51773">
        <ele>29.55</ele>
        <time>2020-07-08T13:04:31Z</time>
      </trkpt>
      <trkpt lat="47.792" lon="-3.51779">
        <ele>29.8</ele>
        <time>2020-07-08T13:04:32Z</time>
      </trkpt>
      <trkpt lat="47.792" lon="-3.51784">
        <ele>30.11</ele>
        <time>2020-07-08T13:04:33Z</time>
      </trkpt>
      <trkpt lat="47.79201" lon="-3.51788">
        <ele>30.43</ele>
        <time>2020-07-08T13:04:34Z</time>
      </trkpt>
      <trkpt lat="47.79201" lon="-3.51793">
        <ele>30.73</ele>
        <time>2020-07-08T13:04:35Z</time>
      </trkpt>
      <trkpt lat="47.79201" lon="-3.51797">
        <ele>31.08</ele>
        <time>2020-07-08T13:04:36Z</time>
      </trkpt>
      <trkpt lat="47.79202" lon="-3.51802">
        <ele>31.4</ele>
        <time>2020-07-08T13:04:37Z</time>
      </trkpt>
      <trkpt lat="47.79202" lon="-3.51806">
        <ele>31.74</ele>
        <time>2020-07-08T13:04:38Z</time>
      </trkpt>
      <trkpt lat="47.79202" lon="-3.5181">
        <ele>32.05</ele>
        <time>2020-07-08T13:04:39Z</time>
      </trkpt>
      <trkpt lat="47.79202" lon="-3.51814">
        <ele>32.34</ele>
        <time>2020-07-08T13:04:40Z</time>
      </trkpt>
      <trkpt lat="47.79203" lon="-3.51818">
        <ele>32.64</ele>
        <time>2020-07-08T13:04:41Z</time>
      </trkpt>
      <trkpt lat="47.79203" lon="-3.51822">
        <ele>32.98</ele>
        <time>2020-07-08T13:04:42Z</time>
      </trkpt>
      <trkpt lat="47.79204" lon="-3.51826">
        <ele>33.4</ele>
        <time>2020-07-08T13:04:43Z</time>
      </trkpt>
      <trkpt lat="47.79205" lon="-3.51831">
        <ele>33.78</ele>
        <time>2020-07-08T13:04:44Z</time>
      </trkpt>
      <trkpt lat="47.79206" lon="-3.51835">
        <ele>34.13</ele>
        <time>2020-07-08T13:04:45Z</time>
      </trkpt>
      <trkpt lat="47.79207" lon="-3.51838">
        <ele>34.38</ele>
        <time>2020-07-08T13:04:46Z</time>
      </trkpt>
      <trkpt lat="47.79209" lon="-3.51842">
        <ele>34.63</ele>
        <time>2020-07-08T13:04:47Z</time>
      </trkpt>
      <trkpt lat="47.79211" lon="-3.51846">
        <ele>34.86</ele>
        <time>2020-07-08T13:04:48Z</time>
      </trkpt>
      <trkpt lat="47.79213" lon="-3.51851">
        <ele>35.08</ele>
        <time>2020-07-08T13:04:49Z</time>
      </trkpt>
      <trkpt lat="47.79213" lon="-3.51857">
        <ele>35.25</ele>
        <time>2020-07-08T13:04:50Z</time>
      </trkpt>
      <trkpt lat="47.79214" lon="-3.51861">
        <ele>35.38</ele>
        <time>2020-07-08T13:04:51Z</time>
      </trkpt>
      <trkpt lat="47.79214" lon="-3.51867">
        <ele>35.51</ele>
        <time>2020-07-08T13:04:52Z</time>
      </trkpt>
      <trkpt lat="47.79213" lon="-3.51872">
        <ele>35.6</ele>
        <time>2020-07-08T13:04:53Z</time>
      </trkpt>
      <trkpt lat="47.79213" lon="-3.51877">
        <ele>35.71</ele>
        <time>2020-07-08T13:04:54Z</time>
      </trkpt>
      <trkpt lat="47.79213" lon="-3.51883">
        <ele>35.81</ele>
        <time>2020-07-08T13:04:55Z</time>
      </trkpt>
      <trkpt lat="47.79213" lon="-3.51889">
        <ele>35.91</ele>
        <time>2020-07-08T13:04:56Z</time>
      </trkpt>
      <trkpt lat="47.79212" lon="-3.51894">
        <ele>35.94</ele>
        <time>2020-07-08T13:04:57Z</time>
      </trkpt>
      <trkpt lat="47.79211" lon="-3.51899">
        <ele>35.93</ele>
        <time>2020-07-08T13:04:58Z</time>
      </trkpt>
      <trkpt lat="47.7921" lon="-3.51903">
        <ele>35.91</ele>
        <time>2020-07-08T13:04:59Z</time>
      </trkpt>
      <trkpt lat="47.79209" lon="-3.51908">
        <ele>35.92</ele>
        <time>2020-07-08T13:05:00Z</time>
      </trkpt>
      <trkpt lat="47.79209" lon="-3.51913">
        <ele>35.95</ele>
        <time>2020-07-08T13:05:01Z</time>
      </trkpt>
      <trkpt lat="47.79208" lon="-3.51918">
        <ele>35.97</ele>
        <time>2020-07-08T13:05:02Z</time>
      </trkpt>
      <trkpt lat="47.79207" lon="-3.51923">
        <ele>35.95</ele>
        <time>2020-07-08T13:05:03Z</time>
      </trkpt>
      <trkpt lat="47.79207" lon="-3.51928">
        <ele>35.92</ele>
        <time>2020-07-08T13:05:04Z</time>
      </trkpt>
      <trkpt lat="47.79206" lon="-3.51932">
        <ele>35.83</ele>
        <time>2020-07-08T13:05:05Z</time>
      </trkpt>
      <trkpt lat="47.79205" lon="-3.51937">
        <ele>35.76</ele>
        <time>2020-07-08T13:05:06Z</time>
      </trkpt>
      <trkpt lat="47.79204" lon="-3.51942">
        <ele>35.74</ele>
        <time>2020-07-08T13:05:07Z</time>
      </trkpt>
      <trkpt lat="47.79205" lon="-3.51947">
        <ele>35.74</ele>
        <time>2020-07-08T13:05:08Z</time>
      </trkpt>
      <trkpt lat="47.79205" lon="-3.51953">
        <ele>35.76</ele>
        <time>2020-07-08T13:05:09Z</time>
      </trkpt>
      <trkpt lat="47.79206" lon="-3.51958">
        <ele>35.82</ele>
        <time>2020-07-08T13:05:10Z</time>
      </trkpt>
      <trkpt lat="47.79206" lon="-3.51963">
        <ele>35.85</ele>
        <time>2020-07-08T13:05:11Z</time>
      </trkpt>
      <trkpt lat="47.79206" lon="-3.51967">
        <ele>35.84</ele>
        <time>2020-07-08T13:05:12Z</time>
      </trkpt>
      <trkpt lat="47.79207" lon="-3.51972">
        <ele>35.89</ele>
        <time>2020-07-08T13:05:13Z</time>
      </trkpt>
      <trkpt lat="47.79207" lon="-3.51976">
        <ele>35.95</ele>
        <time>2020-07-08T13:05:14Z</time>
      </trkpt>
      <trkpt lat="47.79207" lon="-3.5198">
        <ele>36</ele>
        <time>2020-07-08T13:05:15Z</time>
      </trkpt>
      <trkpt lat="47.79207" lon="-3.51984">
        <ele>36.08</ele>
        <time>2020-07-08T13:05:16Z</time>
      </trkpt>
      <trkpt lat="47.79207" lon="-3.51989">
        <ele>36.18</ele>
        <time>2020-07-08T13:05:17Z</time>
      </trkpt>
      <trkpt lat="47.79206" lon="-3.51994">
        <ele>36.26</ele>
        <time>2020-07-08T13:05:18Z</time>
      </trkpt>
      <trkpt lat="47.79205" lon="-3.51999">
        <ele>36.32</ele>
        <time>2020-07-08T13:05:19Z</time>
      </trkpt>
      <trkpt lat="47.79203" lon="-3.52003">
        <ele>36.3</ele>
        <time>2020-07-08T13:05:20Z</time>
      </trkpt>
      <trkpt lat="47.792" lon="-3.52007">
        <ele>36.24</ele>
        <time>2020-07-08T13:05:21Z</time>
      </trkpt>
      <trkpt lat="47.79197" lon="-3.52011">
        <ele>36.13</ele>
        <time>2020-07-08T13:05:22Z</time>
      </trkpt>
      <trkpt lat="47.79193" lon="-3.52013">
        <ele>35.98</ele>
        <time>2020-07-08T13:05:23Z</time>
      </trkpt>
      <trkpt lat="47.79189" lon="-3.52015">
        <ele>35.74</ele>
        <time>2020-07-08T13:05:24Z</time>
      </trkpt>
      <trkpt lat="47.79185" lon="-3.52016">
        <ele>35.43</ele>
        <time>2020-07-08T13:05:25Z</time>
      </trkpt>
      <trkpt lat="47.7918" lon="-3.52018">
        <ele>35.09</ele>
        <time>2020-07-08T13:05:26Z</time>
      </trkpt>
      <trkpt lat="47.79174" lon="-3.52019">
        <ele>34.72</ele>
        <time>2020-07-08T13:05:27Z</time>
      </trkpt>
      <trkpt lat="47.79169" lon="-3.5202">
        <ele>34.34</ele>
        <time>2020-07-08T13:05:28Z</time>
      </trkpt>
      <trkpt lat="47.79164" lon="-3.52023">
        <ele>33.9</ele>
        <time>2020-07-08T13:05:29Z</time>
      </trkpt>
      <trkpt lat="47.79159" lon="-3.52027">
        <ele>33.37</ele>
        <time>2020-07-08T13:05:30Z</time>
      </trkpt>
      <trkpt lat="47.79154" lon="-3.52032">
        <ele>32.9</ele>
        <time>2020-07-08T13:05:31Z</time>
      </trkpt>
      <trkpt lat="47.7915" lon="-3.52039">
        <ele>32.61</ele>
        <time>2020-07-08T13:05:32Z</time>
      </trkpt>
      <trkpt lat="47.79148" lon="-3.52047">
        <ele>32.49</ele>
        <time>2020-07-08T13:05:33Z</time>
      </trkpt>
      <trkpt lat="47.79146" lon="-3.52056">
        <ele>32.5</ele>
        <time>2020-07-08T13:05:34Z</time>
      </trkpt>
      <trkpt lat="47.79145" lon="-3.52065">
        <ele>32.21</ele>
        <time>2020-07-08T13:05:35Z</time>
      </trkpt>
      <trkpt lat="47.79144" lon="-3.52075">
        <ele>31.83</ele>
        <time>2020-07-08T13:05:36Z</time>
      </trkpt>
      <trkpt lat="47.79143" lon="-3.52084">
        <ele>31.46</ele>
        <time>2020-07-08T13:05:37Z</time>
      </trkpt>
      <trkpt lat="47.79142" lon="-3.52094">
        <ele>31.29</ele>
        <time>2020-07-08T13:05:38Z</time>
      </trkpt>
      <trkpt lat="47.7914" lon="-3.52104">
        <ele>31.15</ele>
        <time>2020-07-08T13:05:39Z</time>
      </trkpt>
      <trkpt lat="47.79139" lon="-3.52114">
        <ele>30.94</ele>
        <time>2020-07-08T13:05:40Z</time>
      </trkpt>
      <trkpt lat="47.79137" lon="-3.52124">
        <ele>30.5</ele>
        <time>2020-07-08T13:05:41Z</time>
      </trkpt>
      <trkpt lat="47.79135" lon="-3.52134">
        <ele>30.01</ele>
        <time>2020-07-08T13:05:42Z</time>
      </trkpt>
      <trkpt lat="47.79134" lon="-3.52142">
        <ele>29.57</ele>
        <time>2020-07-08T13:05:43Z</time>
      </trkpt>
      <trkpt lat="47.79134" lon="-3.5215">
        <ele>29.22</ele>
        <time>2020-07-08T13:05:44Z</time>
      </trkpt>
      <trkpt lat="47.79134" lon="-3.52156">
        <ele>29</ele>
        <time>2020-07-08T13:05:45Z</time>
      </trkpt>
      <trkpt lat="47.79136" lon="-3.5216">
        <ele>28.94</ele>
        <time>2020-07-08T13:05:46Z</time>
      </trkpt>
      <trkpt lat="47.79139" lon="-3.52164">
        <ele>29.04</ele>
        <time>2020-07-08T13:05:47Z</time>
      </trkpt>
      <trkpt lat="47.79142" lon="-3.52165">
        <ele>29.24</ele>
        <time>2020-07-08T13:05:48Z</time>
      </trkpt>
      <trkpt lat="47.79146" lon="-3.52165">
        <ele>29.47</ele>
        <time>2020-07-08T13:05:49Z</time>
      </trkpt>
      <trkpt lat="47.7915" lon="-3.52165">
        <ele>29.73</ele>
        <time>2020-07-08T13:05:50Z</time>
      </trkpt>
      <trkpt lat="47.79154" lon="-3.52166">
        <ele>29.99</ele>
        <time>2020-07-08T13:05:51Z</time>
      </trkpt>
      <trkpt lat="47.79157" lon="-3.52166">
        <ele>30.25</ele>
        <time>2020-07-08T13:05:52Z</time>
      </trkpt>
      <trkpt lat="47.79161" lon="-3.52166">
        <ele>30.51</ele>
        <time>2020-07-08T13:05:53Z</time>
      </trkpt>
      <trkpt lat="47.79164" lon="-3.52167">
        <ele>30.73</ele>
        <time>2020-07-08T13:05:54Z</time>
      </trkpt>
      <trkpt lat="47.79167" lon="-3.52167">
        <ele>30.94</ele>
        <time>2020-07-08T13:05:55Z</time>
      </trkpt>
      <trkpt lat="47.79169" lon="-3.52168">
        <ele>31.09</ele>
        <time>2020-07-08T13:05:56Z</time>
      </trkpt>
      <trkpt lat="47.7917" lon="-3.52169">
        <ele>31.17</ele>
        <time>2020-07-08T13:05:57Z</time>
      </trkpt>
      <trkpt lat="47.7917" lon="-3.52169">
        <ele>31.23</ele>
        <time>2020-07-08T13:05:58Z</time>
      </trkpt>
      <trkpt lat="47.7917" lon="-3.52169">
        <ele>31.24</ele>
        <time>2020-07-08T13:05:59Z</time>
      </trkpt>
      <trkpt lat="47.7917" lon="-3.52169">
        <ele>31.24</ele>
        <time>2020-07-08T13:06:00Z</time>
      </trkpt>
      <trkpt lat="47.7917" lon="-3.52169">
        <ele>31.24</ele>
        <time>2020-07-08T13:06:01Z</time>
      </trkpt>
      <trkpt lat="47.7917" lon="-3.52169">
        <ele>31.24</ele>
        <time>2020-07-08T13:06:02Z</time>
      </trkpt>
      <trkpt lat="47.7917" lon="-3.52169">
        <ele>31.24</ele>
        <time>2020-07-08T13:06:03Z</time>
      </trkpt>
      <trkpt lat="47.7917" lon="-3.52169">
        <ele>31.24</ele>
        <time>2020-07-08T13:06:04Z</time>
      </trkpt>
      <trkpt lat="47.7917" lon="-3.52169">
        <ele>31.24</ele>
        <time>2020-07-08T13:06:05Z</time>
      </trkpt>
      <trkpt lat="47.7917" lon="-3.52169">
        <ele>31.24</ele>
        <time>2020-07-08T13:06:06Z</time>
      </trkpt>
      <trkpt lat="47.7917" lon="-3.52169">
        <ele>31.24</ele>
        <time>2020-07-08T13:06:07Z</time>
      </trkpt>
      <trkpt lat="47.7917" lon="-3.52169">
        <ele>31.24</ele>
        <time>2020-07-08T13:06:08Z</time>
      </trkpt>
      <trkpt lat="47.7917" lon="-3.52169">
        <ele>31.24</ele>
        <time>2020-07-08T13:06:09Z</time>
      </trkpt>
      <trkpt lat="47.7917" lon="-3.52169">
        <ele>31.24</ele>
        <time>2020-07-08T13:06:10Z</time>
      </trkpt>
      <trkpt lat="47.7917" lon="-3.52169">
        <ele>31.24</ele>
        <time>2020-07-08T13:06:11Z</time>
      </trkpt>
      <trkpt lat="47.7917" lon="-3.52169">
        <ele>31.24</ele>
        <time>2020-07-08T13:06:12Z</time>
      </trkpt>
      <trkpt lat="47.79175" lon="-3.52169">
        <ele>31.46</ele>
        <time>2020-07-08T13:06:13Z</time>
      </trkpt>
      <trkpt lat="47.79177" lon="-3.52168">
        <ele>31.65</ele>
        <time>2020-07-08T13:06:14Z</time>
      </trkpt>
      <trkpt lat="47.7918" lon="-3.52168">
        <ele>31.85</ele>
        <time>2020-07-08T13:06:15Z</time>
      </trkpt>
      <trkpt lat="47.79183" lon="-3.52169">
        <ele>32.06</ele>
        <time>2020-07-08T13:06:16Z</time>
      </trkpt>
      <trkpt lat="47.79187" lon="-3.52169">
        <ele>32.27</ele>
        <time>2020-07-08T13:06:17Z</time>
      </trkpt>
      <trkpt lat="47.7919" lon="-3.5217">
        <ele>32.47</ele>
        <time>2020-07-08T13:06:18Z</time>
      </trkpt>
      <trkpt lat="47.79193" lon="-3.5217">
        <ele>32.66</ele>
        <time>2020-07-08T13:06:19Z</time>
      </trkpt>
      <trkpt lat="47.79195" lon="-3.52172">
        <ele>32.79</ele>
        <time>2020-07-08T13:06:20Z</time>
      </trkpt>
      <trkpt lat="47.79197" lon="-3.52173">
        <ele>32.94</ele>
        <time>2020-07-08T13:06:21Z</time>
      </trkpt>
      <trkpt lat="47.792" lon="-3.52174">
        <ele>33.07</ele>
        <time>2020-07-08T13:06:22Z</time>
      </trkpt>
      <trkpt lat="47.79201" lon="-3.52176">
        <ele>33.19</ele>
        <time>2020-07-08T13:06:23Z</time>
      </trkpt>
      <trkpt lat="47.79204" lon="-3.52177">
        <ele>33.34</ele>
        <time>2020-07-08T13:06:24Z</time>
      </trkpt>
      <trkpt lat="47.79206" lon="-3.5218">
        <ele>33.5</ele>
        <time>2020-07-08T13:06:25Z</time>
      </trkpt>
      <trkpt lat="47.79209" lon="-3.52182">
        <ele>33.69</ele>
        <time>2020-07-08T13:06:26Z</time>
      </trkpt>
      <trkpt lat="47.79211" lon="-3.52185">
        <ele>33.87</ele>
        <time>2020-07-08T13:06:27Z</time>
      </trkpt>
      <trkpt lat="47.79213" lon="-3.52189">
        <ele>34.03</ele>
        <time>2020-07-08T13:06:28Z</time>
      </trkpt>
      <trkpt lat="47.79215" lon="-3.52195">
        <ele>34.13</ele>
        <time>2020-07-08T13:06:29Z</time>
      </trkpt>
      <trkpt lat="47.79216" lon="-3.522">
        <ele>34.12</ele>
        <time>2020-07-08T13:06:30Z</time>
      </trkpt>
      <trkpt lat="47.79216" lon="-3.52206">
        <ele>34.07</ele>
        <time>2020-07-08T13:06:31Z</time>
      </trkpt>
      <trkpt lat="47.79217" lon="-3.52211">
        <ele>34.01</ele>
        <time>2020-07-08T13:06:32Z</time>
      </trkpt>
      <trkpt lat="47.79218" lon="-3.52217">
        <ele>33.93</ele>
        <time>2020-07-08T13:06:33Z</time>
      </trkpt>
      <trkpt lat="47.79219" lon="-3.52222">
        <ele>33.82</ele>
        <time>2020-07-08T13:06:34Z</time>
      </trkpt>
      <trkpt lat="47.7922" lon="-3.52228">
        <ele>33.79</ele>
        <time>2020-07-08T13:06:35Z</time>
      </trkpt>
      <trkpt lat="47.7922" lon="-3.52235">
        <ele>33.83</ele>
        <time>2020-07-08T13:06:36Z</time>
      </trkpt>
      <trkpt lat="47.79222" lon="-3.52241">
        <ele>33.91</ele>
        <time>2020-07-08T13:06:37Z</time>
      </trkpt>
      <trkpt lat="47.79223" lon="-3.52248">
        <ele>34.01</ele>
        <time>2020-07-08T13:06:38Z</time>
      </trkpt>
      <trkpt lat="47.79224" lon="-3.52255">
        <ele>34</ele>
        <time>2020-07-08T13:06:39Z</time>
      </trkpt>
      <trkpt lat="47.79226" lon="-3.52262">
        <ele>33.91</ele>
        <time>2020-07-08T13:06:40Z</time>
      </trkpt>
      <trkpt lat="47.79228" lon="-3.52269">
        <ele>33.87</ele>
        <time>2020-07-08T13:06:41Z</time>
      </trkpt>
      <trkpt lat="47.7923" lon="-3.52276">
        <ele>33.9</ele>
        <time>2020-07-08T13:06:42Z</time>
      </trkpt>
      <trkpt lat="47.79233" lon="-3.52284">
        <ele>34.02</ele>
        <time>2020-07-08T13:06:43Z</time>
      </trkpt>
      <trkpt lat="47.79236" lon="-3.5229">
        <ele>34.16</ele>
        <time>2020-07-08T13:06:44Z</time>
      </trkpt>
      <trkpt lat="47.79238" lon="-3.52297">
        <ele>34.28</ele>
        <time>2020-07-08T13:06:45Z</time>
      </trkpt>
      <trkpt lat="47.79242" lon="-3.52304">
        <ele>34.37</ele>
        <time>2020-07-08T13:06:46Z</time>
      </trkpt>
      <trkpt lat="47.79245" lon="-3.52312">
        <ele>34.41</ele>
        <time>2020-07-08T13:06:47Z</time>
      </trkpt>
      <trkpt lat="47.79248" lon="-3.52319">
        <ele>34.4</ele>
        <time>2020-07-08T13:06:48Z</time>
      </trkpt>
      <trkpt lat="47.79251" lon="-3.52326">
        <ele>34.4</ele>
        <time>2020-07-08T13:06:49Z</time>
      </trkpt>
      <trkpt lat="47.79255" lon="-3.52333">
        <ele>34.51</ele>
        <time>2020-07-08T13:06:50Z</time>
      </trkpt>
      <trkpt lat="47.79259" lon="-3.52339">
        <ele>34.71</ele>
        <time>2020-07-08T13:06:51Z</time>
      </trkpt>
      <trkpt lat="47.79263" lon="-3.52345">
        <ele>34.89</ele>
        <time>2020-07-08T13:06:52Z</time>
      </trkpt>
      <trkpt lat="47.79267" lon="-3.52351">
        <ele>35</ele>
        <time>2020-07-08T13:06:53Z</time>
      </trkpt>
      <trkpt lat="47.79271" lon="-3.52356">
        <ele>35.01</ele>
        <time>2020-07-08T13:06:54Z</time>
      </trkpt>
      <trkpt lat="47.79275" lon="-3.52362">
        <ele>34.91</ele>
        <time>2020-07-08T13:06:55Z</time>
      </trkpt>
      <trkpt lat="47.79278" lon="-3.52367">
        <ele>34.85</ele>
        <time>2020-07-08T13:06:56Z</time>
      </trkpt>
      <trkpt lat="47.79282" lon="-3.52372">
        <ele>34.91</ele>
        <time>2020-07-08T13:06:57Z</time>
      </trkpt>
      <trkpt lat="47.79285" lon="-3.52377">
        <ele>34.95</ele>
        <time>2020-07-08T13:06:58Z</time>
      </trkpt>
      <trkpt lat="47.79289" lon="-3.52381">
        <ele>34.93</ele>
        <time>2020-07-08T13:06:59Z</time>
      </trkpt>
      <trkpt lat="47.79292" lon="-3.52385">
        <ele>34.86</ele>
        <time>2020-07-08T13:07:00Z</time>
      </trkpt>
      <trkpt lat="47.79295" lon="-3.52388">
        <ele>34.77</ele>
        <time>2020-07-08T13:07:01Z</time>
      </trkpt>
      <trkpt lat="47.79298" lon="-3.5239">
        <ele>34.69</ele>
        <time>2020-07-08T13:07:02Z</time>
      </trkpt>
      <trkpt lat="47.793" lon="-3.52392">
        <ele>34.63</ele>
        <time>2020-07-08T13:07:03Z</time>
      </trkpt>
      <trkpt lat="47.79302" lon="-3.52393">
        <ele>34.57</ele>
        <time>2020-07-08T13:07:04Z</time>
      </trkpt>
      <trkpt lat="47.79304" lon="-3.52394">
        <ele>34.54</ele>
        <time>2020-07-08T13:07:05Z</time>
      </trkpt>
      <trkpt lat="47.79304" lon="-3.52396">
        <ele>34.46</ele>
        <time>2020-07-08T13:07:06Z</time>
      </trkpt>
      <trkpt lat="47.79304" lon="-3.52398">
        <ele>34.34</ele>
        <time>2020-07-08T13:07:07Z</time>
      </trkpt>
      <trkpt lat="47.79302" lon="-3.52398">
        <ele>34.24</ele>
        <time>2020-07-08T13:07:08Z</time>
      </trkpt>
      <trkpt lat="47.79301" lon="-3.52399">
        <ele>34.14</ele>
        <time>2020-07-08T13:07:09Z</time>
      </trkpt>
      <trkpt lat="47.79299" lon="-3.524">
        <ele>34.02</ele>
        <time>2020-07-08T13:07:10Z</time>
      </trkpt>
      <trkpt lat="47.79297" lon="-3.52402">
        <ele>33.83</ele>
        <time>2020-07-08T13:07:11Z</time>
      </trkpt>
      <trkpt lat="47.79295" lon="-3.52404">
        <ele>33.65</ele>
        <time>2020-07-08T13:07:12Z</time>
      </trkpt>
      <trkpt lat="47.79294" lon="-3.52406">
        <ele>33.43</ele>
        <time>2020-07-08T13:07:13Z</time>
      </trkpt>
      <trkpt lat="47.79293" lon="-3.52409">
        <ele>33.23</ele>
        <time>2020-07-08T13:07:14Z</time>
      </trkpt>
      <trkpt lat="47.79292" lon="-3.5241">
        <ele>33.07</ele>
        <time>2020-07-08T13:07:15Z</time>
      </trkpt>
      <trkpt lat="47.7929" lon="-3.52412">
        <ele>32.88</ele>
        <time>2020-07-08T13:07:16Z</time>
      </trkpt>
      <trkpt lat="47.79289" lon="-3.52413">
        <ele>32.73</ele>
        <time>2020-07-08T13:07:17Z</time>
      </trkpt>
      <trkpt lat="47.79289" lon="-3.52414">
        <ele>32.62</ele>
        <time>2020-07-08T13:07:18Z</time>
      </trkpt>
      <trkpt lat="47.79288" lon="-3.52415">
        <ele>32.55</ele>
        <time>2020-07-08T13:07:19Z</time>
      </trkpt>
      <trkpt lat="47.79287" lon="-3.52415">
        <ele>32.5</ele>
        <time>2020-07-08T13:07:20Z</time>
      </trkpt>
      <trkpt lat="47.79287" lon="-3.52415">
        <ele>32.49</ele>
        <time>2020-07-08T13:07:21Z</time>
      </trkpt>
      <trkpt lat="47.79287" lon="-3.52415">
        <ele>32.48</ele>
        <time>2020-07-08T13:07:22Z</time>
      </trkpt>
      <trkpt lat="47.79287" lon="-3.52415">
        <ele>32.48</ele>
        <time>2020-07-08T13:07:23Z</time>
      </trkpt>
      <trkpt lat="47.79287" lon="-3.52415">
        <ele>32.48</ele>
        <time>2020-07-08T13:07:24Z</time>
      </trkpt>
      <trkpt lat="47.79287" lon="-3.52415">
        <ele>32.48</ele>
        <time>2020-07-08T13:07:25Z</time>
      </trkpt>
      <trkpt lat="47.79287" lon="-3.52415">
        <ele>32.48</ele>
        <time>2020-07-08T13:07:26Z</time>
      </trkpt>
      <trkpt lat="47.79287" lon="-3.52415">
        <ele>32.48</ele>
        <time>2020-07-08T13:07:27Z</time>
      </trkpt>
      <trkpt lat="47.79287" lon="-3.52415">
        <ele>32.48</ele>
        <time>2020-07-08T13:07:28Z</time>
      </trkpt>
      <trkpt lat="47.79287" lon="-3.52415">
        <ele>32.48</ele>
        <time>2020-07-08T13:07:29Z</time>
      </trkpt>
      <trkpt lat="47.79287" lon="-3.52415">
        <ele>32.48</ele>
        <time>2020-07-08T13:07:30Z</time>
      </trkpt>
      <trkpt lat="47.79287" lon="-3.52415">
        <ele>32.48</ele>
        <time>2020-07-08T13:07:31Z</time>
      </trkpt>
      <trkpt lat="47.79287" lon="-3.52415">
        <ele>32.48</ele>
        <time>2020-07-08T13:07:32Z</time>
      </trkpt>
      <trkpt lat="47.79292" lon="-3.52409">
        <ele>32.86</ele>
        <time>2020-07-08T13:07:33Z</time>
      </trkpt>
      <trkpt lat="47.79293" lon="-3.52407">
        <ele>33.12</ele>
        <time>2020-07-08T13:07:34Z</time>
      </trkpt>
      <trkpt lat="47.79295" lon="-3.52405">
        <ele>33.34</ele>
        <time>2020-07-08T13:07:35Z</time>
      </trkpt>
      <trkpt lat="47.79298" lon="-3.52405">
        <ele>33.52</ele>
        <time>2020-07-08T13:07:36Z</time>
      </trkpt>
      <trkpt lat="47.79301" lon="-3.52406">
        <ele>33.6</ele>
        <time>2020-07-08T13:07:37Z</time>
      </trkpt>
      <trkpt lat="47.79304" lon="-3.52408">
        <ele>33.59</ele>
        <time>2020-07-08T13:07:38Z</time>
      </trkpt>
      <trkpt lat="47.79307" lon="-3.5241">
        <ele>33.54</ele>
        <time>2020-07-08T13:07:39Z</time>
      </trkpt>
      <trkpt lat="47.79309" lon="-3.52412">
        <ele>33.39</ele>
        <time>2020-07-08T13:07:40Z</time>
      </trkpt>
      <trkpt lat="47.79312" lon="-3.52414">
        <ele>33.19</ele>
        <time>2020-07-08T13:07:41Z</time>
      </trkpt>
      <trkpt lat="47.79314" lon="-3.52416">
        <ele>32.93</ele>
        <time>2020-07-08T13:07:42Z</time>
      </trkpt>
      <trkpt lat="47.79317" lon="-3.52418">
        <ele>32.62</ele>
        <time>2020-07-08T13:07:43Z</time>
      </trkpt>
      <trkpt lat="47.7932" lon="-3.5242">
        <ele>32.34</ele>
        <time>2020-07-08T13:07:44Z</time>
      </trkpt>
      <trkpt lat="47.79324" lon="-3.52423">
        <ele>32.09</ele>
        <time>2020-07-08T13:07:45Z</time>
      </trkpt>
      <trkpt lat="47.79328" lon="-3.52425">
        <ele>31.87</ele>
        <time>2020-07-08T13:07:46Z</time>
      </trkpt>
      <trkpt lat="47.79332" lon="-3.52427">
        <ele>31.7</ele>
        <time>2020-07-08T13:07:47Z</time>
      </trkpt>
      <trkpt lat="47.79337" lon="-3.52429">
        <ele>31.69</ele>
        <time>2020-07-08T13:07:48Z</time>
      </trkpt>
      <trkpt lat="47.79341" lon="-3.52431">
        <ele>31.71</ele>
        <time>2020-07-08T13:07:49Z</time>
      </trkpt>
      <trkpt lat="47.79345" lon="-3.52433">
        <ele>31.68</ele>
        <time>2020-07-08T13:07:50Z</time>
      </trkpt>
      <trkpt lat="47.79349" lon="-3.52435">
        <ele>31.6</ele>
        <time>2020-07-08T13:07:51Z</time>
      </trkpt>
      <trkpt lat="47.79353" lon="-3.52436">
        <ele>31.48</ele>
        <time>2020-07-08T13:07:52Z</time>
      </trkpt>
      <trkpt lat="47.79358" lon="-3.52437">
        <ele>31.36</ele>
        <time>2020-07-08T13:07:53Z</time>
      </trkpt>
      <trkpt lat="47.79362" lon="-3.52439">
        <ele>31.14</ele>
        <time>2020-07-08T13:07:54Z</time>
      </trkpt>
      <trkpt lat="47.79366" lon="-3.5244">
        <ele>30.77</ele>
        <time>2020-07-08T13:07:55Z</time>
      </trkpt>
      <trkpt lat="47.7937" lon="-3.52441">
        <ele>30.43</ele>
        <time>2020-07-08T13:07:56Z</time>
      </trkpt>
      <trkpt lat="47.79374" lon="-3.52441">
        <ele>30.13</ele>
        <time>2020-07-08T13:07:57Z</time>
      </trkpt>
      <trkpt lat="47.79379" lon="-3.52442">
        <ele>29.85</ele>
        <time>2020-07-08T13:07:58Z</time>
      </trkpt>
      <trkpt lat="47.79384" lon="-3.52442">
        <ele>29.58</ele>
        <time>2020-07-08T13:07:59Z</time>
      </trkpt>
      <trkpt lat="47.79388" lon="-3.52443">
        <ele>29.32</ele>
        <time>2020-07-08T13:08:00Z</time>
      </trkpt>
      <trkpt lat="47.79393" lon="-3.52444">
        <ele>29.05</ele>
        <time>2020-07-08T13:08:01Z</time>
      </trkpt>
      <trkpt lat="47.79397" lon="-3.52444">
        <ele>28.81</ele>
        <time>2020-07-08T13:08:02Z</time>
      </trkpt>
      <trkpt lat="47.79402" lon="-3.52444">
        <ele>28.62</ele>
        <time>2020-07-08T13:08:03Z</time>
      </trkpt>
      <trkpt lat="47.79408" lon="-3.52445">
        <ele>28.4</ele>
        <time>2020-07-08T13:08:04Z</time>
      </trkpt>
      <trkpt lat="47.79414" lon="-3.52444">
        <ele>28.22</ele>
        <time>2020-07-08T13:08:05Z</time>
      </trkpt>
      <trkpt lat="47.79421" lon="-3.52443">
        <ele>27.94</ele>
        <time>2020-07-08T13:08:06Z</time>
      </trkpt>
      <trkpt lat="47.79426" lon="-3.52443">
        <ele>27.61</ele>
        <time>2020-07-08T13:08:07Z</time>
      </trkpt>
      <trkpt lat="47.79432" lon="-3.52442">
        <ele>27.27</ele>
        <time>2020-07-08T13:08:08Z</time>
      </trkpt>
      <trkpt lat="47.79437" lon="-3.52441">
        <ele>26.94</ele>
        <time>2020-07-08T13:08:09Z</time>
      </trkpt>
      <trkpt lat="47.79443" lon="-3.5244">
        <ele>26.61</ele>
        <time>2020-07-08T13:08:10Z</time>
      </trkpt>
      <trkpt lat="47.79448" lon="-3.52439">
        <ele>26.22</ele>
        <time>2020-07-08T13:08:11Z</time>
      </trkpt>
      <trkpt lat="47.79453" lon="-3.52437">
        <ele>25.81</ele>
        <time>2020-07-08T13:08:12Z</time>
      </trkpt>
      <trkpt lat="47.79459" lon="-3.52436">
        <ele>25.41</ele>
        <time>2020-07-08T13:08:13Z</time>
      </trkpt>
      <trkpt lat="47.79464" lon="-3.52434">
        <ele>25.06</ele>
        <time>2020-07-08T13:08:14Z</time>
      </trkpt>
      <trkpt lat="47.79469" lon="-3.52433">
        <ele>24.69</ele>
        <time>2020-07-08T13:08:15Z</time>
      </trkpt>
      <trkpt lat="47.79474" lon="-3.52432">
        <ele>24.36</ele>
        <time>2020-07-08T13:08:16Z</time>
      </trkpt>
      <trkpt lat="47.7948" lon="-3.5243">
        <ele>24.09</ele>
        <time>2020-07-08T13:08:17Z</time>
      </trkpt>
      <trkpt lat="47.79486" lon="-3.52429">
        <ele>23.82</ele>
        <time>2020-07-08T13:08:18Z</time>
      </trkpt>
      <trkpt lat="47.79491" lon="-3.52428">
        <ele>23.56</ele>
        <time>2020-07-08T13:08:19Z</time>
      </trkpt>
      <trkpt lat="47.79496" lon="-3.52426">
        <ele>23.39</ele>
        <time>2020-07-08T13:08:20Z</time>
      </trkpt>
      <trkpt lat="47.79499" lon="-3.52425">
        <ele>23.21</ele>
        <time>2020-07-08T13:08:21Z</time>
      </trkpt>
      <trkpt lat="47.79504" lon="-3.52425">
        <ele>22.8</ele>
        <time>2020-07-08T13:08:22Z</time>
      </trkpt>
      <trkpt lat="47.79508" lon="-3.52427">
        <ele>22.22</ele>
        <time>2020-07-08T13:08:23Z</time>
      </trkpt>
      <trkpt lat="47.79512" lon="-3.52429">
        <ele>21.65</ele>
        <time>2020-07-08T13:08:24Z</time>
      </trkpt>
      <trkpt lat="47.79516" lon="-3.52428">
        <ele>21.2</ele>
        <time>2020-07-08T13:08:25Z</time>
      </trkpt>
      <trkpt lat="47.7952" lon="-3.52426">
        <ele>20.76</ele>
        <time>2020-07-08T13:08:26Z</time>
      </trkpt>
      <trkpt lat="47.79525" lon="-3.52424">
        <ele>20.25</ele>
        <time>2020-07-08T13:08:27Z</time>
      </trkpt>
      <trkpt lat="47.79531" lon="-3.52422">
        <ele>19.71</ele>
        <time>2020-07-08T13:08:28Z</time>
      </trkpt>
      <trkpt lat="47.79537" lon="-3.5242">
        <ele>19.19</ele>
        <time>2020-07-08T13:08:29Z</time>
      </trkpt>
      <trkpt lat="47.79543" lon="-3.52417">
        <ele>18.62</ele>
        <time>2020-07-08T13:08:30Z</time>
      </trkpt>
      <trkpt lat="47.79549" lon="-3.52415">
        <ele>18.22</ele>
        <time>2020-07-08T13:08:31Z</time>
      </trkpt>
      <trkpt lat="47.79555" lon="-3.52413">
        <ele>17.87</ele>
        <time>2020-07-08T13:08:32Z</time>
      </trkpt>
      <trkpt lat="47.79562" lon="-3.52412">
        <ele>17.67</ele>
        <time>2020-07-08T13:08:33Z</time>
      </trkpt>
      <trkpt lat="47.79567" lon="-3.52411">
        <ele>17.47</ele>
        <time>2020-07-08T13:08:34Z</time>
      </trkpt>
      <trkpt lat="47.79571" lon="-3.52411">
        <ele>17.26</ele>
        <time>2020-07-08T13:08:35Z</time>
      </trkpt>
      <trkpt lat="47.79574" lon="-3.52411">
        <ele>17.08</ele>
        <time>2020-07-08T13:08:36Z</time>
      </trkpt>
      <trkpt lat="47.79575" lon="-3.52411">
        <ele>16.9</ele>
        <time>2020-07-08T13:08:37Z</time>
      </trkpt>
      <trkpt lat="47.79577" lon="-3.52413">
        <ele>16.66</ele>
        <time>2020-07-08T13:08:38Z</time>
      </trkpt>
      <trkpt lat="47.79578" lon="-3.52416">
        <ele>16.41</ele>
        <time>2020-07-08T13:08:39Z</time>
      </trkpt>
      <trkpt lat="47.79578" lon="-3.52418">
        <ele>16.23</ele>
        <time>2020-07-08T13:08:40Z</time>
      </trkpt>
      <trkpt lat="47.79578" lon="-3.52422">
        <ele>16.09</ele>
        <time>2020-07-08T13:08:41Z</time>
      </trkpt>
      <trkpt lat="47.79579" lon="-3.52425">
        <ele>15.95</ele>
        <time>2020-07-08T13:08:42Z</time>
      </trkpt>
      <trkpt lat="47.7958" lon="-3.52429">
        <ele>15.8</ele>
        <time>2020-07-08T13:08:43Z</time>
      </trkpt>
      <trkpt lat="47.79581" lon="-3.52433">
        <ele>15.62</ele>
        <time>2020-07-08T13:08:44Z</time>
      </trkpt>
      <trkpt lat="47.79583" lon="-3.52438">
        <ele>15.38</ele>
        <time>2020-07-08T13:08:45Z</time>
      </trkpt>
      <trkpt lat="47.79585" lon="-3.52443">
        <ele>14.93</ele>
        <time>2020-07-08T13:08:46Z</time>
      </trkpt>
      <trkpt lat="47.79588" lon="-3.52449">
        <ele>14.28</ele>
        <time>2020-07-08T13:08:47Z</time>
      </trkpt>
      <trkpt lat="47.79591" lon="-3.52454">
        <ele>13.56</ele>
        <time>2020-07-08T13:08:48Z</time>
      </trkpt>
      <trkpt lat="47.79594" lon="-3.52457">
        <ele>12.9</ele>
        <time>2020-07-08T13:08:49Z</time>
      </trkpt>
      <trkpt lat="47.79597" lon="-3.5246">
        <ele>12.18</ele>
        <time>2020-07-08T13:08:50Z</time>
      </trkpt>
      <trkpt lat="47.79601" lon="-3.52462">
        <ele>11.53</ele>
        <time>2020-07-08T13:08:51Z</time>
      </trkpt>
      <trkpt lat="47.79604" lon="-3.52461">
        <ele>11.05</ele>
        <time>2020-07-08T13:08:52Z</time>
      </trkpt>
      <trkpt lat="47.79607" lon="-3.52459">
        <ele>10.67</ele>
        <time>2020-07-08T13:08:53Z</time>
      </trkpt>
      <trkpt lat="47.7961" lon="-3.52455">
        <ele>10.42</ele>
        <time>2020-07-08T13:08:54Z</time>
      </trkpt>
      <trkpt lat="47.79614" lon="-3.5245">
        <ele>10.02</ele>
        <time>2020-07-08T13:08:55Z</time>
      </trkpt>
      <trkpt lat="47.79618" lon="-3.52443">
        <ele>9.52</ele>
        <time>2020-07-08T13:08:56Z</time>
      </trkpt>
      <trkpt lat="47.79623" lon="-3.52435">
        <ele>9.06</ele>
        <time>2020-07-08T13:08:57Z</time>
      </trkpt>
      <trkpt lat="47.79629" lon="-3.52427">
        <ele>8.84</ele>
        <time>2020-07-08T13:08:58Z</time>
      </trkpt>
      <trkpt lat="47.79634" lon="-3.52419">
        <ele>9.12</ele>
        <time>2020-07-08T13:08:59Z</time>
      </trkpt>
      <trkpt lat="47.79639" lon="-3.52409">
        <ele>9.3</ele>
        <time>2020-07-08T13:09:00Z</time>
      </trkpt>
      <trkpt lat="47.79643" lon="-3.52402">
        <ele>9.01</ele>
        <time>2020-07-08T13:09:01Z</time>
      </trkpt>
      <trkpt lat="47.79644" lon="-3.52392">
        <ele>9.09</ele>
        <time>2020-07-08T13:09:02Z</time>
      </trkpt>
      <trkpt lat="47.79645" lon="-3.52383">
        <ele>8.69</ele>
        <time>2020-07-08T13:09:03Z</time>
      </trkpt>
      <trkpt lat="47.79645" lon="-3.52374">
        <ele>7.88</ele>
        <time>2020-07-08T13:09:04Z</time>
      </trkpt>
      <trkpt lat="47.79643" lon="-3.52364">
        <ele>7.1</ele>
        <time>2020-07-08T13:09:05Z</time>
      </trkpt>
      <trkpt lat="47.79641" lon="-3.52355">
        <ele>6.94</ele>
        <time>2020-07-08T13:09:06Z</time>
      </trkpt>
      <trkpt lat="47.79639" lon="-3.5235">
        <ele>7.29</ele>
        <time>2020-07-08T13:09:07Z</time>
      </trkpt>
      <trkpt lat="47.79637" lon="-3.52346">
        <ele>7.98</ele>
        <time>2020-07-08T13:09:08Z</time>
      </trkpt>
      <trkpt lat="47.79635" lon="-3.52343">
        <ele>8.64</ele>
        <time>2020-07-08T13:09:09Z</time>
      </trkpt>
      <trkpt lat="47.79633" lon="-3.52342">
        <ele>9.31</ele>
        <time>2020-07-08T13:09:10Z</time>
      </trkpt>
      <trkpt lat="47.79632" lon="-3.5234">
        <ele>9.87</ele>
        <time>2020-07-08T13:09:12Z</time>
      </trkpt>
      <trkpt lat="47.79631" lon="-3.5234">
        <ele>10.08</ele>
        <time>2020-07-08T13:09:13Z</time>
      </trkpt>
      <trkpt lat="47.79631" lon="-3.5234">
        <ele>10.13</ele>
        <time>2020-07-08T13:09:14Z</time>
      </trkpt>
      <trkpt lat="47.79631" lon="-3.5234">
        <ele>10.15</ele>
        <time>2020-07-08T13:09:15Z</time>
      </trkpt>
      <trkpt lat="47.79631" lon="-3.5234">
        <ele>10.16</ele>
        <time>2020-07-08T13:09:16Z</time>
      </trkpt>
      <trkpt lat="47.79631" lon="-3.5234">
        <ele>10.16</ele>
        <time>2020-07-08T13:09:17Z</time>
      </trkpt>
      <trkpt lat="47.79631" lon="-3.5234">
        <ele>10.16</ele>
        <time>2020-07-08T13:09:18Z</time>
      </trkpt>
      <trkpt lat="47.79631" lon="-3.5234">
        <ele>10.16</ele>
        <time>2020-07-08T13:09:19Z</time>
      </trkpt>
      <trkpt lat="47.79631" lon="-3.5234">
        <ele>10.16</ele>
        <time>2020-07-08T13:09:20Z</time>
      </trkpt>
      <trkpt lat="47.79631" lon="-3.5234">
        <ele>10.16</ele>
        <time>2020-07-08T13:09:21Z</time>
      </trkpt>
      <trkpt lat="47.79631" lon="-3.5234">
        <ele>10.16</ele>
        <time>2020-07-08T13:09:22Z</time>
      </trkpt>
      <trkpt lat="47.79631" lon="-3.5234">
        <ele>10.16</ele>
        <time>2020-07-08T13:09:23Z</time>
      </trkpt>
      <trkpt lat="47.79631" lon="-3.5234">
        <ele>10.16</ele>
        <time>2020-07-08T13:09:24Z</time>
      </trkpt>
      <trkpt lat="47.79631" lon="-3.5234">
        <ele>10.16</ele>
        <time>2020-07-08T13:09:25Z</time>
      </trkpt>
      <trkpt lat="47.79631" lon="-3.5234">
        <ele>10.16</ele>
        <time>2020-07-08T13:09:26Z</time>
      </trkpt>
      <trkpt lat="47.79631" lon="-3.5234">
        <ele>10.16</ele>
        <time>2020-07-08T13:09:27Z</time>
      </trkpt>
      <trkpt lat="47.79631" lon="-3.5234">
        <ele>10.16</ele>
        <time>2020-07-08T13:09:28Z</time>
      </trkpt>
      <trkpt lat="47.79631" lon="-3.5234">
        <ele>10.16</ele>
        <time>2020-07-08T13:09:29Z</time>
      </trkpt>
      <trkpt lat="47.79631" lon="-3.5234">
        <ele>10.16</ele>
        <time>2020-07-08T13:09:30Z</time>
      </trkpt>
      <trkpt lat="47.79631" lon="-3.5234">
        <ele>10.16</ele>
        <time>2020-07-08T13:09:31Z</time>
      </trkpt>
      <trkpt lat="47.79631" lon="-3.5234">
        <ele>10.16</ele>
        <time>2020-07-08T13:09:32Z</time>
      </trkpt>
      <trkpt lat="47.79631" lon="-3.5234">
        <ele>10.16</ele>
        <time>2020-07-08T13:09:33Z</time>
      </trkpt>
      <trkpt lat="47.79631" lon="-3.5234">
        <ele>10.16</ele>
        <time>2020-07-08T13:09:34Z</time>
      </trkpt>
      <trkpt lat="47.79631" lon="-3.5234">
        <ele>10.16</ele>
        <time>2020-07-08T13:09:35Z</time>
      </trkpt>
      <trkpt lat="47.79631" lon="-3.5234">
        <ele>10.16</ele>
        <time>2020-07-08T13:09:36Z</time>
      </trkpt>
      <trkpt lat="47.79631" lon="-3.5234">
        <ele>10.16</ele>
        <time>2020-07-08T13:09:37Z</time>
      </trkpt>
      <trkpt lat="47.79631" lon="-3.5234">
        <ele>10.16</ele>
        <time>2020-07-08T13:09:38Z</time>
      </trkpt>
      <trkpt lat="47.79631" lon="-3.5234">
        <ele>10.16</ele>
        <time>2020-07-08T13:09:39Z</time>
      </trkpt>
      <trkpt lat="47.79631" lon="-3.5234">
        <ele>10.16</ele>
        <time>2020-07-08T13:09:40Z</time>
      </trkpt>
      <trkpt lat="47.79631" lon="-3.5234">
        <ele>10.16</ele>
        <time>2020-07-08T13:09:41Z</time>
      </trkpt>
      <trkpt lat="47.79631" lon="-3.5234">
        <ele>10.16</ele>
        <time>2020-07-08T13:09:42Z</time>
      </trkpt>
      <trkpt lat="47.79631" lon="-3.5234">
        <ele>10.16</ele>
        <time>2020-07-08T13:09:43Z</time>
      </trkpt>
      <trkpt lat="47.79631" lon="-3.5234">
        <ele>10.16</ele>
        <time>2020-07-08T13:09:44Z</time>
      </trkpt>
      <trkpt lat="47.79631" lon="-3.5234">
        <ele>10.16</ele>
        <time>2020-07-08T13:09:45Z</time>
      </trkpt>
      <trkpt lat="47.79631" lon="-3.5234">
        <ele>10.16</ele>
        <time>2020-07-08T13:09:46Z</time>
      </trkpt>
      <trkpt lat="47.79631" lon="-3.5234">
        <ele>10.16</ele>
        <time>2020-07-08T13:09:47Z</time>
      </trkpt>
      <trkpt lat="47.79631" lon="-3.5234">
        <ele>10.16</ele>
        <time>2020-07-08T13:09:48Z</time>
      </trkpt>
      <trkpt lat="47.79631" lon="-3.5234">
        <ele>10.16</ele>
        <time>2020-07-08T13:09:49Z</time>
      </trkpt>
      <trkpt lat="47.79631" lon="-3.5234">
        <ele>10.16</ele>
        <time>2020-07-08T13:09:50Z</time>
      </trkpt>
      <trkpt lat="47.79631" lon="-3.5234">
        <ele>10.16</ele>
        <time>2020-07-08T13:09:51Z</time>
      </trkpt>
      <trkpt lat="47.79631" lon="-3.5234">
        <ele>10.16</ele>
        <time>2020-07-08T13:09:52Z</time>
      </trkpt>
      <trkpt lat="47.79631" lon="-3.5234">
        <ele>10.16</ele>
        <time>2020-07-08T13:09:53Z</time>
      </trkpt>
      <trkpt lat="47.79631" lon="-3.5234">
        <ele>10.16</ele>
        <time>2020-07-08T13:09:54Z</time>
      </trkpt>
      <trkpt lat="47.79631" lon="-3.5234">
        <ele>10.16</ele>
        <time>2020-07-08T13:09:55Z</time>
      </trkpt>
      <trkpt lat="47.79631" lon="-3.5234">
        <ele>10.16</ele>
        <time>2020-07-08T13:09:56Z</time>
      </trkpt>
      <trkpt lat="47.79631" lon="-3.5234">
        <ele>10.16</ele>
        <time>2020-07-08T13:09:57Z</time>
      </trkpt>
      <trkpt lat="47.79631" lon="-3.5234">
        <ele>10.16</ele>
        <time>2020-07-08T13:09:58Z</time>
      </trkpt>
      <trkpt lat="47.79631" lon="-3.5234">
        <ele>10.16</ele>
        <time>2020-07-08T13:09:59Z</time>
      </trkpt>
      <trkpt lat="47.79631" lon="-3.5234">
        <ele>10.16</ele>
        <time>2020-07-08T13:10:00Z</time>
      </trkpt>
      <trkpt lat="47.79631" lon="-3.5234">
        <ele>10.16</ele>
        <time>2020-07-08T13:10:01Z</time>
      </trkpt>
      <trkpt lat="47.79631" lon="-3.5234">
        <ele>10.16</ele>
        <time>2020-07-08T13:10:02Z</time>
      </trkpt>
      <trkpt lat="47.79631" lon="-3.5234">
        <ele>10.16</ele>
        <time>2020-07-08T13:10:03Z</time>
      </trkpt>
      <trkpt lat="47.79631" lon="-3.5234">
        <ele>10.16</ele>
        <time>2020-07-08T13:10:04Z</time>
      </trkpt>
      <trkpt lat="47.79631" lon="-3.5234">
        <ele>10.16</ele>
        <time>2020-07-08T13:10:05Z</time>
      </trkpt>
      <trkpt lat="47.79631" lon="-3.5234">
        <ele>10.16</ele>
        <time>2020-07-08T13:10:06Z</time>
      </trkpt>
      <trkpt lat="47.79631" lon="-3.5234">
        <ele>10.16</ele>
        <time>2020-07-08T13:10:07Z</time>
      </trkpt>
      <trkpt lat="47.79631" lon="-3.5234">
        <ele>10.16</ele>
        <time>2020-07-08T13:10:08Z</time>
      </trkpt>
      <trkpt lat="47.79626" lon="-3.52329">
        <ele>11.86</ele>
        <time>2020-07-08T13:10:09Z</time>
      </trkpt>
      <trkpt lat="47.79625" lon="-3.52327">
        <ele>12.5</ele>
        <time>2020-07-08T13:10:10Z</time>
      </trkpt>
      <trkpt lat="47.79624" lon="-3.52325">
        <ele>12.95</ele>
        <time>2020-07-08T13:10:11Z</time>
      </trkpt>
      <trkpt lat="47.79624" lon="-3.52323">
        <ele>13.27</ele>
        <time>2020-07-08T13:10:12Z</time>
      </trkpt>
      <trkpt lat="47.79625" lon="-3.52321">
        <ele>13.29</ele>
        <time>2020-07-08T13:10:13Z</time>
      </trkpt>
      <trkpt lat="47.79626" lon="-3.52319">
        <ele>13</ele>
        <time>2020-07-08T13:10:14Z</time>
      </trkpt>
      <trkpt lat="47.79627" lon="-3.52317">
        <ele>12.77</ele>
        <time>2020-07-08T13:10:15Z</time>
      </trkpt>
      <trkpt lat="47.79628" lon="-3.52316">
        <ele>12.54</ele>
        <time>2020-07-08T13:10:16Z</time>
      </trkpt>
      <trkpt lat="47.79628" lon="-3.52315">
        <ele>12.38</ele>
        <time>2020-07-08T13:10:17Z</time>
      </trkpt>
      <trkpt lat="47.79628" lon="-3.52315">
        <ele>12.33</ele>
        <time>2020-07-08T13:10:18Z</time>
      </trkpt>
      <trkpt lat="47.79628" lon="-3.52315">
        <ele>12.31</ele>
        <time>2020-07-08T13:10:19Z</time>
      </trkpt>
      <trkpt lat="47.79628" lon="-3.52315">
        <ele>12.31</ele>
        <time>2020-07-08T13:10:20Z</time>
      </trkpt>
      <trkpt lat="47.79628" lon="-3.52315">
        <ele>12.31</ele>
        <time>2020-07-08T13:10:21Z</time>
      </trkpt>
      <trkpt lat="47.79628" lon="-3.52315">
        <ele>12.31</ele>
        <time>2020-07-08T13:10:22Z</time>
      </trkpt>
      <trkpt lat="47.79628" lon="-3.52315">
        <ele>12.31</ele>
        <time>2020-07-08T13:10:23Z</time>
      </trkpt>
      <trkpt lat="47.79628" lon="-3.52315">
        <ele>12.31</ele>
        <time>2020-07-08T13:10:24Z</time>
      </trkpt>
      <trkpt lat="47.79628" lon="-3.52315">
        <ele>12.31</ele>
        <time>2020-07-08T13:10:25Z</time>
      </trkpt>
      <trkpt lat="47.79628" lon="-3.52315">
        <ele>12.31</ele>
        <time>2020-07-08T13:10:26Z</time>
      </trkpt>
      <trkpt lat="47.79628" lon="-3.52315">
        <ele>12.31</ele>
        <time>2020-07-08T13:10:27Z</time>
      </trkpt>
      <trkpt lat="47.79628" lon="-3.52315">
        <ele>12.31</ele>
        <time>2020-07-08T13:10:28Z</time>
      </trkpt>
      <trkpt lat="47.79628" lon="-3.52315">
        <ele>12.31</ele>
        <time>2020-07-08T13:10:29Z</time>
      </trkpt>
      <trkpt lat="47.79628" lon="-3.52315">
        <ele>12.31</ele>
        <time>2020-07-08T13:10:30Z</time>
      </trkpt>
      <trkpt lat="47.79628" lon="-3.52315">
        <ele>12.31</ele>
        <time>2020-07-08T13:10:31Z</time>
      </trkpt>
      <trkpt lat="47.79628" lon="-3.52315">
        <ele>12.31</ele>
        <time>2020-07-08T13:10:32Z</time>
      </trkpt>
      <trkpt lat="47.7962" lon="-3.52311">
        <ele>14.65</ele>
        <time>2020-07-08T13:10:33Z</time>
      </trkpt>
      <trkpt lat="47.79619" lon="-3.52311">
        <ele>15.48</ele>
        <time>2020-07-08T13:10:34Z</time>
      </trkpt>
      <trkpt lat="47.79619" lon="-3.52311">
        <ele>15.78</ele>
        <time>2020-07-08T13:10:35Z</time>
      </trkpt>
      <trkpt lat="47.79619" lon="-3.5231">
        <ele>15.92</ele>
        <time>2020-07-08T13:10:36Z</time>
      </trkpt>
      <trkpt lat="47.79619" lon="-3.5231">
        <ele>15.96</ele>
        <time>2020-07-08T13:10:37Z</time>
      </trkpt>
      <trkpt lat="47.79619" lon="-3.5231">
        <ele>15.98</ele>
        <time>2020-07-08T13:10:38Z</time>
      </trkpt>
      <trkpt lat="47.79619" lon="-3.5231">
        <ele>15.98</ele>
        <time>2020-07-08T13:10:39Z</time>
      </trkpt>
      <trkpt lat="47.79619" lon="-3.5231">
        <ele>15.98</ele>
        <time>2020-07-08T13:10:40Z</time>
      </trkpt>
      <trkpt lat="47.79619" lon="-3.5231">
        <ele>15.98</ele>
        <time>2020-07-08T13:10:41Z</time>
      </trkpt>
      <trkpt lat="47.79619" lon="-3.5231">
        <ele>15.98</ele>
        <time>2020-07-08T13:10:42Z</time>
      </trkpt>
      <trkpt lat="47.79619" lon="-3.5231">
        <ele>15.98</ele>
        <time>2020-07-08T13:10:43Z</time>
      </trkpt>
      <trkpt lat="47.79619" lon="-3.5231">
        <ele>15.98</ele>
        <time>2020-07-08T13:10:44Z</time>
      </trkpt>
      <trkpt lat="47.79619" lon="-3.5231">
        <ele>15.98</ele>
        <time>2020-07-08T13:10:45Z</time>
      </trkpt>
      <trkpt lat="47.79619" lon="-3.5231">
        <ele>15.98</ele>
        <time>2020-07-08T13:10:46Z</time>
      </trkpt>
      <trkpt lat="47.79619" lon="-3.5231">
        <ele>15.98</ele>
        <time>2020-07-08T13:10:47Z</time>
      </trkpt>
      <trkpt lat="47.79619" lon="-3.5231">
        <ele>15.98</ele>
        <time>2020-07-08T13:10:48Z</time>
      </trkpt>
      <trkpt lat="47.79619" lon="-3.5231">
        <ele>15.98</ele>
        <time>2020-07-08T13:10:49Z</time>
      </trkpt>
      <trkpt lat="47.79619" lon="-3.5231">
        <ele>15.98</ele>
        <time>2020-07-08T13:10:50Z</time>
      </trkpt>
      <trkpt lat="47.79619" lon="-3.5231">
        <ele>15.98</ele>
        <time>2020-07-08T13:10:51Z</time>
      </trkpt>
      <trkpt lat="47.79619" lon="-3.5231">
        <ele>15.98</ele>
        <time>2020-07-08T13:10:52Z</time>
      </trkpt>
      <trkpt lat="47.79619" lon="-3.5231">
        <ele>15.98</ele>
        <time>2020-07-08T13:10:53Z</time>
      </trkpt>
      <trkpt lat="47.79619" lon="-3.5231">
        <ele>15.98</ele>
        <time>2020-07-08T13:10:54Z</time>
      </trkpt>
      <trkpt lat="47.79619" lon="-3.5231">
        <ele>15.98</ele>
        <time>2020-07-08T13:10:55Z</time>
      </trkpt>
      <trkpt lat="47.79609" lon="-3.52314">
        <ele>18.01</ele>
        <time>2020-07-08T13:10:56Z</time>
      </trkpt>
      <trkpt lat="47.79608" lon="-3.52315">
        <ele>18.69</ele>
        <time>2020-07-08T13:10:57Z</time>
      </trkpt>
      <trkpt lat="47.79608" lon="-3.52316">
        <ele>18.98</ele>
        <time>2020-07-08T13:10:58Z</time>
      </trkpt>
      <trkpt lat="47.79607" lon="-3.52317">
        <ele>19.17</ele>
        <time>2020-07-08T13:10:59Z</time>
      </trkpt>
      <trkpt lat="47.79607" lon="-3.52317">
        <ele>19.22</ele>
        <time>2020-07-08T13:11:00Z</time>
      </trkpt>
      <trkpt lat="47.79607" lon="-3.52317">
        <ele>19.24</ele>
        <time>2020-07-08T13:11:01Z</time>
      </trkpt>
      <trkpt lat="47.79607" lon="-3.52317">
        <ele>19.25</ele>
        <time>2020-07-08T13:11:02Z</time>
      </trkpt>
      <trkpt lat="47.79607" lon="-3.52317">
        <ele>19.25</ele>
        <time>2020-07-08T13:11:03Z</time>
      </trkpt>
      <trkpt lat="47.79607" lon="-3.52317">
        <ele>19.25</ele>
        <time>2020-07-08T13:11:04Z</time>
      </trkpt>
      <trkpt lat="47.79607" lon="-3.52317">
        <ele>19.25</ele>
        <time>2020-07-08T13:11:05Z</time>
      </trkpt>
      <trkpt lat="47.79607" lon="-3.52317">
        <ele>19.25</ele>
        <time>2020-07-08T13:11:06Z</time>
      </trkpt>
      <trkpt lat="47.79607" lon="-3.52317">
        <ele>19.25</ele>
        <time>2020-07-08T13:11:07Z</time>
      </trkpt>
      <trkpt lat="47.79607" lon="-3.52317">
        <ele>19.25</ele>
        <time>2020-07-08T13:11:08Z</time>
      </trkpt>
      <trkpt lat="47.79607" lon="-3.52317">
        <ele>19.25</ele>
        <time>2020-07-08T13:11:09Z</time>
      </trkpt>
      <trkpt lat="47.79607" lon="-3.52317">
        <ele>19.25</ele>
        <time>2020-07-08T13:11:10Z</time>
      </trkpt>
      <trkpt lat="47.79607" lon="-3.52317">
        <ele>19.25</ele>
        <time>2020-07-08T13:11:11Z</time>
      </trkpt>
      <trkpt lat="47.79607" lon="-3.52317">
        <ele>19.25</ele>
        <time>2020-07-08T13:11:12Z</time>
      </trkpt>
      <trkpt lat="47.79607" lon="-3.52317">
        <ele>19.25</ele>
        <time>2020-07-08T13:11:13Z</time>
      </trkpt>
      <trkpt lat="47.79607" lon="-3.52317">
        <ele>19.25</ele>
        <time>2020-07-08T13:11:14Z</time>
      </trkpt>
      <trkpt lat="47.79607" lon="-3.52317">
        <ele>19.25</ele>
        <time>2020-07-08T13:11:15Z</time>
      </trkpt>
      <trkpt lat="47.79602" lon="-3.52323">
        <ele>19.85</ele>
        <time>2020-07-08T13:11:16Z</time>
      </trkpt>
      <trkpt lat="47.796" lon="-3.52327">
        <ele>20.14</ele>
        <time>2020-07-08T13:11:17Z</time>
      </trkpt>
      <trkpt lat="47.79599" lon="-3.52331">
        <ele>20.25</ele>
        <time>2020-07-08T13:11:18Z</time>
      </trkpt>
      <trkpt lat="47.79598" lon="-3.52334">
        <ele>20.24</ele>
        <time>2020-07-08T13:11:19Z</time>
      </trkpt>
      <trkpt lat="47.79597" lon="-3.52337">
        <ele>20.28</ele>
        <time>2020-07-08T13:11:20Z</time>
      </trkpt>
      <trkpt lat="47.79597" lon="-3.5234">
        <ele>20.4</ele>
        <time>2020-07-08T13:11:21Z</time>
      </trkpt>
      <trkpt lat="47.79596" lon="-3.52342">
        <ele>20.53</ele>
        <time>2020-07-08T13:11:22Z</time>
      </trkpt>
      <trkpt lat="47.79596" lon="-3.52345">
        <ele>20.46</ele>
        <time>2020-07-08T13:11:23Z</time>
      </trkpt>
      <trkpt lat="47.79596" lon="-3.52347">
        <ele>20.38</ele>
        <time>2020-07-08T13:11:24Z</time>
      </trkpt>
      <trkpt lat="47.79597" lon="-3.52349">
        <ele>20.11</ele>
        <time>2020-07-08T13:11:25Z</time>
      </trkpt>
      <trkpt lat="47.79599" lon="-3.52353">
        <ele>19.61</ele>
        <time>2020-07-08T13:11:26Z</time>
      </trkpt>
      <trkpt lat="47.79601" lon="-3.52356">
        <ele>19.05</ele>
        <time>2020-07-08T13:11:27Z</time>
      </trkpt>
      <trkpt lat="47.79602" lon="-3.52359">
        <ele>18.63</ele>
        <time>2020-07-08T13:11:28Z</time>
      </trkpt>
      <trkpt lat="47.79601" lon="-3.52362">
        <ele>18.57</ele>
        <time>2020-07-08T13:11:29Z</time>
      </trkpt>
      <trkpt lat="47.796" lon="-3.52364">
        <ele>18.59</ele>
        <time>2020-07-08T13:11:30Z</time>
      </trkpt>
      <trkpt lat="47.79598" lon="-3.52364">
        <ele>18.91</ele>
        <time>2020-07-08T13:11:31Z</time>
      </trkpt>
      <trkpt lat="47.79596" lon="-3.52366">
        <ele>19.16</ele>
        <time>2020-07-08T13:11:32Z</time>
      </trkpt>
      <trkpt lat="47.79594" lon="-3.52367">
        <ele>19.44</ele>
        <time>2020-07-08T13:11:33Z</time>
      </trkpt>
      <trkpt lat="47.79591" lon="-3.52368">
        <ele>19.89</ele>
        <time>2020-07-08T13:11:34Z</time>
      </trkpt>
      <trkpt lat="47.79589" lon="-3.52369">
        <ele>20.22</ele>
        <time>2020-07-08T13:11:35Z</time>
      </trkpt>
      <trkpt lat="47.79588" lon="-3.5237">
        <ele>20.38</ele>
        <time>2020-07-08T13:11:36Z</time>
      </trkpt>
      <trkpt lat="47.79588" lon="-3.52373">
        <ele>20.15</ele>
        <time>2020-07-08T13:11:37Z</time>
      </trkpt>
      <trkpt lat="47.79588" lon="-3.52375">
        <ele>19.78</ele>
        <time>2020-07-08T13:11:38Z</time>
      </trkpt>
      <trkpt lat="47.79589" lon="-3.52376">
        <ele>19.41</ele>
        <time>2020-07-08T13:11:39Z</time>
      </trkpt>
      <trkpt lat="47.79591" lon="-3.52377">
        <ele>18.92</ele>
        <time>2020-07-08T13:11:40Z</time>
      </trkpt>
      <trkpt lat="47.79594" lon="-3.52377">
        <ele>18.52</ele>
        <time>2020-07-08T13:11:41Z</time>
      </trkpt>
      <trkpt lat="47.79597" lon="-3.52376">
        <ele>18.12</ele>
        <time>2020-07-08T13:11:42Z</time>
      </trkpt>
      <trkpt lat="47.79601" lon="-3.52374">
        <ele>17.64</ele>
        <time>2020-07-08T13:11:43Z</time>
      </trkpt>
      <trkpt lat="47.79605" lon="-3.52373">
        <ele>17.03</ele>
        <time>2020-07-08T13:11:44Z</time>
      </trkpt>
      <trkpt lat="47.7961" lon="-3.52372">
        <ele>16.18</ele>
        <time>2020-07-08T13:11:45Z</time>
      </trkpt>
      <trkpt lat="47.79615" lon="-3.5237">
        <ele>15.04</ele>
        <time>2020-07-08T13:11:46Z</time>
      </trkpt>
      <trkpt lat="47.7962" lon="-3.52369">
        <ele>13.81</ele>
        <time>2020-07-08T13:11:47Z</time>
      </trkpt>
      <trkpt lat="47.79625" lon="-3.52367">
        <ele>12.48</ele>
        <time>2020-07-08T13:11:48Z</time>
      </trkpt>
      <trkpt lat="47.79629" lon="-3.52365">
        <ele>11.16</ele>
        <time>2020-07-08T13:11:49Z</time>
      </trkpt>
      <trkpt lat="47.79633" lon="-3.52364">
        <ele>9.73</ele>
        <time>2020-07-08T13:11:50Z</time>
      </trkpt>
      <trkpt lat="47.79638" lon="-3.52363">
        <ele>8.15</ele>
        <time>2020-07-08T13:11:51Z</time>
      </trkpt>
      <trkpt lat="47.79643" lon="-3.52362">
        <ele>6.99</ele>
        <time>2020-07-08T13:11:52Z</time>
      </trkpt>
      <trkpt lat="47.79648" lon="-3.5236">
        <ele>6.09</ele>
        <time>2020-07-08T13:11:53Z</time>
      </trkpt>
      <trkpt lat="47.79652" lon="-3.52359">
        <ele>5.33</ele>
        <time>2020-07-08T13:11:54Z</time>
      </trkpt>
      <trkpt lat="47.79657" lon="-3.52358">
        <ele>4.56</ele>
        <time>2020-07-08T13:11:55Z</time>
      </trkpt>
      <trkpt lat="47.79661" lon="-3.52356">
        <ele>3.74</ele>
        <time>2020-07-08T13:11:56Z</time>
      </trkpt>
      <trkpt lat="47.79666" lon="-3.52355">
        <ele>2.86</ele>
        <time>2020-07-08T13:11:57Z</time>
      </trkpt>
      <trkpt lat="47.7967" lon="-3.52353">
        <ele>2.53</ele>
        <time>2020-07-08T13:11:58Z</time>
      </trkpt>
      <trkpt lat="47.79675" lon="-3.52351">
        <ele>2.57</ele>
        <time>2020-07-08T13:11:59Z</time>
      </trkpt>
      <trkpt lat="47.79679" lon="-3.52349">
        <ele>2.72</ele>
        <time>2020-07-08T13:12:00Z</time>
      </trkpt>
      <trkpt lat="47.79684" lon="-3.52347">
        <ele>2.96</ele>
        <time>2020-07-08T13:12:01Z</time>
      </trkpt>
      <trkpt lat="47.79689" lon="-3.52346">
        <ele>3.24</ele>
        <time>2020-07-08T13:12:02Z</time>
      </trkpt>
      <trkpt lat="47.79693" lon="-3.52344">
        <ele>3.54</ele>
        <time>2020-07-08T13:12:03Z</time>
      </trkpt>
      <trkpt lat="47.79699" lon="-3.52342">
        <ele>3.67</ele>
        <time>2020-07-08T13:12:04Z</time>
      </trkpt>
      <trkpt lat="47.79703" lon="-3.5234">
        <ele>3.71</ele>
        <time>2020-07-08T13:12:05Z</time>
      </trkpt>
      <trkpt lat="47.79708" lon="-3.52339">
        <ele>3.76</ele>
        <time>2020-07-08T13:12:06Z</time>
      </trkpt>
      <trkpt lat="47.79712" lon="-3.52337">
        <ele>3.82</ele>
        <time>2020-07-08T13:12:07Z</time>
      </trkpt>
      <trkpt lat="47.79717" lon="-3.52336">
        <ele>3.9</ele>
        <time>2020-07-08T13:12:08Z</time>
      </trkpt>
      <trkpt lat="47.79722" lon="-3.52334">
        <ele>3.99</ele>
        <time>2020-07-08T13:12:09Z</time>
      </trkpt>
      <trkpt lat="47.79727" lon="-3.52332">
        <ele>4.12</ele>
        <time>2020-07-08T13:12:10Z</time>
      </trkpt>
      <trkpt lat="47.79732" lon="-3.5233">
        <ele>4.15</ele>
        <time>2020-07-08T13:12:11Z</time>
      </trkpt>
      <trkpt lat="47.79736" lon="-3.52328">
        <ele>4.1</ele>
        <time>2020-07-08T13:12:12Z</time>
      </trkpt>
      <trkpt lat="47.79741" lon="-3.52326">
        <ele>3.99</ele>
        <time>2020-07-08T13:12:13Z</time>
      </trkpt>
      <trkpt lat="47.79746" lon="-3.52324">
        <ele>3.83</ele>
        <time>2020-07-08T13:12:14Z</time>
      </trkpt>
      <trkpt lat="47.79751" lon="-3.52322">
        <ele>3.62</ele>
        <time>2020-07-08T13:12:15Z</time>
      </trkpt>
      <trkpt lat="47.79756" lon="-3.5232">
        <ele>3.19</ele>
        <time>2020-07-08T13:12:16Z</time>
      </trkpt>
      <trkpt lat="47.79761" lon="-3.52318">
        <ele>2.72</ele>
        <time>2020-07-08T13:12:17Z</time>
      </trkpt>
      <trkpt lat="47.79766" lon="-3.52316">
        <ele>2.24</ele>
        <time>2020-07-08T13:12:18Z</time>
      </trkpt>
      <trkpt lat="47.79771" lon="-3.52314">
        <ele>1.79</ele>
        <time>2020-07-08T13:12:19Z</time>
      </trkpt>
      <trkpt lat="47.79776" lon="-3.52312">
        <ele>1.4</ele>
        <time>2020-07-08T13:12:20Z</time>
      </trkpt>
      <trkpt lat="47.79781" lon="-3.52311">
        <ele>1.5</ele>
        <time>2020-07-08T13:12:21Z</time>
      </trkpt>
      <trkpt lat="47.79786" lon="-3.5231">
        <ele>1.97</ele>
        <time>2020-07-08T13:12:22Z</time>
      </trkpt>
      <trkpt lat="47.79791" lon="-3.52308">
        <ele>2.54</ele>
        <time>2020-07-08T13:12:23Z</time>
      </trkpt>
      <trkpt lat="47.79797" lon="-3.52307">
        <ele>3.24</ele>
        <time>2020-07-08T13:12:24Z</time>
      </trkpt>
      <trkpt lat="47.79802" lon="-3.52305">
        <ele>4.01</ele>
        <time>2020-07-08T13:12:25Z</time>
      </trkpt>
      <trkpt lat="47.79807" lon="-3.52304">
        <ele>4.95</ele>
        <time>2020-07-08T13:12:26Z</time>
      </trkpt>
      <trkpt lat="47.79813" lon="-3.52303">
        <ele>6.14</ele>
        <time>2020-07-08T13:12:27Z</time>
      </trkpt>
      <trkpt lat="47.79818" lon="-3.52302">
        <ele>7.36</ele>
        <time>2020-07-08T13:12:28Z</time>
      </trkpt>
      <trkpt lat="47.79823" lon="-3.52301">
        <ele>8.56</ele>
        <time>2020-07-08T13:12:29Z</time>
      </trkpt>
      <trkpt lat="47.79828" lon="-3.52299">
        <ele>9.66</ele>
        <time>2020-07-08T13:12:30Z</time>
      </trkpt>
      <trkpt lat="47.79832" lon="-3.52298">
        <ele>10.62</ele>
        <time>2020-07-08T13:12:31Z</time>
      </trkpt>
      <trkpt lat="47.79837" lon="-3.52297">
        <ele>11.21</ele>
        <time>2020-07-08T13:12:32Z</time>
      </trkpt>
      <trkpt lat="47.79841" lon="-3.52298">
        <ele>11.85</ele>
        <time>2020-07-08T13:12:33Z</time>
      </trkpt>
      <trkpt lat="47.79843" lon="-3.52302">
        <ele>12.69</ele>
        <time>2020-07-08T13:12:34Z</time>
      </trkpt>
      <trkpt lat="47.79843" lon="-3.52307">
        <ele>13.49</ele>
        <time>2020-07-08T13:12:35Z</time>
      </trkpt>
      <trkpt lat="47.79841" lon="-3.52312">
        <ele>13.9</ele>
        <time>2020-07-08T13:12:36Z</time>
      </trkpt>
      <trkpt lat="47.79837" lon="-3.52317">
        <ele>14.07</ele>
        <time>2020-07-08T13:12:37Z</time>
      </trkpt>
      <trkpt lat="47.79834" lon="-3.52321">
        <ele>14.15</ele>
        <time>2020-07-08T13:12:38Z</time>
      </trkpt>
      <trkpt lat="47.7983" lon="-3.52326">
        <ele>13.88</ele>
        <time>2020-07-08T13:12:39Z</time>
      </trkpt>
      <trkpt lat="47.79827" lon="-3.52331">
        <ele>13.53</ele>
        <time>2020-07-08T13:12:40Z</time>
      </trkpt>
      <trkpt lat="47.79824" lon="-3.52337">
        <ele>13.2</ele>
        <time>2020-07-08T13:12:41Z</time>
      </trkpt>
      <trkpt lat="47.7982" lon="-3.52342">
        <ele>12.82</ele>
        <time>2020-07-08T13:12:42Z</time>
      </trkpt>
      <trkpt lat="47.79817" lon="-3.52348">
        <ele>12.53</ele>
        <time>2020-07-08T13:12:43Z</time>
      </trkpt>
      <trkpt lat="47.79815" lon="-3.52357">
        <ele>12.48</ele>
        <time>2020-07-08T13:12:44Z</time>
      </trkpt>
      <trkpt lat="47.79813" lon="-3.52364">
        <ele>12.44</ele>
        <time>2020-07-08T13:12:45Z</time>
      </trkpt>
      <trkpt lat="47.7981" lon="-3.52371">
        <ele>12.25</ele>
        <time>2020-07-08T13:12:46Z</time>
      </trkpt>
      <trkpt lat="47.79808" lon="-3.52376">
        <ele>12.05</ele>
        <time>2020-07-08T13:12:47Z</time>
      </trkpt>
      <trkpt lat="47.79806" lon="-3.52381">
        <ele>11.84</ele>
        <time>2020-07-08T13:12:48Z</time>
      </trkpt>
      <trkpt lat="47.79804" lon="-3.52386">
        <ele>11.58</ele>
        <time>2020-07-08T13:12:49Z</time>
      </trkpt>
      <trkpt lat="47.79804" lon="-3.52389">
        <ele>11.35</ele>
        <time>2020-07-08T13:12:50Z</time>
      </trkpt>
      <trkpt lat="47.79802" lon="-3.5239">
        <ele>10.82</ele>
        <time>2020-07-08T13:12:51Z</time>
      </trkpt>
      <trkpt lat="47.79801" lon="-3.52392">
        <ele>10.4</ele>
        <time>2020-07-08T13:12:52Z</time>
      </trkpt>
      <trkpt lat="47.798" lon="-3.52393">
        <ele>10.04</ele>
        <time>2020-07-08T13:12:53Z</time>
      </trkpt>
      <trkpt lat="47.798" lon="-3.52395">
        <ele>9.86</ele>
        <time>2020-07-08T13:12:54Z</time>
      </trkpt>
      <trkpt lat="47.798" lon="-3.52399">
        <ele>9.82</ele>
        <time>2020-07-08T13:12:55Z</time>
      </trkpt>
      <trkpt lat="47.798" lon="-3.52404">
        <ele>9.75</ele>
        <time>2020-07-08T13:12:56Z</time>
      </trkpt>
      <trkpt lat="47.79798" lon="-3.52409">
        <ele>9.5</ele>
        <time>2020-07-08T13:12:57Z</time>
      </trkpt>
      <trkpt lat="47.79797" lon="-3.52415">
        <ele>9.08</ele>
        <time>2020-07-08T13:12:58Z</time>
      </trkpt>
      <trkpt lat="47.79795" lon="-3.5242">
        <ele>8.6</ele>
        <time>2020-07-08T13:12:59Z</time>
      </trkpt>
      <trkpt lat="47.79793" lon="-3.52426">
        <ele>8.09</ele>
        <time>2020-07-08T13:13:00Z</time>
      </trkpt>
      <trkpt lat="47.79791" lon="-3.52432">
        <ele>7.63</ele>
        <time>2020-07-08T13:13:01Z</time>
      </trkpt>
      <trkpt lat="47.79789" lon="-3.52438">
        <ele>7.06</ele>
        <time>2020-07-08T13:13:02Z</time>
      </trkpt>
      <trkpt lat="47.79787" lon="-3.52444">
        <ele>6.45</ele>
        <time>2020-07-08T13:13:03Z</time>
      </trkpt>
      <trkpt lat="47.79784" lon="-3.5245">
        <ele>6.04</ele>
        <time>2020-07-08T13:13:04Z</time>
      </trkpt>
      <trkpt lat="47.79783" lon="-3.52457">
        <ele>5.87</ele>
        <time>2020-07-08T13:13:05Z</time>
      </trkpt>
      <trkpt lat="47.79781" lon="-3.52464">
        <ele>5.78</ele>
        <time>2020-07-08T13:13:06Z</time>
      </trkpt>
      <trkpt lat="47.7978" lon="-3.52472">
        <ele>5.76</ele>
        <time>2020-07-08T13:13:07Z</time>
      </trkpt>
      <trkpt lat="47.79778" lon="-3.52481">
        <ele>5.85</ele>
        <time>2020-07-08T13:13:08Z</time>
      </trkpt>
      <trkpt lat="47.79776" lon="-3.52489">
        <ele>6.17</ele>
        <time>2020-07-08T13:13:09Z</time>
      </trkpt>
      <trkpt lat="47.79774" lon="-3.52496">
        <ele>6.44</ele>
        <time>2020-07-08T13:13:10Z</time>
      </trkpt>
      <trkpt lat="47.79772" lon="-3.52503">
        <ele>6.46</ele>
        <time>2020-07-08T13:13:11Z</time>
      </trkpt>
      <trkpt lat="47.7977" lon="-3.5251">
        <ele>6.35</ele>
        <time>2020-07-08T13:13:12Z</time>
      </trkpt>
      <trkpt lat="47.79769" lon="-3.52516">
        <ele>6.21</ele>
        <time>2020-07-08T13:13:13Z</time>
      </trkpt>
      <trkpt lat="47.79767" lon="-3.52522">
        <ele>5.94</ele>
        <time>2020-07-08T13:13:14Z</time>
      </trkpt>
      <trkpt lat="47.79765" lon="-3.52529">
        <ele>5.61</ele>
        <time>2020-07-08T13:13:15Z</time>
      </trkpt>
      <trkpt lat="47.79762" lon="-3.52536">
        <ele>5.57</ele>
        <time>2020-07-08T13:13:16Z</time>
      </trkpt>
      <trkpt lat="47.7976" lon="-3.52543">
        <ele>5.63</ele>
        <time>2020-07-08T13:13:17Z</time>
      </trkpt>
      <trkpt lat="47.79758" lon="-3.5255">
        <ele>5.61</ele>
        <time>2020-07-08T13:13:18Z</time>
      </trkpt>
      <trkpt lat="47.79757" lon="-3.52557">
        <ele>5.54</ele>
        <time>2020-07-08T13:13:19Z</time>
      </trkpt>
      <trkpt lat="47.79755" lon="-3.52564">
        <ele>5.46</ele>
        <time>2020-07-08T13:13:20Z</time>
      </trkpt>
      <trkpt lat="47.79754" lon="-3.5257">
        <ele>5.45</ele>
        <time>2020-07-08T13:13:21Z</time>
      </trkpt>
      <trkpt lat="47.79753" lon="-3.52576">
        <ele>5.45</ele>
        <time>2020-07-08T13:13:22Z</time>
      </trkpt>
      <trkpt lat="47.79753" lon="-3.52583">
        <ele>5.54</ele>
        <time>2020-07-08T13:13:23Z</time>
      </trkpt>
      <trkpt lat="47.79753" lon="-3.52589">
        <ele>6.02</ele>
        <time>2020-07-08T13:13:24Z</time>
      </trkpt>
      <trkpt lat="47.79754" lon="-3.52595">
        <ele>6.66</ele>
        <time>2020-07-08T13:13:25Z</time>
      </trkpt>
      <trkpt lat="47.79755" lon="-3.52601">
        <ele>7.68</ele>
        <time>2020-07-08T13:13:26Z</time>
      </trkpt>
      <trkpt lat="47.79756" lon="-3.52607">
        <ele>8.79</ele>
        <time>2020-07-08T13:13:27Z</time>
      </trkpt>
      <trkpt lat="47.79757" lon="-3.52612">
        <ele>9.62</ele>
        <time>2020-07-08T13:13:28Z</time>
      </trkpt>
      <trkpt lat="47.79758" lon="-3.52617">
        <ele>10.44</ele>
        <time>2020-07-08T13:13:29Z</time>
      </trkpt>
      <trkpt lat="47.79757" lon="-3.52622">
        <ele>10.57</ele>
        <time>2020-07-08T13:13:30Z</time>
      </trkpt>
      <trkpt lat="47.79756" lon="-3.52626">
        <ele>10.47</ele>
        <time>2020-07-08T13:13:31Z</time>
      </trkpt>
      <trkpt lat="47.79754" lon="-3.52631">
        <ele>9.93</ele>
        <time>2020-07-08T13:13:32Z</time>
      </trkpt>
      <trkpt lat="47.79752" lon="-3.52634">
        <ele>9.31</ele>
        <time>2020-07-08T13:13:33Z</time>
      </trkpt>
      <trkpt lat="47.79751" lon="-3.52638">
        <ele>8.54</ele>
        <time>2020-07-08T13:13:34Z</time>
      </trkpt>
      <trkpt lat="47.79749" lon="-3.52642">
        <ele>8.28</ele>
        <time>2020-07-08T13:13:35Z</time>
      </trkpt>
      <trkpt lat="47.79747" lon="-3.52646">
        <ele>8.25</ele>
        <time>2020-07-08T13:13:36Z</time>
      </trkpt>
      <trkpt lat="47.79747" lon="-3.52649">
        <ele>8.51</ele>
        <time>2020-07-08T13:13:37Z</time>
      </trkpt>
      <trkpt lat="47.79746" lon="-3.52652">
        <ele>8.67</ele>
        <time>2020-07-08T13:13:38Z</time>
      </trkpt>
      <trkpt lat="47.79745" lon="-3.52655">
        <ele>8.82</ele>
        <time>2020-07-08T13:13:39Z</time>
      </trkpt>
      <trkpt lat="47.79744" lon="-3.52657">
        <ele>8.86</ele>
        <time>2020-07-08T13:13:40Z</time>
      </trkpt>
      <trkpt lat="47.79744" lon="-3.52659">
        <ele>8.88</ele>
        <time>2020-07-08T13:13:41Z</time>
      </trkpt>
      <trkpt lat="47.79743" lon="-3.52661">
        <ele>8.87</ele>
        <time>2020-07-08T13:13:42Z</time>
      </trkpt>
      <trkpt lat="47.79742" lon="-3.52665">
        <ele>9.04</ele>
        <time>2020-07-08T13:13:43Z</time>
      </trkpt>
      <trkpt lat="47.79742" lon="-3.52667">
        <ele>9.16</ele>
        <time>2020-07-08T13:13:44Z</time>
      </trkpt>
      <trkpt lat="47.79741" lon="-3.52669">
        <ele>9.33</ele>
        <time>2020-07-08T13:13:45Z</time>
      </trkpt>
      <trkpt lat="47.79741" lon="-3.52672">
        <ele>9.73</ele>
        <time>2020-07-08T13:13:46Z</time>
      </trkpt>
      <trkpt lat="47.79741" lon="-3.52675">
        <ele>10.11</ele>
        <time>2020-07-08T13:13:47Z</time>
      </trkpt>
      <trkpt lat="47.7974" lon="-3.52677">
        <ele>10.39</ele>
        <time>2020-07-08T13:13:48Z</time>
      </trkpt>
      <trkpt lat="47.79739" lon="-3.5268">
        <ele>10.4</ele>
        <time>2020-07-08T13:13:49Z</time>
      </trkpt>
      <trkpt lat="47.79738" lon="-3.52682">
        <ele>10.38</ele>
        <time>2020-07-08T13:13:50Z</time>
      </trkpt>
      <trkpt lat="47.79736" lon="-3.52685">
        <ele>10.33</ele>
        <time>2020-07-08T13:13:51Z</time>
      </trkpt>
      <trkpt lat="47.79735" lon="-3.52688">
        <ele>10.05</ele>
        <time>2020-07-08T13:13:52Z</time>
      </trkpt>
      <trkpt lat="47.79734" lon="-3.52691">
        <ele>10.02</ele>
        <time>2020-07-08T13:13:53Z</time>
      </trkpt>
      <trkpt lat="47.79733" lon="-3.52694">
        <ele>10.12</ele>
        <time>2020-07-08T13:13:54Z</time>
      </trkpt>
      <trkpt lat="47.79733" lon="-3.52697">
        <ele>10.43</ele>
        <time>2020-07-08T13:13:55Z</time>
      </trkpt>
      <trkpt lat="47.79732" lon="-3.52701">
        <ele>10.72</ele>
        <time>2020-07-08T13:13:56Z</time>
      </trkpt>
      <trkpt lat="47.79731" lon="-3.52704">
        <ele>11</ele>
        <time>2020-07-08T13:13:57Z</time>
      </trkpt>
      <trkpt lat="47.79729" lon="-3.52707">
        <ele>10.88</ele>
        <time>2020-07-08T13:13:58Z</time>
      </trkpt>
      <trkpt lat="47.79728" lon="-3.5271">
        <ele>10.83</ele>
        <time>2020-07-08T13:13:59Z</time>
      </trkpt>
      <trkpt lat="47.79727" lon="-3.52713">
        <ele>10.8</ele>
        <time>2020-07-08T13:14:00Z</time>
      </trkpt>
      <trkpt lat="47.79726" lon="-3.52717">
        <ele>10.96</ele>
        <time>2020-07-08T13:14:01Z</time>
      </trkpt>
      <trkpt lat="47.79725" lon="-3.5272">
        <ele>11.12</ele>
        <time>2020-07-08T13:14:02Z</time>
      </trkpt>
      <trkpt lat="47.79725" lon="-3.52723">
        <ele>11.55</ele>
        <time>2020-07-08T13:14:03Z</time>
      </trkpt>
      <trkpt lat="47.79725" lon="-3.52726">
        <ele>11.96</ele>
        <time>2020-07-08T13:14:04Z</time>
      </trkpt>
      <trkpt lat="47.79724" lon="-3.52728">
        <ele>12.09</ele>
        <time>2020-07-08T13:14:05Z</time>
      </trkpt>
      <trkpt lat="47.79723" lon="-3.52731">
        <ele>12.17</ele>
        <time>2020-07-08T13:14:06Z</time>
      </trkpt>
      <trkpt lat="47.79722" lon="-3.52735">
        <ele>12.35</ele>
        <time>2020-07-08T13:14:07Z</time>
      </trkpt>
      <trkpt lat="47.79722" lon="-3.52739">
        <ele>12.67</ele>
        <time>2020-07-08T13:14:08Z</time>
      </trkpt>
      <trkpt lat="47.79721" lon="-3.52742">
        <ele>12.98</ele>
        <time>2020-07-08T13:14:09Z</time>
      </trkpt>
      <trkpt lat="47.7972" lon="-3.52747">
        <ele>13.14</ele>
        <time>2020-07-08T13:14:10Z</time>
      </trkpt>
      <trkpt lat="47.79719" lon="-3.52751">
        <ele>13.19</ele>
        <time>2020-07-08T13:14:11Z</time>
      </trkpt>
      <trkpt lat="47.79717" lon="-3.52754">
        <ele>13.31</ele>
        <time>2020-07-08T13:14:12Z</time>
      </trkpt>
      <trkpt lat="47.79716" lon="-3.52757">
        <ele>13.36</ele>
        <time>2020-07-08T13:14:13Z</time>
      </trkpt>
      <trkpt lat="47.79714" lon="-3.52759">
        <ele>13.27</ele>
        <time>2020-07-08T13:14:14Z</time>
      </trkpt>
      <trkpt lat="47.79712" lon="-3.52762">
        <ele>13.19</ele>
        <time>2020-07-08T13:14:15Z</time>
      </trkpt>
      <trkpt lat="47.79711" lon="-3.52764">
        <ele>13.16</ele>
        <time>2020-07-08T13:14:16Z</time>
      </trkpt>
      <trkpt lat="47.79709" lon="-3.52766">
        <ele>13.15</ele>
        <time>2020-07-08T13:14:17Z</time>
      </trkpt>
      <trkpt lat="47.79706" lon="-3.52768">
        <ele>12.97</ele>
        <time>2020-07-08T13:14:18Z</time>
      </trkpt>
      <trkpt lat="47.79703" lon="-3.5277">
        <ele>12.63</ele>
        <time>2020-07-08T13:14:19Z</time>
      </trkpt>
      <trkpt lat="47.797" lon="-3.5277">
        <ele>11.92</ele>
        <time>2020-07-08T13:14:20Z</time>
      </trkpt>
      <trkpt lat="47.79698" lon="-3.52771">
        <ele>11.1</ele>
        <time>2020-07-08T13:14:21Z</time>
      </trkpt>
      <trkpt lat="47.79695" lon="-3.52771">
        <ele>10.17</ele>
        <time>2020-07-08T13:14:22Z</time>
      </trkpt>
      <trkpt lat="47.7969" lon="-3.52771">
        <ele>9.33</ele>
        <time>2020-07-08T13:14:23Z</time>
      </trkpt>
      <trkpt lat="47.79687" lon="-3.52771">
        <ele>8.43</ele>
        <time>2020-07-08T13:14:24Z</time>
      </trkpt>
      <trkpt lat="47.79684" lon="-3.5277">
        <ele>7.62</ele>
        <time>2020-07-08T13:14:25Z</time>
      </trkpt>
      <trkpt lat="47.79681" lon="-3.52772">
        <ele>7.3</ele>
        <time>2020-07-08T13:14:26Z</time>
      </trkpt>
      <trkpt lat="47.79678" lon="-3.52774">
        <ele>7.13</ele>
        <time>2020-07-08T13:14:27Z</time>
      </trkpt>
      <trkpt lat="47.79675" lon="-3.52775">
        <ele>6.74</ele>
        <time>2020-07-08T13:14:28Z</time>
      </trkpt>
      <trkpt lat="47.79672" lon="-3.52775">
        <ele>6.05</ele>
        <time>2020-07-08T13:14:29Z</time>
      </trkpt>
      <trkpt lat="47.79668" lon="-3.52775">
        <ele>5.19</ele>
        <time>2020-07-08T13:14:30Z</time>
      </trkpt>
      <trkpt lat="47.79663" lon="-3.52777">
        <ele>4.44</ele>
        <time>2020-07-08T13:14:31Z</time>
      </trkpt>
      <trkpt lat="47.79658" lon="-3.52779">
        <ele>3.94</ele>
        <time>2020-07-08T13:14:32Z</time>
      </trkpt>
      <trkpt lat="47.79652" lon="-3.52781">
        <ele>3.56</ele>
        <time>2020-07-08T13:14:33Z</time>
      </trkpt>
      <trkpt lat="47.79648" lon="-3.52784">
        <ele>3.3</ele>
        <time>2020-07-08T13:14:34Z</time>
      </trkpt>
      <trkpt lat="47.79644" lon="-3.52786">
        <ele>3.1</ele>
        <time>2020-07-08T13:14:35Z</time>
      </trkpt>
      <trkpt lat="47.7964" lon="-3.52788">
        <ele>2.94</ele>
        <time>2020-07-08T13:14:36Z</time>
      </trkpt>
      <trkpt lat="47.79636" lon="-3.5279">
        <ele>3.03</ele>
        <time>2020-07-08T13:14:37Z</time>
      </trkpt>
      <trkpt lat="47.79631" lon="-3.52793">
        <ele>3.58</ele>
        <time>2020-07-08T13:14:38Z</time>
      </trkpt>
      <trkpt lat="47.79627" lon="-3.52796">
        <ele>4.07</ele>
        <time>2020-07-08T13:14:39Z</time>
      </trkpt>
      <trkpt lat="47.79625" lon="-3.528">
        <ele>4.91</ele>
        <time>2020-07-08T13:14:40Z</time>
      </trkpt>
      <trkpt lat="47.79621" lon="-3.52803">
        <ele>5.55</ele>
        <time>2020-07-08T13:14:41Z</time>
      </trkpt>
      <trkpt lat="47.79618" lon="-3.52806">
        <ele>6.1</ele>
        <time>2020-07-08T13:14:42Z</time>
      </trkpt>
      <trkpt lat="47.79616" lon="-3.52809">
        <ele>6.68</ele>
        <time>2020-07-08T13:14:43Z</time>
      </trkpt>
      <trkpt lat="47.79613" lon="-3.52812">
        <ele>7.3</ele>
        <time>2020-07-08T13:14:44Z</time>
      </trkpt>
      <trkpt lat="47.79611" lon="-3.52815">
        <ele>7.77</ele>
        <time>2020-07-08T13:14:45Z</time>
      </trkpt>
      <trkpt lat="47.79609" lon="-3.52817">
        <ele>7.9</ele>
        <time>2020-07-08T13:14:46Z</time>
      </trkpt>
      <trkpt lat="47.79607" lon="-3.52818">
        <ele>7.9</ele>
        <time>2020-07-08T13:14:47Z</time>
      </trkpt>
      <trkpt lat="47.79604" lon="-3.52818">
        <ele>7.62</ele>
        <time>2020-07-08T13:14:48Z</time>
      </trkpt>
      <trkpt lat="47.79602" lon="-3.52819">
        <ele>7.27</ele>
        <time>2020-07-08T13:14:49Z</time>
      </trkpt>
      <trkpt lat="47.79599" lon="-3.52818">
        <ele>6.73</ele>
        <time>2020-07-08T13:14:50Z</time>
      </trkpt>
      <trkpt lat="47.79597" lon="-3.52817">
        <ele>6.24</ele>
        <time>2020-07-08T13:14:51Z</time>
      </trkpt>
      <trkpt lat="47.79596" lon="-3.52819">
        <ele>6.16</ele>
        <time>2020-07-08T13:14:52Z</time>
      </trkpt>
      <trkpt lat="47.79594" lon="-3.52819">
        <ele>5.95</ele>
        <time>2020-07-08T13:14:53Z</time>
      </trkpt>
      <trkpt lat="47.79592" lon="-3.5282">
        <ele>5.72</ele>
        <time>2020-07-08T13:14:54Z</time>
      </trkpt>
      <trkpt lat="47.7959" lon="-3.52821">
        <ele>5.6</ele>
        <time>2020-07-08T13:14:55Z</time>
      </trkpt>
      <trkpt lat="47.79588" lon="-3.52825">
        <ele>5.82</ele>
        <time>2020-07-08T13:14:56Z</time>
      </trkpt>
      <trkpt lat="47.79586" lon="-3.52827">
        <ele>6.02</ele>
        <time>2020-07-08T13:14:57Z</time>
      </trkpt>
      <trkpt lat="47.79584" lon="-3.5283">
        <ele>6.27</ele>
        <time>2020-07-08T13:14:58Z</time>
      </trkpt>
      <trkpt lat="47.79582" lon="-3.52832">
        <ele>6.4</ele>
        <time>2020-07-08T13:14:59Z</time>
      </trkpt>
      <trkpt lat="47.79581" lon="-3.52835">
        <ele>6.61</ele>
        <time>2020-07-08T13:15:00Z</time>
      </trkpt>
      <trkpt lat="47.79579" lon="-3.52837">
        <ele>6.74</ele>
        <time>2020-07-08T13:15:01Z</time>
      </trkpt>
      <trkpt lat="47.79578" lon="-3.52839">
        <ele>6.87</ele>
        <time>2020-07-08T13:15:02Z</time>
      </trkpt>
      <trkpt lat="47.79578" lon="-3.5284">
        <ele>7.13</ele>
        <time>2020-07-08T13:15:03Z</time>
      </trkpt>
      <trkpt lat="47.79578" lon="-3.52842">
        <ele>7.52</ele>
        <time>2020-07-08T13:15:04Z</time>
      </trkpt>
      <trkpt lat="47.79578" lon="-3.52843">
        <ele>7.94</ele>
        <time>2020-07-08T13:15:05Z</time>
      </trkpt>
      <trkpt lat="47.79578" lon="-3.52845">
        <ele>8.29</ele>
        <time>2020-07-08T13:15:06Z</time>
      </trkpt>
      <trkpt lat="47.79578" lon="-3.52847">
        <ele>8.66</ele>
        <time>2020-07-08T13:15:07Z</time>
      </trkpt>
      <trkpt lat="47.79578" lon="-3.52848">
        <ele>8.96</ele>
        <time>2020-07-08T13:15:08Z</time>
      </trkpt>
      <trkpt lat="47.79577" lon="-3.5285">
        <ele>9.13</ele>
        <time>2020-07-08T13:15:09Z</time>
      </trkpt>
      <trkpt lat="47.79576" lon="-3.52851">
        <ele>9.23</ele>
        <time>2020-07-08T13:15:10Z</time>
      </trkpt>
      <trkpt lat="47.79575" lon="-3.52852">
        <ele>9.26</ele>
        <time>2020-07-08T13:15:11Z</time>
      </trkpt>
      <trkpt lat="47.79574" lon="-3.52854">
        <ele>9.49</ele>
        <time>2020-07-08T13:15:12Z</time>
      </trkpt>
      <trkpt lat="47.79574" lon="-3.52856">
        <ele>9.79</ele>
        <time>2020-07-08T13:15:13Z</time>
      </trkpt>
      <trkpt lat="47.79575" lon="-3.52859">
        <ele>10.45</ele>
        <time>2020-07-08T13:15:14Z</time>
      </trkpt>
      <trkpt lat="47.79575" lon="-3.52861">
        <ele>10.93</ele>
        <time>2020-07-08T13:15:15Z</time>
      </trkpt>
      <trkpt lat="47.79575" lon="-3.52863">
        <ele>11.56</ele>
        <time>2020-07-08T13:15:16Z</time>
      </trkpt>
      <trkpt lat="47.79576" lon="-3.52867">
        <ele>12.38</ele>
        <time>2020-07-08T13:15:17Z</time>
      </trkpt>
      <trkpt lat="47.79576" lon="-3.5287">
        <ele>13.14</ele>
        <time>2020-07-08T13:15:18Z</time>
      </trkpt>
      <trkpt lat="47.79577" lon="-3.52872">
        <ele>13.77</ele>
        <time>2020-07-08T13:15:19Z</time>
      </trkpt>
      <trkpt lat="47.79576" lon="-3.52875">
        <ele>14.3</ele>
        <time>2020-07-08T13:15:20Z</time>
      </trkpt>
      <trkpt lat="47.79576" lon="-3.52879">
        <ele>14.85</ele>
        <time>2020-07-08T13:15:21Z</time>
      </trkpt>
      <trkpt lat="47.79577" lon="-3.52882">
        <ele>15.53</ele>
        <time>2020-07-08T13:15:22Z</time>
      </trkpt>
      <trkpt lat="47.79577" lon="-3.52884">
        <ele>16.17</ele>
        <time>2020-07-08T13:15:23Z</time>
      </trkpt>
      <trkpt lat="47.79577" lon="-3.52887">
        <ele>16.8</ele>
        <time>2020-07-08T13:15:24Z</time>
      </trkpt>
      <trkpt lat="47.79577" lon="-3.5289">
        <ele>17.3</ele>
        <time>2020-07-08T13:15:25Z</time>
      </trkpt>
      <trkpt lat="47.79577" lon="-3.52892">
        <ele>17.59</ele>
        <time>2020-07-08T13:15:26Z</time>
      </trkpt>
      <trkpt lat="47.79576" lon="-3.52893">
        <ele>17.59</ele>
        <time>2020-07-08T13:15:27Z</time>
      </trkpt>
      <trkpt lat="47.79574" lon="-3.52893">
        <ele>17.38</ele>
        <time>2020-07-08T13:15:28Z</time>
      </trkpt>
      <trkpt lat="47.79573" lon="-3.52892">
        <ele>17</ele>
        <time>2020-07-08T13:15:29Z</time>
      </trkpt>
      <trkpt lat="47.79571" lon="-3.52891">
        <ele>16.48</ele>
        <time>2020-07-08T13:15:30Z</time>
      </trkpt>
      <trkpt lat="47.79571" lon="-3.5289">
        <ele>16.16</ele>
        <time>2020-07-08T13:15:31Z</time>
      </trkpt>
      <trkpt lat="47.79569" lon="-3.52888">
        <ele>15.54</ele>
        <time>2020-07-08T13:15:32Z</time>
      </trkpt>
      <trkpt lat="47.79568" lon="-3.52886">
        <ele>14.78</ele>
        <time>2020-07-08T13:15:33Z</time>
      </trkpt>
      <trkpt lat="47.79567" lon="-3.52884">
        <ele>14.06</ele>
        <time>2020-07-08T13:15:34Z</time>
      </trkpt>
      <trkpt lat="47.79565" lon="-3.52882">
        <ele>13.33</ele>
        <time>2020-07-08T13:15:35Z</time>
      </trkpt>
      <trkpt lat="47.79563" lon="-3.52881">
        <ele>12.39</ele>
        <time>2020-07-08T13:15:36Z</time>
      </trkpt>
      <trkpt lat="47.7956" lon="-3.52879">
        <ele>11.23</ele>
        <time>2020-07-08T13:15:37Z</time>
      </trkpt>
      <trkpt lat="47.79558" lon="-3.52878">
        <ele>10.24</ele>
        <time>2020-07-08T13:15:38Z</time>
      </trkpt>
      <trkpt lat="47.79555" lon="-3.52877">
        <ele>9.5</ele>
        <time>2020-07-08T13:15:39Z</time>
      </trkpt>
      <trkpt lat="47.7955" lon="-3.52877">
        <ele>9.65</ele>
        <time>2020-07-08T13:15:40Z</time>
      </trkpt>
      <trkpt lat="47.79548" lon="-3.52878">
        <ele>10.02</ele>
        <time>2020-07-08T13:15:41Z</time>
      </trkpt>
      <trkpt lat="47.79546" lon="-3.52878">
        <ele>10.41</ele>
        <time>2020-07-08T13:15:42Z</time>
      </trkpt>
      <trkpt lat="47.79543" lon="-3.52878">
        <ele>10.78</ele>
        <time>2020-07-08T13:15:43Z</time>
      </trkpt>
      <trkpt lat="47.79541" lon="-3.52879">
        <ele>11.15</ele>
        <time>2020-07-08T13:15:44Z</time>
      </trkpt>
      <trkpt lat="47.79539" lon="-3.52878">
        <ele>11.38</ele>
        <time>2020-07-08T13:15:45Z</time>
      </trkpt>
      <trkpt lat="47.79536" lon="-3.52877">
        <ele>11.5</ele>
        <time>2020-07-08T13:15:46Z</time>
      </trkpt>
      <trkpt lat="47.79535" lon="-3.52877">
        <ele>11.57</ele>
        <time>2020-07-08T13:15:47Z</time>
      </trkpt>
      <trkpt lat="47.79533" lon="-3.52876">
        <ele>11.61</ele>
        <time>2020-07-08T13:15:48Z</time>
      </trkpt>
      <trkpt lat="47.79531" lon="-3.52876">
        <ele>11.75</ele>
        <time>2020-07-08T13:15:49Z</time>
      </trkpt>
      <trkpt lat="47.79529" lon="-3.52875">
        <ele>11.84</ele>
        <time>2020-07-08T13:15:50Z</time>
      </trkpt>
      <trkpt lat="47.79527" lon="-3.52873">
        <ele>11.7</ele>
        <time>2020-07-08T13:15:51Z</time>
      </trkpt>
      <trkpt lat="47.79525" lon="-3.52872">
        <ele>11.55</ele>
        <time>2020-07-08T13:15:52Z</time>
      </trkpt>
      <trkpt lat="47.79524" lon="-3.5287">
        <ele>11.52</ele>
        <time>2020-07-08T13:15:53Z</time>
      </trkpt>
      <trkpt lat="47.79522" lon="-3.5287">
        <ele>11.63</ele>
        <time>2020-07-08T13:15:54Z</time>
      </trkpt>
      <trkpt lat="47.79521" lon="-3.52869">
        <ele>11.69</ele>
        <time>2020-07-08T13:15:55Z</time>
      </trkpt>
      <trkpt lat="47.7952" lon="-3.52867">
        <ele>11.55</ele>
        <time>2020-07-08T13:15:56Z</time>
      </trkpt>
      <trkpt lat="47.79518" lon="-3.52865">
        <ele>11.38</ele>
        <time>2020-07-08T13:15:57Z</time>
      </trkpt>
      <trkpt lat="47.79517" lon="-3.52863">
        <ele>11.2</ele>
        <time>2020-07-08T13:15:58Z</time>
      </trkpt>
      <trkpt lat="47.79516" lon="-3.5286">
        <ele>10.95</ele>
        <time>2020-07-08T13:15:59Z</time>
      </trkpt>
      <trkpt lat="47.79515" lon="-3.52859">
        <ele>10.8</ele>
        <time>2020-07-08T13:16:00Z</time>
      </trkpt>
      <trkpt lat="47.79514" lon="-3.52857">
        <ele>10.59</ele>
        <time>2020-07-08T13:16:01Z</time>
      </trkpt>
      <trkpt lat="47.79512" lon="-3.52855">
        <ele>10.31</ele>
        <time>2020-07-08T13:16:02Z</time>
      </trkpt>
      <trkpt lat="47.7951" lon="-3.52853">
        <ele>10.24</ele>
        <time>2020-07-08T13:16:03Z</time>
      </trkpt>
      <trkpt lat="47.79507" lon="-3.52852">
        <ele>10.32</ele>
        <time>2020-07-08T13:16:04Z</time>
      </trkpt>
      <trkpt lat="47.79505" lon="-3.52851">
        <ele>10.57</ele>
        <time>2020-07-08T13:16:05Z</time>
      </trkpt>
      <trkpt lat="47.79502" lon="-3.5285">
        <ele>10.92</ele>
        <time>2020-07-08T13:16:06Z</time>
      </trkpt>
      <trkpt lat="47.79498" lon="-3.52849">
        <ele>11.22</ele>
        <time>2020-07-08T13:16:07Z</time>
      </trkpt>
      <trkpt lat="47.79495" lon="-3.52847">
        <ele>11.43</ele>
        <time>2020-07-08T13:16:08Z</time>
      </trkpt>
      <trkpt lat="47.79491" lon="-3.52845">
        <ele>11.45</ele>
        <time>2020-07-08T13:16:09Z</time>
      </trkpt>
      <trkpt lat="47.79488" lon="-3.52841">
        <ele>11.32</ele>
        <time>2020-07-08T13:16:10Z</time>
      </trkpt>
      <trkpt lat="47.79485" lon="-3.52836">
        <ele>11.08</ele>
        <time>2020-07-08T13:16:11Z</time>
      </trkpt>
      <trkpt lat="47.79482" lon="-3.52832">
        <ele>10.78</ele>
        <time>2020-07-08T13:16:12Z</time>
      </trkpt>
      <trkpt lat="47.7948" lon="-3.52829">
        <ele>10.23</ele>
        <time>2020-07-08T13:16:13Z</time>
      </trkpt>
      <trkpt lat="47.79478" lon="-3.52826">
        <ele>9.73</ele>
        <time>2020-07-08T13:16:14Z</time>
      </trkpt>
      <trkpt lat="47.79475" lon="-3.52824">
        <ele>9.5</ele>
        <time>2020-07-08T13:16:15Z</time>
      </trkpt>
      <trkpt lat="47.79473" lon="-3.52823">
        <ele>9.53</ele>
        <time>2020-07-08T13:16:16Z</time>
      </trkpt>
      <trkpt lat="47.7947" lon="-3.52822">
        <ele>9.31</ele>
        <time>2020-07-08T13:16:17Z</time>
      </trkpt>
      <trkpt lat="47.79467" lon="-3.52821">
        <ele>9.01</ele>
        <time>2020-07-08T13:16:18Z</time>
      </trkpt>
      <trkpt lat="47.79465" lon="-3.5282">
        <ele>8.68</ele>
        <time>2020-07-08T13:16:19Z</time>
      </trkpt>
      <trkpt lat="47.79463" lon="-3.5282">
        <ele>8.51</ele>
        <time>2020-07-08T13:16:20Z</time>
      </trkpt>
      <trkpt lat="47.79459" lon="-3.52819">
        <ele>8.4</ele>
        <time>2020-07-08T13:16:21Z</time>
      </trkpt>
      <trkpt lat="47.79456" lon="-3.52818">
        <ele>8.22</ele>
        <time>2020-07-08T13:16:22Z</time>
      </trkpt>
      <trkpt lat="47.79452" lon="-3.52816">
        <ele>7.9</ele>
        <time>2020-07-08T13:16:23Z</time>
      </trkpt>
      <trkpt lat="47.79448" lon="-3.52814">
        <ele>7.39</ele>
        <time>2020-07-08T13:16:24Z</time>
      </trkpt>
      <trkpt lat="47.79444" lon="-3.5281">
        <ele>6.66</ele>
        <time>2020-07-08T13:16:25Z</time>
      </trkpt>
      <trkpt lat="47.7944" lon="-3.52805">
        <ele>5.94</ele>
        <time>2020-07-08T13:16:26Z</time>
      </trkpt>
      <trkpt lat="47.79437" lon="-3.52799">
        <ele>5.35</ele>
        <time>2020-07-08T13:16:27Z</time>
      </trkpt>
      <trkpt lat="47.79434" lon="-3.52792">
        <ele>4.56</ele>
        <time>2020-07-08T13:16:28Z</time>
      </trkpt>
      <trkpt lat="47.7943" lon="-3.52784">
        <ele>3.78</ele>
        <time>2020-07-08T13:16:29Z</time>
      </trkpt>
      <trkpt lat="47.79427" lon="-3.52779">
        <ele>3.06</ele>
        <time>2020-07-08T13:16:30Z</time>
      </trkpt>
      <trkpt lat="47.79425" lon="-3.52775">
        <ele>2.64</ele>
        <time>2020-07-08T13:16:31Z</time>
      </trkpt>
      <trkpt lat="47.79422" lon="-3.52772">
        <ele>2.54</ele>
        <time>2020-07-08T13:16:32Z</time>
      </trkpt>
      <trkpt lat="47.79419" lon="-3.52771">
        <ele>2.63</ele>
        <time>2020-07-08T13:16:33Z</time>
      </trkpt>
      <trkpt lat="47.79417" lon="-3.52771">
        <ele>2.89</ele>
        <time>2020-07-08T13:16:34Z</time>
      </trkpt>
      <trkpt lat="47.79414" lon="-3.52772">
        <ele>2.87</ele>
        <time>2020-07-08T13:16:35Z</time>
      </trkpt>
      <trkpt lat="47.7941" lon="-3.52773">
        <ele>2.74</ele>
        <time>2020-07-08T13:16:36Z</time>
      </trkpt>
      <trkpt lat="47.79405" lon="-3.52774">
        <ele>2.54</ele>
        <time>2020-07-08T13:16:37Z</time>
      </trkpt>
      <trkpt lat="47.79401" lon="-3.52777">
        <ele>2.28</ele>
        <time>2020-07-08T13:16:38Z</time>
      </trkpt>
      <trkpt lat="47.79396" lon="-3.52779">
        <ele>2.07</ele>
        <time>2020-07-08T13:16:39Z</time>
      </trkpt>
      <trkpt lat="47.79392" lon="-3.52782">
        <ele>1.99</ele>
        <time>2020-07-08T13:16:40Z</time>
      </trkpt>
      <trkpt lat="47.79389" lon="-3.52783">
        <ele>1.86</ele>
        <time>2020-07-08T13:16:41Z</time>
      </trkpt>
      <trkpt lat="47.79388" lon="-3.52784">
        <ele>1.88</ele>
        <time>2020-07-08T13:16:42Z</time>
      </trkpt>
      <trkpt lat="47.79387" lon="-3.52786">
        <ele>1.98</ele>
        <time>2020-07-08T13:16:43Z</time>
      </trkpt>
      <trkpt lat="47.79385" lon="-3.52787">
        <ele>2.08</ele>
        <time>2020-07-08T13:16:44Z</time>
      </trkpt>
      <trkpt lat="47.79384" lon="-3.52789">
        <ele>2.2</ele>
        <time>2020-07-08T13:16:45Z</time>
      </trkpt>
      <trkpt lat="47.79381" lon="-3.5279">
        <ele>2.28</ele>
        <time>2020-07-08T13:16:46Z</time>
      </trkpt>
      <trkpt lat="47.79379" lon="-3.52794">
        <ele>2.45</ele>
        <time>2020-07-08T13:16:47Z</time>
      </trkpt>
      <trkpt lat="47.79377" lon="-3.52799">
        <ele>2.76</ele>
        <time>2020-07-08T13:16:48Z</time>
      </trkpt>
      <trkpt lat="47.79374" lon="-3.52804">
        <ele>3.16</ele>
        <time>2020-07-08T13:16:49Z</time>
      </trkpt>
      <trkpt lat="47.79373" lon="-3.52809">
        <ele>3.45</ele>
        <time>2020-07-08T13:16:50Z</time>
      </trkpt>
      <trkpt lat="47.79371" lon="-3.52812">
        <ele>3.6</ele>
        <time>2020-07-08T13:16:51Z</time>
      </trkpt>
      <trkpt lat="47.79369" lon="-3.52814">
        <ele>3.59</ele>
        <time>2020-07-08T13:16:52Z</time>
      </trkpt>
      <trkpt lat="47.79367" lon="-3.52815">
        <ele>3.42</ele>
        <time>2020-07-08T13:16:53Z</time>
      </trkpt>
      <trkpt lat="47.79364" lon="-3.52815">
        <ele>3.16</ele>
        <time>2020-07-08T13:16:54Z</time>
      </trkpt>
      <trkpt lat="47.79362" lon="-3.52815">
        <ele>2.89</ele>
        <time>2020-07-08T13:16:55Z</time>
      </trkpt>
      <trkpt lat="47.79358" lon="-3.52815">
        <ele>2.64</ele>
        <time>2020-07-08T13:16:56Z</time>
      </trkpt>
      <trkpt lat="47.79355" lon="-3.52816">
        <ele>2.43</ele>
        <time>2020-07-08T13:16:57Z</time>
      </trkpt>
      <trkpt lat="47.79351" lon="-3.52816">
        <ele>2.26</ele>
        <time>2020-07-08T13:16:58Z</time>
      </trkpt>
      <trkpt lat="47.79347" lon="-3.5282">
        <ele>2.25</ele>
        <time>2020-07-08T13:16:59Z</time>
      </trkpt>
      <trkpt lat="47.79344" lon="-3.52823">
        <ele>2.33</ele>
        <time>2020-07-08T13:17:00Z</time>
      </trkpt>
      <trkpt lat="47.79341" lon="-3.52825">
        <ele>2.46</ele>
        <time>2020-07-08T13:17:01Z</time>
      </trkpt>
      <trkpt lat="47.79339" lon="-3.52827">
        <ele>2.55</ele>
        <time>2020-07-08T13:17:02Z</time>
      </trkpt>
      <trkpt lat="47.79338" lon="-3.52828">
        <ele>2.59</ele>
        <time>2020-07-08T13:17:03Z</time>
      </trkpt>
      <trkpt lat="47.79335" lon="-3.52829">
        <ele>2.56</ele>
        <time>2020-07-08T13:17:04Z</time>
      </trkpt>
      <trkpt lat="47.79332" lon="-3.52831">
        <ele>2.64</ele>
        <time>2020-07-08T13:17:05Z</time>
      </trkpt>
      <trkpt lat="47.79329" lon="-3.52833">
        <ele>2.74</ele>
        <time>2020-07-08T13:17:06Z</time>
      </trkpt>
      <trkpt lat="47.79327" lon="-3.52836">
        <ele>2.94</ele>
        <time>2020-07-08T13:17:07Z</time>
      </trkpt>
      <trkpt lat="47.79325" lon="-3.52838">
        <ele>3.08</ele>
        <time>2020-07-08T13:17:08Z</time>
      </trkpt>
      <trkpt lat="47.79322" lon="-3.52841">
        <ele>3.27</ele>
        <time>2020-07-08T13:17:09Z</time>
      </trkpt>
      <trkpt lat="47.79319" lon="-3.52844">
        <ele>3.41</ele>
        <time>2020-07-08T13:17:10Z</time>
      </trkpt>
      <trkpt lat="47.79315" lon="-3.52847">
        <ele>3.51</ele>
        <time>2020-07-08T13:17:11Z</time>
      </trkpt>
      <trkpt lat="47.79312" lon="-3.52849">
        <ele>3.5</ele>
        <time>2020-07-08T13:17:12Z</time>
      </trkpt>
      <trkpt lat="47.79307" lon="-3.52851">
        <ele>3.4</ele>
        <time>2020-07-08T13:17:13Z</time>
      </trkpt>
      <trkpt lat="47.79302" lon="-3.52852">
        <ele>3.26</ele>
        <time>2020-07-08T13:17:14Z</time>
      </trkpt>
      <trkpt lat="47.79298" lon="-3.52853">
        <ele>3.12</ele>
        <time>2020-07-08T13:17:15Z</time>
      </trkpt>
      <trkpt lat="47.79292" lon="-3.52855">
        <ele>3</ele>
        <time>2020-07-08T13:17:16Z</time>
      </trkpt>
      <trkpt lat="47.79287" lon="-3.52855">
        <ele>2.83</ele>
        <time>2020-07-08T13:17:17Z</time>
      </trkpt>
      <trkpt lat="47.79282" lon="-3.52856">
        <ele>2.69</ele>
        <time>2020-07-08T13:17:18Z</time>
      </trkpt>
      <trkpt lat="47.79277" lon="-3.52858">
        <ele>2.63</ele>
        <time>2020-07-08T13:17:19Z</time>
      </trkpt>
      <trkpt lat="47.79272" lon="-3.52861">
        <ele>2.58</ele>
        <time>2020-07-08T13:17:20Z</time>
      </trkpt>
      <trkpt lat="47.79268" lon="-3.52863">
        <ele>2.54</ele>
        <time>2020-07-08T13:17:21Z</time>
      </trkpt>
      <trkpt lat="47.79264" lon="-3.52866">
        <ele>2.51</ele>
        <time>2020-07-08T13:17:22Z</time>
      </trkpt>
      <trkpt lat="47.7926" lon="-3.52868">
        <ele>2.51</ele>
        <time>2020-07-08T13:17:23Z</time>
      </trkpt>
      <trkpt lat="47.79257" lon="-3.52872">
        <ele>2.62</ele>
        <time>2020-07-08T13:17:24Z</time>
      </trkpt>
      <trkpt lat="47.79253" lon="-3.52876">
        <ele>2.8</ele>
        <time>2020-07-08T13:17:25Z</time>
      </trkpt>
      <trkpt lat="47.79249" lon="-3.52881">
        <ele>2.99</ele>
        <time>2020-07-08T13:17:26Z</time>
      </trkpt>
      <trkpt lat="47.79244" lon="-3.52885">
        <ele>2.91</ele>
        <time>2020-07-08T13:17:27Z</time>
      </trkpt>
      <trkpt lat="47.7924" lon="-3.5289">
        <ele>2.7</ele>
        <time>2020-07-08T13:17:28Z</time>
      </trkpt>
      <trkpt lat="47.79235" lon="-3.52894">
        <ele>2.35</ele>
        <time>2020-07-08T13:17:29Z</time>
      </trkpt>
      <trkpt lat="47.7923" lon="-3.529">
        <ele>2.07</ele>
        <time>2020-07-08T13:17:30Z</time>
      </trkpt>
      <trkpt lat="47.79226" lon="-3.52906">
        <ele>1.89</ele>
        <time>2020-07-08T13:17:31Z</time>
      </trkpt>
      <trkpt lat="47.79223" lon="-3.52911">
        <ele>1.73</ele>
        <time>2020-07-08T13:17:32Z</time>
      </trkpt>
      <trkpt lat="47.79219" lon="-3.52915">
        <ele>1.71</ele>
        <time>2020-07-08T13:17:33Z</time>
      </trkpt>
      <trkpt lat="47.79216" lon="-3.52921">
        <ele>1.87</ele>
        <time>2020-07-08T13:17:34Z</time>
      </trkpt>
      <trkpt lat="47.79213" lon="-3.52927">
        <ele>2.05</ele>
        <time>2020-07-08T13:17:35Z</time>
      </trkpt>
      <trkpt lat="47.7921" lon="-3.52933">
        <ele>2.11</ele>
        <time>2020-07-08T13:17:36Z</time>
      </trkpt>
      <trkpt lat="47.79207" lon="-3.52939">
        <ele>2.05</ele>
        <time>2020-07-08T13:17:37Z</time>
      </trkpt>
      <trkpt lat="47.79204" lon="-3.52946">
        <ele>1.87</ele>
        <time>2020-07-08T13:17:38Z</time>
      </trkpt>
      <trkpt lat="47.79202" lon="-3.52953">
        <ele>1.65</ele>
        <time>2020-07-08T13:17:39Z</time>
      </trkpt>
      <trkpt lat="47.792" lon="-3.5296">
        <ele>1.53</ele>
        <time>2020-07-08T13:17:40Z</time>
      </trkpt>
      <trkpt lat="47.79199" lon="-3.52966">
        <ele>1.47</ele>
        <time>2020-07-08T13:17:41Z</time>
      </trkpt>
      <trkpt lat="47.79197" lon="-3.52973">
        <ele>1.45</ele>
        <time>2020-07-08T13:17:42Z</time>
      </trkpt>
      <trkpt lat="47.79196" lon="-3.52979">
        <ele>1.62</ele>
        <time>2020-07-08T13:17:43Z</time>
      </trkpt>
      <trkpt lat="47.79194" lon="-3.52987">
        <ele>1.91</ele>
        <time>2020-07-08T13:17:44Z</time>
      </trkpt>
      <trkpt lat="47.79193" lon="-3.52994">
        <ele>2.25</ele>
        <time>2020-07-08T13:17:45Z</time>
      </trkpt>
      <trkpt lat="47.79191" lon="-3.53002">
        <ele>2.59</ele>
        <time>2020-07-08T13:17:46Z</time>
      </trkpt>
      <trkpt lat="47.79188" lon="-3.53008">
        <ele>2.85</ele>
        <time>2020-07-08T13:17:47Z</time>
      </trkpt>
      <trkpt lat="47.79186" lon="-3.53014">
        <ele>2.99</ele>
        <time>2020-07-08T13:17:48Z</time>
      </trkpt>
      <trkpt lat="47.79184" lon="-3.53018">
        <ele>3.09</ele>
        <time>2020-07-08T13:17:49Z</time>
      </trkpt>
      <trkpt lat="47.79181" lon="-3.53021">
        <ele>3.11</ele>
        <time>2020-07-08T13:17:50Z</time>
      </trkpt>
      <trkpt lat="47.79179" lon="-3.53023">
        <ele>3.01</ele>
        <time>2020-07-08T13:17:51Z</time>
      </trkpt>
      <trkpt lat="47.79176" lon="-3.53024">
        <ele>2.8</ele>
        <time>2020-07-08T13:17:52Z</time>
      </trkpt>
      <trkpt lat="47.79173" lon="-3.53024">
        <ele>2.53</ele>
        <time>2020-07-08T13:17:53Z</time>
      </trkpt>
      <trkpt lat="47.79169" lon="-3.53025">
        <ele>2.23</ele>
        <time>2020-07-08T13:17:54Z</time>
      </trkpt>
      <trkpt lat="47.79166" lon="-3.53026">
        <ele>1.96</ele>
        <time>2020-07-08T13:17:55Z</time>
      </trkpt>
      <trkpt lat="47.79162" lon="-3.53027">
        <ele>1.73</ele>
        <time>2020-07-08T13:17:56Z</time>
      </trkpt>
      <trkpt lat="47.79158" lon="-3.53029">
        <ele>1.57</ele>
        <time>2020-07-08T13:17:57Z</time>
      </trkpt>
      <trkpt lat="47.79154" lon="-3.53032">
        <ele>1.48</ele>
        <time>2020-07-08T13:17:58Z</time>
      </trkpt>
      <trkpt lat="47.7915" lon="-3.53034">
        <ele>1.39</ele>
        <time>2020-07-08T13:17:59Z</time>
      </trkpt>
      <trkpt lat="47.79146" lon="-3.53037">
        <ele>1.35</ele>
        <time>2020-07-08T13:18:00Z</time>
      </trkpt>
      <trkpt lat="47.79143" lon="-3.53042">
        <ele>1.37</ele>
        <time>2020-07-08T13:18:01Z</time>
      </trkpt>
      <trkpt lat="47.7914" lon="-3.53047">
        <ele>1.42</ele>
        <time>2020-07-08T13:18:02Z</time>
      </trkpt>
      <trkpt lat="47.79137" lon="-3.53052">
        <ele>1.57</ele>
        <time>2020-07-08T13:18:03Z</time>
      </trkpt>
      <trkpt lat="47.79135" lon="-3.53058">
        <ele>1.68</ele>
        <time>2020-07-08T13:18:04Z</time>
      </trkpt>
      <trkpt lat="47.79134" lon="-3.53063">
        <ele>1.66</ele>
        <time>2020-07-08T13:18:05Z</time>
      </trkpt>
      <trkpt lat="47.79134" lon="-3.53069">
        <ele>1.65</ele>
        <time>2020-07-08T13:18:06Z</time>
      </trkpt>
      <trkpt lat="47.79134" lon="-3.53075">
        <ele>1.67</ele>
        <time>2020-07-08T13:18:07Z</time>
      </trkpt>
      <trkpt lat="47.79135" lon="-3.5308">
        <ele>1.73</ele>
        <time>2020-07-08T13:18:08Z</time>
      </trkpt>
      <trkpt lat="47.79137" lon="-3.53087">
        <ele>1.82</ele>
        <time>2020-07-08T13:18:09Z</time>
      </trkpt>
      <trkpt lat="47.79138" lon="-3.53093">
        <ele>1.93</ele>
        <time>2020-07-08T13:18:10Z</time>
      </trkpt>
      <trkpt lat="47.79139" lon="-3.53099">
        <ele>2.05</ele>
        <time>2020-07-08T13:18:11Z</time>
      </trkpt>
      <trkpt lat="47.79141" lon="-3.53105">
        <ele>2.29</ele>
        <time>2020-07-08T13:18:12Z</time>
      </trkpt>
      <trkpt lat="47.79142" lon="-3.53111">
        <ele>2.66</ele>
        <time>2020-07-08T13:18:13Z</time>
      </trkpt>
      <trkpt lat="47.79143" lon="-3.53118">
        <ele>2.76</ele>
        <time>2020-07-08T13:18:14Z</time>
      </trkpt>
      <trkpt lat="47.79144" lon="-3.53124">
        <ele>2.72</ele>
        <time>2020-07-08T13:18:15Z</time>
      </trkpt>
      <trkpt lat="47.79144" lon="-3.53129">
        <ele>2.63</ele>
        <time>2020-07-08T13:18:16Z</time>
      </trkpt>
      <trkpt lat="47.79144" lon="-3.53134">
        <ele>2.47</ele>
        <time>2020-07-08T13:18:17Z</time>
      </trkpt>
      <trkpt lat="47.79142" lon="-3.53137">
        <ele>2.12</ele>
        <time>2020-07-08T13:18:18Z</time>
      </trkpt>
      <trkpt lat="47.79141" lon="-3.53141">
        <ele>1.71</ele>
        <time>2020-07-08T13:18:19Z</time>
      </trkpt>
      <trkpt lat="47.79138" lon="-3.53145">
        <ele>1.34</ele>
        <time>2020-07-08T13:18:20Z</time>
      </trkpt>
      <trkpt lat="47.79137" lon="-3.53148">
        <ele>1.26</ele>
        <time>2020-07-08T13:18:21Z</time>
      </trkpt>
      <trkpt lat="47.79136" lon="-3.53149">
        <ele>1.25</ele>
        <time>2020-07-08T13:18:22Z</time>
      </trkpt>
      <trkpt lat="47.79136" lon="-3.53149">
        <ele>1.25</ele>
        <time>2020-07-08T13:18:23Z</time>
      </trkpt>
      <trkpt lat="47.79136" lon="-3.53149">
        <ele>1.26</ele>
        <time>2020-07-08T13:18:24Z</time>
      </trkpt>
      <trkpt lat="47.79136" lon="-3.53149">
        <ele>1.26</ele>
        <time>2020-07-08T13:18:25Z</time>
      </trkpt>
      <trkpt lat="47.79136" lon="-3.53149">
        <ele>1.26</ele>
        <time>2020-07-08T13:18:26Z</time>
      </trkpt>
      <trkpt lat="47.79136" lon="-3.53149">
        <ele>1.26</ele>
        <time>2020-07-08T13:18:27Z</time>
      </trkpt>
      <trkpt lat="47.79136" lon="-3.53149">
        <ele>1.26</ele>
        <time>2020-07-08T13:18:28Z</time>
      </trkpt>
      <trkpt lat="47.79136" lon="-3.53149">
        <ele>1.26</ele>
        <time>2020-07-08T13:18:29Z</time>
      </trkpt>
      <trkpt lat="47.79136" lon="-3.53149">
        <ele>1.26</ele>
        <time>2020-07-08T13:18:30Z</time>
      </trkpt>
      <trkpt lat="47.79136" lon="-3.53149">
        <ele>1.26</ele>
        <time>2020-07-08T13:18:31Z</time>
      </trkpt>
      <trkpt lat="47.79136" lon="-3.53149">
        <ele>1.26</ele>
        <time>2020-07-08T13:18:32Z</time>
      </trkpt>
      <trkpt lat="47.79136" lon="-3.53149">
        <ele>1.26</ele>
        <time>2020-07-08T13:18:33Z</time>
      </trkpt>
      <trkpt lat="47.79136" lon="-3.53149">
        <ele>1.26</ele>
        <time>2020-07-08T13:18:34Z</time>
      </trkpt>
      <trkpt lat="47.79136" lon="-3.53149">
        <ele>1.26</ele>
        <time>2020-07-08T13:18:35Z</time>
      </trkpt>
      <trkpt lat="47.79136" lon="-3.53149">
        <ele>1.26</ele>
        <time>2020-07-08T13:18:36Z</time>
      </trkpt>
      <trkpt lat="47.79136" lon="-3.53149">
        <ele>1.26</ele>
        <time>2020-07-08T13:18:37Z</time>
      </trkpt>
      <trkpt lat="47.79136" lon="-3.53149">
        <ele>1.26</ele>
        <time>2020-07-08T13:18:38Z</time>
      </trkpt>
      <trkpt lat="47.79136" lon="-3.53149">
        <ele>1.26</ele>
        <time>2020-07-08T13:18:39Z</time>
      </trkpt>
      <trkpt lat="47.79136" lon="-3.53149">
        <ele>1.26</ele>
        <time>2020-07-08T13:18:40Z</time>
      </trkpt>
      <trkpt lat="47.79136" lon="-3.53149">
        <ele>1.26</ele>
        <time>2020-07-08T13:18:41Z</time>
      </trkpt>
      <trkpt lat="47.79136" lon="-3.53149">
        <ele>1.26</ele>
        <time>2020-07-08T13:18:42Z</time>
      </trkpt>
      <trkpt lat="47.79136" lon="-3.53149">
        <ele>1.26</ele>
        <time>2020-07-08T13:18:43Z</time>
      </trkpt>
      <trkpt lat="47.79136" lon="-3.53149">
        <ele>1.26</ele>
        <time>2020-07-08T13:18:44Z</time>
      </trkpt>
      <trkpt lat="47.79136" lon="-3.53149">
        <ele>1.26</ele>
        <time>2020-07-08T13:18:45Z</time>
      </trkpt>
      <trkpt lat="47.79136" lon="-3.53149">
        <ele>1.26</ele>
        <time>2020-07-08T13:18:46Z</time>
      </trkpt>
      <trkpt lat="47.79136" lon="-3.53149">
        <ele>1.26</ele>
        <time>2020-07-08T13:18:47Z</time>
      </trkpt>
      <trkpt lat="47.79136" lon="-3.53149">
        <ele>1.26</ele>
        <time>2020-07-08T13:18:48Z</time>
      </trkpt>
      <trkpt lat="47.79136" lon="-3.53149">
        <ele>1.26</ele>
        <time>2020-07-08T13:18:49Z</time>
      </trkpt>
      <trkpt lat="47.79136" lon="-3.53149">
        <ele>1.26</ele>
        <time>2020-07-08T13:18:50Z</time>
      </trkpt>
      <trkpt lat="47.79136" lon="-3.53149">
        <ele>1.26</ele>
        <time>2020-07-08T13:18:51Z</time>
      </trkpt>
      <trkpt lat="47.79136" lon="-3.53149">
        <ele>1.26</ele>
        <time>2020-07-08T13:18:52Z</time>
      </trkpt>
      <trkpt lat="47.79136" lon="-3.53149">
        <ele>1.26</ele>
        <time>2020-07-08T13:18:53Z</time>
      </trkpt>
      <trkpt lat="47.79136" lon="-3.53149">
        <ele>1.26</ele>
        <time>2020-07-08T13:18:54Z</time>
      </trkpt>
      <trkpt lat="47.79136" lon="-3.53149">
        <ele>1.26</ele>
        <time>2020-07-08T13:18:55Z</time>
      </trkpt>
      <trkpt lat="47.79136" lon="-3.53149">
        <ele>1.26</ele>
        <time>2020-07-08T13:18:56Z</time>
      </trkpt>
      <trkpt lat="47.79136" lon="-3.53149">
        <ele>1.26</ele>
        <time>2020-07-08T13:18:57Z</time>
      </trkpt>
      <trkpt lat="47.79136" lon="-3.53149">
        <ele>1.26</ele>
        <time>2020-07-08T13:18:58Z</time>
      </trkpt>
      <trkpt lat="47.79136" lon="-3.53149">
        <ele>1.26</ele>
        <time>2020-07-08T13:18:59Z</time>
      </trkpt>
      <trkpt lat="47.79136" lon="-3.53149">
        <ele>1.26</ele>
        <time>2020-07-08T13:19:00Z</time>
      </trkpt>
      <trkpt lat="47.79136" lon="-3.53149">
        <ele>1.26</ele>
        <time>2020-07-08T13:19:01Z</time>
      </trkpt>
      <trkpt lat="47.79136" lon="-3.53149">
        <ele>1.26</ele>
        <time>2020-07-08T13:19:02Z</time>
      </trkpt>
      <trkpt lat="47.79136" lon="-3.53149">
        <ele>1.26</ele>
        <time>2020-07-08T13:19:03Z</time>
      </trkpt>
      <trkpt lat="47.79136" lon="-3.53149">
        <ele>1.26</ele>
        <time>2020-07-08T13:19:04Z</time>
      </trkpt>
      <trkpt lat="47.79136" lon="-3.53149">
        <ele>1.26</ele>
        <time>2020-07-08T13:19:05Z</time>
      </trkpt>
      <trkpt lat="47.79136" lon="-3.53149">
        <ele>1.26</ele>
        <time>2020-07-08T13:19:06Z</time>
      </trkpt>
      <trkpt lat="47.79136" lon="-3.53149">
        <ele>1.26</ele>
        <time>2020-07-08T13:19:07Z</time>
      </trkpt>
      <trkpt lat="47.79136" lon="-3.53149">
        <ele>1.26</ele>
        <time>2020-07-08T13:19:08Z</time>
      </trkpt>
      <trkpt lat="47.79136" lon="-3.53149">
        <ele>1.26</ele>
        <time>2020-07-08T13:19:09Z</time>
      </trkpt>
      <trkpt lat="47.79136" lon="-3.53149">
        <ele>1.26</ele>
        <time>2020-07-08T13:19:10Z</time>
      </trkpt>
      <trkpt lat="47.79136" lon="-3.53149">
        <ele>1.26</ele>
        <time>2020-07-08T13:19:11Z</time>
      </trkpt>
      <trkpt lat="47.79136" lon="-3.53149">
        <ele>1.26</ele>
        <time>2020-07-08T13:19:12Z</time>
      </trkpt>
      <trkpt lat="47.79136" lon="-3.53149">
        <ele>1.26</ele>
        <time>2020-07-08T13:19:13Z</time>
      </trkpt>
      <trkpt lat="47.79136" lon="-3.53149">
        <ele>1.26</ele>
        <time>2020-07-08T13:19:14Z</time>
      </trkpt>
      <trkpt lat="47.79136" lon="-3.53149">
        <ele>1.26</ele>
        <time>2020-07-08T13:19:15Z</time>
      </trkpt>
      <trkpt lat="47.79136" lon="-3.53149">
        <ele>1.26</ele>
        <time>2020-07-08T13:19:16Z</time>
      </trkpt>
      <trkpt lat="47.79136" lon="-3.53149">
        <ele>1.26</ele>
        <time>2020-07-08T13:19:17Z</time>
      </trkpt>
      <trkpt lat="47.79136" lon="-3.53149">
        <ele>1.26</ele>
        <time>2020-07-08T13:19:18Z</time>
      </trkpt>
      <trkpt lat="47.79136" lon="-3.53149">
        <ele>1.26</ele>
        <time>2020-07-08T13:19:19Z</time>
      </trkpt>
      <trkpt lat="47.79136" lon="-3.53149">
        <ele>1.26</ele>
        <time>2020-07-08T13:19:20Z</time>
      </trkpt>
      <trkpt lat="47.79136" lon="-3.53149">
        <ele>1.26</ele>
        <time>2020-07-08T13:19:21Z</time>
      </trkpt>
      <trkpt lat="47.79136" lon="-3.53149">
        <ele>1.26</ele>
        <time>2020-07-08T13:19:22Z</time>
      </trkpt>
      <trkpt lat="47.79136" lon="-3.53149">
        <ele>1.26</ele>
        <time>2020-07-08T13:19:23Z</time>
      </trkpt>
      <trkpt lat="47.79136" lon="-3.53149">
        <ele>1.26</ele>
        <time>2020-07-08T13:19:24Z</time>
      </trkpt>
      <trkpt lat="47.79136" lon="-3.53149">
        <ele>1.26</ele>
        <time>2020-07-08T13:19:25Z</time>
      </trkpt>
      <trkpt lat="47.79136" lon="-3.53149">
        <ele>1.26</ele>
        <time>2020-07-08T13:19:26Z</time>
      </trkpt>
      <trkpt lat="47.79136" lon="-3.53149">
        <ele>1.26</ele>
        <time>2020-07-08T13:19:27Z</time>
      </trkpt>
      <trkpt lat="47.79136" lon="-3.53149">
        <ele>1.26</ele>
        <time>2020-07-08T13:19:28Z</time>
      </trkpt>
      <trkpt lat="47.79136" lon="-3.53149">
        <ele>1.26</ele>
        <time>2020-07-08T13:19:29Z</time>
      </trkpt>
      <trkpt lat="47.79136" lon="-3.53149">
        <ele>1.26</ele>
        <time>2020-07-08T13:19:30Z</time>
      </trkpt>
      <trkpt lat="47.79136" lon="-3.53149">
        <ele>1.26</ele>
        <time>2020-07-08T13:19:31Z</time>
      </trkpt>
      <trkpt lat="47.79136" lon="-3.53149">
        <ele>1.26</ele>
        <time>2020-07-08T13:19:32Z</time>
      </trkpt>
      <trkpt lat="47.79136" lon="-3.53149">
        <ele>1.26</ele>
        <time>2020-07-08T13:19:33Z</time>
      </trkpt>
      <trkpt lat="47.79136" lon="-3.53149">
        <ele>1.26</ele>
        <time>2020-07-08T13:19:34Z</time>
      </trkpt>
      <trkpt lat="47.79136" lon="-3.53149">
        <ele>1.26</ele>
        <time>2020-07-08T13:19:35Z</time>
      </trkpt>
      <trkpt lat="47.79136" lon="-3.53149">
        <ele>1.26</ele>
        <time>2020-07-08T13:19:36Z</time>
      </trkpt>
      <trkpt lat="47.79136" lon="-3.53149">
        <ele>1.26</ele>
        <time>2020-07-08T13:19:37Z</time>
      </trkpt>
      <trkpt lat="47.79136" lon="-3.53149">
        <ele>1.26</ele>
        <time>2020-07-08T13:19:38Z</time>
      </trkpt>
      <trkpt lat="47.79136" lon="-3.53149">
        <ele>1.26</ele>
        <time>2020-07-08T13:19:39Z</time>
      </trkpt>
      <trkpt lat="47.79136" lon="-3.53149">
        <ele>1.26</ele>
        <time>2020-07-08T13:19:40Z</time>
      </trkpt>
      <trkpt lat="47.79136" lon="-3.53149">
        <ele>1.26</ele>
        <time>2020-07-08T13:19:41Z</time>
      </trkpt>
      <trkpt lat="47.79136" lon="-3.53149">
        <ele>1.26</ele>
        <time>2020-07-08T13:19:42Z</time>
      </trkpt>
      <trkpt lat="47.79136" lon="-3.53149">
        <ele>1.26</ele>
        <time>2020-07-08T13:19:43Z</time>
      </trkpt>
      <trkpt lat="47.79136" lon="-3.53149">
        <ele>1.26</ele>
        <time>2020-07-08T13:19:44Z</time>
      </trkpt>
      <trkpt lat="47.79136" lon="-3.53149">
        <ele>1.26</ele>
        <time>2020-07-08T13:19:45Z</time>
      </trkpt>
      <trkpt lat="47.79136" lon="-3.53149">
        <ele>1.26</ele>
        <time>2020-07-08T13:19:46Z</time>
      </trkpt>
      <trkpt lat="47.79136" lon="-3.53149">
        <ele>1.26</ele>
        <time>2020-07-08T13:19:47Z</time>
      </trkpt>
      <trkpt lat="47.79136" lon="-3.53149">
        <ele>1.26</ele>
        <time>2020-07-08T13:19:48Z</time>
      </trkpt>
      <trkpt lat="47.79136" lon="-3.53149">
        <ele>1.26</ele>
        <time>2020-07-08T13:19:49Z</time>
      </trkpt>
      <trkpt lat="47.79136" lon="-3.53149">
        <ele>1.26</ele>
        <time>2020-07-08T13:19:50Z</time>
      </trkpt>
      <trkpt lat="47.79136" lon="-3.53149">
        <ele>1.26</ele>
        <time>2020-07-08T13:19:51Z</time>
      </trkpt>
      <trkpt lat="47.79136" lon="-3.53149">
        <ele>1.26</ele>
        <time>2020-07-08T13:19:52Z</time>
      </trkpt>
      <trkpt lat="47.79136" lon="-3.53149">
        <ele>1.26</ele>
        <time>2020-07-08T13:19:53Z</time>
      </trkpt>
      <trkpt lat="47.79136" lon="-3.53149">
        <ele>1.26</ele>
        <time>2020-07-08T13:19:54Z</time>
      </trkpt>
      <trkpt lat="47.79136" lon="-3.53149">
        <ele>1.26</ele>
        <time>2020-07-08T13:19:55Z</time>
      </trkpt>
      <trkpt lat="47.79136" lon="-3.53149">
        <ele>1.26</ele>
        <time>2020-07-08T13:19:56Z</time>
      </trkpt>
      <trkpt lat="47.79136" lon="-3.53149">
        <ele>1.26</ele>
        <time>2020-07-08T13:19:57Z</time>
      </trkpt>
      <trkpt lat="47.79136" lon="-3.53149">
        <ele>1.26</ele>
        <time>2020-07-08T13:19:58Z</time>
      </trkpt>
      <trkpt lat="47.79136" lon="-3.53149">
        <ele>1.26</ele>
        <time>2020-07-08T13:19:59Z</time>
      </trkpt>
      <trkpt lat="47.79136" lon="-3.53149">
        <ele>1.26</ele>
        <time>2020-07-08T13:20:00Z</time>
      </trkpt>
      <trkpt lat="47.79136" lon="-3.53149">
        <ele>1.26</ele>
        <time>2020-07-08T13:20:01Z</time>
      </trkpt>
      <trkpt lat="47.79136" lon="-3.53149">
        <ele>1.26</ele>
        <time>2020-07-08T13:20:02Z</time>
      </trkpt>
      <trkpt lat="47.79136" lon="-3.53149">
        <ele>1.26</ele>
        <time>2020-07-08T13:20:03Z</time>
      </trkpt>
      <trkpt lat="47.79136" lon="-3.53149">
        <ele>1.26</ele>
        <time>2020-07-08T13:20:04Z</time>
      </trkpt>
      <trkpt lat="47.79136" lon="-3.53149">
        <ele>1.26</ele>
        <time>2020-07-08T13:20:05Z</time>
      </trkpt>
      <trkpt lat="47.79136" lon="-3.53149">
        <ele>1.26</ele>
        <time>2020-07-08T13:20:06Z</time>
      </trkpt>
      <trkpt lat="47.79136" lon="-3.53149">
        <ele>1.26</ele>
        <time>2020-07-08T13:20:07Z</time>
      </trkpt>
      <trkpt lat="47.79136" lon="-3.53149">
        <ele>1.26</ele>
        <time>2020-07-08T13:20:08Z</time>
      </trkpt>
      <trkpt lat="47.79136" lon="-3.53149">
        <ele>1.26</ele>
        <time>2020-07-08T13:20:09Z</time>
      </trkpt>
      <trkpt lat="47.79136" lon="-3.53149">
        <ele>1.26</ele>
        <time>2020-07-08T13:20:10Z</time>
      </trkpt>
      <trkpt lat="47.79136" lon="-3.53149">
        <ele>1.26</ele>
        <time>2020-07-08T13:20:11Z</time>
      </trkpt>
      <trkpt lat="47.79136" lon="-3.53149">
        <ele>1.26</ele>
        <time>2020-07-08T13:20:12Z</time>
      </trkpt>
      <trkpt lat="47.79136" lon="-3.53149">
        <ele>1.26</ele>
        <time>2020-07-08T13:20:13Z</time>
      </trkpt>
      <trkpt lat="47.79136" lon="-3.53149">
        <ele>1.26</ele>
        <time>2020-07-08T13:20:14Z</time>
      </trkpt>
      <trkpt lat="47.79136" lon="-3.53149">
        <ele>1.26</ele>
        <time>2020-07-08T13:20:15Z</time>
      </trkpt>
      <trkpt lat="47.79136" lon="-3.53149">
        <ele>1.26</ele>
        <time>2020-07-08T13:20:16Z</time>
      </trkpt>
      <trkpt lat="47.79136" lon="-3.53149">
        <ele>1.26</ele>
        <time>2020-07-08T13:20:17Z</time>
      </trkpt>
      <trkpt lat="47.79136" lon="-3.53149">
        <ele>1.26</ele>
        <time>2020-07-08T13:20:18Z</time>
      </trkpt>
      <trkpt lat="47.79136" lon="-3.53149">
        <ele>1.26</ele>
        <time>2020-07-08T13:20:19Z</time>
      </trkpt>
      <trkpt lat="47.79136" lon="-3.53149">
        <ele>1.26</ele>
        <time>2020-07-08T13:20:20Z</time>
      </trkpt>
      <trkpt lat="47.79136" lon="-3.53149">
        <ele>1.26</ele>
        <time>2020-07-08T13:20:21Z</time>
      </trkpt>
      <trkpt lat="47.79136" lon="-3.53149">
        <ele>1.26</ele>
        <time>2020-07-08T13:20:22Z</time>
      </trkpt>
      <trkpt lat="47.79136" lon="-3.53149">
        <ele>1.26</ele>
        <time>2020-07-08T13:20:23Z</time>
      </trkpt>
      <trkpt lat="47.79136" lon="-3.53149">
        <ele>1.26</ele>
        <time>2020-07-08T13:20:24Z</time>
      </trkpt>
      <trkpt lat="47.79136" lon="-3.53149">
        <ele>1.26</ele>
        <time>2020-07-08T13:20:25Z</time>
      </trkpt>
      <trkpt lat="47.79136" lon="-3.53149">
        <ele>1.26</ele>
        <time>2020-07-08T13:20:26Z</time>
      </trkpt>
      <trkpt lat="47.79136" lon="-3.53149">
        <ele>1.26</ele>
        <time>2020-07-08T13:20:27Z</time>
      </trkpt>
      <trkpt lat="47.79136" lon="-3.53149">
        <ele>1.26</ele>
        <time>2020-07-08T13:20:28Z</time>
      </trkpt>
      <trkpt lat="47.79136" lon="-3.53149">
        <ele>1.26</ele>
        <time>2020-07-08T13:20:29Z</time>
      </trkpt>
      <trkpt lat="47.79136" lon="-3.53149">
        <ele>1.26</ele>
        <time>2020-07-08T13:20:30Z</time>
      </trkpt>
      <trkpt lat="47.79136" lon="-3.53149">
        <ele>1.26</ele>
        <time>2020-07-08T13:20:31Z</time>
      </trkpt>
      <trkpt lat="47.79136" lon="-3.53149">
        <ele>1.26</ele>
        <time>2020-07-08T13:20:32Z</time>
      </trkpt>
      <trkpt lat="47.79136" lon="-3.53149">
        <ele>1.26</ele>
        <time>2020-07-08T13:20:33Z</time>
      </trkpt>
      <trkpt lat="47.79136" lon="-3.53149">
        <ele>1.26</ele>
        <time>2020-07-08T13:20:34Z</time>
      </trkpt>
      <trkpt lat="47.79136" lon="-3.53149">
        <ele>1.26</ele>
        <time>2020-07-08T13:20:35Z</time>
      </trkpt>
      <trkpt lat="47.79136" lon="-3.53149">
        <ele>1.26</ele>
        <time>2020-07-08T13:20:36Z</time>
      </trkpt>
      <trkpt lat="47.79136" lon="-3.53149">
        <ele>1.26</ele>
        <time>2020-07-08T13:20:37Z</time>
      </trkpt>
      <trkpt lat="47.79136" lon="-3.53149">
        <ele>1.26</ele>
        <time>2020-07-08T13:20:38Z</time>
      </trkpt>
      <trkpt lat="47.79136" lon="-3.53149">
        <ele>1.26</ele>
        <time>2020-07-08T13:20:39Z</time>
      </trkpt>
      <trkpt lat="47.79136" lon="-3.53149">
        <ele>1.26</ele>
        <time>2020-07-08T13:20:40Z</time>
      </trkpt>
      <trkpt lat="47.79136" lon="-3.53149">
        <ele>1.26</ele>
        <time>2020-07-08T13:20:41Z</time>
      </trkpt>
      <trkpt lat="47.79136" lon="-3.53149">
        <ele>1.26</ele>
        <time>2020-07-08T13:20:42Z</time>
      </trkpt>
      <trkpt lat="47.79136" lon="-3.53149">
        <ele>1.26</ele>
        <time>2020-07-08T13:20:43Z</time>
      </trkpt>
      <trkpt lat="47.79136" lon="-3.53149">
        <ele>1.26</ele>
        <time>2020-07-08T13:20:44Z</time>
      </trkpt>
      <trkpt lat="47.79136" lon="-3.53149">
        <ele>1.26</ele>
        <time>2020-07-08T13:20:45Z</time>
      </trkpt>
      <trkpt lat="47.79136" lon="-3.53149">
        <ele>1.26</ele>
        <time>2020-07-08T13:20:46Z</time>
      </trkpt>
      <trkpt lat="47.79136" lon="-3.53149">
        <ele>1.26</ele>
        <time>2020-07-08T13:20:47Z</time>
      </trkpt>
      <trkpt lat="47.79136" lon="-3.53149">
        <ele>1.26</ele>
        <time>2020-07-08T13:20:48Z</time>
      </trkpt>
      <trkpt lat="47.79136" lon="-3.53149">
        <ele>1.26</ele>
        <time>2020-07-08T13:20:49Z</time>
      </trkpt>
      <trkpt lat="47.79136" lon="-3.53149">
        <ele>1.26</ele>
        <time>2020-07-08T13:20:50Z</time>
      </trkpt>
      <trkpt lat="47.79136" lon="-3.53149">
        <ele>1.26</ele>
        <time>2020-07-08T13:20:51Z</time>
      </trkpt>
      <trkpt lat="47.79136" lon="-3.53149">
        <ele>1.26</ele>
        <time>2020-07-08T13:20:52Z</time>
      </trkpt>
      <trkpt lat="47.79136" lon="-3.53149">
        <ele>1.26</ele>
        <time>2020-07-08T13:20:53Z</time>
      </trkpt>
      <trkpt lat="47.79136" lon="-3.53149">
        <ele>1.26</ele>
        <time>2020-07-08T13:20:54Z</time>
      </trkpt>
      <trkpt lat="47.79136" lon="-3.53149">
        <ele>1.26</ele>
        <time>2020-07-08T13:20:55Z</time>
      </trkpt>
      <trkpt lat="47.79136" lon="-3.53149">
        <ele>1.26</ele>
        <time>2020-07-08T13:20:56Z</time>
      </trkpt>
      <trkpt lat="47.79136" lon="-3.53149">
        <ele>1.26</ele>
        <time>2020-07-08T13:20:57Z</time>
      </trkpt>
      <trkpt lat="47.79136" lon="-3.53149">
        <ele>1.26</ele>
        <time>2020-07-08T13:20:58Z</time>
      </trkpt>
      <trkpt lat="47.79136" lon="-3.53149">
        <ele>1.26</ele>
        <time>2020-07-08T13:20:59Z</time>
      </trkpt>
      <trkpt lat="47.79136" lon="-3.53149">
        <ele>1.26</ele>
        <time>2020-07-08T13:21:00Z</time>
      </trkpt>
      <trkpt lat="47.79135" lon="-3.53153">
        <ele>1.35</ele>
        <time>2020-07-08T13:21:01Z</time>
      </trkpt>
      <trkpt lat="47.79133" lon="-3.53154">
        <ele>1.35</ele>
        <time>2020-07-08T13:21:02Z</time>
      </trkpt>
      <trkpt lat="47.79131" lon="-3.53155">
        <ele>1.31</ele>
        <time>2020-07-08T13:21:03Z</time>
      </trkpt>
      <trkpt lat="47.79128" lon="-3.53157">
        <ele>1.28</ele>
        <time>2020-07-08T13:21:04Z</time>
      </trkpt>
      <trkpt lat="47.79126" lon="-3.53158">
        <ele>1.24</ele>
        <time>2020-07-08T13:21:05Z</time>
      </trkpt>
      <trkpt lat="47.79122" lon="-3.5316">
        <ele>1.18</ele>
        <time>2020-07-08T13:21:06Z</time>
      </trkpt>
      <trkpt lat="47.79119" lon="-3.53162">
        <ele>1.12</ele>
        <time>2020-07-08T13:21:07Z</time>
      </trkpt>
      <trkpt lat="47.79115" lon="-3.53164">
        <ele>1.06</ele>
        <time>2020-07-08T13:21:08Z</time>
      </trkpt>
      <trkpt lat="47.79112" lon="-3.53165">
        <ele>1.01</ele>
        <time>2020-07-08T13:21:09Z</time>
      </trkpt>
      <trkpt lat="47.79109" lon="-3.53168">
        <ele>1.03</ele>
        <time>2020-07-08T13:21:10Z</time>
      </trkpt>
      <trkpt lat="47.79106" lon="-3.5317">
        <ele>1.09</ele>
        <time>2020-07-08T13:21:11Z</time>
      </trkpt>
      <trkpt lat="47.79104" lon="-3.53171">
        <ele>1.15</ele>
        <time>2020-07-08T13:21:12Z</time>
      </trkpt>
      <trkpt lat="47.79101" lon="-3.53172">
        <ele>1.19</ele>
        <time>2020-07-08T13:21:13Z</time>
      </trkpt>
      <trkpt lat="47.79098" lon="-3.53174">
        <ele>1.25</ele>
        <time>2020-07-08T13:21:14Z</time>
      </trkpt>
      <trkpt lat="47.79096" lon="-3.53176">
        <ele>1.3</ele>
        <time>2020-07-08T13:21:15Z</time>
      </trkpt>
      <trkpt lat="47.79094" lon="-3.53177">
        <ele>1.36</ele>
        <time>2020-07-08T13:21:16Z</time>
      </trkpt>
      <trkpt lat="47.79091" lon="-3.53179">
        <ele>1.42</ele>
        <time>2020-07-08T13:21:17Z</time>
      </trkpt>
      <trkpt lat="47.79089" lon="-3.5318">
        <ele>1.47</ele>
        <time>2020-07-08T13:21:18Z</time>
      </trkpt>
      <trkpt lat="47.79086" lon="-3.53182">
        <ele>1.52</ele>
        <time>2020-07-08T13:21:19Z</time>
      </trkpt>
      <trkpt lat="47.79082" lon="-3.53184">
        <ele>1.58</ele>
        <time>2020-07-08T13:21:20Z</time>
      </trkpt>
      <trkpt lat="47.79079" lon="-3.53186">
        <ele>1.64</ele>
        <time>2020-07-08T13:21:21Z</time>
      </trkpt>
      <trkpt lat="47.79076" lon="-3.53188">
        <ele>1.69</ele>
        <time>2020-07-08T13:21:22Z</time>
      </trkpt>
      <trkpt lat="47.79072" lon="-3.5319">
        <ele>1.74</ele>
        <time>2020-07-08T13:21:23Z</time>
      </trkpt>
      <trkpt lat="47.79069" lon="-3.53191">
        <ele>1.8</ele>
        <time>2020-07-08T13:21:24Z</time>
      </trkpt>
      <trkpt lat="47.79066" lon="-3.53193">
        <ele>1.87</ele>
        <time>2020-07-08T13:21:25Z</time>
      </trkpt>
      <trkpt lat="47.79062" lon="-3.53194">
        <ele>1.96</ele>
        <time>2020-07-08T13:21:26Z</time>
      </trkpt>
      <trkpt lat="47.79058" lon="-3.53196">
        <ele>2.06</ele>
        <time>2020-07-08T13:21:27Z</time>
      </trkpt>
      <trkpt lat="47.79054" lon="-3.53198">
        <ele>2.27</ele>
        <time>2020-07-08T13:21:28Z</time>
      </trkpt>
      <trkpt lat="47.7905" lon="-3.532">
        <ele>2.63</ele>
        <time>2020-07-08T13:21:29Z</time>
      </trkpt>
      <trkpt lat="47.79047" lon="-3.53201">
        <ele>2.98</ele>
        <time>2020-07-08T13:21:30Z</time>
      </trkpt>
      <trkpt lat="47.79044" lon="-3.53201">
        <ele>3.27</ele>
        <time>2020-07-08T13:21:31Z</time>
      </trkpt>
      <trkpt lat="47.79041" lon="-3.532">
        <ele>3.49</ele>
        <time>2020-07-08T13:21:32Z</time>
      </trkpt>
      <trkpt lat="47.79039" lon="-3.53198">
        <ele>3.55</ele>
        <time>2020-07-08T13:21:33Z</time>
      </trkpt>
      <trkpt lat="47.79036" lon="-3.53196">
        <ele>3.53</ele>
        <time>2020-07-08T13:21:34Z</time>
      </trkpt>
      <trkpt lat="47.79034" lon="-3.53194">
        <ele>3.49</ele>
        <time>2020-07-08T13:21:35Z</time>
      </trkpt>
      <trkpt lat="47.79032" lon="-3.53191">
        <ele>3.42</ele>
        <time>2020-07-08T13:21:36Z</time>
      </trkpt>
      <trkpt lat="47.79029" lon="-3.53189">
        <ele>3.33</ele>
        <time>2020-07-08T13:21:37Z</time>
      </trkpt>
      <trkpt lat="47.79027" lon="-3.53186">
        <ele>3.3</ele>
        <time>2020-07-08T13:21:38Z</time>
      </trkpt>
      <trkpt lat="47.79024" lon="-3.53184">
        <ele>3.38</ele>
        <time>2020-07-08T13:21:39Z</time>
      </trkpt>
      <trkpt lat="47.79021" lon="-3.53183">
        <ele>3.55</ele>
        <time>2020-07-08T13:21:40Z</time>
      </trkpt>
      <trkpt lat="47.79017" lon="-3.53181">
        <ele>3.75</ele>
        <time>2020-07-08T13:21:41Z</time>
      </trkpt>
      <trkpt lat="47.79015" lon="-3.53179">
        <ele>3.86</ele>
        <time>2020-07-08T13:21:42Z</time>
      </trkpt>
      <trkpt lat="47.79011" lon="-3.53178">
        <ele>4.04</ele>
        <time>2020-07-08T13:21:43Z</time>
      </trkpt>
      <trkpt lat="47.79007" lon="-3.53176">
        <ele>4.2</ele>
        <time>2020-07-08T13:21:44Z</time>
      </trkpt>
      <trkpt lat="47.79004" lon="-3.53175">
        <ele>4.35</ele>
        <time>2020-07-08T13:21:45Z</time>
      </trkpt>
      <trkpt lat="47.79" lon="-3.53174">
        <ele>4.45</ele>
        <time>2020-07-08T13:21:46Z</time>
      </trkpt>
      <trkpt lat="47.78997" lon="-3.53172">
        <ele>4.8</ele>
        <time>2020-07-08T13:21:47Z</time>
      </trkpt>
      <trkpt lat="47.78994" lon="-3.53171">
        <ele>5.17</ele>
        <time>2020-07-08T13:21:48Z</time>
      </trkpt>
      <trkpt lat="47.7899" lon="-3.5317">
        <ele>5.76</ele>
        <time>2020-07-08T13:21:49Z</time>
      </trkpt>
      <trkpt lat="47.78987" lon="-3.53168">
        <ele>6.29</ele>
        <time>2020-07-08T13:21:50Z</time>
      </trkpt>
      <trkpt lat="47.78984" lon="-3.53167">
        <ele>6.86</ele>
        <time>2020-07-08T13:21:51Z</time>
      </trkpt>
      <trkpt lat="47.7898" lon="-3.53165">
        <ele>7.4</ele>
        <time>2020-07-08T13:21:52Z</time>
      </trkpt>
      <trkpt lat="47.78978" lon="-3.53163">
        <ele>7.66</ele>
        <time>2020-07-08T13:21:53Z</time>
      </trkpt>
      <trkpt lat="47.78975" lon="-3.5316">
        <ele>7.73</ele>
        <time>2020-07-08T13:21:54Z</time>
      </trkpt>
      <trkpt lat="47.78972" lon="-3.53158">
        <ele>7.85</ele>
        <time>2020-07-08T13:21:55Z</time>
      </trkpt>
      <trkpt lat="47.78968" lon="-3.53155">
        <ele>7.9</ele>
        <time>2020-07-08T13:21:56Z</time>
      </trkpt>
      <trkpt lat="47.78964" lon="-3.53153">
        <ele>7.99</ele>
        <time>2020-07-08T13:21:57Z</time>
      </trkpt>
      <trkpt lat="47.7896" lon="-3.5315">
        <ele>8.02</ele>
        <time>2020-07-08T13:21:58Z</time>
      </trkpt>
      <trkpt lat="47.78957" lon="-3.53148">
        <ele>8.22</ele>
        <time>2020-07-08T13:21:59Z</time>
      </trkpt>
      <trkpt lat="47.78953" lon="-3.53147">
        <ele>8.51</ele>
        <time>2020-07-08T13:22:00Z</time>
      </trkpt>
      <trkpt lat="47.7895" lon="-3.53145">
        <ele>8.67</ele>
        <time>2020-07-08T13:22:01Z</time>
      </trkpt>
      <trkpt lat="47.78948" lon="-3.53145">
        <ele>8.87</ele>
        <time>2020-07-08T13:22:02Z</time>
      </trkpt>
      <trkpt lat="47.78946" lon="-3.53144">
        <ele>8.99</ele>
        <time>2020-07-08T13:22:03Z</time>
      </trkpt>
      <trkpt lat="47.78944" lon="-3.53143">
        <ele>9.11</ele>
        <time>2020-07-08T13:22:04Z</time>
      </trkpt>
      <trkpt lat="47.78942" lon="-3.53142">
        <ele>9.46</ele>
        <time>2020-07-08T13:22:05Z</time>
      </trkpt>
      <trkpt lat="47.78939" lon="-3.53141">
        <ele>10.01</ele>
        <time>2020-07-08T13:22:06Z</time>
      </trkpt>
      <trkpt lat="47.78935" lon="-3.5314">
        <ele>10.6</ele>
        <time>2020-07-08T13:22:07Z</time>
      </trkpt>
      <trkpt lat="47.78932" lon="-3.53139">
        <ele>11.24</ele>
        <time>2020-07-08T13:22:08Z</time>
      </trkpt>
      <trkpt lat="47.78929" lon="-3.53138">
        <ele>11.75</ele>
        <time>2020-07-08T13:22:09Z</time>
      </trkpt>
      <trkpt lat="47.78927" lon="-3.53136">
        <ele>12.07</ele>
        <time>2020-07-08T13:22:10Z</time>
      </trkpt>
      <trkpt lat="47.78924" lon="-3.53135">
        <ele>12.15</ele>
        <time>2020-07-08T13:22:11Z</time>
      </trkpt>
      <trkpt lat="47.78922" lon="-3.53134">
        <ele>12.39</ele>
        <time>2020-07-08T13:22:12Z</time>
      </trkpt>
      <trkpt lat="47.78921" lon="-3.53133">
        <ele>12.57</ele>
        <time>2020-07-08T13:22:13Z</time>
      </trkpt>
      <trkpt lat="47.78919" lon="-3.53132">
        <ele>12.61</ele>
        <time>2020-07-08T13:22:14Z</time>
      </trkpt>
      <trkpt lat="47.78917" lon="-3.53131">
        <ele>12.7</ele>
        <time>2020-07-08T13:22:15Z</time>
      </trkpt>
      <trkpt lat="47.78913" lon="-3.5313">
        <ele>13.31</ele>
        <time>2020-07-08T13:22:16Z</time>
      </trkpt>
      <trkpt lat="47.78911" lon="-3.53129">
        <ele>13.82</ele>
        <time>2020-07-08T13:22:17Z</time>
      </trkpt>
      <trkpt lat="47.78908" lon="-3.53128">
        <ele>14.42</ele>
        <time>2020-07-08T13:22:18Z</time>
      </trkpt>
      <trkpt lat="47.78905" lon="-3.53127">
        <ele>14.92</ele>
        <time>2020-07-08T13:22:19Z</time>
      </trkpt>
      <trkpt lat="47.78904" lon="-3.53126">
        <ele>15.19</ele>
        <time>2020-07-08T13:22:20Z</time>
      </trkpt>
      <trkpt lat="47.78902" lon="-3.53125">
        <ele>15.6</ele>
        <time>2020-07-08T13:22:21Z</time>
      </trkpt>
      <trkpt lat="47.789" lon="-3.53123">
        <ele>15.48</ele>
        <time>2020-07-08T13:22:22Z</time>
      </trkpt>
      <trkpt lat="47.78897" lon="-3.53122">
        <ele>15.67</ele>
        <time>2020-07-08T13:22:23Z</time>
      </trkpt>
      <trkpt lat="47.78896" lon="-3.5312">
        <ele>15.5</ele>
        <time>2020-07-08T13:22:24Z</time>
      </trkpt>
      <trkpt lat="47.78894" lon="-3.53119">
        <ele>15.54</ele>
        <time>2020-07-08T13:22:25Z</time>
      </trkpt>
      <trkpt lat="47.78893" lon="-3.53118">
        <ele>15.59</ele>
        <time>2020-07-08T13:22:26Z</time>
      </trkpt>
      <trkpt lat="47.78892" lon="-3.53118">
        <ele>15.61</ele>
        <time>2020-07-08T13:22:27Z</time>
      </trkpt>
      <trkpt lat="47.78891" lon="-3.53117">
        <ele>15.75</ele>
        <time>2020-07-08T13:22:28Z</time>
      </trkpt>
      <trkpt lat="47.78889" lon="-3.53117">
        <ele>16.22</ele>
        <time>2020-07-08T13:22:29Z</time>
      </trkpt>
      <trkpt lat="47.78887" lon="-3.53115">
        <ele>16.52</ele>
        <time>2020-07-08T13:22:30Z</time>
      </trkpt>
      <trkpt lat="47.78886" lon="-3.53114">
        <ele>16.46</ele>
        <time>2020-07-08T13:22:31Z</time>
      </trkpt>
      <trkpt lat="47.78885" lon="-3.53112">
        <ele>16.45</ele>
        <time>2020-07-08T13:22:32Z</time>
      </trkpt>
      <trkpt lat="47.78883" lon="-3.53112">
        <ele>16.62</ele>
        <time>2020-07-08T13:22:33Z</time>
      </trkpt>
      <trkpt lat="47.78882" lon="-3.53112">
        <ele>17.07</ele>
        <time>2020-07-08T13:22:34Z</time>
      </trkpt>
      <trkpt lat="47.78881" lon="-3.53111">
        <ele>17.51</ele>
        <time>2020-07-08T13:22:35Z</time>
      </trkpt>
      <trkpt lat="47.78879" lon="-3.53111">
        <ele>18.06</ele>
        <time>2020-07-08T13:22:36Z</time>
      </trkpt>
      <trkpt lat="47.78878" lon="-3.53111">
        <ele>18.29</ele>
        <time>2020-07-08T13:22:37Z</time>
      </trkpt>
      <trkpt lat="47.78877" lon="-3.5311">
        <ele>18.69</ele>
        <time>2020-07-08T13:22:38Z</time>
      </trkpt>
      <trkpt lat="47.78875" lon="-3.53108">
        <ele>18.83</ele>
        <time>2020-07-08T13:22:39Z</time>
      </trkpt>
      <trkpt lat="47.78874" lon="-3.53107">
        <ele>18.94</ele>
        <time>2020-07-08T13:22:40Z</time>
      </trkpt>
      <trkpt lat="47.78872" lon="-3.53106">
        <ele>19.08</ele>
        <time>2020-07-08T13:22:41Z</time>
      </trkpt>
      <trkpt lat="47.78872" lon="-3.53104">
        <ele>18.91</ele>
        <time>2020-07-08T13:22:42Z</time>
      </trkpt>
      <trkpt lat="47.78871" lon="-3.53103">
        <ele>18.8</ele>
        <time>2020-07-08T13:22:43Z</time>
      </trkpt>
      <trkpt lat="47.7887" lon="-3.53102">
        <ele>18.89</ele>
        <time>2020-07-08T13:22:44Z</time>
      </trkpt>
      <trkpt lat="47.78868" lon="-3.531">
        <ele>18.94</ele>
        <time>2020-07-08T13:22:45Z</time>
      </trkpt>
      <trkpt lat="47.78866" lon="-3.53098">
        <ele>19.1</ele>
        <time>2020-07-08T13:22:46Z</time>
      </trkpt>
      <trkpt lat="47.78865" lon="-3.53095">
        <ele>18.99</ele>
        <time>2020-07-08T13:22:47Z</time>
      </trkpt>
      <trkpt lat="47.78862" lon="-3.5309">
        <ele>18.71</ele>
        <time>2020-07-08T13:22:48Z</time>
      </trkpt>
      <trkpt lat="47.7886" lon="-3.53086">
        <ele>18.35</ele>
        <time>2020-07-08T13:22:49Z</time>
      </trkpt>
      <trkpt lat="47.78858" lon="-3.53082">
        <ele>18.01</ele>
        <time>2020-07-08T13:22:50Z</time>
      </trkpt>
      <trkpt lat="47.78856" lon="-3.53078">
        <ele>17.28</ele>
        <time>2020-07-08T13:22:51Z</time>
      </trkpt>
      <trkpt lat="47.78854" lon="-3.53071">
        <ele>16.31</ele>
        <time>2020-07-08T13:22:52Z</time>
      </trkpt>
      <trkpt lat="47.78851" lon="-3.53065">
        <ele>15.66</ele>
        <time>2020-07-08T13:22:53Z</time>
      </trkpt>
      <trkpt lat="47.78848" lon="-3.53059">
        <ele>15.08</ele>
        <time>2020-07-08T13:22:54Z</time>
      </trkpt>
      <trkpt lat="47.78846" lon="-3.53051">
        <ele>14.38</ele>
        <time>2020-07-08T13:22:55Z</time>
      </trkpt>
      <trkpt lat="47.78844" lon="-3.53042">
        <ele>13.71</ele>
        <time>2020-07-08T13:22:56Z</time>
      </trkpt>
      <trkpt lat="47.78843" lon="-3.53034">
        <ele>12.58</ele>
        <time>2020-07-08T13:22:57Z</time>
      </trkpt>
      <trkpt lat="47.78841" lon="-3.53027">
        <ele>11.67</ele>
        <time>2020-07-08T13:22:58Z</time>
      </trkpt>
      <trkpt lat="47.7884" lon="-3.53019">
        <ele>10.63</ele>
        <time>2020-07-08T13:22:59Z</time>
      </trkpt>
      <trkpt lat="47.78837" lon="-3.53014">
        <ele>10.08</ele>
        <time>2020-07-08T13:23:00Z</time>
      </trkpt>
      <trkpt lat="47.78833" lon="-3.53008">
        <ele>9.55</ele>
        <time>2020-07-08T13:23:01Z</time>
      </trkpt>
      <trkpt lat="47.7883" lon="-3.53003">
        <ele>8.41</ele>
        <time>2020-07-08T13:23:02Z</time>
      </trkpt>
      <trkpt lat="47.78829" lon="-3.52997">
        <ele>7.14</ele>
        <time>2020-07-08T13:23:03Z</time>
      </trkpt>
      <trkpt lat="47.78826" lon="-3.52993">
        <ele>6.1</ele>
        <time>2020-07-08T13:23:04Z</time>
      </trkpt>
      <trkpt lat="47.78823" lon="-3.52989">
        <ele>5.3</ele>
        <time>2020-07-08T13:23:05Z</time>
      </trkpt>
      <trkpt lat="47.78821" lon="-3.52987">
        <ele>4.78</ele>
        <time>2020-07-08T13:23:06Z</time>
      </trkpt>
      <trkpt lat="47.78818" lon="-3.52986">
        <ele>4.57</ele>
        <time>2020-07-08T13:23:07Z</time>
      </trkpt>
      <trkpt lat="47.78814" lon="-3.52985">
        <ele>4.59</ele>
        <time>2020-07-08T13:23:08Z</time>
      </trkpt>
      <trkpt lat="47.7881" lon="-3.52984">
        <ele>4.6</ele>
        <time>2020-07-08T13:23:09Z</time>
      </trkpt>
      <trkpt lat="47.78805" lon="-3.52981">
        <ele>4.37</ele>
        <time>2020-07-08T13:23:10Z</time>
      </trkpt>
      <trkpt lat="47.78802" lon="-3.52979">
        <ele>4.21</ele>
        <time>2020-07-08T13:23:11Z</time>
      </trkpt>
      <trkpt lat="47.78798" lon="-3.52977">
        <ele>4.05</ele>
        <time>2020-07-08T13:23:12Z</time>
      </trkpt>
      <trkpt lat="47.78796" lon="-3.52976">
        <ele>4.03</ele>
        <time>2020-07-08T13:23:13Z</time>
      </trkpt>
      <trkpt lat="47.78794" lon="-3.52975">
        <ele>3.99</ele>
        <time>2020-07-08T13:23:14Z</time>
      </trkpt>
      <trkpt lat="47.78793" lon="-3.52975">
        <ele>4.11</ele>
        <time>2020-07-08T13:23:15Z</time>
      </trkpt>
      <trkpt lat="47.78791" lon="-3.52974">
        <ele>4.13</ele>
        <time>2020-07-08T13:23:16Z</time>
      </trkpt>
      <trkpt lat="47.78788" lon="-3.52974">
        <ele>4.15</ele>
        <time>2020-07-08T13:23:17Z</time>
      </trkpt>
      <trkpt lat="47.78786" lon="-3.52971">
        <ele>3.98</ele>
        <time>2020-07-08T13:23:18Z</time>
      </trkpt>
      <trkpt lat="47.78784" lon="-3.5297">
        <ele>4.04</ele>
        <time>2020-07-08T13:23:19Z</time>
      </trkpt>
      <trkpt lat="47.78782" lon="-3.52969">
        <ele>4.17</ele>
        <time>2020-07-08T13:23:20Z</time>
      </trkpt>
      <trkpt lat="47.7878" lon="-3.52968">
        <ele>4.3</ele>
        <time>2020-07-08T13:23:21Z</time>
      </trkpt>
      <trkpt lat="47.78777" lon="-3.52967">
        <ele>4.43</ele>
        <time>2020-07-08T13:23:22Z</time>
      </trkpt>
      <trkpt lat="47.78776" lon="-3.52965">
        <ele>4.81</ele>
        <time>2020-07-08T13:23:23Z</time>
      </trkpt>
      <trkpt lat="47.78774" lon="-3.52964">
        <ele>5.33</ele>
        <time>2020-07-08T13:23:24Z</time>
      </trkpt>
      <trkpt lat="47.78773" lon="-3.52964">
        <ele>5.69</ele>
        <time>2020-07-08T13:23:25Z</time>
      </trkpt>
      <trkpt lat="47.78771" lon="-3.52963">
        <ele>6.16</ele>
        <time>2020-07-08T13:23:26Z</time>
      </trkpt>
      <trkpt lat="47.78769" lon="-3.52961">
        <ele>6.58</ele>
        <time>2020-07-08T13:23:27Z</time>
      </trkpt>
      <trkpt lat="47.78768" lon="-3.52959">
        <ele>6.74</ele>
        <time>2020-07-08T13:23:28Z</time>
      </trkpt>
      <trkpt lat="47.78768" lon="-3.52958">
        <ele>6.84</ele>
        <time>2020-07-08T13:23:29Z</time>
      </trkpt>
      <trkpt lat="47.78767" lon="-3.52956">
        <ele>6.98</ele>
        <time>2020-07-08T13:23:30Z</time>
      </trkpt>
      <trkpt lat="47.78766" lon="-3.52955">
        <ele>7.15</ele>
        <time>2020-07-08T13:23:31Z</time>
      </trkpt>
      <trkpt lat="47.78764" lon="-3.52954">
        <ele>7.38</ele>
        <time>2020-07-08T13:23:32Z</time>
      </trkpt>
      <trkpt lat="47.78763" lon="-3.52954">
        <ele>7.73</ele>
        <time>2020-07-08T13:23:33Z</time>
      </trkpt>
      <trkpt lat="47.78762" lon="-3.52953">
        <ele>8.08</ele>
        <time>2020-07-08T13:23:34Z</time>
      </trkpt>
      <trkpt lat="47.78761" lon="-3.52952">
        <ele>8.28</ele>
        <time>2020-07-08T13:23:35Z</time>
      </trkpt>
      <trkpt lat="47.7876" lon="-3.52951">
        <ele>8.39</ele>
        <time>2020-07-08T13:23:36Z</time>
      </trkpt>
      <trkpt lat="47.78759" lon="-3.5295">
        <ele>8.77</ele>
        <time>2020-07-08T13:23:37Z</time>
      </trkpt>
      <trkpt lat="47.78757" lon="-3.52948">
        <ele>9.02</ele>
        <time>2020-07-08T13:23:38Z</time>
      </trkpt>
      <trkpt lat="47.78756" lon="-3.52944">
        <ele>9.12</ele>
        <time>2020-07-08T13:23:39Z</time>
      </trkpt>
      <trkpt lat="47.78754" lon="-3.52941">
        <ele>8.97</ele>
        <time>2020-07-08T13:23:40Z</time>
      </trkpt>
      <trkpt lat="47.78751" lon="-3.52937">
        <ele>8.85</ele>
        <time>2020-07-08T13:23:41Z</time>
      </trkpt>
      <trkpt lat="47.7875" lon="-3.52933">
        <ele>8.34</ele>
        <time>2020-07-08T13:23:42Z</time>
      </trkpt>
      <trkpt lat="47.78748" lon="-3.52928">
        <ele>7.81</ele>
        <time>2020-07-08T13:23:43Z</time>
      </trkpt>
      <trkpt lat="47.78746" lon="-3.52925">
        <ele>7.37</ele>
        <time>2020-07-08T13:23:44Z</time>
      </trkpt>
      <trkpt lat="47.78745" lon="-3.52921">
        <ele>7</ele>
        <time>2020-07-08T13:23:45Z</time>
      </trkpt>
      <trkpt lat="47.78743" lon="-3.52918">
        <ele>6.72</ele>
        <time>2020-07-08T13:23:46Z</time>
      </trkpt>
      <trkpt lat="47.78741" lon="-3.52915">
        <ele>6.58</ele>
        <time>2020-07-08T13:23:47Z</time>
      </trkpt>
      <trkpt lat="47.7874" lon="-3.52911">
        <ele>6.36</ele>
        <time>2020-07-08T13:23:48Z</time>
      </trkpt>
      <trkpt lat="47.78738" lon="-3.52907">
        <ele>6.33</ele>
        <time>2020-07-08T13:23:49Z</time>
      </trkpt>
      <trkpt lat="47.78736" lon="-3.52903">
        <ele>6.29</ele>
        <time>2020-07-08T13:23:50Z</time>
      </trkpt>
      <trkpt lat="47.78734" lon="-3.52898">
        <ele>6.22</ele>
        <time>2020-07-08T13:23:51Z</time>
      </trkpt>
      <trkpt lat="47.78732" lon="-3.52895">
        <ele>6.19</ele>
        <time>2020-07-08T13:23:52Z</time>
      </trkpt>
      <trkpt lat="47.7873" lon="-3.5289">
        <ele>6.07</ele>
        <time>2020-07-08T13:23:53Z</time>
      </trkpt>
      <trkpt lat="47.78727" lon="-3.52886">
        <ele>6.15</ele>
        <time>2020-07-08T13:23:54Z</time>
      </trkpt>
      <trkpt lat="47.78726" lon="-3.52883">
        <ele>6.22</ele>
        <time>2020-07-08T13:23:55Z</time>
      </trkpt>
      <trkpt lat="47.78723" lon="-3.52879">
        <ele>6.32</ele>
        <time>2020-07-08T13:23:56Z</time>
      </trkpt>
      <trkpt lat="47.78721" lon="-3.52876">
        <ele>6.48</ele>
        <time>2020-07-08T13:23:57Z</time>
      </trkpt>
      <trkpt lat="47.78718" lon="-3.52873">
        <ele>6.88</ele>
        <time>2020-07-08T13:23:58Z</time>
      </trkpt>
      <trkpt lat="47.78716" lon="-3.5287">
        <ele>7.27</ele>
        <time>2020-07-08T13:23:59Z</time>
      </trkpt>
      <trkpt lat="47.78714" lon="-3.52868">
        <ele>7.69</ele>
        <time>2020-07-08T13:24:00Z</time>
      </trkpt>
      <trkpt lat="47.78712" lon="-3.52866">
        <ele>7.95</ele>
        <time>2020-07-08T13:24:01Z</time>
      </trkpt>
      <trkpt lat="47.78709" lon="-3.52862">
        <ele>8.23</ele>
        <time>2020-07-08T13:24:02Z</time>
      </trkpt>
      <trkpt lat="47.78707" lon="-3.52859">
        <ele>8.52</ele>
        <time>2020-07-08T13:24:03Z</time>
      </trkpt>
      <trkpt lat="47.78704" lon="-3.52857">
        <ele>8.84</ele>
        <time>2020-07-08T13:24:04Z</time>
      </trkpt>
      <trkpt lat="47.78702" lon="-3.52855">
        <ele>9.06</ele>
        <time>2020-07-08T13:24:05Z</time>
      </trkpt>
      <trkpt lat="47.78699" lon="-3.52852">
        <ele>9.3</ele>
        <time>2020-07-08T13:24:06Z</time>
      </trkpt>
      <trkpt lat="47.78696" lon="-3.5285">
        <ele>9.58</ele>
        <time>2020-07-08T13:24:07Z</time>
      </trkpt>
      <trkpt lat="47.78694" lon="-3.52849">
        <ele>9.79</ele>
        <time>2020-07-08T13:24:08Z</time>
      </trkpt>
      <trkpt lat="47.7869" lon="-3.52847">
        <ele>9.68</ele>
        <time>2020-07-08T13:24:09Z</time>
      </trkpt>
      <trkpt lat="47.78686" lon="-3.52845">
        <ele>9.46</ele>
        <time>2020-07-08T13:24:10Z</time>
      </trkpt>
      <trkpt lat="47.78681" lon="-3.52844">
        <ele>9.4</ele>
        <time>2020-07-08T13:24:11Z</time>
      </trkpt>
      <trkpt lat="47.78676" lon="-3.52844">
        <ele>9.55</ele>
        <time>2020-07-08T13:24:12Z</time>
      </trkpt>
      <trkpt lat="47.78669" lon="-3.52843">
        <ele>9.72</ele>
        <time>2020-07-08T13:24:13Z</time>
      </trkpt>
      <trkpt lat="47.78662" lon="-3.52843">
        <ele>9.4</ele>
        <time>2020-07-08T13:24:14Z</time>
      </trkpt>
      <trkpt lat="47.78656" lon="-3.52842">
        <ele>8.72</ele>
        <time>2020-07-08T13:24:15Z</time>
      </trkpt>
      <trkpt lat="47.78649" lon="-3.52843">
        <ele>8.2</ele>
        <time>2020-07-08T13:24:16Z</time>
      </trkpt>
      <trkpt lat="47.78643" lon="-3.52844">
        <ele>7.68</ele>
        <time>2020-07-08T13:24:17Z</time>
      </trkpt>
      <trkpt lat="47.78637" lon="-3.52845">
        <ele>7.27</ele>
        <time>2020-07-08T13:24:18Z</time>
      </trkpt>
      <trkpt lat="47.78631" lon="-3.52846">
        <ele>6.76</ele>
        <time>2020-07-08T13:24:19Z</time>
      </trkpt>
      <trkpt lat="47.78626" lon="-3.52847">
        <ele>6.2</ele>
        <time>2020-07-08T13:24:20Z</time>
      </trkpt>
      <trkpt lat="47.78621" lon="-3.52848">
        <ele>5.51</ele>
        <time>2020-07-08T13:24:21Z</time>
      </trkpt>
      <trkpt lat="47.78616" lon="-3.52849">
        <ele>4.84</ele>
        <time>2020-07-08T13:24:22Z</time>
      </trkpt>
      <trkpt lat="47.78611" lon="-3.52851">
        <ele>4.35</ele>
        <time>2020-07-08T13:24:23Z</time>
      </trkpt>
      <trkpt lat="47.78607" lon="-3.52852">
        <ele>4.11</ele>
        <time>2020-07-08T13:24:24Z</time>
      </trkpt>
      <trkpt lat="47.78603" lon="-3.52853">
        <ele>4</ele>
        <time>2020-07-08T13:24:25Z</time>
      </trkpt>
      <trkpt lat="47.786" lon="-3.52854">
        <ele>3.82</ele>
        <time>2020-07-08T13:24:26Z</time>
      </trkpt>
      <trkpt lat="47.78596" lon="-3.52853">
        <ele>3.47</ele>
        <time>2020-07-08T13:24:27Z</time>
      </trkpt>
      <trkpt lat="47.78593" lon="-3.52856">
        <ele>3.36</ele>
        <time>2020-07-08T13:24:28Z</time>
      </trkpt>
      <trkpt lat="47.7859" lon="-3.52858">
        <ele>3.31</ele>
        <time>2020-07-08T13:24:29Z</time>
      </trkpt>
      <trkpt lat="47.78587" lon="-3.5286">
        <ele>3.25</ele>
        <time>2020-07-08T13:24:30Z</time>
      </trkpt>
      <trkpt lat="47.78584" lon="-3.52862">
        <ele>3.23</ele>
        <time>2020-07-08T13:24:31Z</time>
      </trkpt>
      <trkpt lat="47.78581" lon="-3.52865">
        <ele>3.28</ele>
        <time>2020-07-08T13:24:32Z</time>
      </trkpt>
      <trkpt lat="47.78578" lon="-3.52868">
        <ele>3.32</ele>
        <time>2020-07-08T13:24:33Z</time>
      </trkpt>
      <trkpt lat="47.78575" lon="-3.52871">
        <ele>3.3</ele>
        <time>2020-07-08T13:24:34Z</time>
      </trkpt>
      <trkpt lat="47.78572" lon="-3.52873">
        <ele>3.2</ele>
        <time>2020-07-08T13:24:35Z</time>
      </trkpt>
      <trkpt lat="47.78569" lon="-3.52876">
        <ele>3.1</ele>
        <time>2020-07-08T13:24:36Z</time>
      </trkpt>
      <trkpt lat="47.78567" lon="-3.52879">
        <ele>3.12</ele>
        <time>2020-07-08T13:24:37Z</time>
      </trkpt>
      <trkpt lat="47.78565" lon="-3.52882">
        <ele>2.99</ele>
        <time>2020-07-08T13:24:38Z</time>
      </trkpt>
      <trkpt lat="47.78563" lon="-3.52884">
        <ele>2.89</ele>
        <time>2020-07-08T13:24:39Z</time>
      </trkpt>
      <trkpt lat="47.78561" lon="-3.52887">
        <ele>2.84</ele>
        <time>2020-07-08T13:24:40Z</time>
      </trkpt>
      <trkpt lat="47.78558" lon="-3.52891">
        <ele>2.8</ele>
        <time>2020-07-08T13:24:41Z</time>
      </trkpt>
      <trkpt lat="47.78556" lon="-3.52895">
        <ele>2.87</ele>
        <time>2020-07-08T13:24:42Z</time>
      </trkpt>
      <trkpt lat="47.78553" lon="-3.529">
        <ele>3.09</ele>
        <time>2020-07-08T13:24:43Z</time>
      </trkpt>
      <trkpt lat="47.78552" lon="-3.52904">
        <ele>3.35</ele>
        <time>2020-07-08T13:24:44Z</time>
      </trkpt>
      <trkpt lat="47.78551" lon="-3.52908">
        <ele>3.7</ele>
        <time>2020-07-08T13:24:45Z</time>
      </trkpt>
      <trkpt lat="47.7855" lon="-3.52913">
        <ele>4.01</ele>
        <time>2020-07-08T13:24:46Z</time>
      </trkpt>
      <trkpt lat="47.78549" lon="-3.52918">
        <ele>4.35</ele>
        <time>2020-07-08T13:24:47Z</time>
      </trkpt>
      <trkpt lat="47.78547" lon="-3.52922">
        <ele>4.42</ele>
        <time>2020-07-08T13:24:48Z</time>
      </trkpt>
      <trkpt lat="47.78546" lon="-3.52927">
        <ele>4.46</ele>
        <time>2020-07-08T13:24:49Z</time>
      </trkpt>
      <trkpt lat="47.78544" lon="-3.52931">
        <ele>4.34</ele>
        <time>2020-07-08T13:24:50Z</time>
      </trkpt>
      <trkpt lat="47.78543" lon="-3.52935">
        <ele>4.16</ele>
        <time>2020-07-08T13:24:51Z</time>
      </trkpt>
      <trkpt lat="47.7854" lon="-3.52939">
        <ele>3.83</ele>
        <time>2020-07-08T13:24:52Z</time>
      </trkpt>
      <trkpt lat="47.78537" lon="-3.52944">
        <ele>3.32</ele>
        <time>2020-07-08T13:24:53Z</time>
      </trkpt>
      <trkpt lat="47.78534" lon="-3.52949">
        <ele>2.92</ele>
        <time>2020-07-08T13:24:54Z</time>
      </trkpt>
      <trkpt lat="47.78531" lon="-3.52954">
        <ele>2.59</ele>
        <time>2020-07-08T13:24:55Z</time>
      </trkpt>
      <trkpt lat="47.78527" lon="-3.52959">
        <ele>2.26</ele>
        <time>2020-07-08T13:24:56Z</time>
      </trkpt>
      <trkpt lat="47.78524" lon="-3.52965">
        <ele>2.41</ele>
        <time>2020-07-08T13:24:57Z</time>
      </trkpt>
      <trkpt lat="47.78521" lon="-3.52969">
        <ele>2.56</ele>
        <time>2020-07-08T13:24:58Z</time>
      </trkpt>
      <trkpt lat="47.78517" lon="-3.52973">
        <ele>2.6</ele>
        <time>2020-07-08T13:24:59Z</time>
      </trkpt>
      <trkpt lat="47.78514" lon="-3.52977">
        <ele>2.75</ele>
        <time>2020-07-08T13:25:00Z</time>
      </trkpt>
      <trkpt lat="47.7851" lon="-3.52981">
        <ele>2.76</ele>
        <time>2020-07-08T13:25:01Z</time>
      </trkpt>
      <trkpt lat="47.78507" lon="-3.52984">
        <ele>2.75</ele>
        <time>2020-07-08T13:25:02Z</time>
      </trkpt>
      <trkpt lat="47.78504" lon="-3.52989">
        <ele>2.66</ele>
        <time>2020-07-08T13:25:03Z</time>
      </trkpt>
      <trkpt lat="47.78501" lon="-3.52994">
        <ele>2.61</ele>
        <time>2020-07-08T13:25:04Z</time>
      </trkpt>
      <trkpt lat="47.78499" lon="-3.52998">
        <ele>2.64</ele>
        <time>2020-07-08T13:25:05Z</time>
      </trkpt>
      <trkpt lat="47.78496" lon="-3.53004">
        <ele>2.89</ele>
        <time>2020-07-08T13:25:06Z</time>
      </trkpt>
      <trkpt lat="47.78493" lon="-3.53008">
        <ele>3.06</ele>
        <time>2020-07-08T13:25:07Z</time>
      </trkpt>
      <trkpt lat="47.78489" lon="-3.5301">
        <ele>2.91</ele>
        <time>2020-07-08T13:25:08Z</time>
      </trkpt>
      <trkpt lat="47.78486" lon="-3.53014">
        <ele>2.76</ele>
        <time>2020-07-08T13:25:09Z</time>
      </trkpt>
      <trkpt lat="47.78481" lon="-3.53018">
        <ele>2.45</ele>
        <time>2020-07-08T13:25:10Z</time>
      </trkpt>
      <trkpt lat="47.78478" lon="-3.53023">
        <ele>2.17</ele>
        <time>2020-07-08T13:25:11Z</time>
      </trkpt>
      <trkpt lat="47.78475" lon="-3.53029">
        <ele>2.03</ele>
        <time>2020-07-08T13:25:12Z</time>
      </trkpt>
      <trkpt lat="47.78472" lon="-3.53035">
        <ele>2.11</ele>
        <time>2020-07-08T13:25:13Z</time>
      </trkpt>
      <trkpt lat="47.78471" lon="-3.53041">
        <ele>2.53</ele>
        <time>2020-07-08T13:25:14Z</time>
      </trkpt>
      <trkpt lat="47.7847" lon="-3.53045">
        <ele>2.96</ele>
        <time>2020-07-08T13:25:15Z</time>
      </trkpt>
      <trkpt lat="47.78469" lon="-3.53049">
        <ele>3.26</ele>
        <time>2020-07-08T13:25:16Z</time>
      </trkpt>
      <trkpt lat="47.78468" lon="-3.53052">
        <ele>3.47</ele>
        <time>2020-07-08T13:25:17Z</time>
      </trkpt>
      <trkpt lat="47.78466" lon="-3.53054">
        <ele>3.55</ele>
        <time>2020-07-08T13:25:18Z</time>
      </trkpt>
      <trkpt lat="47.78466" lon="-3.53057">
        <ele>3.75</ele>
        <time>2020-07-08T13:25:19Z</time>
      </trkpt>
      <trkpt lat="47.78465" lon="-3.5306">
        <ele>3.92</ele>
        <time>2020-07-08T13:25:20Z</time>
      </trkpt>
      <trkpt lat="47.78464" lon="-3.53063">
        <ele>4.05</ele>
        <time>2020-07-08T13:25:21Z</time>
      </trkpt>
      <trkpt lat="47.78463" lon="-3.53065">
        <ele>4.14</ele>
        <time>2020-07-08T13:25:22Z</time>
      </trkpt>
      <trkpt lat="47.78461" lon="-3.53067">
        <ele>4.15</ele>
        <time>2020-07-08T13:25:23Z</time>
      </trkpt>
      <trkpt lat="47.7846" lon="-3.5307">
        <ele>4.26</ele>
        <time>2020-07-08T13:25:24Z</time>
      </trkpt>
      <trkpt lat="47.78459" lon="-3.53074">
        <ele>4.4</ele>
        <time>2020-07-08T13:25:25Z</time>
      </trkpt>
      <trkpt lat="47.78457" lon="-3.53077">
        <ele>4.33</ele>
        <time>2020-07-08T13:25:26Z</time>
      </trkpt>
      <trkpt lat="47.78455" lon="-3.53079">
        <ele>4.18</ele>
        <time>2020-07-08T13:25:27Z</time>
      </trkpt>
      <trkpt lat="47.78453" lon="-3.53083">
        <ele>4.12</ele>
        <time>2020-07-08T13:25:28Z</time>
      </trkpt>
      <trkpt lat="47.78451" lon="-3.53086">
        <ele>4.1</ele>
        <time>2020-07-08T13:25:29Z</time>
      </trkpt>
      <trkpt lat="47.78449" lon="-3.53089">
        <ele>3.93</ele>
        <time>2020-07-08T13:25:30Z</time>
      </trkpt>
      <trkpt lat="47.78447" lon="-3.53092">
        <ele>3.76</ele>
        <time>2020-07-08T13:25:31Z</time>
      </trkpt>
      <trkpt lat="47.78446" lon="-3.53094">
        <ele>3.61</ele>
        <time>2020-07-08T13:25:32Z</time>
      </trkpt>
      <trkpt lat="47.78444" lon="-3.53097">
        <ele>3.53</ele>
        <time>2020-07-08T13:25:33Z</time>
      </trkpt>
      <trkpt lat="47.78443" lon="-3.531">
        <ele>3.57</ele>
        <time>2020-07-08T13:25:34Z</time>
      </trkpt>
      <trkpt lat="47.78441" lon="-3.53103">
        <ele>3.62</ele>
        <time>2020-07-08T13:25:35Z</time>
      </trkpt>
      <trkpt lat="47.7844" lon="-3.53107">
        <ele>3.74</ele>
        <time>2020-07-08T13:25:36Z</time>
      </trkpt>
      <trkpt lat="47.78438" lon="-3.53112">
        <ele>3.9</ele>
        <time>2020-07-08T13:25:37Z</time>
      </trkpt>
      <trkpt lat="47.78436" lon="-3.53115">
        <ele>4.29</ele>
        <time>2020-07-08T13:25:38Z</time>
      </trkpt>
      <trkpt lat="47.78435" lon="-3.53119">
        <ele>4.77</ele>
        <time>2020-07-08T13:25:39Z</time>
      </trkpt>
      <trkpt lat="47.78433" lon="-3.53122">
        <ele>5.09</ele>
        <time>2020-07-08T13:25:40Z</time>
      </trkpt>
      <trkpt lat="47.7843" lon="-3.53125">
        <ele>5.18</ele>
        <time>2020-07-08T13:25:41Z</time>
      </trkpt>
      <trkpt lat="47.78427" lon="-3.53128">
        <ele>4.93</ele>
        <time>2020-07-08T13:25:42Z</time>
      </trkpt>
      <trkpt lat="47.78423" lon="-3.53131">
        <ele>4.33</ele>
        <time>2020-07-08T13:25:43Z</time>
      </trkpt>
      <trkpt lat="47.78419" lon="-3.53134">
        <ele>3.52</ele>
        <time>2020-07-08T13:25:44Z</time>
      </trkpt>
      <trkpt lat="47.78415" lon="-3.53138">
        <ele>2.92</ele>
        <time>2020-07-08T13:25:45Z</time>
      </trkpt>
      <trkpt lat="47.7841" lon="-3.53142">
        <ele>3.13</ele>
        <time>2020-07-08T13:25:46Z</time>
      </trkpt>
      <trkpt lat="47.78406" lon="-3.53146">
        <ele>3.43</ele>
        <time>2020-07-08T13:25:47Z</time>
      </trkpt>
      <trkpt lat="47.78402" lon="-3.5315">
        <ele>3.8</ele>
        <time>2020-07-08T13:25:48Z</time>
      </trkpt>
      <trkpt lat="47.78397" lon="-3.53152">
        <ele>3.75</ele>
        <time>2020-07-08T13:25:49Z</time>
      </trkpt>
      <trkpt lat="47.78392" lon="-3.53155">
        <ele>3.55</ele>
        <time>2020-07-08T13:25:50Z</time>
      </trkpt>
      <trkpt lat="47.78388" lon="-3.53159">
        <ele>3.49</ele>
        <time>2020-07-08T13:25:51Z</time>
      </trkpt>
      <trkpt lat="47.78383" lon="-3.53161">
        <ele>3.38</ele>
        <time>2020-07-08T13:25:52Z</time>
      </trkpt>
      <trkpt lat="47.78379" lon="-3.53164">
        <ele>3.32</ele>
        <time>2020-07-08T13:25:53Z</time>
      </trkpt>
      <trkpt lat="47.78375" lon="-3.53168">
        <ele>3.34</ele>
        <time>2020-07-08T13:25:54Z</time>
      </trkpt>
      <trkpt lat="47.78373" lon="-3.53172">
        <ele>3.59</ele>
        <time>2020-07-08T13:25:55Z</time>
      </trkpt>
      <trkpt lat="47.7837" lon="-3.53177">
        <ele>3.9</ele>
        <time>2020-07-08T13:25:56Z</time>
      </trkpt>
      <trkpt lat="47.78368" lon="-3.53181">
        <ele>4.12</ele>
        <time>2020-07-08T13:25:57Z</time>
      </trkpt>
      <trkpt lat="47.78366" lon="-3.53185">
        <ele>4.3</ele>
        <time>2020-07-08T13:25:58Z</time>
      </trkpt>
      <trkpt lat="47.78365" lon="-3.5319">
        <ele>4.58</ele>
        <time>2020-07-08T13:25:59Z</time>
      </trkpt>
      <trkpt lat="47.78364" lon="-3.53194">
        <ele>4.74</ele>
        <time>2020-07-08T13:26:00Z</time>
      </trkpt>
      <trkpt lat="47.78363" lon="-3.53199">
        <ele>4.87</ele>
        <time>2020-07-08T13:26:01Z</time>
      </trkpt>
      <trkpt lat="47.78362" lon="-3.53203">
        <ele>5.02</ele>
        <time>2020-07-08T13:26:02Z</time>
      </trkpt>
      <trkpt lat="47.78361" lon="-3.53207">
        <ele>5.25</ele>
        <time>2020-07-08T13:26:03Z</time>
      </trkpt>
      <trkpt lat="47.7836" lon="-3.5321">
        <ele>5.45</ele>
        <time>2020-07-08T13:26:04Z</time>
      </trkpt>
      <trkpt lat="47.7836" lon="-3.53213">
        <ele>5.66</ele>
        <time>2020-07-08T13:26:05Z</time>
      </trkpt>
      <trkpt lat="47.78359" lon="-3.53216">
        <ele>5.87</ele>
        <time>2020-07-08T13:26:06Z</time>
      </trkpt>
      <trkpt lat="47.78358" lon="-3.53219">
        <ele>6.03</ele>
        <time>2020-07-08T13:26:07Z</time>
      </trkpt>
      <trkpt lat="47.78357" lon="-3.53221">
        <ele>6.05</ele>
        <time>2020-07-08T13:26:08Z</time>
      </trkpt>
      <trkpt lat="47.78356" lon="-3.53224">
        <ele>6.15</ele>
        <time>2020-07-08T13:26:09Z</time>
      </trkpt>
      <trkpt lat="47.78356" lon="-3.53227">
        <ele>6.18</ele>
        <time>2020-07-08T13:26:10Z</time>
      </trkpt>
      <trkpt lat="47.78354" lon="-3.53228">
        <ele>6.14</ele>
        <time>2020-07-08T13:26:11Z</time>
      </trkpt>
      <trkpt lat="47.78353" lon="-3.53229">
        <ele>6.03</ele>
        <time>2020-07-08T13:26:12Z</time>
      </trkpt>
      <trkpt lat="47.78352" lon="-3.5323">
        <ele>5.88</ele>
        <time>2020-07-08T13:26:13Z</time>
      </trkpt>
      <trkpt lat="47.78351" lon="-3.53231">
        <ele>5.87</ele>
        <time>2020-07-08T13:26:14Z</time>
      </trkpt>
      <trkpt lat="47.78351" lon="-3.53231">
        <ele>5.88</ele>
        <time>2020-07-08T13:26:15Z</time>
      </trkpt>
      <trkpt lat="47.78352" lon="-3.53231">
        <ele>5.9</ele>
        <time>2020-07-08T13:26:16Z</time>
      </trkpt>
      <trkpt lat="47.78352" lon="-3.53231">
        <ele>5.91</ele>
        <time>2020-07-08T13:26:17Z</time>
      </trkpt>
      <trkpt lat="47.78352" lon="-3.53231">
        <ele>5.91</ele>
        <time>2020-07-08T13:26:18Z</time>
      </trkpt>
      <trkpt lat="47.78352" lon="-3.53231">
        <ele>5.91</ele>
        <time>2020-07-08T13:26:19Z</time>
      </trkpt>
      <trkpt lat="47.78352" lon="-3.53231">
        <ele>5.91</ele>
        <time>2020-07-08T13:26:20Z</time>
      </trkpt>
      <trkpt lat="47.78352" lon="-3.53231">
        <ele>5.91</ele>
        <time>2020-07-08T13:26:21Z</time>
      </trkpt>
      <trkpt lat="47.78352" lon="-3.53231">
        <ele>5.91</ele>
        <time>2020-07-08T13:26:22Z</time>
      </trkpt>
      <trkpt lat="47.78352" lon="-3.53231">
        <ele>5.91</ele>
        <time>2020-07-08T13:26:23Z</time>
      </trkpt>
      <trkpt lat="47.78352" lon="-3.53231">
        <ele>5.91</ele>
        <time>2020-07-08T13:26:24Z</time>
      </trkpt>
      <trkpt lat="47.78352" lon="-3.53231">
        <ele>5.91</ele>
        <time>2020-07-08T13:26:25Z</time>
      </trkpt>
      <trkpt lat="47.78352" lon="-3.53231">
        <ele>5.91</ele>
        <time>2020-07-08T13:26:26Z</time>
      </trkpt>
      <trkpt lat="47.78352" lon="-3.53231">
        <ele>5.91</ele>
        <time>2020-07-08T13:26:27Z</time>
      </trkpt>
      <trkpt lat="47.78352" lon="-3.53231">
        <ele>5.91</ele>
        <time>2020-07-08T13:26:28Z</time>
      </trkpt>
      <trkpt lat="47.78352" lon="-3.53231">
        <ele>5.91</ele>
        <time>2020-07-08T13:26:29Z</time>
      </trkpt>
      <trkpt lat="47.78352" lon="-3.53231">
        <ele>5.91</ele>
        <time>2020-07-08T13:26:30Z</time>
      </trkpt>
      <trkpt lat="47.78352" lon="-3.53231">
        <ele>5.91</ele>
        <time>2020-07-08T13:26:31Z</time>
      </trkpt>
      <trkpt lat="47.78352" lon="-3.53231">
        <ele>5.91</ele>
        <time>2020-07-08T13:26:32Z</time>
      </trkpt>
      <trkpt lat="47.78352" lon="-3.53231">
        <ele>5.91</ele>
        <time>2020-07-08T13:26:33Z</time>
      </trkpt>
      <trkpt lat="47.78352" lon="-3.53231">
        <ele>5.91</ele>
        <time>2020-07-08T13:26:34Z</time>
      </trkpt>
      <trkpt lat="47.78352" lon="-3.53231">
        <ele>5.91</ele>
        <time>2020-07-08T13:26:35Z</time>
      </trkpt>
      <trkpt lat="47.78347" lon="-3.53242">
        <ele>6.3</ele>
        <time>2020-07-08T13:26:36Z</time>
      </trkpt>
      <trkpt lat="47.78347" lon="-3.53245">
        <ele>6.63</ele>
        <time>2020-07-08T13:26:37Z</time>
      </trkpt>
      <trkpt lat="47.78347" lon="-3.53247">
        <ele>7</ele>
        <time>2020-07-08T13:26:38Z</time>
      </trkpt>
      <trkpt lat="47.78348" lon="-3.5325">
        <ele>7.48</ele>
        <time>2020-07-08T13:26:39Z</time>
      </trkpt>
      <trkpt lat="47.78349" lon="-3.53254">
        <ele>7.95</ele>
        <time>2020-07-08T13:26:40Z</time>
      </trkpt>
      <trkpt lat="47.7835" lon="-3.53258">
        <ele>8.54</ele>
        <time>2020-07-08T13:26:41Z</time>
      </trkpt>
      <trkpt lat="47.78351" lon="-3.53261">
        <ele>8.99</ele>
        <time>2020-07-08T13:26:42Z</time>
      </trkpt>
      <trkpt lat="47.78351" lon="-3.53264">
        <ele>9.38</ele>
        <time>2020-07-08T13:26:43Z</time>
      </trkpt>
      <trkpt lat="47.78352" lon="-3.53267">
        <ele>9.69</ele>
        <time>2020-07-08T13:26:44Z</time>
      </trkpt>
      <trkpt lat="47.78352" lon="-3.5327">
        <ele>10</ele>
        <time>2020-07-08T13:26:45Z</time>
      </trkpt>
      <trkpt lat="47.78352" lon="-3.53273">
        <ele>10.31</ele>
        <time>2020-07-08T13:26:46Z</time>
      </trkpt>
      <trkpt lat="47.78353" lon="-3.53276">
        <ele>10.61</ele>
        <time>2020-07-08T13:26:47Z</time>
      </trkpt>
      <trkpt lat="47.78354" lon="-3.53279">
        <ele>10.9</ele>
        <time>2020-07-08T13:26:48Z</time>
      </trkpt>
      <trkpt lat="47.78355" lon="-3.53282">
        <ele>11.17</ele>
        <time>2020-07-08T13:26:49Z</time>
      </trkpt>
      <trkpt lat="47.78356" lon="-3.53285">
        <ele>11.47</ele>
        <time>2020-07-08T13:26:50Z</time>
      </trkpt>
      <trkpt lat="47.78356" lon="-3.53288">
        <ele>11.81</ele>
        <time>2020-07-08T13:26:51Z</time>
      </trkpt>
      <trkpt lat="47.78356" lon="-3.53292">
        <ele>12.24</ele>
        <time>2020-07-08T13:26:52Z</time>
      </trkpt>
      <trkpt lat="47.78356" lon="-3.53294">
        <ele>12.65</ele>
        <time>2020-07-08T13:26:53Z</time>
      </trkpt>
      <trkpt lat="47.78357" lon="-3.53296">
        <ele>12.89</ele>
        <time>2020-07-08T13:26:54Z</time>
      </trkpt>
      <trkpt lat="47.78357" lon="-3.53298">
        <ele>13.04</ele>
        <time>2020-07-08T13:26:55Z</time>
      </trkpt>
      <trkpt lat="47.78358" lon="-3.533">
        <ele>13.08</ele>
        <time>2020-07-08T13:26:56Z</time>
      </trkpt>
      <trkpt lat="47.78359" lon="-3.53302">
        <ele>13.11</ele>
        <time>2020-07-08T13:26:57Z</time>
      </trkpt>
      <trkpt lat="47.7836" lon="-3.53304">
        <ele>13.12</ele>
        <time>2020-07-08T13:26:58Z</time>
      </trkpt>
      <trkpt lat="47.7836" lon="-3.53308">
        <ele>13.71</ele>
        <time>2020-07-08T13:26:59Z</time>
      </trkpt>
      <trkpt lat="47.78359" lon="-3.53311">
        <ele>14.63</ele>
        <time>2020-07-08T13:27:00Z</time>
      </trkpt>
      <trkpt lat="47.78359" lon="-3.53313">
        <ele>15.48</ele>
        <time>2020-07-08T13:27:01Z</time>
      </trkpt>
      <trkpt lat="47.78359" lon="-3.53316">
        <ele>16.2</ele>
        <time>2020-07-08T13:27:02Z</time>
      </trkpt>
      <trkpt lat="47.7836" lon="-3.53319">
        <ele>16.8</ele>
        <time>2020-07-08T13:27:03Z</time>
      </trkpt>
      <trkpt lat="47.7836" lon="-3.53321">
        <ele>17.34</ele>
        <time>2020-07-08T13:27:04Z</time>
      </trkpt>
      <trkpt lat="47.7836" lon="-3.53324">
        <ele>18.07</ele>
        <time>2020-07-08T13:27:05Z</time>
      </trkpt>
      <trkpt lat="47.78361" lon="-3.53327">
        <ele>18.82</ele>
        <time>2020-07-08T13:27:06Z</time>
      </trkpt>
      <trkpt lat="47.78362" lon="-3.53329">
        <ele>19.52</ele>
        <time>2020-07-08T13:27:07Z</time>
      </trkpt>
      <trkpt lat="47.78363" lon="-3.53331">
        <ele>20.19</ele>
        <time>2020-07-08T13:27:08Z</time>
      </trkpt>
      <trkpt lat="47.78363" lon="-3.53334">
        <ele>20.82</ele>
        <time>2020-07-08T13:27:09Z</time>
      </trkpt>
      <trkpt lat="47.78364" lon="-3.53336">
        <ele>21.2</ele>
        <time>2020-07-08T13:27:10Z</time>
      </trkpt>
      <trkpt lat="47.78364" lon="-3.53338">
        <ele>21.4</ele>
        <time>2020-07-08T13:27:11Z</time>
      </trkpt>
      <trkpt lat="47.78365" lon="-3.5334">
        <ele>21.61</ele>
        <time>2020-07-08T13:27:12Z</time>
      </trkpt>
      <trkpt lat="47.78366" lon="-3.53343">
        <ele>21.82</ele>
        <time>2020-07-08T13:27:13Z</time>
      </trkpt>
      <trkpt lat="47.78367" lon="-3.53346">
        <ele>22.02</ele>
        <time>2020-07-08T13:27:14Z</time>
      </trkpt>
      <trkpt lat="47.78368" lon="-3.53349">
        <ele>22.19</ele>
        <time>2020-07-08T13:27:15Z</time>
      </trkpt>
      <trkpt lat="47.78368" lon="-3.53352">
        <ele>22.36</ele>
        <time>2020-07-08T13:27:16Z</time>
      </trkpt>
      <trkpt lat="47.78368" lon="-3.53354">
        <ele>22.49</ele>
        <time>2020-07-08T13:27:17Z</time>
      </trkpt>
      <trkpt lat="47.78369" lon="-3.53356">
        <ele>22.57</ele>
        <time>2020-07-08T13:27:18Z</time>
      </trkpt>
      <trkpt lat="47.78369" lon="-3.53359">
        <ele>22.66</ele>
        <time>2020-07-08T13:27:19Z</time>
      </trkpt>
      <trkpt lat="47.7837" lon="-3.53361">
        <ele>22.64</ele>
        <time>2020-07-08T13:27:20Z</time>
      </trkpt>
      <trkpt lat="47.78372" lon="-3.53363">
        <ele>22.51</ele>
        <time>2020-07-08T13:27:21Z</time>
      </trkpt>
      <trkpt lat="47.78373" lon="-3.53366">
        <ele>22.39</ele>
        <time>2020-07-08T13:27:22Z</time>
      </trkpt>
      <trkpt lat="47.78375" lon="-3.53369">
        <ele>22.23</ele>
        <time>2020-07-08T13:27:23Z</time>
      </trkpt>
      <trkpt lat="47.78377" lon="-3.53372">
        <ele>21.99</ele>
        <time>2020-07-08T13:27:24Z</time>
      </trkpt>
      <trkpt lat="47.78379" lon="-3.53376">
        <ele>21.71</ele>
        <time>2020-07-08T13:27:25Z</time>
      </trkpt>
      <trkpt lat="47.7838" lon="-3.53379">
        <ele>21.5</ele>
        <time>2020-07-08T13:27:26Z</time>
      </trkpt>
      <trkpt lat="47.78382" lon="-3.53383">
        <ele>21.3</ele>
        <time>2020-07-08T13:27:27Z</time>
      </trkpt>
      <trkpt lat="47.78382" lon="-3.53386">
        <ele>21.22</ele>
        <time>2020-07-08T13:27:28Z</time>
      </trkpt>
      <trkpt lat="47.78384" lon="-3.53389">
        <ele>21</ele>
        <time>2020-07-08T13:27:29Z</time>
      </trkpt>
      <trkpt lat="47.78386" lon="-3.53393">
        <ele>20.86</ele>
        <time>2020-07-08T13:27:30Z</time>
      </trkpt>
      <trkpt lat="47.78387" lon="-3.53396">
        <ele>20.81</ele>
        <time>2020-07-08T13:27:31Z</time>
      </trkpt>
      <trkpt lat="47.78389" lon="-3.534">
        <ele>20.83</ele>
        <time>2020-07-08T13:27:32Z</time>
      </trkpt>
      <trkpt lat="47.78388" lon="-3.53403">
        <ele>21.02</ele>
        <time>2020-07-08T13:27:33Z</time>
      </trkpt>
      <trkpt lat="47.78388" lon="-3.53406">
        <ele>21.26</ele>
        <time>2020-07-08T13:27:34Z</time>
      </trkpt>
      <trkpt lat="47.78389" lon="-3.53409">
        <ele>21.38</ele>
        <time>2020-07-08T13:27:35Z</time>
      </trkpt>
      <trkpt lat="47.7839" lon="-3.53412">
        <ele>21.57</ele>
        <time>2020-07-08T13:27:36Z</time>
      </trkpt>
      <trkpt lat="47.7839" lon="-3.53414">
        <ele>21.76</ele>
        <time>2020-07-08T13:27:37Z</time>
      </trkpt>
      <trkpt lat="47.78391" lon="-3.53417">
        <ele>21.95</ele>
        <time>2020-07-08T13:27:38Z</time>
      </trkpt>
      <trkpt lat="47.78392" lon="-3.5342">
        <ele>22.09</ele>
        <time>2020-07-08T13:27:39Z</time>
      </trkpt>
      <trkpt lat="47.78394" lon="-3.53424">
        <ele>22.27</ele>
        <time>2020-07-08T13:27:40Z</time>
      </trkpt>
      <trkpt lat="47.78395" lon="-3.53427">
        <ele>22.44</ele>
        <time>2020-07-08T13:27:41Z</time>
      </trkpt>
      <trkpt lat="47.78394" lon="-3.53431">
        <ele>22.61</ele>
        <time>2020-07-08T13:27:42Z</time>
      </trkpt>
      <trkpt lat="47.78394" lon="-3.53434">
        <ele>22.78</ele>
        <time>2020-07-08T13:27:43Z</time>
      </trkpt>
      <trkpt lat="47.78394" lon="-3.53437">
        <ele>22.95</ele>
        <time>2020-07-08T13:27:44Z</time>
      </trkpt>
      <trkpt lat="47.78395" lon="-3.5344">
        <ele>23.16</ele>
        <time>2020-07-08T13:27:45Z</time>
      </trkpt>
      <trkpt lat="47.78397" lon="-3.53444">
        <ele>23.42</ele>
        <time>2020-07-08T13:27:46Z</time>
      </trkpt>
      <trkpt lat="47.78397" lon="-3.53447">
        <ele>23.69</ele>
        <time>2020-07-08T13:27:47Z</time>
      </trkpt>
      <trkpt lat="47.78397" lon="-3.53451">
        <ele>23.97</ele>
        <time>2020-07-08T13:27:48Z</time>
      </trkpt>
      <trkpt lat="47.78397" lon="-3.53454">
        <ele>24.22</ele>
        <time>2020-07-08T13:27:49Z</time>
      </trkpt>
      <trkpt lat="47.78397" lon="-3.53458">
        <ele>24.46</ele>
        <time>2020-07-08T13:27:50Z</time>
      </trkpt>
      <trkpt lat="47.78397" lon="-3.53461">
        <ele>24.67</ele>
        <time>2020-07-08T13:27:51Z</time>
      </trkpt>
      <trkpt lat="47.78397" lon="-3.53463">
        <ele>24.86</ele>
        <time>2020-07-08T13:27:52Z</time>
      </trkpt>
      <trkpt lat="47.78397" lon="-3.53466">
        <ele>25.05</ele>
        <time>2020-07-08T13:27:53Z</time>
      </trkpt>
      <trkpt lat="47.78396" lon="-3.5347">
        <ele>25.25</ele>
        <time>2020-07-08T13:27:54Z</time>
      </trkpt>
      <trkpt lat="47.78396" lon="-3.53473">
        <ele>25.44</ele>
        <time>2020-07-08T13:27:55Z</time>
      </trkpt>
      <trkpt lat="47.78395" lon="-3.53476">
        <ele>25.57</ele>
        <time>2020-07-08T13:27:56Z</time>
      </trkpt>
      <trkpt lat="47.78395" lon="-3.53479">
        <ele>25.73</ele>
        <time>2020-07-08T13:27:57Z</time>
      </trkpt>
      <trkpt lat="47.78395" lon="-3.53482">
        <ele>25.88</ele>
        <time>2020-07-08T13:27:58Z</time>
      </trkpt>
      <trkpt lat="47.78395" lon="-3.53486">
        <ele>26.02</ele>
        <time>2020-07-08T13:27:59Z</time>
      </trkpt>
      <trkpt lat="47.78395" lon="-3.53489">
        <ele>26.18</ele>
        <time>2020-07-08T13:28:00Z</time>
      </trkpt>
      <trkpt lat="47.78394" lon="-3.53491">
        <ele>26.26</ele>
        <time>2020-07-08T13:28:01Z</time>
      </trkpt>
      <trkpt lat="47.78393" lon="-3.53495">
        <ele>26.36</ele>
        <time>2020-07-08T13:28:02Z</time>
      </trkpt>
      <trkpt lat="47.78393" lon="-3.53498">
        <ele>26.42</ele>
        <time>2020-07-08T13:28:03Z</time>
      </trkpt>
      <trkpt lat="47.78392" lon="-3.53501">
        <ele>26.49</ele>
        <time>2020-07-08T13:28:04Z</time>
      </trkpt>
      <trkpt lat="47.78391" lon="-3.53504">
        <ele>26.75</ele>
        <time>2020-07-08T13:28:05Z</time>
      </trkpt>
      <trkpt lat="47.7839" lon="-3.53507">
        <ele>27.07</ele>
        <time>2020-07-08T13:28:06Z</time>
      </trkpt>
      <trkpt lat="47.78389" lon="-3.5351">
        <ele>27.39</ele>
        <time>2020-07-08T13:28:07Z</time>
      </trkpt>
      <trkpt lat="47.78387" lon="-3.53513">
        <ele>27.71</ele>
        <time>2020-07-08T13:28:08Z</time>
      </trkpt>
      <trkpt lat="47.78387" lon="-3.53516">
        <ele>28.14</ele>
        <time>2020-07-08T13:28:09Z</time>
      </trkpt>
      <trkpt lat="47.78388" lon="-3.53518">
        <ele>28.43</ele>
        <time>2020-07-08T13:28:10Z</time>
      </trkpt>
      <trkpt lat="47.78389" lon="-3.5352">
        <ele>28.76</ele>
        <time>2020-07-08T13:28:11Z</time>
      </trkpt>
      <trkpt lat="47.78389" lon="-3.53523">
        <ele>29.11</ele>
        <time>2020-07-08T13:28:12Z</time>
      </trkpt>
      <trkpt lat="47.78389" lon="-3.53525">
        <ele>29.47</ele>
        <time>2020-07-08T13:28:13Z</time>
      </trkpt>
      <trkpt lat="47.78389" lon="-3.53528">
        <ele>29.8</ele>
        <time>2020-07-08T13:28:14Z</time>
      </trkpt>
      <trkpt lat="47.78388" lon="-3.5353">
        <ele>30.15</ele>
        <time>2020-07-08T13:28:15Z</time>
      </trkpt>
      <trkpt lat="47.78388" lon="-3.53533">
        <ele>30.53</ele>
        <time>2020-07-08T13:28:16Z</time>
      </trkpt>
      <trkpt lat="47.78388" lon="-3.53536">
        <ele>30.93</ele>
        <time>2020-07-08T13:28:17Z</time>
      </trkpt>
      <trkpt lat="47.78387" lon="-3.53538">
        <ele>31.3</ele>
        <time>2020-07-08T13:28:18Z</time>
      </trkpt>
      <trkpt lat="47.78386" lon="-3.53541">
        <ele>31.66</ele>
        <time>2020-07-08T13:28:19Z</time>
      </trkpt>
      <trkpt lat="47.78386" lon="-3.53544">
        <ele>32.01</ele>
        <time>2020-07-08T13:28:20Z</time>
      </trkpt>
      <trkpt lat="47.78386" lon="-3.53546">
        <ele>32.35</ele>
        <time>2020-07-08T13:28:21Z</time>
      </trkpt>
      <trkpt lat="47.78385" lon="-3.53549">
        <ele>32.71</ele>
        <time>2020-07-08T13:28:22Z</time>
      </trkpt>
      <trkpt lat="47.78385" lon="-3.53552">
        <ele>33.11</ele>
        <time>2020-07-08T13:28:23Z</time>
      </trkpt>
      <trkpt lat="47.78384" lon="-3.53554">
        <ele>33.48</ele>
        <time>2020-07-08T13:28:24Z</time>
      </trkpt>
      <trkpt lat="47.78383" lon="-3.53558">
        <ele>33.81</ele>
        <time>2020-07-08T13:28:25Z</time>
      </trkpt>
      <trkpt lat="47.78383" lon="-3.5356">
        <ele>34.04</ele>
        <time>2020-07-08T13:28:26Z</time>
      </trkpt>
      <trkpt lat="47.78383" lon="-3.53563">
        <ele>34.23</ele>
        <time>2020-07-08T13:28:27Z</time>
      </trkpt>
      <trkpt lat="47.78383" lon="-3.53566">
        <ele>34.43</ele>
        <time>2020-07-08T13:28:28Z</time>
      </trkpt>
      <trkpt lat="47.78382" lon="-3.53568">
        <ele>34.59</ele>
        <time>2020-07-08T13:28:29Z</time>
      </trkpt>
      <trkpt lat="47.78382" lon="-3.53571">
        <ele>34.78</ele>
        <time>2020-07-08T13:28:30Z</time>
      </trkpt>
      <trkpt lat="47.78382" lon="-3.53575">
        <ele>35.01</ele>
        <time>2020-07-08T13:28:31Z</time>
      </trkpt>
      <trkpt lat="47.78381" lon="-3.53578">
        <ele>35.23</ele>
        <time>2020-07-08T13:28:32Z</time>
      </trkpt>
      <trkpt lat="47.7838" lon="-3.53581">
        <ele>35.44</ele>
        <time>2020-07-08T13:28:33Z</time>
      </trkpt>
      <trkpt lat="47.78379" lon="-3.53585">
        <ele>35.65</ele>
        <time>2020-07-08T13:28:34Z</time>
      </trkpt>
      <trkpt lat="47.78379" lon="-3.53588">
        <ele>35.85</ele>
        <time>2020-07-08T13:28:35Z</time>
      </trkpt>
      <trkpt lat="47.78378" lon="-3.53591">
        <ele>36.08</ele>
        <time>2020-07-08T13:28:36Z</time>
      </trkpt>
      <trkpt lat="47.78377" lon="-3.53595">
        <ele>36.31</ele>
        <time>2020-07-08T13:28:37Z</time>
      </trkpt>
      <trkpt lat="47.78376" lon="-3.53599">
        <ele>36.56</ele>
        <time>2020-07-08T13:28:38Z</time>
      </trkpt>
      <trkpt lat="47.78375" lon="-3.53602">
        <ele>36.79</ele>
        <time>2020-07-08T13:28:39Z</time>
      </trkpt>
      <trkpt lat="47.78374" lon="-3.53607">
        <ele>37.02</ele>
        <time>2020-07-08T13:28:40Z</time>
      </trkpt>
      <trkpt lat="47.78372" lon="-3.5361">
        <ele>37.23</ele>
        <time>2020-07-08T13:28:41Z</time>
      </trkpt>
      <trkpt lat="47.78371" lon="-3.53614">
        <ele>37.39</ele>
        <time>2020-07-08T13:28:42Z</time>
      </trkpt>
      <trkpt lat="47.7837" lon="-3.53617">
        <ele>37.48</ele>
        <time>2020-07-08T13:28:43Z</time>
      </trkpt>
      <trkpt lat="47.78369" lon="-3.53621">
        <ele>37.57</ele>
        <time>2020-07-08T13:28:44Z</time>
      </trkpt>
      <trkpt lat="47.78367" lon="-3.53624">
        <ele>37.67</ele>
        <time>2020-07-08T13:28:45Z</time>
      </trkpt>
      <trkpt lat="47.78366" lon="-3.53628">
        <ele>37.76</ele>
        <time>2020-07-08T13:28:46Z</time>
      </trkpt>
      <trkpt lat="47.78365" lon="-3.53632">
        <ele>37.87</ele>
        <time>2020-07-08T13:28:47Z</time>
      </trkpt>
      <trkpt lat="47.78364" lon="-3.53636">
        <ele>37.97</ele>
        <time>2020-07-08T13:28:48Z</time>
      </trkpt>
      <trkpt lat="47.78364" lon="-3.5364">
        <ele>38.12</ele>
        <time>2020-07-08T13:28:49Z</time>
      </trkpt>
      <trkpt lat="47.78363" lon="-3.53644">
        <ele>38.32</ele>
        <time>2020-07-08T13:28:50Z</time>
      </trkpt>
      <trkpt lat="47.78361" lon="-3.53648">
        <ele>38.56</ele>
        <time>2020-07-08T13:28:51Z</time>
      </trkpt>
      <trkpt lat="47.7836" lon="-3.53652">
        <ele>38.84</ele>
        <time>2020-07-08T13:28:52Z</time>
      </trkpt>
      <trkpt lat="47.78359" lon="-3.53656">
        <ele>39.13</ele>
        <time>2020-07-08T13:28:53Z</time>
      </trkpt>
      <trkpt lat="47.78358" lon="-3.53661">
        <ele>39.44</ele>
        <time>2020-07-08T13:28:54Z</time>
      </trkpt>
      <trkpt lat="47.78357" lon="-3.53665">
        <ele>39.76</ele>
        <time>2020-07-08T13:28:55Z</time>
      </trkpt>
      <trkpt lat="47.78356" lon="-3.5367">
        <ele>40</ele>
        <time>2020-07-08T13:28:56Z</time>
      </trkpt>
      <trkpt lat="47.78355" lon="-3.53674">
        <ele>40.19</ele>
        <time>2020-07-08T13:28:57Z</time>
      </trkpt>
      <trkpt lat="47.78353" lon="-3.53678">
        <ele>40.35</ele>
        <time>2020-07-08T13:28:58Z</time>
      </trkpt>
      <trkpt lat="47.78352" lon="-3.53682">
        <ele>40.5</ele>
        <time>2020-07-08T13:28:59Z</time>
      </trkpt>
      <trkpt lat="47.78351" lon="-3.53686">
        <ele>40.64</ele>
        <time>2020-07-08T13:29:00Z</time>
      </trkpt>
      <trkpt lat="47.7835" lon="-3.5369">
        <ele>40.79</ele>
        <time>2020-07-08T13:29:01Z</time>
      </trkpt>
      <trkpt lat="47.78349" lon="-3.53695">
        <ele>40.94</ele>
        <time>2020-07-08T13:29:02Z</time>
      </trkpt>
      <trkpt lat="47.78348" lon="-3.53699">
        <ele>41.15</ele>
        <time>2020-07-08T13:29:03Z</time>
      </trkpt>
      <trkpt lat="47.78347" lon="-3.53703">
        <ele>41.36</ele>
        <time>2020-07-08T13:29:04Z</time>
      </trkpt>
      <trkpt lat="47.78346" lon="-3.53707">
        <ele>41.61</ele>
        <time>2020-07-08T13:29:05Z</time>
      </trkpt>
      <trkpt lat="47.78345" lon="-3.53712">
        <ele>41.88</ele>
        <time>2020-07-08T13:29:06Z</time>
      </trkpt>
      <trkpt lat="47.78344" lon="-3.53716">
        <ele>42.15</ele>
        <time>2020-07-08T13:29:07Z</time>
      </trkpt>
      <trkpt lat="47.78343" lon="-3.53721">
        <ele>42.43</ele>
        <time>2020-07-08T13:29:08Z</time>
      </trkpt>
      <trkpt lat="47.78343" lon="-3.53725">
        <ele>42.62</ele>
        <time>2020-07-08T13:29:09Z</time>
      </trkpt>
      <trkpt lat="47.78342" lon="-3.5373">
        <ele>42.73</ele>
        <time>2020-07-08T13:29:10Z</time>
      </trkpt>
      <trkpt lat="47.7834" lon="-3.53734">
        <ele>42.82</ele>
        <time>2020-07-08T13:29:11Z</time>
      </trkpt>
      <trkpt lat="47.78339" lon="-3.53739">
        <ele>42.89</ele>
        <time>2020-07-08T13:29:12Z</time>
      </trkpt>
      <trkpt lat="47.78339" lon="-3.53744">
        <ele>42.94</ele>
        <time>2020-07-08T13:29:13Z</time>
      </trkpt>
      <trkpt lat="47.78337" lon="-3.53748">
        <ele>42.97</ele>
        <time>2020-07-08T13:29:14Z</time>
      </trkpt>
      <trkpt lat="47.78336" lon="-3.53753">
        <ele>43.06</ele>
        <time>2020-07-08T13:29:15Z</time>
      </trkpt>
      <trkpt lat="47.78335" lon="-3.53758">
        <ele>43.19</ele>
        <time>2020-07-08T13:29:16Z</time>
      </trkpt>
      <trkpt lat="47.78334" lon="-3.53762">
        <ele>43.36</ele>
        <time>2020-07-08T13:29:17Z</time>
      </trkpt>
      <trkpt lat="47.78333" lon="-3.53767">
        <ele>43.55</ele>
        <time>2020-07-08T13:29:18Z</time>
      </trkpt>
      <trkpt lat="47.78332" lon="-3.53771">
        <ele>43.79</ele>
        <time>2020-07-08T13:29:19Z</time>
      </trkpt>
      <trkpt lat="47.7833" lon="-3.53776">
        <ele>44.05</ele>
        <time>2020-07-08T13:29:20Z</time>
      </trkpt>
      <trkpt lat="47.7833" lon="-3.53781">
        <ele>44.29</ele>
        <time>2020-07-08T13:29:21Z</time>
      </trkpt>
      <trkpt lat="47.78328" lon="-3.53786">
        <ele>44.51</ele>
        <time>2020-07-08T13:29:22Z</time>
      </trkpt>
      <trkpt lat="47.78327" lon="-3.53791">
        <ele>44.73</ele>
        <time>2020-07-08T13:29:23Z</time>
      </trkpt>
      <trkpt lat="47.78326" lon="-3.53796">
        <ele>44.93</ele>
        <time>2020-07-08T13:29:24Z</time>
      </trkpt>
      <trkpt lat="47.78324" lon="-3.53801">
        <ele>45.14</ele>
        <time>2020-07-08T13:29:25Z</time>
      </trkpt>
      <trkpt lat="47.78323" lon="-3.53806">
        <ele>45.3</ele>
        <time>2020-07-08T13:29:26Z</time>
      </trkpt>
      <trkpt lat="47.78322" lon="-3.53811">
        <ele>45.38</ele>
        <time>2020-07-08T13:29:27Z</time>
      </trkpt>
      <trkpt lat="47.7832" lon="-3.53815">
        <ele>45.44</ele>
        <time>2020-07-08T13:29:28Z</time>
      </trkpt>
      <trkpt lat="47.78319" lon="-3.53821">
        <ele>45.49</ele>
        <time>2020-07-08T13:29:29Z</time>
      </trkpt>
      <trkpt lat="47.78318" lon="-3.53826">
        <ele>45.52</ele>
        <time>2020-07-08T13:29:30Z</time>
      </trkpt>
      <trkpt lat="47.78317" lon="-3.53831">
        <ele>45.55</ele>
        <time>2020-07-08T13:29:31Z</time>
      </trkpt>
      <trkpt lat="47.78316" lon="-3.53837">
        <ele>45.59</ele>
        <time>2020-07-08T13:29:32Z</time>
      </trkpt>
      <trkpt lat="47.78315" lon="-3.53842">
        <ele>45.64</ele>
        <time>2020-07-08T13:29:33Z</time>
      </trkpt>
      <trkpt lat="47.78314" lon="-3.53847">
        <ele>45.68</ele>
        <time>2020-07-08T13:29:34Z</time>
      </trkpt>
      <trkpt lat="47.78312" lon="-3.53852">
        <ele>45.73</ele>
        <time>2020-07-08T13:29:35Z</time>
      </trkpt>
      <trkpt lat="47.78311" lon="-3.53857">
        <ele>45.78</ele>
        <time>2020-07-08T13:29:36Z</time>
      </trkpt>
      <trkpt lat="47.7831" lon="-3.53862">
        <ele>45.82</ele>
        <time>2020-07-08T13:29:37Z</time>
      </trkpt>
      <trkpt lat="47.78309" lon="-3.53868">
        <ele>45.86</ele>
        <time>2020-07-08T13:29:38Z</time>
      </trkpt>
      <trkpt lat="47.78308" lon="-3.53873">
        <ele>45.9</ele>
        <time>2020-07-08T13:29:39Z</time>
      </trkpt>
      <trkpt lat="47.78307" lon="-3.53879">
        <ele>45.94</ele>
        <time>2020-07-08T13:29:40Z</time>
      </trkpt>
      <trkpt lat="47.78305" lon="-3.53884">
        <ele>45.98</ele>
        <time>2020-07-08T13:29:41Z</time>
      </trkpt>
      <trkpt lat="47.78304" lon="-3.5389">
        <ele>45.97</ele>
        <time>2020-07-08T13:29:42Z</time>
      </trkpt>
      <trkpt lat="47.78303" lon="-3.53896">
        <ele>45.81</ele>
        <time>2020-07-08T13:29:43Z</time>
      </trkpt>
      <trkpt lat="47.78302" lon="-3.53903">
        <ele>45.59</ele>
        <time>2020-07-08T13:29:44Z</time>
      </trkpt>
      <trkpt lat="47.783" lon="-3.53909">
        <ele>45.37</ele>
        <time>2020-07-08T13:29:45Z</time>
      </trkpt>
      <trkpt lat="47.78299" lon="-3.53915">
        <ele>45.15</ele>
        <time>2020-07-08T13:29:46Z</time>
      </trkpt>
      <trkpt lat="47.78297" lon="-3.53922">
        <ele>45.04</ele>
        <time>2020-07-08T13:29:47Z</time>
      </trkpt>
      <trkpt lat="47.78296" lon="-3.53928">
        <ele>45.01</ele>
        <time>2020-07-08T13:29:48Z</time>
      </trkpt>
      <trkpt lat="47.78294" lon="-3.53934">
        <ele>45</ele>
        <time>2020-07-08T13:29:49Z</time>
      </trkpt>
      <trkpt lat="47.78293" lon="-3.5394">
        <ele>45</ele>
        <time>2020-07-08T13:29:50Z</time>
      </trkpt>
      <trkpt lat="47.78291" lon="-3.53946">
        <ele>44.96</ele>
        <time>2020-07-08T13:29:51Z</time>
      </trkpt>
      <trkpt lat="47.78289" lon="-3.53952">
        <ele>44.8</ele>
        <time>2020-07-08T13:29:52Z</time>
      </trkpt>
      <trkpt lat="47.78287" lon="-3.53958">
        <ele>44.59</ele>
        <time>2020-07-08T13:29:53Z</time>
      </trkpt>
      <trkpt lat="47.78285" lon="-3.53965">
        <ele>44.36</ele>
        <time>2020-07-08T13:29:54Z</time>
      </trkpt>
      <trkpt lat="47.78283" lon="-3.53972">
        <ele>44.13</ele>
        <time>2020-07-08T13:29:55Z</time>
      </trkpt>
      <trkpt lat="47.78281" lon="-3.53979">
        <ele>43.87</ele>
        <time>2020-07-08T13:29:56Z</time>
      </trkpt>
      <trkpt lat="47.78279" lon="-3.53986">
        <ele>43.61</ele>
        <time>2020-07-08T13:29:57Z</time>
      </trkpt>
      <trkpt lat="47.78277" lon="-3.53994">
        <ele>43.34</ele>
        <time>2020-07-08T13:29:58Z</time>
      </trkpt>
      <trkpt lat="47.78276" lon="-3.54002">
        <ele>43.05</ele>
        <time>2020-07-08T13:29:59Z</time>
      </trkpt>
      <trkpt lat="47.78274" lon="-3.5401">
        <ele>42.73</ele>
        <time>2020-07-08T13:30:00Z</time>
      </trkpt>
      <trkpt lat="47.78273" lon="-3.54019">
        <ele>42.36</ele>
        <time>2020-07-08T13:30:01Z</time>
      </trkpt>
      <trkpt lat="47.78271" lon="-3.54028">
        <ele>41.94</ele>
        <time>2020-07-08T13:30:02Z</time>
      </trkpt>
      <trkpt lat="47.78269" lon="-3.54036">
        <ele>41.54</ele>
        <time>2020-07-08T13:30:03Z</time>
      </trkpt>
      <trkpt lat="47.78267" lon="-3.54045">
        <ele>41.15</ele>
        <time>2020-07-08T13:30:04Z</time>
      </trkpt>
      <trkpt lat="47.78265" lon="-3.54054">
        <ele>40.77</ele>
        <time>2020-07-08T13:30:05Z</time>
      </trkpt>
      <trkpt lat="47.78264" lon="-3.54063">
        <ele>40.4</ele>
        <time>2020-07-08T13:30:06Z</time>
      </trkpt>
      <trkpt lat="47.78263" lon="-3.54071">
        <ele>40.05</ele>
        <time>2020-07-08T13:30:07Z</time>
      </trkpt>
      <trkpt lat="47.78262" lon="-3.5408">
        <ele>39.7</ele>
        <time>2020-07-08T13:30:08Z</time>
      </trkpt>
      <trkpt lat="47.78261" lon="-3.54089">
        <ele>39.41</ele>
        <time>2020-07-08T13:30:09Z</time>
      </trkpt>
      <trkpt lat="47.7826" lon="-3.54097">
        <ele>39.16</ele>
        <time>2020-07-08T13:30:10Z</time>
      </trkpt>
      <trkpt lat="47.78259" lon="-3.54104">
        <ele>38.91</ele>
        <time>2020-07-08T13:30:11Z</time>
      </trkpt>
      <trkpt lat="47.78258" lon="-3.54113">
        <ele>38.7</ele>
        <time>2020-07-08T13:30:12Z</time>
      </trkpt>
      <trkpt lat="47.78257" lon="-3.54121">
        <ele>38.75</ele>
        <time>2020-07-08T13:30:13Z</time>
      </trkpt>
      <trkpt lat="47.78256" lon="-3.54129">
        <ele>38.89</ele>
        <time>2020-07-08T13:30:14Z</time>
      </trkpt>
      <trkpt lat="47.78255" lon="-3.54137">
        <ele>39.07</ele>
        <time>2020-07-08T13:30:15Z</time>
      </trkpt>
      <trkpt lat="47.78254" lon="-3.54145">
        <ele>39.12</ele>
        <time>2020-07-08T13:30:16Z</time>
      </trkpt>
      <trkpt lat="47.78253" lon="-3.54153">
        <ele>39.12</ele>
        <time>2020-07-08T13:30:17Z</time>
      </trkpt>
      <trkpt lat="47.78252" lon="-3.54162">
        <ele>39.09</ele>
        <time>2020-07-08T13:30:18Z</time>
      </trkpt>
      <trkpt lat="47.78251" lon="-3.5417">
        <ele>39.12</ele>
        <time>2020-07-08T13:30:19Z</time>
      </trkpt>
      <trkpt lat="47.7825" lon="-3.54178">
        <ele>39.32</ele>
        <time>2020-07-08T13:30:20Z</time>
      </trkpt>
      <trkpt lat="47.78249" lon="-3.54186">
        <ele>39.59</ele>
        <time>2020-07-08T13:30:21Z</time>
      </trkpt>
      <trkpt lat="47.78248" lon="-3.54195">
        <ele>39.89</ele>
        <time>2020-07-08T13:30:22Z</time>
      </trkpt>
      <trkpt lat="47.78248" lon="-3.54203">
        <ele>40.19</ele>
        <time>2020-07-08T13:30:23Z</time>
      </trkpt>
      <trkpt lat="47.78247" lon="-3.54212">
        <ele>40.5</ele>
        <time>2020-07-08T13:30:24Z</time>
      </trkpt>
      <trkpt lat="47.78246" lon="-3.54221">
        <ele>40.81</ele>
        <time>2020-07-08T13:30:25Z</time>
      </trkpt>
      <trkpt lat="47.78245" lon="-3.54229">
        <ele>41.08</ele>
        <time>2020-07-08T13:30:26Z</time>
      </trkpt>
      <trkpt lat="47.78244" lon="-3.54237">
        <ele>41.32</ele>
        <time>2020-07-08T13:30:27Z</time>
      </trkpt>
      <trkpt lat="47.78242" lon="-3.54245">
        <ele>41.52</ele>
        <time>2020-07-08T13:30:28Z</time>
      </trkpt>
      <trkpt lat="47.78241" lon="-3.54253">
        <ele>41.65</ele>
        <time>2020-07-08T13:30:29Z</time>
      </trkpt>
      <trkpt lat="47.7824" lon="-3.54261">
        <ele>41.74</ele>
        <time>2020-07-08T13:30:30Z</time>
      </trkpt>
      <trkpt lat="47.78238" lon="-3.54268">
        <ele>41.82</ele>
        <time>2020-07-08T13:30:31Z</time>
      </trkpt>
      <trkpt lat="47.78237" lon="-3.54276">
        <ele>41.92</ele>
        <time>2020-07-08T13:30:32Z</time>
      </trkpt>
      <trkpt lat="47.78235" lon="-3.54283">
        <ele>42.04</ele>
        <time>2020-07-08T13:30:33Z</time>
      </trkpt>
      <trkpt lat="47.78233" lon="-3.54291">
        <ele>42.14</ele>
        <time>2020-07-08T13:30:34Z</time>
      </trkpt>
      <trkpt lat="47.78231" lon="-3.54299">
        <ele>42.2</ele>
        <time>2020-07-08T13:30:35Z</time>
      </trkpt>
      <trkpt lat="47.78229" lon="-3.54307">
        <ele>42.25</ele>
        <time>2020-07-08T13:30:36Z</time>
      </trkpt>
      <trkpt lat="47.78227" lon="-3.54314">
        <ele>42.41</ele>
        <time>2020-07-08T13:30:37Z</time>
      </trkpt>
      <trkpt lat="47.78225" lon="-3.54322">
        <ele>42.6</ele>
        <time>2020-07-08T13:30:38Z</time>
      </trkpt>
      <trkpt lat="47.78223" lon="-3.54329">
        <ele>42.8</ele>
        <time>2020-07-08T13:30:39Z</time>
      </trkpt>
      <trkpt lat="47.78222" lon="-3.54336">
        <ele>42.92</ele>
        <time>2020-07-08T13:30:40Z</time>
      </trkpt>
      <trkpt lat="47.78219" lon="-3.54344">
        <ele>42.91</ele>
        <time>2020-07-08T13:30:41Z</time>
      </trkpt>
      <trkpt lat="47.78218" lon="-3.54352">
        <ele>42.85</ele>
        <time>2020-07-08T13:30:42Z</time>
      </trkpt>
      <trkpt lat="47.78215" lon="-3.54359">
        <ele>42.79</ele>
        <time>2020-07-08T13:30:43Z</time>
      </trkpt>
      <trkpt lat="47.78213" lon="-3.54367">
        <ele>42.72</ele>
        <time>2020-07-08T13:30:44Z</time>
      </trkpt>
      <trkpt lat="47.78212" lon="-3.54374">
        <ele>42.64</ele>
        <time>2020-07-08T13:30:45Z</time>
      </trkpt>
      <trkpt lat="47.7821" lon="-3.54382">
        <ele>42.58</ele>
        <time>2020-07-08T13:30:46Z</time>
      </trkpt>
      <trkpt lat="47.78208" lon="-3.5439">
        <ele>42.51</ele>
        <time>2020-07-08T13:30:47Z</time>
      </trkpt>
      <trkpt lat="47.78206" lon="-3.54398">
        <ele>42.45</ele>
        <time>2020-07-08T13:30:48Z</time>
      </trkpt>
      <trkpt lat="47.78204" lon="-3.54405">
        <ele>42.38</ele>
        <time>2020-07-08T13:30:49Z</time>
      </trkpt>
      <trkpt lat="47.78202" lon="-3.54413">
        <ele>42.31</ele>
        <time>2020-07-08T13:30:50Z</time>
      </trkpt>
      <trkpt lat="47.782" lon="-3.54421">
        <ele>42.24</ele>
        <time>2020-07-08T13:30:51Z</time>
      </trkpt>
      <trkpt lat="47.78199" lon="-3.54428">
        <ele>42.18</ele>
        <time>2020-07-08T13:30:52Z</time>
      </trkpt>
      <trkpt lat="47.78197" lon="-3.54436">
        <ele>42.11</ele>
        <time>2020-07-08T13:30:53Z</time>
      </trkpt>
      <trkpt lat="47.78195" lon="-3.54443">
        <ele>42.04</ele>
        <time>2020-07-08T13:30:54Z</time>
      </trkpt>
      <trkpt lat="47.78193" lon="-3.5445">
        <ele>41.97</ele>
        <time>2020-07-08T13:30:55Z</time>
      </trkpt>
      <trkpt lat="47.7819" lon="-3.54457">
        <ele>41.89</ele>
        <time>2020-07-08T13:30:56Z</time>
      </trkpt>
      <trkpt lat="47.78189" lon="-3.54464">
        <ele>41.82</ele>
        <time>2020-07-08T13:30:57Z</time>
      </trkpt>
      <trkpt lat="47.78187" lon="-3.54471">
        <ele>41.75</ele>
        <time>2020-07-08T13:30:58Z</time>
      </trkpt>
      <trkpt lat="47.78185" lon="-3.54479">
        <ele>41.68</ele>
        <time>2020-07-08T13:30:59Z</time>
      </trkpt>
      <trkpt lat="47.78183" lon="-3.54486">
        <ele>41.61</ele>
        <time>2020-07-08T13:31:00Z</time>
      </trkpt>
      <trkpt lat="47.7818" lon="-3.54494">
        <ele>41.53</ele>
        <time>2020-07-08T13:31:01Z</time>
      </trkpt>
      <trkpt lat="47.78178" lon="-3.54502">
        <ele>41.43</ele>
        <time>2020-07-08T13:31:02Z</time>
      </trkpt>
      <trkpt lat="47.78176" lon="-3.5451">
        <ele>41.29</ele>
        <time>2020-07-08T13:31:03Z</time>
      </trkpt>
      <trkpt lat="47.78174" lon="-3.54517">
        <ele>41.16</ele>
        <time>2020-07-08T13:31:04Z</time>
      </trkpt>
      <trkpt lat="47.78173" lon="-3.54525">
        <ele>41.06</ele>
        <time>2020-07-08T13:31:05Z</time>
      </trkpt>
      <trkpt lat="47.7817" lon="-3.54534">
        <ele>41</ele>
        <time>2020-07-08T13:31:06Z</time>
      </trkpt>
      <trkpt lat="47.78169" lon="-3.54542">
        <ele>40.97</ele>
        <time>2020-07-08T13:31:07Z</time>
      </trkpt>
      <trkpt lat="47.78167" lon="-3.5455">
        <ele>40.99</ele>
        <time>2020-07-08T13:31:08Z</time>
      </trkpt>
      <trkpt lat="47.78165" lon="-3.54558">
        <ele>40.9</ele>
        <time>2020-07-08T13:31:09Z</time>
      </trkpt>
      <trkpt lat="47.78164" lon="-3.54566">
        <ele>40.67</ele>
        <time>2020-07-08T13:31:10Z</time>
      </trkpt>
      <trkpt lat="47.78162" lon="-3.54573">
        <ele>40.41</ele>
        <time>2020-07-08T13:31:11Z</time>
      </trkpt>
      <trkpt lat="47.7816" lon="-3.54581">
        <ele>40.16</ele>
        <time>2020-07-08T13:31:12Z</time>
      </trkpt>
      <trkpt lat="47.78158" lon="-3.54588">
        <ele>39.93</ele>
        <time>2020-07-08T13:31:13Z</time>
      </trkpt>
      <trkpt lat="47.78157" lon="-3.54594">
        <ele>39.71</ele>
        <time>2020-07-08T13:31:14Z</time>
      </trkpt>
      <trkpt lat="47.78156" lon="-3.54599">
        <ele>39.53</ele>
        <time>2020-07-08T13:31:15Z</time>
      </trkpt>
      <trkpt lat="47.78154" lon="-3.54604">
        <ele>39.34</ele>
        <time>2020-07-08T13:31:16Z</time>
      </trkpt>
      <trkpt lat="47.78153" lon="-3.5461">
        <ele>39.14</ele>
        <time>2020-07-08T13:31:17Z</time>
      </trkpt>
      <trkpt lat="47.78151" lon="-3.54616">
        <ele>38.99</ele>
        <time>2020-07-08T13:31:18Z</time>
      </trkpt>
      <trkpt lat="47.78149" lon="-3.54623">
        <ele>38.89</ele>
        <time>2020-07-08T13:31:19Z</time>
      </trkpt>
      <trkpt lat="47.78146" lon="-3.5463">
        <ele>38.83</ele>
        <time>2020-07-08T13:31:20Z</time>
      </trkpt>
      <trkpt lat="47.78144" lon="-3.54638">
        <ele>38.82</ele>
        <time>2020-07-08T13:31:21Z</time>
      </trkpt>
      <trkpt lat="47.78142" lon="-3.54646">
        <ele>38.69</ele>
        <time>2020-07-08T13:31:22Z</time>
      </trkpt>
      <trkpt lat="47.7814" lon="-3.54654">
        <ele>38.51</ele>
        <time>2020-07-08T13:31:23Z</time>
      </trkpt>
      <trkpt lat="47.78137" lon="-3.54661">
        <ele>38.29</ele>
        <time>2020-07-08T13:31:24Z</time>
      </trkpt>
      <trkpt lat="47.78136" lon="-3.54668">
        <ele>38.04</ele>
        <time>2020-07-08T13:31:25Z</time>
      </trkpt>
      <trkpt lat="47.78134" lon="-3.54676">
        <ele>37.78</ele>
        <time>2020-07-08T13:31:26Z</time>
      </trkpt>
      <trkpt lat="47.78132" lon="-3.54683">
        <ele>37.52</ele>
        <time>2020-07-08T13:31:27Z</time>
      </trkpt>
      <trkpt lat="47.7813" lon="-3.54691">
        <ele>37.25</ele>
        <time>2020-07-08T13:31:28Z</time>
      </trkpt>
      <trkpt lat="47.78128" lon="-3.54698">
        <ele>37.08</ele>
        <time>2020-07-08T13:31:29Z</time>
      </trkpt>
      <trkpt lat="47.78126" lon="-3.54706">
        <ele>37.02</ele>
        <time>2020-07-08T13:31:30Z</time>
      </trkpt>
      <trkpt lat="47.78124" lon="-3.54714">
        <ele>37.01</ele>
        <time>2020-07-08T13:31:31Z</time>
      </trkpt>
      <trkpt lat="47.78123" lon="-3.54722">
        <ele>37</ele>
        <time>2020-07-08T13:31:32Z</time>
      </trkpt>
      <trkpt lat="47.7812" lon="-3.54731">
        <ele>36.93</ele>
        <time>2020-07-08T13:31:33Z</time>
      </trkpt>
      <trkpt lat="47.78118" lon="-3.54739">
        <ele>36.87</ele>
        <time>2020-07-08T13:31:34Z</time>
      </trkpt>
      <trkpt lat="47.78116" lon="-3.54746">
        <ele>36.85</ele>
        <time>2020-07-08T13:31:35Z</time>
      </trkpt>
      <trkpt lat="47.78114" lon="-3.54754">
        <ele>36.78</ele>
        <time>2020-07-08T13:31:36Z</time>
      </trkpt>
      <trkpt lat="47.78112" lon="-3.54762">
        <ele>36.61</ele>
        <time>2020-07-08T13:31:37Z</time>
      </trkpt>
      <trkpt lat="47.7811" lon="-3.5477">
        <ele>36.36</ele>
        <time>2020-07-08T13:31:38Z</time>
      </trkpt>
      <trkpt lat="47.78107" lon="-3.54779">
        <ele>36.11</ele>
        <time>2020-07-08T13:31:39Z</time>
      </trkpt>
      <trkpt lat="47.78105" lon="-3.54787">
        <ele>36.03</ele>
        <time>2020-07-08T13:31:40Z</time>
      </trkpt>
      <trkpt lat="47.78102" lon="-3.54796">
        <ele>36.01</ele>
        <time>2020-07-08T13:31:41Z</time>
      </trkpt>
      <trkpt lat="47.78098" lon="-3.54803">
        <ele>36</ele>
        <time>2020-07-08T13:31:42Z</time>
      </trkpt>
      <trkpt lat="47.78095" lon="-3.54811">
        <ele>35.92</ele>
        <time>2020-07-08T13:31:43Z</time>
      </trkpt>
      <trkpt lat="47.78092" lon="-3.54819">
        <ele>35.74</ele>
        <time>2020-07-08T13:31:44Z</time>
      </trkpt>
      <trkpt lat="47.78089" lon="-3.54828">
        <ele>35.48</ele>
        <time>2020-07-08T13:31:45Z</time>
      </trkpt>
      <trkpt lat="47.78086" lon="-3.54836">
        <ele>35.21</ele>
        <time>2020-07-08T13:31:46Z</time>
      </trkpt>
      <trkpt lat="47.78083" lon="-3.54844">
        <ele>35.06</ele>
        <time>2020-07-08T13:31:47Z</time>
      </trkpt>
      <trkpt lat="47.7808" lon="-3.54852">
        <ele>35.02</ele>
        <time>2020-07-08T13:31:48Z</time>
      </trkpt>
      <trkpt lat="47.78077" lon="-3.54861">
        <ele>35.01</ele>
        <time>2020-07-08T13:31:49Z</time>
      </trkpt>
      <trkpt lat="47.78073" lon="-3.54869">
        <ele>34.93</ele>
        <time>2020-07-08T13:31:50Z</time>
      </trkpt>
      <trkpt lat="47.7807" lon="-3.54878">
        <ele>34.77</ele>
        <time>2020-07-08T13:31:51Z</time>
      </trkpt>
      <trkpt lat="47.78066" lon="-3.54887">
        <ele>34.53</ele>
        <time>2020-07-08T13:31:52Z</time>
      </trkpt>
      <trkpt lat="47.78062" lon="-3.54895">
        <ele>34.29</ele>
        <time>2020-07-08T13:31:53Z</time>
      </trkpt>
      <trkpt lat="47.78058" lon="-3.54904">
        <ele>34.12</ele>
        <time>2020-07-08T13:31:54Z</time>
      </trkpt>
      <trkpt lat="47.78055" lon="-3.54913">
        <ele>34.02</ele>
        <time>2020-07-08T13:31:55Z</time>
      </trkpt>
      <trkpt lat="47.78051" lon="-3.54923">
        <ele>33.77</ele>
        <time>2020-07-08T13:31:56Z</time>
      </trkpt>
      <trkpt lat="47.78048" lon="-3.54932">
        <ele>33.45</ele>
        <time>2020-07-08T13:31:57Z</time>
      </trkpt>
      <trkpt lat="47.78045" lon="-3.54942">
        <ele>33.18</ele>
        <time>2020-07-08T13:31:58Z</time>
      </trkpt>
      <trkpt lat="47.78042" lon="-3.54951">
        <ele>33.05</ele>
        <time>2020-07-08T13:31:59Z</time>
      </trkpt>
      <trkpt lat="47.7804" lon="-3.54961">
        <ele>33.02</ele>
        <time>2020-07-08T13:32:00Z</time>
      </trkpt>
      <trkpt lat="47.78038" lon="-3.5497">
        <ele>33</ele>
        <time>2020-07-08T13:32:01Z</time>
      </trkpt>
      <trkpt lat="47.78036" lon="-3.54981">
        <ele>33</ele>
        <time>2020-07-08T13:32:02Z</time>
      </trkpt>
      <trkpt lat="47.78034" lon="-3.5499">
        <ele>33</ele>
        <time>2020-07-08T13:32:03Z</time>
      </trkpt>
      <trkpt lat="47.78032" lon="-3.54999">
        <ele>33</ele>
        <time>2020-07-08T13:32:04Z</time>
      </trkpt>
      <trkpt lat="47.78031" lon="-3.55009">
        <ele>33.2</ele>
        <time>2020-07-08T13:32:05Z</time>
      </trkpt>
      <trkpt lat="47.78029" lon="-3.55018">
        <ele>33.48</ele>
        <time>2020-07-08T13:32:06Z</time>
      </trkpt>
      <trkpt lat="47.78028" lon="-3.55026">
        <ele>33.79</ele>
        <time>2020-07-08T13:32:07Z</time>
      </trkpt>
      <trkpt lat="47.78027" lon="-3.55035">
        <ele>34.29</ele>
        <time>2020-07-08T13:32:08Z</time>
      </trkpt>
      <trkpt lat="47.78026" lon="-3.55043">
        <ele>34.86</ele>
        <time>2020-07-08T13:32:09Z</time>
      </trkpt>
      <trkpt lat="47.78026" lon="-3.55051">
        <ele>35.45</ele>
        <time>2020-07-08T13:32:10Z</time>
      </trkpt>
      <trkpt lat="47.78024" lon="-3.55059">
        <ele>35.93</ele>
        <time>2020-07-08T13:32:11Z</time>
      </trkpt>
      <trkpt lat="47.78023" lon="-3.55067">
        <ele>36.31</ele>
        <time>2020-07-08T13:32:12Z</time>
      </trkpt>
      <trkpt lat="47.78022" lon="-3.55075">
        <ele>36.68</ele>
        <time>2020-07-08T13:32:13Z</time>
      </trkpt>
      <trkpt lat="47.78021" lon="-3.55083">
        <ele>37.06</ele>
        <time>2020-07-08T13:32:14Z</time>
      </trkpt>
      <trkpt lat="47.78019" lon="-3.5509">
        <ele>37.46</ele>
        <time>2020-07-08T13:32:15Z</time>
      </trkpt>
      <trkpt lat="47.78018" lon="-3.55098">
        <ele>37.88</ele>
        <time>2020-07-08T13:32:16Z</time>
      </trkpt>
      <trkpt lat="47.78017" lon="-3.55107">
        <ele>38.35</ele>
        <time>2020-07-08T13:32:17Z</time>
      </trkpt>
      <trkpt lat="47.78016" lon="-3.55115">
        <ele>38.69</ele>
        <time>2020-07-08T13:32:18Z</time>
      </trkpt>
      <trkpt lat="47.78015" lon="-3.55123">
        <ele>38.83</ele>
        <time>2020-07-08T13:32:19Z</time>
      </trkpt>
      <trkpt lat="47.78015" lon="-3.55131">
        <ele>38.9</ele>
        <time>2020-07-08T13:32:20Z</time>
      </trkpt>
      <trkpt lat="47.78014" lon="-3.5514">
        <ele>38.96</ele>
        <time>2020-07-08T13:32:21Z</time>
      </trkpt>
      <trkpt lat="47.78014" lon="-3.55148">
        <ele>38.99</ele>
        <time>2020-07-08T13:32:22Z</time>
      </trkpt>
      <trkpt lat="47.78014" lon="-3.55156">
        <ele>39.02</ele>
        <time>2020-07-08T13:32:23Z</time>
      </trkpt>
      <trkpt lat="47.78013" lon="-3.55164">
        <ele>39.05</ele>
        <time>2020-07-08T13:32:24Z</time>
      </trkpt>
      <trkpt lat="47.78012" lon="-3.55173">
        <ele>39.07</ele>
        <time>2020-07-08T13:32:25Z</time>
      </trkpt>
      <trkpt lat="47.78012" lon="-3.5518">
        <ele>39.07</ele>
        <time>2020-07-08T13:32:26Z</time>
      </trkpt>
      <trkpt lat="47.78011" lon="-3.55188">
        <ele>39.05</ele>
        <time>2020-07-08T13:32:27Z</time>
      </trkpt>
      <trkpt lat="47.78011" lon="-3.55196">
        <ele>39.02</ele>
        <time>2020-07-08T13:32:28Z</time>
      </trkpt>
      <trkpt lat="47.7801" lon="-3.55203">
        <ele>39</ele>
        <time>2020-07-08T13:32:29Z</time>
      </trkpt>
      <trkpt lat="47.78009" lon="-3.5521">
        <ele>39</ele>
        <time>2020-07-08T13:32:30Z</time>
      </trkpt>
      <trkpt lat="47.78009" lon="-3.55217">
        <ele>39</ele>
        <time>2020-07-08T13:32:31Z</time>
      </trkpt>
      <trkpt lat="47.78009" lon="-3.55224">
        <ele>39.04</ele>
        <time>2020-07-08T13:32:32Z</time>
      </trkpt>
      <trkpt lat="47.78009" lon="-3.55231">
        <ele>39.24</ele>
        <time>2020-07-08T13:32:33Z</time>
      </trkpt>
      <trkpt lat="47.78009" lon="-3.55239">
        <ele>39.49</ele>
        <time>2020-07-08T13:32:34Z</time>
      </trkpt>
      <trkpt lat="47.78009" lon="-3.55246">
        <ele>39.75</ele>
        <time>2020-07-08T13:32:35Z</time>
      </trkpt>
      <trkpt lat="47.78009" lon="-3.55254">
        <ele>39.93</ele>
        <time>2020-07-08T13:32:36Z</time>
      </trkpt>
      <trkpt lat="47.78009" lon="-3.55261">
        <ele>39.98</ele>
        <time>2020-07-08T13:32:37Z</time>
      </trkpt>
      <trkpt lat="47.78008" lon="-3.55268">
        <ele>39.99</ele>
        <time>2020-07-08T13:32:38Z</time>
      </trkpt>
      <trkpt lat="47.78007" lon="-3.55275">
        <ele>40</ele>
        <time>2020-07-08T13:32:39Z</time>
      </trkpt>
      <trkpt lat="47.78006" lon="-3.55282">
        <ele>40</ele>
        <time>2020-07-08T13:32:40Z</time>
      </trkpt>
      <trkpt lat="47.78006" lon="-3.55289">
        <ele>40</ele>
        <time>2020-07-08T13:32:41Z</time>
      </trkpt>
      <trkpt lat="47.78005" lon="-3.55295">
        <ele>40</ele>
        <time>2020-07-08T13:32:42Z</time>
      </trkpt>
      <trkpt lat="47.78004" lon="-3.55302">
        <ele>40</ele>
        <time>2020-07-08T13:32:43Z</time>
      </trkpt>
      <trkpt lat="47.78003" lon="-3.55309">
        <ele>40.01</ele>
        <time>2020-07-08T13:32:44Z</time>
      </trkpt>
      <trkpt lat="47.78002" lon="-3.55315">
        <ele>40.02</ele>
        <time>2020-07-08T13:32:45Z</time>
      </trkpt>
      <trkpt lat="47.78001" lon="-3.55321">
        <ele>40.02</ele>
        <time>2020-07-08T13:32:46Z</time>
      </trkpt>
      <trkpt lat="47.77999" lon="-3.55327">
        <ele>39.99</ele>
        <time>2020-07-08T13:32:47Z</time>
      </trkpt>
      <trkpt lat="47.77997" lon="-3.55331">
        <ele>39.91</ele>
        <time>2020-07-08T13:32:48Z</time>
      </trkpt>
      <trkpt lat="47.77993" lon="-3.55334">
        <ele>39.81</ele>
        <time>2020-07-08T13:32:49Z</time>
      </trkpt>
      <trkpt lat="47.77989" lon="-3.55335">
        <ele>39.65</ele>
        <time>2020-07-08T13:32:50Z</time>
      </trkpt>
      <trkpt lat="47.77983" lon="-3.55335">
        <ele>39.48</ele>
        <time>2020-07-08T13:32:51Z</time>
      </trkpt>
      <trkpt lat="47.77978" lon="-3.55335">
        <ele>39.29</ele>
        <time>2020-07-08T13:32:52Z</time>
      </trkpt>
      <trkpt lat="47.77973" lon="-3.55335">
        <ele>39.12</ele>
        <time>2020-07-08T13:32:53Z</time>
      </trkpt>
      <trkpt lat="47.77969" lon="-3.55336">
        <ele>39.03</ele>
        <time>2020-07-08T13:32:54Z</time>
      </trkpt>
      <trkpt lat="47.77965" lon="-3.55335">
        <ele>39.01</ele>
        <time>2020-07-08T13:32:55Z</time>
      </trkpt>
      <trkpt lat="47.7796" lon="-3.55335">
        <ele>39</ele>
        <time>2020-07-08T13:32:56Z</time>
      </trkpt>
      <trkpt lat="47.77956" lon="-3.55334">
        <ele>39</ele>
        <time>2020-07-08T13:32:57Z</time>
      </trkpt>
      <trkpt lat="47.77952" lon="-3.55333">
        <ele>39</ele>
        <time>2020-07-08T13:32:58Z</time>
      </trkpt>
      <trkpt lat="47.77947" lon="-3.55332">
        <ele>39</ele>
        <time>2020-07-08T13:32:59Z</time>
      </trkpt>
      <trkpt lat="47.77942" lon="-3.55331">
        <ele>39</ele>
        <time>2020-07-08T13:33:00Z</time>
      </trkpt>
      <trkpt lat="47.77936" lon="-3.55331">
        <ele>39</ele>
        <time>2020-07-08T13:33:01Z</time>
      </trkpt>
      <trkpt lat="47.77932" lon="-3.55331">
        <ele>39</ele>
        <time>2020-07-08T13:33:02Z</time>
      </trkpt>
      <trkpt lat="47.77928" lon="-3.55331">
        <ele>39</ele>
        <time>2020-07-08T13:33:03Z</time>
      </trkpt>
      <trkpt lat="47.77923" lon="-3.55332">
        <ele>39</ele>
        <time>2020-07-08T13:33:04Z</time>
      </trkpt>
      <trkpt lat="47.77917" lon="-3.55333">
        <ele>39</ele>
        <time>2020-07-08T13:33:05Z</time>
      </trkpt>
      <trkpt lat="47.77911" lon="-3.55333">
        <ele>38.86</ele>
        <time>2020-07-08T13:33:06Z</time>
      </trkpt>
      <trkpt lat="47.77906" lon="-3.55334">
        <ele>38.68</ele>
        <time>2020-07-08T13:33:07Z</time>
      </trkpt>
      <trkpt lat="47.779" lon="-3.55335">
        <ele>38.51</ele>
        <time>2020-07-08T13:33:08Z</time>
      </trkpt>
      <trkpt lat="47.77895" lon="-3.55335">
        <ele>38.34</ele>
        <time>2020-07-08T13:33:09Z</time>
      </trkpt>
      <trkpt lat="47.7789" lon="-3.55335">
        <ele>38.17</ele>
        <time>2020-07-08T13:33:10Z</time>
      </trkpt>
      <trkpt lat="47.77884" lon="-3.55336">
        <ele>38.12</ele>
        <time>2020-07-08T13:33:11Z</time>
      </trkpt>
      <trkpt lat="47.77879" lon="-3.55337">
        <ele>38.1</ele>
        <time>2020-07-08T13:33:12Z</time>
      </trkpt>
      <trkpt lat="47.77874" lon="-3.55337">
        <ele>38.07</ele>
        <time>2020-07-08T13:33:13Z</time>
      </trkpt>
      <trkpt lat="47.77868" lon="-3.55337">
        <ele>38.05</ele>
        <time>2020-07-08T13:33:14Z</time>
      </trkpt>
      <trkpt lat="47.77862" lon="-3.55337">
        <ele>38.02</ele>
        <time>2020-07-08T13:33:15Z</time>
      </trkpt>
      <trkpt lat="47.77856" lon="-3.55337">
        <ele>37.85</ele>
        <time>2020-07-08T13:33:16Z</time>
      </trkpt>
      <trkpt lat="47.77848" lon="-3.55337">
        <ele>37.58</ele>
        <time>2020-07-08T13:33:17Z</time>
      </trkpt>
      <trkpt lat="47.77841" lon="-3.55337">
        <ele>37.31</ele>
        <time>2020-07-08T13:33:18Z</time>
      </trkpt>
      <trkpt lat="47.77835" lon="-3.55337">
        <ele>37.07</ele>
        <time>2020-07-08T13:33:19Z</time>
      </trkpt>
      <trkpt lat="47.77829" lon="-3.55337">
        <ele>36.94</ele>
        <time>2020-07-08T13:33:20Z</time>
      </trkpt>
      <trkpt lat="47.77824" lon="-3.55337">
        <ele>36.9</ele>
        <time>2020-07-08T13:33:21Z</time>
      </trkpt>
      <trkpt lat="47.77818" lon="-3.55337">
        <ele>36.87</ele>
        <time>2020-07-08T13:33:22Z</time>
      </trkpt>
      <trkpt lat="47.77813" lon="-3.55337">
        <ele>36.87</ele>
        <time>2020-07-08T13:33:23Z</time>
      </trkpt>
      <trkpt lat="47.77807" lon="-3.55336">
        <ele>36.88</ele>
        <time>2020-07-08T13:33:24Z</time>
      </trkpt>
      <trkpt lat="47.77801" lon="-3.55333">
        <ele>36.97</ele>
        <time>2020-07-08T13:33:25Z</time>
      </trkpt>
      <trkpt lat="47.77796" lon="-3.55328">
        <ele>37.11</ele>
        <time>2020-07-08T13:33:26Z</time>
      </trkpt>
      <trkpt lat="47.77793" lon="-3.55324">
        <ele>37.27</ele>
        <time>2020-07-08T13:33:27Z</time>
      </trkpt>
      <trkpt lat="47.7779" lon="-3.55321">
        <ele>37.39</ele>
        <time>2020-07-08T13:33:28Z</time>
      </trkpt>
      <trkpt lat="47.77786" lon="-3.5532">
        <ele>37.46</ele>
        <time>2020-07-08T13:33:29Z</time>
      </trkpt>
      <trkpt lat="47.77782" lon="-3.5532">
        <ele>37.47</ele>
        <time>2020-07-08T13:33:30Z</time>
      </trkpt>
      <trkpt lat="47.77778" lon="-3.55322">
        <ele>37.43</ele>
        <time>2020-07-08T13:33:31Z</time>
      </trkpt>
      <trkpt lat="47.77773" lon="-3.55324">
        <ele>37.38</ele>
        <time>2020-07-08T13:33:32Z</time>
      </trkpt>
      <trkpt lat="47.77769" lon="-3.55325">
        <ele>37.32</ele>
        <time>2020-07-08T13:33:33Z</time>
      </trkpt>
      <trkpt lat="47.77764" lon="-3.55327">
        <ele>37.26</ele>
        <time>2020-07-08T13:33:34Z</time>
      </trkpt>
      <trkpt lat="47.7776" lon="-3.55328">
        <ele>37.2</ele>
        <time>2020-07-08T13:33:35Z</time>
      </trkpt>
      <trkpt lat="47.77755" lon="-3.55332">
        <ele>37.1</ele>
        <time>2020-07-08T13:33:36Z</time>
      </trkpt>
      <trkpt lat="47.77752" lon="-3.55336">
        <ele>36.97</ele>
        <time>2020-07-08T13:33:37Z</time>
      </trkpt>
      <trkpt lat="47.77749" lon="-3.55339">
        <ele>36.84</ele>
        <time>2020-07-08T13:33:38Z</time>
      </trkpt>
      <trkpt lat="47.77744" lon="-3.55343">
        <ele>36.7</ele>
        <time>2020-07-08T13:33:39Z</time>
      </trkpt>
      <trkpt lat="47.77739" lon="-3.55347">
        <ele>36.57</ele>
        <time>2020-07-08T13:33:40Z</time>
      </trkpt>
      <trkpt lat="47.77733" lon="-3.55349">
        <ele>36.48</ele>
        <time>2020-07-08T13:33:41Z</time>
      </trkpt>
      <trkpt lat="47.77727" lon="-3.55351">
        <ele>36.4</ele>
        <time>2020-07-08T13:33:42Z</time>
      </trkpt>
      <trkpt lat="47.77722" lon="-3.55352">
        <ele>36.33</ele>
        <time>2020-07-08T13:33:43Z</time>
      </trkpt>
      <trkpt lat="47.77715" lon="-3.55353">
        <ele>36.12</ele>
        <time>2020-07-08T13:33:44Z</time>
      </trkpt>
      <trkpt lat="47.77709" lon="-3.55354">
        <ele>35.9</ele>
        <time>2020-07-08T13:33:45Z</time>
      </trkpt>
      <trkpt lat="47.77704" lon="-3.55354">
        <ele>35.69</ele>
        <time>2020-07-08T13:33:46Z</time>
      </trkpt>
      <trkpt lat="47.77699" lon="-3.55354">
        <ele>35.48</ele>
        <time>2020-07-08T13:33:47Z</time>
      </trkpt>
      <trkpt lat="47.77694" lon="-3.55355">
        <ele>35.3</ele>
        <time>2020-07-08T13:33:48Z</time>
      </trkpt>
      <trkpt lat="47.77689" lon="-3.55356">
        <ele>35.32</ele>
        <time>2020-07-08T13:33:49Z</time>
      </trkpt>
      <trkpt lat="47.77685" lon="-3.55357">
        <ele>35.42</ele>
        <time>2020-07-08T13:33:50Z</time>
      </trkpt>
      <trkpt lat="47.77681" lon="-3.55357">
        <ele>35.53</ele>
        <time>2020-07-08T13:33:51Z</time>
      </trkpt>
      <trkpt lat="47.77677" lon="-3.55356">
        <ele>35.65</ele>
        <time>2020-07-08T13:33:52Z</time>
      </trkpt>
      <trkpt lat="47.77673" lon="-3.55355">
        <ele>35.78</ele>
        <time>2020-07-08T13:33:53Z</time>
      </trkpt>
      <trkpt lat="47.77668" lon="-3.55354">
        <ele>35.9</ele>
        <time>2020-07-08T13:33:54Z</time>
      </trkpt>
      <trkpt lat="47.77664" lon="-3.55353">
        <ele>36.04</ele>
        <time>2020-07-08T13:33:55Z</time>
      </trkpt>
      <trkpt lat="47.77659" lon="-3.55352">
        <ele>36.2</ele>
        <time>2020-07-08T13:33:56Z</time>
      </trkpt>
      <trkpt lat="47.77655" lon="-3.55351">
        <ele>36.36</ele>
        <time>2020-07-08T13:33:57Z</time>
      </trkpt>
      <trkpt lat="47.77651" lon="-3.55352">
        <ele>36.51</ele>
        <time>2020-07-08T13:33:58Z</time>
      </trkpt>
      <trkpt lat="47.77647" lon="-3.55353">
        <ele>36.65</ele>
        <time>2020-07-08T13:33:59Z</time>
      </trkpt>
      <trkpt lat="47.77642" lon="-3.55355">
        <ele>36.8</ele>
        <time>2020-07-08T13:34:00Z</time>
      </trkpt>
      <trkpt lat="47.77638" lon="-3.55357">
        <ele>36.94</ele>
        <time>2020-07-08T13:34:01Z</time>
      </trkpt>
      <trkpt lat="47.77634" lon="-3.55358">
        <ele>37</ele>
        <time>2020-07-08T13:34:02Z</time>
      </trkpt>
      <trkpt lat="47.7763" lon="-3.5536">
        <ele>37.01</ele>
        <time>2020-07-08T13:34:03Z</time>
      </trkpt>
      <trkpt lat="47.77626" lon="-3.55361">
        <ele>37</ele>
        <time>2020-07-08T13:34:04Z</time>
      </trkpt>
      <trkpt lat="47.77621" lon="-3.55362">
        <ele>36.98</ele>
        <time>2020-07-08T13:34:05Z</time>
      </trkpt>
      <trkpt lat="47.77615" lon="-3.55364">
        <ele>36.93</ele>
        <time>2020-07-08T13:34:06Z</time>
      </trkpt>
      <trkpt lat="47.7761" lon="-3.55365">
        <ele>36.91</ele>
        <time>2020-07-08T13:34:07Z</time>
      </trkpt>
      <trkpt lat="47.77605" lon="-3.55367">
        <ele>36.97</ele>
        <time>2020-07-08T13:34:08Z</time>
      </trkpt>
      <trkpt lat="47.77601" lon="-3.55368">
        <ele>37.07</ele>
        <time>2020-07-08T13:34:09Z</time>
      </trkpt>
      <trkpt lat="47.77595" lon="-3.5537">
        <ele>37.21</ele>
        <time>2020-07-08T13:34:10Z</time>
      </trkpt>
      <trkpt lat="47.7759" lon="-3.55371">
        <ele>37.36</ele>
        <time>2020-07-08T13:34:11Z</time>
      </trkpt>
      <trkpt lat="47.77585" lon="-3.55372">
        <ele>37.5</ele>
        <time>2020-07-08T13:34:12Z</time>
      </trkpt>
      <trkpt lat="47.7758" lon="-3.55372">
        <ele>37.68</ele>
        <time>2020-07-08T13:34:13Z</time>
      </trkpt>
      <trkpt lat="47.77575" lon="-3.55372">
        <ele>37.91</ele>
        <time>2020-07-08T13:34:14Z</time>
      </trkpt>
      <trkpt lat="47.77571" lon="-3.55372">
        <ele>38.15</ele>
        <time>2020-07-08T13:34:15Z</time>
      </trkpt>
      <trkpt lat="47.77565" lon="-3.55373">
        <ele>38.39</ele>
        <time>2020-07-08T13:34:16Z</time>
      </trkpt>
      <trkpt lat="47.7756" lon="-3.55373">
        <ele>38.65</ele>
        <time>2020-07-08T13:34:17Z</time>
      </trkpt>
      <trkpt lat="47.77555" lon="-3.55376">
        <ele>38.87</ele>
        <time>2020-07-08T13:34:18Z</time>
      </trkpt>
      <trkpt lat="47.77549" lon="-3.55377">
        <ele>38.78</ele>
        <time>2020-07-08T13:34:19Z</time>
      </trkpt>
      <trkpt lat="47.77543" lon="-3.55378">
        <ele>38.63</ele>
        <time>2020-07-08T13:34:20Z</time>
      </trkpt>
      <trkpt lat="47.77539" lon="-3.55379">
        <ele>38.46</ele>
        <time>2020-07-08T13:34:21Z</time>
      </trkpt>
      <trkpt lat="47.77533" lon="-3.5538">
        <ele>38.27</ele>
        <time>2020-07-08T13:34:22Z</time>
      </trkpt>
      <trkpt lat="47.77528" lon="-3.55381">
        <ele>38.08</ele>
        <time>2020-07-08T13:34:23Z</time>
      </trkpt>
      <trkpt lat="47.77523" lon="-3.55381">
        <ele>37.9</ele>
        <time>2020-07-08T13:34:24Z</time>
      </trkpt>
      <trkpt lat="47.77519" lon="-3.55379">
        <ele>37.74</ele>
        <time>2020-07-08T13:34:25Z</time>
      </trkpt>
      <trkpt lat="47.77515" lon="-3.55376">
        <ele>37.6</ele>
        <time>2020-07-08T13:34:26Z</time>
      </trkpt>
      <trkpt lat="47.77512" lon="-3.55372">
        <ele>37.49</ele>
        <time>2020-07-08T13:34:27Z</time>
      </trkpt>
      <trkpt lat="47.77506" lon="-3.5537">
        <ele>37.31</ele>
        <time>2020-07-08T13:34:28Z</time>
      </trkpt>
      <trkpt lat="47.77503" lon="-3.55368">
        <ele>37.16</ele>
        <time>2020-07-08T13:34:29Z</time>
      </trkpt>
      <trkpt lat="47.77499" lon="-3.55366">
        <ele>37.06</ele>
        <time>2020-07-08T13:34:30Z</time>
      </trkpt>
      <trkpt lat="47.77496" lon="-3.55362">
        <ele>37.13</ele>
        <time>2020-07-08T13:34:31Z</time>
      </trkpt>
      <trkpt lat="47.77492" lon="-3.5536">
        <ele>37.28</ele>
        <time>2020-07-08T13:34:32Z</time>
      </trkpt>
      <trkpt lat="47.77488" lon="-3.55357">
        <ele>37.45</ele>
        <time>2020-07-08T13:34:33Z</time>
      </trkpt>
      <trkpt lat="47.77484" lon="-3.55354">
        <ele>37.61</ele>
        <time>2020-07-08T13:34:34Z</time>
      </trkpt>
      <trkpt lat="47.77482" lon="-3.5535">
        <ele>37.73</ele>
        <time>2020-07-08T13:34:35Z</time>
      </trkpt>
      <trkpt lat="47.77479" lon="-3.55347">
        <ele>37.83</ele>
        <time>2020-07-08T13:34:36Z</time>
      </trkpt>
      <trkpt lat="47.77477" lon="-3.55344">
        <ele>37.91</ele>
        <time>2020-07-08T13:34:37Z</time>
      </trkpt>
      <trkpt lat="47.77473" lon="-3.5534">
        <ele>37.97</ele>
        <time>2020-07-08T13:34:38Z</time>
      </trkpt>
      <trkpt lat="47.7747" lon="-3.55337">
        <ele>37.98</ele>
        <time>2020-07-08T13:34:39Z</time>
      </trkpt>
      <trkpt lat="47.77467" lon="-3.55334">
        <ele>37.99</ele>
        <time>2020-07-08T13:34:40Z</time>
      </trkpt>
      <trkpt lat="47.77463" lon="-3.55331">
        <ele>38</ele>
        <time>2020-07-08T13:34:41Z</time>
      </trkpt>
      <trkpt lat="47.7746" lon="-3.55327">
        <ele>38</ele>
        <time>2020-07-08T13:34:42Z</time>
      </trkpt>
      <trkpt lat="47.77456" lon="-3.55323">
        <ele>38</ele>
        <time>2020-07-08T13:34:43Z</time>
      </trkpt>
      <trkpt lat="47.77452" lon="-3.5532">
        <ele>38</ele>
        <time>2020-07-08T13:34:44Z</time>
      </trkpt>
      <trkpt lat="47.77448" lon="-3.55317">
        <ele>38</ele>
        <time>2020-07-08T13:34:45Z</time>
      </trkpt>
      <trkpt lat="47.77445" lon="-3.55314">
        <ele>38</ele>
        <time>2020-07-08T13:34:46Z</time>
      </trkpt>
      <trkpt lat="47.77443" lon="-3.5531">
        <ele>38.03</ele>
        <time>2020-07-08T13:34:47Z</time>
      </trkpt>
      <trkpt lat="47.7744" lon="-3.55306">
        <ele>38.12</ele>
        <time>2020-07-08T13:34:48Z</time>
      </trkpt>
      <trkpt lat="47.77437" lon="-3.55303">
        <ele>38.27</ele>
        <time>2020-07-08T13:34:49Z</time>
      </trkpt>
      <trkpt lat="47.77434" lon="-3.55301">
        <ele>38.43</ele>
        <time>2020-07-08T13:34:50Z</time>
      </trkpt>
      <trkpt lat="47.77431" lon="-3.55298">
        <ele>38.58</ele>
        <time>2020-07-08T13:34:51Z</time>
      </trkpt>
      <trkpt lat="47.77427" lon="-3.55294">
        <ele>38.71</ele>
        <time>2020-07-08T13:34:52Z</time>
      </trkpt>
      <trkpt lat="47.77424" lon="-3.55291">
        <ele>38.82</ele>
        <time>2020-07-08T13:34:53Z</time>
      </trkpt>
      <trkpt lat="47.77422" lon="-3.55288">
        <ele>38.89</ele>
        <time>2020-07-08T13:34:54Z</time>
      </trkpt>
      <trkpt lat="47.7742" lon="-3.55286">
        <ele>38.94</ele>
        <time>2020-07-08T13:34:55Z</time>
      </trkpt>
      <trkpt lat="47.77417" lon="-3.55284">
        <ele>38.98</ele>
        <time>2020-07-08T13:34:56Z</time>
      </trkpt>
      <trkpt lat="47.77414" lon="-3.55282">
        <ele>39</ele>
        <time>2020-07-08T13:34:57Z</time>
      </trkpt>
      <trkpt lat="47.77412" lon="-3.55279">
        <ele>39.01</ele>
        <time>2020-07-08T13:34:58Z</time>
      </trkpt>
      <trkpt lat="47.77409" lon="-3.55277">
        <ele>38.97</ele>
        <time>2020-07-08T13:34:59Z</time>
      </trkpt>
      <trkpt lat="47.77405" lon="-3.55274">
        <ele>38.9</ele>
        <time>2020-07-08T13:35:00Z</time>
      </trkpt>
      <trkpt lat="47.77402" lon="-3.55271">
        <ele>38.8</ele>
        <time>2020-07-08T13:35:01Z</time>
      </trkpt>
      <trkpt lat="47.77399" lon="-3.55268">
        <ele>38.7</ele>
        <time>2020-07-08T13:35:02Z</time>
      </trkpt>
      <trkpt lat="47.77397" lon="-3.55266">
        <ele>38.62</ele>
        <time>2020-07-08T13:35:03Z</time>
      </trkpt>
      <trkpt lat="47.77394" lon="-3.55264">
        <ele>38.54</ele>
        <time>2020-07-08T13:35:04Z</time>
      </trkpt>
      <trkpt lat="47.77391" lon="-3.55262">
        <ele>38.45</ele>
        <time>2020-07-08T13:35:05Z</time>
      </trkpt>
      <trkpt lat="47.77388" lon="-3.55259">
        <ele>38.36</ele>
        <time>2020-07-08T13:35:06Z</time>
      </trkpt>
      <trkpt lat="47.77385" lon="-3.55255">
        <ele>38.31</ele>
        <time>2020-07-08T13:35:07Z</time>
      </trkpt>
      <trkpt lat="47.77382" lon="-3.55252">
        <ele>38.3</ele>
        <time>2020-07-08T13:35:08Z</time>
      </trkpt>
      <trkpt lat="47.77379" lon="-3.55249">
        <ele>38.34</ele>
        <time>2020-07-08T13:35:09Z</time>
      </trkpt>
      <trkpt lat="47.77375" lon="-3.55245">
        <ele>38.4</ele>
        <time>2020-07-08T13:35:10Z</time>
      </trkpt>
      <trkpt lat="47.77371" lon="-3.55242">
        <ele>38.44</ele>
        <time>2020-07-08T13:35:11Z</time>
      </trkpt>
      <trkpt lat="47.77367" lon="-3.55238">
        <ele>38.45</ele>
        <time>2020-07-08T13:35:12Z</time>
      </trkpt>
      <trkpt lat="47.77363" lon="-3.55235">
        <ele>38.43</ele>
        <time>2020-07-08T13:35:13Z</time>
      </trkpt>
      <trkpt lat="47.77359" lon="-3.55231">
        <ele>38.39</ele>
        <time>2020-07-08T13:35:14Z</time>
      </trkpt>
      <trkpt lat="47.77354" lon="-3.55228">
        <ele>38.39</ele>
        <time>2020-07-08T13:35:15Z</time>
      </trkpt>
      <trkpt lat="47.7735" lon="-3.55224">
        <ele>38.43</ele>
        <time>2020-07-08T13:35:16Z</time>
      </trkpt>
      <trkpt lat="47.77345" lon="-3.55221">
        <ele>38.48</ele>
        <time>2020-07-08T13:35:17Z</time>
      </trkpt>
      <trkpt lat="47.77341" lon="-3.55217">
        <ele>38.53</ele>
        <time>2020-07-08T13:35:18Z</time>
      </trkpt>
      <trkpt lat="47.77337" lon="-3.55214">
        <ele>38.55</ele>
        <time>2020-07-08T13:35:19Z</time>
      </trkpt>
      <trkpt lat="47.77334" lon="-3.55211">
        <ele>38.57</ele>
        <time>2020-07-08T13:35:20Z</time>
      </trkpt>
      <trkpt lat="47.7733" lon="-3.55208">
        <ele>38.52</ele>
        <time>2020-07-08T13:35:21Z</time>
      </trkpt>
      <trkpt lat="47.77326" lon="-3.55206">
        <ele>38.45</ele>
        <time>2020-07-08T13:35:22Z</time>
      </trkpt>
      <trkpt lat="47.77324" lon="-3.55204">
        <ele>38.37</ele>
        <time>2020-07-08T13:35:23Z</time>
      </trkpt>
      <trkpt lat="47.77321" lon="-3.55203">
        <ele>38.32</ele>
        <time>2020-07-08T13:35:24Z</time>
      </trkpt>
      <trkpt lat="47.77319" lon="-3.55201">
        <ele>38.26</ele>
        <time>2020-07-08T13:35:25Z</time>
      </trkpt>
      <trkpt lat="47.77316" lon="-3.55199">
        <ele>38.21</ele>
        <time>2020-07-08T13:35:26Z</time>
      </trkpt>
      <trkpt lat="47.77313" lon="-3.55198">
        <ele>38.15</ele>
        <time>2020-07-08T13:35:27Z</time>
      </trkpt>
      <trkpt lat="47.7731" lon="-3.55196">
        <ele>38.08</ele>
        <time>2020-07-08T13:35:28Z</time>
      </trkpt>
      <trkpt lat="47.77307" lon="-3.55193">
        <ele>38.02</ele>
        <time>2020-07-08T13:35:29Z</time>
      </trkpt>
      <trkpt lat="47.77302" lon="-3.55191">
        <ele>38</ele>
        <time>2020-07-08T13:35:30Z</time>
      </trkpt>
      <trkpt lat="47.77298" lon="-3.55189">
        <ele>37.96</ele>
        <time>2020-07-08T13:35:31Z</time>
      </trkpt>
      <trkpt lat="47.77293" lon="-3.55187">
        <ele>37.9</ele>
        <time>2020-07-08T13:35:32Z</time>
      </trkpt>
      <trkpt lat="47.77288" lon="-3.55185">
        <ele>37.81</ele>
        <time>2020-07-08T13:35:33Z</time>
      </trkpt>
      <trkpt lat="47.77284" lon="-3.55181">
        <ele>37.68</ele>
        <time>2020-07-08T13:35:34Z</time>
      </trkpt>
      <trkpt lat="47.77282" lon="-3.55177">
        <ele>37.53</ele>
        <time>2020-07-08T13:35:35Z</time>
      </trkpt>
      <trkpt lat="47.77281" lon="-3.55173">
        <ele>37.37</ele>
        <time>2020-07-08T13:35:36Z</time>
      </trkpt>
      <trkpt lat="47.77281" lon="-3.55167">
        <ele>37.2</ele>
        <time>2020-07-08T13:35:37Z</time>
      </trkpt>
      <trkpt lat="47.77281" lon="-3.55162">
        <ele>37.12</ele>
        <time>2020-07-08T13:35:38Z</time>
      </trkpt>
      <trkpt lat="47.77281" lon="-3.55156">
        <ele>37.09</ele>
        <time>2020-07-08T13:35:39Z</time>
      </trkpt>
      <trkpt lat="47.77281" lon="-3.55151">
        <ele>37.07</ele>
        <time>2020-07-08T13:35:40Z</time>
      </trkpt>
      <trkpt lat="47.77282" lon="-3.55145">
        <ele>37.04</ele>
        <time>2020-07-08T13:35:41Z</time>
      </trkpt>
      <trkpt lat="47.77282" lon="-3.55139">
        <ele>37.01</ele>
        <time>2020-07-08T13:35:42Z</time>
      </trkpt>
      <trkpt lat="47.77282" lon="-3.55133">
        <ele>36.82</ele>
        <time>2020-07-08T13:35:43Z</time>
      </trkpt>
      <trkpt lat="47.77283" lon="-3.55124">
        <ele>36.51</ele>
        <time>2020-07-08T13:35:44Z</time>
      </trkpt>
      <trkpt lat="47.77283" lon="-3.55117">
        <ele>36.19</ele>
        <time>2020-07-08T13:35:45Z</time>
      </trkpt>
      <trkpt lat="47.77283" lon="-3.5511">
        <ele>35.87</ele>
        <time>2020-07-08T13:35:46Z</time>
      </trkpt>
      <trkpt lat="47.77283" lon="-3.55103">
        <ele>35.46</ele>
        <time>2020-07-08T13:35:47Z</time>
      </trkpt>
      <trkpt lat="47.77284" lon="-3.55096">
        <ele>35.02</ele>
        <time>2020-07-08T13:35:48Z</time>
      </trkpt>
      <trkpt lat="47.77285" lon="-3.55091">
        <ele>34.65</ele>
        <time>2020-07-08T13:35:49Z</time>
      </trkpt>
      <trkpt lat="47.77285" lon="-3.55088">
        <ele>34.38</ele>
        <time>2020-07-08T13:35:50Z</time>
      </trkpt>
      <trkpt lat="47.77284" lon="-3.55086">
        <ele>34.23</ele>
        <time>2020-07-08T13:35:51Z</time>
      </trkpt>
      <trkpt lat="47.77283" lon="-3.55086">
        <ele>34.19</ele>
        <time>2020-07-08T13:35:52Z</time>
      </trkpt>
      <trkpt lat="47.77281" lon="-3.55088">
        <ele>34.29</ele>
        <time>2020-07-08T13:35:53Z</time>
      </trkpt>
      <trkpt lat="47.7728" lon="-3.55092">
        <ele>34.51</ele>
        <time>2020-07-08T13:35:54Z</time>
      </trkpt>
      <trkpt lat="47.77278" lon="-3.55097">
        <ele>34.85</ele>
        <time>2020-07-08T13:35:55Z</time>
      </trkpt>
      <trkpt lat="47.77277" lon="-3.55102">
        <ele>35.2</ele>
        <time>2020-07-08T13:35:56Z</time>
      </trkpt>
      <trkpt lat="47.77276" lon="-3.55106">
        <ele>35.45</ele>
        <time>2020-07-08T13:35:57Z</time>
      </trkpt>
      <trkpt lat="47.77274" lon="-3.55107">
        <ele>35.55</ele>
        <time>2020-07-08T13:35:58Z</time>
      </trkpt>
      <trkpt lat="47.77271" lon="-3.55107">
        <ele>35.53</ele>
        <time>2020-07-08T13:35:59Z</time>
      </trkpt>
      <trkpt lat="47.7727" lon="-3.55107">
        <ele>35.47</ele>
        <time>2020-07-08T13:36:00Z</time>
      </trkpt>
      <trkpt lat="47.77269" lon="-3.55106">
        <ele>35.41</ele>
        <time>2020-07-08T13:36:01Z</time>
      </trkpt>
      <trkpt lat="47.77269" lon="-3.55106">
        <ele>35.39</ele>
        <time>2020-07-08T13:36:02Z</time>
      </trkpt>
      <trkpt lat="47.77269" lon="-3.55106">
        <ele>35.38</ele>
        <time>2020-07-08T13:36:03Z</time>
      </trkpt>
      <trkpt lat="47.77269" lon="-3.55106">
        <ele>35.38</ele>
        <time>2020-07-08T13:36:04Z</time>
      </trkpt>
      <trkpt lat="47.77269" lon="-3.55106">
        <ele>35.37</ele>
        <time>2020-07-08T13:36:05Z</time>
      </trkpt>
      <trkpt lat="47.77269" lon="-3.55106">
        <ele>35.37</ele>
        <time>2020-07-08T13:36:06Z</time>
      </trkpt>
      <trkpt lat="47.77269" lon="-3.55106">
        <ele>35.37</ele>
        <time>2020-07-08T13:36:07Z</time>
      </trkpt>
      <trkpt lat="47.77269" lon="-3.55106">
        <ele>35.37</ele>
        <time>2020-07-08T13:36:08Z</time>
      </trkpt>
      <trkpt lat="47.77269" lon="-3.55106">
        <ele>35.37</ele>
        <time>2020-07-08T13:36:09Z</time>
      </trkpt>
      <trkpt lat="47.77269" lon="-3.55106">
        <ele>35.37</ele>
        <time>2020-07-08T13:36:10Z</time>
      </trkpt>
      <trkpt lat="47.77269" lon="-3.55106">
        <ele>35.37</ele>
        <time>2020-07-08T13:36:11Z</time>
      </trkpt>
      <trkpt lat="47.77269" lon="-3.55106">
        <ele>35.37</ele>
        <time>2020-07-08T13:36:12Z</time>
      </trkpt>
    </trkseg>
  </trk>
</gpx>